<?xml version="1.0" encoding="UTF-8" standalone="no" ?>
<gpx xmlns="http://www.topografix.com/GPX/1/1" xmlns:xsi="http://www.w3.org/2001/XMLSchema-instance" xsi:schemaLocation="http://www.topografix.com/GPX/1/1 http://www.topografix.com/GPX/1/1/gpx.xsd" version="1.1" creator="VisuGPX - https://www.visugpx.com">
  <metadata>
    <name>Autour de la tour Denecourt - 21-4-13</name>
    <desc><![CDATA[Singles ludiques, montées cools, sous le soleils :-D]]></desc>
  </metadata>
  <trk>
    <name><![CDATA[PruneTrack]]></name>
    <trkseg>
      <trkpt lat="48.42942" lon="2.71881">
        <ele>145</ele>
        <time>2013-04-21T07:27:57Z</time>
      </trkpt>
      <trkpt lat="48.42937" lon="2.71877">
        <ele>145</ele>
        <time>2013-04-21T07:27:58Z</time>
      </trkpt>
      <trkpt lat="48.42937" lon="2.71876">
        <ele>145</ele>
        <time>2013-04-21T07:27:59Z</time>
      </trkpt>
      <trkpt lat="48.42937" lon="2.71876">
        <ele>145</ele>
        <time>2013-04-21T07:28:00Z</time>
      </trkpt>
      <trkpt lat="48.42963" lon="2.71881">
        <ele>145</ele>
        <time>2013-04-21T07:31:17Z</time>
      </trkpt>
      <trkpt lat="48.42963" lon="2.71881">
        <ele>145</ele>
        <time>2013-04-21T07:31:20Z</time>
      </trkpt>
      <trkpt lat="48.42963" lon="2.71882">
        <ele>145</ele>
        <time>2013-04-21T07:34:21Z</time>
      </trkpt>
      <trkpt lat="48.42962" lon="2.71882">
        <ele>145</ele>
        <time>2013-04-21T07:34:22Z</time>
      </trkpt>
      <trkpt lat="48.42962" lon="2.71882">
        <ele>145</ele>
        <time>2013-04-21T07:34:23Z</time>
      </trkpt>
      <trkpt lat="48.42962" lon="2.71882">
        <ele>145</ele>
        <time>2013-04-21T07:34:24Z</time>
      </trkpt>
      <trkpt lat="48.42961" lon="2.71882">
        <ele>145</ele>
        <time>2013-04-21T07:34:25Z</time>
      </trkpt>
      <trkpt lat="48.42961" lon="2.71882">
        <ele>145</ele>
        <time>2013-04-21T07:34:26Z</time>
      </trkpt>
      <trkpt lat="48.42961" lon="2.71882">
        <ele>145</ele>
        <time>2013-04-21T07:34:27Z</time>
      </trkpt>
      <trkpt lat="48.4296" lon="2.71882">
        <ele>145</ele>
        <time>2013-04-21T07:34:28Z</time>
      </trkpt>
      <trkpt lat="48.4296" lon="2.71882">
        <ele>145</ele>
        <time>2013-04-21T07:34:29Z</time>
      </trkpt>
      <trkpt lat="48.4296" lon="2.71883">
        <ele>145</ele>
        <time>2013-04-21T07:34:30Z</time>
      </trkpt>
      <trkpt lat="48.4296" lon="2.71883">
        <ele>145</ele>
        <time>2013-04-21T07:34:31Z</time>
      </trkpt>
      <trkpt lat="48.42959" lon="2.71883">
        <ele>145</ele>
        <time>2013-04-21T07:34:32Z</time>
      </trkpt>
      <trkpt lat="48.42959" lon="2.71883">
        <ele>145</ele>
        <time>2013-04-21T07:34:33Z</time>
      </trkpt>
      <trkpt lat="48.42959" lon="2.71883">
        <ele>145</ele>
        <time>2013-04-21T07:34:34Z</time>
      </trkpt>
      <trkpt lat="48.42959" lon="2.71883">
        <ele>145</ele>
        <time>2013-04-21T07:34:35Z</time>
      </trkpt>
      <trkpt lat="48.42959" lon="2.71883">
        <ele>145</ele>
        <time>2013-04-21T07:34:36Z</time>
      </trkpt>
      <trkpt lat="48.42958" lon="2.71883">
        <ele>145</ele>
        <time>2013-04-21T07:34:37Z</time>
      </trkpt>
      <trkpt lat="48.42958" lon="2.71883">
        <ele>145</ele>
        <time>2013-04-21T07:34:39Z</time>
      </trkpt>
      <trkpt lat="48.42958" lon="2.71883">
        <ele>145</ele>
        <time>2013-04-21T07:34:40Z</time>
      </trkpt>
      <trkpt lat="48.42958" lon="2.71883">
        <ele>145</ele>
        <time>2013-04-21T07:34:41Z</time>
      </trkpt>
      <trkpt lat="48.42958" lon="2.71883">
        <ele>145</ele>
        <time>2013-04-21T07:34:42Z</time>
      </trkpt>
      <trkpt lat="48.42958" lon="2.71883">
        <ele>145</ele>
        <time>2013-04-21T07:34:45Z</time>
      </trkpt>
      <trkpt lat="48.42958" lon="2.71883">
        <ele>145</ele>
        <time>2013-04-21T07:34:46Z</time>
      </trkpt>
      <trkpt lat="48.42958" lon="2.71883">
        <ele>145</ele>
        <time>2013-04-21T07:34:49Z</time>
      </trkpt>
      <trkpt lat="48.42957" lon="2.71883">
        <ele>145</ele>
        <time>2013-04-21T07:34:57Z</time>
      </trkpt>
      <trkpt lat="48.42958" lon="2.71883">
        <ele>145</ele>
        <time>2013-04-21T07:34:59Z</time>
      </trkpt>
      <trkpt lat="48.42957" lon="2.71884">
        <ele>145</ele>
        <time>2013-04-21T07:35:00Z</time>
      </trkpt>
      <trkpt lat="48.42958" lon="2.71884">
        <ele>145</ele>
        <time>2013-04-21T07:35:01Z</time>
      </trkpt>
      <trkpt lat="48.42958" lon="2.71884">
        <ele>145</ele>
        <time>2013-04-21T07:35:05Z</time>
      </trkpt>
      <trkpt lat="48.42958" lon="2.71884">
        <ele>145</ele>
        <time>2013-04-21T07:35:07Z</time>
      </trkpt>
      <trkpt lat="48.42958" lon="2.71884">
        <ele>145</ele>
        <time>2013-04-21T07:35:09Z</time>
      </trkpt>
      <trkpt lat="48.42958" lon="2.71884">
        <ele>145</ele>
        <time>2013-04-21T07:35:10Z</time>
      </trkpt>
      <trkpt lat="48.42958" lon="2.71884">
        <ele>145</ele>
        <time>2013-04-21T07:35:11Z</time>
      </trkpt>
      <trkpt lat="48.42958" lon="2.71884">
        <ele>145</ele>
        <time>2013-04-21T07:35:12Z</time>
      </trkpt>
      <trkpt lat="48.42958" lon="2.71884">
        <ele>145</ele>
        <time>2013-04-21T07:35:13Z</time>
      </trkpt>
      <trkpt lat="48.42958" lon="2.71884">
        <ele>145</ele>
        <time>2013-04-21T07:35:14Z</time>
      </trkpt>
      <trkpt lat="48.42959" lon="2.71884">
        <ele>145</ele>
        <time>2013-04-21T07:35:15Z</time>
      </trkpt>
      <trkpt lat="48.42959" lon="2.71885">
        <ele>145</ele>
        <time>2013-04-21T07:35:16Z</time>
      </trkpt>
      <trkpt lat="48.42959" lon="2.71885">
        <ele>145</ele>
        <time>2013-04-21T07:35:19Z</time>
      </trkpt>
      <trkpt lat="48.42959" lon="2.71885">
        <ele>145</ele>
        <time>2013-04-21T07:35:20Z</time>
      </trkpt>
      <trkpt lat="48.42959" lon="2.71885">
        <ele>145</ele>
        <time>2013-04-21T07:35:22Z</time>
      </trkpt>
      <trkpt lat="48.42959" lon="2.71885">
        <ele>145</ele>
        <time>2013-04-21T07:35:24Z</time>
      </trkpt>
      <trkpt lat="48.42959" lon="2.71885">
        <ele>145</ele>
        <time>2013-04-21T07:35:26Z</time>
      </trkpt>
      <trkpt lat="48.4296" lon="2.71885">
        <ele>145</ele>
        <time>2013-04-21T07:35:28Z</time>
      </trkpt>
      <trkpt lat="48.4296" lon="2.71884">
        <ele>145</ele>
        <time>2013-04-21T07:35:29Z</time>
      </trkpt>
      <trkpt lat="48.4296" lon="2.71883">
        <ele>145</ele>
        <time>2013-04-21T07:35:31Z</time>
      </trkpt>
      <trkpt lat="48.4296" lon="2.71882">
        <ele>145</ele>
        <time>2013-04-21T07:35:32Z</time>
      </trkpt>
      <trkpt lat="48.4296" lon="2.71882">
        <ele>145</ele>
        <time>2013-04-21T07:35:34Z</time>
      </trkpt>
      <trkpt lat="48.4296" lon="2.71883">
        <ele>145</ele>
        <time>2013-04-21T07:35:35Z</time>
      </trkpt>
      <trkpt lat="48.4296" lon="2.71884">
        <ele>145</ele>
        <time>2013-04-21T07:35:36Z</time>
      </trkpt>
      <trkpt lat="48.4296" lon="2.71885">
        <ele>145</ele>
        <time>2013-04-21T07:35:37Z</time>
      </trkpt>
      <trkpt lat="48.4296" lon="2.71886">
        <ele>145</ele>
        <time>2013-04-21T07:35:38Z</time>
      </trkpt>
      <trkpt lat="48.4296" lon="2.71886">
        <ele>145</ele>
        <time>2013-04-21T07:35:39Z</time>
      </trkpt>
      <trkpt lat="48.4296" lon="2.71886">
        <ele>145</ele>
        <time>2013-04-21T07:35:44Z</time>
      </trkpt>
      <trkpt lat="48.4296" lon="2.71886">
        <ele>145</ele>
        <time>2013-04-21T07:35:45Z</time>
      </trkpt>
      <trkpt lat="48.4296" lon="2.71886">
        <ele>145</ele>
        <time>2013-04-21T07:35:46Z</time>
      </trkpt>
      <trkpt lat="48.4296" lon="2.71887">
        <ele>145</ele>
        <time>2013-04-21T07:35:47Z</time>
      </trkpt>
      <trkpt lat="48.4296" lon="2.71887">
        <ele>145</ele>
        <time>2013-04-21T07:35:48Z</time>
      </trkpt>
      <trkpt lat="48.4296" lon="2.71887">
        <ele>145</ele>
        <time>2013-04-21T07:35:49Z</time>
      </trkpt>
      <trkpt lat="48.4296" lon="2.71887">
        <ele>145</ele>
        <time>2013-04-21T07:35:50Z</time>
      </trkpt>
      <trkpt lat="48.4296" lon="2.71887">
        <ele>145</ele>
        <time>2013-04-21T07:35:51Z</time>
      </trkpt>
      <trkpt lat="48.4296" lon="2.71887">
        <ele>145</ele>
        <time>2013-04-21T07:35:55Z</time>
      </trkpt>
      <trkpt lat="48.4296" lon="2.71887">
        <ele>145</ele>
        <time>2013-04-21T07:35:56Z</time>
      </trkpt>
      <trkpt lat="48.4296" lon="2.71887">
        <ele>145</ele>
        <time>2013-04-21T07:35:57Z</time>
      </trkpt>
      <trkpt lat="48.4296" lon="2.71887">
        <ele>145</ele>
        <time>2013-04-21T07:35:58Z</time>
      </trkpt>
      <trkpt lat="48.4296" lon="2.71887">
        <ele>145</ele>
        <time>2013-04-21T07:36:00Z</time>
      </trkpt>
      <trkpt lat="48.4296" lon="2.71886">
        <ele>145</ele>
        <time>2013-04-21T07:36:03Z</time>
      </trkpt>
      <trkpt lat="48.4296" lon="2.71886">
        <ele>145</ele>
        <time>2013-04-21T07:36:05Z</time>
      </trkpt>
      <trkpt lat="48.4296" lon="2.71886">
        <ele>145</ele>
        <time>2013-04-21T07:36:06Z</time>
      </trkpt>
      <trkpt lat="48.4296" lon="2.71886">
        <ele>145</ele>
        <time>2013-04-21T07:36:07Z</time>
      </trkpt>
      <trkpt lat="48.4296" lon="2.71886">
        <ele>145</ele>
        <time>2013-04-21T07:36:08Z</time>
      </trkpt>
      <trkpt lat="48.4296" lon="2.71886">
        <ele>145</ele>
        <time>2013-04-21T07:36:09Z</time>
      </trkpt>
      <trkpt lat="48.4296" lon="2.71886">
        <ele>145</ele>
        <time>2013-04-21T07:36:10Z</time>
      </trkpt>
      <trkpt lat="48.4296" lon="2.71886">
        <ele>145</ele>
        <time>2013-04-21T07:36:11Z</time>
      </trkpt>
      <trkpt lat="48.4296" lon="2.71886">
        <ele>145</ele>
        <time>2013-04-21T07:36:12Z</time>
      </trkpt>
      <trkpt lat="48.42959" lon="2.71886">
        <ele>145</ele>
        <time>2013-04-21T07:36:13Z</time>
      </trkpt>
      <trkpt lat="48.42959" lon="2.71885">
        <ele>145</ele>
        <time>2013-04-21T07:36:14Z</time>
      </trkpt>
      <trkpt lat="48.42959" lon="2.71885">
        <ele>145</ele>
        <time>2013-04-21T07:36:15Z</time>
      </trkpt>
      <trkpt lat="48.42959" lon="2.71885">
        <ele>145</ele>
        <time>2013-04-21T07:36:17Z</time>
      </trkpt>
      <trkpt lat="48.42959" lon="2.71885">
        <ele>145</ele>
        <time>2013-04-21T07:36:18Z</time>
      </trkpt>
      <trkpt lat="48.42959" lon="2.71885">
        <ele>145</ele>
        <time>2013-04-21T07:36:20Z</time>
      </trkpt>
      <trkpt lat="48.42959" lon="2.71885">
        <ele>145</ele>
        <time>2013-04-21T07:36:22Z</time>
      </trkpt>
      <trkpt lat="48.42959" lon="2.71885">
        <ele>145</ele>
        <time>2013-04-21T07:36:23Z</time>
      </trkpt>
      <trkpt lat="48.42959" lon="2.71885">
        <ele>145</ele>
        <time>2013-04-21T07:36:25Z</time>
      </trkpt>
      <trkpt lat="48.42959" lon="2.71885">
        <ele>145</ele>
        <time>2013-04-21T07:36:26Z</time>
      </trkpt>
      <trkpt lat="48.42958" lon="2.71885">
        <ele>145</ele>
        <time>2013-04-21T07:36:28Z</time>
      </trkpt>
      <trkpt lat="48.42958" lon="2.71886">
        <ele>145</ele>
        <time>2013-04-21T07:36:29Z</time>
      </trkpt>
      <trkpt lat="48.42958" lon="2.71886">
        <ele>145</ele>
        <time>2013-04-21T07:36:31Z</time>
      </trkpt>
      <trkpt lat="48.42958" lon="2.71886">
        <ele>145</ele>
        <time>2013-04-21T07:36:34Z</time>
      </trkpt>
      <trkpt lat="48.42958" lon="2.71885">
        <ele>145</ele>
        <time>2013-04-21T07:36:35Z</time>
      </trkpt>
      <trkpt lat="48.42958" lon="2.71885">
        <ele>145</ele>
        <time>2013-04-21T07:36:36Z</time>
      </trkpt>
      <trkpt lat="48.42958" lon="2.71885">
        <ele>145</ele>
        <time>2013-04-21T07:36:37Z</time>
      </trkpt>
      <trkpt lat="48.42958" lon="2.71885">
        <ele>145</ele>
        <time>2013-04-21T07:36:39Z</time>
      </trkpt>
      <trkpt lat="48.42958" lon="2.71886">
        <ele>145</ele>
        <time>2013-04-21T07:36:41Z</time>
      </trkpt>
      <trkpt lat="48.42958" lon="2.71886">
        <ele>145</ele>
        <time>2013-04-21T07:36:42Z</time>
      </trkpt>
      <trkpt lat="48.42958" lon="2.71886">
        <ele>145</ele>
        <time>2013-04-21T07:36:43Z</time>
      </trkpt>
      <trkpt lat="48.42958" lon="2.71887">
        <ele>145</ele>
        <time>2013-04-21T07:36:44Z</time>
      </trkpt>
      <trkpt lat="48.42958" lon="2.71887">
        <ele>145</ele>
        <time>2013-04-21T07:36:45Z</time>
      </trkpt>
      <trkpt lat="48.42958" lon="2.71888">
        <ele>145</ele>
        <time>2013-04-21T07:36:46Z</time>
      </trkpt>
      <trkpt lat="48.42958" lon="2.71888">
        <ele>145</ele>
        <time>2013-04-21T07:36:47Z</time>
      </trkpt>
      <trkpt lat="48.42959" lon="2.71888">
        <ele>145</ele>
        <time>2013-04-21T07:36:48Z</time>
      </trkpt>
      <trkpt lat="48.42959" lon="2.71888">
        <ele>145</ele>
        <time>2013-04-21T07:36:49Z</time>
      </trkpt>
      <trkpt lat="48.42959" lon="2.71888">
        <ele>145</ele>
        <time>2013-04-21T07:36:50Z</time>
      </trkpt>
      <trkpt lat="48.42959" lon="2.71889">
        <ele>145</ele>
        <time>2013-04-21T07:36:51Z</time>
      </trkpt>
      <trkpt lat="48.42959" lon="2.71889">
        <ele>145</ele>
        <time>2013-04-21T07:36:53Z</time>
      </trkpt>
      <trkpt lat="48.42959" lon="2.71889">
        <ele>145</ele>
        <time>2013-04-21T07:36:55Z</time>
      </trkpt>
      <trkpt lat="48.42959" lon="2.71889">
        <ele>145</ele>
        <time>2013-04-21T07:36:57Z</time>
      </trkpt>
      <trkpt lat="48.42959" lon="2.71889">
        <ele>145</ele>
        <time>2013-04-21T07:36:59Z</time>
      </trkpt>
      <trkpt lat="48.42958" lon="2.71889">
        <ele>145</ele>
        <time>2013-04-21T07:37:00Z</time>
      </trkpt>
      <trkpt lat="48.42958" lon="2.71889">
        <ele>145</ele>
        <time>2013-04-21T07:37:01Z</time>
      </trkpt>
      <trkpt lat="48.42958" lon="2.71889">
        <ele>145</ele>
        <time>2013-04-21T07:37:05Z</time>
      </trkpt>
      <trkpt lat="48.42958" lon="2.71889">
        <ele>145</ele>
        <time>2013-04-21T07:37:06Z</time>
      </trkpt>
      <trkpt lat="48.42958" lon="2.71889">
        <ele>145</ele>
        <time>2013-04-21T07:37:07Z</time>
      </trkpt>
      <trkpt lat="48.42958" lon="2.71889">
        <ele>145</ele>
        <time>2013-04-21T07:37:08Z</time>
      </trkpt>
      <trkpt lat="48.42958" lon="2.71889">
        <ele>145</ele>
        <time>2013-04-21T07:37:09Z</time>
      </trkpt>
      <trkpt lat="48.42958" lon="2.7189">
        <ele>145</ele>
        <time>2013-04-21T07:37:11Z</time>
      </trkpt>
      <trkpt lat="48.42958" lon="2.7189">
        <ele>145</ele>
        <time>2013-04-21T07:37:12Z</time>
      </trkpt>
      <trkpt lat="48.42957" lon="2.7189">
        <ele>145</ele>
        <time>2013-04-21T07:37:14Z</time>
      </trkpt>
      <trkpt lat="48.42957" lon="2.7189">
        <ele>145</ele>
        <time>2013-04-21T07:37:16Z</time>
      </trkpt>
      <trkpt lat="48.42957" lon="2.7189">
        <ele>145</ele>
        <time>2013-04-21T07:37:17Z</time>
      </trkpt>
      <trkpt lat="48.42957" lon="2.7189">
        <ele>145</ele>
        <time>2013-04-21T07:37:18Z</time>
      </trkpt>
      <trkpt lat="48.42957" lon="2.7189">
        <ele>145</ele>
        <time>2013-04-21T07:37:20Z</time>
      </trkpt>
      <trkpt lat="48.42958" lon="2.71891">
        <ele>145</ele>
        <time>2013-04-21T07:37:22Z</time>
      </trkpt>
      <trkpt lat="48.42965" lon="2.71892">
        <ele>145</ele>
        <time>2013-04-21T07:38:54Z</time>
      </trkpt>
      <trkpt lat="48.42964" lon="2.71892">
        <ele>145</ele>
        <time>2013-04-21T07:38:58Z</time>
      </trkpt>
      <trkpt lat="48.42964" lon="2.71892">
        <ele>145</ele>
        <time>2013-04-21T07:39:03Z</time>
      </trkpt>
      <trkpt lat="48.42964" lon="2.71892">
        <ele>145</ele>
        <time>2013-04-21T07:39:04Z</time>
      </trkpt>
      <trkpt lat="48.42964" lon="2.71891">
        <ele>145</ele>
        <time>2013-04-21T07:39:11Z</time>
      </trkpt>
      <trkpt lat="48.42964" lon="2.71891">
        <ele>145</ele>
        <time>2013-04-21T07:39:12Z</time>
      </trkpt>
      <trkpt lat="48.42964" lon="2.71891">
        <ele>145</ele>
        <time>2013-04-21T07:39:13Z</time>
      </trkpt>
      <trkpt lat="48.42964" lon="2.71891">
        <ele>145</ele>
        <time>2013-04-21T07:39:16Z</time>
      </trkpt>
      <trkpt lat="48.42964" lon="2.71892">
        <ele>145</ele>
        <time>2013-04-21T07:39:18Z</time>
      </trkpt>
      <trkpt lat="48.42965" lon="2.71892">
        <ele>145</ele>
        <time>2013-04-21T07:39:19Z</time>
      </trkpt>
      <trkpt lat="48.42965" lon="2.71892">
        <ele>145</ele>
        <time>2013-04-21T07:39:20Z</time>
      </trkpt>
      <trkpt lat="48.42965" lon="2.71892">
        <ele>145</ele>
        <time>2013-04-21T07:39:21Z</time>
      </trkpt>
      <trkpt lat="48.42965" lon="2.71892">
        <ele>145</ele>
        <time>2013-04-21T07:39:22Z</time>
      </trkpt>
      <trkpt lat="48.42965" lon="2.71892">
        <ele>145</ele>
        <time>2013-04-21T07:39:23Z</time>
      </trkpt>
      <trkpt lat="48.42966" lon="2.71892">
        <ele>145</ele>
        <time>2013-04-21T07:39:24Z</time>
      </trkpt>
      <trkpt lat="48.42966" lon="2.71892">
        <ele>145</ele>
        <time>2013-04-21T07:39:25Z</time>
      </trkpt>
      <trkpt lat="48.42966" lon="2.71892">
        <ele>145</ele>
        <time>2013-04-21T07:39:26Z</time>
      </trkpt>
      <trkpt lat="48.42966" lon="2.71892">
        <ele>145</ele>
        <time>2013-04-21T07:39:30Z</time>
      </trkpt>
      <trkpt lat="48.42965" lon="2.71892">
        <ele>145</ele>
        <time>2013-04-21T07:39:31Z</time>
      </trkpt>
      <trkpt lat="48.42965" lon="2.71892">
        <ele>145</ele>
        <time>2013-04-21T07:39:33Z</time>
      </trkpt>
      <trkpt lat="48.42965" lon="2.71892">
        <ele>145</ele>
        <time>2013-04-21T07:39:35Z</time>
      </trkpt>
      <trkpt lat="48.42965" lon="2.71891">
        <ele>145</ele>
        <time>2013-04-21T07:39:37Z</time>
      </trkpt>
      <trkpt lat="48.42965" lon="2.71891">
        <ele>145</ele>
        <time>2013-04-21T07:39:41Z</time>
      </trkpt>
      <trkpt lat="48.42965" lon="2.71891">
        <ele>145</ele>
        <time>2013-04-21T07:39:42Z</time>
      </trkpt>
      <trkpt lat="48.42965" lon="2.71891">
        <ele>145</ele>
        <time>2013-04-21T07:39:44Z</time>
      </trkpt>
      <trkpt lat="48.42965" lon="2.71891">
        <ele>145</ele>
        <time>2013-04-21T07:39:47Z</time>
      </trkpt>
      <trkpt lat="48.42965" lon="2.71891">
        <ele>145</ele>
        <time>2013-04-21T07:39:50Z</time>
      </trkpt>
      <trkpt lat="48.42965" lon="2.71891">
        <ele>145</ele>
        <time>2013-04-21T07:39:52Z</time>
      </trkpt>
      <trkpt lat="48.42965" lon="2.71891">
        <ele>145</ele>
        <time>2013-04-21T07:39:53Z</time>
      </trkpt>
      <trkpt lat="48.42965" lon="2.71891">
        <ele>145</ele>
        <time>2013-04-21T07:39:54Z</time>
      </trkpt>
      <trkpt lat="48.42965" lon="2.71891">
        <ele>145</ele>
        <time>2013-04-21T07:39:55Z</time>
      </trkpt>
      <trkpt lat="48.42965" lon="2.7189">
        <ele>145</ele>
        <time>2013-04-21T07:39:57Z</time>
      </trkpt>
      <trkpt lat="48.42965" lon="2.7189">
        <ele>145</ele>
        <time>2013-04-21T07:39:59Z</time>
      </trkpt>
      <trkpt lat="48.42965" lon="2.7189">
        <ele>145</ele>
        <time>2013-04-21T07:40:00Z</time>
      </trkpt>
      <trkpt lat="48.42965" lon="2.7189">
        <ele>145</ele>
        <time>2013-04-21T07:40:01Z</time>
      </trkpt>
      <trkpt lat="48.42965" lon="2.7189">
        <ele>145</ele>
        <time>2013-04-21T07:40:04Z</time>
      </trkpt>
      <trkpt lat="48.42965" lon="2.7189">
        <ele>145</ele>
        <time>2013-04-21T07:40:08Z</time>
      </trkpt>
      <trkpt lat="48.42964" lon="2.7189">
        <ele>145</ele>
        <time>2013-04-21T07:40:13Z</time>
      </trkpt>
      <trkpt lat="48.42964" lon="2.71889">
        <ele>145</ele>
        <time>2013-04-21T07:40:15Z</time>
      </trkpt>
      <trkpt lat="48.42964" lon="2.71889">
        <ele>145</ele>
        <time>2013-04-21T07:40:16Z</time>
      </trkpt>
      <trkpt lat="48.42964" lon="2.71889">
        <ele>145</ele>
        <time>2013-04-21T07:40:17Z</time>
      </trkpt>
      <trkpt lat="48.42964" lon="2.71889">
        <ele>145</ele>
        <time>2013-04-21T07:40:21Z</time>
      </trkpt>
      <trkpt lat="48.42964" lon="2.71889">
        <ele>145</ele>
        <time>2013-04-21T07:40:25Z</time>
      </trkpt>
      <trkpt lat="48.42964" lon="2.71889">
        <ele>145</ele>
        <time>2013-04-21T07:40:26Z</time>
      </trkpt>
      <trkpt lat="48.42964" lon="2.71889">
        <ele>145</ele>
        <time>2013-04-21T07:40:29Z</time>
      </trkpt>
      <trkpt lat="48.42964" lon="2.71889">
        <ele>145</ele>
        <time>2013-04-21T07:40:30Z</time>
      </trkpt>
      <trkpt lat="48.42963" lon="2.71889">
        <ele>145</ele>
        <time>2013-04-21T07:40:36Z</time>
      </trkpt>
      <trkpt lat="48.42963" lon="2.71889">
        <ele>145</ele>
        <time>2013-04-21T07:40:39Z</time>
      </trkpt>
      <trkpt lat="48.42963" lon="2.71889">
        <ele>145</ele>
        <time>2013-04-21T07:40:41Z</time>
      </trkpt>
      <trkpt lat="48.42963" lon="2.71889">
        <ele>145</ele>
        <time>2013-04-21T07:40:43Z</time>
      </trkpt>
      <trkpt lat="48.42963" lon="2.71889">
        <ele>145</ele>
        <time>2013-04-21T07:40:46Z</time>
      </trkpt>
      <trkpt lat="48.42963" lon="2.71889">
        <ele>145</ele>
        <time>2013-04-21T07:40:48Z</time>
      </trkpt>
      <trkpt lat="48.42963" lon="2.71889">
        <ele>145</ele>
        <time>2013-04-21T07:40:53Z</time>
      </trkpt>
      <trkpt lat="48.42963" lon="2.71889">
        <ele>145</ele>
        <time>2013-04-21T07:41:07Z</time>
      </trkpt>
      <trkpt lat="48.42963" lon="2.7189">
        <ele>145</ele>
        <time>2013-04-21T07:41:10Z</time>
      </trkpt>
      <trkpt lat="48.42962" lon="2.7189">
        <ele>145</ele>
        <time>2013-04-21T07:41:15Z</time>
      </trkpt>
      <trkpt lat="48.42962" lon="2.71889">
        <ele>145</ele>
        <time>2013-04-21T07:41:17Z</time>
      </trkpt>
      <trkpt lat="48.42962" lon="2.71889">
        <ele>145</ele>
        <time>2013-04-21T07:41:18Z</time>
      </trkpt>
      <trkpt lat="48.42962" lon="2.71889">
        <ele>145</ele>
        <time>2013-04-21T07:41:22Z</time>
      </trkpt>
      <trkpt lat="48.42962" lon="2.71889">
        <ele>145</ele>
        <time>2013-04-21T07:41:27Z</time>
      </trkpt>
      <trkpt lat="48.42962" lon="2.71889">
        <ele>145</ele>
        <time>2013-04-21T07:41:28Z</time>
      </trkpt>
      <trkpt lat="48.42962" lon="2.71889">
        <ele>145</ele>
        <time>2013-04-21T07:41:30Z</time>
      </trkpt>
      <trkpt lat="48.42962" lon="2.71889">
        <ele>145</ele>
        <time>2013-04-21T07:41:32Z</time>
      </trkpt>
      <trkpt lat="48.42962" lon="2.71889">
        <ele>145</ele>
        <time>2013-04-21T07:41:34Z</time>
      </trkpt>
      <trkpt lat="48.42962" lon="2.71889">
        <ele>145</ele>
        <time>2013-04-21T07:41:37Z</time>
      </trkpt>
      <trkpt lat="48.42961" lon="2.71889">
        <ele>145</ele>
        <time>2013-04-21T07:41:38Z</time>
      </trkpt>
      <trkpt lat="48.42961" lon="2.71888">
        <ele>145</ele>
        <time>2013-04-21T07:41:39Z</time>
      </trkpt>
      <trkpt lat="48.42961" lon="2.71888">
        <ele>145</ele>
        <time>2013-04-21T07:41:40Z</time>
      </trkpt>
      <trkpt lat="48.42961" lon="2.71888">
        <ele>145</ele>
        <time>2013-04-21T07:41:41Z</time>
      </trkpt>
      <trkpt lat="48.42961" lon="2.71888">
        <ele>145</ele>
        <time>2013-04-21T07:41:42Z</time>
      </trkpt>
      <trkpt lat="48.42961" lon="2.71888">
        <ele>145</ele>
        <time>2013-04-21T07:41:43Z</time>
      </trkpt>
      <trkpt lat="48.42961" lon="2.71888">
        <ele>145</ele>
        <time>2013-04-21T07:41:45Z</time>
      </trkpt>
      <trkpt lat="48.42961" lon="2.71888">
        <ele>145</ele>
        <time>2013-04-21T07:41:46Z</time>
      </trkpt>
      <trkpt lat="48.42961" lon="2.71888">
        <ele>145</ele>
        <time>2013-04-21T07:41:47Z</time>
      </trkpt>
      <trkpt lat="48.42961" lon="2.71888">
        <ele>145</ele>
        <time>2013-04-21T07:41:48Z</time>
      </trkpt>
      <trkpt lat="48.4296" lon="2.71887">
        <ele>145</ele>
        <time>2013-04-21T07:41:49Z</time>
      </trkpt>
      <trkpt lat="48.4296" lon="2.71887">
        <ele>145</ele>
        <time>2013-04-21T07:41:50Z</time>
      </trkpt>
      <trkpt lat="48.4296" lon="2.71887">
        <ele>145</ele>
        <time>2013-04-21T07:41:51Z</time>
      </trkpt>
      <trkpt lat="48.4296" lon="2.71887">
        <ele>145</ele>
        <time>2013-04-21T07:41:54Z</time>
      </trkpt>
      <trkpt lat="48.4296" lon="2.71887">
        <ele>145</ele>
        <time>2013-04-21T07:41:56Z</time>
      </trkpt>
      <trkpt lat="48.4296" lon="2.71887">
        <ele>145</ele>
        <time>2013-04-21T07:41:57Z</time>
      </trkpt>
      <trkpt lat="48.4296" lon="2.71886">
        <ele>145</ele>
        <time>2013-04-21T07:41:58Z</time>
      </trkpt>
      <trkpt lat="48.4296" lon="2.71886">
        <ele>145</ele>
        <time>2013-04-21T07:41:59Z</time>
      </trkpt>
      <trkpt lat="48.42959" lon="2.71886">
        <ele>145</ele>
        <time>2013-04-21T07:42:00Z</time>
      </trkpt>
      <trkpt lat="48.42959" lon="2.71886">
        <ele>145</ele>
        <time>2013-04-21T07:42:01Z</time>
      </trkpt>
      <trkpt lat="48.42959" lon="2.71886">
        <ele>145</ele>
        <time>2013-04-21T07:42:03Z</time>
      </trkpt>
      <trkpt lat="48.42959" lon="2.71886">
        <ele>145</ele>
        <time>2013-04-21T07:42:05Z</time>
      </trkpt>
      <trkpt lat="48.42959" lon="2.71886">
        <ele>145</ele>
        <time>2013-04-21T07:42:07Z</time>
      </trkpt>
      <trkpt lat="48.42959" lon="2.71886">
        <ele>145</ele>
        <time>2013-04-21T07:42:08Z</time>
      </trkpt>
      <trkpt lat="48.42959" lon="2.71885">
        <ele>145</ele>
        <time>2013-04-21T07:42:09Z</time>
      </trkpt>
      <trkpt lat="48.42959" lon="2.71885">
        <ele>145</ele>
        <time>2013-04-21T07:42:10Z</time>
      </trkpt>
      <trkpt lat="48.42959" lon="2.71885">
        <ele>145</ele>
        <time>2013-04-21T07:42:11Z</time>
      </trkpt>
      <trkpt lat="48.42958" lon="2.71885">
        <ele>145</ele>
        <time>2013-04-21T07:42:12Z</time>
      </trkpt>
      <trkpt lat="48.42958" lon="2.71885">
        <ele>145</ele>
        <time>2013-04-21T07:42:13Z</time>
      </trkpt>
      <trkpt lat="48.42958" lon="2.71885">
        <ele>145</ele>
        <time>2013-04-21T07:42:14Z</time>
      </trkpt>
      <trkpt lat="48.42958" lon="2.71885">
        <ele>145</ele>
        <time>2013-04-21T07:42:15Z</time>
      </trkpt>
      <trkpt lat="48.42958" lon="2.71885">
        <ele>145</ele>
        <time>2013-04-21T07:42:16Z</time>
      </trkpt>
      <trkpt lat="48.42958" lon="2.71886">
        <ele>145</ele>
        <time>2013-04-21T07:42:17Z</time>
      </trkpt>
      <trkpt lat="48.42958" lon="2.71886">
        <ele>145</ele>
        <time>2013-04-21T07:42:18Z</time>
      </trkpt>
      <trkpt lat="48.42958" lon="2.71887">
        <ele>145</ele>
        <time>2013-04-21T07:42:19Z</time>
      </trkpt>
      <trkpt lat="48.42958" lon="2.71887">
        <ele>145</ele>
        <time>2013-04-21T07:42:20Z</time>
      </trkpt>
      <trkpt lat="48.42958" lon="2.71888">
        <ele>145</ele>
        <time>2013-04-21T07:42:21Z</time>
      </trkpt>
      <trkpt lat="48.42958" lon="2.71888">
        <ele>145</ele>
        <time>2013-04-21T07:42:22Z</time>
      </trkpt>
      <trkpt lat="48.42958" lon="2.71888">
        <ele>145</ele>
        <time>2013-04-21T07:42:23Z</time>
      </trkpt>
      <trkpt lat="48.42958" lon="2.71889">
        <ele>145</ele>
        <time>2013-04-21T07:42:24Z</time>
      </trkpt>
      <trkpt lat="48.42958" lon="2.71889">
        <ele>145</ele>
        <time>2013-04-21T07:42:25Z</time>
      </trkpt>
      <trkpt lat="48.42958" lon="2.71889">
        <ele>145</ele>
        <time>2013-04-21T07:42:26Z</time>
      </trkpt>
      <trkpt lat="48.42958" lon="2.71889">
        <ele>145</ele>
        <time>2013-04-21T07:42:27Z</time>
      </trkpt>
      <trkpt lat="48.42958" lon="2.7189">
        <ele>145</ele>
        <time>2013-04-21T07:42:28Z</time>
      </trkpt>
      <trkpt lat="48.42958" lon="2.7189">
        <ele>145</ele>
        <time>2013-04-21T07:42:29Z</time>
      </trkpt>
      <trkpt lat="48.42958" lon="2.7189">
        <ele>145</ele>
        <time>2013-04-21T07:42:30Z</time>
      </trkpt>
      <trkpt lat="48.42958" lon="2.7189">
        <ele>145</ele>
        <time>2013-04-21T07:42:31Z</time>
      </trkpt>
      <trkpt lat="48.42958" lon="2.7189">
        <ele>145</ele>
        <time>2013-04-21T07:42:32Z</time>
      </trkpt>
      <trkpt lat="48.42958" lon="2.7189">
        <ele>145</ele>
        <time>2013-04-21T07:42:34Z</time>
      </trkpt>
      <trkpt lat="48.42958" lon="2.7189">
        <ele>145</ele>
        <time>2013-04-21T07:42:36Z</time>
      </trkpt>
      <trkpt lat="48.42958" lon="2.71891">
        <ele>145</ele>
        <time>2013-04-21T07:42:37Z</time>
      </trkpt>
      <trkpt lat="48.42958" lon="2.71891">
        <ele>145</ele>
        <time>2013-04-21T07:42:39Z</time>
      </trkpt>
      <trkpt lat="48.42958" lon="2.7189">
        <ele>145</ele>
        <time>2013-04-21T07:42:40Z</time>
      </trkpt>
      <trkpt lat="48.42958" lon="2.7189">
        <ele>145</ele>
        <time>2013-04-21T07:42:42Z</time>
      </trkpt>
      <trkpt lat="48.42958" lon="2.7189">
        <ele>145</ele>
        <time>2013-04-21T07:42:44Z</time>
      </trkpt>
      <trkpt lat="48.42958" lon="2.7189">
        <ele>145</ele>
        <time>2013-04-21T07:42:48Z</time>
      </trkpt>
      <trkpt lat="48.42958" lon="2.7189">
        <ele>145</ele>
        <time>2013-04-21T07:42:49Z</time>
      </trkpt>
      <trkpt lat="48.42959" lon="2.7189">
        <ele>145</ele>
        <time>2013-04-21T07:42:51Z</time>
      </trkpt>
      <trkpt lat="48.42959" lon="2.7189">
        <ele>145</ele>
        <time>2013-04-21T07:42:52Z</time>
      </trkpt>
      <trkpt lat="48.42959" lon="2.7189">
        <ele>145</ele>
        <time>2013-04-21T07:42:53Z</time>
      </trkpt>
      <trkpt lat="48.42959" lon="2.7189">
        <ele>145</ele>
        <time>2013-04-21T07:42:56Z</time>
      </trkpt>
      <trkpt lat="48.42959" lon="2.7189">
        <ele>145</ele>
        <time>2013-04-21T07:42:57Z</time>
      </trkpt>
      <trkpt lat="48.42959" lon="2.7189">
        <ele>145</ele>
        <time>2013-04-21T07:42:59Z</time>
      </trkpt>
      <trkpt lat="48.42959" lon="2.7189">
        <ele>145</ele>
        <time>2013-04-21T07:43:00Z</time>
      </trkpt>
      <trkpt lat="48.42959" lon="2.71889">
        <ele>145</ele>
        <time>2013-04-21T07:43:01Z</time>
      </trkpt>
      <trkpt lat="48.42959" lon="2.71889">
        <ele>145</ele>
        <time>2013-04-21T07:43:02Z</time>
      </trkpt>
      <trkpt lat="48.42959" lon="2.71889">
        <ele>145</ele>
        <time>2013-04-21T07:43:03Z</time>
      </trkpt>
      <trkpt lat="48.42959" lon="2.71889">
        <ele>145</ele>
        <time>2013-04-21T07:43:06Z</time>
      </trkpt>
      <trkpt lat="48.42959" lon="2.71889">
        <ele>145</ele>
        <time>2013-04-21T07:43:08Z</time>
      </trkpt>
      <trkpt lat="48.42959" lon="2.71889">
        <ele>145</ele>
        <time>2013-04-21T07:43:10Z</time>
      </trkpt>
      <trkpt lat="48.42959" lon="2.71889">
        <ele>145</ele>
        <time>2013-04-21T07:43:12Z</time>
      </trkpt>
      <trkpt lat="48.42959" lon="2.71888">
        <ele>145</ele>
        <time>2013-04-21T07:43:15Z</time>
      </trkpt>
      <trkpt lat="48.42959" lon="2.71888">
        <ele>145</ele>
        <time>2013-04-21T07:43:18Z</time>
      </trkpt>
      <trkpt lat="48.42959" lon="2.71888">
        <ele>145</ele>
        <time>2013-04-21T07:43:21Z</time>
      </trkpt>
      <trkpt lat="48.42959" lon="2.71888">
        <ele>145</ele>
        <time>2013-04-21T07:43:23Z</time>
      </trkpt>
      <trkpt lat="48.42959" lon="2.71888">
        <ele>145</ele>
        <time>2013-04-21T07:43:26Z</time>
      </trkpt>
      <trkpt lat="48.42959" lon="2.71888">
        <ele>145</ele>
        <time>2013-04-21T07:43:28Z</time>
      </trkpt>
      <trkpt lat="48.42959" lon="2.71887">
        <ele>145</ele>
        <time>2013-04-21T07:43:31Z</time>
      </trkpt>
      <trkpt lat="48.42959" lon="2.71887">
        <ele>145</ele>
        <time>2013-04-21T07:43:33Z</time>
      </trkpt>
      <trkpt lat="48.42958" lon="2.71887">
        <ele>145</ele>
        <time>2013-04-21T07:43:35Z</time>
      </trkpt>
      <trkpt lat="48.42958" lon="2.71887">
        <ele>145</ele>
        <time>2013-04-21T07:43:37Z</time>
      </trkpt>
      <trkpt lat="48.42958" lon="2.71887">
        <ele>145</ele>
        <time>2013-04-21T07:43:38Z</time>
      </trkpt>
      <trkpt lat="48.42958" lon="2.71887">
        <ele>145</ele>
        <time>2013-04-21T07:43:40Z</time>
      </trkpt>
      <trkpt lat="48.42958" lon="2.71887">
        <ele>145</ele>
        <time>2013-04-21T07:43:41Z</time>
      </trkpt>
      <trkpt lat="48.42958" lon="2.71887">
        <ele>145</ele>
        <time>2013-04-21T07:43:43Z</time>
      </trkpt>
      <trkpt lat="48.42958" lon="2.71887">
        <ele>145</ele>
        <time>2013-04-21T07:43:44Z</time>
      </trkpt>
      <trkpt lat="48.42958" lon="2.71887">
        <ele>145</ele>
        <time>2013-04-21T07:43:47Z</time>
      </trkpt>
      <trkpt lat="48.42958" lon="2.71887">
        <ele>145</ele>
        <time>2013-04-21T07:43:50Z</time>
      </trkpt>
      <trkpt lat="48.42958" lon="2.71886">
        <ele>145</ele>
        <time>2013-04-21T07:43:51Z</time>
      </trkpt>
      <trkpt lat="48.42957" lon="2.71886">
        <ele>145</ele>
        <time>2013-04-21T07:43:53Z</time>
      </trkpt>
      <trkpt lat="48.42957" lon="2.71886">
        <ele>145</ele>
        <time>2013-04-21T07:43:55Z</time>
      </trkpt>
      <trkpt lat="48.42957" lon="2.71886">
        <ele>145</ele>
        <time>2013-04-21T07:43:56Z</time>
      </trkpt>
      <trkpt lat="48.42957" lon="2.71886">
        <ele>145</ele>
        <time>2013-04-21T07:43:58Z</time>
      </trkpt>
      <trkpt lat="48.42957" lon="2.71886">
        <ele>145</ele>
        <time>2013-04-21T07:44:00Z</time>
      </trkpt>
      <trkpt lat="48.42957" lon="2.71886">
        <ele>145</ele>
        <time>2013-04-21T07:44:01Z</time>
      </trkpt>
      <trkpt lat="48.42957" lon="2.71886">
        <ele>145</ele>
        <time>2013-04-21T07:44:03Z</time>
      </trkpt>
      <trkpt lat="48.42957" lon="2.71886">
        <ele>145</ele>
        <time>2013-04-21T07:44:04Z</time>
      </trkpt>
      <trkpt lat="48.42957" lon="2.71886">
        <ele>145</ele>
        <time>2013-04-21T07:44:06Z</time>
      </trkpt>
      <trkpt lat="48.42957" lon="2.71886">
        <ele>145</ele>
        <time>2013-04-21T07:44:07Z</time>
      </trkpt>
      <trkpt lat="48.42956" lon="2.71886">
        <ele>145</ele>
        <time>2013-04-21T07:44:08Z</time>
      </trkpt>
      <trkpt lat="48.42956" lon="2.71885">
        <ele>145</ele>
        <time>2013-04-21T07:44:09Z</time>
      </trkpt>
      <trkpt lat="48.42956" lon="2.71885">
        <ele>145</ele>
        <time>2013-04-21T07:44:11Z</time>
      </trkpt>
      <trkpt lat="48.42956" lon="2.71885">
        <ele>145</ele>
        <time>2013-04-21T07:44:13Z</time>
      </trkpt>
      <trkpt lat="48.42956" lon="2.71885">
        <ele>145</ele>
        <time>2013-04-21T07:44:16Z</time>
      </trkpt>
      <trkpt lat="48.42956" lon="2.71885">
        <ele>145</ele>
        <time>2013-04-21T07:44:18Z</time>
      </trkpt>
      <trkpt lat="48.42956" lon="2.71885">
        <ele>145</ele>
        <time>2013-04-21T07:44:19Z</time>
      </trkpt>
      <trkpt lat="48.42956" lon="2.71884">
        <ele>145</ele>
        <time>2013-04-21T07:44:21Z</time>
      </trkpt>
      <trkpt lat="48.42956" lon="2.71884">
        <ele>145</ele>
        <time>2013-04-21T07:44:22Z</time>
      </trkpt>
      <trkpt lat="48.42956" lon="2.71884">
        <ele>145</ele>
        <time>2013-04-21T07:44:23Z</time>
      </trkpt>
      <trkpt lat="48.42956" lon="2.71884">
        <ele>145</ele>
        <time>2013-04-21T07:44:24Z</time>
      </trkpt>
      <trkpt lat="48.42956" lon="2.71884">
        <ele>145</ele>
        <time>2013-04-21T07:44:25Z</time>
      </trkpt>
      <trkpt lat="48.42956" lon="2.71884">
        <ele>145</ele>
        <time>2013-04-21T07:44:27Z</time>
      </trkpt>
      <trkpt lat="48.42956" lon="2.71883">
        <ele>145</ele>
        <time>2013-04-21T07:44:28Z</time>
      </trkpt>
      <trkpt lat="48.42956" lon="2.71883">
        <ele>145</ele>
        <time>2013-04-21T07:44:29Z</time>
      </trkpt>
      <trkpt lat="48.42956" lon="2.71883">
        <ele>145</ele>
        <time>2013-04-21T07:44:30Z</time>
      </trkpt>
      <trkpt lat="48.42956" lon="2.71883">
        <ele>145</ele>
        <time>2013-04-21T07:44:32Z</time>
      </trkpt>
      <trkpt lat="48.42956" lon="2.71883">
        <ele>145</ele>
        <time>2013-04-21T07:44:33Z</time>
      </trkpt>
      <trkpt lat="48.42956" lon="2.71883">
        <ele>145</ele>
        <time>2013-04-21T07:44:37Z</time>
      </trkpt>
      <trkpt lat="48.42956" lon="2.71883">
        <ele>145</ele>
        <time>2013-04-21T07:44:39Z</time>
      </trkpt>
      <trkpt lat="48.42956" lon="2.71882">
        <ele>145</ele>
        <time>2013-04-21T07:44:40Z</time>
      </trkpt>
      <trkpt lat="48.42956" lon="2.71882">
        <ele>145</ele>
        <time>2013-04-21T07:44:41Z</time>
      </trkpt>
      <trkpt lat="48.42956" lon="2.71881">
        <ele>145</ele>
        <time>2013-04-21T07:44:42Z</time>
      </trkpt>
      <trkpt lat="48.42956" lon="2.71881">
        <ele>145</ele>
        <time>2013-04-21T07:44:43Z</time>
      </trkpt>
      <trkpt lat="48.42956" lon="2.7188">
        <ele>145</ele>
        <time>2013-04-21T07:44:44Z</time>
      </trkpt>
      <trkpt lat="48.42956" lon="2.7188">
        <ele>145</ele>
        <time>2013-04-21T07:44:45Z</time>
      </trkpt>
      <trkpt lat="48.42956" lon="2.7188">
        <ele>145</ele>
        <time>2013-04-21T07:44:46Z</time>
      </trkpt>
      <trkpt lat="48.42956" lon="2.7188">
        <ele>145</ele>
        <time>2013-04-21T07:44:47Z</time>
      </trkpt>
      <trkpt lat="48.42956" lon="2.71879">
        <ele>145</ele>
        <time>2013-04-21T07:44:48Z</time>
      </trkpt>
      <trkpt lat="48.42956" lon="2.71879">
        <ele>145</ele>
        <time>2013-04-21T07:44:49Z</time>
      </trkpt>
      <trkpt lat="48.42956" lon="2.71879">
        <ele>145</ele>
        <time>2013-04-21T07:44:50Z</time>
      </trkpt>
      <trkpt lat="48.42956" lon="2.71879">
        <ele>145</ele>
        <time>2013-04-21T07:44:51Z</time>
      </trkpt>
      <trkpt lat="48.42956" lon="2.71879">
        <ele>145</ele>
        <time>2013-04-21T07:44:52Z</time>
      </trkpt>
      <trkpt lat="48.42956" lon="2.71879">
        <ele>145</ele>
        <time>2013-04-21T07:44:53Z</time>
      </trkpt>
      <trkpt lat="48.42956" lon="2.71878">
        <ele>145</ele>
        <time>2013-04-21T07:44:54Z</time>
      </trkpt>
      <trkpt lat="48.42957" lon="2.71878">
        <ele>145</ele>
        <time>2013-04-21T07:44:56Z</time>
      </trkpt>
      <trkpt lat="48.42957" lon="2.71878">
        <ele>145</ele>
        <time>2013-04-21T07:44:57Z</time>
      </trkpt>
      <trkpt lat="48.42957" lon="2.71878">
        <ele>145</ele>
        <time>2013-04-21T07:44:58Z</time>
      </trkpt>
      <trkpt lat="48.42957" lon="2.71878">
        <ele>145</ele>
        <time>2013-04-21T07:44:59Z</time>
      </trkpt>
      <trkpt lat="48.42957" lon="2.71878">
        <ele>145</ele>
        <time>2013-04-21T07:45:02Z</time>
      </trkpt>
      <trkpt lat="48.42957" lon="2.71878">
        <ele>145</ele>
        <time>2013-04-21T07:45:04Z</time>
      </trkpt>
      <trkpt lat="48.42957" lon="2.71878">
        <ele>145</ele>
        <time>2013-04-21T07:45:08Z</time>
      </trkpt>
      <trkpt lat="48.42957" lon="2.71878">
        <ele>145</ele>
        <time>2013-04-21T07:45:11Z</time>
      </trkpt>
      <trkpt lat="48.42957" lon="2.71878">
        <ele>145</ele>
        <time>2013-04-21T07:45:12Z</time>
      </trkpt>
      <trkpt lat="48.42957" lon="2.71878">
        <ele>145</ele>
        <time>2013-04-21T07:45:13Z</time>
      </trkpt>
      <trkpt lat="48.42958" lon="2.71878">
        <ele>145</ele>
        <time>2013-04-21T07:45:14Z</time>
      </trkpt>
      <trkpt lat="48.42958" lon="2.71878">
        <ele>145</ele>
        <time>2013-04-21T07:45:17Z</time>
      </trkpt>
      <trkpt lat="48.42958" lon="2.71878">
        <ele>145</ele>
        <time>2013-04-21T07:45:18Z</time>
      </trkpt>
      <trkpt lat="48.42958" lon="2.71878">
        <ele>145</ele>
        <time>2013-04-21T07:45:19Z</time>
      </trkpt>
      <trkpt lat="48.42958" lon="2.71878">
        <ele>145</ele>
        <time>2013-04-21T07:45:20Z</time>
      </trkpt>
      <trkpt lat="48.42958" lon="2.71878">
        <ele>145</ele>
        <time>2013-04-21T07:45:22Z</time>
      </trkpt>
      <trkpt lat="48.42958" lon="2.71878">
        <ele>145</ele>
        <time>2013-04-21T07:45:23Z</time>
      </trkpt>
      <trkpt lat="48.42958" lon="2.71878">
        <ele>145</ele>
        <time>2013-04-21T07:45:24Z</time>
      </trkpt>
      <trkpt lat="48.42959" lon="2.71878">
        <ele>145</ele>
        <time>2013-04-21T07:45:27Z</time>
      </trkpt>
      <trkpt lat="48.42959" lon="2.71879">
        <ele>145</ele>
        <time>2013-04-21T07:45:31Z</time>
      </trkpt>
      <trkpt lat="48.42959" lon="2.71879">
        <ele>145</ele>
        <time>2013-04-21T07:45:34Z</time>
      </trkpt>
      <trkpt lat="48.42959" lon="2.71878">
        <ele>145</ele>
        <time>2013-04-21T07:45:36Z</time>
      </trkpt>
      <trkpt lat="48.42959" lon="2.71878">
        <ele>145</ele>
        <time>2013-04-21T07:45:37Z</time>
      </trkpt>
      <trkpt lat="48.42959" lon="2.71879">
        <ele>145</ele>
        <time>2013-04-21T07:45:38Z</time>
      </trkpt>
      <trkpt lat="48.4296" lon="2.71879">
        <ele>145</ele>
        <time>2013-04-21T07:45:41Z</time>
      </trkpt>
      <trkpt lat="48.4296" lon="2.71878">
        <ele>145</ele>
        <time>2013-04-21T07:45:43Z</time>
      </trkpt>
      <trkpt lat="48.4296" lon="2.71877">
        <ele>145</ele>
        <time>2013-04-21T07:45:44Z</time>
      </trkpt>
      <trkpt lat="48.4296" lon="2.71876">
        <ele>145</ele>
        <time>2013-04-21T07:45:45Z</time>
      </trkpt>
      <trkpt lat="48.42961" lon="2.71875">
        <ele>145</ele>
        <time>2013-04-21T07:45:46Z</time>
      </trkpt>
      <trkpt lat="48.42961" lon="2.71874">
        <ele>145</ele>
        <time>2013-04-21T07:45:47Z</time>
      </trkpt>
      <trkpt lat="48.42962" lon="2.71872">
        <ele>145</ele>
        <time>2013-04-21T07:45:50Z</time>
      </trkpt>
      <trkpt lat="48.42962" lon="2.71871">
        <ele>145</ele>
        <time>2013-04-21T07:45:55Z</time>
      </trkpt>
      <trkpt lat="48.42962" lon="2.71872">
        <ele>145</ele>
        <time>2013-04-21T07:45:56Z</time>
      </trkpt>
      <trkpt lat="48.42962" lon="2.71872">
        <ele>145</ele>
        <time>2013-04-21T07:45:58Z</time>
      </trkpt>
      <trkpt lat="48.42962" lon="2.71873">
        <ele>145</ele>
        <time>2013-04-21T07:45:59Z</time>
      </trkpt>
      <trkpt lat="48.42962" lon="2.71875">
        <ele>145</ele>
        <time>2013-04-21T07:46:01Z</time>
      </trkpt>
      <trkpt lat="48.42962" lon="2.71876">
        <ele>145</ele>
        <time>2013-04-21T07:46:02Z</time>
      </trkpt>
      <trkpt lat="48.42962" lon="2.71877">
        <ele>145</ele>
        <time>2013-04-21T07:46:03Z</time>
      </trkpt>
      <trkpt lat="48.42962" lon="2.71877">
        <ele>145</ele>
        <time>2013-04-21T07:46:04Z</time>
      </trkpt>
      <trkpt lat="48.42962" lon="2.71877">
        <ele>145</ele>
        <time>2013-04-21T07:46:05Z</time>
      </trkpt>
      <trkpt lat="48.42963" lon="2.71877">
        <ele>145</ele>
        <time>2013-04-21T07:46:06Z</time>
      </trkpt>
      <trkpt lat="48.42962" lon="2.71878">
        <ele>145</ele>
        <time>2013-04-21T07:46:07Z</time>
      </trkpt>
      <trkpt lat="48.42962" lon="2.71878">
        <ele>145</ele>
        <time>2013-04-21T07:46:08Z</time>
      </trkpt>
      <trkpt lat="48.42961" lon="2.71877">
        <ele>145</ele>
        <time>2013-04-21T07:46:09Z</time>
      </trkpt>
      <trkpt lat="48.42962" lon="2.71875">
        <ele>145</ele>
        <time>2013-04-21T07:46:13Z</time>
      </trkpt>
      <trkpt lat="48.42962" lon="2.71875">
        <ele>145</ele>
        <time>2013-04-21T07:46:15Z</time>
      </trkpt>
      <trkpt lat="48.42962" lon="2.71875">
        <ele>145</ele>
        <time>2013-04-21T07:46:17Z</time>
      </trkpt>
      <trkpt lat="48.42962" lon="2.71875">
        <ele>145</ele>
        <time>2013-04-21T07:46:19Z</time>
      </trkpt>
      <trkpt lat="48.42962" lon="2.71876">
        <ele>145</ele>
        <time>2013-04-21T07:46:20Z</time>
      </trkpt>
      <trkpt lat="48.42961" lon="2.71876">
        <ele>145</ele>
        <time>2013-04-21T07:46:22Z</time>
      </trkpt>
      <trkpt lat="48.42961" lon="2.71875">
        <ele>145</ele>
        <time>2013-04-21T07:46:23Z</time>
      </trkpt>
      <trkpt lat="48.42961" lon="2.71875">
        <ele>145</ele>
        <time>2013-04-21T07:46:24Z</time>
      </trkpt>
      <trkpt lat="48.42961" lon="2.71875">
        <ele>145</ele>
        <time>2013-04-21T07:46:25Z</time>
      </trkpt>
      <trkpt lat="48.42961" lon="2.71876">
        <ele>145</ele>
        <time>2013-04-21T07:46:26Z</time>
      </trkpt>
      <trkpt lat="48.42961" lon="2.71875">
        <ele>145</ele>
        <time>2013-04-21T07:46:27Z</time>
      </trkpt>
      <trkpt lat="48.42961" lon="2.71875">
        <ele>145</ele>
        <time>2013-04-21T07:46:29Z</time>
      </trkpt>
      <trkpt lat="48.42961" lon="2.71875">
        <ele>145</ele>
        <time>2013-04-21T07:46:31Z</time>
      </trkpt>
      <trkpt lat="48.4296" lon="2.71875">
        <ele>145</ele>
        <time>2013-04-21T07:46:32Z</time>
      </trkpt>
      <trkpt lat="48.4296" lon="2.71875">
        <ele>145</ele>
        <time>2013-04-21T07:46:34Z</time>
      </trkpt>
      <trkpt lat="48.4296" lon="2.71875">
        <ele>145</ele>
        <time>2013-04-21T07:46:36Z</time>
      </trkpt>
      <trkpt lat="48.4296" lon="2.71875">
        <ele>145</ele>
        <time>2013-04-21T07:46:38Z</time>
      </trkpt>
      <trkpt lat="48.4296" lon="2.71875">
        <ele>145</ele>
        <time>2013-04-21T07:46:40Z</time>
      </trkpt>
      <trkpt lat="48.4296" lon="2.71875">
        <ele>145</ele>
        <time>2013-04-21T07:46:41Z</time>
      </trkpt>
      <trkpt lat="48.4296" lon="2.71875">
        <ele>145</ele>
        <time>2013-04-21T07:46:42Z</time>
      </trkpt>
      <trkpt lat="48.4296" lon="2.71875">
        <ele>145</ele>
        <time>2013-04-21T07:46:44Z</time>
      </trkpt>
      <trkpt lat="48.42959" lon="2.71875">
        <ele>145</ele>
        <time>2013-04-21T07:46:45Z</time>
      </trkpt>
      <trkpt lat="48.42959" lon="2.71875">
        <ele>145</ele>
        <time>2013-04-21T07:46:46Z</time>
      </trkpt>
      <trkpt lat="48.42959" lon="2.71875">
        <ele>145</ele>
        <time>2013-04-21T07:46:48Z</time>
      </trkpt>
      <trkpt lat="48.42959" lon="2.71875">
        <ele>145</ele>
        <time>2013-04-21T07:46:49Z</time>
      </trkpt>
      <trkpt lat="48.42959" lon="2.71875">
        <ele>145</ele>
        <time>2013-04-21T07:46:51Z</time>
      </trkpt>
      <trkpt lat="48.42959" lon="2.71875">
        <ele>145</ele>
        <time>2013-04-21T07:46:56Z</time>
      </trkpt>
      <trkpt lat="48.42959" lon="2.71875">
        <ele>145</ele>
        <time>2013-04-21T07:46:57Z</time>
      </trkpt>
      <trkpt lat="48.42959" lon="2.71875">
        <ele>145</ele>
        <time>2013-04-21T07:46:58Z</time>
      </trkpt>
      <trkpt lat="48.42958" lon="2.71875">
        <ele>145</ele>
        <time>2013-04-21T07:47:03Z</time>
      </trkpt>
      <trkpt lat="48.42958" lon="2.71875">
        <ele>145</ele>
        <time>2013-04-21T07:47:04Z</time>
      </trkpt>
      <trkpt lat="48.42958" lon="2.71875">
        <ele>145</ele>
        <time>2013-04-21T07:47:05Z</time>
      </trkpt>
      <trkpt lat="48.42958" lon="2.71875">
        <ele>145</ele>
        <time>2013-04-21T07:47:06Z</time>
      </trkpt>
      <trkpt lat="48.42958" lon="2.71875">
        <ele>145</ele>
        <time>2013-04-21T07:47:07Z</time>
      </trkpt>
      <trkpt lat="48.42958" lon="2.71875">
        <ele>145</ele>
        <time>2013-04-21T07:47:09Z</time>
      </trkpt>
      <trkpt lat="48.42958" lon="2.71874">
        <ele>145</ele>
        <time>2013-04-21T07:47:10Z</time>
      </trkpt>
      <trkpt lat="48.42958" lon="2.71873">
        <ele>145</ele>
        <time>2013-04-21T07:47:11Z</time>
      </trkpt>
      <trkpt lat="48.42958" lon="2.71872">
        <ele>145</ele>
        <time>2013-04-21T07:47:12Z</time>
      </trkpt>
      <trkpt lat="48.42959" lon="2.71871">
        <ele>145</ele>
        <time>2013-04-21T07:47:13Z</time>
      </trkpt>
      <trkpt lat="48.42959" lon="2.71871">
        <ele>145</ele>
        <time>2013-04-21T07:47:14Z</time>
      </trkpt>
      <trkpt lat="48.42958" lon="2.71871">
        <ele>145</ele>
        <time>2013-04-21T07:47:15Z</time>
      </trkpt>
      <trkpt lat="48.42958" lon="2.71871">
        <ele>145</ele>
        <time>2013-04-21T07:47:17Z</time>
      </trkpt>
      <trkpt lat="48.42958" lon="2.71871">
        <ele>145</ele>
        <time>2013-04-21T07:47:19Z</time>
      </trkpt>
      <trkpt lat="48.42959" lon="2.71871">
        <ele>145</ele>
        <time>2013-04-21T07:47:20Z</time>
      </trkpt>
      <trkpt lat="48.42959" lon="2.71871">
        <ele>145</ele>
        <time>2013-04-21T07:47:22Z</time>
      </trkpt>
      <trkpt lat="48.42959" lon="2.71871">
        <ele>145</ele>
        <time>2013-04-21T07:47:24Z</time>
      </trkpt>
      <trkpt lat="48.42959" lon="2.71871">
        <ele>145</ele>
        <time>2013-04-21T07:47:25Z</time>
      </trkpt>
      <trkpt lat="48.42959" lon="2.71871">
        <ele>145</ele>
        <time>2013-04-21T07:47:27Z</time>
      </trkpt>
      <trkpt lat="48.42959" lon="2.71871">
        <ele>145</ele>
        <time>2013-04-21T07:47:29Z</time>
      </trkpt>
      <trkpt lat="48.42959" lon="2.71871">
        <ele>145</ele>
        <time>2013-04-21T07:47:30Z</time>
      </trkpt>
      <trkpt lat="48.42959" lon="2.71871">
        <ele>145</ele>
        <time>2013-04-21T07:47:32Z</time>
      </trkpt>
      <trkpt lat="48.4296" lon="2.71871">
        <ele>145</ele>
        <time>2013-04-21T07:47:33Z</time>
      </trkpt>
      <trkpt lat="48.4296" lon="2.71871">
        <ele>145</ele>
        <time>2013-04-21T07:47:35Z</time>
      </trkpt>
      <trkpt lat="48.4296" lon="2.71871">
        <ele>145</ele>
        <time>2013-04-21T07:47:36Z</time>
      </trkpt>
      <trkpt lat="48.4296" lon="2.71871">
        <ele>145</ele>
        <time>2013-04-21T07:47:37Z</time>
      </trkpt>
      <trkpt lat="48.4296" lon="2.71872">
        <ele>145</ele>
        <time>2013-04-21T07:47:38Z</time>
      </trkpt>
      <trkpt lat="48.4296" lon="2.71872">
        <ele>145</ele>
        <time>2013-04-21T07:47:39Z</time>
      </trkpt>
      <trkpt lat="48.4296" lon="2.71872">
        <ele>145</ele>
        <time>2013-04-21T07:47:40Z</time>
      </trkpt>
      <trkpt lat="48.4296" lon="2.71872">
        <ele>145</ele>
        <time>2013-04-21T07:47:41Z</time>
      </trkpt>
      <trkpt lat="48.4296" lon="2.71872">
        <ele>145</ele>
        <time>2013-04-21T07:47:42Z</time>
      </trkpt>
      <trkpt lat="48.4296" lon="2.71872">
        <ele>145</ele>
        <time>2013-04-21T07:47:43Z</time>
      </trkpt>
      <trkpt lat="48.4296" lon="2.71873">
        <ele>145</ele>
        <time>2013-04-21T07:47:44Z</time>
      </trkpt>
      <trkpt lat="48.4296" lon="2.71873">
        <ele>145</ele>
        <time>2013-04-21T07:47:45Z</time>
      </trkpt>
      <trkpt lat="48.42961" lon="2.71873">
        <ele>145</ele>
        <time>2013-04-21T07:47:46Z</time>
      </trkpt>
      <trkpt lat="48.42961" lon="2.71873">
        <ele>145</ele>
        <time>2013-04-21T07:47:47Z</time>
      </trkpt>
      <trkpt lat="48.42961" lon="2.71873">
        <ele>145</ele>
        <time>2013-04-21T07:47:48Z</time>
      </trkpt>
      <trkpt lat="48.42961" lon="2.71873">
        <ele>145</ele>
        <time>2013-04-21T07:47:49Z</time>
      </trkpt>
      <trkpt lat="48.42961" lon="2.71873">
        <ele>145</ele>
        <time>2013-04-21T07:47:50Z</time>
      </trkpt>
      <trkpt lat="48.42962" lon="2.71875">
        <ele>145</ele>
        <time>2013-04-21T07:47:52Z</time>
      </trkpt>
      <trkpt lat="48.42963" lon="2.71875">
        <ele>145</ele>
        <time>2013-04-21T07:47:53Z</time>
      </trkpt>
      <trkpt lat="48.42963" lon="2.71875">
        <ele>145</ele>
        <time>2013-04-21T07:47:54Z</time>
      </trkpt>
      <trkpt lat="48.42963" lon="2.71875">
        <ele>145</ele>
        <time>2013-04-21T07:47:55Z</time>
      </trkpt>
      <trkpt lat="48.42963" lon="2.71875">
        <ele>145</ele>
        <time>2013-04-21T07:47:56Z</time>
      </trkpt>
      <trkpt lat="48.42963" lon="2.71875">
        <ele>145</ele>
        <time>2013-04-21T07:48:00Z</time>
      </trkpt>
      <trkpt lat="48.42962" lon="2.71875">
        <ele>145</ele>
        <time>2013-04-21T07:48:05Z</time>
      </trkpt>
      <trkpt lat="48.42962" lon="2.71875">
        <ele>145</ele>
        <time>2013-04-21T07:48:07Z</time>
      </trkpt>
      <trkpt lat="48.42962" lon="2.71875">
        <ele>145</ele>
        <time>2013-04-21T07:48:08Z</time>
      </trkpt>
      <trkpt lat="48.42962" lon="2.71875">
        <ele>145</ele>
        <time>2013-04-21T07:48:10Z</time>
      </trkpt>
      <trkpt lat="48.42962" lon="2.71875">
        <ele>145</ele>
        <time>2013-04-21T07:48:11Z</time>
      </trkpt>
      <trkpt lat="48.42961" lon="2.71875">
        <ele>145</ele>
        <time>2013-04-21T07:48:12Z</time>
      </trkpt>
      <trkpt lat="48.42962" lon="2.71875">
        <ele>145</ele>
        <time>2013-04-21T07:48:19Z</time>
      </trkpt>
      <trkpt lat="48.42962" lon="2.71874">
        <ele>145</ele>
        <time>2013-04-21T07:48:20Z</time>
      </trkpt>
      <trkpt lat="48.42962" lon="2.71874">
        <ele>145</ele>
        <time>2013-04-21T07:48:26Z</time>
      </trkpt>
      <trkpt lat="48.42962" lon="2.71874">
        <ele>145</ele>
        <time>2013-04-21T07:48:27Z</time>
      </trkpt>
      <trkpt lat="48.42962" lon="2.71874">
        <ele>145</ele>
        <time>2013-04-21T07:48:28Z</time>
      </trkpt>
      <trkpt lat="48.42962" lon="2.71874">
        <ele>145</ele>
        <time>2013-04-21T07:48:30Z</time>
      </trkpt>
      <trkpt lat="48.42962" lon="2.71874">
        <ele>145</ele>
        <time>2013-04-21T07:48:31Z</time>
      </trkpt>
      <trkpt lat="48.42962" lon="2.71874">
        <ele>145</ele>
        <time>2013-04-21T07:48:33Z</time>
      </trkpt>
      <trkpt lat="48.42963" lon="2.71874">
        <ele>145</ele>
        <time>2013-04-21T07:48:35Z</time>
      </trkpt>
      <trkpt lat="48.42963" lon="2.71874">
        <ele>145</ele>
        <time>2013-04-21T07:48:37Z</time>
      </trkpt>
      <trkpt lat="48.42963" lon="2.71874">
        <ele>145</ele>
        <time>2013-04-21T07:48:38Z</time>
      </trkpt>
      <trkpt lat="48.42963" lon="2.71874">
        <ele>145</ele>
        <time>2013-04-21T07:48:40Z</time>
      </trkpt>
      <trkpt lat="48.42963" lon="2.71874">
        <ele>145</ele>
        <time>2013-04-21T07:48:42Z</time>
      </trkpt>
      <trkpt lat="48.42963" lon="2.71874">
        <ele>145</ele>
        <time>2013-04-21T07:48:43Z</time>
      </trkpt>
      <trkpt lat="48.42964" lon="2.71874">
        <ele>145</ele>
        <time>2013-04-21T07:48:45Z</time>
      </trkpt>
      <trkpt lat="48.42964" lon="2.71874">
        <ele>145</ele>
        <time>2013-04-21T07:48:47Z</time>
      </trkpt>
      <trkpt lat="48.42964" lon="2.71874">
        <ele>145</ele>
        <time>2013-04-21T07:48:49Z</time>
      </trkpt>
      <trkpt lat="48.42964" lon="2.71874">
        <ele>145</ele>
        <time>2013-04-21T07:48:54Z</time>
      </trkpt>
      <trkpt lat="48.42964" lon="2.71874">
        <ele>145</ele>
        <time>2013-04-21T07:48:57Z</time>
      </trkpt>
      <trkpt lat="48.42964" lon="2.71874">
        <ele>145</ele>
        <time>2013-04-21T07:48:58Z</time>
      </trkpt>
      <trkpt lat="48.42964" lon="2.71874">
        <ele>145</ele>
        <time>2013-04-21T07:49:00Z</time>
      </trkpt>
      <trkpt lat="48.42964" lon="2.71874">
        <ele>145</ele>
        <time>2013-04-21T07:49:01Z</time>
      </trkpt>
      <trkpt lat="48.42964" lon="2.71874">
        <ele>145</ele>
        <time>2013-04-21T07:49:02Z</time>
      </trkpt>
      <trkpt lat="48.42965" lon="2.71875">
        <ele>145</ele>
        <time>2013-04-21T07:49:03Z</time>
      </trkpt>
      <trkpt lat="48.42965" lon="2.71875">
        <ele>145</ele>
        <time>2013-04-21T07:49:04Z</time>
      </trkpt>
      <trkpt lat="48.42965" lon="2.71875">
        <ele>145</ele>
        <time>2013-04-21T07:49:05Z</time>
      </trkpt>
      <trkpt lat="48.42965" lon="2.71874">
        <ele>145</ele>
        <time>2013-04-21T07:49:06Z</time>
      </trkpt>
      <trkpt lat="48.42966" lon="2.71874">
        <ele>145</ele>
        <time>2013-04-21T07:49:07Z</time>
      </trkpt>
      <trkpt lat="48.42966" lon="2.71874">
        <ele>145</ele>
        <time>2013-04-21T07:49:09Z</time>
      </trkpt>
      <trkpt lat="48.42966" lon="2.71874">
        <ele>145</ele>
        <time>2013-04-21T07:49:12Z</time>
      </trkpt>
      <trkpt lat="48.42966" lon="2.71874">
        <ele>145</ele>
        <time>2013-04-21T07:49:14Z</time>
      </trkpt>
      <trkpt lat="48.42966" lon="2.71874">
        <ele>145</ele>
        <time>2013-04-21T07:49:15Z</time>
      </trkpt>
      <trkpt lat="48.42966" lon="2.71874">
        <ele>145</ele>
        <time>2013-04-21T07:49:16Z</time>
      </trkpt>
      <trkpt lat="48.42966" lon="2.71874">
        <ele>145</ele>
        <time>2013-04-21T07:49:17Z</time>
      </trkpt>
      <trkpt lat="48.42966" lon="2.71873">
        <ele>145</ele>
        <time>2013-04-21T07:49:18Z</time>
      </trkpt>
      <trkpt lat="48.42966" lon="2.71874">
        <ele>145</ele>
        <time>2013-04-21T07:49:19Z</time>
      </trkpt>
      <trkpt lat="48.42966" lon="2.71873">
        <ele>145</ele>
        <time>2013-04-21T07:49:20Z</time>
      </trkpt>
      <trkpt lat="48.42966" lon="2.71873">
        <ele>145</ele>
        <time>2013-04-21T07:49:21Z</time>
      </trkpt>
      <trkpt lat="48.42966" lon="2.71873">
        <ele>145</ele>
        <time>2013-04-21T07:49:22Z</time>
      </trkpt>
      <trkpt lat="48.42966" lon="2.71874">
        <ele>145</ele>
        <time>2013-04-21T07:49:23Z</time>
      </trkpt>
      <trkpt lat="48.42966" lon="2.71873">
        <ele>145</ele>
        <time>2013-04-21T07:49:24Z</time>
      </trkpt>
      <trkpt lat="48.42966" lon="2.71873">
        <ele>145</ele>
        <time>2013-04-21T07:49:25Z</time>
      </trkpt>
      <trkpt lat="48.42966" lon="2.71873">
        <ele>145</ele>
        <time>2013-04-21T07:49:26Z</time>
      </trkpt>
      <trkpt lat="48.42965" lon="2.71873">
        <ele>145</ele>
        <time>2013-04-21T07:49:27Z</time>
      </trkpt>
      <trkpt lat="48.42965" lon="2.71873">
        <ele>145</ele>
        <time>2013-04-21T07:49:28Z</time>
      </trkpt>
      <trkpt lat="48.42965" lon="2.71872">
        <ele>145</ele>
        <time>2013-04-21T07:49:29Z</time>
      </trkpt>
      <trkpt lat="48.42965" lon="2.71872">
        <ele>145</ele>
        <time>2013-04-21T07:49:31Z</time>
      </trkpt>
      <trkpt lat="48.42966" lon="2.71872">
        <ele>145</ele>
        <time>2013-04-21T07:49:32Z</time>
      </trkpt>
      <trkpt lat="48.42966" lon="2.71873">
        <ele>145</ele>
        <time>2013-04-21T07:49:33Z</time>
      </trkpt>
      <trkpt lat="48.42966" lon="2.71873">
        <ele>145</ele>
        <time>2013-04-21T07:49:34Z</time>
      </trkpt>
      <trkpt lat="48.42966" lon="2.71873">
        <ele>145</ele>
        <time>2013-04-21T07:49:35Z</time>
      </trkpt>
      <trkpt lat="48.42967" lon="2.71873">
        <ele>145</ele>
        <time>2013-04-21T07:49:37Z</time>
      </trkpt>
      <trkpt lat="48.42967" lon="2.71873">
        <ele>144</ele>
        <time>2013-04-21T07:49:38Z</time>
      </trkpt>
      <trkpt lat="48.42968" lon="2.71873">
        <ele>144</ele>
        <time>2013-04-21T07:49:39Z</time>
      </trkpt>
      <trkpt lat="48.42968" lon="2.71873">
        <ele>144</ele>
        <time>2013-04-21T07:49:40Z</time>
      </trkpt>
      <trkpt lat="48.42968" lon="2.71873">
        <ele>144</ele>
        <time>2013-04-21T07:49:42Z</time>
      </trkpt>
      <trkpt lat="48.42968" lon="2.71873">
        <ele>144</ele>
        <time>2013-04-21T07:49:43Z</time>
      </trkpt>
      <trkpt lat="48.42968" lon="2.71873">
        <ele>144</ele>
        <time>2013-04-21T07:49:44Z</time>
      </trkpt>
      <trkpt lat="48.42968" lon="2.71872">
        <ele>144</ele>
        <time>2013-04-21T07:49:45Z</time>
      </trkpt>
      <trkpt lat="48.42968" lon="2.71872">
        <ele>144</ele>
        <time>2013-04-21T07:49:46Z</time>
      </trkpt>
      <trkpt lat="48.42968" lon="2.71871">
        <ele>144</ele>
        <time>2013-04-21T07:49:47Z</time>
      </trkpt>
      <trkpt lat="48.42968" lon="2.71871">
        <ele>144</ele>
        <time>2013-04-21T07:49:48Z</time>
      </trkpt>
      <trkpt lat="48.42967" lon="2.7187">
        <ele>144</ele>
        <time>2013-04-21T07:49:49Z</time>
      </trkpt>
      <trkpt lat="48.42967" lon="2.7187">
        <ele>144</ele>
        <time>2013-04-21T07:49:50Z</time>
      </trkpt>
      <trkpt lat="48.42967" lon="2.71869">
        <ele>144</ele>
        <time>2013-04-21T07:49:51Z</time>
      </trkpt>
      <trkpt lat="48.42967" lon="2.71869">
        <ele>144</ele>
        <time>2013-04-21T07:49:52Z</time>
      </trkpt>
      <trkpt lat="48.42967" lon="2.71868">
        <ele>144</ele>
        <time>2013-04-21T07:49:53Z</time>
      </trkpt>
      <trkpt lat="48.42967" lon="2.71868">
        <ele>144</ele>
        <time>2013-04-21T07:49:54Z</time>
      </trkpt>
      <trkpt lat="48.42967" lon="2.71867">
        <ele>144</ele>
        <time>2013-04-21T07:49:55Z</time>
      </trkpt>
      <trkpt lat="48.42967" lon="2.71867">
        <ele>144</ele>
        <time>2013-04-21T07:49:56Z</time>
      </trkpt>
      <trkpt lat="48.42967" lon="2.71867">
        <ele>144</ele>
        <time>2013-04-21T07:49:57Z</time>
      </trkpt>
      <trkpt lat="48.42968" lon="2.71867">
        <ele>144</ele>
        <time>2013-04-21T07:49:58Z</time>
      </trkpt>
      <trkpt lat="48.42968" lon="2.71867">
        <ele>144</ele>
        <time>2013-04-21T07:49:59Z</time>
      </trkpt>
      <trkpt lat="48.42968" lon="2.71867">
        <ele>144</ele>
        <time>2013-04-21T07:50:00Z</time>
      </trkpt>
      <trkpt lat="48.42968" lon="2.71868">
        <ele>144</ele>
        <time>2013-04-21T07:50:01Z</time>
      </trkpt>
      <trkpt lat="48.42968" lon="2.71868">
        <ele>144</ele>
        <time>2013-04-21T07:50:02Z</time>
      </trkpt>
      <trkpt lat="48.42968" lon="2.71868">
        <ele>144</ele>
        <time>2013-04-21T07:50:03Z</time>
      </trkpt>
      <trkpt lat="48.42968" lon="2.71869">
        <ele>144</ele>
        <time>2013-04-21T07:50:04Z</time>
      </trkpt>
      <trkpt lat="48.42968" lon="2.71869">
        <ele>144</ele>
        <time>2013-04-21T07:50:05Z</time>
      </trkpt>
      <trkpt lat="48.42968" lon="2.7187">
        <ele>144</ele>
        <time>2013-04-21T07:50:06Z</time>
      </trkpt>
      <trkpt lat="48.42968" lon="2.7187">
        <ele>144</ele>
        <time>2013-04-21T07:50:07Z</time>
      </trkpt>
      <trkpt lat="48.42968" lon="2.7187">
        <ele>144</ele>
        <time>2013-04-21T07:50:08Z</time>
      </trkpt>
      <trkpt lat="48.42968" lon="2.71871">
        <ele>144</ele>
        <time>2013-04-21T07:50:09Z</time>
      </trkpt>
      <trkpt lat="48.42968" lon="2.71871">
        <ele>144</ele>
        <time>2013-04-21T07:50:10Z</time>
      </trkpt>
      <trkpt lat="48.42968" lon="2.71871">
        <ele>144</ele>
        <time>2013-04-21T07:50:11Z</time>
      </trkpt>
      <trkpt lat="48.42968" lon="2.71872">
        <ele>144</ele>
        <time>2013-04-21T07:50:12Z</time>
      </trkpt>
      <trkpt lat="48.42968" lon="2.71872">
        <ele>144</ele>
        <time>2013-04-21T07:50:13Z</time>
      </trkpt>
      <trkpt lat="48.42968" lon="2.71872">
        <ele>144</ele>
        <time>2013-04-21T07:50:14Z</time>
      </trkpt>
      <trkpt lat="48.42969" lon="2.71872">
        <ele>144</ele>
        <time>2013-04-21T07:50:16Z</time>
      </trkpt>
      <trkpt lat="48.42969" lon="2.71872">
        <ele>144</ele>
        <time>2013-04-21T07:50:19Z</time>
      </trkpt>
      <trkpt lat="48.42969" lon="2.71873">
        <ele>144</ele>
        <time>2013-04-21T07:50:21Z</time>
      </trkpt>
      <trkpt lat="48.42969" lon="2.71873">
        <ele>144</ele>
        <time>2013-04-21T07:50:22Z</time>
      </trkpt>
      <trkpt lat="48.42969" lon="2.71873">
        <ele>144</ele>
        <time>2013-04-21T07:50:23Z</time>
      </trkpt>
      <trkpt lat="48.42969" lon="2.71872">
        <ele>144</ele>
        <time>2013-04-21T07:50:24Z</time>
      </trkpt>
      <trkpt lat="48.42968" lon="2.71872">
        <ele>144</ele>
        <time>2013-04-21T07:50:25Z</time>
      </trkpt>
      <trkpt lat="48.42968" lon="2.71872">
        <ele>144</ele>
        <time>2013-04-21T07:50:26Z</time>
      </trkpt>
      <trkpt lat="48.42967" lon="2.71872">
        <ele>144</ele>
        <time>2013-04-21T07:50:27Z</time>
      </trkpt>
      <trkpt lat="48.42967" lon="2.71872">
        <ele>144</ele>
        <time>2013-04-21T07:50:28Z</time>
      </trkpt>
      <trkpt lat="48.42967" lon="2.71872">
        <ele>144</ele>
        <time>2013-04-21T07:50:29Z</time>
      </trkpt>
      <trkpt lat="48.42967" lon="2.71872">
        <ele>145</ele>
        <time>2013-04-21T07:50:30Z</time>
      </trkpt>
      <trkpt lat="48.42967" lon="2.71872">
        <ele>145</ele>
        <time>2013-04-21T07:50:31Z</time>
      </trkpt>
      <trkpt lat="48.42966" lon="2.71872">
        <ele>145</ele>
        <time>2013-04-21T07:50:32Z</time>
      </trkpt>
      <trkpt lat="48.42966" lon="2.71872">
        <ele>145</ele>
        <time>2013-04-21T07:50:33Z</time>
      </trkpt>
      <trkpt lat="48.42966" lon="2.71872">
        <ele>145</ele>
        <time>2013-04-21T07:50:34Z</time>
      </trkpt>
      <trkpt lat="48.42966" lon="2.71872">
        <ele>145</ele>
        <time>2013-04-21T07:50:35Z</time>
      </trkpt>
      <trkpt lat="48.42966" lon="2.71872">
        <ele>145</ele>
        <time>2013-04-21T07:50:36Z</time>
      </trkpt>
      <trkpt lat="48.42965" lon="2.71872">
        <ele>145</ele>
        <time>2013-04-21T07:50:37Z</time>
      </trkpt>
      <trkpt lat="48.42965" lon="2.71872">
        <ele>145</ele>
        <time>2013-04-21T07:50:38Z</time>
      </trkpt>
      <trkpt lat="48.42965" lon="2.71872">
        <ele>145</ele>
        <time>2013-04-21T07:50:39Z</time>
      </trkpt>
      <trkpt lat="48.42965" lon="2.71872">
        <ele>145</ele>
        <time>2013-04-21T07:50:40Z</time>
      </trkpt>
      <trkpt lat="48.42965" lon="2.71872">
        <ele>145</ele>
        <time>2013-04-21T07:50:41Z</time>
      </trkpt>
      <trkpt lat="48.42965" lon="2.71872">
        <ele>145</ele>
        <time>2013-04-21T07:50:42Z</time>
      </trkpt>
      <trkpt lat="48.42964" lon="2.71872">
        <ele>145</ele>
        <time>2013-04-21T07:50:43Z</time>
      </trkpt>
      <trkpt lat="48.42965" lon="2.71871">
        <ele>145</ele>
        <time>2013-04-21T07:50:45Z</time>
      </trkpt>
      <trkpt lat="48.42966" lon="2.71871">
        <ele>145</ele>
        <time>2013-04-21T07:50:47Z</time>
      </trkpt>
      <trkpt lat="48.42967" lon="2.7187">
        <ele>144</ele>
        <time>2013-04-21T07:50:48Z</time>
      </trkpt>
      <trkpt lat="48.42969" lon="2.71868">
        <ele>144</ele>
        <time>2013-04-21T07:50:50Z</time>
      </trkpt>
      <trkpt lat="48.42969" lon="2.71868">
        <ele>144</ele>
        <time>2013-04-21T07:50:51Z</time>
      </trkpt>
      <trkpt lat="48.42972" lon="2.71866">
        <ele>144</ele>
        <time>2013-04-21T07:50:53Z</time>
      </trkpt>
      <trkpt lat="48.42973" lon="2.71866">
        <ele>144</ele>
        <time>2013-04-21T07:50:54Z</time>
      </trkpt>
      <trkpt lat="48.42974" lon="2.71865">
        <ele>144</ele>
        <time>2013-04-21T07:50:57Z</time>
      </trkpt>
      <trkpt lat="48.42974" lon="2.71865">
        <ele>144</ele>
        <time>2013-04-21T07:50:58Z</time>
      </trkpt>
      <trkpt lat="48.42975" lon="2.71864">
        <ele>144</ele>
        <time>2013-04-21T07:51:00Z</time>
      </trkpt>
      <trkpt lat="48.42975" lon="2.71864">
        <ele>144</ele>
        <time>2013-04-21T07:51:02Z</time>
      </trkpt>
      <trkpt lat="48.42975" lon="2.71864">
        <ele>144</ele>
        <time>2013-04-21T07:51:04Z</time>
      </trkpt>
      <trkpt lat="48.42975" lon="2.71864">
        <ele>144</ele>
        <time>2013-04-21T07:51:05Z</time>
      </trkpt>
      <trkpt lat="48.42976" lon="2.71864">
        <ele>144</ele>
        <time>2013-04-21T07:51:07Z</time>
      </trkpt>
      <trkpt lat="48.42976" lon="2.71864">
        <ele>144</ele>
        <time>2013-04-21T07:51:08Z</time>
      </trkpt>
      <trkpt lat="48.42976" lon="2.71864">
        <ele>144</ele>
        <time>2013-04-21T07:51:09Z</time>
      </trkpt>
      <trkpt lat="48.42976" lon="2.71864">
        <ele>144</ele>
        <time>2013-04-21T07:51:10Z</time>
      </trkpt>
      <trkpt lat="48.42976" lon="2.71864">
        <ele>144</ele>
        <time>2013-04-21T07:51:11Z</time>
      </trkpt>
      <trkpt lat="48.42976" lon="2.71864">
        <ele>144</ele>
        <time>2013-04-21T07:51:12Z</time>
      </trkpt>
      <trkpt lat="48.42976" lon="2.71864">
        <ele>144</ele>
        <time>2013-04-21T07:51:13Z</time>
      </trkpt>
      <trkpt lat="48.42976" lon="2.71863">
        <ele>144</ele>
        <time>2013-04-21T07:51:14Z</time>
      </trkpt>
      <trkpt lat="48.42976" lon="2.71862">
        <ele>144</ele>
        <time>2013-04-21T07:51:15Z</time>
      </trkpt>
      <trkpt lat="48.42975" lon="2.71862">
        <ele>144</ele>
        <time>2013-04-21T07:51:16Z</time>
      </trkpt>
      <trkpt lat="48.42975" lon="2.71863">
        <ele>144</ele>
        <time>2013-04-21T07:51:17Z</time>
      </trkpt>
      <trkpt lat="48.42975" lon="2.71864">
        <ele>144</ele>
        <time>2013-04-21T07:51:19Z</time>
      </trkpt>
      <trkpt lat="48.42975" lon="2.71864">
        <ele>144</ele>
        <time>2013-04-21T07:51:20Z</time>
      </trkpt>
      <trkpt lat="48.42975" lon="2.71865">
        <ele>144</ele>
        <time>2013-04-21T07:51:21Z</time>
      </trkpt>
      <trkpt lat="48.42975" lon="2.71865">
        <ele>144</ele>
        <time>2013-04-21T07:51:23Z</time>
      </trkpt>
      <trkpt lat="48.42975" lon="2.71865">
        <ele>144</ele>
        <time>2013-04-21T07:51:24Z</time>
      </trkpt>
      <trkpt lat="48.42976" lon="2.71866">
        <ele>144</ele>
        <time>2013-04-21T07:51:25Z</time>
      </trkpt>
      <trkpt lat="48.42976" lon="2.71866">
        <ele>144</ele>
        <time>2013-04-21T07:51:26Z</time>
      </trkpt>
      <trkpt lat="48.42979" lon="2.71867">
        <ele>144</ele>
        <time>2013-04-21T07:51:28Z</time>
      </trkpt>
      <trkpt lat="48.4298" lon="2.71866">
        <ele>144</ele>
        <time>2013-04-21T07:51:29Z</time>
      </trkpt>
      <trkpt lat="48.42982" lon="2.71866">
        <ele>144</ele>
        <time>2013-04-21T07:51:30Z</time>
      </trkpt>
      <trkpt lat="48.42983" lon="2.71866">
        <ele>144</ele>
        <time>2013-04-21T07:51:31Z</time>
      </trkpt>
      <trkpt lat="48.4301" lon="2.71871">
        <ele>142</ele>
        <time>2013-04-21T07:51:41Z</time>
      </trkpt>
      <trkpt lat="48.43017" lon="2.71871">
        <ele>142</ele>
        <time>2013-04-21T07:51:43Z</time>
      </trkpt>
      <trkpt lat="48.4303" lon="2.71873">
        <ele>142</ele>
        <time>2013-04-21T07:51:46Z</time>
      </trkpt>
      <trkpt lat="48.43035" lon="2.71873">
        <ele>142</ele>
        <time>2013-04-21T07:51:47Z</time>
      </trkpt>
      <trkpt lat="48.4304" lon="2.71873">
        <ele>142</ele>
        <time>2013-04-21T07:51:48Z</time>
      </trkpt>
      <trkpt lat="48.43044" lon="2.71876">
        <ele>142</ele>
        <time>2013-04-21T07:51:49Z</time>
      </trkpt>
      <trkpt lat="48.43066" lon="2.71903">
        <ele>142</ele>
        <time>2013-04-21T07:51:54Z</time>
      </trkpt>
      <trkpt lat="48.43075" lon="2.71919">
        <ele>141</ele>
        <time>2013-04-21T07:51:56Z</time>
      </trkpt>
      <trkpt lat="48.4309" lon="2.71939">
        <ele>139</ele>
        <time>2013-04-21T07:51:59Z</time>
      </trkpt>
      <trkpt lat="48.43191" lon="2.72004">
        <ele>131</ele>
        <time>2013-04-21T07:52:14Z</time>
      </trkpt>
      <trkpt lat="48.43196" lon="2.72008">
        <ele>130</ele>
        <time>2013-04-21T07:52:15Z</time>
      </trkpt>
      <trkpt lat="48.432" lon="2.72014">
        <ele>130</ele>
        <time>2013-04-21T07:52:16Z</time>
      </trkpt>
      <trkpt lat="48.43206" lon="2.72028">
        <ele>129</ele>
        <time>2013-04-21T07:52:18Z</time>
      </trkpt>
      <trkpt lat="48.43226" lon="2.72051">
        <ele>129</ele>
        <time>2013-04-21T07:52:22Z</time>
      </trkpt>
      <trkpt lat="48.4323" lon="2.72054">
        <ele>128</ele>
        <time>2013-04-21T07:52:23Z</time>
      </trkpt>
      <trkpt lat="48.43305" lon="2.72125">
        <ele>122</ele>
        <time>2013-04-21T07:52:36Z</time>
      </trkpt>
      <trkpt lat="48.43307" lon="2.72126">
        <ele>122</ele>
        <time>2013-04-21T07:52:37Z</time>
      </trkpt>
      <trkpt lat="48.43309" lon="2.72126">
        <ele>122</ele>
        <time>2013-04-21T07:52:38Z</time>
      </trkpt>
      <trkpt lat="48.43312" lon="2.72125">
        <ele>122</ele>
        <time>2013-04-21T07:52:40Z</time>
      </trkpt>
      <trkpt lat="48.43316" lon="2.72126">
        <ele>122</ele>
        <time>2013-04-21T07:52:42Z</time>
      </trkpt>
      <trkpt lat="48.43318" lon="2.72127">
        <ele>122</ele>
        <time>2013-04-21T07:52:43Z</time>
      </trkpt>
      <trkpt lat="48.43319" lon="2.72127">
        <ele>122</ele>
        <time>2013-04-21T07:52:44Z</time>
      </trkpt>
      <trkpt lat="48.43323" lon="2.72127">
        <ele>122</ele>
        <time>2013-04-21T07:52:47Z</time>
      </trkpt>
      <trkpt lat="48.43325" lon="2.72128">
        <ele>122</ele>
        <time>2013-04-21T07:52:48Z</time>
      </trkpt>
      <trkpt lat="48.43326" lon="2.72128">
        <ele>122</ele>
        <time>2013-04-21T07:52:49Z</time>
      </trkpt>
      <trkpt lat="48.43326" lon="2.72128">
        <ele>122</ele>
        <time>2013-04-21T07:52:50Z</time>
      </trkpt>
      <trkpt lat="48.43327" lon="2.72128">
        <ele>122</ele>
        <time>2013-04-21T07:52:51Z</time>
      </trkpt>
      <trkpt lat="48.43327" lon="2.72128">
        <ele>122</ele>
        <time>2013-04-21T07:52:52Z</time>
      </trkpt>
      <trkpt lat="48.43328" lon="2.72127">
        <ele>122</ele>
        <time>2013-04-21T07:52:53Z</time>
      </trkpt>
      <trkpt lat="48.43328" lon="2.72127">
        <ele>122</ele>
        <time>2013-04-21T07:52:54Z</time>
      </trkpt>
      <trkpt lat="48.43329" lon="2.72127">
        <ele>122</ele>
        <time>2013-04-21T07:52:55Z</time>
      </trkpt>
      <trkpt lat="48.4333" lon="2.72127">
        <ele>122</ele>
        <time>2013-04-21T07:52:57Z</time>
      </trkpt>
      <trkpt lat="48.43331" lon="2.72127">
        <ele>122</ele>
        <time>2013-04-21T07:52:58Z</time>
      </trkpt>
      <trkpt lat="48.43331" lon="2.72126">
        <ele>122</ele>
        <time>2013-04-21T07:52:59Z</time>
      </trkpt>
      <trkpt lat="48.43333" lon="2.72125">
        <ele>122</ele>
        <time>2013-04-21T07:53:02Z</time>
      </trkpt>
      <trkpt lat="48.43333" lon="2.72125">
        <ele>122</ele>
        <time>2013-04-21T07:53:03Z</time>
      </trkpt>
      <trkpt lat="48.43333" lon="2.72125">
        <ele>122</ele>
        <time>2013-04-21T07:53:04Z</time>
      </trkpt>
      <trkpt lat="48.43334" lon="2.72124">
        <ele>119</ele>
        <time>2013-04-21T07:53:05Z</time>
      </trkpt>
      <trkpt lat="48.43334" lon="2.72123">
        <ele>119</ele>
        <time>2013-04-21T07:53:06Z</time>
      </trkpt>
      <trkpt lat="48.43337" lon="2.72119">
        <ele>119</ele>
        <time>2013-04-21T07:53:07Z</time>
      </trkpt>
      <trkpt lat="48.43335" lon="2.72118">
        <ele>119</ele>
        <time>2013-04-21T07:53:10Z</time>
      </trkpt>
      <trkpt lat="48.43332" lon="2.72118">
        <ele>122</ele>
        <time>2013-04-21T07:53:12Z</time>
      </trkpt>
      <trkpt lat="48.43329" lon="2.72116">
        <ele>122</ele>
        <time>2013-04-21T07:53:14Z</time>
      </trkpt>
      <trkpt lat="48.43327" lon="2.72116">
        <ele>122</ele>
        <time>2013-04-21T07:53:15Z</time>
      </trkpt>
      <trkpt lat="48.43326" lon="2.72116">
        <ele>122</ele>
        <time>2013-04-21T07:53:16Z</time>
      </trkpt>
      <trkpt lat="48.43323" lon="2.72119">
        <ele>122</ele>
        <time>2013-04-21T07:53:18Z</time>
      </trkpt>
      <trkpt lat="48.43321" lon="2.7212">
        <ele>122</ele>
        <time>2013-04-21T07:53:19Z</time>
      </trkpt>
      <trkpt lat="48.43319" lon="2.72123">
        <ele>122</ele>
        <time>2013-04-21T07:53:20Z</time>
      </trkpt>
      <trkpt lat="48.43317" lon="2.72127">
        <ele>122</ele>
        <time>2013-04-21T07:53:21Z</time>
      </trkpt>
      <trkpt lat="48.43315" lon="2.7213">
        <ele>122</ele>
        <time>2013-04-21T07:53:22Z</time>
      </trkpt>
      <trkpt lat="48.43313" lon="2.72133">
        <ele>122</ele>
        <time>2013-04-21T07:53:23Z</time>
      </trkpt>
      <trkpt lat="48.43312" lon="2.72141">
        <ele>122</ele>
        <time>2013-04-21T07:53:24Z</time>
      </trkpt>
      <trkpt lat="48.43308" lon="2.72156">
        <ele>122</ele>
        <time>2013-04-21T07:53:27Z</time>
      </trkpt>
      <trkpt lat="48.43306" lon="2.72166">
        <ele>122</ele>
        <time>2013-04-21T07:53:29Z</time>
      </trkpt>
      <trkpt lat="48.43304" lon="2.72171">
        <ele>123</ele>
        <time>2013-04-21T07:53:30Z</time>
      </trkpt>
      <trkpt lat="48.43293" lon="2.72223">
        <ele>124</ele>
        <time>2013-04-21T07:53:39Z</time>
      </trkpt>
      <trkpt lat="48.43291" lon="2.72234">
        <ele>124</ele>
        <time>2013-04-21T07:53:41Z</time>
      </trkpt>
      <trkpt lat="48.43272" lon="2.7231">
        <ele>125</ele>
        <time>2013-04-21T07:53:54Z</time>
      </trkpt>
      <trkpt lat="48.43267" lon="2.72322">
        <ele>125</ele>
        <time>2013-04-21T07:53:56Z</time>
      </trkpt>
      <trkpt lat="48.43264" lon="2.72334">
        <ele>125</ele>
        <time>2013-04-21T07:53:58Z</time>
      </trkpt>
      <trkpt lat="48.432" lon="2.72533">
        <ele>119</ele>
        <time>2013-04-21T07:54:29Z</time>
      </trkpt>
      <trkpt lat="48.43199" lon="2.72538">
        <ele>119</ele>
        <time>2013-04-21T07:54:30Z</time>
      </trkpt>
      <trkpt lat="48.432" lon="2.72572">
        <ele>118</ele>
        <time>2013-04-21T07:54:40Z</time>
      </trkpt>
      <trkpt lat="48.432" lon="2.72573">
        <ele>118</ele>
        <time>2013-04-21T07:54:41Z</time>
      </trkpt>
      <trkpt lat="48.43199" lon="2.72574">
        <ele>118</ele>
        <time>2013-04-21T07:54:42Z</time>
      </trkpt>
      <trkpt lat="48.43199" lon="2.72575">
        <ele>118</ele>
        <time>2013-04-21T07:54:43Z</time>
      </trkpt>
      <trkpt lat="48.43199" lon="2.72575">
        <ele>118</ele>
        <time>2013-04-21T07:54:44Z</time>
      </trkpt>
      <trkpt lat="48.43199" lon="2.72576">
        <ele>118</ele>
        <time>2013-04-21T07:54:45Z</time>
      </trkpt>
      <trkpt lat="48.43198" lon="2.72577">
        <ele>118</ele>
        <time>2013-04-21T07:54:46Z</time>
      </trkpt>
      <trkpt lat="48.43198" lon="2.72577">
        <ele>118</ele>
        <time>2013-04-21T07:54:47Z</time>
      </trkpt>
      <trkpt lat="48.43198" lon="2.72578">
        <ele>118</ele>
        <time>2013-04-21T07:54:48Z</time>
      </trkpt>
      <trkpt lat="48.43198" lon="2.72579">
        <ele>118</ele>
        <time>2013-04-21T07:54:49Z</time>
      </trkpt>
      <trkpt lat="48.43198" lon="2.72579">
        <ele>118</ele>
        <time>2013-04-21T07:54:50Z</time>
      </trkpt>
      <trkpt lat="48.43198" lon="2.7258">
        <ele>118</ele>
        <time>2013-04-21T07:54:51Z</time>
      </trkpt>
      <trkpt lat="48.43198" lon="2.7258">
        <ele>118</ele>
        <time>2013-04-21T07:54:52Z</time>
      </trkpt>
      <trkpt lat="48.43198" lon="2.72579">
        <ele>118</ele>
        <time>2013-04-21T07:54:53Z</time>
      </trkpt>
      <trkpt lat="48.43198" lon="2.72578">
        <ele>118</ele>
        <time>2013-04-21T07:54:54Z</time>
      </trkpt>
      <trkpt lat="48.43196" lon="2.72576">
        <ele>118</ele>
        <time>2013-04-21T07:54:56Z</time>
      </trkpt>
      <trkpt lat="48.43196" lon="2.72573">
        <ele>118</ele>
        <time>2013-04-21T07:54:57Z</time>
      </trkpt>
      <trkpt lat="48.43195" lon="2.72567">
        <ele>118</ele>
        <time>2013-04-21T07:54:59Z</time>
      </trkpt>
      <trkpt lat="48.43196" lon="2.72564">
        <ele>118</ele>
        <time>2013-04-21T07:55:00Z</time>
      </trkpt>
      <trkpt lat="48.43197" lon="2.72561">
        <ele>118</ele>
        <time>2013-04-21T07:55:01Z</time>
      </trkpt>
      <trkpt lat="48.43208" lon="2.72542">
        <ele>119</ele>
        <time>2013-04-21T07:55:07Z</time>
      </trkpt>
      <trkpt lat="48.4321" lon="2.72539">
        <ele>119</ele>
        <time>2013-04-21T07:55:08Z</time>
      </trkpt>
      <trkpt lat="48.43255" lon="2.72462">
        <ele>121</ele>
        <time>2013-04-21T07:55:27Z</time>
      </trkpt>
      <trkpt lat="48.43264" lon="2.7245">
        <ele>122</ele>
        <time>2013-04-21T07:55:31Z</time>
      </trkpt>
      <trkpt lat="48.43267" lon="2.72448">
        <ele>122</ele>
        <time>2013-04-21T07:55:32Z</time>
      </trkpt>
      <trkpt lat="48.43277" lon="2.72445">
        <ele>122</ele>
        <time>2013-04-21T07:55:36Z</time>
      </trkpt>
      <trkpt lat="48.43293" lon="2.72449">
        <ele>123</ele>
        <time>2013-04-21T07:55:41Z</time>
      </trkpt>
      <trkpt lat="48.43304" lon="2.72455">
        <ele>123</ele>
        <time>2013-04-21T07:55:45Z</time>
      </trkpt>
      <trkpt lat="48.43306" lon="2.72457">
        <ele>123</ele>
        <time>2013-04-21T07:55:46Z</time>
      </trkpt>
      <trkpt lat="48.43311" lon="2.7246">
        <ele>123</ele>
        <time>2013-04-21T07:55:48Z</time>
      </trkpt>
      <trkpt lat="48.43316" lon="2.72464">
        <ele>123</ele>
        <time>2013-04-21T07:55:50Z</time>
      </trkpt>
      <trkpt lat="48.43325" lon="2.72479">
        <ele>123</ele>
        <time>2013-04-21T07:55:55Z</time>
      </trkpt>
      <trkpt lat="48.43328" lon="2.72486">
        <ele>123</ele>
        <time>2013-04-21T07:55:57Z</time>
      </trkpt>
      <trkpt lat="48.4333" lon="2.72489">
        <ele>123</ele>
        <time>2013-04-21T07:55:58Z</time>
      </trkpt>
      <trkpt lat="48.43341" lon="2.72518">
        <ele>125</ele>
        <time>2013-04-21T07:56:06Z</time>
      </trkpt>
      <trkpt lat="48.43352" lon="2.72572">
        <ele>124</ele>
        <time>2013-04-21T07:56:21Z</time>
      </trkpt>
      <trkpt lat="48.43357" lon="2.72623">
        <ele>123</ele>
        <time>2013-04-21T07:56:34Z</time>
      </trkpt>
      <trkpt lat="48.43358" lon="2.72627">
        <ele>123</ele>
        <time>2013-04-21T07:56:35Z</time>
      </trkpt>
      <trkpt lat="48.43361" lon="2.72638">
        <ele>123</ele>
        <time>2013-04-21T07:56:38Z</time>
      </trkpt>
      <trkpt lat="48.43362" lon="2.72642">
        <ele>123</ele>
        <time>2013-04-21T07:56:39Z</time>
      </trkpt>
      <trkpt lat="48.43366" lon="2.72651">
        <ele>123</ele>
        <time>2013-04-21T07:56:42Z</time>
      </trkpt>
      <trkpt lat="48.4337" lon="2.72656">
        <ele>123</ele>
        <time>2013-04-21T07:56:44Z</time>
      </trkpt>
      <trkpt lat="48.43372" lon="2.72658">
        <ele>123</ele>
        <time>2013-04-21T07:56:45Z</time>
      </trkpt>
      <trkpt lat="48.43374" lon="2.72659">
        <ele>124</ele>
        <time>2013-04-21T07:56:46Z</time>
      </trkpt>
      <trkpt lat="48.4338" lon="2.7266">
        <ele>124</ele>
        <time>2013-04-21T07:56:49Z</time>
      </trkpt>
      <trkpt lat="48.43382" lon="2.72659">
        <ele>124</ele>
        <time>2013-04-21T07:56:51Z</time>
      </trkpt>
      <trkpt lat="48.43388" lon="2.72654">
        <ele>124</ele>
        <time>2013-04-21T07:56:54Z</time>
      </trkpt>
      <trkpt lat="48.43394" lon="2.72646">
        <ele>125</ele>
        <time>2013-04-21T07:56:57Z</time>
      </trkpt>
      <trkpt lat="48.43395" lon="2.72643">
        <ele>125</ele>
        <time>2013-04-21T07:56:58Z</time>
      </trkpt>
      <trkpt lat="48.43398" lon="2.72637">
        <ele>125</ele>
        <time>2013-04-21T07:57:00Z</time>
      </trkpt>
      <trkpt lat="48.434" lon="2.72627">
        <ele>125</ele>
        <time>2013-04-21T07:57:03Z</time>
      </trkpt>
      <trkpt lat="48.43403" lon="2.72601">
        <ele>126</ele>
        <time>2013-04-21T07:57:12Z</time>
      </trkpt>
      <trkpt lat="48.43403" lon="2.72601">
        <ele>126</ele>
        <time>2013-04-21T07:57:13Z</time>
      </trkpt>
      <trkpt lat="48.43403" lon="2.726">
        <ele>126</ele>
        <time>2013-04-21T07:57:14Z</time>
      </trkpt>
      <trkpt lat="48.43403" lon="2.726">
        <ele>126</ele>
        <time>2013-04-21T07:57:15Z</time>
      </trkpt>
      <trkpt lat="48.43403" lon="2.726">
        <ele>126</ele>
        <time>2013-04-21T07:57:16Z</time>
      </trkpt>
      <trkpt lat="48.43403" lon="2.726">
        <ele>126</ele>
        <time>2013-04-21T07:57:18Z</time>
      </trkpt>
      <trkpt lat="48.43403" lon="2.726">
        <ele>126</ele>
        <time>2013-04-21T07:57:20Z</time>
      </trkpt>
      <trkpt lat="48.43403" lon="2.726">
        <ele>126</ele>
        <time>2013-04-21T07:57:21Z</time>
      </trkpt>
      <trkpt lat="48.43403" lon="2.726">
        <ele>126</ele>
        <time>2013-04-21T07:57:23Z</time>
      </trkpt>
      <trkpt lat="48.43403" lon="2.72599">
        <ele>126</ele>
        <time>2013-04-21T07:57:24Z</time>
      </trkpt>
      <trkpt lat="48.43402" lon="2.72598">
        <ele>126</ele>
        <time>2013-04-21T07:57:25Z</time>
      </trkpt>
      <trkpt lat="48.434" lon="2.72597">
        <ele>126</ele>
        <time>2013-04-21T07:57:26Z</time>
      </trkpt>
      <trkpt lat="48.43388" lon="2.72591">
        <ele>125</ele>
        <time>2013-04-21T07:57:34Z</time>
      </trkpt>
      <trkpt lat="48.43387" lon="2.72591">
        <ele>125</ele>
        <time>2013-04-21T07:57:35Z</time>
      </trkpt>
      <trkpt lat="48.43386" lon="2.72591">
        <ele>125</ele>
        <time>2013-04-21T07:57:36Z</time>
      </trkpt>
      <trkpt lat="48.43385" lon="2.72591">
        <ele>125</ele>
        <time>2013-04-21T07:57:37Z</time>
      </trkpt>
      <trkpt lat="48.43384" lon="2.7259">
        <ele>125</ele>
        <time>2013-04-21T07:57:38Z</time>
      </trkpt>
      <trkpt lat="48.43378" lon="2.72585">
        <ele>125</ele>
        <time>2013-04-21T07:57:41Z</time>
      </trkpt>
      <trkpt lat="48.43376" lon="2.72586">
        <ele>124</ele>
        <time>2013-04-21T07:57:42Z</time>
      </trkpt>
      <trkpt lat="48.43376" lon="2.72586">
        <ele>124</ele>
        <time>2013-04-21T07:57:43Z</time>
      </trkpt>
      <trkpt lat="48.43375" lon="2.72587">
        <ele>124</ele>
        <time>2013-04-21T07:57:44Z</time>
      </trkpt>
      <trkpt lat="48.43375" lon="2.72587">
        <ele>124</ele>
        <time>2013-04-21T07:57:45Z</time>
      </trkpt>
      <trkpt lat="48.43375" lon="2.72587">
        <ele>124</ele>
        <time>2013-04-21T07:57:47Z</time>
      </trkpt>
      <trkpt lat="48.43375" lon="2.72587">
        <ele>124</ele>
        <time>2013-04-21T07:57:49Z</time>
      </trkpt>
      <trkpt lat="48.43375" lon="2.72587">
        <ele>124</ele>
        <time>2013-04-21T07:57:51Z</time>
      </trkpt>
      <trkpt lat="48.43375" lon="2.72587">
        <ele>124</ele>
        <time>2013-04-21T07:57:52Z</time>
      </trkpt>
      <trkpt lat="48.43375" lon="2.72587">
        <ele>124</ele>
        <time>2013-04-21T07:57:54Z</time>
      </trkpt>
      <trkpt lat="48.43375" lon="2.72587">
        <ele>124</ele>
        <time>2013-04-21T07:57:55Z</time>
      </trkpt>
      <trkpt lat="48.43375" lon="2.72587">
        <ele>124</ele>
        <time>2013-04-21T07:57:56Z</time>
      </trkpt>
      <trkpt lat="48.43375" lon="2.72587">
        <ele>124</ele>
        <time>2013-04-21T07:57:57Z</time>
      </trkpt>
      <trkpt lat="48.43375" lon="2.72588">
        <ele>124</ele>
        <time>2013-04-21T07:57:58Z</time>
      </trkpt>
      <trkpt lat="48.43376" lon="2.72588">
        <ele>124</ele>
        <time>2013-04-21T07:57:59Z</time>
      </trkpt>
      <trkpt lat="48.43376" lon="2.72588">
        <ele>124</ele>
        <time>2013-04-21T07:58:00Z</time>
      </trkpt>
      <trkpt lat="48.43376" lon="2.72588">
        <ele>124</ele>
        <time>2013-04-21T07:58:01Z</time>
      </trkpt>
      <trkpt lat="48.43376" lon="2.72588">
        <ele>124</ele>
        <time>2013-04-21T07:58:02Z</time>
      </trkpt>
      <trkpt lat="48.43376" lon="2.72588">
        <ele>124</ele>
        <time>2013-04-21T07:58:03Z</time>
      </trkpt>
      <trkpt lat="48.43377" lon="2.72588">
        <ele>124</ele>
        <time>2013-04-21T07:58:04Z</time>
      </trkpt>
      <trkpt lat="48.43377" lon="2.72588">
        <ele>124</ele>
        <time>2013-04-21T07:58:05Z</time>
      </trkpt>
      <trkpt lat="48.43377" lon="2.72588">
        <ele>124</ele>
        <time>2013-04-21T07:58:06Z</time>
      </trkpt>
      <trkpt lat="48.43377" lon="2.72588">
        <ele>124</ele>
        <time>2013-04-21T07:58:07Z</time>
      </trkpt>
      <trkpt lat="48.43377" lon="2.72588">
        <ele>124</ele>
        <time>2013-04-21T07:58:08Z</time>
      </trkpt>
      <trkpt lat="48.43378" lon="2.72589">
        <ele>124</ele>
        <time>2013-04-21T07:58:09Z</time>
      </trkpt>
      <trkpt lat="48.43378" lon="2.72589">
        <ele>124</ele>
        <time>2013-04-21T07:58:10Z</time>
      </trkpt>
      <trkpt lat="48.43378" lon="2.72589">
        <ele>125</ele>
        <time>2013-04-21T07:58:11Z</time>
      </trkpt>
      <trkpt lat="48.43378" lon="2.72589">
        <ele>125</ele>
        <time>2013-04-21T07:58:13Z</time>
      </trkpt>
      <trkpt lat="48.43378" lon="2.72589">
        <ele>125</ele>
        <time>2013-04-21T07:58:15Z</time>
      </trkpt>
      <trkpt lat="48.43378" lon="2.72589">
        <ele>124</ele>
        <time>2013-04-21T07:58:18Z</time>
      </trkpt>
      <trkpt lat="48.43378" lon="2.72589">
        <ele>124</ele>
        <time>2013-04-21T07:58:21Z</time>
      </trkpt>
      <trkpt lat="48.43378" lon="2.7259">
        <ele>124</ele>
        <time>2013-04-21T07:58:25Z</time>
      </trkpt>
      <trkpt lat="48.43378" lon="2.7259">
        <ele>124</ele>
        <time>2013-04-21T07:58:27Z</time>
      </trkpt>
      <trkpt lat="48.43378" lon="2.7259">
        <ele>124</ele>
        <time>2013-04-21T07:58:29Z</time>
      </trkpt>
      <trkpt lat="48.43378" lon="2.7259">
        <ele>125</ele>
        <time>2013-04-21T07:58:33Z</time>
      </trkpt>
      <trkpt lat="48.43378" lon="2.7259">
        <ele>124</ele>
        <time>2013-04-21T07:58:35Z</time>
      </trkpt>
      <trkpt lat="48.43378" lon="2.7259">
        <ele>125</ele>
        <time>2013-04-21T07:58:38Z</time>
      </trkpt>
      <trkpt lat="48.43378" lon="2.7259">
        <ele>125</ele>
        <time>2013-04-21T07:58:41Z</time>
      </trkpt>
      <trkpt lat="48.43378" lon="2.7259">
        <ele>125</ele>
        <time>2013-04-21T07:58:43Z</time>
      </trkpt>
      <trkpt lat="48.43378" lon="2.7259">
        <ele>125</ele>
        <time>2013-04-21T07:58:47Z</time>
      </trkpt>
      <trkpt lat="48.43378" lon="2.7259">
        <ele>125</ele>
        <time>2013-04-21T07:58:48Z</time>
      </trkpt>
      <trkpt lat="48.43378" lon="2.7259">
        <ele>125</ele>
        <time>2013-04-21T07:58:53Z</time>
      </trkpt>
      <trkpt lat="48.43378" lon="2.7259">
        <ele>125</ele>
        <time>2013-04-21T07:58:54Z</time>
      </trkpt>
      <trkpt lat="48.43378" lon="2.72591">
        <ele>125</ele>
        <time>2013-04-21T07:58:59Z</time>
      </trkpt>
      <trkpt lat="48.43378" lon="2.72591">
        <ele>125</ele>
        <time>2013-04-21T07:59:01Z</time>
      </trkpt>
      <trkpt lat="48.43378" lon="2.72591">
        <ele>124</ele>
        <time>2013-04-21T07:59:06Z</time>
      </trkpt>
      <trkpt lat="48.43378" lon="2.72591">
        <ele>124</ele>
        <time>2013-04-21T07:59:07Z</time>
      </trkpt>
      <trkpt lat="48.43378" lon="2.72591">
        <ele>124</ele>
        <time>2013-04-21T07:59:10Z</time>
      </trkpt>
      <trkpt lat="48.43378" lon="2.72591">
        <ele>124</ele>
        <time>2013-04-21T07:59:11Z</time>
      </trkpt>
      <trkpt lat="48.43377" lon="2.72591">
        <ele>124</ele>
        <time>2013-04-21T07:59:15Z</time>
      </trkpt>
      <trkpt lat="48.43377" lon="2.72591">
        <ele>124</ele>
        <time>2013-04-21T07:59:17Z</time>
      </trkpt>
      <trkpt lat="48.43377" lon="2.72591">
        <ele>124</ele>
        <time>2013-04-21T07:59:19Z</time>
      </trkpt>
      <trkpt lat="48.43377" lon="2.72591">
        <ele>124</ele>
        <time>2013-04-21T07:59:21Z</time>
      </trkpt>
      <trkpt lat="48.43377" lon="2.72591">
        <ele>124</ele>
        <time>2013-04-21T07:59:22Z</time>
      </trkpt>
      <trkpt lat="48.43376" lon="2.72591">
        <ele>124</ele>
        <time>2013-04-21T07:59:23Z</time>
      </trkpt>
      <trkpt lat="48.43376" lon="2.72591">
        <ele>124</ele>
        <time>2013-04-21T07:59:24Z</time>
      </trkpt>
      <trkpt lat="48.43376" lon="2.72591">
        <ele>124</ele>
        <time>2013-04-21T07:59:25Z</time>
      </trkpt>
      <trkpt lat="48.43376" lon="2.72591">
        <ele>124</ele>
        <time>2013-04-21T07:59:26Z</time>
      </trkpt>
      <trkpt lat="48.43376" lon="2.72591">
        <ele>124</ele>
        <time>2013-04-21T07:59:28Z</time>
      </trkpt>
      <trkpt lat="48.43376" lon="2.72591">
        <ele>124</ele>
        <time>2013-04-21T07:59:29Z</time>
      </trkpt>
      <trkpt lat="48.43375" lon="2.72591">
        <ele>124</ele>
        <time>2013-04-21T07:59:30Z</time>
      </trkpt>
      <trkpt lat="48.43375" lon="2.72591">
        <ele>124</ele>
        <time>2013-04-21T07:59:31Z</time>
      </trkpt>
      <trkpt lat="48.43375" lon="2.72591">
        <ele>124</ele>
        <time>2013-04-21T07:59:33Z</time>
      </trkpt>
      <trkpt lat="48.43375" lon="2.72591">
        <ele>124</ele>
        <time>2013-04-21T07:59:34Z</time>
      </trkpt>
      <trkpt lat="48.43375" lon="2.72591">
        <ele>124</ele>
        <time>2013-04-21T07:59:36Z</time>
      </trkpt>
      <trkpt lat="48.43375" lon="2.72591">
        <ele>124</ele>
        <time>2013-04-21T07:59:38Z</time>
      </trkpt>
      <trkpt lat="48.43374" lon="2.72591">
        <ele>124</ele>
        <time>2013-04-21T07:59:40Z</time>
      </trkpt>
      <trkpt lat="48.43374" lon="2.72591">
        <ele>124</ele>
        <time>2013-04-21T07:59:44Z</time>
      </trkpt>
      <trkpt lat="48.43374" lon="2.72591">
        <ele>124</ele>
        <time>2013-04-21T07:59:49Z</time>
      </trkpt>
      <trkpt lat="48.43375" lon="2.72591">
        <ele>124</ele>
        <time>2013-04-21T07:59:54Z</time>
      </trkpt>
      <trkpt lat="48.43375" lon="2.72591">
        <ele>124</ele>
        <time>2013-04-21T07:59:57Z</time>
      </trkpt>
      <trkpt lat="48.43375" lon="2.72591">
        <ele>124</ele>
        <time>2013-04-21T07:59:58Z</time>
      </trkpt>
      <trkpt lat="48.43375" lon="2.72591">
        <ele>124</ele>
        <time>2013-04-21T08:00:00Z</time>
      </trkpt>
      <trkpt lat="48.43375" lon="2.72591">
        <ele>124</ele>
        <time>2013-04-21T08:00:03Z</time>
      </trkpt>
      <trkpt lat="48.43375" lon="2.72591">
        <ele>124</ele>
        <time>2013-04-21T08:00:06Z</time>
      </trkpt>
      <trkpt lat="48.43375" lon="2.72591">
        <ele>124</ele>
        <time>2013-04-21T08:00:08Z</time>
      </trkpt>
      <trkpt lat="48.43376" lon="2.72591">
        <ele>124</ele>
        <time>2013-04-21T08:00:11Z</time>
      </trkpt>
      <trkpt lat="48.43376" lon="2.7259">
        <ele>124</ele>
        <time>2013-04-21T08:00:13Z</time>
      </trkpt>
      <trkpt lat="48.43376" lon="2.7259">
        <ele>124</ele>
        <time>2013-04-21T08:00:14Z</time>
      </trkpt>
      <trkpt lat="48.43377" lon="2.72591">
        <ele>124</ele>
        <time>2013-04-21T08:00:16Z</time>
      </trkpt>
      <trkpt lat="48.43378" lon="2.72592">
        <ele>124</ele>
        <time>2013-04-21T08:00:20Z</time>
      </trkpt>
      <trkpt lat="48.43378" lon="2.72592">
        <ele>124</ele>
        <time>2013-04-21T08:00:21Z</time>
      </trkpt>
      <trkpt lat="48.43378" lon="2.72592">
        <ele>124</ele>
        <time>2013-04-21T08:00:22Z</time>
      </trkpt>
      <trkpt lat="48.43403" lon="2.726">
        <ele>126</ele>
        <time>2013-04-21T08:00:33Z</time>
      </trkpt>
      <trkpt lat="48.43405" lon="2.72601">
        <ele>126</ele>
        <time>2013-04-21T08:00:34Z</time>
      </trkpt>
      <trkpt lat="48.43407" lon="2.72601">
        <ele>126</ele>
        <time>2013-04-21T08:00:35Z</time>
      </trkpt>
      <trkpt lat="48.43408" lon="2.726">
        <ele>126</ele>
        <time>2013-04-21T08:00:36Z</time>
      </trkpt>
      <trkpt lat="48.4341" lon="2.72599">
        <ele>126</ele>
        <time>2013-04-21T08:00:37Z</time>
      </trkpt>
      <trkpt lat="48.43411" lon="2.726">
        <ele>126</ele>
        <time>2013-04-21T08:00:38Z</time>
      </trkpt>
      <trkpt lat="48.43412" lon="2.72603">
        <ele>126</ele>
        <time>2013-04-21T08:00:39Z</time>
      </trkpt>
      <trkpt lat="48.43418" lon="2.72611">
        <ele>125</ele>
        <time>2013-04-21T08:00:43Z</time>
      </trkpt>
      <trkpt lat="48.43419" lon="2.7261">
        <ele>125</ele>
        <time>2013-04-21T08:00:44Z</time>
      </trkpt>
      <trkpt lat="48.43424" lon="2.72607">
        <ele>125</ele>
        <time>2013-04-21T08:00:46Z</time>
      </trkpt>
      <trkpt lat="48.43426" lon="2.72607">
        <ele>125</ele>
        <time>2013-04-21T08:00:47Z</time>
      </trkpt>
      <trkpt lat="48.43427" lon="2.72608">
        <ele>125</ele>
        <time>2013-04-21T08:00:48Z</time>
      </trkpt>
      <trkpt lat="48.43432" lon="2.72612">
        <ele>124</ele>
        <time>2013-04-21T08:00:51Z</time>
      </trkpt>
      <trkpt lat="48.43434" lon="2.72612">
        <ele>124</ele>
        <time>2013-04-21T08:00:52Z</time>
      </trkpt>
      <trkpt lat="48.43441" lon="2.72612">
        <ele>124</ele>
        <time>2013-04-21T08:00:54Z</time>
      </trkpt>
      <trkpt lat="48.43445" lon="2.72613">
        <ele>123</ele>
        <time>2013-04-21T08:00:55Z</time>
      </trkpt>
      <trkpt lat="48.43449" lon="2.72615">
        <ele>123</ele>
        <time>2013-04-21T08:00:56Z</time>
      </trkpt>
      <trkpt lat="48.43452" lon="2.7262">
        <ele>123</ele>
        <time>2013-04-21T08:00:57Z</time>
      </trkpt>
      <trkpt lat="48.43455" lon="2.72625">
        <ele>123</ele>
        <time>2013-04-21T08:00:58Z</time>
      </trkpt>
      <trkpt lat="48.4346" lon="2.72628">
        <ele>122</ele>
        <time>2013-04-21T08:00:59Z</time>
      </trkpt>
      <trkpt lat="48.43463" lon="2.72634">
        <ele>122</ele>
        <time>2013-04-21T08:01:00Z</time>
      </trkpt>
      <trkpt lat="48.43466" lon="2.72641">
        <ele>122</ele>
        <time>2013-04-21T08:01:01Z</time>
      </trkpt>
      <trkpt lat="48.43469" lon="2.72648">
        <ele>122</ele>
        <time>2013-04-21T08:01:02Z</time>
      </trkpt>
      <trkpt lat="48.43472" lon="2.72652">
        <ele>121</ele>
        <time>2013-04-21T08:01:03Z</time>
      </trkpt>
      <trkpt lat="48.43481" lon="2.72658">
        <ele>120</ele>
        <time>2013-04-21T08:01:05Z</time>
      </trkpt>
      <trkpt lat="48.43489" lon="2.72661">
        <ele>119</ele>
        <time>2013-04-21T08:01:07Z</time>
      </trkpt>
      <trkpt lat="48.43491" lon="2.72664">
        <ele>119</ele>
        <time>2013-04-21T08:01:08Z</time>
      </trkpt>
      <trkpt lat="48.43512" lon="2.72679">
        <ele>115</ele>
        <time>2013-04-21T08:01:13Z</time>
      </trkpt>
      <trkpt lat="48.43516" lon="2.72681">
        <ele>115</ele>
        <time>2013-04-21T08:01:14Z</time>
      </trkpt>
      <trkpt lat="48.4352" lon="2.72684">
        <ele>114</ele>
        <time>2013-04-21T08:01:15Z</time>
      </trkpt>
      <trkpt lat="48.43526" lon="2.72694">
        <ele>114</ele>
        <time>2013-04-21T08:01:17Z</time>
      </trkpt>
      <trkpt lat="48.43529" lon="2.72697">
        <ele>113</ele>
        <time>2013-04-21T08:01:18Z</time>
      </trkpt>
      <trkpt lat="48.43532" lon="2.72705">
        <ele>113</ele>
        <time>2013-04-21T08:01:20Z</time>
      </trkpt>
      <trkpt lat="48.43535" lon="2.7271">
        <ele>113</ele>
        <time>2013-04-21T08:01:22Z</time>
      </trkpt>
      <trkpt lat="48.43536" lon="2.72712">
        <ele>113</ele>
        <time>2013-04-21T08:01:23Z</time>
      </trkpt>
      <trkpt lat="48.43538" lon="2.72713">
        <ele>113</ele>
        <time>2013-04-21T08:01:24Z</time>
      </trkpt>
      <trkpt lat="48.4354" lon="2.72714">
        <ele>113</ele>
        <time>2013-04-21T08:01:25Z</time>
      </trkpt>
      <trkpt lat="48.43543" lon="2.72713">
        <ele>113</ele>
        <time>2013-04-21T08:01:26Z</time>
      </trkpt>
      <trkpt lat="48.43546" lon="2.72714">
        <ele>112</ele>
        <time>2013-04-21T08:01:27Z</time>
      </trkpt>
      <trkpt lat="48.43548" lon="2.72717">
        <ele>112</ele>
        <time>2013-04-21T08:01:28Z</time>
      </trkpt>
      <trkpt lat="48.43549" lon="2.7272">
        <ele>112</ele>
        <time>2013-04-21T08:01:29Z</time>
      </trkpt>
      <trkpt lat="48.43552" lon="2.72736">
        <ele>112</ele>
        <time>2013-04-21T08:01:32Z</time>
      </trkpt>
      <trkpt lat="48.43554" lon="2.72739">
        <ele>112</ele>
        <time>2013-04-21T08:01:33Z</time>
      </trkpt>
      <trkpt lat="48.43557" lon="2.72742">
        <ele>111</ele>
        <time>2013-04-21T08:01:34Z</time>
      </trkpt>
      <trkpt lat="48.43565" lon="2.72745">
        <ele>111</ele>
        <time>2013-04-21T08:01:36Z</time>
      </trkpt>
      <trkpt lat="48.43586" lon="2.72762">
        <ele>107</ele>
        <time>2013-04-21T08:01:42Z</time>
      </trkpt>
      <trkpt lat="48.43587" lon="2.72762">
        <ele>107</ele>
        <time>2013-04-21T08:01:43Z</time>
      </trkpt>
      <trkpt lat="48.43587" lon="2.72763">
        <ele>107</ele>
        <time>2013-04-21T08:01:44Z</time>
      </trkpt>
      <trkpt lat="48.43588" lon="2.72763">
        <ele>107</ele>
        <time>2013-04-21T08:01:45Z</time>
      </trkpt>
      <trkpt lat="48.43588" lon="2.72763">
        <ele>107</ele>
        <time>2013-04-21T08:01:46Z</time>
      </trkpt>
      <trkpt lat="48.43589" lon="2.72763">
        <ele>107</ele>
        <time>2013-04-21T08:01:47Z</time>
      </trkpt>
      <trkpt lat="48.43589" lon="2.72763">
        <ele>107</ele>
        <time>2013-04-21T08:01:48Z</time>
      </trkpt>
      <trkpt lat="48.43589" lon="2.72764">
        <ele>107</ele>
        <time>2013-04-21T08:01:49Z</time>
      </trkpt>
      <trkpt lat="48.4359" lon="2.72764">
        <ele>107</ele>
        <time>2013-04-21T08:01:50Z</time>
      </trkpt>
      <trkpt lat="48.4359" lon="2.72764">
        <ele>107</ele>
        <time>2013-04-21T08:01:51Z</time>
      </trkpt>
      <trkpt lat="48.4359" lon="2.72764">
        <ele>107</ele>
        <time>2013-04-21T08:01:52Z</time>
      </trkpt>
      <trkpt lat="48.43591" lon="2.72764">
        <ele>107</ele>
        <time>2013-04-21T08:01:53Z</time>
      </trkpt>
      <trkpt lat="48.43591" lon="2.72764">
        <ele>107</ele>
        <time>2013-04-21T08:01:54Z</time>
      </trkpt>
      <trkpt lat="48.43591" lon="2.72764">
        <ele>107</ele>
        <time>2013-04-21T08:01:55Z</time>
      </trkpt>
      <trkpt lat="48.43591" lon="2.72765">
        <ele>107</ele>
        <time>2013-04-21T08:01:56Z</time>
      </trkpt>
      <trkpt lat="48.43592" lon="2.72765">
        <ele>107</ele>
        <time>2013-04-21T08:01:58Z</time>
      </trkpt>
      <trkpt lat="48.43592" lon="2.72765">
        <ele>107</ele>
        <time>2013-04-21T08:01:59Z</time>
      </trkpt>
      <trkpt lat="48.43592" lon="2.72765">
        <ele>107</ele>
        <time>2013-04-21T08:02:01Z</time>
      </trkpt>
      <trkpt lat="48.43592" lon="2.72766">
        <ele>107</ele>
        <time>2013-04-21T08:02:03Z</time>
      </trkpt>
      <trkpt lat="48.43594" lon="2.72767">
        <ele>107</ele>
        <time>2013-04-21T08:02:19Z</time>
      </trkpt>
      <trkpt lat="48.43595" lon="2.72767">
        <ele>107</ele>
        <time>2013-04-21T08:02:20Z</time>
      </trkpt>
      <trkpt lat="48.43595" lon="2.72768">
        <ele>107</ele>
        <time>2013-04-21T08:02:21Z</time>
      </trkpt>
      <trkpt lat="48.43595" lon="2.72768">
        <ele>107</ele>
        <time>2013-04-21T08:02:22Z</time>
      </trkpt>
      <trkpt lat="48.43596" lon="2.72768">
        <ele>107</ele>
        <time>2013-04-21T08:02:23Z</time>
      </trkpt>
      <trkpt lat="48.43596" lon="2.72768">
        <ele>107</ele>
        <time>2013-04-21T08:02:24Z</time>
      </trkpt>
      <trkpt lat="48.43597" lon="2.72768">
        <ele>107</ele>
        <time>2013-04-21T08:02:25Z</time>
      </trkpt>
      <trkpt lat="48.43597" lon="2.72768">
        <ele>107</ele>
        <time>2013-04-21T08:02:26Z</time>
      </trkpt>
      <trkpt lat="48.43598" lon="2.72768">
        <ele>107</ele>
        <time>2013-04-21T08:02:27Z</time>
      </trkpt>
      <trkpt lat="48.43598" lon="2.72769">
        <ele>107</ele>
        <time>2013-04-21T08:02:28Z</time>
      </trkpt>
      <trkpt lat="48.43599" lon="2.72769">
        <ele>107</ele>
        <time>2013-04-21T08:02:29Z</time>
      </trkpt>
      <trkpt lat="48.43599" lon="2.72769">
        <ele>107</ele>
        <time>2013-04-21T08:02:30Z</time>
      </trkpt>
      <trkpt lat="48.436" lon="2.72769">
        <ele>107</ele>
        <time>2013-04-21T08:02:31Z</time>
      </trkpt>
      <trkpt lat="48.43601" lon="2.72769">
        <ele>107</ele>
        <time>2013-04-21T08:02:32Z</time>
      </trkpt>
      <trkpt lat="48.43601" lon="2.72769">
        <ele>107</ele>
        <time>2013-04-21T08:02:33Z</time>
      </trkpt>
      <trkpt lat="48.43602" lon="2.7277">
        <ele>107</ele>
        <time>2013-04-21T08:02:34Z</time>
      </trkpt>
      <trkpt lat="48.43602" lon="2.7277">
        <ele>107</ele>
        <time>2013-04-21T08:02:35Z</time>
      </trkpt>
      <trkpt lat="48.43603" lon="2.7277">
        <ele>107</ele>
        <time>2013-04-21T08:02:36Z</time>
      </trkpt>
      <trkpt lat="48.43603" lon="2.7277">
        <ele>107</ele>
        <time>2013-04-21T08:02:37Z</time>
      </trkpt>
      <trkpt lat="48.43603" lon="2.7277">
        <ele>107</ele>
        <time>2013-04-21T08:02:38Z</time>
      </trkpt>
      <trkpt lat="48.43604" lon="2.7277">
        <ele>107</ele>
        <time>2013-04-21T08:02:39Z</time>
      </trkpt>
      <trkpt lat="48.43604" lon="2.72771">
        <ele>107</ele>
        <time>2013-04-21T08:02:40Z</time>
      </trkpt>
      <trkpt lat="48.43605" lon="2.72771">
        <ele>107</ele>
        <time>2013-04-21T08:02:41Z</time>
      </trkpt>
      <trkpt lat="48.43605" lon="2.72771">
        <ele>107</ele>
        <time>2013-04-21T08:02:42Z</time>
      </trkpt>
      <trkpt lat="48.43605" lon="2.72771">
        <ele>107</ele>
        <time>2013-04-21T08:02:43Z</time>
      </trkpt>
      <trkpt lat="48.43606" lon="2.72771">
        <ele>107</ele>
        <time>2013-04-21T08:02:44Z</time>
      </trkpt>
      <trkpt lat="48.43606" lon="2.72771">
        <ele>107</ele>
        <time>2013-04-21T08:02:45Z</time>
      </trkpt>
      <trkpt lat="48.43606" lon="2.72771">
        <ele>107</ele>
        <time>2013-04-21T08:02:46Z</time>
      </trkpt>
      <trkpt lat="48.43607" lon="2.72771">
        <ele>107</ele>
        <time>2013-04-21T08:02:47Z</time>
      </trkpt>
      <trkpt lat="48.43607" lon="2.72771">
        <ele>107</ele>
        <time>2013-04-21T08:02:48Z</time>
      </trkpt>
      <trkpt lat="48.43607" lon="2.72771">
        <ele>107</ele>
        <time>2013-04-21T08:02:49Z</time>
      </trkpt>
      <trkpt lat="48.43607" lon="2.72772">
        <ele>107</ele>
        <time>2013-04-21T08:02:50Z</time>
      </trkpt>
      <trkpt lat="48.43608" lon="2.72772">
        <ele>107</ele>
        <time>2013-04-21T08:02:51Z</time>
      </trkpt>
      <trkpt lat="48.43608" lon="2.72772">
        <ele>107</ele>
        <time>2013-04-21T08:02:52Z</time>
      </trkpt>
      <trkpt lat="48.43608" lon="2.72772">
        <ele>107</ele>
        <time>2013-04-21T08:02:53Z</time>
      </trkpt>
      <trkpt lat="48.43608" lon="2.72772">
        <ele>107</ele>
        <time>2013-04-21T08:02:54Z</time>
      </trkpt>
      <trkpt lat="48.43608" lon="2.72772">
        <ele>107</ele>
        <time>2013-04-21T08:02:55Z</time>
      </trkpt>
      <trkpt lat="48.43608" lon="2.72772">
        <ele>107</ele>
        <time>2013-04-21T08:02:56Z</time>
      </trkpt>
      <trkpt lat="48.43609" lon="2.72772">
        <ele>107</ele>
        <time>2013-04-21T08:02:57Z</time>
      </trkpt>
      <trkpt lat="48.43609" lon="2.72772">
        <ele>107</ele>
        <time>2013-04-21T08:02:58Z</time>
      </trkpt>
      <trkpt lat="48.43609" lon="2.72772">
        <ele>107</ele>
        <time>2013-04-21T08:02:59Z</time>
      </trkpt>
      <trkpt lat="48.43609" lon="2.72772">
        <ele>107</ele>
        <time>2013-04-21T08:03:00Z</time>
      </trkpt>
      <trkpt lat="48.43609" lon="2.72772">
        <ele>107</ele>
        <time>2013-04-21T08:03:01Z</time>
      </trkpt>
      <trkpt lat="48.4361" lon="2.72772">
        <ele>107</ele>
        <time>2013-04-21T08:03:02Z</time>
      </trkpt>
      <trkpt lat="48.4361" lon="2.72772">
        <ele>107</ele>
        <time>2013-04-21T08:03:03Z</time>
      </trkpt>
      <trkpt lat="48.4361" lon="2.72772">
        <ele>107</ele>
        <time>2013-04-21T08:03:04Z</time>
      </trkpt>
      <trkpt lat="48.4361" lon="2.72773">
        <ele>107</ele>
        <time>2013-04-21T08:03:05Z</time>
      </trkpt>
      <trkpt lat="48.43611" lon="2.72773">
        <ele>107</ele>
        <time>2013-04-21T08:03:06Z</time>
      </trkpt>
      <trkpt lat="48.43611" lon="2.72772">
        <ele>107</ele>
        <time>2013-04-21T08:03:07Z</time>
      </trkpt>
      <trkpt lat="48.43612" lon="2.72772">
        <ele>107</ele>
        <time>2013-04-21T08:03:08Z</time>
      </trkpt>
      <trkpt lat="48.43612" lon="2.72772">
        <ele>107</ele>
        <time>2013-04-21T08:03:09Z</time>
      </trkpt>
      <trkpt lat="48.43613" lon="2.72772">
        <ele>107</ele>
        <time>2013-04-21T08:03:10Z</time>
      </trkpt>
      <trkpt lat="48.43613" lon="2.72771">
        <ele>107</ele>
        <time>2013-04-21T08:03:11Z</time>
      </trkpt>
      <trkpt lat="48.43614" lon="2.72769">
        <ele>107</ele>
        <time>2013-04-21T08:03:12Z</time>
      </trkpt>
      <trkpt lat="48.43615" lon="2.72768">
        <ele>107</ele>
        <time>2013-04-21T08:03:13Z</time>
      </trkpt>
      <trkpt lat="48.43621" lon="2.72767">
        <ele>107</ele>
        <time>2013-04-21T08:03:16Z</time>
      </trkpt>
      <trkpt lat="48.43623" lon="2.72768">
        <ele>107</ele>
        <time>2013-04-21T08:03:17Z</time>
      </trkpt>
      <trkpt lat="48.43635" lon="2.72773">
        <ele>107</ele>
        <time>2013-04-21T08:03:21Z</time>
      </trkpt>
      <trkpt lat="48.4366" lon="2.72789">
        <ele>107</ele>
        <time>2013-04-21T08:03:34Z</time>
      </trkpt>
      <trkpt lat="48.4367" lon="2.72797">
        <ele>105</ele>
        <time>2013-04-21T08:03:40Z</time>
      </trkpt>
      <trkpt lat="48.43674" lon="2.72799">
        <ele>104</ele>
        <time>2013-04-21T08:03:42Z</time>
      </trkpt>
      <trkpt lat="48.43684" lon="2.728">
        <ele>104</ele>
        <time>2013-04-21T08:03:47Z</time>
      </trkpt>
      <trkpt lat="48.43686" lon="2.72799">
        <ele>104</ele>
        <time>2013-04-21T08:03:48Z</time>
      </trkpt>
      <trkpt lat="48.43688" lon="2.72798">
        <ele>104</ele>
        <time>2013-04-21T08:03:49Z</time>
      </trkpt>
      <trkpt lat="48.43689" lon="2.72795">
        <ele>104</ele>
        <time>2013-04-21T08:03:50Z</time>
      </trkpt>
      <trkpt lat="48.43695" lon="2.72779">
        <ele>104</ele>
        <time>2013-04-21T08:03:55Z</time>
      </trkpt>
      <trkpt lat="48.43698" lon="2.72775">
        <ele>104</ele>
        <time>2013-04-21T08:03:57Z</time>
      </trkpt>
      <trkpt lat="48.43699" lon="2.72773">
        <ele>104</ele>
        <time>2013-04-21T08:03:58Z</time>
      </trkpt>
      <trkpt lat="48.43699" lon="2.7277">
        <ele>104</ele>
        <time>2013-04-21T08:03:59Z</time>
      </trkpt>
      <trkpt lat="48.437" lon="2.72768">
        <ele>104</ele>
        <time>2013-04-21T08:04:00Z</time>
      </trkpt>
      <trkpt lat="48.43701" lon="2.72763">
        <ele>104</ele>
        <time>2013-04-21T08:04:02Z</time>
      </trkpt>
      <trkpt lat="48.43702" lon="2.72759">
        <ele>104</ele>
        <time>2013-04-21T08:04:04Z</time>
      </trkpt>
      <trkpt lat="48.43703" lon="2.72757">
        <ele>104</ele>
        <time>2013-04-21T08:04:05Z</time>
      </trkpt>
      <trkpt lat="48.43703" lon="2.72755">
        <ele>104</ele>
        <time>2013-04-21T08:04:06Z</time>
      </trkpt>
      <trkpt lat="48.43701" lon="2.72752">
        <ele>104</ele>
        <time>2013-04-21T08:04:08Z</time>
      </trkpt>
      <trkpt lat="48.437" lon="2.7275">
        <ele>106</ele>
        <time>2013-04-21T08:04:09Z</time>
      </trkpt>
      <trkpt lat="48.437" lon="2.72747">
        <ele>106</ele>
        <time>2013-04-21T08:04:10Z</time>
      </trkpt>
      <trkpt lat="48.43701" lon="2.72737">
        <ele>106</ele>
        <time>2013-04-21T08:04:14Z</time>
      </trkpt>
      <trkpt lat="48.43701" lon="2.72735">
        <ele>106</ele>
        <time>2013-04-21T08:04:15Z</time>
      </trkpt>
      <trkpt lat="48.43702" lon="2.72734">
        <ele>106</ele>
        <time>2013-04-21T08:04:16Z</time>
      </trkpt>
      <trkpt lat="48.43703" lon="2.72731">
        <ele>106</ele>
        <time>2013-04-21T08:04:18Z</time>
      </trkpt>
      <trkpt lat="48.43705" lon="2.72727">
        <ele>106</ele>
        <time>2013-04-21T08:04:20Z</time>
      </trkpt>
      <trkpt lat="48.43704" lon="2.72723">
        <ele>106</ele>
        <time>2013-04-21T08:04:22Z</time>
      </trkpt>
      <trkpt lat="48.43705" lon="2.72722">
        <ele>106</ele>
        <time>2013-04-21T08:04:23Z</time>
      </trkpt>
      <trkpt lat="48.43708" lon="2.72718">
        <ele>106</ele>
        <time>2013-04-21T08:04:26Z</time>
      </trkpt>
      <trkpt lat="48.4371" lon="2.72714">
        <ele>106</ele>
        <time>2013-04-21T08:04:29Z</time>
      </trkpt>
      <trkpt lat="48.43712" lon="2.7271">
        <ele>106</ele>
        <time>2013-04-21T08:04:32Z</time>
      </trkpt>
      <trkpt lat="48.43712" lon="2.72709">
        <ele>106</ele>
        <time>2013-04-21T08:04:33Z</time>
      </trkpt>
      <trkpt lat="48.43714" lon="2.72699">
        <ele>106</ele>
        <time>2013-04-21T08:04:36Z</time>
      </trkpt>
      <trkpt lat="48.43715" lon="2.72694">
        <ele>106</ele>
        <time>2013-04-21T08:04:37Z</time>
      </trkpt>
      <trkpt lat="48.43716" lon="2.72691">
        <ele>106</ele>
        <time>2013-04-21T08:04:38Z</time>
      </trkpt>
      <trkpt lat="48.43719" lon="2.72688">
        <ele>106</ele>
        <time>2013-04-21T08:04:39Z</time>
      </trkpt>
      <trkpt lat="48.43721" lon="2.72684">
        <ele>106</ele>
        <time>2013-04-21T08:04:40Z</time>
      </trkpt>
      <trkpt lat="48.43722" lon="2.7268">
        <ele>106</ele>
        <time>2013-04-21T08:04:41Z</time>
      </trkpt>
      <trkpt lat="48.43721" lon="2.72675">
        <ele>106</ele>
        <time>2013-04-21T08:04:43Z</time>
      </trkpt>
      <trkpt lat="48.4372" lon="2.72674">
        <ele>106</ele>
        <time>2013-04-21T08:04:44Z</time>
      </trkpt>
      <trkpt lat="48.43719" lon="2.72673">
        <ele>106</ele>
        <time>2013-04-21T08:04:45Z</time>
      </trkpt>
      <trkpt lat="48.43717" lon="2.72672">
        <ele>106</ele>
        <time>2013-04-21T08:04:47Z</time>
      </trkpt>
      <trkpt lat="48.43716" lon="2.72668">
        <ele>107</ele>
        <time>2013-04-21T08:04:49Z</time>
      </trkpt>
      <trkpt lat="48.43715" lon="2.72665">
        <ele>108</ele>
        <time>2013-04-21T08:04:50Z</time>
      </trkpt>
      <trkpt lat="48.43715" lon="2.72656">
        <ele>108</ele>
        <time>2013-04-21T08:04:53Z</time>
      </trkpt>
      <trkpt lat="48.43713" lon="2.72648">
        <ele>108</ele>
        <time>2013-04-21T08:04:55Z</time>
      </trkpt>
      <trkpt lat="48.43713" lon="2.72645">
        <ele>108</ele>
        <time>2013-04-21T08:04:56Z</time>
      </trkpt>
      <trkpt lat="48.43713" lon="2.72637">
        <ele>108</ele>
        <time>2013-04-21T08:04:58Z</time>
      </trkpt>
      <trkpt lat="48.43716" lon="2.72627">
        <ele>108</ele>
        <time>2013-04-21T08:05:01Z</time>
      </trkpt>
      <trkpt lat="48.43716" lon="2.72617">
        <ele>108</ele>
        <time>2013-04-21T08:05:04Z</time>
      </trkpt>
      <trkpt lat="48.43717" lon="2.72611">
        <ele>108</ele>
        <time>2013-04-21T08:05:06Z</time>
      </trkpt>
      <trkpt lat="48.43717" lon="2.72609">
        <ele>108</ele>
        <time>2013-04-21T08:05:07Z</time>
      </trkpt>
      <trkpt lat="48.43717" lon="2.72606">
        <ele>108</ele>
        <time>2013-04-21T08:05:08Z</time>
      </trkpt>
      <trkpt lat="48.43716" lon="2.72603">
        <ele>108</ele>
        <time>2013-04-21T08:05:09Z</time>
      </trkpt>
      <trkpt lat="48.43716" lon="2.726">
        <ele>108</ele>
        <time>2013-04-21T08:05:10Z</time>
      </trkpt>
      <trkpt lat="48.43716" lon="2.72597">
        <ele>108</ele>
        <time>2013-04-21T08:05:11Z</time>
      </trkpt>
      <trkpt lat="48.43721" lon="2.72588">
        <ele>108</ele>
        <time>2013-04-21T08:05:15Z</time>
      </trkpt>
      <trkpt lat="48.43722" lon="2.72586">
        <ele>108</ele>
        <time>2013-04-21T08:05:16Z</time>
      </trkpt>
      <trkpt lat="48.43722" lon="2.72585">
        <ele>108</ele>
        <time>2013-04-21T08:05:17Z</time>
      </trkpt>
      <trkpt lat="48.43723" lon="2.72583">
        <ele>108</ele>
        <time>2013-04-21T08:05:18Z</time>
      </trkpt>
      <trkpt lat="48.43723" lon="2.7258">
        <ele>108</ele>
        <time>2013-04-21T08:05:19Z</time>
      </trkpt>
      <trkpt lat="48.43722" lon="2.72577">
        <ele>108</ele>
        <time>2013-04-21T08:05:20Z</time>
      </trkpt>
      <trkpt lat="48.43723" lon="2.72574">
        <ele>108</ele>
        <time>2013-04-21T08:05:21Z</time>
      </trkpt>
      <trkpt lat="48.43725" lon="2.72571">
        <ele>108</ele>
        <time>2013-04-21T08:05:22Z</time>
      </trkpt>
      <trkpt lat="48.43725" lon="2.72569">
        <ele>108</ele>
        <time>2013-04-21T08:05:23Z</time>
      </trkpt>
      <trkpt lat="48.43726" lon="2.72566">
        <ele>108</ele>
        <time>2013-04-21T08:05:24Z</time>
      </trkpt>
      <trkpt lat="48.43727" lon="2.72565">
        <ele>108</ele>
        <time>2013-04-21T08:05:25Z</time>
      </trkpt>
      <trkpt lat="48.43732" lon="2.72563">
        <ele>108</ele>
        <time>2013-04-21T08:05:27Z</time>
      </trkpt>
      <trkpt lat="48.43734" lon="2.72561">
        <ele>108</ele>
        <time>2013-04-21T08:05:28Z</time>
      </trkpt>
      <trkpt lat="48.43742" lon="2.72553">
        <ele>108</ele>
        <time>2013-04-21T08:05:31Z</time>
      </trkpt>
      <trkpt lat="48.43744" lon="2.72553">
        <ele>108</ele>
        <time>2013-04-21T08:05:32Z</time>
      </trkpt>
      <trkpt lat="48.43749" lon="2.72547">
        <ele>108</ele>
        <time>2013-04-21T08:05:35Z</time>
      </trkpt>
      <trkpt lat="48.43753" lon="2.72542">
        <ele>105</ele>
        <time>2013-04-21T08:05:37Z</time>
      </trkpt>
      <trkpt lat="48.43754" lon="2.72539">
        <ele>105</ele>
        <time>2013-04-21T08:05:38Z</time>
      </trkpt>
      <trkpt lat="48.43755" lon="2.72536">
        <ele>105</ele>
        <time>2013-04-21T08:05:39Z</time>
      </trkpt>
      <trkpt lat="48.43755" lon="2.72533">
        <ele>105</ele>
        <time>2013-04-21T08:05:40Z</time>
      </trkpt>
      <trkpt lat="48.43757" lon="2.72523">
        <ele>105</ele>
        <time>2013-04-21T08:05:43Z</time>
      </trkpt>
      <trkpt lat="48.4376" lon="2.72515">
        <ele>106</ele>
        <time>2013-04-21T08:05:45Z</time>
      </trkpt>
      <trkpt lat="48.4376" lon="2.72506">
        <ele>106</ele>
        <time>2013-04-21T08:05:47Z</time>
      </trkpt>
      <trkpt lat="48.43761" lon="2.72501">
        <ele>106</ele>
        <time>2013-04-21T08:05:48Z</time>
      </trkpt>
      <trkpt lat="48.43764" lon="2.72498">
        <ele>107</ele>
        <time>2013-04-21T08:05:49Z</time>
      </trkpt>
      <trkpt lat="48.43767" lon="2.72497">
        <ele>107</ele>
        <time>2013-04-21T08:05:50Z</time>
      </trkpt>
      <trkpt lat="48.4377" lon="2.72498">
        <ele>106</ele>
        <time>2013-04-21T08:05:51Z</time>
      </trkpt>
      <trkpt lat="48.43772" lon="2.72498">
        <ele>106</ele>
        <time>2013-04-21T08:05:52Z</time>
      </trkpt>
      <trkpt lat="48.43774" lon="2.72496">
        <ele>106</ele>
        <time>2013-04-21T08:05:53Z</time>
      </trkpt>
      <trkpt lat="48.43775" lon="2.72493">
        <ele>106</ele>
        <time>2013-04-21T08:05:54Z</time>
      </trkpt>
      <trkpt lat="48.43774" lon="2.72488">
        <ele>106</ele>
        <time>2013-04-21T08:05:56Z</time>
      </trkpt>
      <trkpt lat="48.43773" lon="2.72485">
        <ele>106</ele>
        <time>2013-04-21T08:05:57Z</time>
      </trkpt>
      <trkpt lat="48.43772" lon="2.72482">
        <ele>106</ele>
        <time>2013-04-21T08:05:58Z</time>
      </trkpt>
      <trkpt lat="48.43772" lon="2.7248">
        <ele>106</ele>
        <time>2013-04-21T08:05:59Z</time>
      </trkpt>
      <trkpt lat="48.43773" lon="2.72479">
        <ele>106</ele>
        <time>2013-04-21T08:06:00Z</time>
      </trkpt>
      <trkpt lat="48.43773" lon="2.72477">
        <ele>106</ele>
        <time>2013-04-21T08:06:01Z</time>
      </trkpt>
      <trkpt lat="48.43774" lon="2.72476">
        <ele>106</ele>
        <time>2013-04-21T08:06:02Z</time>
      </trkpt>
      <trkpt lat="48.43772" lon="2.72459">
        <ele>106</ele>
        <time>2013-04-21T08:06:07Z</time>
      </trkpt>
      <trkpt lat="48.4377" lon="2.72451">
        <ele>106</ele>
        <time>2013-04-21T08:06:09Z</time>
      </trkpt>
      <trkpt lat="48.43771" lon="2.7243">
        <ele>106</ele>
        <time>2013-04-21T08:06:14Z</time>
      </trkpt>
      <trkpt lat="48.43769" lon="2.72417">
        <ele>107</ele>
        <time>2013-04-21T08:06:17Z</time>
      </trkpt>
      <trkpt lat="48.4377" lon="2.72407">
        <ele>107</ele>
        <time>2013-04-21T08:06:19Z</time>
      </trkpt>
      <trkpt lat="48.4377" lon="2.72392">
        <ele>107</ele>
        <time>2013-04-21T08:06:22Z</time>
      </trkpt>
      <trkpt lat="48.4377" lon="2.72384">
        <ele>107</ele>
        <time>2013-04-21T08:06:24Z</time>
      </trkpt>
      <trkpt lat="48.43769" lon="2.72374">
        <ele>107</ele>
        <time>2013-04-21T08:06:26Z</time>
      </trkpt>
      <trkpt lat="48.43769" lon="2.72369">
        <ele>107</ele>
        <time>2013-04-21T08:06:27Z</time>
      </trkpt>
      <trkpt lat="48.43771" lon="2.72364">
        <ele>106</ele>
        <time>2013-04-21T08:06:28Z</time>
      </trkpt>
      <trkpt lat="48.43774" lon="2.7236">
        <ele>106</ele>
        <time>2013-04-21T08:06:29Z</time>
      </trkpt>
      <trkpt lat="48.43775" lon="2.72356">
        <ele>106</ele>
        <time>2013-04-21T08:06:30Z</time>
      </trkpt>
      <trkpt lat="48.43776" lon="2.72352">
        <ele>106</ele>
        <time>2013-04-21T08:06:31Z</time>
      </trkpt>
      <trkpt lat="48.43776" lon="2.72348">
        <ele>107</ele>
        <time>2013-04-21T08:06:32Z</time>
      </trkpt>
      <trkpt lat="48.43775" lon="2.72345">
        <ele>107</ele>
        <time>2013-04-21T08:06:33Z</time>
      </trkpt>
      <trkpt lat="48.43774" lon="2.72342">
        <ele>107</ele>
        <time>2013-04-21T08:06:35Z</time>
      </trkpt>
      <trkpt lat="48.43773" lon="2.72341">
        <ele>107</ele>
        <time>2013-04-21T08:06:36Z</time>
      </trkpt>
      <trkpt lat="48.43772" lon="2.72341">
        <ele>107</ele>
        <time>2013-04-21T08:06:37Z</time>
      </trkpt>
      <trkpt lat="48.43773" lon="2.72341">
        <ele>107</ele>
        <time>2013-04-21T08:06:38Z</time>
      </trkpt>
      <trkpt lat="48.43774" lon="2.72342">
        <ele>107</ele>
        <time>2013-04-21T08:06:40Z</time>
      </trkpt>
      <trkpt lat="48.43775" lon="2.72341">
        <ele>107</ele>
        <time>2013-04-21T08:06:41Z</time>
      </trkpt>
      <trkpt lat="48.43776" lon="2.7234">
        <ele>107</ele>
        <time>2013-04-21T08:06:42Z</time>
      </trkpt>
      <trkpt lat="48.43778" lon="2.72338">
        <ele>107</ele>
        <time>2013-04-21T08:06:43Z</time>
      </trkpt>
      <trkpt lat="48.43779" lon="2.72338">
        <ele>106</ele>
        <time>2013-04-21T08:06:44Z</time>
      </trkpt>
      <trkpt lat="48.43783" lon="2.72337">
        <ele>106</ele>
        <time>2013-04-21T08:06:46Z</time>
      </trkpt>
      <trkpt lat="48.43785" lon="2.72338">
        <ele>106</ele>
        <time>2013-04-21T08:06:47Z</time>
      </trkpt>
      <trkpt lat="48.43786" lon="2.72341">
        <ele>106</ele>
        <time>2013-04-21T08:06:48Z</time>
      </trkpt>
      <trkpt lat="48.43788" lon="2.72344">
        <ele>106</ele>
        <time>2013-04-21T08:06:49Z</time>
      </trkpt>
      <trkpt lat="48.43792" lon="2.72345">
        <ele>106</ele>
        <time>2013-04-21T08:06:50Z</time>
      </trkpt>
      <trkpt lat="48.43802" lon="2.7235">
        <ele>106</ele>
        <time>2013-04-21T08:06:52Z</time>
      </trkpt>
      <trkpt lat="48.43808" lon="2.7235">
        <ele>106</ele>
        <time>2013-04-21T08:06:53Z</time>
      </trkpt>
      <trkpt lat="48.43812" lon="2.7235">
        <ele>105</ele>
        <time>2013-04-21T08:06:54Z</time>
      </trkpt>
      <trkpt lat="48.43815" lon="2.72353">
        <ele>105</ele>
        <time>2013-04-21T08:06:55Z</time>
      </trkpt>
      <trkpt lat="48.43822" lon="2.72357">
        <ele>105</ele>
        <time>2013-04-21T08:06:57Z</time>
      </trkpt>
      <trkpt lat="48.43827" lon="2.7236">
        <ele>105</ele>
        <time>2013-04-21T08:06:58Z</time>
      </trkpt>
      <trkpt lat="48.43836" lon="2.72363">
        <ele>101</ele>
        <time>2013-04-21T08:07:00Z</time>
      </trkpt>
      <trkpt lat="48.43839" lon="2.72366">
        <ele>101</ele>
        <time>2013-04-21T08:07:01Z</time>
      </trkpt>
      <trkpt lat="48.43842" lon="2.72369">
        <ele>101</ele>
        <time>2013-04-21T08:07:02Z</time>
      </trkpt>
      <trkpt lat="48.43848" lon="2.7237">
        <ele>101</ele>
        <time>2013-04-21T08:07:04Z</time>
      </trkpt>
      <trkpt lat="48.43853" lon="2.72372">
        <ele>101</ele>
        <time>2013-04-21T08:07:06Z</time>
      </trkpt>
      <trkpt lat="48.43854" lon="2.72372">
        <ele>101</ele>
        <time>2013-04-21T08:07:07Z</time>
      </trkpt>
      <trkpt lat="48.43855" lon="2.72371">
        <ele>101</ele>
        <time>2013-04-21T08:07:08Z</time>
      </trkpt>
      <trkpt lat="48.43857" lon="2.7237">
        <ele>100</ele>
        <time>2013-04-21T08:07:10Z</time>
      </trkpt>
      <trkpt lat="48.4386" lon="2.72369">
        <ele>100</ele>
        <time>2013-04-21T08:07:12Z</time>
      </trkpt>
      <trkpt lat="48.43863" lon="2.72367">
        <ele>100</ele>
        <time>2013-04-21T08:07:13Z</time>
      </trkpt>
      <trkpt lat="48.43866" lon="2.72367">
        <ele>100</ele>
        <time>2013-04-21T08:07:14Z</time>
      </trkpt>
      <trkpt lat="48.43869" lon="2.72368">
        <ele>100</ele>
        <time>2013-04-21T08:07:15Z</time>
      </trkpt>
      <trkpt lat="48.43873" lon="2.72368">
        <ele>100</ele>
        <time>2013-04-21T08:07:16Z</time>
      </trkpt>
      <trkpt lat="48.43877" lon="2.72367">
        <ele>99</ele>
        <time>2013-04-21T08:07:17Z</time>
      </trkpt>
      <trkpt lat="48.43884" lon="2.72359">
        <ele>99</ele>
        <time>2013-04-21T08:07:20Z</time>
      </trkpt>
      <trkpt lat="48.43887" lon="2.72357">
        <ele>99</ele>
        <time>2013-04-21T08:07:21Z</time>
      </trkpt>
      <trkpt lat="48.43889" lon="2.72357">
        <ele>99</ele>
        <time>2013-04-21T08:07:22Z</time>
      </trkpt>
      <trkpt lat="48.43892" lon="2.72359">
        <ele>99</ele>
        <time>2013-04-21T08:07:24Z</time>
      </trkpt>
      <trkpt lat="48.43897" lon="2.72362">
        <ele>98</ele>
        <time>2013-04-21T08:07:26Z</time>
      </trkpt>
      <trkpt lat="48.439" lon="2.72364">
        <ele>98</ele>
        <time>2013-04-21T08:07:27Z</time>
      </trkpt>
      <trkpt lat="48.43908" lon="2.72371">
        <ele>98</ele>
        <time>2013-04-21T08:07:29Z</time>
      </trkpt>
      <trkpt lat="48.43911" lon="2.72377">
        <ele>98</ele>
        <time>2013-04-21T08:07:30Z</time>
      </trkpt>
      <trkpt lat="48.43923" lon="2.72405">
        <ele>93</ele>
        <time>2013-04-21T08:07:35Z</time>
      </trkpt>
      <trkpt lat="48.43929" lon="2.72412">
        <ele>93</ele>
        <time>2013-04-21T08:07:37Z</time>
      </trkpt>
      <trkpt lat="48.43931" lon="2.72418">
        <ele>93</ele>
        <time>2013-04-21T08:07:38Z</time>
      </trkpt>
      <trkpt lat="48.43935" lon="2.7244">
        <ele>92</ele>
        <time>2013-04-21T08:07:41Z</time>
      </trkpt>
      <trkpt lat="48.43938" lon="2.72446">
        <ele>92</ele>
        <time>2013-04-21T08:07:42Z</time>
      </trkpt>
      <trkpt lat="48.43941" lon="2.72449">
        <ele>92</ele>
        <time>2013-04-21T08:07:43Z</time>
      </trkpt>
      <trkpt lat="48.43944" lon="2.72451">
        <ele>92</ele>
        <time>2013-04-21T08:07:44Z</time>
      </trkpt>
      <trkpt lat="48.43947" lon="2.72456">
        <ele>92</ele>
        <time>2013-04-21T08:07:45Z</time>
      </trkpt>
      <trkpt lat="48.4395" lon="2.72462">
        <ele>91</ele>
        <time>2013-04-21T08:07:46Z</time>
      </trkpt>
      <trkpt lat="48.43975" lon="2.72536">
        <ele>91</ele>
        <time>2013-04-21T08:07:56Z</time>
      </trkpt>
      <trkpt lat="48.43977" lon="2.72545">
        <ele>91</ele>
        <time>2013-04-21T08:07:57Z</time>
      </trkpt>
      <trkpt lat="48.43983" lon="2.72576">
        <ele>91</ele>
        <time>2013-04-21T08:08:01Z</time>
      </trkpt>
      <trkpt lat="48.4399" lon="2.72596">
        <ele>92</ele>
        <time>2013-04-21T08:08:04Z</time>
      </trkpt>
      <trkpt lat="48.4399" lon="2.72602">
        <ele>92</ele>
        <time>2013-04-21T08:08:05Z</time>
      </trkpt>
      <trkpt lat="48.43991" lon="2.72624">
        <ele>93</ele>
        <time>2013-04-21T08:08:09Z</time>
      </trkpt>
      <trkpt lat="48.43992" lon="2.72627">
        <ele>93</ele>
        <time>2013-04-21T08:08:10Z</time>
      </trkpt>
      <trkpt lat="48.43991" lon="2.72638">
        <ele>93</ele>
        <time>2013-04-21T08:08:13Z</time>
      </trkpt>
      <trkpt lat="48.4399" lon="2.72646">
        <ele>93</ele>
        <time>2013-04-21T08:08:15Z</time>
      </trkpt>
      <trkpt lat="48.43778" lon="2.73126">
        <ele>95</ele>
        <time>2013-04-21T08:09:43Z</time>
      </trkpt>
      <trkpt lat="48.43776" lon="2.73129">
        <ele>95</ele>
        <time>2013-04-21T08:09:44Z</time>
      </trkpt>
      <trkpt lat="48.43772" lon="2.73132">
        <ele>95</ele>
        <time>2013-04-21T08:09:46Z</time>
      </trkpt>
      <trkpt lat="48.43771" lon="2.73133">
        <ele>95</ele>
        <time>2013-04-21T08:09:47Z</time>
      </trkpt>
      <trkpt lat="48.4377" lon="2.73134">
        <ele>95</ele>
        <time>2013-04-21T08:09:48Z</time>
      </trkpt>
      <trkpt lat="48.4377" lon="2.73134">
        <ele>95</ele>
        <time>2013-04-21T08:09:49Z</time>
      </trkpt>
      <trkpt lat="48.4377" lon="2.73135">
        <ele>95</ele>
        <time>2013-04-21T08:09:50Z</time>
      </trkpt>
      <trkpt lat="48.4377" lon="2.73135">
        <ele>95</ele>
        <time>2013-04-21T08:09:51Z</time>
      </trkpt>
      <trkpt lat="48.43769" lon="2.73136">
        <ele>95</ele>
        <time>2013-04-21T08:09:52Z</time>
      </trkpt>
      <trkpt lat="48.43769" lon="2.73136">
        <ele>95</ele>
        <time>2013-04-21T08:09:53Z</time>
      </trkpt>
      <trkpt lat="48.43769" lon="2.73136">
        <ele>95</ele>
        <time>2013-04-21T08:09:54Z</time>
      </trkpt>
      <trkpt lat="48.43769" lon="2.73136">
        <ele>95</ele>
        <time>2013-04-21T08:09:55Z</time>
      </trkpt>
      <trkpt lat="48.43767" lon="2.73136">
        <ele>95</ele>
        <time>2013-04-21T08:09:56Z</time>
      </trkpt>
      <trkpt lat="48.43766" lon="2.73135">
        <ele>95</ele>
        <time>2013-04-21T08:09:57Z</time>
      </trkpt>
      <trkpt lat="48.43761" lon="2.73128">
        <ele>95</ele>
        <time>2013-04-21T08:10:00Z</time>
      </trkpt>
      <trkpt lat="48.43759" lon="2.73126">
        <ele>95</ele>
        <time>2013-04-21T08:10:01Z</time>
      </trkpt>
      <trkpt lat="48.43753" lon="2.73123">
        <ele>94</ele>
        <time>2013-04-21T08:10:03Z</time>
      </trkpt>
      <trkpt lat="48.43651" lon="2.73016">
        <ele>98</ele>
        <time>2013-04-21T08:10:39Z</time>
      </trkpt>
      <trkpt lat="48.43644" lon="2.73006">
        <ele>98</ele>
        <time>2013-04-21T08:10:41Z</time>
      </trkpt>
      <trkpt lat="48.43586" lon="2.72939">
        <ele>101</ele>
        <time>2013-04-21T08:10:57Z</time>
      </trkpt>
      <trkpt lat="48.43584" lon="2.72936">
        <ele>101</ele>
        <time>2013-04-21T08:10:58Z</time>
      </trkpt>
      <trkpt lat="48.43571" lon="2.72918">
        <ele>103</ele>
        <time>2013-04-21T08:11:05Z</time>
      </trkpt>
      <trkpt lat="48.43536" lon="2.72886">
        <ele>106</ele>
        <time>2013-04-21T08:11:19Z</time>
      </trkpt>
      <trkpt lat="48.43533" lon="2.72883">
        <ele>107</ele>
        <time>2013-04-21T08:11:20Z</time>
      </trkpt>
      <trkpt lat="48.43525" lon="2.72869">
        <ele>107</ele>
        <time>2013-04-21T08:11:25Z</time>
      </trkpt>
      <trkpt lat="48.43499" lon="2.72842">
        <ele>112</ele>
        <time>2013-04-21T08:11:39Z</time>
      </trkpt>
      <trkpt lat="48.4349" lon="2.72835">
        <ele>112</ele>
        <time>2013-04-21T08:11:44Z</time>
      </trkpt>
      <trkpt lat="48.43485" lon="2.72831">
        <ele>114</ele>
        <time>2013-04-21T08:11:47Z</time>
      </trkpt>
      <trkpt lat="48.43482" lon="2.72828">
        <ele>114</ele>
        <time>2013-04-21T08:11:49Z</time>
      </trkpt>
      <trkpt lat="48.43481" lon="2.72827">
        <ele>114</ele>
        <time>2013-04-21T08:11:50Z</time>
      </trkpt>
      <trkpt lat="48.43453" lon="2.72809">
        <ele>117</ele>
        <time>2013-04-21T08:12:08Z</time>
      </trkpt>
      <trkpt lat="48.43452" lon="2.72808">
        <ele>117</ele>
        <time>2013-04-21T08:12:09Z</time>
      </trkpt>
      <trkpt lat="48.4345" lon="2.72807">
        <ele>117</ele>
        <time>2013-04-21T08:12:10Z</time>
      </trkpt>
      <trkpt lat="48.43446" lon="2.72801">
        <ele>117</ele>
        <time>2013-04-21T08:12:14Z</time>
      </trkpt>
      <trkpt lat="48.43444" lon="2.728">
        <ele>117</ele>
        <time>2013-04-21T08:12:15Z</time>
      </trkpt>
      <trkpt lat="48.43442" lon="2.72798">
        <ele>117</ele>
        <time>2013-04-21T08:12:17Z</time>
      </trkpt>
      <trkpt lat="48.43441" lon="2.72796">
        <ele>117</ele>
        <time>2013-04-21T08:12:18Z</time>
      </trkpt>
      <trkpt lat="48.4344" lon="2.72795">
        <ele>117</ele>
        <time>2013-04-21T08:12:19Z</time>
      </trkpt>
      <trkpt lat="48.43437" lon="2.72793">
        <ele>117</ele>
        <time>2013-04-21T08:12:21Z</time>
      </trkpt>
      <trkpt lat="48.43436" lon="2.72793">
        <ele>117</ele>
        <time>2013-04-21T08:12:22Z</time>
      </trkpt>
      <trkpt lat="48.43428" lon="2.72789">
        <ele>118</ele>
        <time>2013-04-21T08:12:28Z</time>
      </trkpt>
      <trkpt lat="48.43415" lon="2.72786">
        <ele>119</ele>
        <time>2013-04-21T08:12:37Z</time>
      </trkpt>
      <trkpt lat="48.43413" lon="2.72785">
        <ele>119</ele>
        <time>2013-04-21T08:12:38Z</time>
      </trkpt>
      <trkpt lat="48.43411" lon="2.72785">
        <ele>119</ele>
        <time>2013-04-21T08:12:39Z</time>
      </trkpt>
      <trkpt lat="48.43406" lon="2.72785">
        <ele>119</ele>
        <time>2013-04-21T08:12:42Z</time>
      </trkpt>
      <trkpt lat="48.43404" lon="2.72785">
        <ele>118</ele>
        <time>2013-04-21T08:12:43Z</time>
      </trkpt>
      <trkpt lat="48.43391" lon="2.72785">
        <ele>118</ele>
        <time>2013-04-21T08:12:51Z</time>
      </trkpt>
      <trkpt lat="48.43386" lon="2.72784">
        <ele>118</ele>
        <time>2013-04-21T08:12:55Z</time>
      </trkpt>
      <trkpt lat="48.43386" lon="2.72784">
        <ele>118</ele>
        <time>2013-04-21T08:12:56Z</time>
      </trkpt>
      <trkpt lat="48.43385" lon="2.72784">
        <ele>118</ele>
        <time>2013-04-21T08:12:57Z</time>
      </trkpt>
      <trkpt lat="48.43385" lon="2.72783">
        <ele>118</ele>
        <time>2013-04-21T08:12:58Z</time>
      </trkpt>
      <trkpt lat="48.43384" lon="2.72783">
        <ele>118</ele>
        <time>2013-04-21T08:12:59Z</time>
      </trkpt>
      <trkpt lat="48.43384" lon="2.72783">
        <ele>118</ele>
        <time>2013-04-21T08:13:00Z</time>
      </trkpt>
      <trkpt lat="48.43383" lon="2.72783">
        <ele>118</ele>
        <time>2013-04-21T08:13:01Z</time>
      </trkpt>
      <trkpt lat="48.43383" lon="2.72783">
        <ele>118</ele>
        <time>2013-04-21T08:13:02Z</time>
      </trkpt>
      <trkpt lat="48.43383" lon="2.72783">
        <ele>118</ele>
        <time>2013-04-21T08:13:03Z</time>
      </trkpt>
      <trkpt lat="48.43382" lon="2.72783">
        <ele>118</ele>
        <time>2013-04-21T08:13:04Z</time>
      </trkpt>
      <trkpt lat="48.43382" lon="2.72783">
        <ele>118</ele>
        <time>2013-04-21T08:13:05Z</time>
      </trkpt>
      <trkpt lat="48.43382" lon="2.72783">
        <ele>118</ele>
        <time>2013-04-21T08:13:06Z</time>
      </trkpt>
      <trkpt lat="48.43381" lon="2.72783">
        <ele>118</ele>
        <time>2013-04-21T08:13:08Z</time>
      </trkpt>
      <trkpt lat="48.43381" lon="2.72783">
        <ele>118</ele>
        <time>2013-04-21T08:13:09Z</time>
      </trkpt>
      <trkpt lat="48.4338" lon="2.72782">
        <ele>118</ele>
        <time>2013-04-21T08:13:10Z</time>
      </trkpt>
      <trkpt lat="48.43357" lon="2.7277">
        <ele>117</ele>
        <time>2013-04-21T08:13:18Z</time>
      </trkpt>
      <trkpt lat="48.4335" lon="2.72767">
        <ele>117</ele>
        <time>2013-04-21T08:13:20Z</time>
      </trkpt>
      <trkpt lat="48.43343" lon="2.72763">
        <ele>117</ele>
        <time>2013-04-21T08:13:23Z</time>
      </trkpt>
      <trkpt lat="48.43332" lon="2.72762">
        <ele>115</ele>
        <time>2013-04-21T08:13:26Z</time>
      </trkpt>
      <trkpt lat="48.43303" lon="2.72765">
        <ele>113</ele>
        <time>2013-04-21T08:13:33Z</time>
      </trkpt>
      <trkpt lat="48.43262" lon="2.72757">
        <ele>112</ele>
        <time>2013-04-21T08:13:43Z</time>
      </trkpt>
      <trkpt lat="48.43249" lon="2.7275">
        <ele>111</ele>
        <time>2013-04-21T08:13:47Z</time>
      </trkpt>
      <trkpt lat="48.43246" lon="2.72748">
        <ele>111</ele>
        <time>2013-04-21T08:13:48Z</time>
      </trkpt>
      <trkpt lat="48.43245" lon="2.72745">
        <ele>111</ele>
        <time>2013-04-21T08:13:49Z</time>
      </trkpt>
      <trkpt lat="48.43236" lon="2.72725">
        <ele>111</ele>
        <time>2013-04-21T08:13:55Z</time>
      </trkpt>
      <trkpt lat="48.43226" lon="2.72693">
        <ele>112</ele>
        <time>2013-04-21T08:14:03Z</time>
      </trkpt>
      <trkpt lat="48.43224" lon="2.7269">
        <ele>112</ele>
        <time>2013-04-21T08:14:04Z</time>
      </trkpt>
      <trkpt lat="48.43219" lon="2.7267">
        <ele>112</ele>
        <time>2013-04-21T08:14:09Z</time>
      </trkpt>
      <trkpt lat="48.43216" lon="2.72663">
        <ele>114</ele>
        <time>2013-04-21T08:14:11Z</time>
      </trkpt>
      <trkpt lat="48.43215" lon="2.7266">
        <ele>114</ele>
        <time>2013-04-21T08:14:12Z</time>
      </trkpt>
      <trkpt lat="48.43214" lon="2.72656">
        <ele>114</ele>
        <time>2013-04-21T08:14:13Z</time>
      </trkpt>
      <trkpt lat="48.43211" lon="2.72646">
        <ele>114</ele>
        <time>2013-04-21T08:14:16Z</time>
      </trkpt>
      <trkpt lat="48.4321" lon="2.72643">
        <ele>114</ele>
        <time>2013-04-21T08:14:17Z</time>
      </trkpt>
      <trkpt lat="48.43206" lon="2.72629">
        <ele>115</ele>
        <time>2013-04-21T08:14:21Z</time>
      </trkpt>
      <trkpt lat="48.43205" lon="2.72626">
        <ele>115</ele>
        <time>2013-04-21T08:14:22Z</time>
      </trkpt>
      <trkpt lat="48.43199" lon="2.72608">
        <ele>115</ele>
        <time>2013-04-21T08:14:27Z</time>
      </trkpt>
      <trkpt lat="48.43195" lon="2.72585">
        <ele>116</ele>
        <time>2013-04-21T08:14:33Z</time>
      </trkpt>
      <trkpt lat="48.43194" lon="2.72577">
        <ele>118</ele>
        <time>2013-04-21T08:14:35Z</time>
      </trkpt>
      <trkpt lat="48.43196" lon="2.72569">
        <ele>118</ele>
        <time>2013-04-21T08:14:37Z</time>
      </trkpt>
      <trkpt lat="48.43245" lon="2.72475">
        <ele>121</ele>
        <time>2013-04-21T08:15:06Z</time>
      </trkpt>
      <trkpt lat="48.43259" lon="2.72458">
        <ele>122</ele>
        <time>2013-04-21T08:15:12Z</time>
      </trkpt>
      <trkpt lat="48.43261" lon="2.72456">
        <ele>122</ele>
        <time>2013-04-21T08:15:13Z</time>
      </trkpt>
      <trkpt lat="48.4328" lon="2.72446">
        <ele>122</ele>
        <time>2013-04-21T08:15:20Z</time>
      </trkpt>
      <trkpt lat="48.43282" lon="2.72446">
        <ele>122</ele>
        <time>2013-04-21T08:15:21Z</time>
      </trkpt>
      <trkpt lat="48.43299" lon="2.7245">
        <ele>123</ele>
        <time>2013-04-21T08:15:27Z</time>
      </trkpt>
      <trkpt lat="48.43307" lon="2.72456">
        <ele>123</ele>
        <time>2013-04-21T08:15:31Z</time>
      </trkpt>
      <trkpt lat="48.43321" lon="2.7247">
        <ele>123</ele>
        <time>2013-04-21T08:15:39Z</time>
      </trkpt>
      <trkpt lat="48.43323" lon="2.72472">
        <ele>123</ele>
        <time>2013-04-21T08:15:40Z</time>
      </trkpt>
      <trkpt lat="48.43339" lon="2.72509">
        <ele>125</ele>
        <time>2013-04-21T08:15:55Z</time>
      </trkpt>
      <trkpt lat="48.43344" lon="2.72522">
        <ele>125</ele>
        <time>2013-04-21T08:16:00Z</time>
      </trkpt>
      <trkpt lat="48.43344" lon="2.72525">
        <ele>125</ele>
        <time>2013-04-21T08:16:01Z</time>
      </trkpt>
      <trkpt lat="48.43345" lon="2.72527">
        <ele>125</ele>
        <time>2013-04-21T08:16:02Z</time>
      </trkpt>
      <trkpt lat="48.43349" lon="2.72553">
        <ele>125</ele>
        <time>2013-04-21T08:16:11Z</time>
      </trkpt>
      <trkpt lat="48.4335" lon="2.72576">
        <ele>124</ele>
        <time>2013-04-21T08:16:19Z</time>
      </trkpt>
      <trkpt lat="48.43351" lon="2.72579">
        <ele>124</ele>
        <time>2013-04-21T08:16:20Z</time>
      </trkpt>
      <trkpt lat="48.43351" lon="2.72582">
        <ele>124</ele>
        <time>2013-04-21T08:16:21Z</time>
      </trkpt>
      <trkpt lat="48.43351" lon="2.72588">
        <ele>123</ele>
        <time>2013-04-21T08:16:23Z</time>
      </trkpt>
      <trkpt lat="48.43351" lon="2.72592">
        <ele>123</ele>
        <time>2013-04-21T08:16:24Z</time>
      </trkpt>
      <trkpt lat="48.43355" lon="2.72632">
        <ele>123</ele>
        <time>2013-04-21T08:16:38Z</time>
      </trkpt>
      <trkpt lat="48.43358" lon="2.72645">
        <ele>123</ele>
        <time>2013-04-21T08:16:42Z</time>
      </trkpt>
      <trkpt lat="48.43362" lon="2.72652">
        <ele>123</ele>
        <time>2013-04-21T08:16:45Z</time>
      </trkpt>
      <trkpt lat="48.43365" lon="2.72656">
        <ele>123</ele>
        <time>2013-04-21T08:16:47Z</time>
      </trkpt>
      <trkpt lat="48.4337" lon="2.72661">
        <ele>123</ele>
        <time>2013-04-21T08:16:50Z</time>
      </trkpt>
      <trkpt lat="48.43373" lon="2.72662">
        <ele>124</ele>
        <time>2013-04-21T08:16:52Z</time>
      </trkpt>
      <trkpt lat="48.43376" lon="2.72663">
        <ele>124</ele>
        <time>2013-04-21T08:16:54Z</time>
      </trkpt>
      <trkpt lat="48.4338" lon="2.72662">
        <ele>124</ele>
        <time>2013-04-21T08:16:56Z</time>
      </trkpt>
      <trkpt lat="48.43382" lon="2.72661">
        <ele>124</ele>
        <time>2013-04-21T08:16:57Z</time>
      </trkpt>
      <trkpt lat="48.43384" lon="2.7266">
        <ele>124</ele>
        <time>2013-04-21T08:16:58Z</time>
      </trkpt>
      <trkpt lat="48.43385" lon="2.72659">
        <ele>124</ele>
        <time>2013-04-21T08:16:59Z</time>
      </trkpt>
      <trkpt lat="48.43387" lon="2.72659">
        <ele>124</ele>
        <time>2013-04-21T08:17:00Z</time>
      </trkpt>
      <trkpt lat="48.43388" lon="2.72659">
        <ele>124</ele>
        <time>2013-04-21T08:17:01Z</time>
      </trkpt>
      <trkpt lat="48.43389" lon="2.72657">
        <ele>124</ele>
        <time>2013-04-21T08:17:02Z</time>
      </trkpt>
      <trkpt lat="48.43388" lon="2.72656">
        <ele>124</ele>
        <time>2013-04-21T08:17:03Z</time>
      </trkpt>
      <trkpt lat="48.43387" lon="2.72656">
        <ele>124</ele>
        <time>2013-04-21T08:17:04Z</time>
      </trkpt>
      <trkpt lat="48.43384" lon="2.72659">
        <ele>124</ele>
        <time>2013-04-21T08:17:07Z</time>
      </trkpt>
      <trkpt lat="48.43384" lon="2.7266">
        <ele>124</ele>
        <time>2013-04-21T08:17:08Z</time>
      </trkpt>
      <trkpt lat="48.43385" lon="2.72661">
        <ele>124</ele>
        <time>2013-04-21T08:17:09Z</time>
      </trkpt>
      <trkpt lat="48.43385" lon="2.72661">
        <ele>124</ele>
        <time>2013-04-21T08:17:10Z</time>
      </trkpt>
      <trkpt lat="48.43385" lon="2.72661">
        <ele>124</ele>
        <time>2013-04-21T08:17:11Z</time>
      </trkpt>
      <trkpt lat="48.43385" lon="2.72661">
        <ele>124</ele>
        <time>2013-04-21T08:17:12Z</time>
      </trkpt>
      <trkpt lat="48.43385" lon="2.72661">
        <ele>124</ele>
        <time>2013-04-21T08:17:13Z</time>
      </trkpt>
      <trkpt lat="48.43385" lon="2.72661">
        <ele>124</ele>
        <time>2013-04-21T08:17:14Z</time>
      </trkpt>
      <trkpt lat="48.43385" lon="2.72662">
        <ele>124</ele>
        <time>2013-04-21T08:17:17Z</time>
      </trkpt>
      <trkpt lat="48.43385" lon="2.72662">
        <ele>124</ele>
        <time>2013-04-21T08:17:18Z</time>
      </trkpt>
      <trkpt lat="48.43385" lon="2.72662">
        <ele>124</ele>
        <time>2013-04-21T08:17:19Z</time>
      </trkpt>
      <trkpt lat="48.43385" lon="2.72663">
        <ele>124</ele>
        <time>2013-04-21T08:17:20Z</time>
      </trkpt>
      <trkpt lat="48.43385" lon="2.72663">
        <ele>124</ele>
        <time>2013-04-21T08:17:21Z</time>
      </trkpt>
      <trkpt lat="48.43385" lon="2.72662">
        <ele>124</ele>
        <time>2013-04-21T08:17:24Z</time>
      </trkpt>
      <trkpt lat="48.43385" lon="2.72662">
        <ele>124</ele>
        <time>2013-04-21T08:17:31Z</time>
      </trkpt>
      <trkpt lat="48.43385" lon="2.72662">
        <ele>124</ele>
        <time>2013-04-21T08:17:35Z</time>
      </trkpt>
      <trkpt lat="48.43385" lon="2.72662">
        <ele>124</ele>
        <time>2013-04-21T08:17:45Z</time>
      </trkpt>
      <trkpt lat="48.43385" lon="2.72662">
        <ele>124</ele>
        <time>2013-04-21T08:17:46Z</time>
      </trkpt>
      <trkpt lat="48.43385" lon="2.72662">
        <ele>124</ele>
        <time>2013-04-21T08:17:52Z</time>
      </trkpt>
      <trkpt lat="48.43385" lon="2.72662">
        <ele>124</ele>
        <time>2013-04-21T08:17:54Z</time>
      </trkpt>
      <trkpt lat="48.43385" lon="2.72662">
        <ele>124</ele>
        <time>2013-04-21T08:17:59Z</time>
      </trkpt>
      <trkpt lat="48.43386" lon="2.72662">
        <ele>124</ele>
        <time>2013-04-21T08:18:02Z</time>
      </trkpt>
      <trkpt lat="48.43386" lon="2.72662">
        <ele>124</ele>
        <time>2013-04-21T08:18:03Z</time>
      </trkpt>
      <trkpt lat="48.43386" lon="2.72662">
        <ele>124</ele>
        <time>2013-04-21T08:18:04Z</time>
      </trkpt>
      <trkpt lat="48.43386" lon="2.72662">
        <ele>124</ele>
        <time>2013-04-21T08:18:08Z</time>
      </trkpt>
      <trkpt lat="48.43386" lon="2.72662">
        <ele>124</ele>
        <time>2013-04-21T08:18:16Z</time>
      </trkpt>
      <trkpt lat="48.43386" lon="2.72662">
        <ele>124</ele>
        <time>2013-04-21T08:18:22Z</time>
      </trkpt>
      <trkpt lat="48.43385" lon="2.72662">
        <ele>124</ele>
        <time>2013-04-21T08:18:26Z</time>
      </trkpt>
      <trkpt lat="48.43385" lon="2.72663">
        <ele>124</ele>
        <time>2013-04-21T08:18:27Z</time>
      </trkpt>
      <trkpt lat="48.43385" lon="2.72663">
        <ele>124</ele>
        <time>2013-04-21T08:18:35Z</time>
      </trkpt>
      <trkpt lat="48.43385" lon="2.72663">
        <ele>124</ele>
        <time>2013-04-21T08:18:41Z</time>
      </trkpt>
      <trkpt lat="48.43385" lon="2.72663">
        <ele>124</ele>
        <time>2013-04-21T08:18:44Z</time>
      </trkpt>
      <trkpt lat="48.43385" lon="2.72663">
        <ele>124</ele>
        <time>2013-04-21T08:18:45Z</time>
      </trkpt>
      <trkpt lat="48.43385" lon="2.72663">
        <ele>124</ele>
        <time>2013-04-21T08:18:50Z</time>
      </trkpt>
      <trkpt lat="48.43385" lon="2.72663">
        <ele>124</ele>
        <time>2013-04-21T08:18:52Z</time>
      </trkpt>
      <trkpt lat="48.43385" lon="2.72663">
        <ele>124</ele>
        <time>2013-04-21T08:18:55Z</time>
      </trkpt>
      <trkpt lat="48.43384" lon="2.72663">
        <ele>124</ele>
        <time>2013-04-21T08:18:58Z</time>
      </trkpt>
      <trkpt lat="48.43384" lon="2.72663">
        <ele>124</ele>
        <time>2013-04-21T08:18:59Z</time>
      </trkpt>
      <trkpt lat="48.43384" lon="2.72663">
        <ele>124</ele>
        <time>2013-04-21T08:19:01Z</time>
      </trkpt>
      <trkpt lat="48.43384" lon="2.72663">
        <ele>124</ele>
        <time>2013-04-21T08:19:03Z</time>
      </trkpt>
      <trkpt lat="48.43384" lon="2.72663">
        <ele>124</ele>
        <time>2013-04-21T08:19:04Z</time>
      </trkpt>
      <trkpt lat="48.43384" lon="2.72663">
        <ele>124</ele>
        <time>2013-04-21T08:19:11Z</time>
      </trkpt>
      <trkpt lat="48.43384" lon="2.72664">
        <ele>124</ele>
        <time>2013-04-21T08:19:14Z</time>
      </trkpt>
      <trkpt lat="48.43384" lon="2.72664">
        <ele>124</ele>
        <time>2013-04-21T08:19:24Z</time>
      </trkpt>
      <trkpt lat="48.43384" lon="2.72663">
        <ele>124</ele>
        <time>2013-04-21T08:19:38Z</time>
      </trkpt>
      <trkpt lat="48.43384" lon="2.72663">
        <ele>124</ele>
        <time>2013-04-21T08:19:41Z</time>
      </trkpt>
      <trkpt lat="48.43384" lon="2.72663">
        <ele>124</ele>
        <time>2013-04-21T08:19:45Z</time>
      </trkpt>
      <trkpt lat="48.43384" lon="2.72663">
        <ele>124</ele>
        <time>2013-04-21T08:19:51Z</time>
      </trkpt>
      <trkpt lat="48.43384" lon="2.72663">
        <ele>124</ele>
        <time>2013-04-21T08:19:53Z</time>
      </trkpt>
      <trkpt lat="48.43385" lon="2.72663">
        <ele>124</ele>
        <time>2013-04-21T08:20:02Z</time>
      </trkpt>
      <trkpt lat="48.43384" lon="2.72663">
        <ele>124</ele>
        <time>2013-04-21T08:20:07Z</time>
      </trkpt>
      <trkpt lat="48.43385" lon="2.72663">
        <ele>124</ele>
        <time>2013-04-21T08:20:08Z</time>
      </trkpt>
      <trkpt lat="48.43385" lon="2.72663">
        <ele>124</ele>
        <time>2013-04-21T08:20:09Z</time>
      </trkpt>
      <trkpt lat="48.43384" lon="2.72664">
        <ele>124</ele>
        <time>2013-04-21T08:20:24Z</time>
      </trkpt>
      <trkpt lat="48.43385" lon="2.72664">
        <ele>124</ele>
        <time>2013-04-21T08:20:25Z</time>
      </trkpt>
      <trkpt lat="48.43384" lon="2.72664">
        <ele>124</ele>
        <time>2013-04-21T08:20:34Z</time>
      </trkpt>
      <trkpt lat="48.43385" lon="2.72664">
        <ele>124</ele>
        <time>2013-04-21T08:20:42Z</time>
      </trkpt>
      <trkpt lat="48.43385" lon="2.72664">
        <ele>124</ele>
        <time>2013-04-21T08:20:52Z</time>
      </trkpt>
      <trkpt lat="48.43385" lon="2.72664">
        <ele>124</ele>
        <time>2013-04-21T08:20:56Z</time>
      </trkpt>
      <trkpt lat="48.43385" lon="2.72664">
        <ele>124</ele>
        <time>2013-04-21T08:20:58Z</time>
      </trkpt>
      <trkpt lat="48.43385" lon="2.72664">
        <ele>124</ele>
        <time>2013-04-21T08:20:59Z</time>
      </trkpt>
      <trkpt lat="48.43385" lon="2.72664">
        <ele>124</ele>
        <time>2013-04-21T08:21:04Z</time>
      </trkpt>
      <trkpt lat="48.43385" lon="2.72664">
        <ele>124</ele>
        <time>2013-04-21T08:21:06Z</time>
      </trkpt>
      <trkpt lat="48.43385" lon="2.72664">
        <ele>124</ele>
        <time>2013-04-21T08:21:08Z</time>
      </trkpt>
      <trkpt lat="48.43385" lon="2.72664">
        <ele>124</ele>
        <time>2013-04-21T08:21:14Z</time>
      </trkpt>
      <trkpt lat="48.43385" lon="2.72664">
        <ele>124</ele>
        <time>2013-04-21T08:21:23Z</time>
      </trkpt>
      <trkpt lat="48.43385" lon="2.72664">
        <ele>124</ele>
        <time>2013-04-21T08:21:24Z</time>
      </trkpt>
      <trkpt lat="48.43385" lon="2.72664">
        <ele>124</ele>
        <time>2013-04-21T08:21:34Z</time>
      </trkpt>
      <trkpt lat="48.43385" lon="2.72664">
        <ele>124</ele>
        <time>2013-04-21T08:21:37Z</time>
      </trkpt>
      <trkpt lat="48.43385" lon="2.72664">
        <ele>124</ele>
        <time>2013-04-21T08:21:38Z</time>
      </trkpt>
      <trkpt lat="48.43385" lon="2.72664">
        <ele>124</ele>
        <time>2013-04-21T08:21:41Z</time>
      </trkpt>
      <trkpt lat="48.43385" lon="2.72664">
        <ele>124</ele>
        <time>2013-04-21T08:21:49Z</time>
      </trkpt>
      <trkpt lat="48.43385" lon="2.72664">
        <ele>124</ele>
        <time>2013-04-21T08:21:50Z</time>
      </trkpt>
      <trkpt lat="48.43385" lon="2.72663">
        <ele>124</ele>
        <time>2013-04-21T08:21:51Z</time>
      </trkpt>
      <trkpt lat="48.43385" lon="2.72663">
        <ele>124</ele>
        <time>2013-04-21T08:21:52Z</time>
      </trkpt>
      <trkpt lat="48.43385" lon="2.72663">
        <ele>124</ele>
        <time>2013-04-21T08:21:54Z</time>
      </trkpt>
      <trkpt lat="48.43385" lon="2.72663">
        <ele>124</ele>
        <time>2013-04-21T08:21:55Z</time>
      </trkpt>
      <trkpt lat="48.43385" lon="2.72663">
        <ele>124</ele>
        <time>2013-04-21T08:21:56Z</time>
      </trkpt>
      <trkpt lat="48.43385" lon="2.72664">
        <ele>124</ele>
        <time>2013-04-21T08:21:57Z</time>
      </trkpt>
      <trkpt lat="48.43385" lon="2.72664">
        <ele>124</ele>
        <time>2013-04-21T08:22:03Z</time>
      </trkpt>
      <trkpt lat="48.43385" lon="2.72664">
        <ele>124</ele>
        <time>2013-04-21T08:22:06Z</time>
      </trkpt>
      <trkpt lat="48.43385" lon="2.72664">
        <ele>124</ele>
        <time>2013-04-21T08:22:07Z</time>
      </trkpt>
      <trkpt lat="48.43385" lon="2.72664">
        <ele>124</ele>
        <time>2013-04-21T08:22:08Z</time>
      </trkpt>
      <trkpt lat="48.43385" lon="2.72664">
        <ele>124</ele>
        <time>2013-04-21T08:22:13Z</time>
      </trkpt>
      <trkpt lat="48.43385" lon="2.72664">
        <ele>124</ele>
        <time>2013-04-21T08:22:18Z</time>
      </trkpt>
      <trkpt lat="48.43385" lon="2.72664">
        <ele>124</ele>
        <time>2013-04-21T08:22:19Z</time>
      </trkpt>
      <trkpt lat="48.43384" lon="2.72664">
        <ele>124</ele>
        <time>2013-04-21T08:22:23Z</time>
      </trkpt>
      <trkpt lat="48.43384" lon="2.72664">
        <ele>124</ele>
        <time>2013-04-21T08:22:24Z</time>
      </trkpt>
      <trkpt lat="48.43384" lon="2.72664">
        <ele>124</ele>
        <time>2013-04-21T08:22:27Z</time>
      </trkpt>
      <trkpt lat="48.43384" lon="2.72665">
        <ele>124</ele>
        <time>2013-04-21T08:22:29Z</time>
      </trkpt>
      <trkpt lat="48.43384" lon="2.72665">
        <ele>124</ele>
        <time>2013-04-21T08:22:33Z</time>
      </trkpt>
      <trkpt lat="48.43384" lon="2.72665">
        <ele>124</ele>
        <time>2013-04-21T08:22:35Z</time>
      </trkpt>
      <trkpt lat="48.43384" lon="2.72665">
        <ele>124</ele>
        <time>2013-04-21T08:22:36Z</time>
      </trkpt>
      <trkpt lat="48.43384" lon="2.72665">
        <ele>124</ele>
        <time>2013-04-21T08:22:38Z</time>
      </trkpt>
      <trkpt lat="48.43383" lon="2.72665">
        <ele>124</ele>
        <time>2013-04-21T08:22:40Z</time>
      </trkpt>
      <trkpt lat="48.43383" lon="2.72665">
        <ele>124</ele>
        <time>2013-04-21T08:22:44Z</time>
      </trkpt>
      <trkpt lat="48.43383" lon="2.72665">
        <ele>124</ele>
        <time>2013-04-21T08:22:46Z</time>
      </trkpt>
      <trkpt lat="48.43383" lon="2.72665">
        <ele>124</ele>
        <time>2013-04-21T08:22:47Z</time>
      </trkpt>
      <trkpt lat="48.43383" lon="2.72665">
        <ele>124</ele>
        <time>2013-04-21T08:22:49Z</time>
      </trkpt>
      <trkpt lat="48.43383" lon="2.72665">
        <ele>124</ele>
        <time>2013-04-21T08:22:51Z</time>
      </trkpt>
      <trkpt lat="48.43383" lon="2.72665">
        <ele>124</ele>
        <time>2013-04-21T08:22:53Z</time>
      </trkpt>
      <trkpt lat="48.43382" lon="2.72665">
        <ele>124</ele>
        <time>2013-04-21T08:22:54Z</time>
      </trkpt>
      <trkpt lat="48.43382" lon="2.72665">
        <ele>124</ele>
        <time>2013-04-21T08:22:55Z</time>
      </trkpt>
      <trkpt lat="48.43382" lon="2.72665">
        <ele>124</ele>
        <time>2013-04-21T08:22:56Z</time>
      </trkpt>
      <trkpt lat="48.43382" lon="2.72665">
        <ele>124</ele>
        <time>2013-04-21T08:22:57Z</time>
      </trkpt>
      <trkpt lat="48.43382" lon="2.72666">
        <ele>124</ele>
        <time>2013-04-21T08:22:58Z</time>
      </trkpt>
      <trkpt lat="48.43382" lon="2.72666">
        <ele>124</ele>
        <time>2013-04-21T08:23:00Z</time>
      </trkpt>
      <trkpt lat="48.43382" lon="2.72666">
        <ele>124</ele>
        <time>2013-04-21T08:23:01Z</time>
      </trkpt>
      <trkpt lat="48.43382" lon="2.72666">
        <ele>124</ele>
        <time>2013-04-21T08:23:03Z</time>
      </trkpt>
      <trkpt lat="48.43382" lon="2.72667">
        <ele>124</ele>
        <time>2013-04-21T08:23:04Z</time>
      </trkpt>
      <trkpt lat="48.43383" lon="2.72667">
        <ele>124</ele>
        <time>2013-04-21T08:23:05Z</time>
      </trkpt>
      <trkpt lat="48.43384" lon="2.72666">
        <ele>124</ele>
        <time>2013-04-21T08:23:06Z</time>
      </trkpt>
      <trkpt lat="48.43384" lon="2.72666">
        <ele>124</ele>
        <time>2013-04-21T08:23:07Z</time>
      </trkpt>
      <trkpt lat="48.43384" lon="2.72665">
        <ele>124</ele>
        <time>2013-04-21T08:23:09Z</time>
      </trkpt>
      <trkpt lat="48.43384" lon="2.72666">
        <ele>124</ele>
        <time>2013-04-21T08:23:10Z</time>
      </trkpt>
      <trkpt lat="48.43384" lon="2.72665">
        <ele>124</ele>
        <time>2013-04-21T08:23:11Z</time>
      </trkpt>
      <trkpt lat="48.43384" lon="2.72665">
        <ele>124</ele>
        <time>2013-04-21T08:23:12Z</time>
      </trkpt>
      <trkpt lat="48.43384" lon="2.72665">
        <ele>124</ele>
        <time>2013-04-21T08:23:13Z</time>
      </trkpt>
      <trkpt lat="48.43383" lon="2.72664">
        <ele>124</ele>
        <time>2013-04-21T08:23:14Z</time>
      </trkpt>
      <trkpt lat="48.43383" lon="2.72665">
        <ele>124</ele>
        <time>2013-04-21T08:23:15Z</time>
      </trkpt>
      <trkpt lat="48.43382" lon="2.72666">
        <ele>124</ele>
        <time>2013-04-21T08:23:16Z</time>
      </trkpt>
      <trkpt lat="48.43381" lon="2.72668">
        <ele>122</ele>
        <time>2013-04-21T08:23:17Z</time>
      </trkpt>
      <trkpt lat="48.43378" lon="2.72668">
        <ele>122</ele>
        <time>2013-04-21T08:23:19Z</time>
      </trkpt>
      <trkpt lat="48.43377" lon="2.7267">
        <ele>121</ele>
        <time>2013-04-21T08:23:20Z</time>
      </trkpt>
      <trkpt lat="48.43375" lon="2.72676">
        <ele>121</ele>
        <time>2013-04-21T08:23:22Z</time>
      </trkpt>
      <trkpt lat="48.43376" lon="2.72678">
        <ele>121</ele>
        <time>2013-04-21T08:23:23Z</time>
      </trkpt>
      <trkpt lat="48.43377" lon="2.72684">
        <ele>121</ele>
        <time>2013-04-21T08:23:25Z</time>
      </trkpt>
      <trkpt lat="48.43378" lon="2.72688">
        <ele>121</ele>
        <time>2013-04-21T08:23:26Z</time>
      </trkpt>
      <trkpt lat="48.43378" lon="2.72693">
        <ele>121</ele>
        <time>2013-04-21T08:23:27Z</time>
      </trkpt>
      <trkpt lat="48.43377" lon="2.72695">
        <ele>121</ele>
        <time>2013-04-21T08:23:28Z</time>
      </trkpt>
      <trkpt lat="48.43374" lon="2.72695">
        <ele>121</ele>
        <time>2013-04-21T08:23:30Z</time>
      </trkpt>
      <trkpt lat="48.43372" lon="2.72696">
        <ele>121</ele>
        <time>2013-04-21T08:23:31Z</time>
      </trkpt>
      <trkpt lat="48.43372" lon="2.72701">
        <ele>121</ele>
        <time>2013-04-21T08:23:34Z</time>
      </trkpt>
      <trkpt lat="48.43373" lon="2.72703">
        <ele>121</ele>
        <time>2013-04-21T08:23:35Z</time>
      </trkpt>
      <trkpt lat="48.43378" lon="2.72714">
        <ele>120</ele>
        <time>2013-04-21T08:23:38Z</time>
      </trkpt>
      <trkpt lat="48.43379" lon="2.72718">
        <ele>120</ele>
        <time>2013-04-21T08:23:39Z</time>
      </trkpt>
      <trkpt lat="48.4338" lon="2.72724">
        <ele>120</ele>
        <time>2013-04-21T08:23:40Z</time>
      </trkpt>
      <trkpt lat="48.43379" lon="2.72728">
        <ele>120</ele>
        <time>2013-04-21T08:23:41Z</time>
      </trkpt>
      <trkpt lat="48.43379" lon="2.72733">
        <ele>120</ele>
        <time>2013-04-21T08:23:42Z</time>
      </trkpt>
      <trkpt lat="48.43379" lon="2.72748">
        <ele>120</ele>
        <time>2013-04-21T08:23:45Z</time>
      </trkpt>
      <trkpt lat="48.43379" lon="2.7275">
        <ele>118</ele>
        <time>2013-04-21T08:23:46Z</time>
      </trkpt>
      <trkpt lat="48.43379" lon="2.72751">
        <ele>118</ele>
        <time>2013-04-21T08:23:47Z</time>
      </trkpt>
      <trkpt lat="48.43379" lon="2.72751">
        <ele>118</ele>
        <time>2013-04-21T08:23:48Z</time>
      </trkpt>
      <trkpt lat="48.43379" lon="2.72751">
        <ele>118</ele>
        <time>2013-04-21T08:23:49Z</time>
      </trkpt>
      <trkpt lat="48.43379" lon="2.72752">
        <ele>118</ele>
        <time>2013-04-21T08:23:50Z</time>
      </trkpt>
      <trkpt lat="48.4338" lon="2.72752">
        <ele>118</ele>
        <time>2013-04-21T08:23:51Z</time>
      </trkpt>
      <trkpt lat="48.4338" lon="2.72753">
        <ele>118</ele>
        <time>2013-04-21T08:23:52Z</time>
      </trkpt>
      <trkpt lat="48.4338" lon="2.72753">
        <ele>118</ele>
        <time>2013-04-21T08:23:53Z</time>
      </trkpt>
      <trkpt lat="48.4338" lon="2.72754">
        <ele>118</ele>
        <time>2013-04-21T08:23:54Z</time>
      </trkpt>
      <trkpt lat="48.4338" lon="2.72754">
        <ele>118</ele>
        <time>2013-04-21T08:23:55Z</time>
      </trkpt>
      <trkpt lat="48.4338" lon="2.72754">
        <ele>118</ele>
        <time>2013-04-21T08:23:56Z</time>
      </trkpt>
      <trkpt lat="48.4338" lon="2.72755">
        <ele>118</ele>
        <time>2013-04-21T08:23:57Z</time>
      </trkpt>
      <trkpt lat="48.4338" lon="2.72755">
        <ele>118</ele>
        <time>2013-04-21T08:23:58Z</time>
      </trkpt>
      <trkpt lat="48.4338" lon="2.72756">
        <ele>118</ele>
        <time>2013-04-21T08:23:59Z</time>
      </trkpt>
      <trkpt lat="48.4338" lon="2.72756">
        <ele>118</ele>
        <time>2013-04-21T08:24:00Z</time>
      </trkpt>
      <trkpt lat="48.4338" lon="2.72757">
        <ele>118</ele>
        <time>2013-04-21T08:24:01Z</time>
      </trkpt>
      <trkpt lat="48.4338" lon="2.72757">
        <ele>118</ele>
        <time>2013-04-21T08:24:02Z</time>
      </trkpt>
      <trkpt lat="48.4338" lon="2.72758">
        <ele>118</ele>
        <time>2013-04-21T08:24:03Z</time>
      </trkpt>
      <trkpt lat="48.4338" lon="2.72758">
        <ele>118</ele>
        <time>2013-04-21T08:24:04Z</time>
      </trkpt>
      <trkpt lat="48.4338" lon="2.72759">
        <ele>118</ele>
        <time>2013-04-21T08:24:05Z</time>
      </trkpt>
      <trkpt lat="48.4338" lon="2.72759">
        <ele>118</ele>
        <time>2013-04-21T08:24:06Z</time>
      </trkpt>
      <trkpt lat="48.4338" lon="2.72759">
        <ele>118</ele>
        <time>2013-04-21T08:24:07Z</time>
      </trkpt>
      <trkpt lat="48.4338" lon="2.7276">
        <ele>118</ele>
        <time>2013-04-21T08:24:08Z</time>
      </trkpt>
      <trkpt lat="48.4338" lon="2.7276">
        <ele>118</ele>
        <time>2013-04-21T08:24:09Z</time>
      </trkpt>
      <trkpt lat="48.4338" lon="2.7276">
        <ele>118</ele>
        <time>2013-04-21T08:24:10Z</time>
      </trkpt>
      <trkpt lat="48.43381" lon="2.72761">
        <ele>118</ele>
        <time>2013-04-21T08:24:11Z</time>
      </trkpt>
      <trkpt lat="48.43381" lon="2.72761">
        <ele>118</ele>
        <time>2013-04-21T08:24:12Z</time>
      </trkpt>
      <trkpt lat="48.43381" lon="2.72761">
        <ele>118</ele>
        <time>2013-04-21T08:24:13Z</time>
      </trkpt>
      <trkpt lat="48.43381" lon="2.72762">
        <ele>118</ele>
        <time>2013-04-21T08:24:14Z</time>
      </trkpt>
      <trkpt lat="48.43381" lon="2.72762">
        <ele>118</ele>
        <time>2013-04-21T08:24:15Z</time>
      </trkpt>
      <trkpt lat="48.43381" lon="2.72762">
        <ele>118</ele>
        <time>2013-04-21T08:24:16Z</time>
      </trkpt>
      <trkpt lat="48.43381" lon="2.72763">
        <ele>118</ele>
        <time>2013-04-21T08:24:17Z</time>
      </trkpt>
      <trkpt lat="48.43381" lon="2.72763">
        <ele>118</ele>
        <time>2013-04-21T08:24:18Z</time>
      </trkpt>
      <trkpt lat="48.43381" lon="2.72763">
        <ele>118</ele>
        <time>2013-04-21T08:24:19Z</time>
      </trkpt>
      <trkpt lat="48.43381" lon="2.72764">
        <ele>118</ele>
        <time>2013-04-21T08:24:20Z</time>
      </trkpt>
      <trkpt lat="48.43381" lon="2.72764">
        <ele>118</ele>
        <time>2013-04-21T08:24:22Z</time>
      </trkpt>
      <trkpt lat="48.43381" lon="2.72765">
        <ele>118</ele>
        <time>2013-04-21T08:24:23Z</time>
      </trkpt>
      <trkpt lat="48.43379" lon="2.72771">
        <ele>118</ele>
        <time>2013-04-21T08:24:25Z</time>
      </trkpt>
      <trkpt lat="48.43378" lon="2.72776">
        <ele>118</ele>
        <time>2013-04-21T08:24:26Z</time>
      </trkpt>
      <trkpt lat="48.43377" lon="2.7278">
        <ele>118</ele>
        <time>2013-04-21T08:24:27Z</time>
      </trkpt>
      <trkpt lat="48.43376" lon="2.72788">
        <ele>118</ele>
        <time>2013-04-21T08:24:29Z</time>
      </trkpt>
      <trkpt lat="48.43376" lon="2.72789">
        <ele>118</ele>
        <time>2013-04-21T08:24:30Z</time>
      </trkpt>
      <trkpt lat="48.43376" lon="2.72791">
        <ele>118</ele>
        <time>2013-04-21T08:24:31Z</time>
      </trkpt>
      <trkpt lat="48.43375" lon="2.72793">
        <ele>118</ele>
        <time>2013-04-21T08:24:32Z</time>
      </trkpt>
      <trkpt lat="48.43374" lon="2.72795">
        <ele>118</ele>
        <time>2013-04-21T08:24:33Z</time>
      </trkpt>
      <trkpt lat="48.43373" lon="2.72799">
        <ele>118</ele>
        <time>2013-04-21T08:24:34Z</time>
      </trkpt>
      <trkpt lat="48.43371" lon="2.72801">
        <ele>118</ele>
        <time>2013-04-21T08:24:35Z</time>
      </trkpt>
      <trkpt lat="48.4337" lon="2.72804">
        <ele>118</ele>
        <time>2013-04-21T08:24:36Z</time>
      </trkpt>
      <trkpt lat="48.4337" lon="2.72806">
        <ele>118</ele>
        <time>2013-04-21T08:24:37Z</time>
      </trkpt>
      <trkpt lat="48.4337" lon="2.72807">
        <ele>118</ele>
        <time>2013-04-21T08:24:38Z</time>
      </trkpt>
      <trkpt lat="48.43371" lon="2.72808">
        <ele>118</ele>
        <time>2013-04-21T08:24:39Z</time>
      </trkpt>
      <trkpt lat="48.4337" lon="2.72809">
        <ele>118</ele>
        <time>2013-04-21T08:24:40Z</time>
      </trkpt>
      <trkpt lat="48.4337" lon="2.72812">
        <ele>118</ele>
        <time>2013-04-21T08:24:42Z</time>
      </trkpt>
      <trkpt lat="48.43371" lon="2.72813">
        <ele>118</ele>
        <time>2013-04-21T08:24:43Z</time>
      </trkpt>
      <trkpt lat="48.4337" lon="2.72814">
        <ele>118</ele>
        <time>2013-04-21T08:24:44Z</time>
      </trkpt>
      <trkpt lat="48.4337" lon="2.72815">
        <ele>118</ele>
        <time>2013-04-21T08:24:45Z</time>
      </trkpt>
      <trkpt lat="48.4337" lon="2.72816">
        <ele>117</ele>
        <time>2013-04-21T08:24:46Z</time>
      </trkpt>
      <trkpt lat="48.43369" lon="2.72819">
        <ele>117</ele>
        <time>2013-04-21T08:24:48Z</time>
      </trkpt>
      <trkpt lat="48.43369" lon="2.72822">
        <ele>117</ele>
        <time>2013-04-21T08:24:50Z</time>
      </trkpt>
      <trkpt lat="48.43369" lon="2.72824">
        <ele>117</ele>
        <time>2013-04-21T08:24:51Z</time>
      </trkpt>
      <trkpt lat="48.43369" lon="2.72825">
        <ele>117</ele>
        <time>2013-04-21T08:24:52Z</time>
      </trkpt>
      <trkpt lat="48.43369" lon="2.72827">
        <ele>117</ele>
        <time>2013-04-21T08:24:53Z</time>
      </trkpt>
      <trkpt lat="48.43369" lon="2.72828">
        <ele>117</ele>
        <time>2013-04-21T08:24:54Z</time>
      </trkpt>
      <trkpt lat="48.43369" lon="2.72829">
        <ele>117</ele>
        <time>2013-04-21T08:24:55Z</time>
      </trkpt>
      <trkpt lat="48.43369" lon="2.72829">
        <ele>117</ele>
        <time>2013-04-21T08:24:56Z</time>
      </trkpt>
      <trkpt lat="48.43369" lon="2.72829">
        <ele>117</ele>
        <time>2013-04-21T08:24:57Z</time>
      </trkpt>
      <trkpt lat="48.43369" lon="2.7283">
        <ele>117</ele>
        <time>2013-04-21T08:24:58Z</time>
      </trkpt>
      <trkpt lat="48.43369" lon="2.7283">
        <ele>117</ele>
        <time>2013-04-21T08:24:59Z</time>
      </trkpt>
      <trkpt lat="48.43369" lon="2.7283">
        <ele>117</ele>
        <time>2013-04-21T08:25:00Z</time>
      </trkpt>
      <trkpt lat="48.43368" lon="2.72831">
        <ele>117</ele>
        <time>2013-04-21T08:25:01Z</time>
      </trkpt>
      <trkpt lat="48.43368" lon="2.72831">
        <ele>117</ele>
        <time>2013-04-21T08:25:02Z</time>
      </trkpt>
      <trkpt lat="48.43368" lon="2.72831">
        <ele>117</ele>
        <time>2013-04-21T08:25:03Z</time>
      </trkpt>
      <trkpt lat="48.43368" lon="2.72832">
        <ele>117</ele>
        <time>2013-04-21T08:25:04Z</time>
      </trkpt>
      <trkpt lat="48.43368" lon="2.72832">
        <ele>117</ele>
        <time>2013-04-21T08:25:05Z</time>
      </trkpt>
      <trkpt lat="48.43368" lon="2.72832">
        <ele>117</ele>
        <time>2013-04-21T08:25:06Z</time>
      </trkpt>
      <trkpt lat="48.43368" lon="2.72833">
        <ele>117</ele>
        <time>2013-04-21T08:25:07Z</time>
      </trkpt>
      <trkpt lat="48.43368" lon="2.72833">
        <ele>117</ele>
        <time>2013-04-21T08:25:08Z</time>
      </trkpt>
      <trkpt lat="48.43368" lon="2.72833">
        <ele>117</ele>
        <time>2013-04-21T08:25:09Z</time>
      </trkpt>
      <trkpt lat="48.43368" lon="2.72833">
        <ele>117</ele>
        <time>2013-04-21T08:25:10Z</time>
      </trkpt>
      <trkpt lat="48.43368" lon="2.72834">
        <ele>116</ele>
        <time>2013-04-21T08:25:11Z</time>
      </trkpt>
      <trkpt lat="48.43368" lon="2.72834">
        <ele>116</ele>
        <time>2013-04-21T08:25:12Z</time>
      </trkpt>
      <trkpt lat="48.43368" lon="2.72834">
        <ele>116</ele>
        <time>2013-04-21T08:25:13Z</time>
      </trkpt>
      <trkpt lat="48.43368" lon="2.72834">
        <ele>116</ele>
        <time>2013-04-21T08:25:14Z</time>
      </trkpt>
      <trkpt lat="48.43367" lon="2.72835">
        <ele>116</ele>
        <time>2013-04-21T08:25:16Z</time>
      </trkpt>
      <trkpt lat="48.43367" lon="2.72836">
        <ele>116</ele>
        <time>2013-04-21T08:25:18Z</time>
      </trkpt>
      <trkpt lat="48.43367" lon="2.72837">
        <ele>116</ele>
        <time>2013-04-21T08:25:21Z</time>
      </trkpt>
      <trkpt lat="48.43367" lon="2.72837">
        <ele>116</ele>
        <time>2013-04-21T08:25:22Z</time>
      </trkpt>
      <trkpt lat="48.43367" lon="2.72838">
        <ele>116</ele>
        <time>2013-04-21T08:25:24Z</time>
      </trkpt>
      <trkpt lat="48.43367" lon="2.72839">
        <ele>116</ele>
        <time>2013-04-21T08:25:26Z</time>
      </trkpt>
      <trkpt lat="48.43366" lon="2.72839">
        <ele>116</ele>
        <time>2013-04-21T08:25:29Z</time>
      </trkpt>
      <trkpt lat="48.43366" lon="2.72841">
        <ele>116</ele>
        <time>2013-04-21T08:25:31Z</time>
      </trkpt>
      <trkpt lat="48.43367" lon="2.72841">
        <ele>116</ele>
        <time>2013-04-21T08:25:32Z</time>
      </trkpt>
      <trkpt lat="48.43366" lon="2.72842">
        <ele>116</ele>
        <time>2013-04-21T08:25:33Z</time>
      </trkpt>
      <trkpt lat="48.43366" lon="2.72843">
        <ele>116</ele>
        <time>2013-04-21T08:25:34Z</time>
      </trkpt>
      <trkpt lat="48.43366" lon="2.72844">
        <ele>116</ele>
        <time>2013-04-21T08:25:35Z</time>
      </trkpt>
      <trkpt lat="48.43366" lon="2.72845">
        <ele>116</ele>
        <time>2013-04-21T08:25:36Z</time>
      </trkpt>
      <trkpt lat="48.43366" lon="2.72845">
        <ele>116</ele>
        <time>2013-04-21T08:25:37Z</time>
      </trkpt>
      <trkpt lat="48.43365" lon="2.72848">
        <ele>116</ele>
        <time>2013-04-21T08:25:39Z</time>
      </trkpt>
      <trkpt lat="48.43365" lon="2.72849">
        <ele>116</ele>
        <time>2013-04-21T08:25:40Z</time>
      </trkpt>
      <trkpt lat="48.43365" lon="2.7285">
        <ele>116</ele>
        <time>2013-04-21T08:25:41Z</time>
      </trkpt>
      <trkpt lat="48.43365" lon="2.72851">
        <ele>116</ele>
        <time>2013-04-21T08:25:42Z</time>
      </trkpt>
      <trkpt lat="48.43365" lon="2.72851">
        <ele>116</ele>
        <time>2013-04-21T08:25:43Z</time>
      </trkpt>
      <trkpt lat="48.43364" lon="2.72853">
        <ele>116</ele>
        <time>2013-04-21T08:25:45Z</time>
      </trkpt>
      <trkpt lat="48.43364" lon="2.72855">
        <ele>116</ele>
        <time>2013-04-21T08:25:47Z</time>
      </trkpt>
      <trkpt lat="48.43363" lon="2.72858">
        <ele>116</ele>
        <time>2013-04-21T08:25:49Z</time>
      </trkpt>
      <trkpt lat="48.43363" lon="2.7286">
        <ele>116</ele>
        <time>2013-04-21T08:25:50Z</time>
      </trkpt>
      <trkpt lat="48.43363" lon="2.72863">
        <ele>116</ele>
        <time>2013-04-21T08:25:52Z</time>
      </trkpt>
      <trkpt lat="48.43363" lon="2.72867">
        <ele>116</ele>
        <time>2013-04-21T08:25:55Z</time>
      </trkpt>
      <trkpt lat="48.43363" lon="2.72867">
        <ele>116</ele>
        <time>2013-04-21T08:25:56Z</time>
      </trkpt>
      <trkpt lat="48.43363" lon="2.72867">
        <ele>116</ele>
        <time>2013-04-21T08:25:57Z</time>
      </trkpt>
      <trkpt lat="48.43363" lon="2.72868">
        <ele>116</ele>
        <time>2013-04-21T08:26:00Z</time>
      </trkpt>
      <trkpt lat="48.43362" lon="2.72873">
        <ele>116</ele>
        <time>2013-04-21T08:26:03Z</time>
      </trkpt>
      <trkpt lat="48.43362" lon="2.72875">
        <ele>116</ele>
        <time>2013-04-21T08:26:04Z</time>
      </trkpt>
      <trkpt lat="48.43363" lon="2.7288">
        <ele>115</ele>
        <time>2013-04-21T08:26:06Z</time>
      </trkpt>
      <trkpt lat="48.43362" lon="2.72883">
        <ele>115</ele>
        <time>2013-04-21T08:26:07Z</time>
      </trkpt>
      <trkpt lat="48.4336" lon="2.72884">
        <ele>115</ele>
        <time>2013-04-21T08:26:08Z</time>
      </trkpt>
      <trkpt lat="48.43357" lon="2.72891">
        <ele>115</ele>
        <time>2013-04-21T08:26:10Z</time>
      </trkpt>
      <trkpt lat="48.43356" lon="2.72895">
        <ele>115</ele>
        <time>2013-04-21T08:26:11Z</time>
      </trkpt>
      <trkpt lat="48.43359" lon="2.7291">
        <ele>115</ele>
        <time>2013-04-21T08:26:14Z</time>
      </trkpt>
      <trkpt lat="48.43358" lon="2.72919">
        <ele>114</ele>
        <time>2013-04-21T08:26:16Z</time>
      </trkpt>
      <trkpt lat="48.43358" lon="2.72924">
        <ele>114</ele>
        <time>2013-04-21T08:26:17Z</time>
      </trkpt>
      <trkpt lat="48.43357" lon="2.7293">
        <ele>113</ele>
        <time>2013-04-21T08:26:18Z</time>
      </trkpt>
      <trkpt lat="48.43354" lon="2.72945">
        <ele>113</ele>
        <time>2013-04-21T08:26:20Z</time>
      </trkpt>
      <trkpt lat="48.4334" lon="2.72982">
        <ele>114</ele>
        <time>2013-04-21T08:26:25Z</time>
      </trkpt>
      <trkpt lat="48.43339" lon="2.72988">
        <ele>114</ele>
        <time>2013-04-21T08:26:26Z</time>
      </trkpt>
      <trkpt lat="48.43338" lon="2.72999">
        <ele>115</ele>
        <time>2013-04-21T08:26:28Z</time>
      </trkpt>
      <trkpt lat="48.43337" lon="2.73003">
        <ele>114</ele>
        <time>2013-04-21T08:26:29Z</time>
      </trkpt>
      <trkpt lat="48.43335" lon="2.73007">
        <ele>114</ele>
        <time>2013-04-21T08:26:30Z</time>
      </trkpt>
      <trkpt lat="48.43331" lon="2.73011">
        <ele>114</ele>
        <time>2013-04-21T08:26:31Z</time>
      </trkpt>
      <trkpt lat="48.43322" lon="2.73017">
        <ele>114</ele>
        <time>2013-04-21T08:26:33Z</time>
      </trkpt>
      <trkpt lat="48.43319" lon="2.73021">
        <ele>114</ele>
        <time>2013-04-21T08:26:34Z</time>
      </trkpt>
      <trkpt lat="48.43309" lon="2.73036">
        <ele>113</ele>
        <time>2013-04-21T08:26:37Z</time>
      </trkpt>
      <trkpt lat="48.43308" lon="2.73039">
        <ele>113</ele>
        <time>2013-04-21T08:26:38Z</time>
      </trkpt>
      <trkpt lat="48.43308" lon="2.73041">
        <ele>113</ele>
        <time>2013-04-21T08:26:39Z</time>
      </trkpt>
      <trkpt lat="48.43309" lon="2.73042">
        <ele>113</ele>
        <time>2013-04-21T08:26:40Z</time>
      </trkpt>
      <trkpt lat="48.43309" lon="2.73044">
        <ele>114</ele>
        <time>2013-04-21T08:26:41Z</time>
      </trkpt>
      <trkpt lat="48.4331" lon="2.73047">
        <ele>114</ele>
        <time>2013-04-21T08:26:42Z</time>
      </trkpt>
      <trkpt lat="48.4331" lon="2.7305">
        <ele>114</ele>
        <time>2013-04-21T08:26:43Z</time>
      </trkpt>
      <trkpt lat="48.43309" lon="2.73055">
        <ele>114</ele>
        <time>2013-04-21T08:26:44Z</time>
      </trkpt>
      <trkpt lat="48.43306" lon="2.73059">
        <ele>114</ele>
        <time>2013-04-21T08:26:45Z</time>
      </trkpt>
      <trkpt lat="48.43303" lon="2.73062">
        <ele>113</ele>
        <time>2013-04-21T08:26:46Z</time>
      </trkpt>
      <trkpt lat="48.43296" lon="2.73066">
        <ele>113</ele>
        <time>2013-04-21T08:26:48Z</time>
      </trkpt>
      <trkpt lat="48.43293" lon="2.73069">
        <ele>113</ele>
        <time>2013-04-21T08:26:49Z</time>
      </trkpt>
      <trkpt lat="48.43284" lon="2.73099">
        <ele>112</ele>
        <time>2013-04-21T08:26:54Z</time>
      </trkpt>
      <trkpt lat="48.43283" lon="2.73107">
        <ele>112</ele>
        <time>2013-04-21T08:26:55Z</time>
      </trkpt>
      <trkpt lat="48.43287" lon="2.73151">
        <ele>112</ele>
        <time>2013-04-21T08:27:02Z</time>
      </trkpt>
      <trkpt lat="48.43287" lon="2.73156">
        <ele>112</ele>
        <time>2013-04-21T08:27:03Z</time>
      </trkpt>
      <trkpt lat="48.43289" lon="2.73161">
        <ele>112</ele>
        <time>2013-04-21T08:27:04Z</time>
      </trkpt>
      <trkpt lat="48.43294" lon="2.73167">
        <ele>111</ele>
        <time>2013-04-21T08:27:06Z</time>
      </trkpt>
      <trkpt lat="48.433" lon="2.73181">
        <ele>112</ele>
        <time>2013-04-21T08:27:09Z</time>
      </trkpt>
      <trkpt lat="48.43305" lon="2.73203">
        <ele>111</ele>
        <time>2013-04-21T08:27:12Z</time>
      </trkpt>
      <trkpt lat="48.43305" lon="2.73209">
        <ele>111</ele>
        <time>2013-04-21T08:27:13Z</time>
      </trkpt>
      <trkpt lat="48.43305" lon="2.73222">
        <ele>111</ele>
        <time>2013-04-21T08:27:15Z</time>
      </trkpt>
      <trkpt lat="48.43305" lon="2.73229">
        <ele>111</ele>
        <time>2013-04-21T08:27:16Z</time>
      </trkpt>
      <trkpt lat="48.43307" lon="2.73233">
        <ele>111</ele>
        <time>2013-04-21T08:27:17Z</time>
      </trkpt>
      <trkpt lat="48.43308" lon="2.73237">
        <ele>111</ele>
        <time>2013-04-21T08:27:18Z</time>
      </trkpt>
      <trkpt lat="48.43307" lon="2.73248">
        <ele>111</ele>
        <time>2013-04-21T08:27:21Z</time>
      </trkpt>
      <trkpt lat="48.43306" lon="2.73252">
        <ele>110</ele>
        <time>2013-04-21T08:27:22Z</time>
      </trkpt>
      <trkpt lat="48.43305" lon="2.73255">
        <ele>110</ele>
        <time>2013-04-21T08:27:23Z</time>
      </trkpt>
      <trkpt lat="48.43302" lon="2.73265">
        <ele>109</ele>
        <time>2013-04-21T08:27:25Z</time>
      </trkpt>
      <trkpt lat="48.43299" lon="2.73269">
        <ele>109</ele>
        <time>2013-04-21T08:27:26Z</time>
      </trkpt>
      <trkpt lat="48.43296" lon="2.73271">
        <ele>109</ele>
        <time>2013-04-21T08:27:27Z</time>
      </trkpt>
      <trkpt lat="48.43293" lon="2.73275">
        <ele>109</ele>
        <time>2013-04-21T08:27:28Z</time>
      </trkpt>
      <trkpt lat="48.43289" lon="2.73278">
        <ele>109</ele>
        <time>2013-04-21T08:27:29Z</time>
      </trkpt>
      <trkpt lat="48.43282" lon="2.7328">
        <ele>109</ele>
        <time>2013-04-21T08:27:31Z</time>
      </trkpt>
      <trkpt lat="48.43281" lon="2.7328">
        <ele>109</ele>
        <time>2013-04-21T08:27:32Z</time>
      </trkpt>
      <trkpt lat="48.43281" lon="2.73281">
        <ele>109</ele>
        <time>2013-04-21T08:27:33Z</time>
      </trkpt>
      <trkpt lat="48.43281" lon="2.73281">
        <ele>109</ele>
        <time>2013-04-21T08:27:34Z</time>
      </trkpt>
      <trkpt lat="48.43281" lon="2.73282">
        <ele>109</ele>
        <time>2013-04-21T08:27:35Z</time>
      </trkpt>
      <trkpt lat="48.4328" lon="2.73282">
        <ele>108</ele>
        <time>2013-04-21T08:27:36Z</time>
      </trkpt>
      <trkpt lat="48.4328" lon="2.73283">
        <ele>108</ele>
        <time>2013-04-21T08:27:37Z</time>
      </trkpt>
      <trkpt lat="48.4328" lon="2.73283">
        <ele>108</ele>
        <time>2013-04-21T08:27:38Z</time>
      </trkpt>
      <trkpt lat="48.4328" lon="2.73284">
        <ele>108</ele>
        <time>2013-04-21T08:27:39Z</time>
      </trkpt>
      <trkpt lat="48.43279" lon="2.73284">
        <ele>108</ele>
        <time>2013-04-21T08:27:40Z</time>
      </trkpt>
      <trkpt lat="48.43279" lon="2.73285">
        <ele>108</ele>
        <time>2013-04-21T08:27:41Z</time>
      </trkpt>
      <trkpt lat="48.43279" lon="2.73285">
        <ele>108</ele>
        <time>2013-04-21T08:27:42Z</time>
      </trkpt>
      <trkpt lat="48.43279" lon="2.73286">
        <ele>108</ele>
        <time>2013-04-21T08:27:43Z</time>
      </trkpt>
      <trkpt lat="48.43279" lon="2.73286">
        <ele>108</ele>
        <time>2013-04-21T08:27:44Z</time>
      </trkpt>
      <trkpt lat="48.43279" lon="2.73287">
        <ele>108</ele>
        <time>2013-04-21T08:27:45Z</time>
      </trkpt>
      <trkpt lat="48.43279" lon="2.73287">
        <ele>108</ele>
        <time>2013-04-21T08:27:46Z</time>
      </trkpt>
      <trkpt lat="48.43279" lon="2.73288">
        <ele>108</ele>
        <time>2013-04-21T08:27:47Z</time>
      </trkpt>
      <trkpt lat="48.43279" lon="2.73288">
        <ele>108</ele>
        <time>2013-04-21T08:27:48Z</time>
      </trkpt>
      <trkpt lat="48.43279" lon="2.73289">
        <ele>108</ele>
        <time>2013-04-21T08:27:49Z</time>
      </trkpt>
      <trkpt lat="48.43279" lon="2.73289">
        <ele>108</ele>
        <time>2013-04-21T08:27:50Z</time>
      </trkpt>
      <trkpt lat="48.43279" lon="2.73289">
        <ele>108</ele>
        <time>2013-04-21T08:27:51Z</time>
      </trkpt>
      <trkpt lat="48.43279" lon="2.7329">
        <ele>108</ele>
        <time>2013-04-21T08:27:52Z</time>
      </trkpt>
      <trkpt lat="48.43279" lon="2.7329">
        <ele>108</ele>
        <time>2013-04-21T08:27:53Z</time>
      </trkpt>
      <trkpt lat="48.43279" lon="2.73291">
        <ele>108</ele>
        <time>2013-04-21T08:27:54Z</time>
      </trkpt>
      <trkpt lat="48.43279" lon="2.73291">
        <ele>108</ele>
        <time>2013-04-21T08:27:55Z</time>
      </trkpt>
      <trkpt lat="48.43279" lon="2.73291">
        <ele>108</ele>
        <time>2013-04-21T08:27:56Z</time>
      </trkpt>
      <trkpt lat="48.43279" lon="2.73292">
        <ele>108</ele>
        <time>2013-04-21T08:27:57Z</time>
      </trkpt>
      <trkpt lat="48.43279" lon="2.73292">
        <ele>108</ele>
        <time>2013-04-21T08:27:58Z</time>
      </trkpt>
      <trkpt lat="48.43279" lon="2.73292">
        <ele>108</ele>
        <time>2013-04-21T08:27:59Z</time>
      </trkpt>
      <trkpt lat="48.43279" lon="2.73293">
        <ele>108</ele>
        <time>2013-04-21T08:28:00Z</time>
      </trkpt>
      <trkpt lat="48.43279" lon="2.73293">
        <ele>108</ele>
        <time>2013-04-21T08:28:01Z</time>
      </trkpt>
      <trkpt lat="48.4328" lon="2.73293">
        <ele>108</ele>
        <time>2013-04-21T08:28:02Z</time>
      </trkpt>
      <trkpt lat="48.4328" lon="2.73294">
        <ele>108</ele>
        <time>2013-04-21T08:28:03Z</time>
      </trkpt>
      <trkpt lat="48.4328" lon="2.73294">
        <ele>108</ele>
        <time>2013-04-21T08:28:04Z</time>
      </trkpt>
      <trkpt lat="48.4328" lon="2.73294">
        <ele>108</ele>
        <time>2013-04-21T08:28:05Z</time>
      </trkpt>
      <trkpt lat="48.4328" lon="2.73294">
        <ele>108</ele>
        <time>2013-04-21T08:28:06Z</time>
      </trkpt>
      <trkpt lat="48.4328" lon="2.73295">
        <ele>108</ele>
        <time>2013-04-21T08:28:07Z</time>
      </trkpt>
      <trkpt lat="48.4328" lon="2.73295">
        <ele>108</ele>
        <time>2013-04-21T08:28:08Z</time>
      </trkpt>
      <trkpt lat="48.4328" lon="2.73295">
        <ele>108</ele>
        <time>2013-04-21T08:28:09Z</time>
      </trkpt>
      <trkpt lat="48.4328" lon="2.73295">
        <ele>108</ele>
        <time>2013-04-21T08:28:10Z</time>
      </trkpt>
      <trkpt lat="48.4328" lon="2.73295">
        <ele>108</ele>
        <time>2013-04-21T08:28:11Z</time>
      </trkpt>
      <trkpt lat="48.43281" lon="2.73296">
        <ele>108</ele>
        <time>2013-04-21T08:28:12Z</time>
      </trkpt>
      <trkpt lat="48.43281" lon="2.73296">
        <ele>108</ele>
        <time>2013-04-21T08:28:13Z</time>
      </trkpt>
      <trkpt lat="48.43281" lon="2.73296">
        <ele>108</ele>
        <time>2013-04-21T08:28:14Z</time>
      </trkpt>
      <trkpt lat="48.43281" lon="2.73296">
        <ele>108</ele>
        <time>2013-04-21T08:28:15Z</time>
      </trkpt>
      <trkpt lat="48.43281" lon="2.73296">
        <ele>108</ele>
        <time>2013-04-21T08:28:16Z</time>
      </trkpt>
      <trkpt lat="48.43281" lon="2.73297">
        <ele>108</ele>
        <time>2013-04-21T08:28:17Z</time>
      </trkpt>
      <trkpt lat="48.43281" lon="2.73297">
        <ele>108</ele>
        <time>2013-04-21T08:28:18Z</time>
      </trkpt>
      <trkpt lat="48.43281" lon="2.73297">
        <ele>108</ele>
        <time>2013-04-21T08:28:19Z</time>
      </trkpt>
      <trkpt lat="48.4328" lon="2.73298">
        <ele>108</ele>
        <time>2013-04-21T08:28:21Z</time>
      </trkpt>
      <trkpt lat="48.4328" lon="2.73298">
        <ele>108</ele>
        <time>2013-04-21T08:28:22Z</time>
      </trkpt>
      <trkpt lat="48.4328" lon="2.73298">
        <ele>108</ele>
        <time>2013-04-21T08:28:23Z</time>
      </trkpt>
      <trkpt lat="48.4328" lon="2.73298">
        <ele>108</ele>
        <time>2013-04-21T08:28:25Z</time>
      </trkpt>
      <trkpt lat="48.4328" lon="2.73298">
        <ele>108</ele>
        <time>2013-04-21T08:28:26Z</time>
      </trkpt>
      <trkpt lat="48.4328" lon="2.73298">
        <ele>108</ele>
        <time>2013-04-21T08:28:27Z</time>
      </trkpt>
      <trkpt lat="48.4328" lon="2.73298">
        <ele>108</ele>
        <time>2013-04-21T08:28:28Z</time>
      </trkpt>
      <trkpt lat="48.4328" lon="2.73298">
        <ele>108</ele>
        <time>2013-04-21T08:28:29Z</time>
      </trkpt>
      <trkpt lat="48.4328" lon="2.73298">
        <ele>108</ele>
        <time>2013-04-21T08:28:32Z</time>
      </trkpt>
      <trkpt lat="48.4328" lon="2.73299">
        <ele>108</ele>
        <time>2013-04-21T08:28:34Z</time>
      </trkpt>
      <trkpt lat="48.43281" lon="2.73299">
        <ele>108</ele>
        <time>2013-04-21T08:28:35Z</time>
      </trkpt>
      <trkpt lat="48.4328" lon="2.73299">
        <ele>108</ele>
        <time>2013-04-21T08:28:36Z</time>
      </trkpt>
      <trkpt lat="48.4328" lon="2.73299">
        <ele>108</ele>
        <time>2013-04-21T08:28:41Z</time>
      </trkpt>
      <trkpt lat="48.4328" lon="2.73299">
        <ele>108</ele>
        <time>2013-04-21T08:28:42Z</time>
      </trkpt>
      <trkpt lat="48.4328" lon="2.73299">
        <ele>108</ele>
        <time>2013-04-21T08:28:48Z</time>
      </trkpt>
      <trkpt lat="48.4328" lon="2.73299">
        <ele>108</ele>
        <time>2013-04-21T08:28:57Z</time>
      </trkpt>
      <trkpt lat="48.43279" lon="2.73299">
        <ele>108</ele>
        <time>2013-04-21T08:29:11Z</time>
      </trkpt>
      <trkpt lat="48.43277" lon="2.73299">
        <ele>108</ele>
        <time>2013-04-21T08:29:12Z</time>
      </trkpt>
      <trkpt lat="48.43275" lon="2.733">
        <ele>108</ele>
        <time>2013-04-21T08:29:13Z</time>
      </trkpt>
      <trkpt lat="48.43274" lon="2.73301">
        <ele>108</ele>
        <time>2013-04-21T08:29:14Z</time>
      </trkpt>
      <trkpt lat="48.43274" lon="2.73301">
        <ele>108</ele>
        <time>2013-04-21T08:29:15Z</time>
      </trkpt>
      <trkpt lat="48.4327" lon="2.73302">
        <ele>108</ele>
        <time>2013-04-21T08:29:17Z</time>
      </trkpt>
      <trkpt lat="48.43258" lon="2.73298">
        <ele>108</ele>
        <time>2013-04-21T08:29:20Z</time>
      </trkpt>
      <trkpt lat="48.43255" lon="2.73298">
        <ele>108</ele>
        <time>2013-04-21T08:29:21Z</time>
      </trkpt>
      <trkpt lat="48.43253" lon="2.73299">
        <ele>108</ele>
        <time>2013-04-21T08:29:22Z</time>
      </trkpt>
      <trkpt lat="48.43252" lon="2.73301">
        <ele>108</ele>
        <time>2013-04-21T08:29:23Z</time>
      </trkpt>
      <trkpt lat="48.43252" lon="2.73303">
        <ele>108</ele>
        <time>2013-04-21T08:29:24Z</time>
      </trkpt>
      <trkpt lat="48.43253" lon="2.73309">
        <ele>108</ele>
        <time>2013-04-21T08:29:26Z</time>
      </trkpt>
      <trkpt lat="48.43253" lon="2.73319">
        <ele>108</ele>
        <time>2013-04-21T08:29:29Z</time>
      </trkpt>
      <trkpt lat="48.43257" lon="2.73343">
        <ele>107</ele>
        <time>2013-04-21T08:29:34Z</time>
      </trkpt>
      <trkpt lat="48.43258" lon="2.73353">
        <ele>106</ele>
        <time>2013-04-21T08:29:35Z</time>
      </trkpt>
      <trkpt lat="48.43257" lon="2.7336">
        <ele>106</ele>
        <time>2013-04-21T08:29:36Z</time>
      </trkpt>
      <trkpt lat="48.43255" lon="2.73368">
        <ele>106</ele>
        <time>2013-04-21T08:29:37Z</time>
      </trkpt>
      <trkpt lat="48.43255" lon="2.73373">
        <ele>106</ele>
        <time>2013-04-21T08:29:38Z</time>
      </trkpt>
      <trkpt lat="48.43262" lon="2.73389">
        <ele>106</ele>
        <time>2013-04-21T08:29:41Z</time>
      </trkpt>
      <trkpt lat="48.43264" lon="2.73396">
        <ele>106</ele>
        <time>2013-04-21T08:29:42Z</time>
      </trkpt>
      <trkpt lat="48.43265" lon="2.73404">
        <ele>106</ele>
        <time>2013-04-21T08:29:43Z</time>
      </trkpt>
      <trkpt lat="48.43263" lon="2.7342">
        <ele>104</ele>
        <time>2013-04-21T08:29:45Z</time>
      </trkpt>
      <trkpt lat="48.43263" lon="2.73443">
        <ele>103</ele>
        <time>2013-04-21T08:29:48Z</time>
      </trkpt>
      <trkpt lat="48.43263" lon="2.73452">
        <ele>103</ele>
        <time>2013-04-21T08:29:49Z</time>
      </trkpt>
      <trkpt lat="48.43262" lon="2.73478">
        <ele>102</ele>
        <time>2013-04-21T08:29:52Z</time>
      </trkpt>
      <trkpt lat="48.4326" lon="2.73484">
        <ele>102</ele>
        <time>2013-04-21T08:29:53Z</time>
      </trkpt>
      <trkpt lat="48.43257" lon="2.73487">
        <ele>102</ele>
        <time>2013-04-21T08:29:54Z</time>
      </trkpt>
      <trkpt lat="48.4325" lon="2.73492">
        <ele>102</ele>
        <time>2013-04-21T08:29:56Z</time>
      </trkpt>
      <trkpt lat="48.43247" lon="2.73495">
        <ele>101</ele>
        <time>2013-04-21T08:29:57Z</time>
      </trkpt>
      <trkpt lat="48.43246" lon="2.735">
        <ele>101</ele>
        <time>2013-04-21T08:29:58Z</time>
      </trkpt>
      <trkpt lat="48.43244" lon="2.73506">
        <ele>101</ele>
        <time>2013-04-21T08:29:59Z</time>
      </trkpt>
      <trkpt lat="48.43243" lon="2.73512">
        <ele>101</ele>
        <time>2013-04-21T08:30:00Z</time>
      </trkpt>
      <trkpt lat="48.43244" lon="2.73518">
        <ele>101</ele>
        <time>2013-04-21T08:30:01Z</time>
      </trkpt>
      <trkpt lat="48.43246" lon="2.73524">
        <ele>101</ele>
        <time>2013-04-21T08:30:02Z</time>
      </trkpt>
      <trkpt lat="48.43249" lon="2.73528">
        <ele>101</ele>
        <time>2013-04-21T08:30:03Z</time>
      </trkpt>
      <trkpt lat="48.43266" lon="2.73545">
        <ele>100</ele>
        <time>2013-04-21T08:30:07Z</time>
      </trkpt>
      <trkpt lat="48.43274" lon="2.73556">
        <ele>100</ele>
        <time>2013-04-21T08:30:09Z</time>
      </trkpt>
      <trkpt lat="48.43299" lon="2.7357">
        <ele>100</ele>
        <time>2013-04-21T08:30:15Z</time>
      </trkpt>
      <trkpt lat="48.43302" lon="2.7357">
        <ele>100</ele>
        <time>2013-04-21T08:30:16Z</time>
      </trkpt>
      <trkpt lat="48.43305" lon="2.73569">
        <ele>100</ele>
        <time>2013-04-21T08:30:17Z</time>
      </trkpt>
      <trkpt lat="48.43308" lon="2.7357">
        <ele>100</ele>
        <time>2013-04-21T08:30:18Z</time>
      </trkpt>
      <trkpt lat="48.4331" lon="2.73571">
        <ele>99</ele>
        <time>2013-04-21T08:30:19Z</time>
      </trkpt>
      <trkpt lat="48.43321" lon="2.7358">
        <ele>99</ele>
        <time>2013-04-21T08:30:23Z</time>
      </trkpt>
      <trkpt lat="48.43337" lon="2.73588">
        <ele>99</ele>
        <time>2013-04-21T08:30:27Z</time>
      </trkpt>
      <trkpt lat="48.43341" lon="2.73593">
        <ele>99</ele>
        <time>2013-04-21T08:30:28Z</time>
      </trkpt>
      <trkpt lat="48.43367" lon="2.73634">
        <ele>99</ele>
        <time>2013-04-21T08:30:35Z</time>
      </trkpt>
      <trkpt lat="48.43372" lon="2.73648">
        <ele>99</ele>
        <time>2013-04-21T08:30:37Z</time>
      </trkpt>
      <trkpt lat="48.43374" lon="2.73655">
        <ele>99</ele>
        <time>2013-04-21T08:30:38Z</time>
      </trkpt>
      <trkpt lat="48.43374" lon="2.73669">
        <ele>98</ele>
        <time>2013-04-21T08:30:40Z</time>
      </trkpt>
      <trkpt lat="48.43376" lon="2.73684">
        <ele>98</ele>
        <time>2013-04-21T08:30:42Z</time>
      </trkpt>
      <trkpt lat="48.43384" lon="2.73727">
        <ele>97</ele>
        <time>2013-04-21T08:30:47Z</time>
      </trkpt>
      <trkpt lat="48.43384" lon="2.73735">
        <ele>97</ele>
        <time>2013-04-21T08:30:48Z</time>
      </trkpt>
      <trkpt lat="48.43382" lon="2.73759">
        <ele>95</ele>
        <time>2013-04-21T08:30:51Z</time>
      </trkpt>
      <trkpt lat="48.43381" lon="2.73765">
        <ele>95</ele>
        <time>2013-04-21T08:30:52Z</time>
      </trkpt>
      <trkpt lat="48.43378" lon="2.73769">
        <ele>95</ele>
        <time>2013-04-21T08:30:53Z</time>
      </trkpt>
      <trkpt lat="48.43376" lon="2.73772">
        <ele>95</ele>
        <time>2013-04-21T08:30:54Z</time>
      </trkpt>
      <trkpt lat="48.43368" lon="2.73773">
        <ele>95</ele>
        <time>2013-04-21T08:30:56Z</time>
      </trkpt>
      <trkpt lat="48.43321" lon="2.73761">
        <ele>95</ele>
        <time>2013-04-21T08:31:13Z</time>
      </trkpt>
      <trkpt lat="48.43321" lon="2.73761">
        <ele>95</ele>
        <time>2013-04-21T08:31:14Z</time>
      </trkpt>
      <trkpt lat="48.43321" lon="2.73761">
        <ele>95</ele>
        <time>2013-04-21T08:31:15Z</time>
      </trkpt>
      <trkpt lat="48.43321" lon="2.73762">
        <ele>95</ele>
        <time>2013-04-21T08:31:16Z</time>
      </trkpt>
      <trkpt lat="48.43321" lon="2.73762">
        <ele>95</ele>
        <time>2013-04-21T08:31:17Z</time>
      </trkpt>
      <trkpt lat="48.43321" lon="2.73762">
        <ele>95</ele>
        <time>2013-04-21T08:31:18Z</time>
      </trkpt>
      <trkpt lat="48.43321" lon="2.73762">
        <ele>95</ele>
        <time>2013-04-21T08:31:19Z</time>
      </trkpt>
      <trkpt lat="48.4332" lon="2.73762">
        <ele>95</ele>
        <time>2013-04-21T08:31:20Z</time>
      </trkpt>
      <trkpt lat="48.4332" lon="2.73763">
        <ele>95</ele>
        <time>2013-04-21T08:31:21Z</time>
      </trkpt>
      <trkpt lat="48.4332" lon="2.73763">
        <ele>95</ele>
        <time>2013-04-21T08:31:22Z</time>
      </trkpt>
      <trkpt lat="48.4332" lon="2.73763">
        <ele>95</ele>
        <time>2013-04-21T08:31:23Z</time>
      </trkpt>
      <trkpt lat="48.4332" lon="2.73763">
        <ele>95</ele>
        <time>2013-04-21T08:31:24Z</time>
      </trkpt>
      <trkpt lat="48.4332" lon="2.73764">
        <ele>95</ele>
        <time>2013-04-21T08:31:25Z</time>
      </trkpt>
      <trkpt lat="48.4332" lon="2.73764">
        <ele>95</ele>
        <time>2013-04-21T08:31:26Z</time>
      </trkpt>
      <trkpt lat="48.4332" lon="2.73764">
        <ele>95</ele>
        <time>2013-04-21T08:31:27Z</time>
      </trkpt>
      <trkpt lat="48.4332" lon="2.73765">
        <ele>95</ele>
        <time>2013-04-21T08:31:28Z</time>
      </trkpt>
      <trkpt lat="48.4332" lon="2.73765">
        <ele>94</ele>
        <time>2013-04-21T08:31:29Z</time>
      </trkpt>
      <trkpt lat="48.4332" lon="2.73765">
        <ele>94</ele>
        <time>2013-04-21T08:31:30Z</time>
      </trkpt>
      <trkpt lat="48.4332" lon="2.73765">
        <ele>94</ele>
        <time>2013-04-21T08:31:31Z</time>
      </trkpt>
      <trkpt lat="48.43319" lon="2.73766">
        <ele>94</ele>
        <time>2013-04-21T08:31:32Z</time>
      </trkpt>
      <trkpt lat="48.43319" lon="2.73766">
        <ele>94</ele>
        <time>2013-04-21T08:31:33Z</time>
      </trkpt>
      <trkpt lat="48.43319" lon="2.73766">
        <ele>94</ele>
        <time>2013-04-21T08:31:34Z</time>
      </trkpt>
      <trkpt lat="48.43319" lon="2.73766">
        <ele>94</ele>
        <time>2013-04-21T08:31:35Z</time>
      </trkpt>
      <trkpt lat="48.43319" lon="2.73766">
        <ele>94</ele>
        <time>2013-04-21T08:31:36Z</time>
      </trkpt>
      <trkpt lat="48.43319" lon="2.73767">
        <ele>94</ele>
        <time>2013-04-21T08:31:37Z</time>
      </trkpt>
      <trkpt lat="48.43318" lon="2.73767">
        <ele>94</ele>
        <time>2013-04-21T08:31:38Z</time>
      </trkpt>
      <trkpt lat="48.43317" lon="2.73767">
        <ele>94</ele>
        <time>2013-04-21T08:31:39Z</time>
      </trkpt>
      <trkpt lat="48.43316" lon="2.73767">
        <ele>94</ele>
        <time>2013-04-21T08:31:40Z</time>
      </trkpt>
      <trkpt lat="48.43252" lon="2.7375">
        <ele>94</ele>
        <time>2013-04-21T08:32:00Z</time>
      </trkpt>
      <trkpt lat="48.43219" lon="2.73747">
        <ele>95</ele>
        <time>2013-04-21T08:32:07Z</time>
      </trkpt>
      <trkpt lat="48.4318" lon="2.73734">
        <ele>94</ele>
        <time>2013-04-21T08:32:15Z</time>
      </trkpt>
      <trkpt lat="48.43177" lon="2.7373">
        <ele>95</ele>
        <time>2013-04-21T08:32:16Z</time>
      </trkpt>
      <trkpt lat="48.43176" lon="2.73725">
        <ele>95</ele>
        <time>2013-04-21T08:32:17Z</time>
      </trkpt>
      <trkpt lat="48.43176" lon="2.73706">
        <ele>96</ele>
        <time>2013-04-21T08:32:21Z</time>
      </trkpt>
      <trkpt lat="48.43175" lon="2.73701">
        <ele>96</ele>
        <time>2013-04-21T08:32:22Z</time>
      </trkpt>
      <trkpt lat="48.43175" lon="2.73692">
        <ele>97</ele>
        <time>2013-04-21T08:32:24Z</time>
      </trkpt>
      <trkpt lat="48.43176" lon="2.73688">
        <ele>97</ele>
        <time>2013-04-21T08:32:25Z</time>
      </trkpt>
      <trkpt lat="48.43175" lon="2.73385">
        <ele>104</ele>
        <time>2013-04-21T08:33:22Z</time>
      </trkpt>
      <trkpt lat="48.43176" lon="2.7338">
        <ele>104</ele>
        <time>2013-04-21T08:33:23Z</time>
      </trkpt>
      <trkpt lat="48.43176" lon="2.7326">
        <ele>106</ele>
        <time>2013-04-21T08:33:47Z</time>
      </trkpt>
      <trkpt lat="48.43177" lon="2.73159">
        <ele>108</ele>
        <time>2013-04-21T08:34:06Z</time>
      </trkpt>
      <trkpt lat="48.43176" lon="2.73117">
        <ele>108</ele>
        <time>2013-04-21T08:34:13Z</time>
      </trkpt>
      <trkpt lat="48.43177" lon="2.73112">
        <ele>108</ele>
        <time>2013-04-21T08:34:14Z</time>
      </trkpt>
      <trkpt lat="48.43178" lon="2.73108">
        <ele>108</ele>
        <time>2013-04-21T08:34:15Z</time>
      </trkpt>
      <trkpt lat="48.43178" lon="2.73104">
        <ele>108</ele>
        <time>2013-04-21T08:34:16Z</time>
      </trkpt>
      <trkpt lat="48.43176" lon="2.7274">
        <ele>111</ele>
        <time>2013-04-21T08:35:22Z</time>
      </trkpt>
      <trkpt lat="48.43176" lon="2.72736">
        <ele>111</ele>
        <time>2013-04-21T08:35:23Z</time>
      </trkpt>
      <trkpt lat="48.43179" lon="2.72624">
        <ele>115</ele>
        <time>2013-04-21T08:35:50Z</time>
      </trkpt>
      <trkpt lat="48.43181" lon="2.72613">
        <ele>116</ele>
        <time>2013-04-21T08:35:54Z</time>
      </trkpt>
      <trkpt lat="48.43181" lon="2.7261">
        <ele>116</ele>
        <time>2013-04-21T08:35:55Z</time>
      </trkpt>
      <trkpt lat="48.43186" lon="2.72586">
        <ele>116</ele>
        <time>2013-04-21T08:36:02Z</time>
      </trkpt>
      <trkpt lat="48.43187" lon="2.72582">
        <ele>118</ele>
        <time>2013-04-21T08:36:03Z</time>
      </trkpt>
      <trkpt lat="48.43257" lon="2.72467">
        <ele>121</ele>
        <time>2013-04-21T08:36:38Z</time>
      </trkpt>
      <trkpt lat="48.43259" lon="2.72465">
        <ele>121</ele>
        <time>2013-04-21T08:36:39Z</time>
      </trkpt>
      <trkpt lat="48.43276" lon="2.72451">
        <ele>122</ele>
        <time>2013-04-21T08:36:46Z</time>
      </trkpt>
      <trkpt lat="48.43281" lon="2.72448">
        <ele>122</ele>
        <time>2013-04-21T08:36:48Z</time>
      </trkpt>
      <trkpt lat="48.43286" lon="2.72448">
        <ele>123</ele>
        <time>2013-04-21T08:36:50Z</time>
      </trkpt>
      <trkpt lat="48.43294" lon="2.72448">
        <ele>123</ele>
        <time>2013-04-21T08:36:53Z</time>
      </trkpt>
      <trkpt lat="48.43298" lon="2.72449">
        <ele>123</ele>
        <time>2013-04-21T08:36:55Z</time>
      </trkpt>
      <trkpt lat="48.43308" lon="2.72456">
        <ele>123</ele>
        <time>2013-04-21T08:37:00Z</time>
      </trkpt>
      <trkpt lat="48.43314" lon="2.72462">
        <ele>123</ele>
        <time>2013-04-21T08:37:04Z</time>
      </trkpt>
      <trkpt lat="48.43323" lon="2.72473">
        <ele>123</ele>
        <time>2013-04-21T08:37:11Z</time>
      </trkpt>
      <trkpt lat="48.43329" lon="2.72484">
        <ele>123</ele>
        <time>2013-04-21T08:37:16Z</time>
      </trkpt>
      <trkpt lat="48.43339" lon="2.72509">
        <ele>125</ele>
        <time>2013-04-21T08:37:26Z</time>
      </trkpt>
      <trkpt lat="48.4334" lon="2.72514">
        <ele>125</ele>
        <time>2013-04-21T08:37:28Z</time>
      </trkpt>
      <trkpt lat="48.43345" lon="2.72543">
        <ele>125</ele>
        <time>2013-04-21T08:37:39Z</time>
      </trkpt>
      <trkpt lat="48.43345" lon="2.72546">
        <ele>125</ele>
        <time>2013-04-21T08:37:40Z</time>
      </trkpt>
      <trkpt lat="48.43347" lon="2.7256">
        <ele>125</ele>
        <time>2013-04-21T08:37:45Z</time>
      </trkpt>
      <trkpt lat="48.43347" lon="2.72566">
        <ele>124</ele>
        <time>2013-04-21T08:37:47Z</time>
      </trkpt>
      <trkpt lat="48.43348" lon="2.72571">
        <ele>124</ele>
        <time>2013-04-21T08:37:49Z</time>
      </trkpt>
      <trkpt lat="48.43354" lon="2.7263">
        <ele>123</ele>
        <time>2013-04-21T08:38:09Z</time>
      </trkpt>
      <trkpt lat="48.43355" lon="2.72638">
        <ele>123</ele>
        <time>2013-04-21T08:38:12Z</time>
      </trkpt>
      <trkpt lat="48.4336" lon="2.72651">
        <ele>123</ele>
        <time>2013-04-21T08:38:17Z</time>
      </trkpt>
      <trkpt lat="48.43364" lon="2.72658">
        <ele>123</ele>
        <time>2013-04-21T08:38:20Z</time>
      </trkpt>
      <trkpt lat="48.43369" lon="2.72663">
        <ele>123</ele>
        <time>2013-04-21T08:38:23Z</time>
      </trkpt>
      <trkpt lat="48.43371" lon="2.72665">
        <ele>123</ele>
        <time>2013-04-21T08:38:24Z</time>
      </trkpt>
      <trkpt lat="48.43375" lon="2.72666">
        <ele>124</ele>
        <time>2013-04-21T08:38:26Z</time>
      </trkpt>
      <trkpt lat="48.43377" lon="2.72666">
        <ele>124</ele>
        <time>2013-04-21T08:38:27Z</time>
      </trkpt>
      <trkpt lat="48.43379" lon="2.72666">
        <ele>124</ele>
        <time>2013-04-21T08:38:28Z</time>
      </trkpt>
      <trkpt lat="48.43381" lon="2.72665">
        <ele>124</ele>
        <time>2013-04-21T08:38:29Z</time>
      </trkpt>
      <trkpt lat="48.43385" lon="2.72662">
        <ele>124</ele>
        <time>2013-04-21T08:38:31Z</time>
      </trkpt>
      <trkpt lat="48.43392" lon="2.72654">
        <ele>124</ele>
        <time>2013-04-21T08:38:35Z</time>
      </trkpt>
      <trkpt lat="48.43399" lon="2.72639">
        <ele>125</ele>
        <time>2013-04-21T08:38:41Z</time>
      </trkpt>
      <trkpt lat="48.434" lon="2.72636">
        <ele>125</ele>
        <time>2013-04-21T08:38:42Z</time>
      </trkpt>
      <trkpt lat="48.43401" lon="2.72628">
        <ele>125</ele>
        <time>2013-04-21T08:38:45Z</time>
      </trkpt>
      <trkpt lat="48.43401" lon="2.72616">
        <ele>125</ele>
        <time>2013-04-21T08:38:49Z</time>
      </trkpt>
      <trkpt lat="48.43398" lon="2.72604">
        <ele>125</ele>
        <time>2013-04-21T08:38:53Z</time>
      </trkpt>
      <trkpt lat="48.43397" lon="2.72601">
        <ele>125</ele>
        <time>2013-04-21T08:38:54Z</time>
      </trkpt>
      <trkpt lat="48.43393" lon="2.72597">
        <ele>125</ele>
        <time>2013-04-21T08:38:56Z</time>
      </trkpt>
      <trkpt lat="48.43392" lon="2.72595">
        <ele>125</ele>
        <time>2013-04-21T08:38:57Z</time>
      </trkpt>
      <trkpt lat="48.4339" lon="2.72594">
        <ele>125</ele>
        <time>2013-04-21T08:38:58Z</time>
      </trkpt>
      <trkpt lat="48.43388" lon="2.72594">
        <ele>125</ele>
        <time>2013-04-21T08:38:59Z</time>
      </trkpt>
      <trkpt lat="48.43383" lon="2.72594">
        <ele>125</ele>
        <time>2013-04-21T08:39:02Z</time>
      </trkpt>
      <trkpt lat="48.43382" lon="2.72594">
        <ele>125</ele>
        <time>2013-04-21T08:39:03Z</time>
      </trkpt>
      <trkpt lat="48.4338" lon="2.72593">
        <ele>125</ele>
        <time>2013-04-21T08:39:04Z</time>
      </trkpt>
      <trkpt lat="48.43378" lon="2.72589">
        <ele>124</ele>
        <time>2013-04-21T08:39:06Z</time>
      </trkpt>
      <trkpt lat="48.43377" lon="2.72589">
        <ele>124</ele>
        <time>2013-04-21T08:39:07Z</time>
      </trkpt>
      <trkpt lat="48.43377" lon="2.7259">
        <ele>124</ele>
        <time>2013-04-21T08:39:09Z</time>
      </trkpt>
      <trkpt lat="48.43376" lon="2.7259">
        <ele>124</ele>
        <time>2013-04-21T08:39:10Z</time>
      </trkpt>
      <trkpt lat="48.43376" lon="2.7259">
        <ele>124</ele>
        <time>2013-04-21T08:39:11Z</time>
      </trkpt>
      <trkpt lat="48.43376" lon="2.72589">
        <ele>124</ele>
        <time>2013-04-21T08:39:14Z</time>
      </trkpt>
      <trkpt lat="48.43376" lon="2.72589">
        <ele>124</ele>
        <time>2013-04-21T08:39:19Z</time>
      </trkpt>
      <trkpt lat="48.43376" lon="2.72589">
        <ele>124</ele>
        <time>2013-04-21T08:39:28Z</time>
      </trkpt>
      <trkpt lat="48.43376" lon="2.72589">
        <ele>124</ele>
        <time>2013-04-21T08:39:29Z</time>
      </trkpt>
      <trkpt lat="48.43376" lon="2.72589">
        <ele>124</ele>
        <time>2013-04-21T08:39:30Z</time>
      </trkpt>
      <trkpt lat="48.43376" lon="2.72589">
        <ele>124</ele>
        <time>2013-04-21T08:39:33Z</time>
      </trkpt>
      <trkpt lat="48.43376" lon="2.7259">
        <ele>124</ele>
        <time>2013-04-21T08:39:41Z</time>
      </trkpt>
      <trkpt lat="48.43376" lon="2.7259">
        <ele>124</ele>
        <time>2013-04-21T08:39:48Z</time>
      </trkpt>
      <trkpt lat="48.43376" lon="2.7259">
        <ele>124</ele>
        <time>2013-04-21T08:39:56Z</time>
      </trkpt>
      <trkpt lat="48.43376" lon="2.7259">
        <ele>124</ele>
        <time>2013-04-21T08:40:15Z</time>
      </trkpt>
      <trkpt lat="48.43376" lon="2.7259">
        <ele>124</ele>
        <time>2013-04-21T08:40:17Z</time>
      </trkpt>
      <trkpt lat="48.43376" lon="2.7259">
        <ele>124</ele>
        <time>2013-04-21T08:40:18Z</time>
      </trkpt>
      <trkpt lat="48.43376" lon="2.7259">
        <ele>124</ele>
        <time>2013-04-21T08:40:23Z</time>
      </trkpt>
      <trkpt lat="48.43376" lon="2.7259">
        <ele>124</ele>
        <time>2013-04-21T08:40:26Z</time>
      </trkpt>
      <trkpt lat="48.43376" lon="2.7259">
        <ele>124</ele>
        <time>2013-04-21T08:40:29Z</time>
      </trkpt>
      <trkpt lat="48.43375" lon="2.7259">
        <ele>124</ele>
        <time>2013-04-21T08:40:30Z</time>
      </trkpt>
      <trkpt lat="48.43375" lon="2.7259">
        <ele>124</ele>
        <time>2013-04-21T08:40:32Z</time>
      </trkpt>
      <trkpt lat="48.43375" lon="2.7259">
        <ele>124</ele>
        <time>2013-04-21T08:40:34Z</time>
      </trkpt>
      <trkpt lat="48.43375" lon="2.7259">
        <ele>124</ele>
        <time>2013-04-21T08:40:36Z</time>
      </trkpt>
      <trkpt lat="48.43375" lon="2.7259">
        <ele>124</ele>
        <time>2013-04-21T08:40:38Z</time>
      </trkpt>
      <trkpt lat="48.43375" lon="2.7259">
        <ele>124</ele>
        <time>2013-04-21T08:40:41Z</time>
      </trkpt>
      <trkpt lat="48.43375" lon="2.7259">
        <ele>124</ele>
        <time>2013-04-21T08:40:42Z</time>
      </trkpt>
      <trkpt lat="48.43374" lon="2.7259">
        <ele>124</ele>
        <time>2013-04-21T08:40:43Z</time>
      </trkpt>
      <trkpt lat="48.43374" lon="2.7259">
        <ele>124</ele>
        <time>2013-04-21T08:40:46Z</time>
      </trkpt>
      <trkpt lat="48.43374" lon="2.7259">
        <ele>124</ele>
        <time>2013-04-21T08:40:49Z</time>
      </trkpt>
      <trkpt lat="48.43374" lon="2.7259">
        <ele>124</ele>
        <time>2013-04-21T08:40:54Z</time>
      </trkpt>
      <trkpt lat="48.43374" lon="2.7259">
        <ele>124</ele>
        <time>2013-04-21T08:41:09Z</time>
      </trkpt>
      <trkpt lat="48.43374" lon="2.7259">
        <ele>124</ele>
        <time>2013-04-21T08:41:15Z</time>
      </trkpt>
      <trkpt lat="48.43374" lon="2.7259">
        <ele>124</ele>
        <time>2013-04-21T08:41:20Z</time>
      </trkpt>
      <trkpt lat="48.43375" lon="2.7259">
        <ele>124</ele>
        <time>2013-04-21T08:41:25Z</time>
      </trkpt>
      <trkpt lat="48.43375" lon="2.7259">
        <ele>124</ele>
        <time>2013-04-21T08:41:30Z</time>
      </trkpt>
      <trkpt lat="48.43375" lon="2.7259">
        <ele>124</ele>
        <time>2013-04-21T08:41:35Z</time>
      </trkpt>
      <trkpt lat="48.43375" lon="2.7259">
        <ele>124</ele>
        <time>2013-04-21T08:41:41Z</time>
      </trkpt>
      <trkpt lat="48.43375" lon="2.7259">
        <ele>124</ele>
        <time>2013-04-21T08:41:47Z</time>
      </trkpt>
      <trkpt lat="48.43375" lon="2.7259">
        <ele>124</ele>
        <time>2013-04-21T08:41:50Z</time>
      </trkpt>
      <trkpt lat="48.43375" lon="2.7259">
        <ele>124</ele>
        <time>2013-04-21T08:42:39Z</time>
      </trkpt>
      <trkpt lat="48.43375" lon="2.7259">
        <ele>124</ele>
        <time>2013-04-21T08:43:00Z</time>
      </trkpt>
      <trkpt lat="48.43375" lon="2.7259">
        <ele>124</ele>
        <time>2013-04-21T08:43:03Z</time>
      </trkpt>
      <trkpt lat="48.43376" lon="2.7259">
        <ele>124</ele>
        <time>2013-04-21T08:43:06Z</time>
      </trkpt>
      <trkpt lat="48.43375" lon="2.7259">
        <ele>124</ele>
        <time>2013-04-21T08:43:07Z</time>
      </trkpt>
      <trkpt lat="48.43376" lon="2.7259">
        <ele>124</ele>
        <time>2013-04-21T08:43:08Z</time>
      </trkpt>
      <trkpt lat="48.43376" lon="2.72591">
        <ele>124</ele>
        <time>2013-04-21T08:43:10Z</time>
      </trkpt>
      <trkpt lat="48.43376" lon="2.72593">
        <ele>124</ele>
        <time>2013-04-21T08:43:12Z</time>
      </trkpt>
      <trkpt lat="48.43377" lon="2.72595">
        <ele>124</ele>
        <time>2013-04-21T08:43:13Z</time>
      </trkpt>
      <trkpt lat="48.43377" lon="2.72598">
        <ele>124</ele>
        <time>2013-04-21T08:43:15Z</time>
      </trkpt>
      <trkpt lat="48.43377" lon="2.72601">
        <ele>124</ele>
        <time>2013-04-21T08:43:17Z</time>
      </trkpt>
      <trkpt lat="48.43377" lon="2.72602">
        <ele>124</ele>
        <time>2013-04-21T08:43:20Z</time>
      </trkpt>
      <trkpt lat="48.43377" lon="2.72602">
        <ele>124</ele>
        <time>2013-04-21T08:43:21Z</time>
      </trkpt>
      <trkpt lat="48.43377" lon="2.72602">
        <ele>124</ele>
        <time>2013-04-21T08:43:22Z</time>
      </trkpt>
      <trkpt lat="48.43377" lon="2.72602">
        <ele>124</ele>
        <time>2013-04-21T08:43:24Z</time>
      </trkpt>
      <trkpt lat="48.43377" lon="2.72602">
        <ele>124</ele>
        <time>2013-04-21T08:43:26Z</time>
      </trkpt>
      <trkpt lat="48.43377" lon="2.72602">
        <ele>124</ele>
        <time>2013-04-21T08:43:35Z</time>
      </trkpt>
      <trkpt lat="48.43377" lon="2.72601">
        <ele>124</ele>
        <time>2013-04-21T08:43:37Z</time>
      </trkpt>
      <trkpt lat="48.43377" lon="2.72601">
        <ele>124</ele>
        <time>2013-04-21T08:43:38Z</time>
      </trkpt>
      <trkpt lat="48.43377" lon="2.72601">
        <ele>124</ele>
        <time>2013-04-21T08:43:39Z</time>
      </trkpt>
      <trkpt lat="48.43377" lon="2.72601">
        <ele>124</ele>
        <time>2013-04-21T08:43:40Z</time>
      </trkpt>
      <trkpt lat="48.43377" lon="2.72601">
        <ele>124</ele>
        <time>2013-04-21T08:43:42Z</time>
      </trkpt>
      <trkpt lat="48.43377" lon="2.72601">
        <ele>124</ele>
        <time>2013-04-21T08:43:43Z</time>
      </trkpt>
      <trkpt lat="48.43377" lon="2.72601">
        <ele>124</ele>
        <time>2013-04-21T08:43:44Z</time>
      </trkpt>
      <trkpt lat="48.43377" lon="2.72601">
        <ele>124</ele>
        <time>2013-04-21T08:43:49Z</time>
      </trkpt>
      <trkpt lat="48.43377" lon="2.72601">
        <ele>124</ele>
        <time>2013-04-21T08:43:50Z</time>
      </trkpt>
      <trkpt lat="48.43377" lon="2.72602">
        <ele>124</ele>
        <time>2013-04-21T08:43:53Z</time>
      </trkpt>
      <trkpt lat="48.43378" lon="2.72602">
        <ele>124</ele>
        <time>2013-04-21T08:43:54Z</time>
      </trkpt>
      <trkpt lat="48.43378" lon="2.72601">
        <ele>124</ele>
        <time>2013-04-21T08:44:00Z</time>
      </trkpt>
      <trkpt lat="48.43378" lon="2.72601">
        <ele>124</ele>
        <time>2013-04-21T08:44:01Z</time>
      </trkpt>
      <trkpt lat="48.43377" lon="2.726">
        <ele>124</ele>
        <time>2013-04-21T08:44:02Z</time>
      </trkpt>
      <trkpt lat="48.43377" lon="2.72599">
        <ele>124</ele>
        <time>2013-04-21T08:44:03Z</time>
      </trkpt>
      <trkpt lat="48.43376" lon="2.72598">
        <ele>124</ele>
        <time>2013-04-21T08:44:04Z</time>
      </trkpt>
      <trkpt lat="48.43376" lon="2.72597">
        <ele>124</ele>
        <time>2013-04-21T08:44:05Z</time>
      </trkpt>
      <trkpt lat="48.43376" lon="2.72597">
        <ele>124</ele>
        <time>2013-04-21T08:44:07Z</time>
      </trkpt>
      <trkpt lat="48.43376" lon="2.72597">
        <ele>124</ele>
        <time>2013-04-21T08:44:09Z</time>
      </trkpt>
      <trkpt lat="48.43377" lon="2.72597">
        <ele>124</ele>
        <time>2013-04-21T08:44:11Z</time>
      </trkpt>
      <trkpt lat="48.43377" lon="2.72596">
        <ele>124</ele>
        <time>2013-04-21T08:44:12Z</time>
      </trkpt>
      <trkpt lat="48.43377" lon="2.72596">
        <ele>124</ele>
        <time>2013-04-21T08:44:17Z</time>
      </trkpt>
      <trkpt lat="48.43377" lon="2.72595">
        <ele>124</ele>
        <time>2013-04-21T08:44:18Z</time>
      </trkpt>
      <trkpt lat="48.43377" lon="2.72594">
        <ele>124</ele>
        <time>2013-04-21T08:44:19Z</time>
      </trkpt>
      <trkpt lat="48.43378" lon="2.72594">
        <ele>124</ele>
        <time>2013-04-21T08:44:20Z</time>
      </trkpt>
      <trkpt lat="48.43379" lon="2.72593">
        <ele>125</ele>
        <time>2013-04-21T08:44:22Z</time>
      </trkpt>
      <trkpt lat="48.4338" lon="2.72593">
        <ele>125</ele>
        <time>2013-04-21T08:44:23Z</time>
      </trkpt>
      <trkpt lat="48.43381" lon="2.72592">
        <ele>125</ele>
        <time>2013-04-21T08:44:24Z</time>
      </trkpt>
      <trkpt lat="48.43384" lon="2.72591">
        <ele>125</ele>
        <time>2013-04-21T08:44:26Z</time>
      </trkpt>
      <trkpt lat="48.43384" lon="2.72591">
        <ele>125</ele>
        <time>2013-04-21T08:44:27Z</time>
      </trkpt>
      <trkpt lat="48.43384" lon="2.72591">
        <ele>125</ele>
        <time>2013-04-21T08:44:28Z</time>
      </trkpt>
      <trkpt lat="48.43386" lon="2.7259">
        <ele>125</ele>
        <time>2013-04-21T08:44:30Z</time>
      </trkpt>
      <trkpt lat="48.43387" lon="2.72589">
        <ele>125</ele>
        <time>2013-04-21T08:44:31Z</time>
      </trkpt>
      <trkpt lat="48.43388" lon="2.72587">
        <ele>125</ele>
        <time>2013-04-21T08:44:33Z</time>
      </trkpt>
      <trkpt lat="48.4339" lon="2.72585">
        <ele>125</ele>
        <time>2013-04-21T08:44:35Z</time>
      </trkpt>
      <trkpt lat="48.43393" lon="2.72582">
        <ele>127</ele>
        <time>2013-04-21T08:44:38Z</time>
      </trkpt>
      <trkpt lat="48.43394" lon="2.72581">
        <ele>127</ele>
        <time>2013-04-21T08:44:39Z</time>
      </trkpt>
      <trkpt lat="48.43395" lon="2.72578">
        <ele>127</ele>
        <time>2013-04-21T08:44:40Z</time>
      </trkpt>
      <trkpt lat="48.43395" lon="2.72576">
        <ele>127</ele>
        <time>2013-04-21T08:44:41Z</time>
      </trkpt>
      <trkpt lat="48.43396" lon="2.72574">
        <ele>127</ele>
        <time>2013-04-21T08:44:42Z</time>
      </trkpt>
      <trkpt lat="48.43395" lon="2.72573">
        <ele>127</ele>
        <time>2013-04-21T08:44:43Z</time>
      </trkpt>
      <trkpt lat="48.43395" lon="2.72572">
        <ele>127</ele>
        <time>2013-04-21T08:44:45Z</time>
      </trkpt>
      <trkpt lat="48.43395" lon="2.72572">
        <ele>127</ele>
        <time>2013-04-21T08:44:46Z</time>
      </trkpt>
      <trkpt lat="48.43396" lon="2.72571">
        <ele>127</ele>
        <time>2013-04-21T08:44:47Z</time>
      </trkpt>
      <trkpt lat="48.43395" lon="2.7257">
        <ele>127</ele>
        <time>2013-04-21T08:44:48Z</time>
      </trkpt>
      <trkpt lat="48.43394" lon="2.72566">
        <ele>127</ele>
        <time>2013-04-21T08:44:52Z</time>
      </trkpt>
      <trkpt lat="48.43394" lon="2.72564">
        <ele>127</ele>
        <time>2013-04-21T08:44:53Z</time>
      </trkpt>
      <trkpt lat="48.43395" lon="2.72535">
        <ele>127</ele>
        <time>2013-04-21T08:45:03Z</time>
      </trkpt>
      <trkpt lat="48.43394" lon="2.7253">
        <ele>127</ele>
        <time>2013-04-21T08:45:05Z</time>
      </trkpt>
      <trkpt lat="48.43393" lon="2.72524">
        <ele>127</ele>
        <time>2013-04-21T08:45:07Z</time>
      </trkpt>
      <trkpt lat="48.43392" lon="2.72517">
        <ele>127</ele>
        <time>2013-04-21T08:45:09Z</time>
      </trkpt>
      <trkpt lat="48.43393" lon="2.72514">
        <ele>127</ele>
        <time>2013-04-21T08:45:10Z</time>
      </trkpt>
      <trkpt lat="48.43399" lon="2.72481">
        <ele>128</ele>
        <time>2013-04-21T08:45:16Z</time>
      </trkpt>
      <trkpt lat="48.43406" lon="2.72465">
        <ele>128</ele>
        <time>2013-04-21T08:45:19Z</time>
      </trkpt>
      <trkpt lat="48.43409" lon="2.72453">
        <ele>128</ele>
        <time>2013-04-21T08:45:21Z</time>
      </trkpt>
      <trkpt lat="48.43411" lon="2.72448">
        <ele>128</ele>
        <time>2013-04-21T08:45:22Z</time>
      </trkpt>
      <trkpt lat="48.43412" lon="2.72442">
        <ele>128</ele>
        <time>2013-04-21T08:45:23Z</time>
      </trkpt>
      <trkpt lat="48.43414" lon="2.72416">
        <ele>129</ele>
        <time>2013-04-21T08:45:27Z</time>
      </trkpt>
      <trkpt lat="48.43413" lon="2.72412">
        <ele>129</ele>
        <time>2013-04-21T08:45:28Z</time>
      </trkpt>
      <trkpt lat="48.43414" lon="2.724">
        <ele>128</ele>
        <time>2013-04-21T08:45:31Z</time>
      </trkpt>
      <trkpt lat="48.43412" lon="2.72394">
        <ele>128</ele>
        <time>2013-04-21T08:45:33Z</time>
      </trkpt>
      <trkpt lat="48.4341" lon="2.7239">
        <ele>128</ele>
        <time>2013-04-21T08:45:35Z</time>
      </trkpt>
      <trkpt lat="48.43409" lon="2.72387">
        <ele>128</ele>
        <time>2013-04-21T08:45:36Z</time>
      </trkpt>
      <trkpt lat="48.43406" lon="2.72377">
        <ele>127</ele>
        <time>2013-04-21T08:45:39Z</time>
      </trkpt>
      <trkpt lat="48.43403" lon="2.7237">
        <ele>127</ele>
        <time>2013-04-21T08:45:41Z</time>
      </trkpt>
      <trkpt lat="48.43399" lon="2.72355">
        <ele>127</ele>
        <time>2013-04-21T08:45:45Z</time>
      </trkpt>
      <trkpt lat="48.43398" lon="2.72341">
        <ele>127</ele>
        <time>2013-04-21T08:45:48Z</time>
      </trkpt>
      <trkpt lat="48.43398" lon="2.72336">
        <ele>127</ele>
        <time>2013-04-21T08:45:49Z</time>
      </trkpt>
      <trkpt lat="48.434" lon="2.72332">
        <ele>127</ele>
        <time>2013-04-21T08:45:50Z</time>
      </trkpt>
      <trkpt lat="48.43402" lon="2.72327">
        <ele>127</ele>
        <time>2013-04-21T08:45:51Z</time>
      </trkpt>
      <trkpt lat="48.43405" lon="2.72323">
        <ele>127</ele>
        <time>2013-04-21T08:45:52Z</time>
      </trkpt>
      <trkpt lat="48.43414" lon="2.72303">
        <ele>127</ele>
        <time>2013-04-21T08:45:56Z</time>
      </trkpt>
      <trkpt lat="48.43415" lon="2.72299">
        <ele>127</ele>
        <time>2013-04-21T08:45:57Z</time>
      </trkpt>
      <trkpt lat="48.43414" lon="2.72293">
        <ele>127</ele>
        <time>2013-04-21T08:45:59Z</time>
      </trkpt>
      <trkpt lat="48.43417" lon="2.72278">
        <ele>123</ele>
        <time>2013-04-21T08:46:03Z</time>
      </trkpt>
      <trkpt lat="48.43419" lon="2.72274">
        <ele>124</ele>
        <time>2013-04-21T08:46:04Z</time>
      </trkpt>
      <trkpt lat="48.43421" lon="2.72269">
        <ele>124</ele>
        <time>2013-04-21T08:46:05Z</time>
      </trkpt>
      <trkpt lat="48.43421" lon="2.72265">
        <ele>125</ele>
        <time>2013-04-21T08:46:06Z</time>
      </trkpt>
      <trkpt lat="48.43422" lon="2.72258">
        <ele>126</ele>
        <time>2013-04-21T08:46:08Z</time>
      </trkpt>
      <trkpt lat="48.43423" lon="2.72255">
        <ele>126</ele>
        <time>2013-04-21T08:46:09Z</time>
      </trkpt>
      <trkpt lat="48.43428" lon="2.72245">
        <ele>125</ele>
        <time>2013-04-21T08:46:12Z</time>
      </trkpt>
      <trkpt lat="48.43429" lon="2.72239">
        <ele>124</ele>
        <time>2013-04-21T08:46:14Z</time>
      </trkpt>
      <trkpt lat="48.4343" lon="2.72236">
        <ele>123</ele>
        <time>2013-04-21T08:46:15Z</time>
      </trkpt>
      <trkpt lat="48.43431" lon="2.72233">
        <ele>123</ele>
        <time>2013-04-21T08:46:16Z</time>
      </trkpt>
      <trkpt lat="48.43431" lon="2.72229">
        <ele>122</ele>
        <time>2013-04-21T08:46:17Z</time>
      </trkpt>
      <trkpt lat="48.43432" lon="2.72221">
        <ele>121</ele>
        <time>2013-04-21T08:46:19Z</time>
      </trkpt>
      <trkpt lat="48.43433" lon="2.72216">
        <ele>121</ele>
        <time>2013-04-21T08:46:20Z</time>
      </trkpt>
      <trkpt lat="48.43431" lon="2.72212">
        <ele>121</ele>
        <time>2013-04-21T08:46:21Z</time>
      </trkpt>
      <trkpt lat="48.43431" lon="2.72206">
        <ele>121</ele>
        <time>2013-04-21T08:46:23Z</time>
      </trkpt>
      <trkpt lat="48.43431" lon="2.72204">
        <ele>121</ele>
        <time>2013-04-21T08:46:24Z</time>
      </trkpt>
      <trkpt lat="48.4343" lon="2.72202">
        <ele>121</ele>
        <time>2013-04-21T08:46:25Z</time>
      </trkpt>
      <trkpt lat="48.4343" lon="2.72198">
        <ele>120</ele>
        <time>2013-04-21T08:46:27Z</time>
      </trkpt>
      <trkpt lat="48.43429" lon="2.72197">
        <ele>120</ele>
        <time>2013-04-21T08:46:28Z</time>
      </trkpt>
      <trkpt lat="48.43429" lon="2.72196">
        <ele>120</ele>
        <time>2013-04-21T08:46:29Z</time>
      </trkpt>
      <trkpt lat="48.43429" lon="2.72195">
        <ele>120</ele>
        <time>2013-04-21T08:46:30Z</time>
      </trkpt>
      <trkpt lat="48.43429" lon="2.72195">
        <ele>120</ele>
        <time>2013-04-21T08:46:31Z</time>
      </trkpt>
      <trkpt lat="48.43429" lon="2.72194">
        <ele>120</ele>
        <time>2013-04-21T08:46:32Z</time>
      </trkpt>
      <trkpt lat="48.4343" lon="2.72192">
        <ele>120</ele>
        <time>2013-04-21T08:46:33Z</time>
      </trkpt>
      <trkpt lat="48.43432" lon="2.7219">
        <ele>120</ele>
        <time>2013-04-21T08:46:34Z</time>
      </trkpt>
      <trkpt lat="48.43435" lon="2.72182">
        <ele>120</ele>
        <time>2013-04-21T08:46:36Z</time>
      </trkpt>
      <trkpt lat="48.4344" lon="2.72173">
        <ele>120</ele>
        <time>2013-04-21T08:46:38Z</time>
      </trkpt>
      <trkpt lat="48.43447" lon="2.72155">
        <ele>117</ele>
        <time>2013-04-21T08:46:42Z</time>
      </trkpt>
      <trkpt lat="48.43447" lon="2.72132">
        <ele>117</ele>
        <time>2013-04-21T08:46:47Z</time>
      </trkpt>
      <trkpt lat="48.43448" lon="2.72128">
        <ele>117</ele>
        <time>2013-04-21T08:46:48Z</time>
      </trkpt>
      <trkpt lat="48.4345" lon="2.72124">
        <ele>116</ele>
        <time>2013-04-21T08:46:50Z</time>
      </trkpt>
      <trkpt lat="48.43452" lon="2.7212">
        <ele>116</ele>
        <time>2013-04-21T08:46:51Z</time>
      </trkpt>
      <trkpt lat="48.43472" lon="2.72066">
        <ele>114</ele>
        <time>2013-04-21T08:47:01Z</time>
      </trkpt>
      <trkpt lat="48.43473" lon="2.72062">
        <ele>114</ele>
        <time>2013-04-21T08:47:02Z</time>
      </trkpt>
      <trkpt lat="48.43474" lon="2.7204">
        <ele>114</ele>
        <time>2013-04-21T08:47:06Z</time>
      </trkpt>
      <trkpt lat="48.43474" lon="2.72036">
        <ele>114</ele>
        <time>2013-04-21T08:47:07Z</time>
      </trkpt>
      <trkpt lat="48.43473" lon="2.72032">
        <ele>114</ele>
        <time>2013-04-21T08:47:08Z</time>
      </trkpt>
      <trkpt lat="48.43471" lon="2.72021">
        <ele>114</ele>
        <time>2013-04-21T08:47:23Z</time>
      </trkpt>
      <trkpt lat="48.43471" lon="2.7202">
        <ele>114</ele>
        <time>2013-04-21T08:47:24Z</time>
      </trkpt>
      <trkpt lat="48.43471" lon="2.7202">
        <ele>114</ele>
        <time>2013-04-21T08:47:25Z</time>
      </trkpt>
      <trkpt lat="48.43471" lon="2.72019">
        <ele>114</ele>
        <time>2013-04-21T08:47:26Z</time>
      </trkpt>
      <trkpt lat="48.43471" lon="2.72019">
        <ele>114</ele>
        <time>2013-04-21T08:47:27Z</time>
      </trkpt>
      <trkpt lat="48.4347" lon="2.72018">
        <ele>114</ele>
        <time>2013-04-21T08:47:29Z</time>
      </trkpt>
      <trkpt lat="48.4347" lon="2.72017">
        <ele>114</ele>
        <time>2013-04-21T08:47:30Z</time>
      </trkpt>
      <trkpt lat="48.4347" lon="2.72017">
        <ele>114</ele>
        <time>2013-04-21T08:47:31Z</time>
      </trkpt>
      <trkpt lat="48.4347" lon="2.72017">
        <ele>114</ele>
        <time>2013-04-21T08:47:32Z</time>
      </trkpt>
      <trkpt lat="48.4347" lon="2.72016">
        <ele>114</ele>
        <time>2013-04-21T08:47:33Z</time>
      </trkpt>
      <trkpt lat="48.4347" lon="2.72016">
        <ele>114</ele>
        <time>2013-04-21T08:47:34Z</time>
      </trkpt>
      <trkpt lat="48.4347" lon="2.72015">
        <ele>114</ele>
        <time>2013-04-21T08:47:35Z</time>
      </trkpt>
      <trkpt lat="48.4347" lon="2.72015">
        <ele>114</ele>
        <time>2013-04-21T08:47:36Z</time>
      </trkpt>
      <trkpt lat="48.4347" lon="2.72015">
        <ele>114</ele>
        <time>2013-04-21T08:47:37Z</time>
      </trkpt>
      <trkpt lat="48.4347" lon="2.72014">
        <ele>114</ele>
        <time>2013-04-21T08:47:38Z</time>
      </trkpt>
      <trkpt lat="48.4347" lon="2.72014">
        <ele>114</ele>
        <time>2013-04-21T08:47:39Z</time>
      </trkpt>
      <trkpt lat="48.43469" lon="2.72011">
        <ele>114</ele>
        <time>2013-04-21T08:47:55Z</time>
      </trkpt>
      <trkpt lat="48.43469" lon="2.7201">
        <ele>114</ele>
        <time>2013-04-21T08:47:56Z</time>
      </trkpt>
      <trkpt lat="48.43469" lon="2.72001">
        <ele>114</ele>
        <time>2013-04-21T08:47:59Z</time>
      </trkpt>
      <trkpt lat="48.4347" lon="2.71992">
        <ele>113</ele>
        <time>2013-04-21T08:48:01Z</time>
      </trkpt>
      <trkpt lat="48.43471" lon="2.71986">
        <ele>113</ele>
        <time>2013-04-21T08:48:02Z</time>
      </trkpt>
      <trkpt lat="48.4347" lon="2.71979">
        <ele>113</ele>
        <time>2013-04-21T08:48:03Z</time>
      </trkpt>
      <trkpt lat="48.4347" lon="2.71972">
        <ele>113</ele>
        <time>2013-04-21T08:48:04Z</time>
      </trkpt>
      <trkpt lat="48.43472" lon="2.71964">
        <ele>113</ele>
        <time>2013-04-21T08:48:05Z</time>
      </trkpt>
      <trkpt lat="48.43475" lon="2.71953">
        <ele>113</ele>
        <time>2013-04-21T08:48:07Z</time>
      </trkpt>
      <trkpt lat="48.43478" lon="2.7194">
        <ele>113</ele>
        <time>2013-04-21T08:48:09Z</time>
      </trkpt>
      <trkpt lat="48.43482" lon="2.7193">
        <ele>112</ele>
        <time>2013-04-21T08:48:11Z</time>
      </trkpt>
      <trkpt lat="48.43482" lon="2.71924">
        <ele>112</ele>
        <time>2013-04-21T08:48:12Z</time>
      </trkpt>
      <trkpt lat="48.43481" lon="2.71918">
        <ele>112</ele>
        <time>2013-04-21T08:48:13Z</time>
      </trkpt>
      <trkpt lat="48.43481" lon="2.71913">
        <ele>112</ele>
        <time>2013-04-21T08:48:14Z</time>
      </trkpt>
      <trkpt lat="48.43481" lon="2.71908">
        <ele>112</ele>
        <time>2013-04-21T08:48:15Z</time>
      </trkpt>
      <trkpt lat="48.4348" lon="2.71905">
        <ele>112</ele>
        <time>2013-04-21T08:48:16Z</time>
      </trkpt>
      <trkpt lat="48.4348" lon="2.71889">
        <ele>112</ele>
        <time>2013-04-21T08:48:20Z</time>
      </trkpt>
      <trkpt lat="48.4348" lon="2.7188">
        <ele>113</ele>
        <time>2013-04-21T08:48:22Z</time>
      </trkpt>
      <trkpt lat="48.43481" lon="2.71877">
        <ele>112</ele>
        <time>2013-04-21T08:48:23Z</time>
      </trkpt>
      <trkpt lat="48.43482" lon="2.71871">
        <ele>112</ele>
        <time>2013-04-21T08:48:25Z</time>
      </trkpt>
      <trkpt lat="48.43481" lon="2.71864">
        <ele>112</ele>
        <time>2013-04-21T08:48:27Z</time>
      </trkpt>
      <trkpt lat="48.43481" lon="2.7186">
        <ele>112</ele>
        <time>2013-04-21T08:48:28Z</time>
      </trkpt>
      <trkpt lat="48.43485" lon="2.71855">
        <ele>112</ele>
        <time>2013-04-21T08:48:30Z</time>
      </trkpt>
      <trkpt lat="48.43486" lon="2.71851">
        <ele>112</ele>
        <time>2013-04-21T08:48:31Z</time>
      </trkpt>
      <trkpt lat="48.4349" lon="2.71839">
        <ele>112</ele>
        <time>2013-04-21T08:48:34Z</time>
      </trkpt>
      <trkpt lat="48.43494" lon="2.71827">
        <ele>112</ele>
        <time>2013-04-21T08:48:37Z</time>
      </trkpt>
      <trkpt lat="48.43496" lon="2.71824">
        <ele>112</ele>
        <time>2013-04-21T08:48:38Z</time>
      </trkpt>
      <trkpt lat="48.43497" lon="2.71822">
        <ele>112</ele>
        <time>2013-04-21T08:48:39Z</time>
      </trkpt>
      <trkpt lat="48.43498" lon="2.71817">
        <ele>113</ele>
        <time>2013-04-21T08:48:40Z</time>
      </trkpt>
      <trkpt lat="48.43498" lon="2.71811">
        <ele>113</ele>
        <time>2013-04-21T08:48:41Z</time>
      </trkpt>
      <trkpt lat="48.43497" lon="2.71807">
        <ele>113</ele>
        <time>2013-04-21T08:48:42Z</time>
      </trkpt>
      <trkpt lat="48.43496" lon="2.71802">
        <ele>113</ele>
        <time>2013-04-21T08:48:43Z</time>
      </trkpt>
      <trkpt lat="48.43497" lon="2.71799">
        <ele>113</ele>
        <time>2013-04-21T08:48:44Z</time>
      </trkpt>
      <trkpt lat="48.43498" lon="2.71794">
        <ele>114</ele>
        <time>2013-04-21T08:48:46Z</time>
      </trkpt>
      <trkpt lat="48.43499" lon="2.71792">
        <ele>114</ele>
        <time>2013-04-21T08:48:47Z</time>
      </trkpt>
      <trkpt lat="48.43498" lon="2.7179">
        <ele>114</ele>
        <time>2013-04-21T08:48:48Z</time>
      </trkpt>
      <trkpt lat="48.43496" lon="2.71787">
        <ele>114</ele>
        <time>2013-04-21T08:48:50Z</time>
      </trkpt>
      <trkpt lat="48.43496" lon="2.71786">
        <ele>114</ele>
        <time>2013-04-21T08:48:51Z</time>
      </trkpt>
      <trkpt lat="48.43494" lon="2.71784">
        <ele>114</ele>
        <time>2013-04-21T08:48:53Z</time>
      </trkpt>
      <trkpt lat="48.43493" lon="2.71782">
        <ele>114</ele>
        <time>2013-04-21T08:48:54Z</time>
      </trkpt>
      <trkpt lat="48.43493" lon="2.71779">
        <ele>114</ele>
        <time>2013-04-21T08:48:55Z</time>
      </trkpt>
      <trkpt lat="48.43494" lon="2.71774">
        <ele>114</ele>
        <time>2013-04-21T08:48:57Z</time>
      </trkpt>
      <trkpt lat="48.43494" lon="2.71772">
        <ele>114</ele>
        <time>2013-04-21T08:48:58Z</time>
      </trkpt>
      <trkpt lat="48.43494" lon="2.71768">
        <ele>114</ele>
        <time>2013-04-21T08:49:00Z</time>
      </trkpt>
      <trkpt lat="48.43494" lon="2.71767">
        <ele>114</ele>
        <time>2013-04-21T08:49:01Z</time>
      </trkpt>
      <trkpt lat="48.43496" lon="2.71763">
        <ele>114</ele>
        <time>2013-04-21T08:49:03Z</time>
      </trkpt>
      <trkpt lat="48.43497" lon="2.71762">
        <ele>115</ele>
        <time>2013-04-21T08:49:04Z</time>
      </trkpt>
      <trkpt lat="48.43496" lon="2.71761">
        <ele>115</ele>
        <time>2013-04-21T08:49:05Z</time>
      </trkpt>
      <trkpt lat="48.43492" lon="2.71754">
        <ele>115</ele>
        <time>2013-04-21T08:49:10Z</time>
      </trkpt>
      <trkpt lat="48.43491" lon="2.71753">
        <ele>115</ele>
        <time>2013-04-21T08:49:11Z</time>
      </trkpt>
      <trkpt lat="48.4349" lon="2.71748">
        <ele>115</ele>
        <time>2013-04-21T08:49:14Z</time>
      </trkpt>
      <trkpt lat="48.43491" lon="2.71746">
        <ele>115</ele>
        <time>2013-04-21T08:49:15Z</time>
      </trkpt>
      <trkpt lat="48.43491" lon="2.71744">
        <ele>115</ele>
        <time>2013-04-21T08:49:16Z</time>
      </trkpt>
      <trkpt lat="48.43493" lon="2.71742">
        <ele>115</ele>
        <time>2013-04-21T08:49:18Z</time>
      </trkpt>
      <trkpt lat="48.43494" lon="2.71741">
        <ele>115</ele>
        <time>2013-04-21T08:49:19Z</time>
      </trkpt>
      <trkpt lat="48.43494" lon="2.7174">
        <ele>115</ele>
        <time>2013-04-21T08:49:20Z</time>
      </trkpt>
      <trkpt lat="48.43498" lon="2.71734">
        <ele>116</ele>
        <time>2013-04-21T08:49:24Z</time>
      </trkpt>
      <trkpt lat="48.43499" lon="2.71732">
        <ele>116</ele>
        <time>2013-04-21T08:49:25Z</time>
      </trkpt>
      <trkpt lat="48.43501" lon="2.71728">
        <ele>113</ele>
        <time>2013-04-21T08:49:28Z</time>
      </trkpt>
      <trkpt lat="48.43501" lon="2.71727">
        <ele>113</ele>
        <time>2013-04-21T08:49:29Z</time>
      </trkpt>
      <trkpt lat="48.43502" lon="2.71726">
        <ele>113</ele>
        <time>2013-04-21T08:49:30Z</time>
      </trkpt>
      <trkpt lat="48.43502" lon="2.71724">
        <ele>113</ele>
        <time>2013-04-21T08:49:31Z</time>
      </trkpt>
      <trkpt lat="48.43503" lon="2.71722">
        <ele>113</ele>
        <time>2013-04-21T08:49:33Z</time>
      </trkpt>
      <trkpt lat="48.43504" lon="2.71721">
        <ele>113</ele>
        <time>2013-04-21T08:49:34Z</time>
      </trkpt>
      <trkpt lat="48.43505" lon="2.71719">
        <ele>113</ele>
        <time>2013-04-21T08:49:35Z</time>
      </trkpt>
      <trkpt lat="48.4351" lon="2.7171">
        <ele>113</ele>
        <time>2013-04-21T08:49:38Z</time>
      </trkpt>
      <trkpt lat="48.43512" lon="2.71706">
        <ele>113</ele>
        <time>2013-04-21T08:49:39Z</time>
      </trkpt>
      <trkpt lat="48.43512" lon="2.71704">
        <ele>113</ele>
        <time>2013-04-21T08:49:40Z</time>
      </trkpt>
      <trkpt lat="48.43511" lon="2.71701">
        <ele>113</ele>
        <time>2013-04-21T08:49:41Z</time>
      </trkpt>
      <trkpt lat="48.43511" lon="2.71698">
        <ele>113</ele>
        <time>2013-04-21T08:49:42Z</time>
      </trkpt>
      <trkpt lat="48.43511" lon="2.71696">
        <ele>113</ele>
        <time>2013-04-21T08:49:43Z</time>
      </trkpt>
      <trkpt lat="48.43513" lon="2.71691">
        <ele>113</ele>
        <time>2013-04-21T08:49:45Z</time>
      </trkpt>
      <trkpt lat="48.43514" lon="2.71687">
        <ele>114</ele>
        <time>2013-04-21T08:49:46Z</time>
      </trkpt>
      <trkpt lat="48.43515" lon="2.71678">
        <ele>114</ele>
        <time>2013-04-21T08:49:49Z</time>
      </trkpt>
      <trkpt lat="48.43514" lon="2.71667">
        <ele>116</ele>
        <time>2013-04-21T08:49:51Z</time>
      </trkpt>
      <trkpt lat="48.43517" lon="2.71652">
        <ele>115</ele>
        <time>2013-04-21T08:49:53Z</time>
      </trkpt>
      <trkpt lat="48.43521" lon="2.71638">
        <ele>114</ele>
        <time>2013-04-21T08:49:56Z</time>
      </trkpt>
      <trkpt lat="48.43521" lon="2.71637">
        <ele>114</ele>
        <time>2013-04-21T08:49:57Z</time>
      </trkpt>
      <trkpt lat="48.43521" lon="2.71636">
        <ele>114</ele>
        <time>2013-04-21T08:49:58Z</time>
      </trkpt>
      <trkpt lat="48.43521" lon="2.71634">
        <ele>114</ele>
        <time>2013-04-21T08:49:59Z</time>
      </trkpt>
      <trkpt lat="48.43522" lon="2.71633">
        <ele>114</ele>
        <time>2013-04-21T08:50:00Z</time>
      </trkpt>
      <trkpt lat="48.43526" lon="2.71621">
        <ele>114</ele>
        <time>2013-04-21T08:50:05Z</time>
      </trkpt>
      <trkpt lat="48.43527" lon="2.71618">
        <ele>114</ele>
        <time>2013-04-21T08:50:06Z</time>
      </trkpt>
      <trkpt lat="48.43528" lon="2.71617">
        <ele>114</ele>
        <time>2013-04-21T08:50:07Z</time>
      </trkpt>
      <trkpt lat="48.43533" lon="2.71614">
        <ele>114</ele>
        <time>2013-04-21T08:50:09Z</time>
      </trkpt>
      <trkpt lat="48.43535" lon="2.71611">
        <ele>113</ele>
        <time>2013-04-21T08:50:10Z</time>
      </trkpt>
      <trkpt lat="48.43537" lon="2.71607">
        <ele>113</ele>
        <time>2013-04-21T08:50:11Z</time>
      </trkpt>
      <trkpt lat="48.43538" lon="2.71596">
        <ele>113</ele>
        <time>2013-04-21T08:50:14Z</time>
      </trkpt>
      <trkpt lat="48.4354" lon="2.71588">
        <ele>113</ele>
        <time>2013-04-21T08:50:16Z</time>
      </trkpt>
      <trkpt lat="48.43544" lon="2.71581">
        <ele>113</ele>
        <time>2013-04-21T08:50:18Z</time>
      </trkpt>
      <trkpt lat="48.43546" lon="2.71577">
        <ele>113</ele>
        <time>2013-04-21T08:50:19Z</time>
      </trkpt>
      <trkpt lat="48.43548" lon="2.71576">
        <ele>113</ele>
        <time>2013-04-21T08:50:20Z</time>
      </trkpt>
      <trkpt lat="48.4355" lon="2.71574">
        <ele>113</ele>
        <time>2013-04-21T08:50:21Z</time>
      </trkpt>
      <trkpt lat="48.43551" lon="2.71571">
        <ele>113</ele>
        <time>2013-04-21T08:50:22Z</time>
      </trkpt>
      <trkpt lat="48.43551" lon="2.71569">
        <ele>113</ele>
        <time>2013-04-21T08:50:23Z</time>
      </trkpt>
      <trkpt lat="48.43551" lon="2.71568">
        <ele>113</ele>
        <time>2013-04-21T08:50:24Z</time>
      </trkpt>
      <trkpt lat="48.43551" lon="2.71567">
        <ele>113</ele>
        <time>2013-04-21T08:50:25Z</time>
      </trkpt>
      <trkpt lat="48.43551" lon="2.71566">
        <ele>113</ele>
        <time>2013-04-21T08:50:26Z</time>
      </trkpt>
      <trkpt lat="48.43551" lon="2.71565">
        <ele>113</ele>
        <time>2013-04-21T08:50:27Z</time>
      </trkpt>
      <trkpt lat="48.43552" lon="2.71565">
        <ele>113</ele>
        <time>2013-04-21T08:50:28Z</time>
      </trkpt>
      <trkpt lat="48.43552" lon="2.71564">
        <ele>113</ele>
        <time>2013-04-21T08:50:29Z</time>
      </trkpt>
      <trkpt lat="48.43552" lon="2.71563">
        <ele>113</ele>
        <time>2013-04-21T08:50:30Z</time>
      </trkpt>
      <trkpt lat="48.43552" lon="2.71563">
        <ele>113</ele>
        <time>2013-04-21T08:50:31Z</time>
      </trkpt>
      <trkpt lat="48.43552" lon="2.71562">
        <ele>113</ele>
        <time>2013-04-21T08:50:32Z</time>
      </trkpt>
      <trkpt lat="48.43552" lon="2.71562">
        <ele>113</ele>
        <time>2013-04-21T08:50:33Z</time>
      </trkpt>
      <trkpt lat="48.43553" lon="2.71558">
        <ele>113</ele>
        <time>2013-04-21T08:50:36Z</time>
      </trkpt>
      <trkpt lat="48.43559" lon="2.71539">
        <ele>112</ele>
        <time>2013-04-21T08:50:41Z</time>
      </trkpt>
      <trkpt lat="48.4356" lon="2.71537">
        <ele>112</ele>
        <time>2013-04-21T08:50:42Z</time>
      </trkpt>
      <trkpt lat="48.43562" lon="2.71537">
        <ele>112</ele>
        <time>2013-04-21T08:50:43Z</time>
      </trkpt>
      <trkpt lat="48.43562" lon="2.71537">
        <ele>112</ele>
        <time>2013-04-21T08:50:44Z</time>
      </trkpt>
      <trkpt lat="48.43563" lon="2.71537">
        <ele>112</ele>
        <time>2013-04-21T08:50:45Z</time>
      </trkpt>
      <trkpt lat="48.43567" lon="2.71532">
        <ele>112</ele>
        <time>2013-04-21T08:50:47Z</time>
      </trkpt>
      <trkpt lat="48.43569" lon="2.7153">
        <ele>112</ele>
        <time>2013-04-21T08:50:48Z</time>
      </trkpt>
      <trkpt lat="48.43575" lon="2.7153">
        <ele>111</ele>
        <time>2013-04-21T08:50:50Z</time>
      </trkpt>
      <trkpt lat="48.43576" lon="2.71529">
        <ele>111</ele>
        <time>2013-04-21T08:50:51Z</time>
      </trkpt>
      <trkpt lat="48.43577" lon="2.71528">
        <ele>111</ele>
        <time>2013-04-21T08:50:52Z</time>
      </trkpt>
      <trkpt lat="48.43577" lon="2.71528">
        <ele>111</ele>
        <time>2013-04-21T08:50:53Z</time>
      </trkpt>
      <trkpt lat="48.43577" lon="2.71527">
        <ele>111</ele>
        <time>2013-04-21T08:50:55Z</time>
      </trkpt>
      <trkpt lat="48.43578" lon="2.71526">
        <ele>111</ele>
        <time>2013-04-21T08:50:57Z</time>
      </trkpt>
      <trkpt lat="48.43578" lon="2.71525">
        <ele>111</ele>
        <time>2013-04-21T08:50:58Z</time>
      </trkpt>
      <trkpt lat="48.43579" lon="2.71524">
        <ele>111</ele>
        <time>2013-04-21T08:51:00Z</time>
      </trkpt>
      <trkpt lat="48.4358" lon="2.71524">
        <ele>111</ele>
        <time>2013-04-21T08:51:01Z</time>
      </trkpt>
      <trkpt lat="48.43581" lon="2.71523">
        <ele>111</ele>
        <time>2013-04-21T08:51:02Z</time>
      </trkpt>
      <trkpt lat="48.43583" lon="2.7152">
        <ele>111</ele>
        <time>2013-04-21T08:51:03Z</time>
      </trkpt>
      <trkpt lat="48.43585" lon="2.71517">
        <ele>106</ele>
        <time>2013-04-21T08:51:04Z</time>
      </trkpt>
      <trkpt lat="48.43586" lon="2.71514">
        <ele>107</ele>
        <time>2013-04-21T08:51:05Z</time>
      </trkpt>
      <trkpt lat="48.43588" lon="2.71512">
        <ele>107</ele>
        <time>2013-04-21T08:51:06Z</time>
      </trkpt>
      <trkpt lat="48.43599" lon="2.71504">
        <ele>106</ele>
        <time>2013-04-21T08:51:10Z</time>
      </trkpt>
      <trkpt lat="48.43601" lon="2.715">
        <ele>106</ele>
        <time>2013-04-21T08:51:11Z</time>
      </trkpt>
      <trkpt lat="48.43607" lon="2.71486">
        <ele>106</ele>
        <time>2013-04-21T08:51:14Z</time>
      </trkpt>
      <trkpt lat="48.43611" lon="2.71472">
        <ele>105</ele>
        <time>2013-04-21T08:51:17Z</time>
      </trkpt>
      <trkpt lat="48.43611" lon="2.71471">
        <ele>105</ele>
        <time>2013-04-21T08:51:18Z</time>
      </trkpt>
      <trkpt lat="48.43612" lon="2.7147">
        <ele>105</ele>
        <time>2013-04-21T08:51:19Z</time>
      </trkpt>
      <trkpt lat="48.43614" lon="2.71468">
        <ele>105</ele>
        <time>2013-04-21T08:51:21Z</time>
      </trkpt>
      <trkpt lat="48.43614" lon="2.71467">
        <ele>105</ele>
        <time>2013-04-21T08:51:22Z</time>
      </trkpt>
      <trkpt lat="48.43615" lon="2.71467">
        <ele>105</ele>
        <time>2013-04-21T08:51:23Z</time>
      </trkpt>
      <trkpt lat="48.43615" lon="2.71467">
        <ele>105</ele>
        <time>2013-04-21T08:51:24Z</time>
      </trkpt>
      <trkpt lat="48.43615" lon="2.71466">
        <ele>105</ele>
        <time>2013-04-21T08:51:25Z</time>
      </trkpt>
      <trkpt lat="48.43615" lon="2.71466">
        <ele>105</ele>
        <time>2013-04-21T08:51:26Z</time>
      </trkpt>
      <trkpt lat="48.43615" lon="2.71466">
        <ele>105</ele>
        <time>2013-04-21T08:51:27Z</time>
      </trkpt>
      <trkpt lat="48.43615" lon="2.71465">
        <ele>105</ele>
        <time>2013-04-21T08:51:29Z</time>
      </trkpt>
      <trkpt lat="48.43615" lon="2.71465">
        <ele>105</ele>
        <time>2013-04-21T08:51:30Z</time>
      </trkpt>
      <trkpt lat="48.43616" lon="2.71465">
        <ele>105</ele>
        <time>2013-04-21T08:51:31Z</time>
      </trkpt>
      <trkpt lat="48.43616" lon="2.71464">
        <ele>105</ele>
        <time>2013-04-21T08:51:32Z</time>
      </trkpt>
      <trkpt lat="48.43616" lon="2.71464">
        <ele>105</ele>
        <time>2013-04-21T08:51:33Z</time>
      </trkpt>
      <trkpt lat="48.43616" lon="2.71464">
        <ele>105</ele>
        <time>2013-04-21T08:51:35Z</time>
      </trkpt>
      <trkpt lat="48.43616" lon="2.71463">
        <ele>105</ele>
        <time>2013-04-21T08:51:36Z</time>
      </trkpt>
      <trkpt lat="48.43616" lon="2.71463">
        <ele>105</ele>
        <time>2013-04-21T08:51:37Z</time>
      </trkpt>
      <trkpt lat="48.43616" lon="2.71463">
        <ele>105</ele>
        <time>2013-04-21T08:51:38Z</time>
      </trkpt>
      <trkpt lat="48.43616" lon="2.71462">
        <ele>105</ele>
        <time>2013-04-21T08:51:39Z</time>
      </trkpt>
      <trkpt lat="48.43616" lon="2.71462">
        <ele>105</ele>
        <time>2013-04-21T08:51:40Z</time>
      </trkpt>
      <trkpt lat="48.43616" lon="2.71462">
        <ele>105</ele>
        <time>2013-04-21T08:51:41Z</time>
      </trkpt>
      <trkpt lat="48.43616" lon="2.71462">
        <ele>105</ele>
        <time>2013-04-21T08:51:42Z</time>
      </trkpt>
      <trkpt lat="48.43617" lon="2.71461">
        <ele>105</ele>
        <time>2013-04-21T08:51:43Z</time>
      </trkpt>
      <trkpt lat="48.43617" lon="2.71461">
        <ele>105</ele>
        <time>2013-04-21T08:51:44Z</time>
      </trkpt>
      <trkpt lat="48.43617" lon="2.71461">
        <ele>105</ele>
        <time>2013-04-21T08:51:45Z</time>
      </trkpt>
      <trkpt lat="48.43617" lon="2.7146">
        <ele>105</ele>
        <time>2013-04-21T08:51:46Z</time>
      </trkpt>
      <trkpt lat="48.43617" lon="2.7146">
        <ele>105</ele>
        <time>2013-04-21T08:51:47Z</time>
      </trkpt>
      <trkpt lat="48.43617" lon="2.7146">
        <ele>105</ele>
        <time>2013-04-21T08:51:48Z</time>
      </trkpt>
      <trkpt lat="48.43617" lon="2.7146">
        <ele>105</ele>
        <time>2013-04-21T08:51:49Z</time>
      </trkpt>
      <trkpt lat="48.43617" lon="2.71459">
        <ele>105</ele>
        <time>2013-04-21T08:51:50Z</time>
      </trkpt>
      <trkpt lat="48.43617" lon="2.71459">
        <ele>105</ele>
        <time>2013-04-21T08:51:51Z</time>
      </trkpt>
      <trkpt lat="48.43617" lon="2.71459">
        <ele>105</ele>
        <time>2013-04-21T08:51:52Z</time>
      </trkpt>
      <trkpt lat="48.43617" lon="2.71459">
        <ele>105</ele>
        <time>2013-04-21T08:51:53Z</time>
      </trkpt>
      <trkpt lat="48.43617" lon="2.71459">
        <ele>105</ele>
        <time>2013-04-21T08:51:54Z</time>
      </trkpt>
      <trkpt lat="48.43617" lon="2.71458">
        <ele>105</ele>
        <time>2013-04-21T08:51:55Z</time>
      </trkpt>
      <trkpt lat="48.43617" lon="2.71458">
        <ele>105</ele>
        <time>2013-04-21T08:51:56Z</time>
      </trkpt>
      <trkpt lat="48.43617" lon="2.71458">
        <ele>105</ele>
        <time>2013-04-21T08:51:57Z</time>
      </trkpt>
      <trkpt lat="48.43617" lon="2.71458">
        <ele>105</ele>
        <time>2013-04-21T08:51:58Z</time>
      </trkpt>
      <trkpt lat="48.43617" lon="2.71457">
        <ele>105</ele>
        <time>2013-04-21T08:51:59Z</time>
      </trkpt>
      <trkpt lat="48.43617" lon="2.71457">
        <ele>105</ele>
        <time>2013-04-21T08:52:00Z</time>
      </trkpt>
      <trkpt lat="48.43617" lon="2.71457">
        <ele>105</ele>
        <time>2013-04-21T08:52:01Z</time>
      </trkpt>
      <trkpt lat="48.43617" lon="2.71457">
        <ele>105</ele>
        <time>2013-04-21T08:52:02Z</time>
      </trkpt>
      <trkpt lat="48.43616" lon="2.71457">
        <ele>105</ele>
        <time>2013-04-21T08:52:03Z</time>
      </trkpt>
      <trkpt lat="48.43616" lon="2.71457">
        <ele>105</ele>
        <time>2013-04-21T08:52:04Z</time>
      </trkpt>
      <trkpt lat="48.43616" lon="2.71457">
        <ele>105</ele>
        <time>2013-04-21T08:52:05Z</time>
      </trkpt>
      <trkpt lat="48.43617" lon="2.71456">
        <ele>105</ele>
        <time>2013-04-21T08:52:06Z</time>
      </trkpt>
      <trkpt lat="48.43617" lon="2.71456">
        <ele>105</ele>
        <time>2013-04-21T08:52:07Z</time>
      </trkpt>
      <trkpt lat="48.43617" lon="2.71456">
        <ele>105</ele>
        <time>2013-04-21T08:52:08Z</time>
      </trkpt>
      <trkpt lat="48.43617" lon="2.71456">
        <ele>105</ele>
        <time>2013-04-21T08:52:09Z</time>
      </trkpt>
      <trkpt lat="48.43617" lon="2.71456">
        <ele>105</ele>
        <time>2013-04-21T08:52:10Z</time>
      </trkpt>
      <trkpt lat="48.43617" lon="2.71456">
        <ele>105</ele>
        <time>2013-04-21T08:52:12Z</time>
      </trkpt>
      <trkpt lat="48.43617" lon="2.71455">
        <ele>105</ele>
        <time>2013-04-21T08:52:15Z</time>
      </trkpt>
      <trkpt lat="48.43617" lon="2.71455">
        <ele>105</ele>
        <time>2013-04-21T08:52:18Z</time>
      </trkpt>
      <trkpt lat="48.43617" lon="2.71455">
        <ele>105</ele>
        <time>2013-04-21T08:52:20Z</time>
      </trkpt>
      <trkpt lat="48.43618" lon="2.71455">
        <ele>105</ele>
        <time>2013-04-21T08:52:22Z</time>
      </trkpt>
      <trkpt lat="48.43618" lon="2.71455">
        <ele>105</ele>
        <time>2013-04-21T08:52:24Z</time>
      </trkpt>
      <trkpt lat="48.43618" lon="2.71455">
        <ele>105</ele>
        <time>2013-04-21T08:52:25Z</time>
      </trkpt>
      <trkpt lat="48.4362" lon="2.71452">
        <ele>105</ele>
        <time>2013-04-21T08:52:27Z</time>
      </trkpt>
      <trkpt lat="48.43619" lon="2.7145">
        <ele>105</ele>
        <time>2013-04-21T08:52:28Z</time>
      </trkpt>
      <trkpt lat="48.43617" lon="2.71448">
        <ele>105</ele>
        <time>2013-04-21T08:52:29Z</time>
      </trkpt>
      <trkpt lat="48.4343" lon="2.71359">
        <ele>119</ele>
        <time>2013-04-21T08:53:37Z</time>
      </trkpt>
      <trkpt lat="48.43429" lon="2.71357">
        <ele>119</ele>
        <time>2013-04-21T08:53:38Z</time>
      </trkpt>
      <trkpt lat="48.43427" lon="2.71353">
        <ele>119</ele>
        <time>2013-04-21T08:53:40Z</time>
      </trkpt>
      <trkpt lat="48.43427" lon="2.7135">
        <ele>119</ele>
        <time>2013-04-21T08:53:41Z</time>
      </trkpt>
      <trkpt lat="48.43428" lon="2.7134">
        <ele>120</ele>
        <time>2013-04-21T08:53:44Z</time>
      </trkpt>
      <trkpt lat="48.43429" lon="2.71338">
        <ele>120</ele>
        <time>2013-04-21T08:53:45Z</time>
      </trkpt>
      <trkpt lat="48.43431" lon="2.71332">
        <ele>121</ele>
        <time>2013-04-21T08:53:47Z</time>
      </trkpt>
      <trkpt lat="48.43434" lon="2.71317">
        <ele>120</ele>
        <time>2013-04-21T08:53:51Z</time>
      </trkpt>
      <trkpt lat="48.43434" lon="2.71314">
        <ele>120</ele>
        <time>2013-04-21T08:53:52Z</time>
      </trkpt>
      <trkpt lat="48.43434" lon="2.71311">
        <ele>121</ele>
        <time>2013-04-21T08:53:53Z</time>
      </trkpt>
      <trkpt lat="48.43433" lon="2.71309">
        <ele>121</ele>
        <time>2013-04-21T08:53:54Z</time>
      </trkpt>
      <trkpt lat="48.43432" lon="2.71307">
        <ele>121</ele>
        <time>2013-04-21T08:53:55Z</time>
      </trkpt>
      <trkpt lat="48.43432" lon="2.71304">
        <ele>121</ele>
        <time>2013-04-21T08:53:56Z</time>
      </trkpt>
      <trkpt lat="48.43435" lon="2.71272">
        <ele>122</ele>
        <time>2013-04-21T08:54:05Z</time>
      </trkpt>
      <trkpt lat="48.43436" lon="2.71268">
        <ele>122</ele>
        <time>2013-04-21T08:54:06Z</time>
      </trkpt>
      <trkpt lat="48.43445" lon="2.71207">
        <ele>124</ele>
        <time>2013-04-21T08:54:16Z</time>
      </trkpt>
      <trkpt lat="48.43445" lon="2.712">
        <ele>124</ele>
        <time>2013-04-21T08:54:17Z</time>
      </trkpt>
      <trkpt lat="48.43446" lon="2.71195">
        <ele>124</ele>
        <time>2013-04-21T08:54:18Z</time>
      </trkpt>
      <trkpt lat="48.43446" lon="2.71167">
        <ele>125</ele>
        <time>2013-04-21T08:54:23Z</time>
      </trkpt>
      <trkpt lat="48.43447" lon="2.71162">
        <ele>125</ele>
        <time>2013-04-21T08:54:24Z</time>
      </trkpt>
      <trkpt lat="48.43451" lon="2.71153">
        <ele>125</ele>
        <time>2013-04-21T08:54:26Z</time>
      </trkpt>
      <trkpt lat="48.43453" lon="2.71141">
        <ele>124</ele>
        <time>2013-04-21T08:54:28Z</time>
      </trkpt>
      <trkpt lat="48.43453" lon="2.71126">
        <ele>124</ele>
        <time>2013-04-21T08:54:30Z</time>
      </trkpt>
      <trkpt lat="48.43456" lon="2.71096">
        <ele>124</ele>
        <time>2013-04-21T08:54:35Z</time>
      </trkpt>
      <trkpt lat="48.43457" lon="2.71091">
        <ele>124</ele>
        <time>2013-04-21T08:54:36Z</time>
      </trkpt>
      <trkpt lat="48.43471" lon="2.71063">
        <ele>124</ele>
        <time>2013-04-21T08:54:41Z</time>
      </trkpt>
      <trkpt lat="48.43474" lon="2.71058">
        <ele>124</ele>
        <time>2013-04-21T08:54:42Z</time>
      </trkpt>
      <trkpt lat="48.43478" lon="2.7105">
        <ele>124</ele>
        <time>2013-04-21T08:54:44Z</time>
      </trkpt>
      <trkpt lat="48.43478" lon="2.71045">
        <ele>124</ele>
        <time>2013-04-21T08:54:45Z</time>
      </trkpt>
      <trkpt lat="48.43478" lon="2.7103">
        <ele>124</ele>
        <time>2013-04-21T08:54:49Z</time>
      </trkpt>
      <trkpt lat="48.43458" lon="2.70931">
        <ele>127</ele>
        <time>2013-04-21T08:55:15Z</time>
      </trkpt>
      <trkpt lat="48.43437" lon="2.70863">
        <ele>129</ele>
        <time>2013-04-21T08:55:37Z</time>
      </trkpt>
      <trkpt lat="48.43434" lon="2.70855">
        <ele>130</ele>
        <time>2013-04-21T08:55:40Z</time>
      </trkpt>
      <trkpt lat="48.43432" lon="2.70853">
        <ele>130</ele>
        <time>2013-04-21T08:55:41Z</time>
      </trkpt>
      <trkpt lat="48.43427" lon="2.70842">
        <ele>131</ele>
        <time>2013-04-21T08:55:46Z</time>
      </trkpt>
      <trkpt lat="48.43426" lon="2.7084">
        <ele>131</ele>
        <time>2013-04-21T08:55:47Z</time>
      </trkpt>
      <trkpt lat="48.43421" lon="2.7083">
        <ele>132</ele>
        <time>2013-04-21T08:55:51Z</time>
      </trkpt>
      <trkpt lat="48.43416" lon="2.70823">
        <ele>132</ele>
        <time>2013-04-21T08:55:55Z</time>
      </trkpt>
      <trkpt lat="48.43416" lon="2.70822">
        <ele>132</ele>
        <time>2013-04-21T08:55:56Z</time>
      </trkpt>
      <trkpt lat="48.43416" lon="2.70822">
        <ele>132</ele>
        <time>2013-04-21T08:55:57Z</time>
      </trkpt>
      <trkpt lat="48.43415" lon="2.70822">
        <ele>132</ele>
        <time>2013-04-21T08:55:58Z</time>
      </trkpt>
      <trkpt lat="48.43415" lon="2.70821">
        <ele>132</ele>
        <time>2013-04-21T08:55:59Z</time>
      </trkpt>
      <trkpt lat="48.43415" lon="2.70821">
        <ele>132</ele>
        <time>2013-04-21T08:56:00Z</time>
      </trkpt>
      <trkpt lat="48.43415" lon="2.70821">
        <ele>133</ele>
        <time>2013-04-21T08:56:01Z</time>
      </trkpt>
      <trkpt lat="48.43414" lon="2.7082">
        <ele>133</ele>
        <time>2013-04-21T08:56:02Z</time>
      </trkpt>
      <trkpt lat="48.43414" lon="2.7082">
        <ele>133</ele>
        <time>2013-04-21T08:56:03Z</time>
      </trkpt>
      <trkpt lat="48.43414" lon="2.7082">
        <ele>133</ele>
        <time>2013-04-21T08:56:04Z</time>
      </trkpt>
      <trkpt lat="48.43414" lon="2.70819">
        <ele>133</ele>
        <time>2013-04-21T08:56:05Z</time>
      </trkpt>
      <trkpt lat="48.43413" lon="2.70819">
        <ele>133</ele>
        <time>2013-04-21T08:56:06Z</time>
      </trkpt>
      <trkpt lat="48.43413" lon="2.70819">
        <ele>133</ele>
        <time>2013-04-21T08:56:07Z</time>
      </trkpt>
      <trkpt lat="48.43413" lon="2.70818">
        <ele>133</ele>
        <time>2013-04-21T08:56:08Z</time>
      </trkpt>
      <trkpt lat="48.43413" lon="2.70818">
        <ele>133</ele>
        <time>2013-04-21T08:56:09Z</time>
      </trkpt>
      <trkpt lat="48.43413" lon="2.70818">
        <ele>133</ele>
        <time>2013-04-21T08:56:10Z</time>
      </trkpt>
      <trkpt lat="48.43412" lon="2.70818">
        <ele>133</ele>
        <time>2013-04-21T08:56:11Z</time>
      </trkpt>
      <trkpt lat="48.43412" lon="2.70818">
        <ele>133</ele>
        <time>2013-04-21T08:56:12Z</time>
      </trkpt>
      <trkpt lat="48.43412" lon="2.70818">
        <ele>133</ele>
        <time>2013-04-21T08:56:13Z</time>
      </trkpt>
      <trkpt lat="48.43412" lon="2.70818">
        <ele>133</ele>
        <time>2013-04-21T08:56:14Z</time>
      </trkpt>
      <trkpt lat="48.43412" lon="2.70818">
        <ele>133</ele>
        <time>2013-04-21T08:56:15Z</time>
      </trkpt>
      <trkpt lat="48.43412" lon="2.70818">
        <ele>133</ele>
        <time>2013-04-21T08:56:16Z</time>
      </trkpt>
      <trkpt lat="48.43411" lon="2.70818">
        <ele>133</ele>
        <time>2013-04-21T08:56:17Z</time>
      </trkpt>
      <trkpt lat="48.43412" lon="2.70817">
        <ele>133</ele>
        <time>2013-04-21T08:56:18Z</time>
      </trkpt>
      <trkpt lat="48.43412" lon="2.70817">
        <ele>133</ele>
        <time>2013-04-21T08:56:19Z</time>
      </trkpt>
      <trkpt lat="48.43412" lon="2.70817">
        <ele>133</ele>
        <time>2013-04-21T08:56:20Z</time>
      </trkpt>
      <trkpt lat="48.43412" lon="2.70817">
        <ele>133</ele>
        <time>2013-04-21T08:56:21Z</time>
      </trkpt>
      <trkpt lat="48.43412" lon="2.70817">
        <ele>133</ele>
        <time>2013-04-21T08:56:22Z</time>
      </trkpt>
      <trkpt lat="48.43411" lon="2.70817">
        <ele>133</ele>
        <time>2013-04-21T08:56:23Z</time>
      </trkpt>
      <trkpt lat="48.43411" lon="2.70817">
        <ele>133</ele>
        <time>2013-04-21T08:56:24Z</time>
      </trkpt>
      <trkpt lat="48.43411" lon="2.70817">
        <ele>133</ele>
        <time>2013-04-21T08:56:25Z</time>
      </trkpt>
      <trkpt lat="48.43411" lon="2.70817">
        <ele>133</ele>
        <time>2013-04-21T08:56:26Z</time>
      </trkpt>
      <trkpt lat="48.43411" lon="2.70817">
        <ele>133</ele>
        <time>2013-04-21T08:56:27Z</time>
      </trkpt>
      <trkpt lat="48.43411" lon="2.70818">
        <ele>133</ele>
        <time>2013-04-21T08:56:28Z</time>
      </trkpt>
      <trkpt lat="48.43411" lon="2.70818">
        <ele>133</ele>
        <time>2013-04-21T08:56:29Z</time>
      </trkpt>
      <trkpt lat="48.43411" lon="2.70818">
        <ele>133</ele>
        <time>2013-04-21T08:56:30Z</time>
      </trkpt>
      <trkpt lat="48.43411" lon="2.70818">
        <ele>133</ele>
        <time>2013-04-21T08:56:31Z</time>
      </trkpt>
      <trkpt lat="48.4341" lon="2.70818">
        <ele>133</ele>
        <time>2013-04-21T08:56:32Z</time>
      </trkpt>
      <trkpt lat="48.4341" lon="2.70818">
        <ele>133</ele>
        <time>2013-04-21T08:56:33Z</time>
      </trkpt>
      <trkpt lat="48.4341" lon="2.70818">
        <ele>133</ele>
        <time>2013-04-21T08:56:34Z</time>
      </trkpt>
      <trkpt lat="48.4341" lon="2.70818">
        <ele>133</ele>
        <time>2013-04-21T08:56:36Z</time>
      </trkpt>
      <trkpt lat="48.4341" lon="2.70818">
        <ele>133</ele>
        <time>2013-04-21T08:56:39Z</time>
      </trkpt>
      <trkpt lat="48.4341" lon="2.70818">
        <ele>133</ele>
        <time>2013-04-21T08:56:43Z</time>
      </trkpt>
      <trkpt lat="48.4341" lon="2.70818">
        <ele>133</ele>
        <time>2013-04-21T08:56:45Z</time>
      </trkpt>
      <trkpt lat="48.4341" lon="2.70818">
        <ele>133</ele>
        <time>2013-04-21T08:56:46Z</time>
      </trkpt>
      <trkpt lat="48.4341" lon="2.70817">
        <ele>133</ele>
        <time>2013-04-21T08:56:47Z</time>
      </trkpt>
      <trkpt lat="48.4341" lon="2.70817">
        <ele>133</ele>
        <time>2013-04-21T08:56:49Z</time>
      </trkpt>
      <trkpt lat="48.4341" lon="2.70817">
        <ele>133</ele>
        <time>2013-04-21T08:56:51Z</time>
      </trkpt>
      <trkpt lat="48.4341" lon="2.70817">
        <ele>133</ele>
        <time>2013-04-21T08:56:52Z</time>
      </trkpt>
      <trkpt lat="48.43409" lon="2.70817">
        <ele>133</ele>
        <time>2013-04-21T08:56:55Z</time>
      </trkpt>
      <trkpt lat="48.43409" lon="2.70817">
        <ele>133</ele>
        <time>2013-04-21T08:56:58Z</time>
      </trkpt>
      <trkpt lat="48.43409" lon="2.70817">
        <ele>133</ele>
        <time>2013-04-21T08:57:02Z</time>
      </trkpt>
      <trkpt lat="48.43409" lon="2.70817">
        <ele>133</ele>
        <time>2013-04-21T08:57:03Z</time>
      </trkpt>
      <trkpt lat="48.43409" lon="2.70817">
        <ele>133</ele>
        <time>2013-04-21T08:57:06Z</time>
      </trkpt>
      <trkpt lat="48.43409" lon="2.70817">
        <ele>133</ele>
        <time>2013-04-21T08:57:07Z</time>
      </trkpt>
      <trkpt lat="48.43409" lon="2.70817">
        <ele>133</ele>
        <time>2013-04-21T08:57:10Z</time>
      </trkpt>
      <trkpt lat="48.43409" lon="2.70817">
        <ele>133</ele>
        <time>2013-04-21T08:57:11Z</time>
      </trkpt>
      <trkpt lat="48.43408" lon="2.70817">
        <ele>133</ele>
        <time>2013-04-21T08:57:14Z</time>
      </trkpt>
      <trkpt lat="48.43407" lon="2.70816">
        <ele>133</ele>
        <time>2013-04-21T08:57:17Z</time>
      </trkpt>
      <trkpt lat="48.43406" lon="2.70814">
        <ele>133</ele>
        <time>2013-04-21T08:57:20Z</time>
      </trkpt>
      <trkpt lat="48.43405" lon="2.70812">
        <ele>133</ele>
        <time>2013-04-21T08:57:21Z</time>
      </trkpt>
      <trkpt lat="48.43397" lon="2.70807">
        <ele>133</ele>
        <time>2013-04-21T08:57:25Z</time>
      </trkpt>
      <trkpt lat="48.43395" lon="2.70806">
        <ele>133</ele>
        <time>2013-04-21T08:57:26Z</time>
      </trkpt>
      <trkpt lat="48.43389" lon="2.70805">
        <ele>133</ele>
        <time>2013-04-21T08:57:29Z</time>
      </trkpt>
      <trkpt lat="48.43382" lon="2.70807">
        <ele>133</ele>
        <time>2013-04-21T08:57:32Z</time>
      </trkpt>
      <trkpt lat="48.4338" lon="2.70808">
        <ele>133</ele>
        <time>2013-04-21T08:57:33Z</time>
      </trkpt>
      <trkpt lat="48.43379" lon="2.7081">
        <ele>133</ele>
        <time>2013-04-21T08:57:34Z</time>
      </trkpt>
      <trkpt lat="48.43377" lon="2.70812">
        <ele>133</ele>
        <time>2013-04-21T08:57:35Z</time>
      </trkpt>
      <trkpt lat="48.43376" lon="2.70815">
        <ele>133</ele>
        <time>2013-04-21T08:57:36Z</time>
      </trkpt>
      <trkpt lat="48.43375" lon="2.70817">
        <ele>133</ele>
        <time>2013-04-21T08:57:37Z</time>
      </trkpt>
      <trkpt lat="48.43375" lon="2.70821">
        <ele>133</ele>
        <time>2013-04-21T08:57:38Z</time>
      </trkpt>
      <trkpt lat="48.43374" lon="2.70824">
        <ele>133</ele>
        <time>2013-04-21T08:57:39Z</time>
      </trkpt>
      <trkpt lat="48.43375" lon="2.70831">
        <ele>133</ele>
        <time>2013-04-21T08:57:41Z</time>
      </trkpt>
      <trkpt lat="48.43392" lon="2.70902">
        <ele>131</ele>
        <time>2013-04-21T08:58:01Z</time>
      </trkpt>
      <trkpt lat="48.43392" lon="2.70906">
        <ele>131</ele>
        <time>2013-04-21T08:58:02Z</time>
      </trkpt>
      <trkpt lat="48.43387" lon="2.70965">
        <ele>130</ele>
        <time>2013-04-21T08:58:16Z</time>
      </trkpt>
      <trkpt lat="48.43364" lon="2.71084">
        <ele>130</ele>
        <time>2013-04-21T08:58:42Z</time>
      </trkpt>
      <trkpt lat="48.43364" lon="2.71087">
        <ele>130</ele>
        <time>2013-04-21T08:58:43Z</time>
      </trkpt>
      <trkpt lat="48.43364" lon="2.71091">
        <ele>130</ele>
        <time>2013-04-21T08:58:44Z</time>
      </trkpt>
      <trkpt lat="48.43364" lon="2.71099">
        <ele>130</ele>
        <time>2013-04-21T08:58:46Z</time>
      </trkpt>
      <trkpt lat="48.43363" lon="2.71104">
        <ele>130</ele>
        <time>2013-04-21T08:58:47Z</time>
      </trkpt>
      <trkpt lat="48.43359" lon="2.71115">
        <ele>130</ele>
        <time>2013-04-21T08:58:49Z</time>
      </trkpt>
      <trkpt lat="48.43357" lon="2.71121">
        <ele>130</ele>
        <time>2013-04-21T08:58:50Z</time>
      </trkpt>
      <trkpt lat="48.4335" lon="2.7113">
        <ele>130</ele>
        <time>2013-04-21T08:58:52Z</time>
      </trkpt>
      <trkpt lat="48.43342" lon="2.71135">
        <ele>130</ele>
        <time>2013-04-21T08:58:54Z</time>
      </trkpt>
      <trkpt lat="48.43334" lon="2.71138">
        <ele>130</ele>
        <time>2013-04-21T08:58:56Z</time>
      </trkpt>
      <trkpt lat="48.43325" lon="2.71138">
        <ele>130</ele>
        <time>2013-04-21T08:58:58Z</time>
      </trkpt>
      <trkpt lat="48.43309" lon="2.71132">
        <ele>130</ele>
        <time>2013-04-21T08:59:02Z</time>
      </trkpt>
      <trkpt lat="48.43305" lon="2.71129">
        <ele>130</ele>
        <time>2013-04-21T08:59:03Z</time>
      </trkpt>
      <trkpt lat="48.43247" lon="2.71051">
        <ele>131</ele>
        <time>2013-04-21T08:59:24Z</time>
      </trkpt>
      <trkpt lat="48.43239" lon="2.71034">
        <ele>132</ele>
        <time>2013-04-21T08:59:28Z</time>
      </trkpt>
      <trkpt lat="48.43237" lon="2.7102">
        <ele>132</ele>
        <time>2013-04-21T08:59:31Z</time>
      </trkpt>
      <trkpt lat="48.43235" lon="2.71">
        <ele>133</ele>
        <time>2013-04-21T08:59:36Z</time>
      </trkpt>
      <trkpt lat="48.43236" lon="2.70981">
        <ele>133</ele>
        <time>2013-04-21T08:59:41Z</time>
      </trkpt>
      <trkpt lat="48.43237" lon="2.70974">
        <ele>133</ele>
        <time>2013-04-21T08:59:43Z</time>
      </trkpt>
      <trkpt lat="48.43238" lon="2.70951">
        <ele>134</ele>
        <time>2013-04-21T08:59:49Z</time>
      </trkpt>
      <trkpt lat="48.43237" lon="2.70944">
        <ele>134</ele>
        <time>2013-04-21T08:59:51Z</time>
      </trkpt>
      <trkpt lat="48.43236" lon="2.70936">
        <ele>134</ele>
        <time>2013-04-21T08:59:53Z</time>
      </trkpt>
      <trkpt lat="48.43229" lon="2.70918">
        <ele>134</ele>
        <time>2013-04-21T08:59:58Z</time>
      </trkpt>
      <trkpt lat="48.43227" lon="2.7091">
        <ele>136</ele>
        <time>2013-04-21T09:00:00Z</time>
      </trkpt>
      <trkpt lat="48.43221" lon="2.70899">
        <ele>136</ele>
        <time>2013-04-21T09:00:03Z</time>
      </trkpt>
      <trkpt lat="48.43219" lon="2.70896">
        <ele>136</ele>
        <time>2013-04-21T09:00:04Z</time>
      </trkpt>
      <trkpt lat="48.43206" lon="2.70868">
        <ele>136</ele>
        <time>2013-04-21T09:00:11Z</time>
      </trkpt>
      <trkpt lat="48.43195" lon="2.70853">
        <ele>136</ele>
        <time>2013-04-21T09:00:15Z</time>
      </trkpt>
      <trkpt lat="48.43164" lon="2.70819">
        <ele>138</ele>
        <time>2013-04-21T09:00:25Z</time>
      </trkpt>
      <trkpt lat="48.43089" lon="2.70761">
        <ele>140</ele>
        <time>2013-04-21T09:00:48Z</time>
      </trkpt>
      <trkpt lat="48.43076" lon="2.70758">
        <ele>141</ele>
        <time>2013-04-21T09:00:52Z</time>
      </trkpt>
      <trkpt lat="48.43069" lon="2.70758">
        <ele>141</ele>
        <time>2013-04-21T09:00:54Z</time>
      </trkpt>
      <trkpt lat="48.43058" lon="2.70762">
        <ele>142</ele>
        <time>2013-04-21T09:00:57Z</time>
      </trkpt>
      <trkpt lat="48.43029" lon="2.70795">
        <ele>142</ele>
        <time>2013-04-21T09:01:08Z</time>
      </trkpt>
      <trkpt lat="48.43027" lon="2.70798">
        <ele>142</ele>
        <time>2013-04-21T09:01:09Z</time>
      </trkpt>
      <trkpt lat="48.42996" lon="2.70832">
        <ele>145</ele>
        <time>2013-04-21T09:01:22Z</time>
      </trkpt>
      <trkpt lat="48.4299" lon="2.70834">
        <ele>145</ele>
        <time>2013-04-21T09:01:24Z</time>
      </trkpt>
      <trkpt lat="48.42914" lon="2.70843">
        <ele>150</ele>
        <time>2013-04-21T09:01:48Z</time>
      </trkpt>
      <trkpt lat="48.42901" lon="2.70842">
        <ele>150</ele>
        <time>2013-04-21T09:01:54Z</time>
      </trkpt>
      <trkpt lat="48.42896" lon="2.70842">
        <ele>150</ele>
        <time>2013-04-21T09:01:56Z</time>
      </trkpt>
      <trkpt lat="48.42871" lon="2.70848">
        <ele>150</ele>
        <time>2013-04-21T09:02:10Z</time>
      </trkpt>
      <trkpt lat="48.4287" lon="2.70848">
        <ele>150</ele>
        <time>2013-04-21T09:02:11Z</time>
      </trkpt>
      <trkpt lat="48.4287" lon="2.70848">
        <ele>150</ele>
        <time>2013-04-21T09:02:12Z</time>
      </trkpt>
      <trkpt lat="48.4287" lon="2.70848">
        <ele>150</ele>
        <time>2013-04-21T09:02:13Z</time>
      </trkpt>
      <trkpt lat="48.4287" lon="2.70849">
        <ele>150</ele>
        <time>2013-04-21T09:02:14Z</time>
      </trkpt>
      <trkpt lat="48.42869" lon="2.70848">
        <ele>150</ele>
        <time>2013-04-21T09:02:15Z</time>
      </trkpt>
      <trkpt lat="48.42869" lon="2.70849">
        <ele>150</ele>
        <time>2013-04-21T09:02:16Z</time>
      </trkpt>
      <trkpt lat="48.42871" lon="2.70848">
        <ele>150</ele>
        <time>2013-04-21T09:02:19Z</time>
      </trkpt>
      <trkpt lat="48.42872" lon="2.70848">
        <ele>150</ele>
        <time>2013-04-21T09:02:20Z</time>
      </trkpt>
      <trkpt lat="48.42879" lon="2.70846">
        <ele>150</ele>
        <time>2013-04-21T09:02:23Z</time>
      </trkpt>
      <trkpt lat="48.42882" lon="2.70843">
        <ele>150</ele>
        <time>2013-04-21T09:02:24Z</time>
      </trkpt>
      <trkpt lat="48.42884" lon="2.7084">
        <ele>150</ele>
        <time>2013-04-21T09:02:25Z</time>
      </trkpt>
      <trkpt lat="48.42886" lon="2.70836">
        <ele>150</ele>
        <time>2013-04-21T09:02:26Z</time>
      </trkpt>
      <trkpt lat="48.42891" lon="2.70765">
        <ele>151</ele>
        <time>2013-04-21T09:02:39Z</time>
      </trkpt>
      <trkpt lat="48.4289" lon="2.70761">
        <ele>151</ele>
        <time>2013-04-21T09:02:40Z</time>
      </trkpt>
      <trkpt lat="48.42887" lon="2.70759">
        <ele>151</ele>
        <time>2013-04-21T09:02:41Z</time>
      </trkpt>
      <trkpt lat="48.42881" lon="2.70759">
        <ele>151</ele>
        <time>2013-04-21T09:02:43Z</time>
      </trkpt>
      <trkpt lat="48.42873" lon="2.7076">
        <ele>151</ele>
        <time>2013-04-21T09:02:46Z</time>
      </trkpt>
      <trkpt lat="48.42871" lon="2.7076">
        <ele>151</ele>
        <time>2013-04-21T09:02:47Z</time>
      </trkpt>
      <trkpt lat="48.42871" lon="2.70759">
        <ele>151</ele>
        <time>2013-04-21T09:02:48Z</time>
      </trkpt>
      <trkpt lat="48.4287" lon="2.70759">
        <ele>151</ele>
        <time>2013-04-21T09:02:49Z</time>
      </trkpt>
      <trkpt lat="48.4287" lon="2.70759">
        <ele>151</ele>
        <time>2013-04-21T09:02:50Z</time>
      </trkpt>
      <trkpt lat="48.4287" lon="2.70759">
        <ele>151</ele>
        <time>2013-04-21T09:02:51Z</time>
      </trkpt>
      <trkpt lat="48.42869" lon="2.70759">
        <ele>151</ele>
        <time>2013-04-21T09:02:52Z</time>
      </trkpt>
      <trkpt lat="48.42869" lon="2.70759">
        <ele>151</ele>
        <time>2013-04-21T09:02:54Z</time>
      </trkpt>
      <trkpt lat="48.42868" lon="2.70759">
        <ele>151</ele>
        <time>2013-04-21T09:02:55Z</time>
      </trkpt>
      <trkpt lat="48.42863" lon="2.70758">
        <ele>151</ele>
        <time>2013-04-21T09:02:58Z</time>
      </trkpt>
      <trkpt lat="48.42853" lon="2.70759">
        <ele>151</ele>
        <time>2013-04-21T09:03:03Z</time>
      </trkpt>
      <trkpt lat="48.42783" lon="2.70766">
        <ele>152</ele>
        <time>2013-04-21T09:03:23Z</time>
      </trkpt>
      <trkpt lat="48.42779" lon="2.70765">
        <ele>152</ele>
        <time>2013-04-21T09:03:24Z</time>
      </trkpt>
      <trkpt lat="48.42753" lon="2.70765">
        <ele>152</ele>
        <time>2013-04-21T09:03:30Z</time>
      </trkpt>
      <trkpt lat="48.42748" lon="2.70764">
        <ele>152</ele>
        <time>2013-04-21T09:03:31Z</time>
      </trkpt>
      <trkpt lat="48.42744" lon="2.70762">
        <ele>152</ele>
        <time>2013-04-21T09:03:32Z</time>
      </trkpt>
      <trkpt lat="48.42737" lon="2.70755">
        <ele>152</ele>
        <time>2013-04-21T09:03:34Z</time>
      </trkpt>
      <trkpt lat="48.42727" lon="2.70752">
        <ele>151</ele>
        <time>2013-04-21T09:03:36Z</time>
      </trkpt>
      <trkpt lat="48.42621" lon="2.7079">
        <ele>149</ele>
        <time>2013-04-21T09:03:56Z</time>
      </trkpt>
      <trkpt lat="48.42613" lon="2.70791">
        <ele>149</ele>
        <time>2013-04-21T09:03:58Z</time>
      </trkpt>
      <trkpt lat="48.42609" lon="2.70793">
        <ele>149</ele>
        <time>2013-04-21T09:03:59Z</time>
      </trkpt>
      <trkpt lat="48.42585" lon="2.70803">
        <ele>149</ele>
        <time>2013-04-21T09:04:03Z</time>
      </trkpt>
      <trkpt lat="48.4258" lon="2.70808">
        <ele>146</ele>
        <time>2013-04-21T09:04:04Z</time>
      </trkpt>
      <trkpt lat="48.42577" lon="2.70813">
        <ele>146</ele>
        <time>2013-04-21T09:04:05Z</time>
      </trkpt>
      <trkpt lat="48.42574" lon="2.70827">
        <ele>147</ele>
        <time>2013-04-21T09:04:07Z</time>
      </trkpt>
      <trkpt lat="48.42571" lon="2.70834">
        <ele>148</ele>
        <time>2013-04-21T09:04:08Z</time>
      </trkpt>
      <trkpt lat="48.42564" lon="2.70846">
        <ele>147</ele>
        <time>2013-04-21T09:04:10Z</time>
      </trkpt>
      <trkpt lat="48.42557" lon="2.70858">
        <ele>146</ele>
        <time>2013-04-21T09:04:12Z</time>
      </trkpt>
      <trkpt lat="48.42545" lon="2.70871">
        <ele>146</ele>
        <time>2013-04-21T09:04:15Z</time>
      </trkpt>
      <trkpt lat="48.42539" lon="2.70879">
        <ele>146</ele>
        <time>2013-04-21T09:04:17Z</time>
      </trkpt>
      <trkpt lat="48.42537" lon="2.70881">
        <ele>146</ele>
        <time>2013-04-21T09:04:18Z</time>
      </trkpt>
      <trkpt lat="48.42534" lon="2.70882">
        <ele>146</ele>
        <time>2013-04-21T09:04:19Z</time>
      </trkpt>
      <trkpt lat="48.42521" lon="2.70881">
        <ele>145</ele>
        <time>2013-04-21T09:04:25Z</time>
      </trkpt>
      <trkpt lat="48.42518" lon="2.7088">
        <ele>145</ele>
        <time>2013-04-21T09:04:26Z</time>
      </trkpt>
      <trkpt lat="48.42451" lon="2.70831">
        <ele>141</ele>
        <time>2013-04-21T09:04:46Z</time>
      </trkpt>
      <trkpt lat="48.42428" lon="2.70815">
        <ele>141</ele>
        <time>2013-04-21T09:04:52Z</time>
      </trkpt>
      <trkpt lat="48.42425" lon="2.70814">
        <ele>141</ele>
        <time>2013-04-21T09:04:53Z</time>
      </trkpt>
      <trkpt lat="48.42422" lon="2.70814">
        <ele>141</ele>
        <time>2013-04-21T09:04:54Z</time>
      </trkpt>
      <trkpt lat="48.4242" lon="2.70816">
        <ele>141</ele>
        <time>2013-04-21T09:04:55Z</time>
      </trkpt>
      <trkpt lat="48.42419" lon="2.70819">
        <ele>141</ele>
        <time>2013-04-21T09:04:56Z</time>
      </trkpt>
      <trkpt lat="48.42423" lon="2.70832">
        <ele>140</ele>
        <time>2013-04-21T09:05:00Z</time>
      </trkpt>
      <trkpt lat="48.42423" lon="2.70836">
        <ele>140</ele>
        <time>2013-04-21T09:05:01Z</time>
      </trkpt>
      <trkpt lat="48.42422" lon="2.70844">
        <ele>140</ele>
        <time>2013-04-21T09:05:03Z</time>
      </trkpt>
      <trkpt lat="48.42421" lon="2.70847">
        <ele>140</ele>
        <time>2013-04-21T09:05:04Z</time>
      </trkpt>
      <trkpt lat="48.4242" lon="2.70849">
        <ele>140</ele>
        <time>2013-04-21T09:05:05Z</time>
      </trkpt>
      <trkpt lat="48.42417" lon="2.70851">
        <ele>140</ele>
        <time>2013-04-21T09:05:06Z</time>
      </trkpt>
      <trkpt lat="48.42413" lon="2.70854">
        <ele>141</ele>
        <time>2013-04-21T09:05:08Z</time>
      </trkpt>
      <trkpt lat="48.4241" lon="2.70856">
        <ele>142</ele>
        <time>2013-04-21T09:05:10Z</time>
      </trkpt>
      <trkpt lat="48.42409" lon="2.70857">
        <ele>142</ele>
        <time>2013-04-21T09:05:11Z</time>
      </trkpt>
      <trkpt lat="48.42409" lon="2.70857">
        <ele>142</ele>
        <time>2013-04-21T09:05:12Z</time>
      </trkpt>
      <trkpt lat="48.42409" lon="2.70857">
        <ele>142</ele>
        <time>2013-04-21T09:05:13Z</time>
      </trkpt>
      <trkpt lat="48.42409" lon="2.70857">
        <ele>142</ele>
        <time>2013-04-21T09:05:14Z</time>
      </trkpt>
      <trkpt lat="48.42409" lon="2.70857">
        <ele>142</ele>
        <time>2013-04-21T09:05:15Z</time>
      </trkpt>
      <trkpt lat="48.42409" lon="2.70858">
        <ele>142</ele>
        <time>2013-04-21T09:05:16Z</time>
      </trkpt>
      <trkpt lat="48.42408" lon="2.70858">
        <ele>142</ele>
        <time>2013-04-21T09:05:17Z</time>
      </trkpt>
      <trkpt lat="48.42408" lon="2.70858">
        <ele>142</ele>
        <time>2013-04-21T09:05:18Z</time>
      </trkpt>
      <trkpt lat="48.42408" lon="2.70858">
        <ele>142</ele>
        <time>2013-04-21T09:05:20Z</time>
      </trkpt>
      <trkpt lat="48.42408" lon="2.70858">
        <ele>142</ele>
        <time>2013-04-21T09:05:21Z</time>
      </trkpt>
      <trkpt lat="48.42408" lon="2.70858">
        <ele>142</ele>
        <time>2013-04-21T09:05:23Z</time>
      </trkpt>
      <trkpt lat="48.42407" lon="2.70859">
        <ele>142</ele>
        <time>2013-04-21T09:05:24Z</time>
      </trkpt>
      <trkpt lat="48.42407" lon="2.70858">
        <ele>142</ele>
        <time>2013-04-21T09:05:25Z</time>
      </trkpt>
      <trkpt lat="48.42407" lon="2.70859">
        <ele>142</ele>
        <time>2013-04-21T09:05:26Z</time>
      </trkpt>
      <trkpt lat="48.42407" lon="2.70859">
        <ele>142</ele>
        <time>2013-04-21T09:05:27Z</time>
      </trkpt>
      <trkpt lat="48.42407" lon="2.70859">
        <ele>142</ele>
        <time>2013-04-21T09:05:28Z</time>
      </trkpt>
      <trkpt lat="48.42407" lon="2.70859">
        <ele>142</ele>
        <time>2013-04-21T09:05:30Z</time>
      </trkpt>
      <trkpt lat="48.42406" lon="2.70859">
        <ele>142</ele>
        <time>2013-04-21T09:05:31Z</time>
      </trkpt>
      <trkpt lat="48.42406" lon="2.70859">
        <ele>142</ele>
        <time>2013-04-21T09:05:33Z</time>
      </trkpt>
      <trkpt lat="48.42406" lon="2.70859">
        <ele>142</ele>
        <time>2013-04-21T09:05:34Z</time>
      </trkpt>
      <trkpt lat="48.42406" lon="2.70859">
        <ele>142</ele>
        <time>2013-04-21T09:05:36Z</time>
      </trkpt>
      <trkpt lat="48.42406" lon="2.70859">
        <ele>142</ele>
        <time>2013-04-21T09:05:37Z</time>
      </trkpt>
      <trkpt lat="48.42407" lon="2.70859">
        <ele>142</ele>
        <time>2013-04-21T09:05:38Z</time>
      </trkpt>
      <trkpt lat="48.42407" lon="2.70858">
        <ele>142</ele>
        <time>2013-04-21T09:05:39Z</time>
      </trkpt>
      <trkpt lat="48.42408" lon="2.70857">
        <ele>142</ele>
        <time>2013-04-21T09:05:40Z</time>
      </trkpt>
      <trkpt lat="48.4241" lon="2.70855">
        <ele>142</ele>
        <time>2013-04-21T09:05:41Z</time>
      </trkpt>
      <trkpt lat="48.42416" lon="2.70854">
        <ele>141</ele>
        <time>2013-04-21T09:05:44Z</time>
      </trkpt>
      <trkpt lat="48.42418" lon="2.70853">
        <ele>140</ele>
        <time>2013-04-21T09:05:45Z</time>
      </trkpt>
      <trkpt lat="48.42418" lon="2.70851">
        <ele>140</ele>
        <time>2013-04-21T09:05:46Z</time>
      </trkpt>
      <trkpt lat="48.42417" lon="2.70851">
        <ele>141</ele>
        <time>2013-04-21T09:05:47Z</time>
      </trkpt>
      <trkpt lat="48.42415" lon="2.70852">
        <ele>141</ele>
        <time>2013-04-21T09:05:48Z</time>
      </trkpt>
      <trkpt lat="48.42414" lon="2.70853">
        <ele>141</ele>
        <time>2013-04-21T09:05:49Z</time>
      </trkpt>
      <trkpt lat="48.42411" lon="2.70855">
        <ele>142</ele>
        <time>2013-04-21T09:05:51Z</time>
      </trkpt>
      <trkpt lat="48.42409" lon="2.70857">
        <ele>142</ele>
        <time>2013-04-21T09:05:52Z</time>
      </trkpt>
      <trkpt lat="48.42408" lon="2.70859">
        <ele>142</ele>
        <time>2013-04-21T09:05:53Z</time>
      </trkpt>
      <trkpt lat="48.42407" lon="2.7086">
        <ele>142</ele>
        <time>2013-04-21T09:05:54Z</time>
      </trkpt>
      <trkpt lat="48.42405" lon="2.70861">
        <ele>142</ele>
        <time>2013-04-21T09:05:56Z</time>
      </trkpt>
      <trkpt lat="48.42403" lon="2.70861">
        <ele>142</ele>
        <time>2013-04-21T09:05:58Z</time>
      </trkpt>
      <trkpt lat="48.42403" lon="2.70861">
        <ele>142</ele>
        <time>2013-04-21T09:05:59Z</time>
      </trkpt>
      <trkpt lat="48.42403" lon="2.70861">
        <ele>142</ele>
        <time>2013-04-21T09:06:03Z</time>
      </trkpt>
      <trkpt lat="48.42403" lon="2.70862">
        <ele>142</ele>
        <time>2013-04-21T09:06:06Z</time>
      </trkpt>
      <trkpt lat="48.42403" lon="2.70862">
        <ele>142</ele>
        <time>2013-04-21T09:06:09Z</time>
      </trkpt>
      <trkpt lat="48.42403" lon="2.70862">
        <ele>142</ele>
        <time>2013-04-21T09:06:14Z</time>
      </trkpt>
      <trkpt lat="48.42402" lon="2.70862">
        <ele>142</ele>
        <time>2013-04-21T09:06:18Z</time>
      </trkpt>
      <trkpt lat="48.42402" lon="2.70862">
        <ele>142</ele>
        <time>2013-04-21T09:06:21Z</time>
      </trkpt>
      <trkpt lat="48.42402" lon="2.70862">
        <ele>142</ele>
        <time>2013-04-21T09:06:22Z</time>
      </trkpt>
      <trkpt lat="48.42402" lon="2.70862">
        <ele>142</ele>
        <time>2013-04-21T09:06:24Z</time>
      </trkpt>
      <trkpt lat="48.42402" lon="2.70862">
        <ele>142</ele>
        <time>2013-04-21T09:06:25Z</time>
      </trkpt>
      <trkpt lat="48.42402" lon="2.70862">
        <ele>142</ele>
        <time>2013-04-21T09:06:27Z</time>
      </trkpt>
      <trkpt lat="48.42402" lon="2.70862">
        <ele>142</ele>
        <time>2013-04-21T09:06:28Z</time>
      </trkpt>
      <trkpt lat="48.42402" lon="2.70862">
        <ele>142</ele>
        <time>2013-04-21T09:06:29Z</time>
      </trkpt>
      <trkpt lat="48.42402" lon="2.70863">
        <ele>142</ele>
        <time>2013-04-21T09:06:32Z</time>
      </trkpt>
      <trkpt lat="48.42402" lon="2.70863">
        <ele>142</ele>
        <time>2013-04-21T09:06:34Z</time>
      </trkpt>
      <trkpt lat="48.42402" lon="2.70863">
        <ele>142</ele>
        <time>2013-04-21T09:06:36Z</time>
      </trkpt>
      <trkpt lat="48.42402" lon="2.70863">
        <ele>142</ele>
        <time>2013-04-21T09:06:37Z</time>
      </trkpt>
      <trkpt lat="48.42402" lon="2.70863">
        <ele>142</ele>
        <time>2013-04-21T09:06:41Z</time>
      </trkpt>
      <trkpt lat="48.42402" lon="2.70863">
        <ele>142</ele>
        <time>2013-04-21T09:06:44Z</time>
      </trkpt>
      <trkpt lat="48.42402" lon="2.70863">
        <ele>142</ele>
        <time>2013-04-21T09:06:47Z</time>
      </trkpt>
      <trkpt lat="48.42402" lon="2.70864">
        <ele>142</ele>
        <time>2013-04-21T09:06:50Z</time>
      </trkpt>
      <trkpt lat="48.42402" lon="2.70864">
        <ele>142</ele>
        <time>2013-04-21T09:06:52Z</time>
      </trkpt>
      <trkpt lat="48.42402" lon="2.70864">
        <ele>142</ele>
        <time>2013-04-21T09:06:53Z</time>
      </trkpt>
      <trkpt lat="48.42402" lon="2.70864">
        <ele>142</ele>
        <time>2013-04-21T09:06:55Z</time>
      </trkpt>
      <trkpt lat="48.42402" lon="2.70864">
        <ele>142</ele>
        <time>2013-04-21T09:06:57Z</time>
      </trkpt>
      <trkpt lat="48.42402" lon="2.70864">
        <ele>142</ele>
        <time>2013-04-21T09:07:00Z</time>
      </trkpt>
      <trkpt lat="48.42402" lon="2.70864">
        <ele>142</ele>
        <time>2013-04-21T09:07:02Z</time>
      </trkpt>
      <trkpt lat="48.42397" lon="2.70865">
        <ele>142</ele>
        <time>2013-04-21T09:07:07Z</time>
      </trkpt>
      <trkpt lat="48.42396" lon="2.70865">
        <ele>142</ele>
        <time>2013-04-21T09:07:08Z</time>
      </trkpt>
      <trkpt lat="48.42396" lon="2.70866">
        <ele>142</ele>
        <time>2013-04-21T09:07:09Z</time>
      </trkpt>
      <trkpt lat="48.42396" lon="2.70866">
        <ele>142</ele>
        <time>2013-04-21T09:07:10Z</time>
      </trkpt>
      <trkpt lat="48.42396" lon="2.70866">
        <ele>142</ele>
        <time>2013-04-21T09:07:12Z</time>
      </trkpt>
      <trkpt lat="48.42396" lon="2.70866">
        <ele>142</ele>
        <time>2013-04-21T09:07:15Z</time>
      </trkpt>
      <trkpt lat="48.42396" lon="2.70866">
        <ele>142</ele>
        <time>2013-04-21T09:07:16Z</time>
      </trkpt>
      <trkpt lat="48.42396" lon="2.70865">
        <ele>142</ele>
        <time>2013-04-21T09:07:25Z</time>
      </trkpt>
      <trkpt lat="48.42396" lon="2.70866">
        <ele>142</ele>
        <time>2013-04-21T09:07:29Z</time>
      </trkpt>
      <trkpt lat="48.42396" lon="2.70866">
        <ele>142</ele>
        <time>2013-04-21T09:07:32Z</time>
      </trkpt>
      <trkpt lat="48.42396" lon="2.70866">
        <ele>142</ele>
        <time>2013-04-21T09:07:34Z</time>
      </trkpt>
      <trkpt lat="48.42395" lon="2.70866">
        <ele>142</ele>
        <time>2013-04-21T09:07:36Z</time>
      </trkpt>
      <trkpt lat="48.42395" lon="2.70866">
        <ele>142</ele>
        <time>2013-04-21T09:07:38Z</time>
      </trkpt>
      <trkpt lat="48.42396" lon="2.70866">
        <ele>142</ele>
        <time>2013-04-21T09:07:45Z</time>
      </trkpt>
      <trkpt lat="48.42396" lon="2.70866">
        <ele>142</ele>
        <time>2013-04-21T09:07:50Z</time>
      </trkpt>
      <trkpt lat="48.42396" lon="2.70866">
        <ele>142</ele>
        <time>2013-04-21T09:07:51Z</time>
      </trkpt>
      <trkpt lat="48.42396" lon="2.70866">
        <ele>142</ele>
        <time>2013-04-21T09:07:52Z</time>
      </trkpt>
      <trkpt lat="48.42395" lon="2.70866">
        <ele>142</ele>
        <time>2013-04-21T09:07:58Z</time>
      </trkpt>
      <trkpt lat="48.42395" lon="2.70866">
        <ele>142</ele>
        <time>2013-04-21T09:07:59Z</time>
      </trkpt>
      <trkpt lat="48.42395" lon="2.70867">
        <ele>142</ele>
        <time>2013-04-21T09:08:01Z</time>
      </trkpt>
      <trkpt lat="48.42395" lon="2.70867">
        <ele>142</ele>
        <time>2013-04-21T09:08:03Z</time>
      </trkpt>
      <trkpt lat="48.42395" lon="2.70867">
        <ele>142</ele>
        <time>2013-04-21T09:08:04Z</time>
      </trkpt>
      <trkpt lat="48.42395" lon="2.70867">
        <ele>142</ele>
        <time>2013-04-21T09:08:06Z</time>
      </trkpt>
      <trkpt lat="48.42395" lon="2.70867">
        <ele>142</ele>
        <time>2013-04-21T09:08:07Z</time>
      </trkpt>
      <trkpt lat="48.42395" lon="2.70867">
        <ele>142</ele>
        <time>2013-04-21T09:08:09Z</time>
      </trkpt>
      <trkpt lat="48.42395" lon="2.70867">
        <ele>142</ele>
        <time>2013-04-21T09:08:11Z</time>
      </trkpt>
      <trkpt lat="48.42395" lon="2.70867">
        <ele>142</ele>
        <time>2013-04-21T09:08:14Z</time>
      </trkpt>
      <trkpt lat="48.42395" lon="2.70867">
        <ele>142</ele>
        <time>2013-04-21T09:08:15Z</time>
      </trkpt>
      <trkpt lat="48.42396" lon="2.70866">
        <ele>142</ele>
        <time>2013-04-21T09:08:16Z</time>
      </trkpt>
      <trkpt lat="48.42399" lon="2.70863">
        <ele>142</ele>
        <time>2013-04-21T09:08:19Z</time>
      </trkpt>
      <trkpt lat="48.42402" lon="2.70861">
        <ele>142</ele>
        <time>2013-04-21T09:08:21Z</time>
      </trkpt>
      <trkpt lat="48.42405" lon="2.70859">
        <ele>142</ele>
        <time>2013-04-21T09:08:29Z</time>
      </trkpt>
      <trkpt lat="48.42405" lon="2.70859">
        <ele>142</ele>
        <time>2013-04-21T09:08:31Z</time>
      </trkpt>
      <trkpt lat="48.42405" lon="2.70859">
        <ele>142</ele>
        <time>2013-04-21T09:08:32Z</time>
      </trkpt>
      <trkpt lat="48.42405" lon="2.70859">
        <ele>142</ele>
        <time>2013-04-21T09:08:33Z</time>
      </trkpt>
      <trkpt lat="48.42405" lon="2.70859">
        <ele>142</ele>
        <time>2013-04-21T09:08:34Z</time>
      </trkpt>
      <trkpt lat="48.42405" lon="2.70859">
        <ele>142</ele>
        <time>2013-04-21T09:08:35Z</time>
      </trkpt>
      <trkpt lat="48.42405" lon="2.70858">
        <ele>142</ele>
        <time>2013-04-21T09:08:36Z</time>
      </trkpt>
      <trkpt lat="48.42405" lon="2.70858">
        <ele>142</ele>
        <time>2013-04-21T09:08:37Z</time>
      </trkpt>
      <trkpt lat="48.42405" lon="2.70858">
        <ele>142</ele>
        <time>2013-04-21T09:08:38Z</time>
      </trkpt>
      <trkpt lat="48.42405" lon="2.70858">
        <ele>142</ele>
        <time>2013-04-21T09:08:39Z</time>
      </trkpt>
      <trkpt lat="48.42405" lon="2.70858">
        <ele>142</ele>
        <time>2013-04-21T09:08:40Z</time>
      </trkpt>
      <trkpt lat="48.42405" lon="2.70858">
        <ele>142</ele>
        <time>2013-04-21T09:08:41Z</time>
      </trkpt>
      <trkpt lat="48.42405" lon="2.70858">
        <ele>142</ele>
        <time>2013-04-21T09:08:42Z</time>
      </trkpt>
      <trkpt lat="48.42405" lon="2.70857">
        <ele>142</ele>
        <time>2013-04-21T09:08:43Z</time>
      </trkpt>
      <trkpt lat="48.42406" lon="2.70857">
        <ele>142</ele>
        <time>2013-04-21T09:08:44Z</time>
      </trkpt>
      <trkpt lat="48.42406" lon="2.70857">
        <ele>142</ele>
        <time>2013-04-21T09:08:45Z</time>
      </trkpt>
      <trkpt lat="48.42406" lon="2.70857">
        <ele>142</ele>
        <time>2013-04-21T09:08:46Z</time>
      </trkpt>
      <trkpt lat="48.42406" lon="2.70856">
        <ele>142</ele>
        <time>2013-04-21T09:08:47Z</time>
      </trkpt>
      <trkpt lat="48.42406" lon="2.70856">
        <ele>142</ele>
        <time>2013-04-21T09:08:48Z</time>
      </trkpt>
      <trkpt lat="48.42406" lon="2.70856">
        <ele>142</ele>
        <time>2013-04-21T09:08:50Z</time>
      </trkpt>
      <trkpt lat="48.42405" lon="2.70856">
        <ele>142</ele>
        <time>2013-04-21T09:08:51Z</time>
      </trkpt>
      <trkpt lat="48.42405" lon="2.70856">
        <ele>142</ele>
        <time>2013-04-21T09:08:52Z</time>
      </trkpt>
      <trkpt lat="48.42406" lon="2.70856">
        <ele>142</ele>
        <time>2013-04-21T09:08:53Z</time>
      </trkpt>
      <trkpt lat="48.42406" lon="2.70856">
        <ele>142</ele>
        <time>2013-04-21T09:08:54Z</time>
      </trkpt>
      <trkpt lat="48.42405" lon="2.70856">
        <ele>142</ele>
        <time>2013-04-21T09:08:57Z</time>
      </trkpt>
      <trkpt lat="48.42405" lon="2.70856">
        <ele>142</ele>
        <time>2013-04-21T09:08:58Z</time>
      </trkpt>
      <trkpt lat="48.42405" lon="2.70856">
        <ele>142</ele>
        <time>2013-04-21T09:08:59Z</time>
      </trkpt>
      <trkpt lat="48.42405" lon="2.70856">
        <ele>142</ele>
        <time>2013-04-21T09:09:00Z</time>
      </trkpt>
      <trkpt lat="48.42405" lon="2.70856">
        <ele>142</ele>
        <time>2013-04-21T09:09:01Z</time>
      </trkpt>
      <trkpt lat="48.42405" lon="2.70856">
        <ele>142</ele>
        <time>2013-04-21T09:09:03Z</time>
      </trkpt>
      <trkpt lat="48.42405" lon="2.70856">
        <ele>142</ele>
        <time>2013-04-21T09:09:04Z</time>
      </trkpt>
      <trkpt lat="48.42405" lon="2.70856">
        <ele>142</ele>
        <time>2013-04-21T09:09:05Z</time>
      </trkpt>
      <trkpt lat="48.42405" lon="2.70856">
        <ele>142</ele>
        <time>2013-04-21T09:09:06Z</time>
      </trkpt>
      <trkpt lat="48.42405" lon="2.70856">
        <ele>142</ele>
        <time>2013-04-21T09:09:09Z</time>
      </trkpt>
      <trkpt lat="48.42404" lon="2.70856">
        <ele>142</ele>
        <time>2013-04-21T09:09:10Z</time>
      </trkpt>
      <trkpt lat="48.42404" lon="2.70856">
        <ele>142</ele>
        <time>2013-04-21T09:09:11Z</time>
      </trkpt>
      <trkpt lat="48.42404" lon="2.70857">
        <ele>142</ele>
        <time>2013-04-21T09:09:15Z</time>
      </trkpt>
      <trkpt lat="48.42404" lon="2.70857">
        <ele>142</ele>
        <time>2013-04-21T09:09:19Z</time>
      </trkpt>
      <trkpt lat="48.42404" lon="2.70857">
        <ele>142</ele>
        <time>2013-04-21T09:09:24Z</time>
      </trkpt>
      <trkpt lat="48.42404" lon="2.70857">
        <ele>142</ele>
        <time>2013-04-21T09:09:32Z</time>
      </trkpt>
      <trkpt lat="48.42404" lon="2.70857">
        <ele>142</ele>
        <time>2013-04-21T09:09:34Z</time>
      </trkpt>
      <trkpt lat="48.42405" lon="2.70857">
        <ele>142</ele>
        <time>2013-04-21T09:09:36Z</time>
      </trkpt>
      <trkpt lat="48.42405" lon="2.70857">
        <ele>142</ele>
        <time>2013-04-21T09:09:37Z</time>
      </trkpt>
      <trkpt lat="48.42405" lon="2.70857">
        <ele>142</ele>
        <time>2013-04-21T09:09:38Z</time>
      </trkpt>
      <trkpt lat="48.42405" lon="2.70857">
        <ele>142</ele>
        <time>2013-04-21T09:09:39Z</time>
      </trkpt>
      <trkpt lat="48.42405" lon="2.70857">
        <ele>142</ele>
        <time>2013-04-21T09:09:40Z</time>
      </trkpt>
      <trkpt lat="48.42405" lon="2.70857">
        <ele>142</ele>
        <time>2013-04-21T09:09:42Z</time>
      </trkpt>
      <trkpt lat="48.42405" lon="2.70856">
        <ele>142</ele>
        <time>2013-04-21T09:09:43Z</time>
      </trkpt>
      <trkpt lat="48.42405" lon="2.70856">
        <ele>142</ele>
        <time>2013-04-21T09:09:45Z</time>
      </trkpt>
      <trkpt lat="48.42406" lon="2.70856">
        <ele>142</ele>
        <time>2013-04-21T09:09:46Z</time>
      </trkpt>
      <trkpt lat="48.42406" lon="2.70856">
        <ele>142</ele>
        <time>2013-04-21T09:09:48Z</time>
      </trkpt>
      <trkpt lat="48.42406" lon="2.70856">
        <ele>142</ele>
        <time>2013-04-21T09:09:50Z</time>
      </trkpt>
      <trkpt lat="48.42406" lon="2.70856">
        <ele>142</ele>
        <time>2013-04-21T09:09:51Z</time>
      </trkpt>
      <trkpt lat="48.42406" lon="2.70856">
        <ele>142</ele>
        <time>2013-04-21T09:09:53Z</time>
      </trkpt>
      <trkpt lat="48.42406" lon="2.70856">
        <ele>142</ele>
        <time>2013-04-21T09:09:54Z</time>
      </trkpt>
      <trkpt lat="48.42406" lon="2.70856">
        <ele>142</ele>
        <time>2013-04-21T09:09:55Z</time>
      </trkpt>
      <trkpt lat="48.42405" lon="2.70856">
        <ele>142</ele>
        <time>2013-04-21T09:09:56Z</time>
      </trkpt>
      <trkpt lat="48.42405" lon="2.70857">
        <ele>142</ele>
        <time>2013-04-21T09:09:57Z</time>
      </trkpt>
      <trkpt lat="48.42405" lon="2.70858">
        <ele>142</ele>
        <time>2013-04-21T09:09:58Z</time>
      </trkpt>
      <trkpt lat="48.42405" lon="2.70858">
        <ele>142</ele>
        <time>2013-04-21T09:09:59Z</time>
      </trkpt>
      <trkpt lat="48.42405" lon="2.70859">
        <ele>142</ele>
        <time>2013-04-21T09:10:00Z</time>
      </trkpt>
      <trkpt lat="48.42405" lon="2.70859">
        <ele>142</ele>
        <time>2013-04-21T09:10:04Z</time>
      </trkpt>
      <trkpt lat="48.42405" lon="2.70859">
        <ele>142</ele>
        <time>2013-04-21T09:10:07Z</time>
      </trkpt>
      <trkpt lat="48.42405" lon="2.70859">
        <ele>142</ele>
        <time>2013-04-21T09:10:09Z</time>
      </trkpt>
      <trkpt lat="48.42405" lon="2.7086">
        <ele>142</ele>
        <time>2013-04-21T09:10:11Z</time>
      </trkpt>
      <trkpt lat="48.42405" lon="2.7086">
        <ele>142</ele>
        <time>2013-04-21T09:10:12Z</time>
      </trkpt>
      <trkpt lat="48.42404" lon="2.7086">
        <ele>142</ele>
        <time>2013-04-21T09:10:14Z</time>
      </trkpt>
      <trkpt lat="48.42404" lon="2.7086">
        <ele>142</ele>
        <time>2013-04-21T09:10:15Z</time>
      </trkpt>
      <trkpt lat="48.42404" lon="2.7086">
        <ele>142</ele>
        <time>2013-04-21T09:10:16Z</time>
      </trkpt>
      <trkpt lat="48.42404" lon="2.7086">
        <ele>142</ele>
        <time>2013-04-21T09:10:17Z</time>
      </trkpt>
      <trkpt lat="48.42404" lon="2.7086">
        <ele>142</ele>
        <time>2013-04-21T09:10:18Z</time>
      </trkpt>
      <trkpt lat="48.42404" lon="2.70861">
        <ele>142</ele>
        <time>2013-04-21T09:10:19Z</time>
      </trkpt>
      <trkpt lat="48.42404" lon="2.70861">
        <ele>142</ele>
        <time>2013-04-21T09:10:20Z</time>
      </trkpt>
      <trkpt lat="48.42404" lon="2.70861">
        <ele>142</ele>
        <time>2013-04-21T09:10:21Z</time>
      </trkpt>
      <trkpt lat="48.42404" lon="2.70861">
        <ele>142</ele>
        <time>2013-04-21T09:10:22Z</time>
      </trkpt>
      <trkpt lat="48.42404" lon="2.70861">
        <ele>142</ele>
        <time>2013-04-21T09:10:24Z</time>
      </trkpt>
      <trkpt lat="48.42404" lon="2.70861">
        <ele>142</ele>
        <time>2013-04-21T09:10:25Z</time>
      </trkpt>
      <trkpt lat="48.42403" lon="2.70862">
        <ele>142</ele>
        <time>2013-04-21T09:10:26Z</time>
      </trkpt>
      <trkpt lat="48.42403" lon="2.70862">
        <ele>142</ele>
        <time>2013-04-21T09:10:27Z</time>
      </trkpt>
      <trkpt lat="48.42403" lon="2.70862">
        <ele>142</ele>
        <time>2013-04-21T09:10:29Z</time>
      </trkpt>
      <trkpt lat="48.42403" lon="2.70862">
        <ele>142</ele>
        <time>2013-04-21T09:10:31Z</time>
      </trkpt>
      <trkpt lat="48.42403" lon="2.70862">
        <ele>142</ele>
        <time>2013-04-21T09:10:32Z</time>
      </trkpt>
      <trkpt lat="48.42403" lon="2.70862">
        <ele>142</ele>
        <time>2013-04-21T09:10:34Z</time>
      </trkpt>
      <trkpt lat="48.42403" lon="2.70862">
        <ele>142</ele>
        <time>2013-04-21T09:10:35Z</time>
      </trkpt>
      <trkpt lat="48.42403" lon="2.70863">
        <ele>142</ele>
        <time>2013-04-21T09:10:36Z</time>
      </trkpt>
      <trkpt lat="48.42403" lon="2.70863">
        <ele>142</ele>
        <time>2013-04-21T09:10:38Z</time>
      </trkpt>
      <trkpt lat="48.42403" lon="2.70863">
        <ele>142</ele>
        <time>2013-04-21T09:10:40Z</time>
      </trkpt>
      <trkpt lat="48.42403" lon="2.70863">
        <ele>142</ele>
        <time>2013-04-21T09:10:42Z</time>
      </trkpt>
      <trkpt lat="48.42403" lon="2.70863">
        <ele>142</ele>
        <time>2013-04-21T09:10:43Z</time>
      </trkpt>
      <trkpt lat="48.42403" lon="2.70863">
        <ele>142</ele>
        <time>2013-04-21T09:10:45Z</time>
      </trkpt>
      <trkpt lat="48.42402" lon="2.70863">
        <ele>142</ele>
        <time>2013-04-21T09:10:47Z</time>
      </trkpt>
      <trkpt lat="48.42402" lon="2.70863">
        <ele>142</ele>
        <time>2013-04-21T09:10:48Z</time>
      </trkpt>
      <trkpt lat="48.42402" lon="2.70864">
        <ele>142</ele>
        <time>2013-04-21T09:10:51Z</time>
      </trkpt>
      <trkpt lat="48.42402" lon="2.70864">
        <ele>142</ele>
        <time>2013-04-21T09:10:53Z</time>
      </trkpt>
      <trkpt lat="48.42402" lon="2.70864">
        <ele>142</ele>
        <time>2013-04-21T09:10:54Z</time>
      </trkpt>
      <trkpt lat="48.42402" lon="2.70864">
        <ele>142</ele>
        <time>2013-04-21T09:10:58Z</time>
      </trkpt>
      <trkpt lat="48.42402" lon="2.70864">
        <ele>142</ele>
        <time>2013-04-21T09:10:59Z</time>
      </trkpt>
      <trkpt lat="48.42402" lon="2.70864">
        <ele>142</ele>
        <time>2013-04-21T09:11:02Z</time>
      </trkpt>
      <trkpt lat="48.42402" lon="2.70864">
        <ele>142</ele>
        <time>2013-04-21T09:11:05Z</time>
      </trkpt>
      <trkpt lat="48.42402" lon="2.70864">
        <ele>142</ele>
        <time>2013-04-21T09:11:06Z</time>
      </trkpt>
      <trkpt lat="48.42402" lon="2.70864">
        <ele>142</ele>
        <time>2013-04-21T09:11:18Z</time>
      </trkpt>
      <trkpt lat="48.42402" lon="2.70864">
        <ele>142</ele>
        <time>2013-04-21T09:11:19Z</time>
      </trkpt>
      <trkpt lat="48.42402" lon="2.70864">
        <ele>142</ele>
        <time>2013-04-21T09:11:25Z</time>
      </trkpt>
      <trkpt lat="48.42401" lon="2.70865">
        <ele>142</ele>
        <time>2013-04-21T09:11:29Z</time>
      </trkpt>
      <trkpt lat="48.42401" lon="2.70865">
        <ele>142</ele>
        <time>2013-04-21T09:11:32Z</time>
      </trkpt>
      <trkpt lat="48.42401" lon="2.70865">
        <ele>142</ele>
        <time>2013-04-21T09:11:33Z</time>
      </trkpt>
      <trkpt lat="48.42401" lon="2.70865">
        <ele>142</ele>
        <time>2013-04-21T09:11:34Z</time>
      </trkpt>
      <trkpt lat="48.42401" lon="2.70865">
        <ele>142</ele>
        <time>2013-04-21T09:11:36Z</time>
      </trkpt>
      <trkpt lat="48.42401" lon="2.70865">
        <ele>142</ele>
        <time>2013-04-21T09:11:37Z</time>
      </trkpt>
      <trkpt lat="48.42401" lon="2.70865">
        <ele>142</ele>
        <time>2013-04-21T09:11:39Z</time>
      </trkpt>
      <trkpt lat="48.42401" lon="2.70865">
        <ele>142</ele>
        <time>2013-04-21T09:11:40Z</time>
      </trkpt>
      <trkpt lat="48.42401" lon="2.70866">
        <ele>142</ele>
        <time>2013-04-21T09:11:42Z</time>
      </trkpt>
      <trkpt lat="48.42401" lon="2.70866">
        <ele>142</ele>
        <time>2013-04-21T09:11:44Z</time>
      </trkpt>
      <trkpt lat="48.42401" lon="2.70866">
        <ele>142</ele>
        <time>2013-04-21T09:11:46Z</time>
      </trkpt>
      <trkpt lat="48.42401" lon="2.70866">
        <ele>142</ele>
        <time>2013-04-21T09:11:48Z</time>
      </trkpt>
      <trkpt lat="48.424" lon="2.70866">
        <ele>142</ele>
        <time>2013-04-21T09:11:50Z</time>
      </trkpt>
      <trkpt lat="48.424" lon="2.70866">
        <ele>142</ele>
        <time>2013-04-21T09:11:52Z</time>
      </trkpt>
      <trkpt lat="48.424" lon="2.70867">
        <ele>142</ele>
        <time>2013-04-21T09:11:53Z</time>
      </trkpt>
      <trkpt lat="48.424" lon="2.70867">
        <ele>142</ele>
        <time>2013-04-21T09:11:54Z</time>
      </trkpt>
      <trkpt lat="48.424" lon="2.70867">
        <ele>142</ele>
        <time>2013-04-21T09:11:56Z</time>
      </trkpt>
      <trkpt lat="48.424" lon="2.70867">
        <ele>142</ele>
        <time>2013-04-21T09:11:57Z</time>
      </trkpt>
      <trkpt lat="48.424" lon="2.70867">
        <ele>142</ele>
        <time>2013-04-21T09:12:00Z</time>
      </trkpt>
      <trkpt lat="48.424" lon="2.70867">
        <ele>142</ele>
        <time>2013-04-21T09:12:02Z</time>
      </trkpt>
      <trkpt lat="48.424" lon="2.70866">
        <ele>142</ele>
        <time>2013-04-21T09:12:06Z</time>
      </trkpt>
      <trkpt lat="48.42401" lon="2.70866">
        <ele>142</ele>
        <time>2013-04-21T09:12:09Z</time>
      </trkpt>
      <trkpt lat="48.42401" lon="2.70866">
        <ele>142</ele>
        <time>2013-04-21T09:12:13Z</time>
      </trkpt>
      <trkpt lat="48.42402" lon="2.70865">
        <ele>142</ele>
        <time>2013-04-21T09:12:16Z</time>
      </trkpt>
      <trkpt lat="48.42402" lon="2.70865">
        <ele>142</ele>
        <time>2013-04-21T09:12:17Z</time>
      </trkpt>
      <trkpt lat="48.42402" lon="2.70865">
        <ele>142</ele>
        <time>2013-04-21T09:12:19Z</time>
      </trkpt>
      <trkpt lat="48.42402" lon="2.70865">
        <ele>142</ele>
        <time>2013-04-21T09:12:20Z</time>
      </trkpt>
      <trkpt lat="48.42402" lon="2.70865">
        <ele>142</ele>
        <time>2013-04-21T09:12:21Z</time>
      </trkpt>
      <trkpt lat="48.42402" lon="2.70865">
        <ele>142</ele>
        <time>2013-04-21T09:12:22Z</time>
      </trkpt>
      <trkpt lat="48.42402" lon="2.70865">
        <ele>142</ele>
        <time>2013-04-21T09:12:24Z</time>
      </trkpt>
      <trkpt lat="48.42402" lon="2.70865">
        <ele>142</ele>
        <time>2013-04-21T09:12:25Z</time>
      </trkpt>
      <trkpt lat="48.42402" lon="2.70864">
        <ele>142</ele>
        <time>2013-04-21T09:12:26Z</time>
      </trkpt>
      <trkpt lat="48.42402" lon="2.70864">
        <ele>142</ele>
        <time>2013-04-21T09:12:27Z</time>
      </trkpt>
      <trkpt lat="48.42402" lon="2.70864">
        <ele>142</ele>
        <time>2013-04-21T09:12:29Z</time>
      </trkpt>
      <trkpt lat="48.42402" lon="2.70864">
        <ele>142</ele>
        <time>2013-04-21T09:12:31Z</time>
      </trkpt>
      <trkpt lat="48.42402" lon="2.70864">
        <ele>142</ele>
        <time>2013-04-21T09:12:32Z</time>
      </trkpt>
      <trkpt lat="48.42402" lon="2.70864">
        <ele>142</ele>
        <time>2013-04-21T09:12:34Z</time>
      </trkpt>
      <trkpt lat="48.42401" lon="2.70864">
        <ele>142</ele>
        <time>2013-04-21T09:12:36Z</time>
      </trkpt>
      <trkpt lat="48.42401" lon="2.70864">
        <ele>142</ele>
        <time>2013-04-21T09:12:37Z</time>
      </trkpt>
      <trkpt lat="48.42401" lon="2.70864">
        <ele>142</ele>
        <time>2013-04-21T09:12:39Z</time>
      </trkpt>
      <trkpt lat="48.42401" lon="2.70864">
        <ele>142</ele>
        <time>2013-04-21T09:12:40Z</time>
      </trkpt>
      <trkpt lat="48.42401" lon="2.70864">
        <ele>142</ele>
        <time>2013-04-21T09:12:41Z</time>
      </trkpt>
      <trkpt lat="48.42401" lon="2.70864">
        <ele>142</ele>
        <time>2013-04-21T09:12:42Z</time>
      </trkpt>
      <trkpt lat="48.424" lon="2.70864">
        <ele>142</ele>
        <time>2013-04-21T09:12:43Z</time>
      </trkpt>
      <trkpt lat="48.424" lon="2.70864">
        <ele>142</ele>
        <time>2013-04-21T09:12:44Z</time>
      </trkpt>
      <trkpt lat="48.424" lon="2.70864">
        <ele>142</ele>
        <time>2013-04-21T09:12:45Z</time>
      </trkpt>
      <trkpt lat="48.424" lon="2.70864">
        <ele>142</ele>
        <time>2013-04-21T09:12:46Z</time>
      </trkpt>
      <trkpt lat="48.424" lon="2.70864">
        <ele>142</ele>
        <time>2013-04-21T09:12:47Z</time>
      </trkpt>
      <trkpt lat="48.424" lon="2.70864">
        <ele>142</ele>
        <time>2013-04-21T09:12:48Z</time>
      </trkpt>
      <trkpt lat="48.42399" lon="2.70864">
        <ele>142</ele>
        <time>2013-04-21T09:12:49Z</time>
      </trkpt>
      <trkpt lat="48.42399" lon="2.70864">
        <ele>142</ele>
        <time>2013-04-21T09:12:50Z</time>
      </trkpt>
      <trkpt lat="48.42399" lon="2.70864">
        <ele>142</ele>
        <time>2013-04-21T09:12:51Z</time>
      </trkpt>
      <trkpt lat="48.42399" lon="2.70864">
        <ele>142</ele>
        <time>2013-04-21T09:12:53Z</time>
      </trkpt>
      <trkpt lat="48.42399" lon="2.70864">
        <ele>142</ele>
        <time>2013-04-21T09:12:54Z</time>
      </trkpt>
      <trkpt lat="48.42399" lon="2.70864">
        <ele>142</ele>
        <time>2013-04-21T09:12:55Z</time>
      </trkpt>
      <trkpt lat="48.42398" lon="2.70864">
        <ele>142</ele>
        <time>2013-04-21T09:12:56Z</time>
      </trkpt>
      <trkpt lat="48.42398" lon="2.70864">
        <ele>142</ele>
        <time>2013-04-21T09:12:57Z</time>
      </trkpt>
      <trkpt lat="48.42398" lon="2.70864">
        <ele>142</ele>
        <time>2013-04-21T09:12:58Z</time>
      </trkpt>
      <trkpt lat="48.42398" lon="2.70864">
        <ele>142</ele>
        <time>2013-04-21T09:12:59Z</time>
      </trkpt>
      <trkpt lat="48.42398" lon="2.70864">
        <ele>142</ele>
        <time>2013-04-21T09:13:00Z</time>
      </trkpt>
      <trkpt lat="48.42398" lon="2.70864">
        <ele>142</ele>
        <time>2013-04-21T09:13:01Z</time>
      </trkpt>
      <trkpt lat="48.42398" lon="2.70864">
        <ele>142</ele>
        <time>2013-04-21T09:13:02Z</time>
      </trkpt>
      <trkpt lat="48.42398" lon="2.70864">
        <ele>142</ele>
        <time>2013-04-21T09:13:03Z</time>
      </trkpt>
      <trkpt lat="48.42398" lon="2.70864">
        <ele>142</ele>
        <time>2013-04-21T09:13:04Z</time>
      </trkpt>
      <trkpt lat="48.42398" lon="2.70865">
        <ele>142</ele>
        <time>2013-04-21T09:13:05Z</time>
      </trkpt>
      <trkpt lat="48.42398" lon="2.70865">
        <ele>142</ele>
        <time>2013-04-21T09:13:07Z</time>
      </trkpt>
      <trkpt lat="48.42398" lon="2.70865">
        <ele>142</ele>
        <time>2013-04-21T09:13:08Z</time>
      </trkpt>
      <trkpt lat="48.42397" lon="2.70865">
        <ele>142</ele>
        <time>2013-04-21T09:13:10Z</time>
      </trkpt>
      <trkpt lat="48.42397" lon="2.70865">
        <ele>142</ele>
        <time>2013-04-21T09:13:12Z</time>
      </trkpt>
      <trkpt lat="48.42397" lon="2.70865">
        <ele>142</ele>
        <time>2013-04-21T09:13:15Z</time>
      </trkpt>
      <trkpt lat="48.42397" lon="2.70865">
        <ele>142</ele>
        <time>2013-04-21T09:13:16Z</time>
      </trkpt>
      <trkpt lat="48.42397" lon="2.70866">
        <ele>142</ele>
        <time>2013-04-21T09:13:19Z</time>
      </trkpt>
      <trkpt lat="48.42397" lon="2.70866">
        <ele>142</ele>
        <time>2013-04-21T09:13:21Z</time>
      </trkpt>
      <trkpt lat="48.42397" lon="2.70866">
        <ele>142</ele>
        <time>2013-04-21T09:13:23Z</time>
      </trkpt>
      <trkpt lat="48.42397" lon="2.70866">
        <ele>142</ele>
        <time>2013-04-21T09:13:24Z</time>
      </trkpt>
      <trkpt lat="48.42397" lon="2.70866">
        <ele>142</ele>
        <time>2013-04-21T09:13:25Z</time>
      </trkpt>
      <trkpt lat="48.42397" lon="2.70866">
        <ele>142</ele>
        <time>2013-04-21T09:13:26Z</time>
      </trkpt>
      <trkpt lat="48.42397" lon="2.70866">
        <ele>142</ele>
        <time>2013-04-21T09:13:27Z</time>
      </trkpt>
      <trkpt lat="48.42397" lon="2.70866">
        <ele>142</ele>
        <time>2013-04-21T09:13:28Z</time>
      </trkpt>
      <trkpt lat="48.42397" lon="2.70866">
        <ele>142</ele>
        <time>2013-04-21T09:13:29Z</time>
      </trkpt>
      <trkpt lat="48.42397" lon="2.70867">
        <ele>142</ele>
        <time>2013-04-21T09:13:30Z</time>
      </trkpt>
      <trkpt lat="48.42397" lon="2.70867">
        <ele>142</ele>
        <time>2013-04-21T09:13:31Z</time>
      </trkpt>
      <trkpt lat="48.42397" lon="2.70868">
        <ele>142</ele>
        <time>2013-04-21T09:13:32Z</time>
      </trkpt>
      <trkpt lat="48.42397" lon="2.70869">
        <ele>142</ele>
        <time>2013-04-21T09:13:33Z</time>
      </trkpt>
      <trkpt lat="48.42397" lon="2.70869">
        <ele>142</ele>
        <time>2013-04-21T09:13:34Z</time>
      </trkpt>
      <trkpt lat="48.42397" lon="2.70869">
        <ele>142</ele>
        <time>2013-04-21T09:13:35Z</time>
      </trkpt>
      <trkpt lat="48.42397" lon="2.70869">
        <ele>142</ele>
        <time>2013-04-21T09:13:36Z</time>
      </trkpt>
      <trkpt lat="48.42397" lon="2.70869">
        <ele>142</ele>
        <time>2013-04-21T09:13:37Z</time>
      </trkpt>
      <trkpt lat="48.42397" lon="2.70869">
        <ele>142</ele>
        <time>2013-04-21T09:13:38Z</time>
      </trkpt>
      <trkpt lat="48.42397" lon="2.70868">
        <ele>142</ele>
        <time>2013-04-21T09:13:39Z</time>
      </trkpt>
      <trkpt lat="48.42397" lon="2.70866">
        <ele>142</ele>
        <time>2013-04-21T09:13:40Z</time>
      </trkpt>
      <trkpt lat="48.42397" lon="2.70866">
        <ele>142</ele>
        <time>2013-04-21T09:13:41Z</time>
      </trkpt>
      <trkpt lat="48.42397" lon="2.70865">
        <ele>142</ele>
        <time>2013-04-21T09:13:42Z</time>
      </trkpt>
      <trkpt lat="48.42397" lon="2.70865">
        <ele>142</ele>
        <time>2013-04-21T09:13:43Z</time>
      </trkpt>
      <trkpt lat="48.42397" lon="2.70865">
        <ele>142</ele>
        <time>2013-04-21T09:13:44Z</time>
      </trkpt>
      <trkpt lat="48.42398" lon="2.70865">
        <ele>142</ele>
        <time>2013-04-21T09:13:45Z</time>
      </trkpt>
      <trkpt lat="48.42398" lon="2.70866">
        <ele>142</ele>
        <time>2013-04-21T09:13:46Z</time>
      </trkpt>
      <trkpt lat="48.42398" lon="2.70866">
        <ele>142</ele>
        <time>2013-04-21T09:13:47Z</time>
      </trkpt>
      <trkpt lat="48.42398" lon="2.70865">
        <ele>142</ele>
        <time>2013-04-21T09:13:48Z</time>
      </trkpt>
      <trkpt lat="48.42398" lon="2.70864">
        <ele>142</ele>
        <time>2013-04-21T09:13:49Z</time>
      </trkpt>
      <trkpt lat="48.42398" lon="2.70862">
        <ele>142</ele>
        <time>2013-04-21T09:13:50Z</time>
      </trkpt>
      <trkpt lat="48.42397" lon="2.70861">
        <ele>142</ele>
        <time>2013-04-21T09:13:51Z</time>
      </trkpt>
      <trkpt lat="48.42398" lon="2.70861">
        <ele>142</ele>
        <time>2013-04-21T09:13:53Z</time>
      </trkpt>
      <trkpt lat="48.42398" lon="2.7086">
        <ele>142</ele>
        <time>2013-04-21T09:13:54Z</time>
      </trkpt>
      <trkpt lat="48.42398" lon="2.7086">
        <ele>142</ele>
        <time>2013-04-21T09:13:55Z</time>
      </trkpt>
      <trkpt lat="48.42398" lon="2.7086">
        <ele>142</ele>
        <time>2013-04-21T09:13:56Z</time>
      </trkpt>
      <trkpt lat="48.42399" lon="2.7086">
        <ele>142</ele>
        <time>2013-04-21T09:13:57Z</time>
      </trkpt>
      <trkpt lat="48.42399" lon="2.7086">
        <ele>142</ele>
        <time>2013-04-21T09:13:58Z</time>
      </trkpt>
      <trkpt lat="48.42399" lon="2.70859">
        <ele>142</ele>
        <time>2013-04-21T09:13:59Z</time>
      </trkpt>
      <trkpt lat="48.42399" lon="2.70859">
        <ele>142</ele>
        <time>2013-04-21T09:14:00Z</time>
      </trkpt>
      <trkpt lat="48.42401" lon="2.70859">
        <ele>142</ele>
        <time>2013-04-21T09:14:04Z</time>
      </trkpt>
      <trkpt lat="48.42401" lon="2.70859">
        <ele>142</ele>
        <time>2013-04-21T09:14:05Z</time>
      </trkpt>
      <trkpt lat="48.42402" lon="2.7086">
        <ele>142</ele>
        <time>2013-04-21T09:14:06Z</time>
      </trkpt>
      <trkpt lat="48.42402" lon="2.70861">
        <ele>142</ele>
        <time>2013-04-21T09:14:07Z</time>
      </trkpt>
      <trkpt lat="48.42402" lon="2.70861">
        <ele>142</ele>
        <time>2013-04-21T09:14:08Z</time>
      </trkpt>
      <trkpt lat="48.42402" lon="2.7086">
        <ele>142</ele>
        <time>2013-04-21T09:14:09Z</time>
      </trkpt>
      <trkpt lat="48.42402" lon="2.7086">
        <ele>142</ele>
        <time>2013-04-21T09:14:10Z</time>
      </trkpt>
      <trkpt lat="48.42402" lon="2.7086">
        <ele>142</ele>
        <time>2013-04-21T09:14:12Z</time>
      </trkpt>
      <trkpt lat="48.42403" lon="2.7086">
        <ele>142</ele>
        <time>2013-04-21T09:14:13Z</time>
      </trkpt>
      <trkpt lat="48.42403" lon="2.7086">
        <ele>142</ele>
        <time>2013-04-21T09:14:14Z</time>
      </trkpt>
      <trkpt lat="48.42403" lon="2.70859">
        <ele>142</ele>
        <time>2013-04-21T09:14:15Z</time>
      </trkpt>
      <trkpt lat="48.42403" lon="2.70859">
        <ele>142</ele>
        <time>2013-04-21T09:14:16Z</time>
      </trkpt>
      <trkpt lat="48.42403" lon="2.70859">
        <ele>142</ele>
        <time>2013-04-21T09:14:19Z</time>
      </trkpt>
      <trkpt lat="48.42403" lon="2.70859">
        <ele>142</ele>
        <time>2013-04-21T09:14:23Z</time>
      </trkpt>
      <trkpt lat="48.42403" lon="2.70859">
        <ele>142</ele>
        <time>2013-04-21T09:14:24Z</time>
      </trkpt>
      <trkpt lat="48.42403" lon="2.70859">
        <ele>142</ele>
        <time>2013-04-21T09:14:33Z</time>
      </trkpt>
      <trkpt lat="48.42403" lon="2.70859">
        <ele>142</ele>
        <time>2013-04-21T09:14:36Z</time>
      </trkpt>
      <trkpt lat="48.42403" lon="2.70859">
        <ele>142</ele>
        <time>2013-04-21T09:14:38Z</time>
      </trkpt>
      <trkpt lat="48.42403" lon="2.70859">
        <ele>142</ele>
        <time>2013-04-21T09:14:39Z</time>
      </trkpt>
      <trkpt lat="48.42403" lon="2.70859">
        <ele>142</ele>
        <time>2013-04-21T09:14:40Z</time>
      </trkpt>
      <trkpt lat="48.42403" lon="2.70858">
        <ele>142</ele>
        <time>2013-04-21T09:14:41Z</time>
      </trkpt>
      <trkpt lat="48.42403" lon="2.70858">
        <ele>142</ele>
        <time>2013-04-21T09:14:42Z</time>
      </trkpt>
      <trkpt lat="48.42403" lon="2.70858">
        <ele>142</ele>
        <time>2013-04-21T09:14:43Z</time>
      </trkpt>
      <trkpt lat="48.42403" lon="2.70858">
        <ele>142</ele>
        <time>2013-04-21T09:14:44Z</time>
      </trkpt>
      <trkpt lat="48.42403" lon="2.70858">
        <ele>142</ele>
        <time>2013-04-21T09:14:45Z</time>
      </trkpt>
      <trkpt lat="48.42403" lon="2.70858">
        <ele>142</ele>
        <time>2013-04-21T09:14:46Z</time>
      </trkpt>
      <trkpt lat="48.42403" lon="2.70857">
        <ele>142</ele>
        <time>2013-04-21T09:14:47Z</time>
      </trkpt>
      <trkpt lat="48.42403" lon="2.70857">
        <ele>142</ele>
        <time>2013-04-21T09:14:48Z</time>
      </trkpt>
      <trkpt lat="48.42403" lon="2.70857">
        <ele>142</ele>
        <time>2013-04-21T09:14:49Z</time>
      </trkpt>
      <trkpt lat="48.42403" lon="2.70857">
        <ele>142</ele>
        <time>2013-04-21T09:14:51Z</time>
      </trkpt>
      <trkpt lat="48.42403" lon="2.70857">
        <ele>142</ele>
        <time>2013-04-21T09:14:52Z</time>
      </trkpt>
      <trkpt lat="48.42403" lon="2.70857">
        <ele>142</ele>
        <time>2013-04-21T09:14:53Z</time>
      </trkpt>
      <trkpt lat="48.42403" lon="2.70856">
        <ele>142</ele>
        <time>2013-04-21T09:14:54Z</time>
      </trkpt>
      <trkpt lat="48.42403" lon="2.70856">
        <ele>142</ele>
        <time>2013-04-21T09:14:56Z</time>
      </trkpt>
      <trkpt lat="48.42404" lon="2.70856">
        <ele>142</ele>
        <time>2013-04-21T09:14:57Z</time>
      </trkpt>
      <trkpt lat="48.42404" lon="2.70856">
        <ele>142</ele>
        <time>2013-04-21T09:14:58Z</time>
      </trkpt>
      <trkpt lat="48.42404" lon="2.70856">
        <ele>142</ele>
        <time>2013-04-21T09:15:01Z</time>
      </trkpt>
      <trkpt lat="48.42404" lon="2.70856">
        <ele>142</ele>
        <time>2013-04-21T09:15:05Z</time>
      </trkpt>
      <trkpt lat="48.42404" lon="2.70856">
        <ele>142</ele>
        <time>2013-04-21T09:15:08Z</time>
      </trkpt>
      <trkpt lat="48.42404" lon="2.70856">
        <ele>142</ele>
        <time>2013-04-21T09:15:10Z</time>
      </trkpt>
      <trkpt lat="48.42404" lon="2.70856">
        <ele>142</ele>
        <time>2013-04-21T09:15:13Z</time>
      </trkpt>
      <trkpt lat="48.42405" lon="2.70856">
        <ele>142</ele>
        <time>2013-04-21T09:15:15Z</time>
      </trkpt>
      <trkpt lat="48.42405" lon="2.70856">
        <ele>142</ele>
        <time>2013-04-21T09:15:18Z</time>
      </trkpt>
      <trkpt lat="48.42405" lon="2.70856">
        <ele>142</ele>
        <time>2013-04-21T09:15:20Z</time>
      </trkpt>
      <trkpt lat="48.42405" lon="2.70856">
        <ele>142</ele>
        <time>2013-04-21T09:15:21Z</time>
      </trkpt>
      <trkpt lat="48.42405" lon="2.70856">
        <ele>142</ele>
        <time>2013-04-21T09:15:27Z</time>
      </trkpt>
      <trkpt lat="48.42405" lon="2.70856">
        <ele>142</ele>
        <time>2013-04-21T09:15:29Z</time>
      </trkpt>
      <trkpt lat="48.42405" lon="2.70856">
        <ele>142</ele>
        <time>2013-04-21T09:15:30Z</time>
      </trkpt>
      <trkpt lat="48.42405" lon="2.70856">
        <ele>142</ele>
        <time>2013-04-21T09:15:31Z</time>
      </trkpt>
      <trkpt lat="48.42405" lon="2.70856">
        <ele>142</ele>
        <time>2013-04-21T09:15:32Z</time>
      </trkpt>
      <trkpt lat="48.42405" lon="2.70856">
        <ele>142</ele>
        <time>2013-04-21T09:15:36Z</time>
      </trkpt>
      <trkpt lat="48.42406" lon="2.70856">
        <ele>142</ele>
        <time>2013-04-21T09:15:38Z</time>
      </trkpt>
      <trkpt lat="48.42406" lon="2.70856">
        <ele>142</ele>
        <time>2013-04-21T09:15:40Z</time>
      </trkpt>
      <trkpt lat="48.42406" lon="2.70856">
        <ele>142</ele>
        <time>2013-04-21T09:15:47Z</time>
      </trkpt>
      <trkpt lat="48.42406" lon="2.70857">
        <ele>142</ele>
        <time>2013-04-21T09:15:49Z</time>
      </trkpt>
      <trkpt lat="48.42406" lon="2.70857">
        <ele>142</ele>
        <time>2013-04-21T09:15:50Z</time>
      </trkpt>
      <trkpt lat="48.42406" lon="2.70857">
        <ele>142</ele>
        <time>2013-04-21T09:15:53Z</time>
      </trkpt>
      <trkpt lat="48.42406" lon="2.70857">
        <ele>142</ele>
        <time>2013-04-21T09:15:54Z</time>
      </trkpt>
      <trkpt lat="48.42406" lon="2.70857">
        <ele>142</ele>
        <time>2013-04-21T09:15:55Z</time>
      </trkpt>
      <trkpt lat="48.42406" lon="2.70857">
        <ele>142</ele>
        <time>2013-04-21T09:15:56Z</time>
      </trkpt>
      <trkpt lat="48.42406" lon="2.70857">
        <ele>142</ele>
        <time>2013-04-21T09:15:57Z</time>
      </trkpt>
      <trkpt lat="48.42406" lon="2.70858">
        <ele>142</ele>
        <time>2013-04-21T09:15:58Z</time>
      </trkpt>
      <trkpt lat="48.42405" lon="2.70858">
        <ele>142</ele>
        <time>2013-04-21T09:16:00Z</time>
      </trkpt>
      <trkpt lat="48.42405" lon="2.70858">
        <ele>142</ele>
        <time>2013-04-21T09:16:01Z</time>
      </trkpt>
      <trkpt lat="48.42405" lon="2.70858">
        <ele>142</ele>
        <time>2013-04-21T09:16:02Z</time>
      </trkpt>
      <trkpt lat="48.42405" lon="2.70858">
        <ele>142</ele>
        <time>2013-04-21T09:16:03Z</time>
      </trkpt>
      <trkpt lat="48.42405" lon="2.70858">
        <ele>142</ele>
        <time>2013-04-21T09:16:04Z</time>
      </trkpt>
      <trkpt lat="48.42405" lon="2.70858">
        <ele>142</ele>
        <time>2013-04-21T09:16:05Z</time>
      </trkpt>
      <trkpt lat="48.42405" lon="2.70859">
        <ele>142</ele>
        <time>2013-04-21T09:16:06Z</time>
      </trkpt>
      <trkpt lat="48.42405" lon="2.70859">
        <ele>142</ele>
        <time>2013-04-21T09:16:10Z</time>
      </trkpt>
      <trkpt lat="48.42405" lon="2.70859">
        <ele>142</ele>
        <time>2013-04-21T09:16:11Z</time>
      </trkpt>
      <trkpt lat="48.42405" lon="2.70859">
        <ele>142</ele>
        <time>2013-04-21T09:16:12Z</time>
      </trkpt>
      <trkpt lat="48.42405" lon="2.70859">
        <ele>142</ele>
        <time>2013-04-21T09:16:13Z</time>
      </trkpt>
      <trkpt lat="48.42405" lon="2.70858">
        <ele>142</ele>
        <time>2013-04-21T09:16:14Z</time>
      </trkpt>
      <trkpt lat="48.42405" lon="2.70858">
        <ele>142</ele>
        <time>2013-04-21T09:16:16Z</time>
      </trkpt>
      <trkpt lat="48.42405" lon="2.70859">
        <ele>142</ele>
        <time>2013-04-21T09:16:17Z</time>
      </trkpt>
      <trkpt lat="48.42405" lon="2.70859">
        <ele>142</ele>
        <time>2013-04-21T09:16:18Z</time>
      </trkpt>
      <trkpt lat="48.42405" lon="2.70859">
        <ele>142</ele>
        <time>2013-04-21T09:16:20Z</time>
      </trkpt>
      <trkpt lat="48.42405" lon="2.70859">
        <ele>142</ele>
        <time>2013-04-21T09:16:21Z</time>
      </trkpt>
      <trkpt lat="48.42405" lon="2.70859">
        <ele>142</ele>
        <time>2013-04-21T09:16:24Z</time>
      </trkpt>
      <trkpt lat="48.42405" lon="2.70859">
        <ele>142</ele>
        <time>2013-04-21T09:16:26Z</time>
      </trkpt>
      <trkpt lat="48.42405" lon="2.70859">
        <ele>142</ele>
        <time>2013-04-21T09:16:27Z</time>
      </trkpt>
      <trkpt lat="48.42406" lon="2.70859">
        <ele>142</ele>
        <time>2013-04-21T09:16:28Z</time>
      </trkpt>
      <trkpt lat="48.42406" lon="2.70858">
        <ele>142</ele>
        <time>2013-04-21T09:16:29Z</time>
      </trkpt>
      <trkpt lat="48.42406" lon="2.70858">
        <ele>142</ele>
        <time>2013-04-21T09:16:30Z</time>
      </trkpt>
      <trkpt lat="48.42406" lon="2.70858">
        <ele>142</ele>
        <time>2013-04-21T09:16:31Z</time>
      </trkpt>
      <trkpt lat="48.42406" lon="2.70857">
        <ele>142</ele>
        <time>2013-04-21T09:16:33Z</time>
      </trkpt>
      <trkpt lat="48.42406" lon="2.70857">
        <ele>142</ele>
        <time>2013-04-21T09:16:34Z</time>
      </trkpt>
      <trkpt lat="48.42406" lon="2.70857">
        <ele>142</ele>
        <time>2013-04-21T09:16:35Z</time>
      </trkpt>
      <trkpt lat="48.42406" lon="2.70857">
        <ele>142</ele>
        <time>2013-04-21T09:16:36Z</time>
      </trkpt>
      <trkpt lat="48.42406" lon="2.70857">
        <ele>142</ele>
        <time>2013-04-21T09:16:39Z</time>
      </trkpt>
      <trkpt lat="48.42405" lon="2.70858">
        <ele>142</ele>
        <time>2013-04-21T09:16:42Z</time>
      </trkpt>
      <trkpt lat="48.42404" lon="2.70859">
        <ele>142</ele>
        <time>2013-04-21T09:16:43Z</time>
      </trkpt>
      <trkpt lat="48.42402" lon="2.70859">
        <ele>142</ele>
        <time>2013-04-21T09:16:44Z</time>
      </trkpt>
      <trkpt lat="48.42398" lon="2.70862">
        <ele>142</ele>
        <time>2013-04-21T09:16:47Z</time>
      </trkpt>
      <trkpt lat="48.42397" lon="2.70862">
        <ele>142</ele>
        <time>2013-04-21T09:16:48Z</time>
      </trkpt>
      <trkpt lat="48.42395" lon="2.70863">
        <ele>142</ele>
        <time>2013-04-21T09:16:49Z</time>
      </trkpt>
      <trkpt lat="48.42394" lon="2.70864">
        <ele>142</ele>
        <time>2013-04-21T09:16:50Z</time>
      </trkpt>
      <trkpt lat="48.4239" lon="2.70868">
        <ele>142</ele>
        <time>2013-04-21T09:16:53Z</time>
      </trkpt>
      <trkpt lat="48.42388" lon="2.70871">
        <ele>142</ele>
        <time>2013-04-21T09:16:55Z</time>
      </trkpt>
      <trkpt lat="48.42386" lon="2.70873">
        <ele>142</ele>
        <time>2013-04-21T09:16:56Z</time>
      </trkpt>
      <trkpt lat="48.42382" lon="2.70877">
        <ele>143</ele>
        <time>2013-04-21T09:16:59Z</time>
      </trkpt>
      <trkpt lat="48.4237" lon="2.70888">
        <ele>143</ele>
        <time>2013-04-21T09:17:05Z</time>
      </trkpt>
      <trkpt lat="48.42314" lon="2.70911">
        <ele>145</ele>
        <time>2013-04-21T09:17:23Z</time>
      </trkpt>
      <trkpt lat="48.42311" lon="2.7091">
        <ele>145</ele>
        <time>2013-04-21T09:17:24Z</time>
      </trkpt>
      <trkpt lat="48.42307" lon="2.70908">
        <ele>145</ele>
        <time>2013-04-21T09:17:25Z</time>
      </trkpt>
      <trkpt lat="48.42304" lon="2.70905">
        <ele>145</ele>
        <time>2013-04-21T09:17:26Z</time>
      </trkpt>
      <trkpt lat="48.42288" lon="2.70875">
        <ele>145</ele>
        <time>2013-04-21T09:17:32Z</time>
      </trkpt>
      <trkpt lat="48.42286" lon="2.70871">
        <ele>145</ele>
        <time>2013-04-21T09:17:33Z</time>
      </trkpt>
      <trkpt lat="48.42285" lon="2.70867">
        <ele>145</ele>
        <time>2013-04-21T09:17:34Z</time>
      </trkpt>
      <trkpt lat="48.42282" lon="2.70864">
        <ele>145</ele>
        <time>2013-04-21T09:17:35Z</time>
      </trkpt>
      <trkpt lat="48.42277" lon="2.70862">
        <ele>146</ele>
        <time>2013-04-21T09:17:38Z</time>
      </trkpt>
      <trkpt lat="48.4227" lon="2.70855">
        <ele>146</ele>
        <time>2013-04-21T09:17:42Z</time>
      </trkpt>
      <trkpt lat="48.42267" lon="2.70855">
        <ele>146</ele>
        <time>2013-04-21T09:17:43Z</time>
      </trkpt>
      <trkpt lat="48.42241" lon="2.70855">
        <ele>142</ele>
        <time>2013-04-21T09:17:50Z</time>
      </trkpt>
      <trkpt lat="48.4224" lon="2.70855">
        <ele>142</ele>
        <time>2013-04-21T09:17:51Z</time>
      </trkpt>
      <trkpt lat="48.42239" lon="2.70861">
        <ele>141</ele>
        <time>2013-04-21T09:17:54Z</time>
      </trkpt>
      <trkpt lat="48.42238" lon="2.70862">
        <ele>141</ele>
        <time>2013-04-21T09:17:55Z</time>
      </trkpt>
      <trkpt lat="48.42235" lon="2.70864">
        <ele>140</ele>
        <time>2013-04-21T09:17:57Z</time>
      </trkpt>
      <trkpt lat="48.42235" lon="2.70864">
        <ele>140</ele>
        <time>2013-04-21T09:17:58Z</time>
      </trkpt>
      <trkpt lat="48.42234" lon="2.70864">
        <ele>140</ele>
        <time>2013-04-21T09:17:59Z</time>
      </trkpt>
      <trkpt lat="48.42234" lon="2.70864">
        <ele>140</ele>
        <time>2013-04-21T09:18:01Z</time>
      </trkpt>
      <trkpt lat="48.42234" lon="2.70865">
        <ele>140</ele>
        <time>2013-04-21T09:18:02Z</time>
      </trkpt>
      <trkpt lat="48.42234" lon="2.70865">
        <ele>140</ele>
        <time>2013-04-21T09:18:03Z</time>
      </trkpt>
      <trkpt lat="48.42234" lon="2.70865">
        <ele>140</ele>
        <time>2013-04-21T09:18:04Z</time>
      </trkpt>
      <trkpt lat="48.42234" lon="2.70865">
        <ele>140</ele>
        <time>2013-04-21T09:18:05Z</time>
      </trkpt>
      <trkpt lat="48.42234" lon="2.70866">
        <ele>140</ele>
        <time>2013-04-21T09:18:06Z</time>
      </trkpt>
      <trkpt lat="48.42235" lon="2.70866">
        <ele>140</ele>
        <time>2013-04-21T09:18:07Z</time>
      </trkpt>
      <trkpt lat="48.42235" lon="2.70866">
        <ele>140</ele>
        <time>2013-04-21T09:18:08Z</time>
      </trkpt>
      <trkpt lat="48.42236" lon="2.70865">
        <ele>140</ele>
        <time>2013-04-21T09:18:09Z</time>
      </trkpt>
      <trkpt lat="48.42236" lon="2.70865">
        <ele>140</ele>
        <time>2013-04-21T09:18:10Z</time>
      </trkpt>
      <trkpt lat="48.42236" lon="2.70865">
        <ele>140</ele>
        <time>2013-04-21T09:18:11Z</time>
      </trkpt>
      <trkpt lat="48.42236" lon="2.70865">
        <ele>140</ele>
        <time>2013-04-21T09:18:13Z</time>
      </trkpt>
      <trkpt lat="48.42236" lon="2.70865">
        <ele>140</ele>
        <time>2013-04-21T09:18:14Z</time>
      </trkpt>
      <trkpt lat="48.42237" lon="2.70865">
        <ele>141</ele>
        <time>2013-04-21T09:18:15Z</time>
      </trkpt>
      <trkpt lat="48.42237" lon="2.70865">
        <ele>141</ele>
        <time>2013-04-21T09:18:16Z</time>
      </trkpt>
      <trkpt lat="48.42237" lon="2.70865">
        <ele>141</ele>
        <time>2013-04-21T09:18:18Z</time>
      </trkpt>
      <trkpt lat="48.42237" lon="2.70865">
        <ele>141</ele>
        <time>2013-04-21T09:18:19Z</time>
      </trkpt>
      <trkpt lat="48.42237" lon="2.70864">
        <ele>141</ele>
        <time>2013-04-21T09:18:20Z</time>
      </trkpt>
      <trkpt lat="48.42241" lon="2.70861">
        <ele>141</ele>
        <time>2013-04-21T09:18:23Z</time>
      </trkpt>
      <trkpt lat="48.42242" lon="2.7086">
        <ele>141</ele>
        <time>2013-04-21T09:18:24Z</time>
      </trkpt>
      <trkpt lat="48.42242" lon="2.70858">
        <ele>141</ele>
        <time>2013-04-21T09:18:25Z</time>
      </trkpt>
      <trkpt lat="48.42241" lon="2.70857">
        <ele>141</ele>
        <time>2013-04-21T09:18:26Z</time>
      </trkpt>
      <trkpt lat="48.4224" lon="2.70858">
        <ele>141</ele>
        <time>2013-04-21T09:18:27Z</time>
      </trkpt>
      <trkpt lat="48.42239" lon="2.7086">
        <ele>141</ele>
        <time>2013-04-21T09:18:28Z</time>
      </trkpt>
      <trkpt lat="48.42237" lon="2.70862">
        <ele>141</ele>
        <time>2013-04-21T09:18:29Z</time>
      </trkpt>
      <trkpt lat="48.42225" lon="2.70866">
        <ele>139</ele>
        <time>2013-04-21T09:18:32Z</time>
      </trkpt>
      <trkpt lat="48.4222" lon="2.70866">
        <ele>139</ele>
        <time>2013-04-21T09:18:33Z</time>
      </trkpt>
      <trkpt lat="48.42216" lon="2.70864">
        <ele>139</ele>
        <time>2013-04-21T09:18:35Z</time>
      </trkpt>
      <trkpt lat="48.42215" lon="2.70864">
        <ele>139</ele>
        <time>2013-04-21T09:18:38Z</time>
      </trkpt>
      <trkpt lat="48.42215" lon="2.70864">
        <ele>139</ele>
        <time>2013-04-21T09:18:39Z</time>
      </trkpt>
      <trkpt lat="48.42215" lon="2.70864">
        <ele>139</ele>
        <time>2013-04-21T09:18:40Z</time>
      </trkpt>
      <trkpt lat="48.42215" lon="2.70864">
        <ele>139</ele>
        <time>2013-04-21T09:18:41Z</time>
      </trkpt>
      <trkpt lat="48.42214" lon="2.70864">
        <ele>139</ele>
        <time>2013-04-21T09:18:42Z</time>
      </trkpt>
      <trkpt lat="48.42214" lon="2.70864">
        <ele>139</ele>
        <time>2013-04-21T09:18:43Z</time>
      </trkpt>
      <trkpt lat="48.42214" lon="2.70863">
        <ele>139</ele>
        <time>2013-04-21T09:18:44Z</time>
      </trkpt>
      <trkpt lat="48.42214" lon="2.70863">
        <ele>139</ele>
        <time>2013-04-21T09:18:46Z</time>
      </trkpt>
      <trkpt lat="48.42214" lon="2.70863">
        <ele>139</ele>
        <time>2013-04-21T09:18:47Z</time>
      </trkpt>
      <trkpt lat="48.42214" lon="2.70863">
        <ele>139</ele>
        <time>2013-04-21T09:18:48Z</time>
      </trkpt>
      <trkpt lat="48.42213" lon="2.70863">
        <ele>139</ele>
        <time>2013-04-21T09:18:49Z</time>
      </trkpt>
      <trkpt lat="48.42213" lon="2.70863">
        <ele>139</ele>
        <time>2013-04-21T09:18:50Z</time>
      </trkpt>
      <trkpt lat="48.42213" lon="2.70863">
        <ele>139</ele>
        <time>2013-04-21T09:18:52Z</time>
      </trkpt>
      <trkpt lat="48.42213" lon="2.70863">
        <ele>139</ele>
        <time>2013-04-21T09:18:53Z</time>
      </trkpt>
      <trkpt lat="48.42213" lon="2.70863">
        <ele>139</ele>
        <time>2013-04-21T09:18:55Z</time>
      </trkpt>
      <trkpt lat="48.42213" lon="2.70863">
        <ele>139</ele>
        <time>2013-04-21T09:18:57Z</time>
      </trkpt>
      <trkpt lat="48.42212" lon="2.70863">
        <ele>139</ele>
        <time>2013-04-21T09:18:59Z</time>
      </trkpt>
      <trkpt lat="48.42212" lon="2.70863">
        <ele>139</ele>
        <time>2013-04-21T09:19:00Z</time>
      </trkpt>
      <trkpt lat="48.42212" lon="2.70863">
        <ele>139</ele>
        <time>2013-04-21T09:19:02Z</time>
      </trkpt>
      <trkpt lat="48.42212" lon="2.70863">
        <ele>139</ele>
        <time>2013-04-21T09:19:03Z</time>
      </trkpt>
      <trkpt lat="48.42212" lon="2.70863">
        <ele>139</ele>
        <time>2013-04-21T09:19:04Z</time>
      </trkpt>
      <trkpt lat="48.42212" lon="2.70863">
        <ele>138</ele>
        <time>2013-04-21T09:19:06Z</time>
      </trkpt>
      <trkpt lat="48.42212" lon="2.70863">
        <ele>138</ele>
        <time>2013-04-21T09:19:07Z</time>
      </trkpt>
      <trkpt lat="48.42211" lon="2.70863">
        <ele>138</ele>
        <time>2013-04-21T09:19:11Z</time>
      </trkpt>
      <trkpt lat="48.42211" lon="2.70864">
        <ele>138</ele>
        <time>2013-04-21T09:19:12Z</time>
      </trkpt>
      <trkpt lat="48.42211" lon="2.70864">
        <ele>138</ele>
        <time>2013-04-21T09:19:16Z</time>
      </trkpt>
      <trkpt lat="48.42211" lon="2.70864">
        <ele>138</ele>
        <time>2013-04-21T09:19:17Z</time>
      </trkpt>
      <trkpt lat="48.42211" lon="2.70864">
        <ele>138</ele>
        <time>2013-04-21T09:19:18Z</time>
      </trkpt>
      <trkpt lat="48.42211" lon="2.70864">
        <ele>138</ele>
        <time>2013-04-21T09:19:21Z</time>
      </trkpt>
      <trkpt lat="48.42211" lon="2.70864">
        <ele>138</ele>
        <time>2013-04-21T09:19:30Z</time>
      </trkpt>
      <trkpt lat="48.42211" lon="2.70864">
        <ele>138</ele>
        <time>2013-04-21T09:19:33Z</time>
      </trkpt>
      <trkpt lat="48.42211" lon="2.70864">
        <ele>138</ele>
        <time>2013-04-21T09:19:34Z</time>
      </trkpt>
      <trkpt lat="48.42211" lon="2.70864">
        <ele>138</ele>
        <time>2013-04-21T09:19:36Z</time>
      </trkpt>
      <trkpt lat="48.42211" lon="2.70864">
        <ele>138</ele>
        <time>2013-04-21T09:19:37Z</time>
      </trkpt>
      <trkpt lat="48.4221" lon="2.70863">
        <ele>138</ele>
        <time>2013-04-21T09:19:38Z</time>
      </trkpt>
      <trkpt lat="48.42206" lon="2.7086">
        <ele>138</ele>
        <time>2013-04-21T09:19:41Z</time>
      </trkpt>
      <trkpt lat="48.42201" lon="2.70859">
        <ele>138</ele>
        <time>2013-04-21T09:19:43Z</time>
      </trkpt>
      <trkpt lat="48.42199" lon="2.70858">
        <ele>138</ele>
        <time>2013-04-21T09:19:44Z</time>
      </trkpt>
      <trkpt lat="48.42198" lon="2.70856">
        <ele>138</ele>
        <time>2013-04-21T09:19:45Z</time>
      </trkpt>
      <trkpt lat="48.42195" lon="2.70838">
        <ele>138</ele>
        <time>2013-04-21T09:19:49Z</time>
      </trkpt>
      <trkpt lat="48.42195" lon="2.70833">
        <ele>140</ele>
        <time>2013-04-21T09:19:50Z</time>
      </trkpt>
      <trkpt lat="48.42196" lon="2.70821">
        <ele>141</ele>
        <time>2013-04-21T09:19:53Z</time>
      </trkpt>
      <trkpt lat="48.42196" lon="2.70818">
        <ele>141</ele>
        <time>2013-04-21T09:19:54Z</time>
      </trkpt>
      <trkpt lat="48.42194" lon="2.70815">
        <ele>141</ele>
        <time>2013-04-21T09:19:55Z</time>
      </trkpt>
      <trkpt lat="48.42192" lon="2.70814">
        <ele>141</ele>
        <time>2013-04-21T09:19:56Z</time>
      </trkpt>
      <trkpt lat="48.42192" lon="2.70813">
        <ele>140</ele>
        <time>2013-04-21T09:19:57Z</time>
      </trkpt>
      <trkpt lat="48.42191" lon="2.70813">
        <ele>140</ele>
        <time>2013-04-21T09:19:58Z</time>
      </trkpt>
      <trkpt lat="48.42191" lon="2.70812">
        <ele>140</ele>
        <time>2013-04-21T09:19:59Z</time>
      </trkpt>
      <trkpt lat="48.42191" lon="2.70811">
        <ele>140</ele>
        <time>2013-04-21T09:20:00Z</time>
      </trkpt>
      <trkpt lat="48.4219" lon="2.7081">
        <ele>140</ele>
        <time>2013-04-21T09:20:01Z</time>
      </trkpt>
      <trkpt lat="48.4219" lon="2.70809">
        <ele>140</ele>
        <time>2013-04-21T09:20:02Z</time>
      </trkpt>
      <trkpt lat="48.42189" lon="2.70809">
        <ele>140</ele>
        <time>2013-04-21T09:20:03Z</time>
      </trkpt>
      <trkpt lat="48.42189" lon="2.70809">
        <ele>140</ele>
        <time>2013-04-21T09:20:04Z</time>
      </trkpt>
      <trkpt lat="48.42188" lon="2.70808">
        <ele>140</ele>
        <time>2013-04-21T09:20:05Z</time>
      </trkpt>
      <trkpt lat="48.42188" lon="2.70808">
        <ele>140</ele>
        <time>2013-04-21T09:20:06Z</time>
      </trkpt>
      <trkpt lat="48.42187" lon="2.70807">
        <ele>140</ele>
        <time>2013-04-21T09:20:08Z</time>
      </trkpt>
      <trkpt lat="48.42187" lon="2.70807">
        <ele>140</ele>
        <time>2013-04-21T09:20:09Z</time>
      </trkpt>
      <trkpt lat="48.42185" lon="2.70804">
        <ele>140</ele>
        <time>2013-04-21T09:20:12Z</time>
      </trkpt>
      <trkpt lat="48.42184" lon="2.70801">
        <ele>140</ele>
        <time>2013-04-21T09:20:13Z</time>
      </trkpt>
      <trkpt lat="48.42184" lon="2.70799">
        <ele>141</ele>
        <time>2013-04-21T09:20:14Z</time>
      </trkpt>
      <trkpt lat="48.42185" lon="2.70795">
        <ele>141</ele>
        <time>2013-04-21T09:20:16Z</time>
      </trkpt>
      <trkpt lat="48.42189" lon="2.70787">
        <ele>141</ele>
        <time>2013-04-21T09:20:21Z</time>
      </trkpt>
      <trkpt lat="48.4219" lon="2.70783">
        <ele>141</ele>
        <time>2013-04-21T09:20:23Z</time>
      </trkpt>
      <trkpt lat="48.4219" lon="2.70781">
        <ele>141</ele>
        <time>2013-04-21T09:20:24Z</time>
      </trkpt>
      <trkpt lat="48.42191" lon="2.70777">
        <ele>141</ele>
        <time>2013-04-21T09:20:26Z</time>
      </trkpt>
      <trkpt lat="48.42193" lon="2.70774">
        <ele>142</ele>
        <time>2013-04-21T09:20:27Z</time>
      </trkpt>
      <trkpt lat="48.42198" lon="2.70771">
        <ele>142</ele>
        <time>2013-04-21T09:20:29Z</time>
      </trkpt>
      <trkpt lat="48.422" lon="2.7077">
        <ele>142</ele>
        <time>2013-04-21T09:20:31Z</time>
      </trkpt>
      <trkpt lat="48.42201" lon="2.70769">
        <ele>142</ele>
        <time>2013-04-21T09:20:32Z</time>
      </trkpt>
      <trkpt lat="48.42205" lon="2.70761">
        <ele>142</ele>
        <time>2013-04-21T09:20:35Z</time>
      </trkpt>
      <trkpt lat="48.42208" lon="2.70759">
        <ele>143</ele>
        <time>2013-04-21T09:20:36Z</time>
      </trkpt>
      <trkpt lat="48.4221" lon="2.70755">
        <ele>143</ele>
        <time>2013-04-21T09:20:37Z</time>
      </trkpt>
      <trkpt lat="48.4221" lon="2.70751">
        <ele>143</ele>
        <time>2013-04-21T09:20:38Z</time>
      </trkpt>
      <trkpt lat="48.4221" lon="2.7074">
        <ele>144</ele>
        <time>2013-04-21T09:20:40Z</time>
      </trkpt>
      <trkpt lat="48.42206" lon="2.70721">
        <ele>144</ele>
        <time>2013-04-21T09:20:45Z</time>
      </trkpt>
      <trkpt lat="48.42206" lon="2.70716">
        <ele>144</ele>
        <time>2013-04-21T09:20:46Z</time>
      </trkpt>
      <trkpt lat="48.42204" lon="2.70706">
        <ele>144</ele>
        <time>2013-04-21T09:20:49Z</time>
      </trkpt>
      <trkpt lat="48.42202" lon="2.70703">
        <ele>144</ele>
        <time>2013-04-21T09:20:50Z</time>
      </trkpt>
      <trkpt lat="48.422" lon="2.707">
        <ele>144</ele>
        <time>2013-04-21T09:20:51Z</time>
      </trkpt>
      <trkpt lat="48.42183" lon="2.70687">
        <ele>143</ele>
        <time>2013-04-21T09:20:56Z</time>
      </trkpt>
      <trkpt lat="48.42171" lon="2.70683">
        <ele>142</ele>
        <time>2013-04-21T09:21:01Z</time>
      </trkpt>
      <trkpt lat="48.4217" lon="2.70682">
        <ele>142</ele>
        <time>2013-04-21T09:21:02Z</time>
      </trkpt>
      <trkpt lat="48.42169" lon="2.70681">
        <ele>142</ele>
        <time>2013-04-21T09:21:03Z</time>
      </trkpt>
      <trkpt lat="48.42166" lon="2.70676">
        <ele>138</ele>
        <time>2013-04-21T09:21:06Z</time>
      </trkpt>
      <trkpt lat="48.42165" lon="2.70669">
        <ele>140</ele>
        <time>2013-04-21T09:21:09Z</time>
      </trkpt>
      <trkpt lat="48.42166" lon="2.70666">
        <ele>141</ele>
        <time>2013-04-21T09:21:11Z</time>
      </trkpt>
      <trkpt lat="48.42166" lon="2.70662">
        <ele>140</ele>
        <time>2013-04-21T09:21:13Z</time>
      </trkpt>
      <trkpt lat="48.42167" lon="2.70652">
        <ele>143</ele>
        <time>2013-04-21T09:21:18Z</time>
      </trkpt>
      <trkpt lat="48.42168" lon="2.70651">
        <ele>143</ele>
        <time>2013-04-21T09:21:19Z</time>
      </trkpt>
      <trkpt lat="48.42168" lon="2.70649">
        <ele>143</ele>
        <time>2013-04-21T09:21:20Z</time>
      </trkpt>
      <trkpt lat="48.42167" lon="2.70643">
        <ele>143</ele>
        <time>2013-04-21T09:21:23Z</time>
      </trkpt>
      <trkpt lat="48.42163" lon="2.70624">
        <ele>137</ele>
        <time>2013-04-21T09:21:28Z</time>
      </trkpt>
      <trkpt lat="48.42162" lon="2.70619">
        <ele>137</ele>
        <time>2013-04-21T09:21:29Z</time>
      </trkpt>
      <trkpt lat="48.4216" lon="2.70593">
        <ele>140</ele>
        <time>2013-04-21T09:21:34Z</time>
      </trkpt>
      <trkpt lat="48.4216" lon="2.70588">
        <ele>141</ele>
        <time>2013-04-21T09:21:35Z</time>
      </trkpt>
      <trkpt lat="48.42162" lon="2.70579">
        <ele>142</ele>
        <time>2013-04-21T09:21:37Z</time>
      </trkpt>
      <trkpt lat="48.42161" lon="2.70562">
        <ele>140</ele>
        <time>2013-04-21T09:21:40Z</time>
      </trkpt>
      <trkpt lat="48.42159" lon="2.70558">
        <ele>140</ele>
        <time>2013-04-21T09:21:41Z</time>
      </trkpt>
      <trkpt lat="48.4215" lon="2.70543">
        <ele>139</ele>
        <time>2013-04-21T09:21:45Z</time>
      </trkpt>
      <trkpt lat="48.42148" lon="2.70541">
        <ele>139</ele>
        <time>2013-04-21T09:21:46Z</time>
      </trkpt>
      <trkpt lat="48.42146" lon="2.7054">
        <ele>139</ele>
        <time>2013-04-21T09:21:47Z</time>
      </trkpt>
      <trkpt lat="48.42144" lon="2.7054">
        <ele>139</ele>
        <time>2013-04-21T09:21:48Z</time>
      </trkpt>
      <trkpt lat="48.42144" lon="2.7054">
        <ele>139</ele>
        <time>2013-04-21T09:21:49Z</time>
      </trkpt>
      <trkpt lat="48.42144" lon="2.70541">
        <ele>138</ele>
        <time>2013-04-21T09:21:50Z</time>
      </trkpt>
      <trkpt lat="48.42144" lon="2.70542">
        <ele>139</ele>
        <time>2013-04-21T09:21:51Z</time>
      </trkpt>
      <trkpt lat="48.42145" lon="2.70541">
        <ele>139</ele>
        <time>2013-04-21T09:21:52Z</time>
      </trkpt>
      <trkpt lat="48.42145" lon="2.7054">
        <ele>139</ele>
        <time>2013-04-21T09:21:53Z</time>
      </trkpt>
      <trkpt lat="48.42146" lon="2.70538">
        <ele>139</ele>
        <time>2013-04-21T09:21:54Z</time>
      </trkpt>
      <trkpt lat="48.42145" lon="2.70535">
        <ele>139</ele>
        <time>2013-04-21T09:21:57Z</time>
      </trkpt>
      <trkpt lat="48.42145" lon="2.70534">
        <ele>139</ele>
        <time>2013-04-21T09:21:58Z</time>
      </trkpt>
      <trkpt lat="48.42145" lon="2.70534">
        <ele>139</ele>
        <time>2013-04-21T09:21:59Z</time>
      </trkpt>
      <trkpt lat="48.42145" lon="2.70533">
        <ele>139</ele>
        <time>2013-04-21T09:22:00Z</time>
      </trkpt>
      <trkpt lat="48.42145" lon="2.70533">
        <ele>139</ele>
        <time>2013-04-21T09:22:01Z</time>
      </trkpt>
      <trkpt lat="48.42144" lon="2.70532">
        <ele>139</ele>
        <time>2013-04-21T09:22:02Z</time>
      </trkpt>
      <trkpt lat="48.42144" lon="2.70532">
        <ele>139</ele>
        <time>2013-04-21T09:22:03Z</time>
      </trkpt>
      <trkpt lat="48.42144" lon="2.70532">
        <ele>139</ele>
        <time>2013-04-21T09:22:04Z</time>
      </trkpt>
      <trkpt lat="48.42144" lon="2.70531">
        <ele>139</ele>
        <time>2013-04-21T09:22:05Z</time>
      </trkpt>
      <trkpt lat="48.42144" lon="2.70531">
        <ele>139</ele>
        <time>2013-04-21T09:22:06Z</time>
      </trkpt>
      <trkpt lat="48.42144" lon="2.70531">
        <ele>139</ele>
        <time>2013-04-21T09:22:07Z</time>
      </trkpt>
      <trkpt lat="48.42144" lon="2.7053">
        <ele>139</ele>
        <time>2013-04-21T09:22:08Z</time>
      </trkpt>
      <trkpt lat="48.42144" lon="2.7053">
        <ele>139</ele>
        <time>2013-04-21T09:22:09Z</time>
      </trkpt>
      <trkpt lat="48.42144" lon="2.7053">
        <ele>139</ele>
        <time>2013-04-21T09:22:10Z</time>
      </trkpt>
      <trkpt lat="48.42143" lon="2.70529">
        <ele>139</ele>
        <time>2013-04-21T09:22:11Z</time>
      </trkpt>
      <trkpt lat="48.42143" lon="2.70528">
        <ele>139</ele>
        <time>2013-04-21T09:22:12Z</time>
      </trkpt>
      <trkpt lat="48.42144" lon="2.70516">
        <ele>139</ele>
        <time>2013-04-21T09:22:15Z</time>
      </trkpt>
      <trkpt lat="48.42145" lon="2.70509">
        <ele>140</ele>
        <time>2013-04-21T09:22:16Z</time>
      </trkpt>
      <trkpt lat="48.42151" lon="2.70489">
        <ele>141</ele>
        <time>2013-04-21T09:22:20Z</time>
      </trkpt>
      <trkpt lat="48.42153" lon="2.70486">
        <ele>141</ele>
        <time>2013-04-21T09:22:21Z</time>
      </trkpt>
      <trkpt lat="48.42154" lon="2.70483">
        <ele>140</ele>
        <time>2013-04-21T09:22:22Z</time>
      </trkpt>
      <trkpt lat="48.42159" lon="2.70476">
        <ele>140</ele>
        <time>2013-04-21T09:22:25Z</time>
      </trkpt>
      <trkpt lat="48.42161" lon="2.70474">
        <ele>140</ele>
        <time>2013-04-21T09:22:26Z</time>
      </trkpt>
      <trkpt lat="48.42169" lon="2.70463">
        <ele>144</ele>
        <time>2013-04-21T09:22:32Z</time>
      </trkpt>
      <trkpt lat="48.42172" lon="2.7046">
        <ele>144</ele>
        <time>2013-04-21T09:22:35Z</time>
      </trkpt>
      <trkpt lat="48.42173" lon="2.70459">
        <ele>144</ele>
        <time>2013-04-21T09:22:36Z</time>
      </trkpt>
      <trkpt lat="48.42174" lon="2.70457">
        <ele>144</ele>
        <time>2013-04-21T09:22:40Z</time>
      </trkpt>
      <trkpt lat="48.42174" lon="2.70457">
        <ele>144</ele>
        <time>2013-04-21T09:22:41Z</time>
      </trkpt>
      <trkpt lat="48.42174" lon="2.70457">
        <ele>144</ele>
        <time>2013-04-21T09:22:42Z</time>
      </trkpt>
      <trkpt lat="48.42174" lon="2.70457">
        <ele>144</ele>
        <time>2013-04-21T09:22:43Z</time>
      </trkpt>
      <trkpt lat="48.42174" lon="2.70456">
        <ele>144</ele>
        <time>2013-04-21T09:22:44Z</time>
      </trkpt>
      <trkpt lat="48.42176" lon="2.70456">
        <ele>144</ele>
        <time>2013-04-21T09:22:46Z</time>
      </trkpt>
      <trkpt lat="48.42176" lon="2.70459">
        <ele>144</ele>
        <time>2013-04-21T09:22:48Z</time>
      </trkpt>
      <trkpt lat="48.42177" lon="2.70462">
        <ele>144</ele>
        <time>2013-04-21T09:22:49Z</time>
      </trkpt>
      <trkpt lat="48.42177" lon="2.70469">
        <ele>145</ele>
        <time>2013-04-21T09:22:52Z</time>
      </trkpt>
      <trkpt lat="48.42177" lon="2.70471">
        <ele>145</ele>
        <time>2013-04-21T09:22:53Z</time>
      </trkpt>
      <trkpt lat="48.42176" lon="2.70473">
        <ele>145</ele>
        <time>2013-04-21T09:22:54Z</time>
      </trkpt>
      <trkpt lat="48.42174" lon="2.70477">
        <ele>145</ele>
        <time>2013-04-21T09:22:56Z</time>
      </trkpt>
      <trkpt lat="48.42174" lon="2.70477">
        <ele>145</ele>
        <time>2013-04-21T09:22:57Z</time>
      </trkpt>
      <trkpt lat="48.42174" lon="2.70477">
        <ele>145</ele>
        <time>2013-04-21T09:22:59Z</time>
      </trkpt>
      <trkpt lat="48.42174" lon="2.70477">
        <ele>145</ele>
        <time>2013-04-21T09:23:00Z</time>
      </trkpt>
      <trkpt lat="48.42173" lon="2.70478">
        <ele>145</ele>
        <time>2013-04-21T09:23:01Z</time>
      </trkpt>
      <trkpt lat="48.42171" lon="2.7048">
        <ele>145</ele>
        <time>2013-04-21T09:23:02Z</time>
      </trkpt>
      <trkpt lat="48.42168" lon="2.70483">
        <ele>145</ele>
        <time>2013-04-21T09:23:03Z</time>
      </trkpt>
      <trkpt lat="48.42165" lon="2.70489">
        <ele>142</ele>
        <time>2013-04-21T09:23:05Z</time>
      </trkpt>
      <trkpt lat="48.42164" lon="2.70492">
        <ele>143</ele>
        <time>2013-04-21T09:23:07Z</time>
      </trkpt>
      <trkpt lat="48.42165" lon="2.705">
        <ele>144</ele>
        <time>2013-04-21T09:23:09Z</time>
      </trkpt>
      <trkpt lat="48.42165" lon="2.70503">
        <ele>144</ele>
        <time>2013-04-21T09:23:10Z</time>
      </trkpt>
      <trkpt lat="48.42166" lon="2.70505">
        <ele>144</ele>
        <time>2013-04-21T09:23:11Z</time>
      </trkpt>
      <trkpt lat="48.42168" lon="2.70506">
        <ele>145</ele>
        <time>2013-04-21T09:23:12Z</time>
      </trkpt>
      <trkpt lat="48.42174" lon="2.70505">
        <ele>145</ele>
        <time>2013-04-21T09:23:15Z</time>
      </trkpt>
      <trkpt lat="48.42176" lon="2.70503">
        <ele>145</ele>
        <time>2013-04-21T09:23:16Z</time>
      </trkpt>
      <trkpt lat="48.42179" lon="2.70501">
        <ele>145</ele>
        <time>2013-04-21T09:23:18Z</time>
      </trkpt>
      <trkpt lat="48.42191" lon="2.70496">
        <ele>145</ele>
        <time>2013-04-21T09:23:23Z</time>
      </trkpt>
      <trkpt lat="48.42203" lon="2.70494">
        <ele>145</ele>
        <time>2013-04-21T09:23:27Z</time>
      </trkpt>
      <trkpt lat="48.42213" lon="2.70495">
        <ele>145</ele>
        <time>2013-04-21T09:23:30Z</time>
      </trkpt>
      <trkpt lat="48.42246" lon="2.70486">
        <ele>146</ele>
        <time>2013-04-21T09:23:39Z</time>
      </trkpt>
      <trkpt lat="48.42248" lon="2.70486">
        <ele>146</ele>
        <time>2013-04-21T09:23:41Z</time>
      </trkpt>
      <trkpt lat="48.42249" lon="2.70486">
        <ele>146</ele>
        <time>2013-04-21T09:23:42Z</time>
      </trkpt>
      <trkpt lat="48.4225" lon="2.70486">
        <ele>146</ele>
        <time>2013-04-21T09:23:43Z</time>
      </trkpt>
      <trkpt lat="48.42251" lon="2.70485">
        <ele>146</ele>
        <time>2013-04-21T09:23:44Z</time>
      </trkpt>
      <trkpt lat="48.42251" lon="2.70485">
        <ele>146</ele>
        <time>2013-04-21T09:23:45Z</time>
      </trkpt>
      <trkpt lat="48.42251" lon="2.70485">
        <ele>146</ele>
        <time>2013-04-21T09:23:46Z</time>
      </trkpt>
      <trkpt lat="48.42252" lon="2.70485">
        <ele>146</ele>
        <time>2013-04-21T09:23:47Z</time>
      </trkpt>
      <trkpt lat="48.42252" lon="2.70485">
        <ele>146</ele>
        <time>2013-04-21T09:23:48Z</time>
      </trkpt>
      <trkpt lat="48.42252" lon="2.70485">
        <ele>146</ele>
        <time>2013-04-21T09:23:49Z</time>
      </trkpt>
      <trkpt lat="48.42252" lon="2.70485">
        <ele>146</ele>
        <time>2013-04-21T09:23:50Z</time>
      </trkpt>
      <trkpt lat="48.42252" lon="2.70485">
        <ele>146</ele>
        <time>2013-04-21T09:23:51Z</time>
      </trkpt>
      <trkpt lat="48.42253" lon="2.70485">
        <ele>146</ele>
        <time>2013-04-21T09:23:52Z</time>
      </trkpt>
      <trkpt lat="48.42253" lon="2.70485">
        <ele>146</ele>
        <time>2013-04-21T09:23:53Z</time>
      </trkpt>
      <trkpt lat="48.42253" lon="2.70485">
        <ele>146</ele>
        <time>2013-04-21T09:23:54Z</time>
      </trkpt>
      <trkpt lat="48.42253" lon="2.70485">
        <ele>146</ele>
        <time>2013-04-21T09:23:55Z</time>
      </trkpt>
      <trkpt lat="48.42254" lon="2.70485">
        <ele>146</ele>
        <time>2013-04-21T09:23:56Z</time>
      </trkpt>
      <trkpt lat="48.42254" lon="2.70485">
        <ele>146</ele>
        <time>2013-04-21T09:23:57Z</time>
      </trkpt>
      <trkpt lat="48.42254" lon="2.70485">
        <ele>146</ele>
        <time>2013-04-21T09:23:58Z</time>
      </trkpt>
      <trkpt lat="48.42254" lon="2.70485">
        <ele>146</ele>
        <time>2013-04-21T09:23:59Z</time>
      </trkpt>
      <trkpt lat="48.42255" lon="2.70484">
        <ele>146</ele>
        <time>2013-04-21T09:24:01Z</time>
      </trkpt>
      <trkpt lat="48.42255" lon="2.70484">
        <ele>146</ele>
        <time>2013-04-21T09:24:02Z</time>
      </trkpt>
      <trkpt lat="48.42255" lon="2.70484">
        <ele>146</ele>
        <time>2013-04-21T09:24:03Z</time>
      </trkpt>
      <trkpt lat="48.42255" lon="2.70484">
        <ele>146</ele>
        <time>2013-04-21T09:24:04Z</time>
      </trkpt>
      <trkpt lat="48.42255" lon="2.70484">
        <ele>146</ele>
        <time>2013-04-21T09:24:05Z</time>
      </trkpt>
      <trkpt lat="48.42255" lon="2.70484">
        <ele>146</ele>
        <time>2013-04-21T09:24:06Z</time>
      </trkpt>
      <trkpt lat="48.42255" lon="2.70484">
        <ele>146</ele>
        <time>2013-04-21T09:24:07Z</time>
      </trkpt>
      <trkpt lat="48.42255" lon="2.70485">
        <ele>146</ele>
        <time>2013-04-21T09:24:08Z</time>
      </trkpt>
      <trkpt lat="48.42255" lon="2.70485">
        <ele>146</ele>
        <time>2013-04-21T09:24:11Z</time>
      </trkpt>
      <trkpt lat="48.42255" lon="2.70485">
        <ele>146</ele>
        <time>2013-04-21T09:24:12Z</time>
      </trkpt>
      <trkpt lat="48.42256" lon="2.70485">
        <ele>146</ele>
        <time>2013-04-21T09:24:13Z</time>
      </trkpt>
      <trkpt lat="48.42256" lon="2.70485">
        <ele>146</ele>
        <time>2013-04-21T09:24:16Z</time>
      </trkpt>
      <trkpt lat="48.42256" lon="2.70485">
        <ele>146</ele>
        <time>2013-04-21T09:24:17Z</time>
      </trkpt>
      <trkpt lat="48.42256" lon="2.70485">
        <ele>146</ele>
        <time>2013-04-21T09:24:19Z</time>
      </trkpt>
      <trkpt lat="48.42256" lon="2.70485">
        <ele>146</ele>
        <time>2013-04-21T09:24:20Z</time>
      </trkpt>
      <trkpt lat="48.42256" lon="2.70485">
        <ele>146</ele>
        <time>2013-04-21T09:24:25Z</time>
      </trkpt>
      <trkpt lat="48.42256" lon="2.70485">
        <ele>146</ele>
        <time>2013-04-21T09:24:28Z</time>
      </trkpt>
      <trkpt lat="48.42256" lon="2.70485">
        <ele>146</ele>
        <time>2013-04-21T09:24:29Z</time>
      </trkpt>
      <trkpt lat="48.42256" lon="2.70485">
        <ele>146</ele>
        <time>2013-04-21T09:24:30Z</time>
      </trkpt>
      <trkpt lat="48.42256" lon="2.70485">
        <ele>146</ele>
        <time>2013-04-21T09:24:32Z</time>
      </trkpt>
      <trkpt lat="48.42256" lon="2.70485">
        <ele>146</ele>
        <time>2013-04-21T09:24:33Z</time>
      </trkpt>
      <trkpt lat="48.42286" lon="2.70475">
        <ele>145</ele>
        <time>2013-04-21T09:24:43Z</time>
      </trkpt>
      <trkpt lat="48.42303" lon="2.70473">
        <ele>145</ele>
        <time>2013-04-21T09:24:47Z</time>
      </trkpt>
      <trkpt lat="48.42313" lon="2.70473">
        <ele>145</ele>
        <time>2013-04-21T09:24:49Z</time>
      </trkpt>
      <trkpt lat="48.42326" lon="2.70472">
        <ele>145</ele>
        <time>2013-04-21T09:24:52Z</time>
      </trkpt>
      <trkpt lat="48.42329" lon="2.70472">
        <ele>145</ele>
        <time>2013-04-21T09:24:53Z</time>
      </trkpt>
      <trkpt lat="48.42333" lon="2.70472">
        <ele>145</ele>
        <time>2013-04-21T09:24:54Z</time>
      </trkpt>
      <trkpt lat="48.42337" lon="2.7047">
        <ele>144</ele>
        <time>2013-04-21T09:24:56Z</time>
      </trkpt>
      <trkpt lat="48.42339" lon="2.70468">
        <ele>144</ele>
        <time>2013-04-21T09:24:57Z</time>
      </trkpt>
      <trkpt lat="48.4234" lon="2.70466">
        <ele>144</ele>
        <time>2013-04-21T09:24:58Z</time>
      </trkpt>
      <trkpt lat="48.4234" lon="2.70462">
        <ele>144</ele>
        <time>2013-04-21T09:24:59Z</time>
      </trkpt>
      <trkpt lat="48.42339" lon="2.70458">
        <ele>144</ele>
        <time>2013-04-21T09:25:00Z</time>
      </trkpt>
      <trkpt lat="48.42319" lon="2.70403">
        <ele>142</ele>
        <time>2013-04-21T09:25:12Z</time>
      </trkpt>
      <trkpt lat="48.42316" lon="2.70399">
        <ele>142</ele>
        <time>2013-04-21T09:25:15Z</time>
      </trkpt>
      <trkpt lat="48.42315" lon="2.70398">
        <ele>142</ele>
        <time>2013-04-21T09:25:16Z</time>
      </trkpt>
      <trkpt lat="48.42307" lon="2.70398">
        <ele>143</ele>
        <time>2013-04-21T09:25:19Z</time>
      </trkpt>
      <trkpt lat="48.42297" lon="2.70394">
        <ele>143</ele>
        <time>2013-04-21T09:25:23Z</time>
      </trkpt>
      <trkpt lat="48.42296" lon="2.70393">
        <ele>143</ele>
        <time>2013-04-21T09:25:24Z</time>
      </trkpt>
      <trkpt lat="48.42295" lon="2.70391">
        <ele>143</ele>
        <time>2013-04-21T09:25:25Z</time>
      </trkpt>
      <trkpt lat="48.42295" lon="2.70388">
        <ele>143</ele>
        <time>2013-04-21T09:25:26Z</time>
      </trkpt>
      <trkpt lat="48.42295" lon="2.70384">
        <ele>143</ele>
        <time>2013-04-21T09:25:27Z</time>
      </trkpt>
      <trkpt lat="48.42295" lon="2.70381">
        <ele>143</ele>
        <time>2013-04-21T09:25:28Z</time>
      </trkpt>
      <trkpt lat="48.42293" lon="2.70379">
        <ele>143</ele>
        <time>2013-04-21T09:25:30Z</time>
      </trkpt>
      <trkpt lat="48.42291" lon="2.70378">
        <ele>143</ele>
        <time>2013-04-21T09:25:31Z</time>
      </trkpt>
      <trkpt lat="48.42288" lon="2.70374">
        <ele>143</ele>
        <time>2013-04-21T09:25:33Z</time>
      </trkpt>
      <trkpt lat="48.42283" lon="2.7037">
        <ele>143</ele>
        <time>2013-04-21T09:25:35Z</time>
      </trkpt>
      <trkpt lat="48.42281" lon="2.70367">
        <ele>143</ele>
        <time>2013-04-21T09:25:36Z</time>
      </trkpt>
      <trkpt lat="48.42279" lon="2.70364">
        <ele>143</ele>
        <time>2013-04-21T09:25:37Z</time>
      </trkpt>
      <trkpt lat="48.42278" lon="2.7036">
        <ele>143</ele>
        <time>2013-04-21T09:25:38Z</time>
      </trkpt>
      <trkpt lat="48.42278" lon="2.70356">
        <ele>143</ele>
        <time>2013-04-21T09:25:39Z</time>
      </trkpt>
      <trkpt lat="48.42279" lon="2.70349">
        <ele>143</ele>
        <time>2013-04-21T09:25:41Z</time>
      </trkpt>
      <trkpt lat="48.42281" lon="2.70342">
        <ele>143</ele>
        <time>2013-04-21T09:25:43Z</time>
      </trkpt>
      <trkpt lat="48.42283" lon="2.70326">
        <ele>142</ele>
        <time>2013-04-21T09:25:47Z</time>
      </trkpt>
      <trkpt lat="48.42282" lon="2.70324">
        <ele>142</ele>
        <time>2013-04-21T09:25:48Z</time>
      </trkpt>
      <trkpt lat="48.42282" lon="2.70322">
        <ele>142</ele>
        <time>2013-04-21T09:25:49Z</time>
      </trkpt>
      <trkpt lat="48.4228" lon="2.70319">
        <ele>142</ele>
        <time>2013-04-21T09:25:50Z</time>
      </trkpt>
      <trkpt lat="48.42276" lon="2.70301">
        <ele>142</ele>
        <time>2013-04-21T09:25:55Z</time>
      </trkpt>
      <trkpt lat="48.42274" lon="2.70298">
        <ele>142</ele>
        <time>2013-04-21T09:25:56Z</time>
      </trkpt>
      <trkpt lat="48.42263" lon="2.7028">
        <ele>142</ele>
        <time>2013-04-21T09:26:04Z</time>
      </trkpt>
      <trkpt lat="48.42258" lon="2.70272">
        <ele>141</ele>
        <time>2013-04-21T09:26:08Z</time>
      </trkpt>
      <trkpt lat="48.42256" lon="2.70269">
        <ele>141</ele>
        <time>2013-04-21T09:26:15Z</time>
      </trkpt>
      <trkpt lat="48.42256" lon="2.70269">
        <ele>141</ele>
        <time>2013-04-21T09:26:16Z</time>
      </trkpt>
      <trkpt lat="48.42255" lon="2.70269">
        <ele>141</ele>
        <time>2013-04-21T09:26:17Z</time>
      </trkpt>
      <trkpt lat="48.42254" lon="2.70268">
        <ele>141</ele>
        <time>2013-04-21T09:26:20Z</time>
      </trkpt>
      <trkpt lat="48.42254" lon="2.70268">
        <ele>141</ele>
        <time>2013-04-21T09:26:21Z</time>
      </trkpt>
      <trkpt lat="48.42254" lon="2.70267">
        <ele>141</ele>
        <time>2013-04-21T09:26:22Z</time>
      </trkpt>
      <trkpt lat="48.42254" lon="2.70267">
        <ele>141</ele>
        <time>2013-04-21T09:26:23Z</time>
      </trkpt>
      <trkpt lat="48.42253" lon="2.70267">
        <ele>141</ele>
        <time>2013-04-21T09:26:24Z</time>
      </trkpt>
      <trkpt lat="48.42253" lon="2.70267">
        <ele>141</ele>
        <time>2013-04-21T09:26:25Z</time>
      </trkpt>
      <trkpt lat="48.42252" lon="2.70266">
        <ele>141</ele>
        <time>2013-04-21T09:26:29Z</time>
      </trkpt>
      <trkpt lat="48.42252" lon="2.70265">
        <ele>141</ele>
        <time>2013-04-21T09:26:30Z</time>
      </trkpt>
      <trkpt lat="48.42252" lon="2.70265">
        <ele>141</ele>
        <time>2013-04-21T09:26:31Z</time>
      </trkpt>
      <trkpt lat="48.42252" lon="2.70265">
        <ele>141</ele>
        <time>2013-04-21T09:26:32Z</time>
      </trkpt>
      <trkpt lat="48.42251" lon="2.70265">
        <ele>141</ele>
        <time>2013-04-21T09:26:33Z</time>
      </trkpt>
      <trkpt lat="48.42251" lon="2.70265">
        <ele>141</ele>
        <time>2013-04-21T09:26:34Z</time>
      </trkpt>
      <trkpt lat="48.42251" lon="2.70265">
        <ele>141</ele>
        <time>2013-04-21T09:26:35Z</time>
      </trkpt>
      <trkpt lat="48.42251" lon="2.70264">
        <ele>141</ele>
        <time>2013-04-21T09:26:36Z</time>
      </trkpt>
      <trkpt lat="48.42251" lon="2.70264">
        <ele>141</ele>
        <time>2013-04-21T09:26:37Z</time>
      </trkpt>
      <trkpt lat="48.42248" lon="2.70261">
        <ele>140</ele>
        <time>2013-04-21T09:26:42Z</time>
      </trkpt>
      <trkpt lat="48.42239" lon="2.70249">
        <ele>139</ele>
        <time>2013-04-21T09:26:48Z</time>
      </trkpt>
      <trkpt lat="48.42238" lon="2.70247">
        <ele>138</ele>
        <time>2013-04-21T09:26:49Z</time>
      </trkpt>
      <trkpt lat="48.42237" lon="2.70247">
        <ele>138</ele>
        <time>2013-04-21T09:26:50Z</time>
      </trkpt>
      <trkpt lat="48.42235" lon="2.70245">
        <ele>138</ele>
        <time>2013-04-21T09:26:54Z</time>
      </trkpt>
      <trkpt lat="48.42235" lon="2.70245">
        <ele>138</ele>
        <time>2013-04-21T09:26:55Z</time>
      </trkpt>
      <trkpt lat="48.42235" lon="2.70245">
        <ele>138</ele>
        <time>2013-04-21T09:26:56Z</time>
      </trkpt>
      <trkpt lat="48.42236" lon="2.70244">
        <ele>138</ele>
        <time>2013-04-21T09:26:57Z</time>
      </trkpt>
      <trkpt lat="48.42236" lon="2.70244">
        <ele>138</ele>
        <time>2013-04-21T09:26:58Z</time>
      </trkpt>
      <trkpt lat="48.42236" lon="2.70244">
        <ele>138</ele>
        <time>2013-04-21T09:26:59Z</time>
      </trkpt>
      <trkpt lat="48.42236" lon="2.70243">
        <ele>138</ele>
        <time>2013-04-21T09:27:00Z</time>
      </trkpt>
      <trkpt lat="48.42237" lon="2.7024">
        <ele>138</ele>
        <time>2013-04-21T09:27:02Z</time>
      </trkpt>
      <trkpt lat="48.42238" lon="2.70238">
        <ele>138</ele>
        <time>2013-04-21T09:27:03Z</time>
      </trkpt>
      <trkpt lat="48.42238" lon="2.70236">
        <ele>137</ele>
        <time>2013-04-21T09:27:04Z</time>
      </trkpt>
      <trkpt lat="48.42237" lon="2.70232">
        <ele>137</ele>
        <time>2013-04-21T09:27:06Z</time>
      </trkpt>
      <trkpt lat="48.42236" lon="2.7023">
        <ele>137</ele>
        <time>2013-04-21T09:27:07Z</time>
      </trkpt>
      <trkpt lat="48.42235" lon="2.70229">
        <ele>137</ele>
        <time>2013-04-21T09:27:08Z</time>
      </trkpt>
      <trkpt lat="48.42232" lon="2.70228">
        <ele>136</ele>
        <time>2013-04-21T09:27:10Z</time>
      </trkpt>
      <trkpt lat="48.42231" lon="2.70228">
        <ele>136</ele>
        <time>2013-04-21T09:27:11Z</time>
      </trkpt>
      <trkpt lat="48.42229" lon="2.70227">
        <ele>136</ele>
        <time>2013-04-21T09:27:14Z</time>
      </trkpt>
      <trkpt lat="48.42227" lon="2.70225">
        <ele>136</ele>
        <time>2013-04-21T09:27:16Z</time>
      </trkpt>
      <trkpt lat="48.42225" lon="2.70226">
        <ele>136</ele>
        <time>2013-04-21T09:27:18Z</time>
      </trkpt>
      <trkpt lat="48.42225" lon="2.70226">
        <ele>136</ele>
        <time>2013-04-21T09:27:19Z</time>
      </trkpt>
      <trkpt lat="48.42224" lon="2.70226">
        <ele>136</ele>
        <time>2013-04-21T09:27:20Z</time>
      </trkpt>
      <trkpt lat="48.42223" lon="2.70226">
        <ele>136</ele>
        <time>2013-04-21T09:27:22Z</time>
      </trkpt>
      <trkpt lat="48.42222" lon="2.70227">
        <ele>136</ele>
        <time>2013-04-21T09:27:23Z</time>
      </trkpt>
      <trkpt lat="48.42222" lon="2.70226">
        <ele>136</ele>
        <time>2013-04-21T09:27:24Z</time>
      </trkpt>
      <trkpt lat="48.42222" lon="2.70226">
        <ele>136</ele>
        <time>2013-04-21T09:27:25Z</time>
      </trkpt>
      <trkpt lat="48.42222" lon="2.70219">
        <ele>135</ele>
        <time>2013-04-21T09:27:29Z</time>
      </trkpt>
      <trkpt lat="48.42222" lon="2.70217">
        <ele>135</ele>
        <time>2013-04-21T09:27:30Z</time>
      </trkpt>
      <trkpt lat="48.42222" lon="2.70216">
        <ele>135</ele>
        <time>2013-04-21T09:27:31Z</time>
      </trkpt>
      <trkpt lat="48.42219" lon="2.70212">
        <ele>135</ele>
        <time>2013-04-21T09:27:33Z</time>
      </trkpt>
      <trkpt lat="48.42216" lon="2.70208">
        <ele>134</ele>
        <time>2013-04-21T09:27:35Z</time>
      </trkpt>
      <trkpt lat="48.42215" lon="2.70205">
        <ele>134</ele>
        <time>2013-04-21T09:27:36Z</time>
      </trkpt>
      <trkpt lat="48.42219" lon="2.70195">
        <ele>134</ele>
        <time>2013-04-21T09:27:39Z</time>
      </trkpt>
      <trkpt lat="48.42222" lon="2.70165">
        <ele>129</ele>
        <time>2013-04-21T09:27:43Z</time>
      </trkpt>
      <trkpt lat="48.42221" lon="2.70156">
        <ele>128</ele>
        <time>2013-04-21T09:27:44Z</time>
      </trkpt>
      <trkpt lat="48.42215" lon="2.70139">
        <ele>127</ele>
        <time>2013-04-21T09:27:46Z</time>
      </trkpt>
      <trkpt lat="48.42212" lon="2.70133">
        <ele>127</ele>
        <time>2013-04-21T09:27:47Z</time>
      </trkpt>
      <trkpt lat="48.42201" lon="2.70126">
        <ele>126</ele>
        <time>2013-04-21T09:27:49Z</time>
      </trkpt>
      <trkpt lat="48.42189" lon="2.70108">
        <ele>125</ele>
        <time>2013-04-21T09:27:52Z</time>
      </trkpt>
      <trkpt lat="48.42185" lon="2.70104">
        <ele>124</ele>
        <time>2013-04-21T09:27:53Z</time>
      </trkpt>
      <trkpt lat="48.42178" lon="2.70091">
        <ele>123</ele>
        <time>2013-04-21T09:27:56Z</time>
      </trkpt>
      <trkpt lat="48.42177" lon="2.70086">
        <ele>122</ele>
        <time>2013-04-21T09:27:57Z</time>
      </trkpt>
      <trkpt lat="48.42177" lon="2.7008">
        <ele>120</ele>
        <time>2013-04-21T09:27:58Z</time>
      </trkpt>
      <trkpt lat="48.42175" lon="2.70076">
        <ele>120</ele>
        <time>2013-04-21T09:27:59Z</time>
      </trkpt>
      <trkpt lat="48.42173" lon="2.70074">
        <ele>120</ele>
        <time>2013-04-21T09:28:00Z</time>
      </trkpt>
      <trkpt lat="48.42171" lon="2.70073">
        <ele>120</ele>
        <time>2013-04-21T09:28:01Z</time>
      </trkpt>
      <trkpt lat="48.42166" lon="2.70067">
        <ele>117</ele>
        <time>2013-04-21T09:28:03Z</time>
      </trkpt>
      <trkpt lat="48.42163" lon="2.70065">
        <ele>117</ele>
        <time>2013-04-21T09:28:04Z</time>
      </trkpt>
      <trkpt lat="48.42159" lon="2.70062">
        <ele>116</ele>
        <time>2013-04-21T09:28:06Z</time>
      </trkpt>
      <trkpt lat="48.42153" lon="2.70057">
        <ele>115</ele>
        <time>2013-04-21T09:28:08Z</time>
      </trkpt>
      <trkpt lat="48.42138" lon="2.70046">
        <ele>114</ele>
        <time>2013-04-21T09:28:11Z</time>
      </trkpt>
      <trkpt lat="48.42109" lon="2.70014">
        <ele>112</ele>
        <time>2013-04-21T09:28:17Z</time>
      </trkpt>
      <trkpt lat="48.42105" lon="2.70011">
        <ele>112</ele>
        <time>2013-04-21T09:28:18Z</time>
      </trkpt>
      <trkpt lat="48.42101" lon="2.70009">
        <ele>111</ele>
        <time>2013-04-21T09:28:19Z</time>
      </trkpt>
      <trkpt lat="48.42089" lon="2.70001">
        <ele>110</ele>
        <time>2013-04-21T09:28:22Z</time>
      </trkpt>
      <trkpt lat="48.42083" lon="2.69995">
        <ele>108</ele>
        <time>2013-04-21T09:28:24Z</time>
      </trkpt>
      <trkpt lat="48.42081" lon="2.69994">
        <ele>108</ele>
        <time>2013-04-21T09:28:25Z</time>
      </trkpt>
      <trkpt lat="48.42076" lon="2.69995">
        <ele>108</ele>
        <time>2013-04-21T09:28:27Z</time>
      </trkpt>
      <trkpt lat="48.42074" lon="2.69996">
        <ele>108</ele>
        <time>2013-04-21T09:28:28Z</time>
      </trkpt>
      <trkpt lat="48.42072" lon="2.69998">
        <ele>108</ele>
        <time>2013-04-21T09:28:29Z</time>
      </trkpt>
      <trkpt lat="48.4207" lon="2.70002">
        <ele>108</ele>
        <time>2013-04-21T09:28:31Z</time>
      </trkpt>
      <trkpt lat="48.42069" lon="2.70004">
        <ele>108</ele>
        <time>2013-04-21T09:28:32Z</time>
      </trkpt>
      <trkpt lat="48.42067" lon="2.70008">
        <ele>108</ele>
        <time>2013-04-21T09:28:34Z</time>
      </trkpt>
      <trkpt lat="48.42066" lon="2.7001">
        <ele>108</ele>
        <time>2013-04-21T09:28:36Z</time>
      </trkpt>
      <trkpt lat="48.42065" lon="2.70012">
        <ele>108</ele>
        <time>2013-04-21T09:28:37Z</time>
      </trkpt>
      <trkpt lat="48.42063" lon="2.70019">
        <ele>108</ele>
        <time>2013-04-21T09:28:40Z</time>
      </trkpt>
      <trkpt lat="48.4206" lon="2.70024">
        <ele>108</ele>
        <time>2013-04-21T09:28:42Z</time>
      </trkpt>
      <trkpt lat="48.42059" lon="2.70026">
        <ele>108</ele>
        <time>2013-04-21T09:28:43Z</time>
      </trkpt>
      <trkpt lat="48.42056" lon="2.70034">
        <ele>108</ele>
        <time>2013-04-21T09:28:46Z</time>
      </trkpt>
      <trkpt lat="48.42055" lon="2.70037">
        <ele>108</ele>
        <time>2013-04-21T09:28:47Z</time>
      </trkpt>
      <trkpt lat="48.42054" lon="2.7004">
        <ele>108</ele>
        <time>2013-04-21T09:28:48Z</time>
      </trkpt>
      <trkpt lat="48.42052" lon="2.70044">
        <ele>108</ele>
        <time>2013-04-21T09:28:50Z</time>
      </trkpt>
      <trkpt lat="48.42052" lon="2.70047">
        <ele>108</ele>
        <time>2013-04-21T09:28:51Z</time>
      </trkpt>
      <trkpt lat="48.42051" lon="2.70049">
        <ele>108</ele>
        <time>2013-04-21T09:28:52Z</time>
      </trkpt>
      <trkpt lat="48.42049" lon="2.70051">
        <ele>108</ele>
        <time>2013-04-21T09:28:53Z</time>
      </trkpt>
      <trkpt lat="48.42048" lon="2.70053">
        <ele>108</ele>
        <time>2013-04-21T09:28:54Z</time>
      </trkpt>
      <trkpt lat="48.42047" lon="2.70058">
        <ele>108</ele>
        <time>2013-04-21T09:28:57Z</time>
      </trkpt>
      <trkpt lat="48.42046" lon="2.70061">
        <ele>108</ele>
        <time>2013-04-21T09:28:59Z</time>
      </trkpt>
      <trkpt lat="48.42046" lon="2.70062">
        <ele>108</ele>
        <time>2013-04-21T09:29:00Z</time>
      </trkpt>
      <trkpt lat="48.42046" lon="2.70063">
        <ele>108</ele>
        <time>2013-04-21T09:29:01Z</time>
      </trkpt>
      <trkpt lat="48.42046" lon="2.70063">
        <ele>108</ele>
        <time>2013-04-21T09:29:02Z</time>
      </trkpt>
      <trkpt lat="48.42047" lon="2.70063">
        <ele>108</ele>
        <time>2013-04-21T09:29:03Z</time>
      </trkpt>
      <trkpt lat="48.42047" lon="2.70063">
        <ele>108</ele>
        <time>2013-04-21T09:29:04Z</time>
      </trkpt>
      <trkpt lat="48.42047" lon="2.7006">
        <ele>108</ele>
        <time>2013-04-21T09:29:06Z</time>
      </trkpt>
      <trkpt lat="48.42047" lon="2.70059">
        <ele>108</ele>
        <time>2013-04-21T09:29:07Z</time>
      </trkpt>
      <trkpt lat="48.42047" lon="2.70057">
        <ele>108</ele>
        <time>2013-04-21T09:29:08Z</time>
      </trkpt>
      <trkpt lat="48.42047" lon="2.70057">
        <ele>108</ele>
        <time>2013-04-21T09:29:10Z</time>
      </trkpt>
      <trkpt lat="48.42047" lon="2.70057">
        <ele>108</ele>
        <time>2013-04-21T09:29:11Z</time>
      </trkpt>
      <trkpt lat="48.42047" lon="2.70058">
        <ele>108</ele>
        <time>2013-04-21T09:29:12Z</time>
      </trkpt>
      <trkpt lat="48.42047" lon="2.70058">
        <ele>108</ele>
        <time>2013-04-21T09:29:13Z</time>
      </trkpt>
      <trkpt lat="48.42047" lon="2.70058">
        <ele>108</ele>
        <time>2013-04-21T09:29:14Z</time>
      </trkpt>
      <trkpt lat="48.42047" lon="2.70058">
        <ele>108</ele>
        <time>2013-04-21T09:29:15Z</time>
      </trkpt>
      <trkpt lat="48.42047" lon="2.70058">
        <ele>108</ele>
        <time>2013-04-21T09:29:16Z</time>
      </trkpt>
      <trkpt lat="48.42047" lon="2.70059">
        <ele>108</ele>
        <time>2013-04-21T09:29:17Z</time>
      </trkpt>
      <trkpt lat="48.42046" lon="2.70059">
        <ele>108</ele>
        <time>2013-04-21T09:29:18Z</time>
      </trkpt>
      <trkpt lat="48.42046" lon="2.70059">
        <ele>108</ele>
        <time>2013-04-21T09:29:19Z</time>
      </trkpt>
      <trkpt lat="48.42046" lon="2.70058">
        <ele>108</ele>
        <time>2013-04-21T09:29:22Z</time>
      </trkpt>
      <trkpt lat="48.42049" lon="2.70052">
        <ele>108</ele>
        <time>2013-04-21T09:29:26Z</time>
      </trkpt>
      <trkpt lat="48.42054" lon="2.70037">
        <ele>108</ele>
        <time>2013-04-21T09:29:30Z</time>
      </trkpt>
      <trkpt lat="48.42057" lon="2.70031">
        <ele>108</ele>
        <time>2013-04-21T09:29:32Z</time>
      </trkpt>
      <trkpt lat="48.42061" lon="2.70015">
        <ele>108</ele>
        <time>2013-04-21T09:29:36Z</time>
      </trkpt>
      <trkpt lat="48.42062" lon="2.7001">
        <ele>108</ele>
        <time>2013-04-21T09:29:37Z</time>
      </trkpt>
      <trkpt lat="48.42075" lon="2.69957">
        <ele>107</ele>
        <time>2013-04-21T09:29:52Z</time>
      </trkpt>
      <trkpt lat="48.42082" lon="2.6994">
        <ele>106</ele>
        <time>2013-04-21T09:29:57Z</time>
      </trkpt>
      <trkpt lat="48.42085" lon="2.69938">
        <ele>108</ele>
        <time>2013-04-21T09:29:58Z</time>
      </trkpt>
      <trkpt lat="48.42105" lon="2.69925">
        <ele>108</ele>
        <time>2013-04-21T09:30:07Z</time>
      </trkpt>
      <trkpt lat="48.42108" lon="2.69923">
        <ele>108</ele>
        <time>2013-04-21T09:30:08Z</time>
      </trkpt>
      <trkpt lat="48.42114" lon="2.69917">
        <ele>109</ele>
        <time>2013-04-21T09:30:11Z</time>
      </trkpt>
      <trkpt lat="48.42116" lon="2.69917">
        <ele>108</ele>
        <time>2013-04-21T09:30:12Z</time>
      </trkpt>
      <trkpt lat="48.42118" lon="2.69917">
        <ele>109</ele>
        <time>2013-04-21T09:30:13Z</time>
      </trkpt>
      <trkpt lat="48.4212" lon="2.69919">
        <ele>109</ele>
        <time>2013-04-21T09:30:14Z</time>
      </trkpt>
      <trkpt lat="48.42125" lon="2.69923">
        <ele>109</ele>
        <time>2013-04-21T09:30:17Z</time>
      </trkpt>
      <trkpt lat="48.42133" lon="2.69933">
        <ele>109</ele>
        <time>2013-04-21T09:30:23Z</time>
      </trkpt>
      <trkpt lat="48.42134" lon="2.69936">
        <ele>110</ele>
        <time>2013-04-21T09:30:24Z</time>
      </trkpt>
      <trkpt lat="48.42139" lon="2.69943">
        <ele>110</ele>
        <time>2013-04-21T09:30:27Z</time>
      </trkpt>
      <trkpt lat="48.42141" lon="2.69945">
        <ele>110</ele>
        <time>2013-04-21T09:30:28Z</time>
      </trkpt>
      <trkpt lat="48.42144" lon="2.69949">
        <ele>110</ele>
        <time>2013-04-21T09:30:30Z</time>
      </trkpt>
      <trkpt lat="48.42149" lon="2.69957">
        <ele>110</ele>
        <time>2013-04-21T09:30:33Z</time>
      </trkpt>
      <trkpt lat="48.42199" lon="2.70025">
        <ele>120</ele>
        <time>2013-04-21T09:31:01Z</time>
      </trkpt>
      <trkpt lat="48.42203" lon="2.70033">
        <ele>121</ele>
        <time>2013-04-21T09:31:04Z</time>
      </trkpt>
      <trkpt lat="48.42214" lon="2.70048">
        <ele>121</ele>
        <time>2013-04-21T09:31:11Z</time>
      </trkpt>
      <trkpt lat="48.42215" lon="2.70051">
        <ele>121</ele>
        <time>2013-04-21T09:31:12Z</time>
      </trkpt>
      <trkpt lat="48.42219" lon="2.70057">
        <ele>122</ele>
        <time>2013-04-21T09:31:15Z</time>
      </trkpt>
      <trkpt lat="48.42223" lon="2.70065">
        <ele>122</ele>
        <time>2013-04-21T09:31:18Z</time>
      </trkpt>
      <trkpt lat="48.42224" lon="2.70067">
        <ele>122</ele>
        <time>2013-04-21T09:31:19Z</time>
      </trkpt>
      <trkpt lat="48.42227" lon="2.70072">
        <ele>122</ele>
        <time>2013-04-21T09:31:21Z</time>
      </trkpt>
      <trkpt lat="48.42229" lon="2.70076">
        <ele>123</ele>
        <time>2013-04-21T09:31:23Z</time>
      </trkpt>
      <trkpt lat="48.42239" lon="2.70093">
        <ele>126</ele>
        <time>2013-04-21T09:31:31Z</time>
      </trkpt>
      <trkpt lat="48.42241" lon="2.701">
        <ele>126</ele>
        <time>2013-04-21T09:31:34Z</time>
      </trkpt>
      <trkpt lat="48.42243" lon="2.70104">
        <ele>126</ele>
        <time>2013-04-21T09:31:36Z</time>
      </trkpt>
      <trkpt lat="48.42249" lon="2.70122">
        <ele>127</ele>
        <time>2013-04-21T09:31:44Z</time>
      </trkpt>
      <trkpt lat="48.4225" lon="2.70124">
        <ele>127</ele>
        <time>2013-04-21T09:31:45Z</time>
      </trkpt>
      <trkpt lat="48.4225" lon="2.70126">
        <ele>132</ele>
        <time>2013-04-21T09:31:46Z</time>
      </trkpt>
      <trkpt lat="48.42252" lon="2.70134">
        <ele>132</ele>
        <time>2013-04-21T09:31:49Z</time>
      </trkpt>
      <trkpt lat="48.42253" lon="2.7014">
        <ele>133</ele>
        <time>2013-04-21T09:31:51Z</time>
      </trkpt>
      <trkpt lat="48.42254" lon="2.70142">
        <ele>133</ele>
        <time>2013-04-21T09:31:52Z</time>
      </trkpt>
      <trkpt lat="48.42255" lon="2.70149">
        <ele>133</ele>
        <time>2013-04-21T09:31:55Z</time>
      </trkpt>
      <trkpt lat="48.42255" lon="2.70154">
        <ele>133</ele>
        <time>2013-04-21T09:31:57Z</time>
      </trkpt>
      <trkpt lat="48.42258" lon="2.70173">
        <ele>134</ele>
        <time>2013-04-21T09:32:04Z</time>
      </trkpt>
      <trkpt lat="48.42258" lon="2.70175">
        <ele>135</ele>
        <time>2013-04-21T09:32:05Z</time>
      </trkpt>
      <trkpt lat="48.42262" lon="2.70189">
        <ele>136</ele>
        <time>2013-04-21T09:32:11Z</time>
      </trkpt>
      <trkpt lat="48.42263" lon="2.70191">
        <ele>137</ele>
        <time>2013-04-21T09:32:12Z</time>
      </trkpt>
      <trkpt lat="48.42264" lon="2.70193">
        <ele>137</ele>
        <time>2013-04-21T09:32:13Z</time>
      </trkpt>
      <trkpt lat="48.42266" lon="2.70199">
        <ele>137</ele>
        <time>2013-04-21T09:32:16Z</time>
      </trkpt>
      <trkpt lat="48.42266" lon="2.70202">
        <ele>138</ele>
        <time>2013-04-21T09:32:17Z</time>
      </trkpt>
      <trkpt lat="48.42266" lon="2.70204">
        <ele>138</ele>
        <time>2013-04-21T09:32:18Z</time>
      </trkpt>
      <trkpt lat="48.42272" lon="2.70217">
        <ele>139</ele>
        <time>2013-04-21T09:32:25Z</time>
      </trkpt>
      <trkpt lat="48.42277" lon="2.70225">
        <ele>139</ele>
        <time>2013-04-21T09:32:29Z</time>
      </trkpt>
      <trkpt lat="48.42281" lon="2.70231">
        <ele>139</ele>
        <time>2013-04-21T09:32:32Z</time>
      </trkpt>
      <trkpt lat="48.42286" lon="2.70242">
        <ele>139</ele>
        <time>2013-04-21T09:32:37Z</time>
      </trkpt>
      <trkpt lat="48.42286" lon="2.70245">
        <ele>139</ele>
        <time>2013-04-21T09:32:38Z</time>
      </trkpt>
      <trkpt lat="48.42287" lon="2.70247">
        <ele>139</ele>
        <time>2013-04-21T09:32:39Z</time>
      </trkpt>
      <trkpt lat="48.42288" lon="2.70249">
        <ele>139</ele>
        <time>2013-04-21T09:32:40Z</time>
      </trkpt>
      <trkpt lat="48.42291" lon="2.70261">
        <ele>141</ele>
        <time>2013-04-21T09:32:45Z</time>
      </trkpt>
      <trkpt lat="48.42291" lon="2.70263">
        <ele>141</ele>
        <time>2013-04-21T09:32:46Z</time>
      </trkpt>
      <trkpt lat="48.42292" lon="2.70266">
        <ele>141</ele>
        <time>2013-04-21T09:32:47Z</time>
      </trkpt>
      <trkpt lat="48.42293" lon="2.70268">
        <ele>141</ele>
        <time>2013-04-21T09:32:48Z</time>
      </trkpt>
      <trkpt lat="48.42293" lon="2.7027">
        <ele>141</ele>
        <time>2013-04-21T09:32:49Z</time>
      </trkpt>
      <trkpt lat="48.42294" lon="2.70273">
        <ele>141</ele>
        <time>2013-04-21T09:32:50Z</time>
      </trkpt>
      <trkpt lat="48.42296" lon="2.70279">
        <ele>141</ele>
        <time>2013-04-21T09:32:53Z</time>
      </trkpt>
      <trkpt lat="48.42297" lon="2.70287">
        <ele>141</ele>
        <time>2013-04-21T09:32:56Z</time>
      </trkpt>
      <trkpt lat="48.42301" lon="2.70309">
        <ele>141</ele>
        <time>2013-04-21T09:33:04Z</time>
      </trkpt>
      <trkpt lat="48.42302" lon="2.70323">
        <ele>141</ele>
        <time>2013-04-21T09:33:09Z</time>
      </trkpt>
      <trkpt lat="48.42302" lon="2.70337">
        <ele>142</ele>
        <time>2013-04-21T09:33:13Z</time>
      </trkpt>
      <trkpt lat="48.42302" lon="2.70341">
        <ele>142</ele>
        <time>2013-04-21T09:33:14Z</time>
      </trkpt>
      <trkpt lat="48.42305" lon="2.70353">
        <ele>142</ele>
        <time>2013-04-21T09:33:17Z</time>
      </trkpt>
      <trkpt lat="48.42312" lon="2.70371">
        <ele>142</ele>
        <time>2013-04-21T09:33:23Z</time>
      </trkpt>
      <trkpt lat="48.42313" lon="2.70372">
        <ele>142</ele>
        <time>2013-04-21T09:33:24Z</time>
      </trkpt>
      <trkpt lat="48.42315" lon="2.70372">
        <ele>142</ele>
        <time>2013-04-21T09:33:25Z</time>
      </trkpt>
      <trkpt lat="48.42317" lon="2.70371">
        <ele>142</ele>
        <time>2013-04-21T09:33:26Z</time>
      </trkpt>
      <trkpt lat="48.42321" lon="2.70369">
        <ele>142</ele>
        <time>2013-04-21T09:33:28Z</time>
      </trkpt>
      <trkpt lat="48.42331" lon="2.7036">
        <ele>142</ele>
        <time>2013-04-21T09:33:33Z</time>
      </trkpt>
      <trkpt lat="48.42333" lon="2.70357">
        <ele>142</ele>
        <time>2013-04-21T09:33:35Z</time>
      </trkpt>
      <trkpt lat="48.42333" lon="2.70357">
        <ele>142</ele>
        <time>2013-04-21T09:33:36Z</time>
      </trkpt>
      <trkpt lat="48.42333" lon="2.70357">
        <ele>142</ele>
        <time>2013-04-21T09:33:37Z</time>
      </trkpt>
      <trkpt lat="48.42334" lon="2.70357">
        <ele>142</ele>
        <time>2013-04-21T09:33:38Z</time>
      </trkpt>
      <trkpt lat="48.42334" lon="2.70357">
        <ele>142</ele>
        <time>2013-04-21T09:33:39Z</time>
      </trkpt>
      <trkpt lat="48.42334" lon="2.70357">
        <ele>142</ele>
        <time>2013-04-21T09:33:40Z</time>
      </trkpt>
      <trkpt lat="48.42334" lon="2.70358">
        <ele>142</ele>
        <time>2013-04-21T09:33:41Z</time>
      </trkpt>
      <trkpt lat="48.42334" lon="2.70358">
        <ele>142</ele>
        <time>2013-04-21T09:33:42Z</time>
      </trkpt>
      <trkpt lat="48.42334" lon="2.70358">
        <ele>142</ele>
        <time>2013-04-21T09:33:43Z</time>
      </trkpt>
      <trkpt lat="48.42334" lon="2.70358">
        <ele>142</ele>
        <time>2013-04-21T09:33:44Z</time>
      </trkpt>
      <trkpt lat="48.42334" lon="2.70358">
        <ele>142</ele>
        <time>2013-04-21T09:33:46Z</time>
      </trkpt>
      <trkpt lat="48.42334" lon="2.70358">
        <ele>142</ele>
        <time>2013-04-21T09:33:48Z</time>
      </trkpt>
      <trkpt lat="48.42334" lon="2.70358">
        <ele>142</ele>
        <time>2013-04-21T09:33:50Z</time>
      </trkpt>
      <trkpt lat="48.42334" lon="2.70358">
        <ele>142</ele>
        <time>2013-04-21T09:33:51Z</time>
      </trkpt>
      <trkpt lat="48.42334" lon="2.70359">
        <ele>142</ele>
        <time>2013-04-21T09:33:54Z</time>
      </trkpt>
      <trkpt lat="48.42334" lon="2.70359">
        <ele>142</ele>
        <time>2013-04-21T09:34:05Z</time>
      </trkpt>
      <trkpt lat="48.42334" lon="2.70358">
        <ele>142</ele>
        <time>2013-04-21T09:34:06Z</time>
      </trkpt>
      <trkpt lat="48.42334" lon="2.70357">
        <ele>142</ele>
        <time>2013-04-21T09:34:07Z</time>
      </trkpt>
      <trkpt lat="48.42333" lon="2.70355">
        <ele>142</ele>
        <time>2013-04-21T09:34:08Z</time>
      </trkpt>
      <trkpt lat="48.42326" lon="2.70344">
        <ele>141</ele>
        <time>2013-04-21T09:34:12Z</time>
      </trkpt>
      <trkpt lat="48.42323" lon="2.70338">
        <ele>141</ele>
        <time>2013-04-21T09:34:14Z</time>
      </trkpt>
      <trkpt lat="48.42323" lon="2.70335">
        <ele>141</ele>
        <time>2013-04-21T09:34:15Z</time>
      </trkpt>
      <trkpt lat="48.42323" lon="2.70331">
        <ele>141</ele>
        <time>2013-04-21T09:34:17Z</time>
      </trkpt>
      <trkpt lat="48.42323" lon="2.70329">
        <ele>141</ele>
        <time>2013-04-21T09:34:18Z</time>
      </trkpt>
      <trkpt lat="48.42324" lon="2.70325">
        <ele>141</ele>
        <time>2013-04-21T09:34:20Z</time>
      </trkpt>
      <trkpt lat="48.42324" lon="2.70322">
        <ele>141</ele>
        <time>2013-04-21T09:34:21Z</time>
      </trkpt>
      <trkpt lat="48.42324" lon="2.7032">
        <ele>141</ele>
        <time>2013-04-21T09:34:22Z</time>
      </trkpt>
      <trkpt lat="48.42324" lon="2.70318">
        <ele>141</ele>
        <time>2013-04-21T09:34:23Z</time>
      </trkpt>
      <trkpt lat="48.42322" lon="2.70316">
        <ele>141</ele>
        <time>2013-04-21T09:34:24Z</time>
      </trkpt>
      <trkpt lat="48.42321" lon="2.70314">
        <ele>141</ele>
        <time>2013-04-21T09:34:25Z</time>
      </trkpt>
      <trkpt lat="48.4232" lon="2.70314">
        <ele>141</ele>
        <time>2013-04-21T09:34:26Z</time>
      </trkpt>
      <trkpt lat="48.42318" lon="2.70313">
        <ele>141</ele>
        <time>2013-04-21T09:34:27Z</time>
      </trkpt>
      <trkpt lat="48.42317" lon="2.70311">
        <ele>141</ele>
        <time>2013-04-21T09:34:28Z</time>
      </trkpt>
      <trkpt lat="48.42317" lon="2.70309">
        <ele>141</ele>
        <time>2013-04-21T09:34:29Z</time>
      </trkpt>
      <trkpt lat="48.42316" lon="2.70307">
        <ele>141</ele>
        <time>2013-04-21T09:34:30Z</time>
      </trkpt>
      <trkpt lat="48.42317" lon="2.70305">
        <ele>141</ele>
        <time>2013-04-21T09:34:31Z</time>
      </trkpt>
      <trkpt lat="48.42316" lon="2.70305">
        <ele>141</ele>
        <time>2013-04-21T09:34:32Z</time>
      </trkpt>
      <trkpt lat="48.42316" lon="2.70305">
        <ele>141</ele>
        <time>2013-04-21T09:34:33Z</time>
      </trkpt>
      <trkpt lat="48.42316" lon="2.70304">
        <ele>141</ele>
        <time>2013-04-21T09:34:34Z</time>
      </trkpt>
      <trkpt lat="48.42316" lon="2.70304">
        <ele>141</ele>
        <time>2013-04-21T09:34:35Z</time>
      </trkpt>
      <trkpt lat="48.42316" lon="2.70304">
        <ele>141</ele>
        <time>2013-04-21T09:34:36Z</time>
      </trkpt>
      <trkpt lat="48.42316" lon="2.70303">
        <ele>141</ele>
        <time>2013-04-21T09:34:37Z</time>
      </trkpt>
      <trkpt lat="48.42316" lon="2.70303">
        <ele>141</ele>
        <time>2013-04-21T09:34:38Z</time>
      </trkpt>
      <trkpt lat="48.42316" lon="2.70302">
        <ele>141</ele>
        <time>2013-04-21T09:34:39Z</time>
      </trkpt>
      <trkpt lat="48.42316" lon="2.70301">
        <ele>141</ele>
        <time>2013-04-21T09:34:40Z</time>
      </trkpt>
      <trkpt lat="48.42316" lon="2.70301">
        <ele>141</ele>
        <time>2013-04-21T09:34:41Z</time>
      </trkpt>
      <trkpt lat="48.42315" lon="2.703">
        <ele>141</ele>
        <time>2013-04-21T09:34:42Z</time>
      </trkpt>
      <trkpt lat="48.42315" lon="2.70297">
        <ele>141</ele>
        <time>2013-04-21T09:34:43Z</time>
      </trkpt>
      <trkpt lat="48.42315" lon="2.70293">
        <ele>141</ele>
        <time>2013-04-21T09:34:45Z</time>
      </trkpt>
      <trkpt lat="48.42316" lon="2.7029">
        <ele>141</ele>
        <time>2013-04-21T09:34:46Z</time>
      </trkpt>
      <trkpt lat="48.42318" lon="2.7028">
        <ele>141</ele>
        <time>2013-04-21T09:34:50Z</time>
      </trkpt>
      <trkpt lat="48.42318" lon="2.70278">
        <ele>141</ele>
        <time>2013-04-21T09:34:51Z</time>
      </trkpt>
      <trkpt lat="48.42319" lon="2.70277">
        <ele>141</ele>
        <time>2013-04-21T09:34:52Z</time>
      </trkpt>
      <trkpt lat="48.42322" lon="2.70275">
        <ele>141</ele>
        <time>2013-04-21T09:34:54Z</time>
      </trkpt>
      <trkpt lat="48.42321" lon="2.70272">
        <ele>141</ele>
        <time>2013-04-21T09:34:56Z</time>
      </trkpt>
      <trkpt lat="48.42321" lon="2.70268">
        <ele>141</ele>
        <time>2013-04-21T09:34:58Z</time>
      </trkpt>
      <trkpt lat="48.4232" lon="2.70259">
        <ele>141</ele>
        <time>2013-04-21T09:35:01Z</time>
      </trkpt>
      <trkpt lat="48.4232" lon="2.70255">
        <ele>141</ele>
        <time>2013-04-21T09:35:02Z</time>
      </trkpt>
      <trkpt lat="48.42321" lon="2.70249">
        <ele>140</ele>
        <time>2013-04-21T09:35:04Z</time>
      </trkpt>
      <trkpt lat="48.42322" lon="2.70246">
        <ele>140</ele>
        <time>2013-04-21T09:35:05Z</time>
      </trkpt>
      <trkpt lat="48.42323" lon="2.70243">
        <ele>140</ele>
        <time>2013-04-21T09:35:06Z</time>
      </trkpt>
      <trkpt lat="48.42325" lon="2.70241">
        <ele>140</ele>
        <time>2013-04-21T09:35:08Z</time>
      </trkpt>
      <trkpt lat="48.42328" lon="2.70235">
        <ele>140</ele>
        <time>2013-04-21T09:35:12Z</time>
      </trkpt>
      <trkpt lat="48.42329" lon="2.70232">
        <ele>140</ele>
        <time>2013-04-21T09:35:14Z</time>
      </trkpt>
      <trkpt lat="48.4233" lon="2.70231">
        <ele>140</ele>
        <time>2013-04-21T09:35:15Z</time>
      </trkpt>
      <trkpt lat="48.4233" lon="2.70229">
        <ele>140</ele>
        <time>2013-04-21T09:35:16Z</time>
      </trkpt>
      <trkpt lat="48.4233" lon="2.70229">
        <ele>140</ele>
        <time>2013-04-21T09:35:17Z</time>
      </trkpt>
      <trkpt lat="48.42329" lon="2.70228">
        <ele>140</ele>
        <time>2013-04-21T09:35:18Z</time>
      </trkpt>
      <trkpt lat="48.42329" lon="2.70228">
        <ele>140</ele>
        <time>2013-04-21T09:35:19Z</time>
      </trkpt>
      <trkpt lat="48.42329" lon="2.70228">
        <ele>140</ele>
        <time>2013-04-21T09:35:20Z</time>
      </trkpt>
      <trkpt lat="48.42329" lon="2.70228">
        <ele>140</ele>
        <time>2013-04-21T09:35:21Z</time>
      </trkpt>
      <trkpt lat="48.42329" lon="2.70227">
        <ele>140</ele>
        <time>2013-04-21T09:35:22Z</time>
      </trkpt>
      <trkpt lat="48.42329" lon="2.70227">
        <ele>140</ele>
        <time>2013-04-21T09:35:23Z</time>
      </trkpt>
      <trkpt lat="48.42329" lon="2.70225">
        <ele>140</ele>
        <time>2013-04-21T09:35:24Z</time>
      </trkpt>
      <trkpt lat="48.42329" lon="2.70224">
        <ele>140</ele>
        <time>2013-04-21T09:35:25Z</time>
      </trkpt>
      <trkpt lat="48.42329" lon="2.70223">
        <ele>140</ele>
        <time>2013-04-21T09:35:26Z</time>
      </trkpt>
      <trkpt lat="48.42328" lon="2.7022">
        <ele>139</ele>
        <time>2013-04-21T09:35:28Z</time>
      </trkpt>
      <trkpt lat="48.42327" lon="2.70218">
        <ele>139</ele>
        <time>2013-04-21T09:35:29Z</time>
      </trkpt>
      <trkpt lat="48.42327" lon="2.70216">
        <ele>139</ele>
        <time>2013-04-21T09:35:30Z</time>
      </trkpt>
      <trkpt lat="48.42326" lon="2.70213">
        <ele>139</ele>
        <time>2013-04-21T09:35:32Z</time>
      </trkpt>
      <trkpt lat="48.42325" lon="2.70211">
        <ele>139</ele>
        <time>2013-04-21T09:35:33Z</time>
      </trkpt>
      <trkpt lat="48.42318" lon="2.70204">
        <ele>139</ele>
        <time>2013-04-21T09:35:37Z</time>
      </trkpt>
      <trkpt lat="48.42316" lon="2.70201">
        <ele>139</ele>
        <time>2013-04-21T09:35:38Z</time>
      </trkpt>
      <trkpt lat="48.42314" lon="2.70196">
        <ele>139</ele>
        <time>2013-04-21T09:35:39Z</time>
      </trkpt>
      <trkpt lat="48.42314" lon="2.70192">
        <ele>139</ele>
        <time>2013-04-21T09:35:40Z</time>
      </trkpt>
      <trkpt lat="48.42315" lon="2.70189">
        <ele>139</ele>
        <time>2013-04-21T09:35:41Z</time>
      </trkpt>
      <trkpt lat="48.42316" lon="2.70186">
        <ele>139</ele>
        <time>2013-04-21T09:35:42Z</time>
      </trkpt>
      <trkpt lat="48.42319" lon="2.70182">
        <ele>139</ele>
        <time>2013-04-21T09:35:44Z</time>
      </trkpt>
      <trkpt lat="48.42319" lon="2.7018">
        <ele>139</ele>
        <time>2013-04-21T09:35:45Z</time>
      </trkpt>
      <trkpt lat="48.4232" lon="2.70177">
        <ele>139</ele>
        <time>2013-04-21T09:35:46Z</time>
      </trkpt>
      <trkpt lat="48.42319" lon="2.70175">
        <ele>139</ele>
        <time>2013-04-21T09:35:47Z</time>
      </trkpt>
      <trkpt lat="48.42313" lon="2.70163">
        <ele>137</ele>
        <time>2013-04-21T09:35:50Z</time>
      </trkpt>
      <trkpt lat="48.42313" lon="2.7016">
        <ele>137</ele>
        <time>2013-04-21T09:35:51Z</time>
      </trkpt>
      <trkpt lat="48.42312" lon="2.70158">
        <ele>136</ele>
        <time>2013-04-21T09:35:52Z</time>
      </trkpt>
      <trkpt lat="48.42312" lon="2.70156">
        <ele>136</ele>
        <time>2013-04-21T09:35:53Z</time>
      </trkpt>
      <trkpt lat="48.42313" lon="2.70152">
        <ele>136</ele>
        <time>2013-04-21T09:35:54Z</time>
      </trkpt>
      <trkpt lat="48.42313" lon="2.70146">
        <ele>136</ele>
        <time>2013-04-21T09:35:56Z</time>
      </trkpt>
      <trkpt lat="48.42313" lon="2.70143">
        <ele>136</ele>
        <time>2013-04-21T09:35:57Z</time>
      </trkpt>
      <trkpt lat="48.42315" lon="2.70141">
        <ele>136</ele>
        <time>2013-04-21T09:35:58Z</time>
      </trkpt>
      <trkpt lat="48.42316" lon="2.70141">
        <ele>136</ele>
        <time>2013-04-21T09:35:59Z</time>
      </trkpt>
      <trkpt lat="48.42317" lon="2.70141">
        <ele>136</ele>
        <time>2013-04-21T09:36:00Z</time>
      </trkpt>
      <trkpt lat="48.4232" lon="2.70137">
        <ele>136</ele>
        <time>2013-04-21T09:36:02Z</time>
      </trkpt>
      <trkpt lat="48.42319" lon="2.70136">
        <ele>136</ele>
        <time>2013-04-21T09:36:03Z</time>
      </trkpt>
      <trkpt lat="48.42319" lon="2.70136">
        <ele>136</ele>
        <time>2013-04-21T09:36:04Z</time>
      </trkpt>
      <trkpt lat="48.42319" lon="2.70135">
        <ele>136</ele>
        <time>2013-04-21T09:36:05Z</time>
      </trkpt>
      <trkpt lat="48.42319" lon="2.70135">
        <ele>136</ele>
        <time>2013-04-21T09:36:06Z</time>
      </trkpt>
      <trkpt lat="48.42319" lon="2.70134">
        <ele>136</ele>
        <time>2013-04-21T09:36:07Z</time>
      </trkpt>
      <trkpt lat="48.42319" lon="2.70133">
        <ele>136</ele>
        <time>2013-04-21T09:36:08Z</time>
      </trkpt>
      <trkpt lat="48.42319" lon="2.70133">
        <ele>136</ele>
        <time>2013-04-21T09:36:09Z</time>
      </trkpt>
      <trkpt lat="48.42319" lon="2.70132">
        <ele>136</ele>
        <time>2013-04-21T09:36:10Z</time>
      </trkpt>
      <trkpt lat="48.42318" lon="2.70132">
        <ele>136</ele>
        <time>2013-04-21T09:36:11Z</time>
      </trkpt>
      <trkpt lat="48.42318" lon="2.70132">
        <ele>136</ele>
        <time>2013-04-21T09:36:12Z</time>
      </trkpt>
      <trkpt lat="48.42318" lon="2.70131">
        <ele>136</ele>
        <time>2013-04-21T09:36:13Z</time>
      </trkpt>
      <trkpt lat="48.42317" lon="2.7013">
        <ele>136</ele>
        <time>2013-04-21T09:36:14Z</time>
      </trkpt>
      <trkpt lat="48.42317" lon="2.7013">
        <ele>136</ele>
        <time>2013-04-21T09:36:15Z</time>
      </trkpt>
      <trkpt lat="48.42317" lon="2.7013">
        <ele>136</ele>
        <time>2013-04-21T09:36:16Z</time>
      </trkpt>
      <trkpt lat="48.42316" lon="2.7013">
        <ele>136</ele>
        <time>2013-04-21T09:36:17Z</time>
      </trkpt>
      <trkpt lat="48.42316" lon="2.7013">
        <ele>136</ele>
        <time>2013-04-21T09:36:18Z</time>
      </trkpt>
      <trkpt lat="48.42316" lon="2.7013">
        <ele>136</ele>
        <time>2013-04-21T09:36:19Z</time>
      </trkpt>
      <trkpt lat="48.42316" lon="2.70128">
        <ele>136</ele>
        <time>2013-04-21T09:36:21Z</time>
      </trkpt>
      <trkpt lat="48.42316" lon="2.70128">
        <ele>135</ele>
        <time>2013-04-21T09:36:22Z</time>
      </trkpt>
      <trkpt lat="48.42316" lon="2.70127">
        <ele>135</ele>
        <time>2013-04-21T09:36:23Z</time>
      </trkpt>
      <trkpt lat="48.42316" lon="2.70127">
        <ele>135</ele>
        <time>2013-04-21T09:36:24Z</time>
      </trkpt>
      <trkpt lat="48.42316" lon="2.70127">
        <ele>135</ele>
        <time>2013-04-21T09:36:25Z</time>
      </trkpt>
      <trkpt lat="48.42315" lon="2.70126">
        <ele>135</ele>
        <time>2013-04-21T09:36:26Z</time>
      </trkpt>
      <trkpt lat="48.42315" lon="2.70126">
        <ele>135</ele>
        <time>2013-04-21T09:36:27Z</time>
      </trkpt>
      <trkpt lat="48.42315" lon="2.70126">
        <ele>135</ele>
        <time>2013-04-21T09:36:28Z</time>
      </trkpt>
      <trkpt lat="48.42315" lon="2.70126">
        <ele>135</ele>
        <time>2013-04-21T09:36:29Z</time>
      </trkpt>
      <trkpt lat="48.42315" lon="2.70125">
        <ele>135</ele>
        <time>2013-04-21T09:36:30Z</time>
      </trkpt>
      <trkpt lat="48.42315" lon="2.70125">
        <ele>135</ele>
        <time>2013-04-21T09:36:31Z</time>
      </trkpt>
      <trkpt lat="48.42315" lon="2.70125">
        <ele>135</ele>
        <time>2013-04-21T09:36:32Z</time>
      </trkpt>
      <trkpt lat="48.42315" lon="2.70125">
        <ele>135</ele>
        <time>2013-04-21T09:36:33Z</time>
      </trkpt>
      <trkpt lat="48.42315" lon="2.70125">
        <ele>135</ele>
        <time>2013-04-21T09:36:34Z</time>
      </trkpt>
      <trkpt lat="48.42315" lon="2.70124">
        <ele>135</ele>
        <time>2013-04-21T09:36:35Z</time>
      </trkpt>
      <trkpt lat="48.42315" lon="2.70124">
        <ele>135</ele>
        <time>2013-04-21T09:36:36Z</time>
      </trkpt>
      <trkpt lat="48.42315" lon="2.70124">
        <ele>135</ele>
        <time>2013-04-21T09:36:38Z</time>
      </trkpt>
      <trkpt lat="48.42315" lon="2.70124">
        <ele>135</ele>
        <time>2013-04-21T09:36:39Z</time>
      </trkpt>
      <trkpt lat="48.42315" lon="2.70124">
        <ele>135</ele>
        <time>2013-04-21T09:36:40Z</time>
      </trkpt>
      <trkpt lat="48.42314" lon="2.70124">
        <ele>135</ele>
        <time>2013-04-21T09:36:42Z</time>
      </trkpt>
      <trkpt lat="48.42314" lon="2.70124">
        <ele>135</ele>
        <time>2013-04-21T09:36:44Z</time>
      </trkpt>
      <trkpt lat="48.42314" lon="2.70124">
        <ele>135</ele>
        <time>2013-04-21T09:36:45Z</time>
      </trkpt>
      <trkpt lat="48.42314" lon="2.70123">
        <ele>135</ele>
        <time>2013-04-21T09:36:46Z</time>
      </trkpt>
      <trkpt lat="48.42314" lon="2.70123">
        <ele>135</ele>
        <time>2013-04-21T09:36:47Z</time>
      </trkpt>
      <trkpt lat="48.42314" lon="2.70123">
        <ele>135</ele>
        <time>2013-04-21T09:36:48Z</time>
      </trkpt>
      <trkpt lat="48.42314" lon="2.70123">
        <ele>135</ele>
        <time>2013-04-21T09:36:49Z</time>
      </trkpt>
      <trkpt lat="48.42314" lon="2.70123">
        <ele>135</ele>
        <time>2013-04-21T09:36:50Z</time>
      </trkpt>
      <trkpt lat="48.42314" lon="2.70123">
        <ele>135</ele>
        <time>2013-04-21T09:36:52Z</time>
      </trkpt>
      <trkpt lat="48.42313" lon="2.70122">
        <ele>135</ele>
        <time>2013-04-21T09:36:53Z</time>
      </trkpt>
      <trkpt lat="48.42313" lon="2.70122">
        <ele>135</ele>
        <time>2013-04-21T09:36:55Z</time>
      </trkpt>
      <trkpt lat="48.42313" lon="2.70122">
        <ele>135</ele>
        <time>2013-04-21T09:36:56Z</time>
      </trkpt>
      <trkpt lat="48.42313" lon="2.70122">
        <ele>135</ele>
        <time>2013-04-21T09:36:57Z</time>
      </trkpt>
      <trkpt lat="48.42313" lon="2.70122">
        <ele>135</ele>
        <time>2013-04-21T09:36:58Z</time>
      </trkpt>
      <trkpt lat="48.42313" lon="2.70122">
        <ele>135</ele>
        <time>2013-04-21T09:36:59Z</time>
      </trkpt>
      <trkpt lat="48.42313" lon="2.70122">
        <ele>135</ele>
        <time>2013-04-21T09:37:00Z</time>
      </trkpt>
      <trkpt lat="48.42313" lon="2.70121">
        <ele>135</ele>
        <time>2013-04-21T09:37:01Z</time>
      </trkpt>
      <trkpt lat="48.42312" lon="2.70121">
        <ele>135</ele>
        <time>2013-04-21T09:37:02Z</time>
      </trkpt>
      <trkpt lat="48.42312" lon="2.70121">
        <ele>135</ele>
        <time>2013-04-21T09:37:03Z</time>
      </trkpt>
      <trkpt lat="48.42312" lon="2.70121">
        <ele>135</ele>
        <time>2013-04-21T09:37:05Z</time>
      </trkpt>
      <trkpt lat="48.42312" lon="2.7012">
        <ele>135</ele>
        <time>2013-04-21T09:37:06Z</time>
      </trkpt>
      <trkpt lat="48.42312" lon="2.70121">
        <ele>135</ele>
        <time>2013-04-21T09:37:07Z</time>
      </trkpt>
      <trkpt lat="48.42312" lon="2.70121">
        <ele>135</ele>
        <time>2013-04-21T09:37:08Z</time>
      </trkpt>
      <trkpt lat="48.42312" lon="2.70122">
        <ele>135</ele>
        <time>2013-04-21T09:37:09Z</time>
      </trkpt>
      <trkpt lat="48.42311" lon="2.70123">
        <ele>135</ele>
        <time>2013-04-21T09:37:10Z</time>
      </trkpt>
      <trkpt lat="48.4231" lon="2.70124">
        <ele>135</ele>
        <time>2013-04-21T09:37:12Z</time>
      </trkpt>
      <trkpt lat="48.4231" lon="2.70125">
        <ele>135</ele>
        <time>2013-04-21T09:37:13Z</time>
      </trkpt>
      <trkpt lat="48.42308" lon="2.70126">
        <ele>135</ele>
        <time>2013-04-21T09:37:15Z</time>
      </trkpt>
      <trkpt lat="48.42307" lon="2.70127">
        <ele>135</ele>
        <time>2013-04-21T09:37:16Z</time>
      </trkpt>
      <trkpt lat="48.42306" lon="2.70128">
        <ele>135</ele>
        <time>2013-04-21T09:37:17Z</time>
      </trkpt>
      <trkpt lat="48.42306" lon="2.70129">
        <ele>135</ele>
        <time>2013-04-21T09:37:18Z</time>
      </trkpt>
      <trkpt lat="48.42307" lon="2.7013">
        <ele>135</ele>
        <time>2013-04-21T09:37:19Z</time>
      </trkpt>
      <trkpt lat="48.42307" lon="2.70131">
        <ele>135</ele>
        <time>2013-04-21T09:37:20Z</time>
      </trkpt>
      <trkpt lat="48.42307" lon="2.70132">
        <ele>135</ele>
        <time>2013-04-21T09:37:21Z</time>
      </trkpt>
      <trkpt lat="48.42308" lon="2.70133">
        <ele>135</ele>
        <time>2013-04-21T09:37:22Z</time>
      </trkpt>
      <trkpt lat="48.42309" lon="2.70134">
        <ele>135</ele>
        <time>2013-04-21T09:37:23Z</time>
      </trkpt>
      <trkpt lat="48.4231" lon="2.70134">
        <ele>135</ele>
        <time>2013-04-21T09:37:25Z</time>
      </trkpt>
      <trkpt lat="48.42311" lon="2.70135">
        <ele>135</ele>
        <time>2013-04-21T09:37:26Z</time>
      </trkpt>
      <trkpt lat="48.42312" lon="2.70135">
        <ele>135</ele>
        <time>2013-04-21T09:37:27Z</time>
      </trkpt>
      <trkpt lat="48.42312" lon="2.70136">
        <ele>136</ele>
        <time>2013-04-21T09:37:28Z</time>
      </trkpt>
      <trkpt lat="48.42312" lon="2.70137">
        <ele>136</ele>
        <time>2013-04-21T09:37:29Z</time>
      </trkpt>
      <trkpt lat="48.42312" lon="2.70138">
        <ele>136</ele>
        <time>2013-04-21T09:37:30Z</time>
      </trkpt>
      <trkpt lat="48.42312" lon="2.70139">
        <ele>136</ele>
        <time>2013-04-21T09:37:31Z</time>
      </trkpt>
      <trkpt lat="48.42313" lon="2.7014">
        <ele>136</ele>
        <time>2013-04-21T09:37:32Z</time>
      </trkpt>
      <trkpt lat="48.42313" lon="2.70141">
        <ele>136</ele>
        <time>2013-04-21T09:37:33Z</time>
      </trkpt>
      <trkpt lat="48.42314" lon="2.70141">
        <ele>136</ele>
        <time>2013-04-21T09:37:34Z</time>
      </trkpt>
      <trkpt lat="48.42314" lon="2.70141">
        <ele>136</ele>
        <time>2013-04-21T09:37:35Z</time>
      </trkpt>
      <trkpt lat="48.42315" lon="2.70141">
        <ele>136</ele>
        <time>2013-04-21T09:37:36Z</time>
      </trkpt>
      <trkpt lat="48.42315" lon="2.70141">
        <ele>136</ele>
        <time>2013-04-21T09:37:37Z</time>
      </trkpt>
      <trkpt lat="48.42315" lon="2.70141">
        <ele>136</ele>
        <time>2013-04-21T09:37:38Z</time>
      </trkpt>
      <trkpt lat="48.42316" lon="2.70141">
        <ele>136</ele>
        <time>2013-04-21T09:37:39Z</time>
      </trkpt>
      <trkpt lat="48.42317" lon="2.70141">
        <ele>136</ele>
        <time>2013-04-21T09:37:42Z</time>
      </trkpt>
      <trkpt lat="48.42318" lon="2.70141">
        <ele>136</ele>
        <time>2013-04-21T09:37:43Z</time>
      </trkpt>
      <trkpt lat="48.42318" lon="2.70141">
        <ele>136</ele>
        <time>2013-04-21T09:37:44Z</time>
      </trkpt>
      <trkpt lat="48.42318" lon="2.70141">
        <ele>136</ele>
        <time>2013-04-21T09:37:45Z</time>
      </trkpt>
      <trkpt lat="48.42318" lon="2.70142">
        <ele>136</ele>
        <time>2013-04-21T09:37:46Z</time>
      </trkpt>
      <trkpt lat="48.42318" lon="2.70142">
        <ele>136</ele>
        <time>2013-04-21T09:37:47Z</time>
      </trkpt>
      <trkpt lat="48.42318" lon="2.70142">
        <ele>136</ele>
        <time>2013-04-21T09:37:48Z</time>
      </trkpt>
      <trkpt lat="48.42319" lon="2.70142">
        <ele>136</ele>
        <time>2013-04-21T09:37:49Z</time>
      </trkpt>
      <trkpt lat="48.42319" lon="2.70143">
        <ele>136</ele>
        <time>2013-04-21T09:37:50Z</time>
      </trkpt>
      <trkpt lat="48.42319" lon="2.70143">
        <ele>136</ele>
        <time>2013-04-21T09:37:51Z</time>
      </trkpt>
      <trkpt lat="48.4232" lon="2.70143">
        <ele>136</ele>
        <time>2013-04-21T09:37:52Z</time>
      </trkpt>
      <trkpt lat="48.4232" lon="2.70144">
        <ele>136</ele>
        <time>2013-04-21T09:37:53Z</time>
      </trkpt>
      <trkpt lat="48.42321" lon="2.70144">
        <ele>136</ele>
        <time>2013-04-21T09:37:54Z</time>
      </trkpt>
      <trkpt lat="48.42327" lon="2.70146">
        <ele>137</ele>
        <time>2013-04-21T09:37:57Z</time>
      </trkpt>
      <trkpt lat="48.42329" lon="2.70145">
        <ele>137</ele>
        <time>2013-04-21T09:37:58Z</time>
      </trkpt>
      <trkpt lat="48.42334" lon="2.7014">
        <ele>142</ele>
        <time>2013-04-21T09:38:00Z</time>
      </trkpt>
      <trkpt lat="48.42335" lon="2.70137">
        <ele>142</ele>
        <time>2013-04-21T09:38:01Z</time>
      </trkpt>
      <trkpt lat="48.42336" lon="2.70131">
        <ele>142</ele>
        <time>2013-04-21T09:38:03Z</time>
      </trkpt>
      <trkpt lat="48.42336" lon="2.70128">
        <ele>142</ele>
        <time>2013-04-21T09:38:04Z</time>
      </trkpt>
      <trkpt lat="48.42337" lon="2.70117">
        <ele>142</ele>
        <time>2013-04-21T09:38:07Z</time>
      </trkpt>
      <trkpt lat="48.42337" lon="2.70114">
        <ele>142</ele>
        <time>2013-04-21T09:38:08Z</time>
      </trkpt>
      <trkpt lat="48.42339" lon="2.70109">
        <ele>141</ele>
        <time>2013-04-21T09:38:10Z</time>
      </trkpt>
      <trkpt lat="48.42339" lon="2.70106">
        <ele>141</ele>
        <time>2013-04-21T09:38:11Z</time>
      </trkpt>
      <trkpt lat="48.4234" lon="2.70103">
        <ele>141</ele>
        <time>2013-04-21T09:38:12Z</time>
      </trkpt>
      <trkpt lat="48.42342" lon="2.70099">
        <ele>141</ele>
        <time>2013-04-21T09:38:13Z</time>
      </trkpt>
      <trkpt lat="48.42346" lon="2.70086">
        <ele>141</ele>
        <time>2013-04-21T09:38:16Z</time>
      </trkpt>
      <trkpt lat="48.42347" lon="2.7008">
        <ele>141</ele>
        <time>2013-04-21T09:38:17Z</time>
      </trkpt>
      <trkpt lat="48.42347" lon="2.70074">
        <ele>141</ele>
        <time>2013-04-21T09:38:18Z</time>
      </trkpt>
      <trkpt lat="48.42346" lon="2.70069">
        <ele>141</ele>
        <time>2013-04-21T09:38:19Z</time>
      </trkpt>
      <trkpt lat="48.42344" lon="2.70066">
        <ele>141</ele>
        <time>2013-04-21T09:38:20Z</time>
      </trkpt>
      <trkpt lat="48.42342" lon="2.70063">
        <ele>141</ele>
        <time>2013-04-21T09:38:21Z</time>
      </trkpt>
      <trkpt lat="48.42335" lon="2.70057">
        <ele>141</ele>
        <time>2013-04-21T09:38:24Z</time>
      </trkpt>
      <trkpt lat="48.42332" lon="2.70058">
        <ele>135</ele>
        <time>2013-04-21T09:38:26Z</time>
      </trkpt>
      <trkpt lat="48.4233" lon="2.70058">
        <ele>135</ele>
        <time>2013-04-21T09:38:27Z</time>
      </trkpt>
      <trkpt lat="48.42328" lon="2.70056">
        <ele>135</ele>
        <time>2013-04-21T09:38:28Z</time>
      </trkpt>
      <trkpt lat="48.42327" lon="2.70056">
        <ele>135</ele>
        <time>2013-04-21T09:38:29Z</time>
      </trkpt>
      <trkpt lat="48.42325" lon="2.70056">
        <ele>135</ele>
        <time>2013-04-21T09:38:30Z</time>
      </trkpt>
      <trkpt lat="48.42321" lon="2.70058">
        <ele>135</ele>
        <time>2013-04-21T09:38:32Z</time>
      </trkpt>
      <trkpt lat="48.42316" lon="2.70056">
        <ele>134</ele>
        <time>2013-04-21T09:38:34Z</time>
      </trkpt>
      <trkpt lat="48.42314" lon="2.70058">
        <ele>134</ele>
        <time>2013-04-21T09:38:35Z</time>
      </trkpt>
      <trkpt lat="48.42312" lon="2.7006">
        <ele>134</ele>
        <time>2013-04-21T09:38:36Z</time>
      </trkpt>
      <trkpt lat="48.42307" lon="2.70064">
        <ele>134</ele>
        <time>2013-04-21T09:38:38Z</time>
      </trkpt>
      <trkpt lat="48.42303" lon="2.70066">
        <ele>133</ele>
        <time>2013-04-21T09:38:40Z</time>
      </trkpt>
      <trkpt lat="48.42301" lon="2.70066">
        <ele>133</ele>
        <time>2013-04-21T09:38:42Z</time>
      </trkpt>
      <trkpt lat="48.423" lon="2.70065">
        <ele>133</ele>
        <time>2013-04-21T09:38:43Z</time>
      </trkpt>
      <trkpt lat="48.423" lon="2.70065">
        <ele>133</ele>
        <time>2013-04-21T09:38:44Z</time>
      </trkpt>
      <trkpt lat="48.42299" lon="2.70064">
        <ele>133</ele>
        <time>2013-04-21T09:38:45Z</time>
      </trkpt>
      <trkpt lat="48.42298" lon="2.70064">
        <ele>133</ele>
        <time>2013-04-21T09:38:46Z</time>
      </trkpt>
      <trkpt lat="48.42297" lon="2.70063">
        <ele>133</ele>
        <time>2013-04-21T09:38:47Z</time>
      </trkpt>
      <trkpt lat="48.42296" lon="2.70064">
        <ele>133</ele>
        <time>2013-04-21T09:38:48Z</time>
      </trkpt>
      <trkpt lat="48.42295" lon="2.70064">
        <ele>133</ele>
        <time>2013-04-21T09:38:49Z</time>
      </trkpt>
      <trkpt lat="48.42295" lon="2.70063">
        <ele>132</ele>
        <time>2013-04-21T09:38:50Z</time>
      </trkpt>
      <trkpt lat="48.42294" lon="2.70061">
        <ele>132</ele>
        <time>2013-04-21T09:38:52Z</time>
      </trkpt>
      <trkpt lat="48.42293" lon="2.7006">
        <ele>132</ele>
        <time>2013-04-21T09:38:53Z</time>
      </trkpt>
      <trkpt lat="48.42292" lon="2.70057">
        <ele>132</ele>
        <time>2013-04-21T09:38:54Z</time>
      </trkpt>
      <trkpt lat="48.42292" lon="2.70055">
        <ele>132</ele>
        <time>2013-04-21T09:38:55Z</time>
      </trkpt>
      <trkpt lat="48.42292" lon="2.70053">
        <ele>132</ele>
        <time>2013-04-21T09:38:56Z</time>
      </trkpt>
      <trkpt lat="48.42298" lon="2.70037">
        <ele>133</ele>
        <time>2013-04-21T09:39:01Z</time>
      </trkpt>
      <trkpt lat="48.42299" lon="2.70031">
        <ele>133</ele>
        <time>2013-04-21T09:39:04Z</time>
      </trkpt>
      <trkpt lat="48.42299" lon="2.7003">
        <ele>133</ele>
        <time>2013-04-21T09:39:05Z</time>
      </trkpt>
      <trkpt lat="48.423" lon="2.7003">
        <ele>133</ele>
        <time>2013-04-21T09:39:06Z</time>
      </trkpt>
      <trkpt lat="48.42301" lon="2.70029">
        <ele>133</ele>
        <time>2013-04-21T09:39:07Z</time>
      </trkpt>
      <trkpt lat="48.42301" lon="2.70029">
        <ele>133</ele>
        <time>2013-04-21T09:39:08Z</time>
      </trkpt>
      <trkpt lat="48.42302" lon="2.70027">
        <ele>133</ele>
        <time>2013-04-21T09:39:09Z</time>
      </trkpt>
      <trkpt lat="48.42302" lon="2.70026">
        <ele>133</ele>
        <time>2013-04-21T09:39:10Z</time>
      </trkpt>
      <trkpt lat="48.42302" lon="2.70026">
        <ele>133</ele>
        <time>2013-04-21T09:39:11Z</time>
      </trkpt>
      <trkpt lat="48.42302" lon="2.70025">
        <ele>133</ele>
        <time>2013-04-21T09:39:12Z</time>
      </trkpt>
      <trkpt lat="48.42302" lon="2.70025">
        <ele>133</ele>
        <time>2013-04-21T09:39:13Z</time>
      </trkpt>
      <trkpt lat="48.42302" lon="2.70025">
        <ele>133</ele>
        <time>2013-04-21T09:39:14Z</time>
      </trkpt>
      <trkpt lat="48.42302" lon="2.70024">
        <ele>133</ele>
        <time>2013-04-21T09:39:15Z</time>
      </trkpt>
      <trkpt lat="48.42302" lon="2.70024">
        <ele>133</ele>
        <time>2013-04-21T09:39:16Z</time>
      </trkpt>
      <trkpt lat="48.42303" lon="2.70022">
        <ele>133</ele>
        <time>2013-04-21T09:39:18Z</time>
      </trkpt>
      <trkpt lat="48.42303" lon="2.70021">
        <ele>134</ele>
        <time>2013-04-21T09:39:19Z</time>
      </trkpt>
      <trkpt lat="48.42303" lon="2.70021">
        <ele>134</ele>
        <time>2013-04-21T09:39:20Z</time>
      </trkpt>
      <trkpt lat="48.42303" lon="2.7002">
        <ele>134</ele>
        <time>2013-04-21T09:39:22Z</time>
      </trkpt>
      <trkpt lat="48.42304" lon="2.70019">
        <ele>134</ele>
        <time>2013-04-21T09:39:24Z</time>
      </trkpt>
      <trkpt lat="48.42304" lon="2.70018">
        <ele>134</ele>
        <time>2013-04-21T09:39:27Z</time>
      </trkpt>
      <trkpt lat="48.42305" lon="2.70017">
        <ele>134</ele>
        <time>2013-04-21T09:39:29Z</time>
      </trkpt>
      <trkpt lat="48.42305" lon="2.70016">
        <ele>134</ele>
        <time>2013-04-21T09:39:30Z</time>
      </trkpt>
      <trkpt lat="48.42305" lon="2.70016">
        <ele>134</ele>
        <time>2013-04-21T09:39:31Z</time>
      </trkpt>
      <trkpt lat="48.42305" lon="2.70015">
        <ele>134</ele>
        <time>2013-04-21T09:39:32Z</time>
      </trkpt>
      <trkpt lat="48.42305" lon="2.70015">
        <ele>134</ele>
        <time>2013-04-21T09:39:33Z</time>
      </trkpt>
      <trkpt lat="48.42306" lon="2.70015">
        <ele>134</ele>
        <time>2013-04-21T09:39:34Z</time>
      </trkpt>
      <trkpt lat="48.42306" lon="2.70014">
        <ele>134</ele>
        <time>2013-04-21T09:39:35Z</time>
      </trkpt>
      <trkpt lat="48.42307" lon="2.70014">
        <ele>134</ele>
        <time>2013-04-21T09:39:36Z</time>
      </trkpt>
      <trkpt lat="48.42308" lon="2.70014">
        <ele>134</ele>
        <time>2013-04-21T09:39:37Z</time>
      </trkpt>
      <trkpt lat="48.42308" lon="2.70014">
        <ele>134</ele>
        <time>2013-04-21T09:39:38Z</time>
      </trkpt>
      <trkpt lat="48.42309" lon="2.70013">
        <ele>134</ele>
        <time>2013-04-21T09:39:39Z</time>
      </trkpt>
      <trkpt lat="48.42309" lon="2.70013">
        <ele>135</ele>
        <time>2013-04-21T09:39:40Z</time>
      </trkpt>
      <trkpt lat="48.42311" lon="2.70008">
        <ele>135</ele>
        <time>2013-04-21T09:39:44Z</time>
      </trkpt>
      <trkpt lat="48.42312" lon="2.70008">
        <ele>135</ele>
        <time>2013-04-21T09:39:45Z</time>
      </trkpt>
      <trkpt lat="48.42312" lon="2.70007">
        <ele>135</ele>
        <time>2013-04-21T09:39:46Z</time>
      </trkpt>
      <trkpt lat="48.42312" lon="2.70007">
        <ele>135</ele>
        <time>2013-04-21T09:39:47Z</time>
      </trkpt>
      <trkpt lat="48.42312" lon="2.70007">
        <ele>135</ele>
        <time>2013-04-21T09:39:49Z</time>
      </trkpt>
      <trkpt lat="48.42312" lon="2.70007">
        <ele>135</ele>
        <time>2013-04-21T09:39:50Z</time>
      </trkpt>
      <trkpt lat="48.42312" lon="2.70006">
        <ele>135</ele>
        <time>2013-04-21T09:39:51Z</time>
      </trkpt>
      <trkpt lat="48.42312" lon="2.70006">
        <ele>135</ele>
        <time>2013-04-21T09:39:52Z</time>
      </trkpt>
      <trkpt lat="48.42312" lon="2.70004">
        <ele>135</ele>
        <time>2013-04-21T09:39:55Z</time>
      </trkpt>
      <trkpt lat="48.42312" lon="2.70004">
        <ele>135</ele>
        <time>2013-04-21T09:39:56Z</time>
      </trkpt>
      <trkpt lat="48.42312" lon="2.70003">
        <ele>135</ele>
        <time>2013-04-21T09:39:57Z</time>
      </trkpt>
      <trkpt lat="48.42312" lon="2.70001">
        <ele>135</ele>
        <time>2013-04-21T09:39:59Z</time>
      </trkpt>
      <trkpt lat="48.42313" lon="2.69999">
        <ele>136</ele>
        <time>2013-04-21T09:40:00Z</time>
      </trkpt>
      <trkpt lat="48.42316" lon="2.69997">
        <ele>136</ele>
        <time>2013-04-21T09:40:02Z</time>
      </trkpt>
      <trkpt lat="48.42317" lon="2.69996">
        <ele>137</ele>
        <time>2013-04-21T09:40:03Z</time>
      </trkpt>
      <trkpt lat="48.42318" lon="2.69996">
        <ele>137</ele>
        <time>2013-04-21T09:40:04Z</time>
      </trkpt>
      <trkpt lat="48.42319" lon="2.69995">
        <ele>137</ele>
        <time>2013-04-21T09:40:05Z</time>
      </trkpt>
      <trkpt lat="48.42322" lon="2.69993">
        <ele>137</ele>
        <time>2013-04-21T09:40:07Z</time>
      </trkpt>
      <trkpt lat="48.42324" lon="2.69993">
        <ele>138</ele>
        <time>2013-04-21T09:40:08Z</time>
      </trkpt>
      <trkpt lat="48.42326" lon="2.69993">
        <ele>138</ele>
        <time>2013-04-21T09:40:09Z</time>
      </trkpt>
      <trkpt lat="48.42328" lon="2.69992">
        <ele>138</ele>
        <time>2013-04-21T09:40:10Z</time>
      </trkpt>
      <trkpt lat="48.42329" lon="2.6999">
        <ele>138</ele>
        <time>2013-04-21T09:40:11Z</time>
      </trkpt>
      <trkpt lat="48.4233" lon="2.69988">
        <ele>137</ele>
        <time>2013-04-21T09:40:12Z</time>
      </trkpt>
      <trkpt lat="48.4233" lon="2.69982">
        <ele>137</ele>
        <time>2013-04-21T09:40:14Z</time>
      </trkpt>
      <trkpt lat="48.4233" lon="2.69981">
        <ele>137</ele>
        <time>2013-04-21T09:40:15Z</time>
      </trkpt>
      <trkpt lat="48.4233" lon="2.69979">
        <ele>137</ele>
        <time>2013-04-21T09:40:16Z</time>
      </trkpt>
      <trkpt lat="48.42331" lon="2.69976">
        <ele>137</ele>
        <time>2013-04-21T09:40:17Z</time>
      </trkpt>
      <trkpt lat="48.42331" lon="2.69974">
        <ele>136</ele>
        <time>2013-04-21T09:40:18Z</time>
      </trkpt>
      <trkpt lat="48.4233" lon="2.69971">
        <ele>136</ele>
        <time>2013-04-21T09:40:19Z</time>
      </trkpt>
      <trkpt lat="48.42324" lon="2.69966">
        <ele>136</ele>
        <time>2013-04-21T09:40:22Z</time>
      </trkpt>
      <trkpt lat="48.42321" lon="2.69965">
        <ele>136</ele>
        <time>2013-04-21T09:40:23Z</time>
      </trkpt>
      <trkpt lat="48.42315" lon="2.69964">
        <ele>135</ele>
        <time>2013-04-21T09:40:25Z</time>
      </trkpt>
      <trkpt lat="48.42314" lon="2.69962">
        <ele>135</ele>
        <time>2013-04-21T09:40:26Z</time>
      </trkpt>
      <trkpt lat="48.42313" lon="2.6996">
        <ele>135</ele>
        <time>2013-04-21T09:40:27Z</time>
      </trkpt>
      <trkpt lat="48.42311" lon="2.69957">
        <ele>135</ele>
        <time>2013-04-21T09:40:29Z</time>
      </trkpt>
      <trkpt lat="48.4231" lon="2.69955">
        <ele>135</ele>
        <time>2013-04-21T09:40:30Z</time>
      </trkpt>
      <trkpt lat="48.42309" lon="2.69955">
        <ele>135</ele>
        <time>2013-04-21T09:40:31Z</time>
      </trkpt>
      <trkpt lat="48.42296" lon="2.69957">
        <ele>134</ele>
        <time>2013-04-21T09:40:36Z</time>
      </trkpt>
      <trkpt lat="48.42292" lon="2.69955">
        <ele>134</ele>
        <time>2013-04-21T09:40:38Z</time>
      </trkpt>
      <trkpt lat="48.42291" lon="2.69954">
        <ele>133</ele>
        <time>2013-04-21T09:40:39Z</time>
      </trkpt>
      <trkpt lat="48.42285" lon="2.69951">
        <ele>133</ele>
        <time>2013-04-21T09:40:42Z</time>
      </trkpt>
      <trkpt lat="48.42281" lon="2.69946">
        <ele>133</ele>
        <time>2013-04-21T09:40:44Z</time>
      </trkpt>
      <trkpt lat="48.42277" lon="2.69942">
        <ele>132</ele>
        <time>2013-04-21T09:40:46Z</time>
      </trkpt>
      <trkpt lat="48.42271" lon="2.69935">
        <ele>132</ele>
        <time>2013-04-21T09:40:48Z</time>
      </trkpt>
      <trkpt lat="48.4227" lon="2.69932">
        <ele>132</ele>
        <time>2013-04-21T09:40:49Z</time>
      </trkpt>
      <trkpt lat="48.4227" lon="2.6993">
        <ele>132</ele>
        <time>2013-04-21T09:40:50Z</time>
      </trkpt>
      <trkpt lat="48.42272" lon="2.69927">
        <ele>132</ele>
        <time>2013-04-21T09:40:51Z</time>
      </trkpt>
      <trkpt lat="48.42274" lon="2.69926">
        <ele>132</ele>
        <time>2013-04-21T09:40:52Z</time>
      </trkpt>
      <trkpt lat="48.42277" lon="2.69924">
        <ele>132</ele>
        <time>2013-04-21T09:40:54Z</time>
      </trkpt>
      <trkpt lat="48.42277" lon="2.69924">
        <ele>132</ele>
        <time>2013-04-21T09:40:55Z</time>
      </trkpt>
      <trkpt lat="48.42277" lon="2.69923">
        <ele>132</ele>
        <time>2013-04-21T09:40:56Z</time>
      </trkpt>
      <trkpt lat="48.42277" lon="2.69923">
        <ele>132</ele>
        <time>2013-04-21T09:40:57Z</time>
      </trkpt>
      <trkpt lat="48.42277" lon="2.69922">
        <ele>132</ele>
        <time>2013-04-21T09:40:58Z</time>
      </trkpt>
      <trkpt lat="48.42276" lon="2.69922">
        <ele>132</ele>
        <time>2013-04-21T09:40:59Z</time>
      </trkpt>
      <trkpt lat="48.42276" lon="2.69921">
        <ele>132</ele>
        <time>2013-04-21T09:41:00Z</time>
      </trkpt>
      <trkpt lat="48.42276" lon="2.69921">
        <ele>132</ele>
        <time>2013-04-21T09:41:01Z</time>
      </trkpt>
      <trkpt lat="48.42276" lon="2.6992">
        <ele>132</ele>
        <time>2013-04-21T09:41:02Z</time>
      </trkpt>
      <trkpt lat="48.42276" lon="2.6992">
        <ele>132</ele>
        <time>2013-04-21T09:41:03Z</time>
      </trkpt>
      <trkpt lat="48.42276" lon="2.69918">
        <ele>132</ele>
        <time>2013-04-21T09:41:05Z</time>
      </trkpt>
      <trkpt lat="48.42276" lon="2.69917">
        <ele>132</ele>
        <time>2013-04-21T09:41:06Z</time>
      </trkpt>
      <trkpt lat="48.42276" lon="2.69917">
        <ele>132</ele>
        <time>2013-04-21T09:41:07Z</time>
      </trkpt>
      <trkpt lat="48.42276" lon="2.69916">
        <ele>132</ele>
        <time>2013-04-21T09:41:08Z</time>
      </trkpt>
      <trkpt lat="48.42276" lon="2.69916">
        <ele>132</ele>
        <time>2013-04-21T09:41:09Z</time>
      </trkpt>
      <trkpt lat="48.42276" lon="2.69916">
        <ele>132</ele>
        <time>2013-04-21T09:41:10Z</time>
      </trkpt>
      <trkpt lat="48.42276" lon="2.69916">
        <ele>132</ele>
        <time>2013-04-21T09:41:11Z</time>
      </trkpt>
      <trkpt lat="48.42276" lon="2.69915">
        <ele>132</ele>
        <time>2013-04-21T09:41:12Z</time>
      </trkpt>
      <trkpt lat="48.42277" lon="2.69914">
        <ele>132</ele>
        <time>2013-04-21T09:41:13Z</time>
      </trkpt>
      <trkpt lat="48.42278" lon="2.69912">
        <ele>132</ele>
        <time>2013-04-21T09:41:15Z</time>
      </trkpt>
      <trkpt lat="48.42279" lon="2.6991">
        <ele>132</ele>
        <time>2013-04-21T09:41:16Z</time>
      </trkpt>
      <trkpt lat="48.42281" lon="2.69909">
        <ele>133</ele>
        <time>2013-04-21T09:41:17Z</time>
      </trkpt>
      <trkpt lat="48.42282" lon="2.69908">
        <ele>133</ele>
        <time>2013-04-21T09:41:18Z</time>
      </trkpt>
      <trkpt lat="48.42289" lon="2.69905">
        <ele>134</ele>
        <time>2013-04-21T09:41:22Z</time>
      </trkpt>
      <trkpt lat="48.4229" lon="2.69903">
        <ele>134</ele>
        <time>2013-04-21T09:41:23Z</time>
      </trkpt>
      <trkpt lat="48.4229" lon="2.69902">
        <ele>134</ele>
        <time>2013-04-21T09:41:24Z</time>
      </trkpt>
      <trkpt lat="48.4229" lon="2.69897">
        <ele>134</ele>
        <time>2013-04-21T09:41:27Z</time>
      </trkpt>
      <trkpt lat="48.4229" lon="2.69894">
        <ele>134</ele>
        <time>2013-04-21T09:41:28Z</time>
      </trkpt>
      <trkpt lat="48.42291" lon="2.69893">
        <ele>134</ele>
        <time>2013-04-21T09:41:29Z</time>
      </trkpt>
      <trkpt lat="48.42291" lon="2.69892">
        <ele>134</ele>
        <time>2013-04-21T09:41:30Z</time>
      </trkpt>
      <trkpt lat="48.42291" lon="2.69892">
        <ele>134</ele>
        <time>2013-04-21T09:41:31Z</time>
      </trkpt>
      <trkpt lat="48.42291" lon="2.69891">
        <ele>134</ele>
        <time>2013-04-21T09:41:32Z</time>
      </trkpt>
      <trkpt lat="48.42291" lon="2.69891">
        <ele>134</ele>
        <time>2013-04-21T09:41:33Z</time>
      </trkpt>
      <trkpt lat="48.4229" lon="2.69891">
        <ele>134</ele>
        <time>2013-04-21T09:41:34Z</time>
      </trkpt>
      <trkpt lat="48.4229" lon="2.69892">
        <ele>134</ele>
        <time>2013-04-21T09:41:35Z</time>
      </trkpt>
      <trkpt lat="48.42289" lon="2.69892">
        <ele>133</ele>
        <time>2013-04-21T09:41:36Z</time>
      </trkpt>
      <trkpt lat="48.42289" lon="2.69893">
        <ele>133</ele>
        <time>2013-04-21T09:41:37Z</time>
      </trkpt>
      <trkpt lat="48.42289" lon="2.69893">
        <ele>133</ele>
        <time>2013-04-21T09:41:38Z</time>
      </trkpt>
      <trkpt lat="48.42289" lon="2.69893">
        <ele>133</ele>
        <time>2013-04-21T09:41:39Z</time>
      </trkpt>
      <trkpt lat="48.42288" lon="2.69893">
        <ele>133</ele>
        <time>2013-04-21T09:41:40Z</time>
      </trkpt>
      <trkpt lat="48.42288" lon="2.69893">
        <ele>133</ele>
        <time>2013-04-21T09:41:41Z</time>
      </trkpt>
      <trkpt lat="48.42288" lon="2.69894">
        <ele>133</ele>
        <time>2013-04-21T09:41:42Z</time>
      </trkpt>
      <trkpt lat="48.42287" lon="2.69894">
        <ele>133</ele>
        <time>2013-04-21T09:41:43Z</time>
      </trkpt>
      <trkpt lat="48.42286" lon="2.69893">
        <ele>133</ele>
        <time>2013-04-21T09:41:44Z</time>
      </trkpt>
      <trkpt lat="48.42285" lon="2.69893">
        <ele>133</ele>
        <time>2013-04-21T09:41:45Z</time>
      </trkpt>
      <trkpt lat="48.42284" lon="2.69892">
        <ele>133</ele>
        <time>2013-04-21T09:41:46Z</time>
      </trkpt>
      <trkpt lat="48.42284" lon="2.6989">
        <ele>133</ele>
        <time>2013-04-21T09:41:47Z</time>
      </trkpt>
      <trkpt lat="48.42284" lon="2.69888">
        <ele>133</ele>
        <time>2013-04-21T09:41:48Z</time>
      </trkpt>
      <trkpt lat="48.42283" lon="2.69887">
        <ele>133</ele>
        <time>2013-04-21T09:41:49Z</time>
      </trkpt>
      <trkpt lat="48.42282" lon="2.69886">
        <ele>133</ele>
        <time>2013-04-21T09:41:50Z</time>
      </trkpt>
      <trkpt lat="48.42281" lon="2.69885">
        <ele>133</ele>
        <time>2013-04-21T09:41:51Z</time>
      </trkpt>
      <trkpt lat="48.42281" lon="2.69885">
        <ele>133</ele>
        <time>2013-04-21T09:41:52Z</time>
      </trkpt>
      <trkpt lat="48.42281" lon="2.69884">
        <ele>133</ele>
        <time>2013-04-21T09:41:53Z</time>
      </trkpt>
      <trkpt lat="48.42281" lon="2.69884">
        <ele>133</ele>
        <time>2013-04-21T09:41:54Z</time>
      </trkpt>
      <trkpt lat="48.42281" lon="2.69884">
        <ele>133</ele>
        <time>2013-04-21T09:41:55Z</time>
      </trkpt>
      <trkpt lat="48.42281" lon="2.69883">
        <ele>133</ele>
        <time>2013-04-21T09:41:56Z</time>
      </trkpt>
      <trkpt lat="48.42281" lon="2.69883">
        <ele>133</ele>
        <time>2013-04-21T09:41:57Z</time>
      </trkpt>
      <trkpt lat="48.42281" lon="2.69883">
        <ele>133</ele>
        <time>2013-04-21T09:41:58Z</time>
      </trkpt>
      <trkpt lat="48.42281" lon="2.69883">
        <ele>133</ele>
        <time>2013-04-21T09:41:59Z</time>
      </trkpt>
      <trkpt lat="48.42282" lon="2.69881">
        <ele>133</ele>
        <time>2013-04-21T09:42:01Z</time>
      </trkpt>
      <trkpt lat="48.42281" lon="2.69879">
        <ele>133</ele>
        <time>2013-04-21T09:42:04Z</time>
      </trkpt>
      <trkpt lat="48.42281" lon="2.69877">
        <ele>133</ele>
        <time>2013-04-21T09:42:05Z</time>
      </trkpt>
      <trkpt lat="48.42281" lon="2.69876">
        <ele>133</ele>
        <time>2013-04-21T09:42:06Z</time>
      </trkpt>
      <trkpt lat="48.4228" lon="2.69875">
        <ele>133</ele>
        <time>2013-04-21T09:42:07Z</time>
      </trkpt>
      <trkpt lat="48.42279" lon="2.69872">
        <ele>133</ele>
        <time>2013-04-21T09:42:10Z</time>
      </trkpt>
      <trkpt lat="48.42278" lon="2.69872">
        <ele>133</ele>
        <time>2013-04-21T09:42:11Z</time>
      </trkpt>
      <trkpt lat="48.42278" lon="2.69871">
        <ele>132</ele>
        <time>2013-04-21T09:42:12Z</time>
      </trkpt>
      <trkpt lat="48.42279" lon="2.69868">
        <ele>133</ele>
        <time>2013-04-21T09:42:14Z</time>
      </trkpt>
      <trkpt lat="48.42281" lon="2.69863">
        <ele>133</ele>
        <time>2013-04-21T09:42:18Z</time>
      </trkpt>
      <trkpt lat="48.42282" lon="2.69863">
        <ele>133</ele>
        <time>2013-04-21T09:42:19Z</time>
      </trkpt>
      <trkpt lat="48.42282" lon="2.69863">
        <ele>133</ele>
        <time>2013-04-21T09:42:20Z</time>
      </trkpt>
      <trkpt lat="48.42283" lon="2.69862">
        <ele>133</ele>
        <time>2013-04-21T09:42:21Z</time>
      </trkpt>
      <trkpt lat="48.42284" lon="2.69862">
        <ele>133</ele>
        <time>2013-04-21T09:42:22Z</time>
      </trkpt>
      <trkpt lat="48.42285" lon="2.6986">
        <ele>133</ele>
        <time>2013-04-21T09:42:24Z</time>
      </trkpt>
      <trkpt lat="48.42286" lon="2.69859">
        <ele>133</ele>
        <time>2013-04-21T09:42:25Z</time>
      </trkpt>
      <trkpt lat="48.42286" lon="2.69858">
        <ele>133</ele>
        <time>2013-04-21T09:42:26Z</time>
      </trkpt>
      <trkpt lat="48.42288" lon="2.69856">
        <ele>133</ele>
        <time>2013-04-21T09:42:29Z</time>
      </trkpt>
      <trkpt lat="48.42289" lon="2.69855">
        <ele>133</ele>
        <time>2013-04-21T09:42:30Z</time>
      </trkpt>
      <trkpt lat="48.42291" lon="2.69854">
        <ele>133</ele>
        <time>2013-04-21T09:42:32Z</time>
      </trkpt>
      <trkpt lat="48.42291" lon="2.69854">
        <ele>133</ele>
        <time>2013-04-21T09:42:33Z</time>
      </trkpt>
      <trkpt lat="48.42292" lon="2.69854">
        <ele>133</ele>
        <time>2013-04-21T09:42:34Z</time>
      </trkpt>
      <trkpt lat="48.42292" lon="2.69853">
        <ele>133</ele>
        <time>2013-04-21T09:42:35Z</time>
      </trkpt>
      <trkpt lat="48.42292" lon="2.69853">
        <ele>133</ele>
        <time>2013-04-21T09:42:37Z</time>
      </trkpt>
      <trkpt lat="48.42292" lon="2.69853">
        <ele>133</ele>
        <time>2013-04-21T09:42:39Z</time>
      </trkpt>
      <trkpt lat="48.42292" lon="2.69853">
        <ele>133</ele>
        <time>2013-04-21T09:42:40Z</time>
      </trkpt>
      <trkpt lat="48.42292" lon="2.69852">
        <ele>133</ele>
        <time>2013-04-21T09:42:42Z</time>
      </trkpt>
      <trkpt lat="48.42292" lon="2.69852">
        <ele>133</ele>
        <time>2013-04-21T09:42:43Z</time>
      </trkpt>
      <trkpt lat="48.42292" lon="2.69852">
        <ele>133</ele>
        <time>2013-04-21T09:42:44Z</time>
      </trkpt>
      <trkpt lat="48.42292" lon="2.69852">
        <ele>133</ele>
        <time>2013-04-21T09:42:45Z</time>
      </trkpt>
      <trkpt lat="48.42293" lon="2.69852">
        <ele>133</ele>
        <time>2013-04-21T09:42:46Z</time>
      </trkpt>
      <trkpt lat="48.42293" lon="2.69852">
        <ele>133</ele>
        <time>2013-04-21T09:42:48Z</time>
      </trkpt>
      <trkpt lat="48.42293" lon="2.69852">
        <ele>133</ele>
        <time>2013-04-21T09:42:49Z</time>
      </trkpt>
      <trkpt lat="48.42293" lon="2.69852">
        <ele>133</ele>
        <time>2013-04-21T09:42:50Z</time>
      </trkpt>
      <trkpt lat="48.42293" lon="2.69851">
        <ele>133</ele>
        <time>2013-04-21T09:42:52Z</time>
      </trkpt>
      <trkpt lat="48.42293" lon="2.69851">
        <ele>133</ele>
        <time>2013-04-21T09:42:54Z</time>
      </trkpt>
      <trkpt lat="48.42294" lon="2.69851">
        <ele>133</ele>
        <time>2013-04-21T09:42:56Z</time>
      </trkpt>
      <trkpt lat="48.42294" lon="2.69851">
        <ele>133</ele>
        <time>2013-04-21T09:42:57Z</time>
      </trkpt>
      <trkpt lat="48.42294" lon="2.69851">
        <ele>133</ele>
        <time>2013-04-21T09:42:58Z</time>
      </trkpt>
      <trkpt lat="48.42294" lon="2.69851">
        <ele>133</ele>
        <time>2013-04-21T09:42:59Z</time>
      </trkpt>
      <trkpt lat="48.42294" lon="2.69851">
        <ele>133</ele>
        <time>2013-04-21T09:43:00Z</time>
      </trkpt>
      <trkpt lat="48.42294" lon="2.69851">
        <ele>133</ele>
        <time>2013-04-21T09:43:01Z</time>
      </trkpt>
      <trkpt lat="48.42294" lon="2.69851">
        <ele>133</ele>
        <time>2013-04-21T09:43:02Z</time>
      </trkpt>
      <trkpt lat="48.42294" lon="2.69851">
        <ele>133</ele>
        <time>2013-04-21T09:43:04Z</time>
      </trkpt>
      <trkpt lat="48.42294" lon="2.6985">
        <ele>133</ele>
        <time>2013-04-21T09:43:05Z</time>
      </trkpt>
      <trkpt lat="48.42294" lon="2.6985">
        <ele>133</ele>
        <time>2013-04-21T09:43:06Z</time>
      </trkpt>
      <trkpt lat="48.42294" lon="2.6985">
        <ele>133</ele>
        <time>2013-04-21T09:43:09Z</time>
      </trkpt>
      <trkpt lat="48.42294" lon="2.6985">
        <ele>133</ele>
        <time>2013-04-21T09:43:10Z</time>
      </trkpt>
      <trkpt lat="48.42294" lon="2.69849">
        <ele>133</ele>
        <time>2013-04-21T09:43:11Z</time>
      </trkpt>
      <trkpt lat="48.42294" lon="2.69849">
        <ele>133</ele>
        <time>2013-04-21T09:43:13Z</time>
      </trkpt>
      <trkpt lat="48.42294" lon="2.69849">
        <ele>133</ele>
        <time>2013-04-21T09:43:14Z</time>
      </trkpt>
      <trkpt lat="48.42294" lon="2.69849">
        <ele>133</ele>
        <time>2013-04-21T09:43:17Z</time>
      </trkpt>
      <trkpt lat="48.42294" lon="2.69849">
        <ele>133</ele>
        <time>2013-04-21T09:43:18Z</time>
      </trkpt>
      <trkpt lat="48.42294" lon="2.69849">
        <ele>133</ele>
        <time>2013-04-21T09:43:19Z</time>
      </trkpt>
      <trkpt lat="48.42294" lon="2.69848">
        <ele>133</ele>
        <time>2013-04-21T09:43:20Z</time>
      </trkpt>
      <trkpt lat="48.42294" lon="2.69848">
        <ele>133</ele>
        <time>2013-04-21T09:43:21Z</time>
      </trkpt>
      <trkpt lat="48.42294" lon="2.69848">
        <ele>133</ele>
        <time>2013-04-21T09:43:22Z</time>
      </trkpt>
      <trkpt lat="48.42294" lon="2.69848">
        <ele>133</ele>
        <time>2013-04-21T09:43:23Z</time>
      </trkpt>
      <trkpt lat="48.42294" lon="2.69848">
        <ele>133</ele>
        <time>2013-04-21T09:43:24Z</time>
      </trkpt>
      <trkpt lat="48.42294" lon="2.69848">
        <ele>133</ele>
        <time>2013-04-21T09:43:25Z</time>
      </trkpt>
      <trkpt lat="48.42294" lon="2.69847">
        <ele>133</ele>
        <time>2013-04-21T09:43:26Z</time>
      </trkpt>
      <trkpt lat="48.42294" lon="2.69847">
        <ele>133</ele>
        <time>2013-04-21T09:43:27Z</time>
      </trkpt>
      <trkpt lat="48.42294" lon="2.69847">
        <ele>133</ele>
        <time>2013-04-21T09:43:28Z</time>
      </trkpt>
      <trkpt lat="48.42294" lon="2.69847">
        <ele>133</ele>
        <time>2013-04-21T09:43:30Z</time>
      </trkpt>
      <trkpt lat="48.42294" lon="2.69847">
        <ele>133</ele>
        <time>2013-04-21T09:43:31Z</time>
      </trkpt>
      <trkpt lat="48.42294" lon="2.69847">
        <ele>133</ele>
        <time>2013-04-21T09:43:32Z</time>
      </trkpt>
      <trkpt lat="48.42294" lon="2.69846">
        <ele>133</ele>
        <time>2013-04-21T09:43:33Z</time>
      </trkpt>
      <trkpt lat="48.42294" lon="2.69846">
        <ele>133</ele>
        <time>2013-04-21T09:43:34Z</time>
      </trkpt>
      <trkpt lat="48.42294" lon="2.69846">
        <ele>133</ele>
        <time>2013-04-21T09:43:35Z</time>
      </trkpt>
      <trkpt lat="48.42294" lon="2.69846">
        <ele>133</ele>
        <time>2013-04-21T09:43:36Z</time>
      </trkpt>
      <trkpt lat="48.42294" lon="2.69846">
        <ele>133</ele>
        <time>2013-04-21T09:43:37Z</time>
      </trkpt>
      <trkpt lat="48.42294" lon="2.69846">
        <ele>133</ele>
        <time>2013-04-21T09:43:38Z</time>
      </trkpt>
      <trkpt lat="48.42294" lon="2.69845">
        <ele>133</ele>
        <time>2013-04-21T09:43:40Z</time>
      </trkpt>
      <trkpt lat="48.42294" lon="2.69845">
        <ele>133</ele>
        <time>2013-04-21T09:43:41Z</time>
      </trkpt>
      <trkpt lat="48.42293" lon="2.69842">
        <ele>133</ele>
        <time>2013-04-21T09:43:43Z</time>
      </trkpt>
      <trkpt lat="48.42293" lon="2.69841">
        <ele>133</ele>
        <time>2013-04-21T09:43:48Z</time>
      </trkpt>
      <trkpt lat="48.42293" lon="2.69841">
        <ele>133</ele>
        <time>2013-04-21T09:43:50Z</time>
      </trkpt>
      <trkpt lat="48.42293" lon="2.69841">
        <ele>133</ele>
        <time>2013-04-21T09:43:52Z</time>
      </trkpt>
      <trkpt lat="48.42293" lon="2.69841">
        <ele>133</ele>
        <time>2013-04-21T09:43:53Z</time>
      </trkpt>
      <trkpt lat="48.42293" lon="2.69842">
        <ele>133</ele>
        <time>2013-04-21T09:43:54Z</time>
      </trkpt>
      <trkpt lat="48.42293" lon="2.69841">
        <ele>133</ele>
        <time>2013-04-21T09:43:55Z</time>
      </trkpt>
      <trkpt lat="48.42293" lon="2.69842">
        <ele>133</ele>
        <time>2013-04-21T09:43:56Z</time>
      </trkpt>
      <trkpt lat="48.42293" lon="2.69841">
        <ele>133</ele>
        <time>2013-04-21T09:43:58Z</time>
      </trkpt>
      <trkpt lat="48.42286" lon="2.69835">
        <ele>133</ele>
        <time>2013-04-21T09:44:04Z</time>
      </trkpt>
      <trkpt lat="48.42285" lon="2.69835">
        <ele>132</ele>
        <time>2013-04-21T09:44:05Z</time>
      </trkpt>
      <trkpt lat="48.42284" lon="2.69835">
        <ele>132</ele>
        <time>2013-04-21T09:44:06Z</time>
      </trkpt>
      <trkpt lat="48.42282" lon="2.69834">
        <ele>132</ele>
        <time>2013-04-21T09:44:07Z</time>
      </trkpt>
      <trkpt lat="48.42282" lon="2.69834">
        <ele>132</ele>
        <time>2013-04-21T09:44:08Z</time>
      </trkpt>
      <trkpt lat="48.4228" lon="2.69834">
        <ele>132</ele>
        <time>2013-04-21T09:44:09Z</time>
      </trkpt>
      <trkpt lat="48.42279" lon="2.69834">
        <ele>132</ele>
        <time>2013-04-21T09:44:10Z</time>
      </trkpt>
      <trkpt lat="48.42275" lon="2.69832">
        <ele>129</ele>
        <time>2013-04-21T09:44:12Z</time>
      </trkpt>
      <trkpt lat="48.42273" lon="2.6983">
        <ele>129</ele>
        <time>2013-04-21T09:44:13Z</time>
      </trkpt>
      <trkpt lat="48.42271" lon="2.69826">
        <ele>129</ele>
        <time>2013-04-21T09:44:15Z</time>
      </trkpt>
      <trkpt lat="48.42271" lon="2.69825">
        <ele>129</ele>
        <time>2013-04-21T09:44:16Z</time>
      </trkpt>
      <trkpt lat="48.42271" lon="2.69823">
        <ele>129</ele>
        <time>2013-04-21T09:44:17Z</time>
      </trkpt>
      <trkpt lat="48.42272" lon="2.6982">
        <ele>129</ele>
        <time>2013-04-21T09:44:18Z</time>
      </trkpt>
      <trkpt lat="48.42272" lon="2.69816">
        <ele>129</ele>
        <time>2013-04-21T09:44:19Z</time>
      </trkpt>
      <trkpt lat="48.42271" lon="2.69806">
        <ele>128</ele>
        <time>2013-04-21T09:44:21Z</time>
      </trkpt>
      <trkpt lat="48.42269" lon="2.69802">
        <ele>128</ele>
        <time>2013-04-21T09:44:22Z</time>
      </trkpt>
      <trkpt lat="48.42266" lon="2.698">
        <ele>128</ele>
        <time>2013-04-21T09:44:23Z</time>
      </trkpt>
      <trkpt lat="48.42263" lon="2.69799">
        <ele>128</ele>
        <time>2013-04-21T09:44:24Z</time>
      </trkpt>
      <trkpt lat="48.42258" lon="2.69797">
        <ele>128</ele>
        <time>2013-04-21T09:44:26Z</time>
      </trkpt>
      <trkpt lat="48.42256" lon="2.69798">
        <ele>128</ele>
        <time>2013-04-21T09:44:27Z</time>
      </trkpt>
      <trkpt lat="48.42251" lon="2.69802">
        <ele>128</ele>
        <time>2013-04-21T09:44:30Z</time>
      </trkpt>
      <trkpt lat="48.42247" lon="2.69804">
        <ele>122</ele>
        <time>2013-04-21T09:44:31Z</time>
      </trkpt>
      <trkpt lat="48.42245" lon="2.69807">
        <ele>122</ele>
        <time>2013-04-21T09:44:32Z</time>
      </trkpt>
      <trkpt lat="48.42242" lon="2.69807">
        <ele>122</ele>
        <time>2013-04-21T09:44:33Z</time>
      </trkpt>
      <trkpt lat="48.42235" lon="2.69804">
        <ele>121</ele>
        <time>2013-04-21T09:44:35Z</time>
      </trkpt>
      <trkpt lat="48.42208" lon="2.69805">
        <ele>119</ele>
        <time>2013-04-21T09:44:41Z</time>
      </trkpt>
      <trkpt lat="48.42204" lon="2.69803">
        <ele>119</ele>
        <time>2013-04-21T09:44:42Z</time>
      </trkpt>
      <trkpt lat="48.42202" lon="2.698">
        <ele>119</ele>
        <time>2013-04-21T09:44:43Z</time>
      </trkpt>
      <trkpt lat="48.42199" lon="2.69799">
        <ele>118</ele>
        <time>2013-04-21T09:44:45Z</time>
      </trkpt>
      <trkpt lat="48.42197" lon="2.69797">
        <ele>118</ele>
        <time>2013-04-21T09:44:46Z</time>
      </trkpt>
      <trkpt lat="48.42196" lon="2.69794">
        <ele>118</ele>
        <time>2013-04-21T09:44:47Z</time>
      </trkpt>
      <trkpt lat="48.42196" lon="2.69791">
        <ele>118</ele>
        <time>2013-04-21T09:44:48Z</time>
      </trkpt>
      <trkpt lat="48.42195" lon="2.69788">
        <ele>118</ele>
        <time>2013-04-21T09:44:50Z</time>
      </trkpt>
      <trkpt lat="48.42193" lon="2.69787">
        <ele>118</ele>
        <time>2013-04-21T09:44:51Z</time>
      </trkpt>
      <trkpt lat="48.42186" lon="2.69785">
        <ele>118</ele>
        <time>2013-04-21T09:44:53Z</time>
      </trkpt>
      <trkpt lat="48.42181" lon="2.69782">
        <ele>117</ele>
        <time>2013-04-21T09:44:54Z</time>
      </trkpt>
      <trkpt lat="48.4217" lon="2.69771">
        <ele>116</ele>
        <time>2013-04-21T09:44:59Z</time>
      </trkpt>
      <trkpt lat="48.42164" lon="2.69767">
        <ele>112</ele>
        <time>2013-04-21T09:45:01Z</time>
      </trkpt>
      <trkpt lat="48.42154" lon="2.69757">
        <ele>112</ele>
        <time>2013-04-21T09:45:04Z</time>
      </trkpt>
      <trkpt lat="48.42152" lon="2.69753">
        <ele>112</ele>
        <time>2013-04-21T09:45:05Z</time>
      </trkpt>
      <trkpt lat="48.42143" lon="2.69747">
        <ele>111</ele>
        <time>2013-04-21T09:45:08Z</time>
      </trkpt>
      <trkpt lat="48.42142" lon="2.69745">
        <ele>111</ele>
        <time>2013-04-21T09:45:09Z</time>
      </trkpt>
      <trkpt lat="48.42142" lon="2.69743">
        <ele>111</ele>
        <time>2013-04-21T09:45:10Z</time>
      </trkpt>
      <trkpt lat="48.42141" lon="2.69742">
        <ele>111</ele>
        <time>2013-04-21T09:45:11Z</time>
      </trkpt>
      <trkpt lat="48.4214" lon="2.69742">
        <ele>111</ele>
        <time>2013-04-21T09:45:12Z</time>
      </trkpt>
      <trkpt lat="48.42139" lon="2.69741">
        <ele>111</ele>
        <time>2013-04-21T09:45:13Z</time>
      </trkpt>
      <trkpt lat="48.42139" lon="2.69739">
        <ele>111</ele>
        <time>2013-04-21T09:45:14Z</time>
      </trkpt>
      <trkpt lat="48.42137" lon="2.69737">
        <ele>111</ele>
        <time>2013-04-21T09:45:15Z</time>
      </trkpt>
      <trkpt lat="48.42136" lon="2.69736">
        <ele>111</ele>
        <time>2013-04-21T09:45:16Z</time>
      </trkpt>
      <trkpt lat="48.42131" lon="2.69732">
        <ele>110</ele>
        <time>2013-04-21T09:45:18Z</time>
      </trkpt>
      <trkpt lat="48.42126" lon="2.69727">
        <ele>110</ele>
        <time>2013-04-21T09:45:20Z</time>
      </trkpt>
      <trkpt lat="48.42124" lon="2.69727">
        <ele>110</ele>
        <time>2013-04-21T09:45:21Z</time>
      </trkpt>
      <trkpt lat="48.42123" lon="2.69729">
        <ele>110</ele>
        <time>2013-04-21T09:45:22Z</time>
      </trkpt>
      <trkpt lat="48.42113" lon="2.69762">
        <ele>110</ele>
        <time>2013-04-21T09:45:31Z</time>
      </trkpt>
      <trkpt lat="48.42113" lon="2.69765">
        <ele>110</ele>
        <time>2013-04-21T09:45:32Z</time>
      </trkpt>
      <trkpt lat="48.42107" lon="2.69788">
        <ele>110</ele>
        <time>2013-04-21T09:45:39Z</time>
      </trkpt>
      <trkpt lat="48.42103" lon="2.69808">
        <ele>109</ele>
        <time>2013-04-21T09:45:45Z</time>
      </trkpt>
      <trkpt lat="48.42097" lon="2.69827">
        <ele>108</ele>
        <time>2013-04-21T09:45:50Z</time>
      </trkpt>
      <trkpt lat="48.42096" lon="2.6983">
        <ele>108</ele>
        <time>2013-04-21T09:45:51Z</time>
      </trkpt>
      <trkpt lat="48.42096" lon="2.69833">
        <ele>108</ele>
        <time>2013-04-21T09:45:52Z</time>
      </trkpt>
      <trkpt lat="48.42097" lon="2.69836">
        <ele>107</ele>
        <time>2013-04-21T09:45:53Z</time>
      </trkpt>
      <trkpt lat="48.42097" lon="2.69837">
        <ele>107</ele>
        <time>2013-04-21T09:45:54Z</time>
      </trkpt>
      <trkpt lat="48.42098" lon="2.69837">
        <ele>108</ele>
        <time>2013-04-21T09:45:55Z</time>
      </trkpt>
      <trkpt lat="48.421" lon="2.69837">
        <ele>108</ele>
        <time>2013-04-21T09:45:56Z</time>
      </trkpt>
      <trkpt lat="48.42103" lon="2.69835">
        <ele>108</ele>
        <time>2013-04-21T09:45:58Z</time>
      </trkpt>
      <trkpt lat="48.42111" lon="2.69829">
        <ele>109</ele>
        <time>2013-04-21T09:46:03Z</time>
      </trkpt>
      <trkpt lat="48.42113" lon="2.69829">
        <ele>109</ele>
        <time>2013-04-21T09:46:04Z</time>
      </trkpt>
      <trkpt lat="48.42118" lon="2.69825">
        <ele>110</ele>
        <time>2013-04-21T09:46:08Z</time>
      </trkpt>
      <trkpt lat="48.42121" lon="2.6982">
        <ele>110</ele>
        <time>2013-04-21T09:46:11Z</time>
      </trkpt>
      <trkpt lat="48.42122" lon="2.69819">
        <ele>110</ele>
        <time>2013-04-21T09:46:12Z</time>
      </trkpt>
      <trkpt lat="48.42129" lon="2.69814">
        <ele>111</ele>
        <time>2013-04-21T09:46:16Z</time>
      </trkpt>
      <trkpt lat="48.42132" lon="2.69811">
        <ele>111</ele>
        <time>2013-04-21T09:46:18Z</time>
      </trkpt>
      <trkpt lat="48.42137" lon="2.69805">
        <ele>111</ele>
        <time>2013-04-21T09:46:22Z</time>
      </trkpt>
      <trkpt lat="48.42138" lon="2.69804">
        <ele>111</ele>
        <time>2013-04-21T09:46:23Z</time>
      </trkpt>
      <trkpt lat="48.4214" lon="2.69803">
        <ele>111</ele>
        <time>2013-04-21T09:46:25Z</time>
      </trkpt>
      <trkpt lat="48.42141" lon="2.69803">
        <ele>111</ele>
        <time>2013-04-21T09:46:26Z</time>
      </trkpt>
      <trkpt lat="48.42142" lon="2.69803">
        <ele>111</ele>
        <time>2013-04-21T09:46:27Z</time>
      </trkpt>
      <trkpt lat="48.42142" lon="2.69803">
        <ele>111</ele>
        <time>2013-04-21T09:46:28Z</time>
      </trkpt>
      <trkpt lat="48.42142" lon="2.69802">
        <ele>111</ele>
        <time>2013-04-21T09:46:29Z</time>
      </trkpt>
      <trkpt lat="48.42142" lon="2.69802">
        <ele>111</ele>
        <time>2013-04-21T09:46:30Z</time>
      </trkpt>
      <trkpt lat="48.42142" lon="2.69802">
        <ele>111</ele>
        <time>2013-04-21T09:46:31Z</time>
      </trkpt>
      <trkpt lat="48.42144" lon="2.698">
        <ele>111</ele>
        <time>2013-04-21T09:46:33Z</time>
      </trkpt>
      <trkpt lat="48.42145" lon="2.698">
        <ele>111</ele>
        <time>2013-04-21T09:46:34Z</time>
      </trkpt>
      <trkpt lat="48.42146" lon="2.698">
        <ele>111</ele>
        <time>2013-04-21T09:46:35Z</time>
      </trkpt>
      <trkpt lat="48.42146" lon="2.698">
        <ele>111</ele>
        <time>2013-04-21T09:46:36Z</time>
      </trkpt>
      <trkpt lat="48.42147" lon="2.698">
        <ele>111</ele>
        <time>2013-04-21T09:46:37Z</time>
      </trkpt>
      <trkpt lat="48.42147" lon="2.69801">
        <ele>111</ele>
        <time>2013-04-21T09:46:38Z</time>
      </trkpt>
      <trkpt lat="48.42146" lon="2.69802">
        <ele>111</ele>
        <time>2013-04-21T09:46:39Z</time>
      </trkpt>
      <trkpt lat="48.42146" lon="2.69803">
        <ele>111</ele>
        <time>2013-04-21T09:46:41Z</time>
      </trkpt>
      <trkpt lat="48.42146" lon="2.69803">
        <ele>111</ele>
        <time>2013-04-21T09:46:42Z</time>
      </trkpt>
      <trkpt lat="48.4213" lon="2.69814">
        <ele>111</ele>
        <time>2013-04-21T09:46:47Z</time>
      </trkpt>
      <trkpt lat="48.42123" lon="2.69822">
        <ele>110</ele>
        <time>2013-04-21T09:46:49Z</time>
      </trkpt>
      <trkpt lat="48.42108" lon="2.69834">
        <ele>108</ele>
        <time>2013-04-21T09:46:52Z</time>
      </trkpt>
      <trkpt lat="48.42104" lon="2.69838">
        <ele>108</ele>
        <time>2013-04-21T09:46:53Z</time>
      </trkpt>
      <trkpt lat="48.42103" lon="2.69842">
        <ele>108</ele>
        <time>2013-04-21T09:46:54Z</time>
      </trkpt>
      <trkpt lat="48.42104" lon="2.69846">
        <ele>108</ele>
        <time>2013-04-21T09:46:55Z</time>
      </trkpt>
      <trkpt lat="48.42105" lon="2.69848">
        <ele>108</ele>
        <time>2013-04-21T09:46:56Z</time>
      </trkpt>
      <trkpt lat="48.42107" lon="2.69847">
        <ele>108</ele>
        <time>2013-04-21T09:46:57Z</time>
      </trkpt>
      <trkpt lat="48.42108" lon="2.69845">
        <ele>108</ele>
        <time>2013-04-21T09:46:58Z</time>
      </trkpt>
      <trkpt lat="48.42108" lon="2.69842">
        <ele>108</ele>
        <time>2013-04-21T09:46:59Z</time>
      </trkpt>
      <trkpt lat="48.42107" lon="2.69839">
        <ele>108</ele>
        <time>2013-04-21T09:47:00Z</time>
      </trkpt>
      <trkpt lat="48.42103" lon="2.69835">
        <ele>108</ele>
        <time>2013-04-21T09:47:02Z</time>
      </trkpt>
      <trkpt lat="48.42102" lon="2.69833">
        <ele>108</ele>
        <time>2013-04-21T09:47:03Z</time>
      </trkpt>
      <trkpt lat="48.42101" lon="2.6983">
        <ele>108</ele>
        <time>2013-04-21T09:47:04Z</time>
      </trkpt>
      <trkpt lat="48.42149" lon="2.69584">
        <ele>108</ele>
        <time>2013-04-21T09:47:49Z</time>
      </trkpt>
      <trkpt lat="48.42149" lon="2.69579">
        <ele>108</ele>
        <time>2013-04-21T09:47:50Z</time>
      </trkpt>
      <trkpt lat="48.42143" lon="2.69525">
        <ele>107</ele>
        <time>2013-04-21T09:48:00Z</time>
      </trkpt>
      <trkpt lat="48.42127" lon="2.69478">
        <ele>107</ele>
        <time>2013-04-21T09:48:09Z</time>
      </trkpt>
      <trkpt lat="48.42069" lon="2.69339">
        <ele>106</ele>
        <time>2013-04-21T09:48:34Z</time>
      </trkpt>
      <trkpt lat="48.42055" lon="2.69284">
        <ele>107</ele>
        <time>2013-04-21T09:48:44Z</time>
      </trkpt>
      <trkpt lat="48.42048" lon="2.69259">
        <ele>107</ele>
        <time>2013-04-21T09:48:49Z</time>
      </trkpt>
      <trkpt lat="48.42044" lon="2.69228">
        <ele>106</ele>
        <time>2013-04-21T09:48:55Z</time>
      </trkpt>
      <trkpt lat="48.42044" lon="2.69222">
        <ele>106</ele>
        <time>2013-04-21T09:48:56Z</time>
      </trkpt>
      <trkpt lat="48.42047" lon="2.69205">
        <ele>106</ele>
        <time>2013-04-21T09:48:59Z</time>
      </trkpt>
      <trkpt lat="48.42051" lon="2.69195">
        <ele>106</ele>
        <time>2013-04-21T09:49:01Z</time>
      </trkpt>
      <trkpt lat="48.42093" lon="2.69114">
        <ele>108</ele>
        <time>2013-04-21T09:49:20Z</time>
      </trkpt>
      <trkpt lat="48.42098" lon="2.69104">
        <ele>108</ele>
        <time>2013-04-21T09:49:23Z</time>
      </trkpt>
      <trkpt lat="48.42111" lon="2.69077">
        <ele>108</ele>
        <time>2013-04-21T09:49:31Z</time>
      </trkpt>
      <trkpt lat="48.42124" lon="2.69044">
        <ele>108</ele>
        <time>2013-04-21T09:49:39Z</time>
      </trkpt>
      <trkpt lat="48.42133" lon="2.69026">
        <ele>109</ele>
        <time>2013-04-21T09:49:44Z</time>
      </trkpt>
      <trkpt lat="48.42149" lon="2.68986">
        <ele>110</ele>
        <time>2013-04-21T09:49:55Z</time>
      </trkpt>
      <trkpt lat="48.4215" lon="2.68984">
        <ele>110</ele>
        <time>2013-04-21T09:49:56Z</time>
      </trkpt>
      <trkpt lat="48.42152" lon="2.68984">
        <ele>110</ele>
        <time>2013-04-21T09:49:57Z</time>
      </trkpt>
      <trkpt lat="48.42154" lon="2.68984">
        <ele>110</ele>
        <time>2013-04-21T09:49:58Z</time>
      </trkpt>
      <trkpt lat="48.42155" lon="2.68985">
        <ele>110</ele>
        <time>2013-04-21T09:49:59Z</time>
      </trkpt>
      <trkpt lat="48.42157" lon="2.68987">
        <ele>110</ele>
        <time>2013-04-21T09:50:00Z</time>
      </trkpt>
      <trkpt lat="48.42158" lon="2.68989">
        <ele>111</ele>
        <time>2013-04-21T09:50:01Z</time>
      </trkpt>
      <trkpt lat="48.42162" lon="2.68996">
        <ele>111</ele>
        <time>2013-04-21T09:50:04Z</time>
      </trkpt>
      <trkpt lat="48.42164" lon="2.69">
        <ele>112</ele>
        <time>2013-04-21T09:50:06Z</time>
      </trkpt>
      <trkpt lat="48.42169" lon="2.69015">
        <ele>114</ele>
        <time>2013-04-21T09:50:11Z</time>
      </trkpt>
      <trkpt lat="48.42171" lon="2.69018">
        <ele>114</ele>
        <time>2013-04-21T09:50:12Z</time>
      </trkpt>
      <trkpt lat="48.42172" lon="2.69021">
        <ele>114</ele>
        <time>2013-04-21T09:50:13Z</time>
      </trkpt>
      <trkpt lat="48.42178" lon="2.69035">
        <ele>115</ele>
        <time>2013-04-21T09:50:18Z</time>
      </trkpt>
      <trkpt lat="48.42182" lon="2.69047">
        <ele>115</ele>
        <time>2013-04-21T09:50:22Z</time>
      </trkpt>
      <trkpt lat="48.42184" lon="2.69049">
        <ele>115</ele>
        <time>2013-04-21T09:50:23Z</time>
      </trkpt>
      <trkpt lat="48.42193" lon="2.69066">
        <ele>115</ele>
        <time>2013-04-21T09:50:31Z</time>
      </trkpt>
      <trkpt lat="48.42194" lon="2.69067">
        <ele>115</ele>
        <time>2013-04-21T09:50:32Z</time>
      </trkpt>
      <trkpt lat="48.42195" lon="2.69069">
        <ele>115</ele>
        <time>2013-04-21T09:50:33Z</time>
      </trkpt>
      <trkpt lat="48.42195" lon="2.6907">
        <ele>115</ele>
        <time>2013-04-21T09:50:34Z</time>
      </trkpt>
      <trkpt lat="48.42196" lon="2.6907">
        <ele>115</ele>
        <time>2013-04-21T09:50:35Z</time>
      </trkpt>
      <trkpt lat="48.42196" lon="2.69071">
        <ele>115</ele>
        <time>2013-04-21T09:50:36Z</time>
      </trkpt>
      <trkpt lat="48.42196" lon="2.69071">
        <ele>115</ele>
        <time>2013-04-21T09:50:37Z</time>
      </trkpt>
      <trkpt lat="48.42197" lon="2.69072">
        <ele>115</ele>
        <time>2013-04-21T09:50:38Z</time>
      </trkpt>
      <trkpt lat="48.42197" lon="2.69072">
        <ele>115</ele>
        <time>2013-04-21T09:50:39Z</time>
      </trkpt>
      <trkpt lat="48.42198" lon="2.69072">
        <ele>115</ele>
        <time>2013-04-21T09:50:40Z</time>
      </trkpt>
      <trkpt lat="48.42198" lon="2.69073">
        <ele>115</ele>
        <time>2013-04-21T09:50:41Z</time>
      </trkpt>
      <trkpt lat="48.42199" lon="2.69073">
        <ele>115</ele>
        <time>2013-04-21T09:50:42Z</time>
      </trkpt>
      <trkpt lat="48.42199" lon="2.69073">
        <ele>115</ele>
        <time>2013-04-21T09:50:43Z</time>
      </trkpt>
      <trkpt lat="48.42199" lon="2.69074">
        <ele>115</ele>
        <time>2013-04-21T09:50:44Z</time>
      </trkpt>
      <trkpt lat="48.422" lon="2.69074">
        <ele>115</ele>
        <time>2013-04-21T09:50:45Z</time>
      </trkpt>
      <trkpt lat="48.422" lon="2.69074">
        <ele>115</ele>
        <time>2013-04-21T09:50:46Z</time>
      </trkpt>
      <trkpt lat="48.422" lon="2.69075">
        <ele>115</ele>
        <time>2013-04-21T09:50:47Z</time>
      </trkpt>
      <trkpt lat="48.42201" lon="2.69075">
        <ele>116</ele>
        <time>2013-04-21T09:50:48Z</time>
      </trkpt>
      <trkpt lat="48.42201" lon="2.69075">
        <ele>116</ele>
        <time>2013-04-21T09:50:49Z</time>
      </trkpt>
      <trkpt lat="48.42201" lon="2.69076">
        <ele>116</ele>
        <time>2013-04-21T09:50:50Z</time>
      </trkpt>
      <trkpt lat="48.42201" lon="2.69076">
        <ele>116</ele>
        <time>2013-04-21T09:50:51Z</time>
      </trkpt>
      <trkpt lat="48.42202" lon="2.69077">
        <ele>116</ele>
        <time>2013-04-21T09:50:55Z</time>
      </trkpt>
      <trkpt lat="48.42202" lon="2.69077">
        <ele>116</ele>
        <time>2013-04-21T09:50:56Z</time>
      </trkpt>
      <trkpt lat="48.42202" lon="2.69078">
        <ele>116</ele>
        <time>2013-04-21T09:50:57Z</time>
      </trkpt>
      <trkpt lat="48.42203" lon="2.69078">
        <ele>116</ele>
        <time>2013-04-21T09:50:58Z</time>
      </trkpt>
      <trkpt lat="48.42203" lon="2.69078">
        <ele>116</ele>
        <time>2013-04-21T09:50:59Z</time>
      </trkpt>
      <trkpt lat="48.42203" lon="2.69078">
        <ele>116</ele>
        <time>2013-04-21T09:51:01Z</time>
      </trkpt>
      <trkpt lat="48.42203" lon="2.69081">
        <ele>116</ele>
        <time>2013-04-21T09:51:04Z</time>
      </trkpt>
      <trkpt lat="48.42203" lon="2.69082">
        <ele>116</ele>
        <time>2013-04-21T09:51:05Z</time>
      </trkpt>
      <trkpt lat="48.42204" lon="2.69083">
        <ele>116</ele>
        <time>2013-04-21T09:51:06Z</time>
      </trkpt>
      <trkpt lat="48.42204" lon="2.69084">
        <ele>116</ele>
        <time>2013-04-21T09:51:07Z</time>
      </trkpt>
      <trkpt lat="48.42206" lon="2.69086">
        <ele>116</ele>
        <time>2013-04-21T09:51:09Z</time>
      </trkpt>
      <trkpt lat="48.42206" lon="2.69087">
        <ele>116</ele>
        <time>2013-04-21T09:51:10Z</time>
      </trkpt>
      <trkpt lat="48.42206" lon="2.69089">
        <ele>116</ele>
        <time>2013-04-21T09:51:11Z</time>
      </trkpt>
      <trkpt lat="48.42206" lon="2.6909">
        <ele>116</ele>
        <time>2013-04-21T09:51:12Z</time>
      </trkpt>
      <trkpt lat="48.42207" lon="2.69091">
        <ele>116</ele>
        <time>2013-04-21T09:51:13Z</time>
      </trkpt>
      <trkpt lat="48.42208" lon="2.69093">
        <ele>116</ele>
        <time>2013-04-21T09:51:15Z</time>
      </trkpt>
      <trkpt lat="48.42208" lon="2.69094">
        <ele>116</ele>
        <time>2013-04-21T09:51:16Z</time>
      </trkpt>
      <trkpt lat="48.42209" lon="2.69096">
        <ele>116</ele>
        <time>2013-04-21T09:51:17Z</time>
      </trkpt>
      <trkpt lat="48.4221" lon="2.69098">
        <ele>116</ele>
        <time>2013-04-21T09:51:18Z</time>
      </trkpt>
      <trkpt lat="48.4221" lon="2.69099">
        <ele>116</ele>
        <time>2013-04-21T09:51:19Z</time>
      </trkpt>
      <trkpt lat="48.42211" lon="2.69101">
        <ele>116</ele>
        <time>2013-04-21T09:51:20Z</time>
      </trkpt>
      <trkpt lat="48.42212" lon="2.69102">
        <ele>116</ele>
        <time>2013-04-21T09:51:21Z</time>
      </trkpt>
      <trkpt lat="48.42212" lon="2.69104">
        <ele>116</ele>
        <time>2013-04-21T09:51:22Z</time>
      </trkpt>
      <trkpt lat="48.42217" lon="2.69121">
        <ele>117</ele>
        <time>2013-04-21T09:51:29Z</time>
      </trkpt>
      <trkpt lat="48.42219" lon="2.69125">
        <ele>117</ele>
        <time>2013-04-21T09:51:31Z</time>
      </trkpt>
      <trkpt lat="48.4222" lon="2.69128">
        <ele>117</ele>
        <time>2013-04-21T09:51:32Z</time>
      </trkpt>
      <trkpt lat="48.4222" lon="2.6913">
        <ele>117</ele>
        <time>2013-04-21T09:51:33Z</time>
      </trkpt>
      <trkpt lat="48.4222" lon="2.69132">
        <ele>117</ele>
        <time>2013-04-21T09:51:34Z</time>
      </trkpt>
      <trkpt lat="48.42222" lon="2.69143">
        <ele>117</ele>
        <time>2013-04-21T09:51:39Z</time>
      </trkpt>
      <trkpt lat="48.42222" lon="2.69145">
        <ele>117</ele>
        <time>2013-04-21T09:51:40Z</time>
      </trkpt>
      <trkpt lat="48.42223" lon="2.69149">
        <ele>117</ele>
        <time>2013-04-21T09:51:42Z</time>
      </trkpt>
      <trkpt lat="48.42224" lon="2.69152">
        <ele>118</ele>
        <time>2013-04-21T09:51:44Z</time>
      </trkpt>
      <trkpt lat="48.42225" lon="2.69156">
        <ele>118</ele>
        <time>2013-04-21T09:51:46Z</time>
      </trkpt>
      <trkpt lat="48.42225" lon="2.69158">
        <ele>118</ele>
        <time>2013-04-21T09:51:47Z</time>
      </trkpt>
      <trkpt lat="48.42225" lon="2.6916">
        <ele>118</ele>
        <time>2013-04-21T09:51:48Z</time>
      </trkpt>
      <trkpt lat="48.42226" lon="2.69162">
        <ele>118</ele>
        <time>2013-04-21T09:51:49Z</time>
      </trkpt>
      <trkpt lat="48.42226" lon="2.69165">
        <ele>118</ele>
        <time>2013-04-21T09:51:51Z</time>
      </trkpt>
      <trkpt lat="48.42226" lon="2.69169">
        <ele>120</ele>
        <time>2013-04-21T09:51:53Z</time>
      </trkpt>
      <trkpt lat="48.42226" lon="2.6917">
        <ele>120</ele>
        <time>2013-04-21T09:51:54Z</time>
      </trkpt>
      <trkpt lat="48.42226" lon="2.69172">
        <ele>120</ele>
        <time>2013-04-21T09:51:55Z</time>
      </trkpt>
      <trkpt lat="48.42226" lon="2.69173">
        <ele>120</ele>
        <time>2013-04-21T09:51:56Z</time>
      </trkpt>
      <trkpt lat="48.42226" lon="2.69174">
        <ele>120</ele>
        <time>2013-04-21T09:51:57Z</time>
      </trkpt>
      <trkpt lat="48.42225" lon="2.69176">
        <ele>120</ele>
        <time>2013-04-21T09:51:58Z</time>
      </trkpt>
      <trkpt lat="48.42225" lon="2.69177">
        <ele>120</ele>
        <time>2013-04-21T09:51:59Z</time>
      </trkpt>
      <trkpt lat="48.42224" lon="2.69186">
        <ele>121</ele>
        <time>2013-04-21T09:52:04Z</time>
      </trkpt>
      <trkpt lat="48.42224" lon="2.69188">
        <ele>121</ele>
        <time>2013-04-21T09:52:05Z</time>
      </trkpt>
      <trkpt lat="48.42224" lon="2.6919">
        <ele>121</ele>
        <time>2013-04-21T09:52:06Z</time>
      </trkpt>
      <trkpt lat="48.42224" lon="2.69192">
        <ele>121</ele>
        <time>2013-04-21T09:52:07Z</time>
      </trkpt>
      <trkpt lat="48.42224" lon="2.69196">
        <ele>121</ele>
        <time>2013-04-21T09:52:09Z</time>
      </trkpt>
      <trkpt lat="48.42224" lon="2.69197">
        <ele>121</ele>
        <time>2013-04-21T09:52:10Z</time>
      </trkpt>
      <trkpt lat="48.42225" lon="2.69201">
        <ele>121</ele>
        <time>2013-04-21T09:52:13Z</time>
      </trkpt>
      <trkpt lat="48.42227" lon="2.69207">
        <ele>122</ele>
        <time>2013-04-21T09:52:17Z</time>
      </trkpt>
      <trkpt lat="48.42227" lon="2.6921">
        <ele>122</ele>
        <time>2013-04-21T09:52:19Z</time>
      </trkpt>
      <trkpt lat="48.42228" lon="2.69211">
        <ele>122</ele>
        <time>2013-04-21T09:52:20Z</time>
      </trkpt>
      <trkpt lat="48.42228" lon="2.69212">
        <ele>122</ele>
        <time>2013-04-21T09:52:21Z</time>
      </trkpt>
      <trkpt lat="48.42229" lon="2.69213">
        <ele>122</ele>
        <time>2013-04-21T09:52:22Z</time>
      </trkpt>
      <trkpt lat="48.42229" lon="2.69214">
        <ele>122</ele>
        <time>2013-04-21T09:52:23Z</time>
      </trkpt>
      <trkpt lat="48.4223" lon="2.69215">
        <ele>122</ele>
        <time>2013-04-21T09:52:24Z</time>
      </trkpt>
      <trkpt lat="48.42231" lon="2.69217">
        <ele>123</ele>
        <time>2013-04-21T09:52:26Z</time>
      </trkpt>
      <trkpt lat="48.42231" lon="2.69218">
        <ele>123</ele>
        <time>2013-04-21T09:52:27Z</time>
      </trkpt>
      <trkpt lat="48.42232" lon="2.6922">
        <ele>123</ele>
        <time>2013-04-21T09:52:29Z</time>
      </trkpt>
      <trkpt lat="48.42232" lon="2.69221">
        <ele>123</ele>
        <time>2013-04-21T09:52:30Z</time>
      </trkpt>
      <trkpt lat="48.42233" lon="2.69222">
        <ele>123</ele>
        <time>2013-04-21T09:52:31Z</time>
      </trkpt>
      <trkpt lat="48.42233" lon="2.69222">
        <ele>123</ele>
        <time>2013-04-21T09:52:32Z</time>
      </trkpt>
      <trkpt lat="48.42234" lon="2.69223">
        <ele>123</ele>
        <time>2013-04-21T09:52:33Z</time>
      </trkpt>
      <trkpt lat="48.42235" lon="2.69223">
        <ele>123</ele>
        <time>2013-04-21T09:52:34Z</time>
      </trkpt>
      <trkpt lat="48.42236" lon="2.69224">
        <ele>123</ele>
        <time>2013-04-21T09:52:35Z</time>
      </trkpt>
      <trkpt lat="48.42236" lon="2.69224">
        <ele>124</ele>
        <time>2013-04-21T09:52:36Z</time>
      </trkpt>
      <trkpt lat="48.42239" lon="2.69228">
        <ele>124</ele>
        <time>2013-04-21T09:52:40Z</time>
      </trkpt>
      <trkpt lat="48.4224" lon="2.69229">
        <ele>124</ele>
        <time>2013-04-21T09:52:41Z</time>
      </trkpt>
      <trkpt lat="48.42241" lon="2.69231">
        <ele>125</ele>
        <time>2013-04-21T09:52:43Z</time>
      </trkpt>
      <trkpt lat="48.42242" lon="2.69235">
        <ele>125</ele>
        <time>2013-04-21T09:52:46Z</time>
      </trkpt>
      <trkpt lat="48.42243" lon="2.69238">
        <ele>126</ele>
        <time>2013-04-21T09:52:48Z</time>
      </trkpt>
      <trkpt lat="48.42243" lon="2.69239">
        <ele>126</ele>
        <time>2013-04-21T09:52:49Z</time>
      </trkpt>
      <trkpt lat="48.42244" lon="2.69241">
        <ele>127</ele>
        <time>2013-04-21T09:52:51Z</time>
      </trkpt>
      <trkpt lat="48.42245" lon="2.69242">
        <ele>127</ele>
        <time>2013-04-21T09:52:52Z</time>
      </trkpt>
      <trkpt lat="48.42246" lon="2.69243">
        <ele>127</ele>
        <time>2013-04-21T09:52:53Z</time>
      </trkpt>
      <trkpt lat="48.42248" lon="2.69243">
        <ele>128</ele>
        <time>2013-04-21T09:52:55Z</time>
      </trkpt>
      <trkpt lat="48.42253" lon="2.69241">
        <ele>130</ele>
        <time>2013-04-21T09:52:59Z</time>
      </trkpt>
      <trkpt lat="48.42254" lon="2.69241">
        <ele>130</ele>
        <time>2013-04-21T09:53:00Z</time>
      </trkpt>
      <trkpt lat="48.42255" lon="2.69241">
        <ele>130</ele>
        <time>2013-04-21T09:53:01Z</time>
      </trkpt>
      <trkpt lat="48.42255" lon="2.69242">
        <ele>130</ele>
        <time>2013-04-21T09:53:02Z</time>
      </trkpt>
      <trkpt lat="48.42256" lon="2.69242">
        <ele>130</ele>
        <time>2013-04-21T09:53:03Z</time>
      </trkpt>
      <trkpt lat="48.42256" lon="2.69243">
        <ele>130</ele>
        <time>2013-04-21T09:53:04Z</time>
      </trkpt>
      <trkpt lat="48.42257" lon="2.69244">
        <ele>130</ele>
        <time>2013-04-21T09:53:05Z</time>
      </trkpt>
      <trkpt lat="48.42258" lon="2.69244">
        <ele>130</ele>
        <time>2013-04-21T09:53:06Z</time>
      </trkpt>
      <trkpt lat="48.42262" lon="2.69245">
        <ele>130</ele>
        <time>2013-04-21T09:53:09Z</time>
      </trkpt>
      <trkpt lat="48.42262" lon="2.69246">
        <ele>130</ele>
        <time>2013-04-21T09:53:11Z</time>
      </trkpt>
      <trkpt lat="48.42263" lon="2.69246">
        <ele>130</ele>
        <time>2013-04-21T09:53:12Z</time>
      </trkpt>
      <trkpt lat="48.42264" lon="2.69248">
        <ele>130</ele>
        <time>2013-04-21T09:53:18Z</time>
      </trkpt>
      <trkpt lat="48.42264" lon="2.69249">
        <ele>130</ele>
        <time>2013-04-21T09:53:19Z</time>
      </trkpt>
      <trkpt lat="48.42265" lon="2.69249">
        <ele>130</ele>
        <time>2013-04-21T09:53:20Z</time>
      </trkpt>
      <trkpt lat="48.42266" lon="2.6925">
        <ele>132</ele>
        <time>2013-04-21T09:53:23Z</time>
      </trkpt>
      <trkpt lat="48.42266" lon="2.69251">
        <ele>132</ele>
        <time>2013-04-21T09:53:24Z</time>
      </trkpt>
      <trkpt lat="48.42267" lon="2.69252">
        <ele>133</ele>
        <time>2013-04-21T09:53:28Z</time>
      </trkpt>
      <trkpt lat="48.42268" lon="2.69254">
        <ele>133</ele>
        <time>2013-04-21T09:53:30Z</time>
      </trkpt>
      <trkpt lat="48.42269" lon="2.69255">
        <ele>133</ele>
        <time>2013-04-21T09:53:31Z</time>
      </trkpt>
      <trkpt lat="48.42271" lon="2.69258">
        <ele>133</ele>
        <time>2013-04-21T09:53:34Z</time>
      </trkpt>
      <trkpt lat="48.42273" lon="2.6926">
        <ele>133</ele>
        <time>2013-04-21T09:53:36Z</time>
      </trkpt>
      <trkpt lat="48.42273" lon="2.69261">
        <ele>133</ele>
        <time>2013-04-21T09:53:37Z</time>
      </trkpt>
      <trkpt lat="48.42274" lon="2.69262">
        <ele>134</ele>
        <time>2013-04-21T09:53:38Z</time>
      </trkpt>
      <trkpt lat="48.42276" lon="2.69266">
        <ele>134</ele>
        <time>2013-04-21T09:53:42Z</time>
      </trkpt>
      <trkpt lat="48.42279" lon="2.69271">
        <ele>134</ele>
        <time>2013-04-21T09:53:47Z</time>
      </trkpt>
      <trkpt lat="48.42279" lon="2.69272">
        <ele>134</ele>
        <time>2013-04-21T09:53:48Z</time>
      </trkpt>
      <trkpt lat="48.4228" lon="2.69273">
        <ele>134</ele>
        <time>2013-04-21T09:53:49Z</time>
      </trkpt>
      <trkpt lat="48.4228" lon="2.69274">
        <ele>134</ele>
        <time>2013-04-21T09:53:50Z</time>
      </trkpt>
      <trkpt lat="48.4228" lon="2.69275">
        <ele>134</ele>
        <time>2013-04-21T09:53:51Z</time>
      </trkpt>
      <trkpt lat="48.4228" lon="2.69276">
        <ele>134</ele>
        <time>2013-04-21T09:53:52Z</time>
      </trkpt>
      <trkpt lat="48.42281" lon="2.69277">
        <ele>134</ele>
        <time>2013-04-21T09:53:53Z</time>
      </trkpt>
      <trkpt lat="48.42281" lon="2.69279">
        <ele>134</ele>
        <time>2013-04-21T09:53:54Z</time>
      </trkpt>
      <trkpt lat="48.42281" lon="2.69279">
        <ele>134</ele>
        <time>2013-04-21T09:53:55Z</time>
      </trkpt>
      <trkpt lat="48.42281" lon="2.69279">
        <ele>134</ele>
        <time>2013-04-21T09:53:56Z</time>
      </trkpt>
      <trkpt lat="48.42281" lon="2.6928">
        <ele>134</ele>
        <time>2013-04-21T09:53:57Z</time>
      </trkpt>
      <trkpt lat="48.42281" lon="2.6928">
        <ele>134</ele>
        <time>2013-04-21T09:53:58Z</time>
      </trkpt>
      <trkpt lat="48.42281" lon="2.6928">
        <ele>134</ele>
        <time>2013-04-21T09:53:59Z</time>
      </trkpt>
      <trkpt lat="48.42281" lon="2.6928">
        <ele>134</ele>
        <time>2013-04-21T09:54:00Z</time>
      </trkpt>
      <trkpt lat="48.42281" lon="2.6928">
        <ele>135</ele>
        <time>2013-04-21T09:54:01Z</time>
      </trkpt>
      <trkpt lat="48.42281" lon="2.6928">
        <ele>135</ele>
        <time>2013-04-21T09:54:02Z</time>
      </trkpt>
      <trkpt lat="48.42281" lon="2.6928">
        <ele>135</ele>
        <time>2013-04-21T09:54:06Z</time>
      </trkpt>
      <trkpt lat="48.42282" lon="2.6928">
        <ele>135</ele>
        <time>2013-04-21T09:54:10Z</time>
      </trkpt>
      <trkpt lat="48.42283" lon="2.69284">
        <ele>135</ele>
        <time>2013-04-21T09:54:15Z</time>
      </trkpt>
      <trkpt lat="48.42283" lon="2.69285">
        <ele>135</ele>
        <time>2013-04-21T09:54:16Z</time>
      </trkpt>
      <trkpt lat="48.42283" lon="2.69287">
        <ele>135</ele>
        <time>2013-04-21T09:54:17Z</time>
      </trkpt>
      <trkpt lat="48.42283" lon="2.69288">
        <ele>135</ele>
        <time>2013-04-21T09:54:18Z</time>
      </trkpt>
      <trkpt lat="48.42283" lon="2.69289">
        <ele>135</ele>
        <time>2013-04-21T09:54:19Z</time>
      </trkpt>
      <trkpt lat="48.42283" lon="2.6929">
        <ele>135</ele>
        <time>2013-04-21T09:54:20Z</time>
      </trkpt>
      <trkpt lat="48.42283" lon="2.69291">
        <ele>135</ele>
        <time>2013-04-21T09:54:21Z</time>
      </trkpt>
      <trkpt lat="48.42284" lon="2.69292">
        <ele>135</ele>
        <time>2013-04-21T09:54:22Z</time>
      </trkpt>
      <trkpt lat="48.42285" lon="2.69292">
        <ele>135</ele>
        <time>2013-04-21T09:54:23Z</time>
      </trkpt>
      <trkpt lat="48.42287" lon="2.69293">
        <ele>135</ele>
        <time>2013-04-21T09:54:25Z</time>
      </trkpt>
      <trkpt lat="48.42288" lon="2.69294">
        <ele>135</ele>
        <time>2013-04-21T09:54:26Z</time>
      </trkpt>
      <trkpt lat="48.42289" lon="2.69293">
        <ele>135</ele>
        <time>2013-04-21T09:54:27Z</time>
      </trkpt>
      <trkpt lat="48.4229" lon="2.69294">
        <ele>135</ele>
        <time>2013-04-21T09:54:28Z</time>
      </trkpt>
      <trkpt lat="48.42291" lon="2.69294">
        <ele>135</ele>
        <time>2013-04-21T09:54:29Z</time>
      </trkpt>
      <trkpt lat="48.42292" lon="2.69294">
        <ele>135</ele>
        <time>2013-04-21T09:54:30Z</time>
      </trkpt>
      <trkpt lat="48.42293" lon="2.69295">
        <ele>135</ele>
        <time>2013-04-21T09:54:31Z</time>
      </trkpt>
      <trkpt lat="48.42294" lon="2.69297">
        <ele>135</ele>
        <time>2013-04-21T09:54:33Z</time>
      </trkpt>
      <trkpt lat="48.42295" lon="2.69298">
        <ele>136</ele>
        <time>2013-04-21T09:54:34Z</time>
      </trkpt>
      <trkpt lat="48.42296" lon="2.69298">
        <ele>136</ele>
        <time>2013-04-21T09:54:35Z</time>
      </trkpt>
      <trkpt lat="48.42297" lon="2.69299">
        <ele>136</ele>
        <time>2013-04-21T09:54:36Z</time>
      </trkpt>
      <trkpt lat="48.42298" lon="2.693">
        <ele>136</ele>
        <time>2013-04-21T09:54:37Z</time>
      </trkpt>
      <trkpt lat="48.423" lon="2.69302">
        <ele>136</ele>
        <time>2013-04-21T09:54:40Z</time>
      </trkpt>
      <trkpt lat="48.423" lon="2.69303">
        <ele>136</ele>
        <time>2013-04-21T09:54:41Z</time>
      </trkpt>
      <trkpt lat="48.42301" lon="2.69305">
        <ele>136</ele>
        <time>2013-04-21T09:54:42Z</time>
      </trkpt>
      <trkpt lat="48.42301" lon="2.69306">
        <ele>136</ele>
        <time>2013-04-21T09:54:43Z</time>
      </trkpt>
      <trkpt lat="48.42302" lon="2.69306">
        <ele>136</ele>
        <time>2013-04-21T09:54:44Z</time>
      </trkpt>
      <trkpt lat="48.42302" lon="2.69306">
        <ele>136</ele>
        <time>2013-04-21T09:54:45Z</time>
      </trkpt>
      <trkpt lat="48.42302" lon="2.69307">
        <ele>136</ele>
        <time>2013-04-21T09:54:46Z</time>
      </trkpt>
      <trkpt lat="48.42302" lon="2.69306">
        <ele>136</ele>
        <time>2013-04-21T09:54:47Z</time>
      </trkpt>
      <trkpt lat="48.42303" lon="2.69306">
        <ele>136</ele>
        <time>2013-04-21T09:54:48Z</time>
      </trkpt>
      <trkpt lat="48.42303" lon="2.69306">
        <ele>136</ele>
        <time>2013-04-21T09:54:49Z</time>
      </trkpt>
      <trkpt lat="48.42303" lon="2.69307">
        <ele>136</ele>
        <time>2013-04-21T09:54:50Z</time>
      </trkpt>
      <trkpt lat="48.42303" lon="2.69307">
        <ele>136</ele>
        <time>2013-04-21T09:54:51Z</time>
      </trkpt>
      <trkpt lat="48.42303" lon="2.69307">
        <ele>136</ele>
        <time>2013-04-21T09:54:52Z</time>
      </trkpt>
      <trkpt lat="48.42303" lon="2.69307">
        <ele>136</ele>
        <time>2013-04-21T09:54:53Z</time>
      </trkpt>
      <trkpt lat="48.42303" lon="2.69307">
        <ele>136</ele>
        <time>2013-04-21T09:54:54Z</time>
      </trkpt>
      <trkpt lat="48.42304" lon="2.69307">
        <ele>136</ele>
        <time>2013-04-21T09:54:55Z</time>
      </trkpt>
      <trkpt lat="48.42304" lon="2.69307">
        <ele>136</ele>
        <time>2013-04-21T09:54:56Z</time>
      </trkpt>
      <trkpt lat="48.42304" lon="2.69307">
        <ele>136</ele>
        <time>2013-04-21T09:54:57Z</time>
      </trkpt>
      <trkpt lat="48.42304" lon="2.69307">
        <ele>136</ele>
        <time>2013-04-21T09:54:58Z</time>
      </trkpt>
      <trkpt lat="48.42304" lon="2.69307">
        <ele>136</ele>
        <time>2013-04-21T09:54:59Z</time>
      </trkpt>
      <trkpt lat="48.42305" lon="2.69307">
        <ele>136</ele>
        <time>2013-04-21T09:55:00Z</time>
      </trkpt>
      <trkpt lat="48.42305" lon="2.69307">
        <ele>136</ele>
        <time>2013-04-21T09:55:01Z</time>
      </trkpt>
      <trkpt lat="48.42305" lon="2.69307">
        <ele>136</ele>
        <time>2013-04-21T09:55:02Z</time>
      </trkpt>
      <trkpt lat="48.42305" lon="2.69307">
        <ele>136</ele>
        <time>2013-04-21T09:55:03Z</time>
      </trkpt>
      <trkpt lat="48.42305" lon="2.69307">
        <ele>136</ele>
        <time>2013-04-21T09:55:04Z</time>
      </trkpt>
      <trkpt lat="48.42305" lon="2.69309">
        <ele>136</ele>
        <time>2013-04-21T09:55:06Z</time>
      </trkpt>
      <trkpt lat="48.42305" lon="2.6931">
        <ele>136</ele>
        <time>2013-04-21T09:55:07Z</time>
      </trkpt>
      <trkpt lat="48.42304" lon="2.69311">
        <ele>136</ele>
        <time>2013-04-21T09:55:09Z</time>
      </trkpt>
      <trkpt lat="48.42304" lon="2.69312">
        <ele>136</ele>
        <time>2013-04-21T09:55:10Z</time>
      </trkpt>
      <trkpt lat="48.42303" lon="2.69314">
        <ele>136</ele>
        <time>2013-04-21T09:55:12Z</time>
      </trkpt>
      <trkpt lat="48.42302" lon="2.69316">
        <ele>136</ele>
        <time>2013-04-21T09:55:14Z</time>
      </trkpt>
      <trkpt lat="48.423" lon="2.69319">
        <ele>136</ele>
        <time>2013-04-21T09:55:16Z</time>
      </trkpt>
      <trkpt lat="48.42299" lon="2.6932">
        <ele>136</ele>
        <time>2013-04-21T09:55:17Z</time>
      </trkpt>
      <trkpt lat="48.42299" lon="2.69322">
        <ele>136</ele>
        <time>2013-04-21T09:55:18Z</time>
      </trkpt>
      <trkpt lat="48.42288" lon="2.69341">
        <ele>136</ele>
        <time>2013-04-21T09:55:27Z</time>
      </trkpt>
      <trkpt lat="48.42286" lon="2.69348">
        <ele>136</ele>
        <time>2013-04-21T09:55:29Z</time>
      </trkpt>
      <trkpt lat="48.42286" lon="2.69351">
        <ele>136</ele>
        <time>2013-04-21T09:55:30Z</time>
      </trkpt>
      <trkpt lat="48.42286" lon="2.69354">
        <ele>136</ele>
        <time>2013-04-21T09:55:31Z</time>
      </trkpt>
      <trkpt lat="48.42289" lon="2.6936">
        <ele>136</ele>
        <time>2013-04-21T09:55:33Z</time>
      </trkpt>
      <trkpt lat="48.42289" lon="2.69366">
        <ele>136</ele>
        <time>2013-04-21T09:55:35Z</time>
      </trkpt>
      <trkpt lat="48.42289" lon="2.69367">
        <ele>136</ele>
        <time>2013-04-21T09:55:36Z</time>
      </trkpt>
      <trkpt lat="48.42289" lon="2.69369">
        <ele>136</ele>
        <time>2013-04-21T09:55:38Z</time>
      </trkpt>
      <trkpt lat="48.42288" lon="2.6937">
        <ele>136</ele>
        <time>2013-04-21T09:55:39Z</time>
      </trkpt>
      <trkpt lat="48.42288" lon="2.69371">
        <ele>136</ele>
        <time>2013-04-21T09:55:40Z</time>
      </trkpt>
      <trkpt lat="48.42289" lon="2.69375">
        <ele>136</ele>
        <time>2013-04-21T09:55:42Z</time>
      </trkpt>
      <trkpt lat="48.42289" lon="2.69376">
        <ele>136</ele>
        <time>2013-04-21T09:55:43Z</time>
      </trkpt>
      <trkpt lat="48.42289" lon="2.69377">
        <ele>136</ele>
        <time>2013-04-21T09:55:44Z</time>
      </trkpt>
      <trkpt lat="48.42289" lon="2.69377">
        <ele>136</ele>
        <time>2013-04-21T09:55:45Z</time>
      </trkpt>
      <trkpt lat="48.42289" lon="2.69377">
        <ele>136</ele>
        <time>2013-04-21T09:55:46Z</time>
      </trkpt>
      <trkpt lat="48.42289" lon="2.69378">
        <ele>136</ele>
        <time>2013-04-21T09:55:47Z</time>
      </trkpt>
      <trkpt lat="48.42289" lon="2.69378">
        <ele>136</ele>
        <time>2013-04-21T09:55:48Z</time>
      </trkpt>
      <trkpt lat="48.42289" lon="2.69379">
        <ele>136</ele>
        <time>2013-04-21T09:55:49Z</time>
      </trkpt>
      <trkpt lat="48.42289" lon="2.6938">
        <ele>136</ele>
        <time>2013-04-21T09:55:50Z</time>
      </trkpt>
      <trkpt lat="48.42289" lon="2.69381">
        <ele>136</ele>
        <time>2013-04-21T09:55:51Z</time>
      </trkpt>
      <trkpt lat="48.4229" lon="2.69382">
        <ele>136</ele>
        <time>2013-04-21T09:55:52Z</time>
      </trkpt>
      <trkpt lat="48.42292" lon="2.69382">
        <ele>136</ele>
        <time>2013-04-21T09:55:54Z</time>
      </trkpt>
      <trkpt lat="48.42293" lon="2.69382">
        <ele>136</ele>
        <time>2013-04-21T09:55:55Z</time>
      </trkpt>
      <trkpt lat="48.42294" lon="2.69382">
        <ele>136</ele>
        <time>2013-04-21T09:55:56Z</time>
      </trkpt>
      <trkpt lat="48.42296" lon="2.69382">
        <ele>136</ele>
        <time>2013-04-21T09:55:57Z</time>
      </trkpt>
      <trkpt lat="48.42297" lon="2.69382">
        <ele>136</ele>
        <time>2013-04-21T09:55:58Z</time>
      </trkpt>
      <trkpt lat="48.42299" lon="2.69383">
        <ele>136</ele>
        <time>2013-04-21T09:55:59Z</time>
      </trkpt>
      <trkpt lat="48.42301" lon="2.69386">
        <ele>136</ele>
        <time>2013-04-21T09:56:00Z</time>
      </trkpt>
      <trkpt lat="48.42302" lon="2.6939">
        <ele>137</ele>
        <time>2013-04-21T09:56:01Z</time>
      </trkpt>
      <trkpt lat="48.42301" lon="2.69405">
        <ele>137</ele>
        <time>2013-04-21T09:56:04Z</time>
      </trkpt>
      <trkpt lat="48.423" lon="2.69409">
        <ele>136</ele>
        <time>2013-04-21T09:56:05Z</time>
      </trkpt>
      <trkpt lat="48.42296" lon="2.69435">
        <ele>134</ele>
        <time>2013-04-21T09:56:11Z</time>
      </trkpt>
      <trkpt lat="48.42294" lon="2.6944">
        <ele>134</ele>
        <time>2013-04-21T09:56:12Z</time>
      </trkpt>
      <trkpt lat="48.42292" lon="2.69444">
        <ele>133</ele>
        <time>2013-04-21T09:56:13Z</time>
      </trkpt>
      <trkpt lat="48.4229" lon="2.69447">
        <ele>133</ele>
        <time>2013-04-21T09:56:14Z</time>
      </trkpt>
      <trkpt lat="48.4229" lon="2.69448">
        <ele>133</ele>
        <time>2013-04-21T09:56:15Z</time>
      </trkpt>
      <trkpt lat="48.42289" lon="2.69449">
        <ele>133</ele>
        <time>2013-04-21T09:56:16Z</time>
      </trkpt>
      <trkpt lat="48.42289" lon="2.6945">
        <ele>133</ele>
        <time>2013-04-21T09:56:17Z</time>
      </trkpt>
      <trkpt lat="48.42288" lon="2.69451">
        <ele>133</ele>
        <time>2013-04-21T09:56:18Z</time>
      </trkpt>
      <trkpt lat="48.42288" lon="2.69452">
        <ele>133</ele>
        <time>2013-04-21T09:56:19Z</time>
      </trkpt>
      <trkpt lat="48.42285" lon="2.69455">
        <ele>133</ele>
        <time>2013-04-21T09:56:21Z</time>
      </trkpt>
      <trkpt lat="48.42285" lon="2.69456">
        <ele>132</ele>
        <time>2013-04-21T09:56:22Z</time>
      </trkpt>
      <trkpt lat="48.42284" lon="2.69457">
        <ele>132</ele>
        <time>2013-04-21T09:56:23Z</time>
      </trkpt>
      <trkpt lat="48.42284" lon="2.69459">
        <ele>132</ele>
        <time>2013-04-21T09:56:24Z</time>
      </trkpt>
      <trkpt lat="48.42285" lon="2.6946">
        <ele>132</ele>
        <time>2013-04-21T09:56:25Z</time>
      </trkpt>
      <trkpt lat="48.42285" lon="2.69461">
        <ele>132</ele>
        <time>2013-04-21T09:56:26Z</time>
      </trkpt>
      <trkpt lat="48.42286" lon="2.69462">
        <ele>132</ele>
        <time>2013-04-21T09:56:27Z</time>
      </trkpt>
      <trkpt lat="48.42288" lon="2.69464">
        <ele>133</ele>
        <time>2013-04-21T09:56:28Z</time>
      </trkpt>
      <trkpt lat="48.42289" lon="2.69467">
        <ele>133</ele>
        <time>2013-04-21T09:56:29Z</time>
      </trkpt>
      <trkpt lat="48.42288" lon="2.69468">
        <ele>132</ele>
        <time>2013-04-21T09:56:30Z</time>
      </trkpt>
      <trkpt lat="48.42288" lon="2.69469">
        <ele>132</ele>
        <time>2013-04-21T09:56:31Z</time>
      </trkpt>
      <trkpt lat="48.42287" lon="2.6947">
        <ele>132</ele>
        <time>2013-04-21T09:56:32Z</time>
      </trkpt>
      <trkpt lat="48.42285" lon="2.69474">
        <ele>132</ele>
        <time>2013-04-21T09:56:34Z</time>
      </trkpt>
      <trkpt lat="48.42284" lon="2.69474">
        <ele>132</ele>
        <time>2013-04-21T09:56:35Z</time>
      </trkpt>
      <trkpt lat="48.42283" lon="2.69474">
        <ele>132</ele>
        <time>2013-04-21T09:56:36Z</time>
      </trkpt>
      <trkpt lat="48.42282" lon="2.69475">
        <ele>132</ele>
        <time>2013-04-21T09:56:37Z</time>
      </trkpt>
      <trkpt lat="48.42282" lon="2.69475">
        <ele>132</ele>
        <time>2013-04-21T09:56:38Z</time>
      </trkpt>
      <trkpt lat="48.42282" lon="2.69476">
        <ele>132</ele>
        <time>2013-04-21T09:56:39Z</time>
      </trkpt>
      <trkpt lat="48.42282" lon="2.69476">
        <ele>132</ele>
        <time>2013-04-21T09:56:40Z</time>
      </trkpt>
      <trkpt lat="48.42282" lon="2.69477">
        <ele>132</ele>
        <time>2013-04-21T09:56:41Z</time>
      </trkpt>
      <trkpt lat="48.42281" lon="2.69477">
        <ele>132</ele>
        <time>2013-04-21T09:56:42Z</time>
      </trkpt>
      <trkpt lat="48.42281" lon="2.69478">
        <ele>132</ele>
        <time>2013-04-21T09:56:43Z</time>
      </trkpt>
      <trkpt lat="48.42281" lon="2.69478">
        <ele>131</ele>
        <time>2013-04-21T09:56:44Z</time>
      </trkpt>
      <trkpt lat="48.42281" lon="2.69478">
        <ele>131</ele>
        <time>2013-04-21T09:56:45Z</time>
      </trkpt>
      <trkpt lat="48.42281" lon="2.69479">
        <ele>131</ele>
        <time>2013-04-21T09:56:46Z</time>
      </trkpt>
      <trkpt lat="48.42281" lon="2.69479">
        <ele>131</ele>
        <time>2013-04-21T09:56:47Z</time>
      </trkpt>
      <trkpt lat="48.42281" lon="2.6948">
        <ele>131</ele>
        <time>2013-04-21T09:56:48Z</time>
      </trkpt>
      <trkpt lat="48.42281" lon="2.6948">
        <ele>131</ele>
        <time>2013-04-21T09:56:49Z</time>
      </trkpt>
      <trkpt lat="48.4228" lon="2.6948">
        <ele>131</ele>
        <time>2013-04-21T09:56:50Z</time>
      </trkpt>
      <trkpt lat="48.4228" lon="2.69481">
        <ele>131</ele>
        <time>2013-04-21T09:56:51Z</time>
      </trkpt>
      <trkpt lat="48.42278" lon="2.69483">
        <ele>131</ele>
        <time>2013-04-21T09:56:54Z</time>
      </trkpt>
      <trkpt lat="48.42278" lon="2.69483">
        <ele>131</ele>
        <time>2013-04-21T09:56:55Z</time>
      </trkpt>
      <trkpt lat="48.42278" lon="2.69485">
        <ele>131</ele>
        <time>2013-04-21T09:56:56Z</time>
      </trkpt>
      <trkpt lat="48.42278" lon="2.69487">
        <ele>131</ele>
        <time>2013-04-21T09:56:57Z</time>
      </trkpt>
      <trkpt lat="48.42278" lon="2.69487">
        <ele>131</ele>
        <time>2013-04-21T09:56:58Z</time>
      </trkpt>
      <trkpt lat="48.42278" lon="2.69488">
        <ele>131</ele>
        <time>2013-04-21T09:56:59Z</time>
      </trkpt>
      <trkpt lat="48.42278" lon="2.69489">
        <ele>131</ele>
        <time>2013-04-21T09:57:00Z</time>
      </trkpt>
      <trkpt lat="48.42278" lon="2.69489">
        <ele>131</ele>
        <time>2013-04-21T09:57:01Z</time>
      </trkpt>
      <trkpt lat="48.42278" lon="2.69489">
        <ele>131</ele>
        <time>2013-04-21T09:57:02Z</time>
      </trkpt>
      <trkpt lat="48.42278" lon="2.6949">
        <ele>131</ele>
        <time>2013-04-21T09:57:03Z</time>
      </trkpt>
      <trkpt lat="48.42278" lon="2.6949">
        <ele>131</ele>
        <time>2013-04-21T09:57:04Z</time>
      </trkpt>
      <trkpt lat="48.42278" lon="2.69491">
        <ele>131</ele>
        <time>2013-04-21T09:57:05Z</time>
      </trkpt>
      <trkpt lat="48.42278" lon="2.69491">
        <ele>131</ele>
        <time>2013-04-21T09:57:06Z</time>
      </trkpt>
      <trkpt lat="48.42278" lon="2.69491">
        <ele>131</ele>
        <time>2013-04-21T09:57:07Z</time>
      </trkpt>
      <trkpt lat="48.42278" lon="2.69492">
        <ele>131</ele>
        <time>2013-04-21T09:57:08Z</time>
      </trkpt>
      <trkpt lat="48.42279" lon="2.69492">
        <ele>131</ele>
        <time>2013-04-21T09:57:09Z</time>
      </trkpt>
      <trkpt lat="48.42279" lon="2.69493">
        <ele>131</ele>
        <time>2013-04-21T09:57:10Z</time>
      </trkpt>
      <trkpt lat="48.4228" lon="2.69493">
        <ele>131</ele>
        <time>2013-04-21T09:57:11Z</time>
      </trkpt>
      <trkpt lat="48.4228" lon="2.69493">
        <ele>131</ele>
        <time>2013-04-21T09:57:12Z</time>
      </trkpt>
      <trkpt lat="48.42281" lon="2.69493">
        <ele>131</ele>
        <time>2013-04-21T09:57:13Z</time>
      </trkpt>
      <trkpt lat="48.42282" lon="2.69491">
        <ele>131</ele>
        <time>2013-04-21T09:57:16Z</time>
      </trkpt>
      <trkpt lat="48.42282" lon="2.6949">
        <ele>131</ele>
        <time>2013-04-21T09:57:17Z</time>
      </trkpt>
      <trkpt lat="48.42283" lon="2.6949">
        <ele>131</ele>
        <time>2013-04-21T09:57:18Z</time>
      </trkpt>
      <trkpt lat="48.42283" lon="2.69489">
        <ele>131</ele>
        <time>2013-04-21T09:57:19Z</time>
      </trkpt>
      <trkpt lat="48.42283" lon="2.69489">
        <ele>131</ele>
        <time>2013-04-21T09:57:20Z</time>
      </trkpt>
      <trkpt lat="48.42283" lon="2.69486">
        <ele>131</ele>
        <time>2013-04-21T09:57:23Z</time>
      </trkpt>
      <trkpt lat="48.42285" lon="2.69485">
        <ele>132</ele>
        <time>2013-04-21T09:57:25Z</time>
      </trkpt>
      <trkpt lat="48.42286" lon="2.69484">
        <ele>132</ele>
        <time>2013-04-21T09:57:27Z</time>
      </trkpt>
      <trkpt lat="48.42287" lon="2.69483">
        <ele>132</ele>
        <time>2013-04-21T09:57:29Z</time>
      </trkpt>
      <trkpt lat="48.42287" lon="2.69483">
        <ele>132</ele>
        <time>2013-04-21T09:57:30Z</time>
      </trkpt>
      <trkpt lat="48.42287" lon="2.69483">
        <ele>132</ele>
        <time>2013-04-21T09:57:31Z</time>
      </trkpt>
      <trkpt lat="48.42289" lon="2.69482">
        <ele>132</ele>
        <time>2013-04-21T09:57:34Z</time>
      </trkpt>
      <trkpt lat="48.42291" lon="2.69483">
        <ele>132</ele>
        <time>2013-04-21T09:57:35Z</time>
      </trkpt>
      <trkpt lat="48.42298" lon="2.69481">
        <ele>133</ele>
        <time>2013-04-21T09:57:37Z</time>
      </trkpt>
      <trkpt lat="48.42308" lon="2.69482">
        <ele>134</ele>
        <time>2013-04-21T09:57:40Z</time>
      </trkpt>
      <trkpt lat="48.42309" lon="2.69483">
        <ele>134</ele>
        <time>2013-04-21T09:57:41Z</time>
      </trkpt>
      <trkpt lat="48.4231" lon="2.69484">
        <ele>134</ele>
        <time>2013-04-21T09:57:42Z</time>
      </trkpt>
      <trkpt lat="48.4231" lon="2.69486">
        <ele>134</ele>
        <time>2013-04-21T09:57:43Z</time>
      </trkpt>
      <trkpt lat="48.4231" lon="2.69489">
        <ele>134</ele>
        <time>2013-04-21T09:57:44Z</time>
      </trkpt>
      <trkpt lat="48.42312" lon="2.69493">
        <ele>135</ele>
        <time>2013-04-21T09:57:45Z</time>
      </trkpt>
      <trkpt lat="48.42314" lon="2.69496">
        <ele>135</ele>
        <time>2013-04-21T09:57:46Z</time>
      </trkpt>
      <trkpt lat="48.42318" lon="2.69498">
        <ele>135</ele>
        <time>2013-04-21T09:57:47Z</time>
      </trkpt>
      <trkpt lat="48.42322" lon="2.69502">
        <ele>134</ele>
        <time>2013-04-21T09:57:49Z</time>
      </trkpt>
      <trkpt lat="48.42324" lon="2.69503">
        <ele>135</ele>
        <time>2013-04-21T09:57:50Z</time>
      </trkpt>
      <trkpt lat="48.42327" lon="2.69503">
        <ele>135</ele>
        <time>2013-04-21T09:57:51Z</time>
      </trkpt>
      <trkpt lat="48.4233" lon="2.69503">
        <ele>136</ele>
        <time>2013-04-21T09:57:52Z</time>
      </trkpt>
      <trkpt lat="48.42332" lon="2.69502">
        <ele>137</ele>
        <time>2013-04-21T09:57:53Z</time>
      </trkpt>
      <trkpt lat="48.4236" lon="2.6948">
        <ele>140</ele>
        <time>2013-04-21T09:58:06Z</time>
      </trkpt>
      <trkpt lat="48.42363" lon="2.69478">
        <ele>140</ele>
        <time>2013-04-21T09:58:07Z</time>
      </trkpt>
      <trkpt lat="48.42365" lon="2.69478">
        <ele>140</ele>
        <time>2013-04-21T09:58:08Z</time>
      </trkpt>
      <trkpt lat="48.42373" lon="2.6948">
        <ele>141</ele>
        <time>2013-04-21T09:58:11Z</time>
      </trkpt>
      <trkpt lat="48.42376" lon="2.69482">
        <ele>141</ele>
        <time>2013-04-21T09:58:13Z</time>
      </trkpt>
      <trkpt lat="48.42379" lon="2.69485">
        <ele>141</ele>
        <time>2013-04-21T09:58:16Z</time>
      </trkpt>
      <trkpt lat="48.4238" lon="2.69485">
        <ele>141</ele>
        <time>2013-04-21T09:58:17Z</time>
      </trkpt>
      <trkpt lat="48.42381" lon="2.69485">
        <ele>141</ele>
        <time>2013-04-21T09:58:18Z</time>
      </trkpt>
      <trkpt lat="48.42386" lon="2.69486">
        <ele>141</ele>
        <time>2013-04-21T09:58:21Z</time>
      </trkpt>
      <trkpt lat="48.42387" lon="2.69488">
        <ele>141</ele>
        <time>2013-04-21T09:58:22Z</time>
      </trkpt>
      <trkpt lat="48.42388" lon="2.69491">
        <ele>141</ele>
        <time>2013-04-21T09:58:24Z</time>
      </trkpt>
      <trkpt lat="48.42388" lon="2.69496">
        <ele>141</ele>
        <time>2013-04-21T09:58:27Z</time>
      </trkpt>
      <trkpt lat="48.42388" lon="2.69498">
        <ele>141</ele>
        <time>2013-04-21T09:58:28Z</time>
      </trkpt>
      <trkpt lat="48.42387" lon="2.69499">
        <ele>141</ele>
        <time>2013-04-21T09:58:29Z</time>
      </trkpt>
      <trkpt lat="48.42387" lon="2.695">
        <ele>139</ele>
        <time>2013-04-21T09:58:30Z</time>
      </trkpt>
      <trkpt lat="48.42388" lon="2.69505">
        <ele>139</ele>
        <time>2013-04-21T09:58:32Z</time>
      </trkpt>
      <trkpt lat="48.42388" lon="2.69508">
        <ele>139</ele>
        <time>2013-04-21T09:58:33Z</time>
      </trkpt>
      <trkpt lat="48.42389" lon="2.69512">
        <ele>139</ele>
        <time>2013-04-21T09:58:34Z</time>
      </trkpt>
      <trkpt lat="48.42392" lon="2.69525">
        <ele>139</ele>
        <time>2013-04-21T09:58:37Z</time>
      </trkpt>
      <trkpt lat="48.42393" lon="2.6953">
        <ele>139</ele>
        <time>2013-04-21T09:58:38Z</time>
      </trkpt>
      <trkpt lat="48.42395" lon="2.69533">
        <ele>139</ele>
        <time>2013-04-21T09:58:39Z</time>
      </trkpt>
      <trkpt lat="48.424" lon="2.69537">
        <ele>139</ele>
        <time>2013-04-21T09:58:41Z</time>
      </trkpt>
      <trkpt lat="48.42402" lon="2.69541">
        <ele>139</ele>
        <time>2013-04-21T09:58:42Z</time>
      </trkpt>
      <trkpt lat="48.42403" lon="2.69545">
        <ele>139</ele>
        <time>2013-04-21T09:58:43Z</time>
      </trkpt>
      <trkpt lat="48.42403" lon="2.6955">
        <ele>139</ele>
        <time>2013-04-21T09:58:44Z</time>
      </trkpt>
      <trkpt lat="48.42402" lon="2.69553">
        <ele>139</ele>
        <time>2013-04-21T09:58:45Z</time>
      </trkpt>
      <trkpt lat="48.424" lon="2.69557">
        <ele>139</ele>
        <time>2013-04-21T09:58:46Z</time>
      </trkpt>
      <trkpt lat="48.42398" lon="2.69559">
        <ele>139</ele>
        <time>2013-04-21T09:58:47Z</time>
      </trkpt>
      <trkpt lat="48.42396" lon="2.69562">
        <ele>139</ele>
        <time>2013-04-21T09:58:48Z</time>
      </trkpt>
      <trkpt lat="48.42396" lon="2.6957">
        <ele>139</ele>
        <time>2013-04-21T09:58:50Z</time>
      </trkpt>
      <trkpt lat="48.42396" lon="2.69571">
        <ele>139</ele>
        <time>2013-04-21T09:58:51Z</time>
      </trkpt>
      <trkpt lat="48.42395" lon="2.69574">
        <ele>139</ele>
        <time>2013-04-21T09:58:53Z</time>
      </trkpt>
      <trkpt lat="48.42394" lon="2.69575">
        <ele>139</ele>
        <time>2013-04-21T09:58:54Z</time>
      </trkpt>
      <trkpt lat="48.42393" lon="2.69576">
        <ele>139</ele>
        <time>2013-04-21T09:58:55Z</time>
      </trkpt>
      <trkpt lat="48.42392" lon="2.69576">
        <ele>138</ele>
        <time>2013-04-21T09:58:56Z</time>
      </trkpt>
      <trkpt lat="48.42391" lon="2.69578">
        <ele>138</ele>
        <time>2013-04-21T09:58:57Z</time>
      </trkpt>
      <trkpt lat="48.4239" lon="2.69581">
        <ele>138</ele>
        <time>2013-04-21T09:58:58Z</time>
      </trkpt>
      <trkpt lat="48.42389" lon="2.69584">
        <ele>137</ele>
        <time>2013-04-21T09:58:59Z</time>
      </trkpt>
      <trkpt lat="48.42379" lon="2.69593">
        <ele>136</ele>
        <time>2013-04-21T09:59:03Z</time>
      </trkpt>
      <trkpt lat="48.42377" lon="2.69595">
        <ele>136</ele>
        <time>2013-04-21T09:59:04Z</time>
      </trkpt>
      <trkpt lat="48.42377" lon="2.69596">
        <ele>136</ele>
        <time>2013-04-21T09:59:05Z</time>
      </trkpt>
      <trkpt lat="48.42375" lon="2.69601">
        <ele>135</ele>
        <time>2013-04-21T09:59:11Z</time>
      </trkpt>
      <trkpt lat="48.42375" lon="2.69601">
        <ele>135</ele>
        <time>2013-04-21T09:59:12Z</time>
      </trkpt>
      <trkpt lat="48.42373" lon="2.69602">
        <ele>135</ele>
        <time>2013-04-21T09:59:14Z</time>
      </trkpt>
      <trkpt lat="48.42371" lon="2.69605">
        <ele>135</ele>
        <time>2013-04-21T09:59:15Z</time>
      </trkpt>
      <trkpt lat="48.42369" lon="2.69612">
        <ele>135</ele>
        <time>2013-04-21T09:59:17Z</time>
      </trkpt>
      <trkpt lat="48.42367" lon="2.69614">
        <ele>135</ele>
        <time>2013-04-21T09:59:18Z</time>
      </trkpt>
      <trkpt lat="48.42364" lon="2.69617">
        <ele>135</ele>
        <time>2013-04-21T09:59:19Z</time>
      </trkpt>
      <trkpt lat="48.42363" lon="2.69621">
        <ele>135</ele>
        <time>2013-04-21T09:59:20Z</time>
      </trkpt>
      <trkpt lat="48.42361" lon="2.69626">
        <ele>135</ele>
        <time>2013-04-21T09:59:22Z</time>
      </trkpt>
      <trkpt lat="48.42361" lon="2.69632">
        <ele>134</ele>
        <time>2013-04-21T09:59:24Z</time>
      </trkpt>
      <trkpt lat="48.4236" lon="2.69636">
        <ele>134</ele>
        <time>2013-04-21T09:59:26Z</time>
      </trkpt>
      <trkpt lat="48.42361" lon="2.69643">
        <ele>134</ele>
        <time>2013-04-21T09:59:29Z</time>
      </trkpt>
      <trkpt lat="48.4236" lon="2.69644">
        <ele>134</ele>
        <time>2013-04-21T09:59:30Z</time>
      </trkpt>
      <trkpt lat="48.42359" lon="2.69646">
        <ele>134</ele>
        <time>2013-04-21T09:59:31Z</time>
      </trkpt>
      <trkpt lat="48.42359" lon="2.69648">
        <ele>134</ele>
        <time>2013-04-21T09:59:32Z</time>
      </trkpt>
      <trkpt lat="48.42359" lon="2.69649">
        <ele>134</ele>
        <time>2013-04-21T09:59:33Z</time>
      </trkpt>
      <trkpt lat="48.42359" lon="2.6965">
        <ele>134</ele>
        <time>2013-04-21T09:59:34Z</time>
      </trkpt>
      <trkpt lat="48.42358" lon="2.69651">
        <ele>134</ele>
        <time>2013-04-21T09:59:35Z</time>
      </trkpt>
      <trkpt lat="48.42358" lon="2.69652">
        <ele>134</ele>
        <time>2013-04-21T09:59:36Z</time>
      </trkpt>
      <trkpt lat="48.42358" lon="2.69652">
        <ele>134</ele>
        <time>2013-04-21T09:59:37Z</time>
      </trkpt>
      <trkpt lat="48.42358" lon="2.69654">
        <ele>134</ele>
        <time>2013-04-21T09:59:38Z</time>
      </trkpt>
      <trkpt lat="48.42358" lon="2.69654">
        <ele>134</ele>
        <time>2013-04-21T09:59:39Z</time>
      </trkpt>
      <trkpt lat="48.42358" lon="2.69659">
        <ele>134</ele>
        <time>2013-04-21T09:59:42Z</time>
      </trkpt>
      <trkpt lat="48.42359" lon="2.69661">
        <ele>134</ele>
        <time>2013-04-21T09:59:43Z</time>
      </trkpt>
      <trkpt lat="48.42359" lon="2.69664">
        <ele>134</ele>
        <time>2013-04-21T09:59:44Z</time>
      </trkpt>
      <trkpt lat="48.42361" lon="2.69667">
        <ele>134</ele>
        <time>2013-04-21T09:59:45Z</time>
      </trkpt>
      <trkpt lat="48.42362" lon="2.6967">
        <ele>134</ele>
        <time>2013-04-21T09:59:46Z</time>
      </trkpt>
      <trkpt lat="48.42365" lon="2.69673">
        <ele>135</ele>
        <time>2013-04-21T09:59:47Z</time>
      </trkpt>
      <trkpt lat="48.42367" lon="2.69676">
        <ele>135</ele>
        <time>2013-04-21T09:59:48Z</time>
      </trkpt>
      <trkpt lat="48.42369" lon="2.69681">
        <ele>135</ele>
        <time>2013-04-21T09:59:49Z</time>
      </trkpt>
      <trkpt lat="48.42371" lon="2.69685">
        <ele>135</ele>
        <time>2013-04-21T09:59:50Z</time>
      </trkpt>
      <trkpt lat="48.42376" lon="2.69698">
        <ele>136</ele>
        <time>2013-04-21T09:59:53Z</time>
      </trkpt>
      <trkpt lat="48.42376" lon="2.697">
        <ele>136</ele>
        <time>2013-04-21T09:59:54Z</time>
      </trkpt>
      <trkpt lat="48.42376" lon="2.69703">
        <ele>136</ele>
        <time>2013-04-21T09:59:56Z</time>
      </trkpt>
      <trkpt lat="48.42376" lon="2.69704">
        <ele>136</ele>
        <time>2013-04-21T09:59:57Z</time>
      </trkpt>
      <trkpt lat="48.42376" lon="2.69705">
        <ele>136</ele>
        <time>2013-04-21T09:59:58Z</time>
      </trkpt>
      <trkpt lat="48.42376" lon="2.69707">
        <ele>136</ele>
        <time>2013-04-21T09:59:59Z</time>
      </trkpt>
      <trkpt lat="48.42376" lon="2.69708">
        <ele>136</ele>
        <time>2013-04-21T10:00:00Z</time>
      </trkpt>
      <trkpt lat="48.42375" lon="2.69709">
        <ele>136</ele>
        <time>2013-04-21T10:00:01Z</time>
      </trkpt>
      <trkpt lat="48.42375" lon="2.69711">
        <ele>136</ele>
        <time>2013-04-21T10:00:02Z</time>
      </trkpt>
      <trkpt lat="48.42375" lon="2.69712">
        <ele>136</ele>
        <time>2013-04-21T10:00:03Z</time>
      </trkpt>
      <trkpt lat="48.42375" lon="2.69723">
        <ele>136</ele>
        <time>2013-04-21T10:00:07Z</time>
      </trkpt>
      <trkpt lat="48.42374" lon="2.69725">
        <ele>136</ele>
        <time>2013-04-21T10:00:08Z</time>
      </trkpt>
      <trkpt lat="48.42372" lon="2.69725">
        <ele>136</ele>
        <time>2013-04-21T10:00:09Z</time>
      </trkpt>
      <trkpt lat="48.42371" lon="2.69725">
        <ele>136</ele>
        <time>2013-04-21T10:00:10Z</time>
      </trkpt>
      <trkpt lat="48.4237" lon="2.69726">
        <ele>136</ele>
        <time>2013-04-21T10:00:11Z</time>
      </trkpt>
      <trkpt lat="48.42367" lon="2.69727">
        <ele>135</ele>
        <time>2013-04-21T10:00:12Z</time>
      </trkpt>
      <trkpt lat="48.42364" lon="2.69727">
        <ele>135</ele>
        <time>2013-04-21T10:00:13Z</time>
      </trkpt>
      <trkpt lat="48.42362" lon="2.69725">
        <ele>135</ele>
        <time>2013-04-21T10:00:14Z</time>
      </trkpt>
      <trkpt lat="48.42359" lon="2.69722">
        <ele>135</ele>
        <time>2013-04-21T10:00:15Z</time>
      </trkpt>
      <trkpt lat="48.42357" lon="2.69717">
        <ele>135</ele>
        <time>2013-04-21T10:00:16Z</time>
      </trkpt>
      <trkpt lat="48.42354" lon="2.69714">
        <ele>135</ele>
        <time>2013-04-21T10:00:17Z</time>
      </trkpt>
      <trkpt lat="48.42352" lon="2.69713">
        <ele>135</ele>
        <time>2013-04-21T10:00:18Z</time>
      </trkpt>
      <trkpt lat="48.4235" lon="2.69713">
        <ele>134</ele>
        <time>2013-04-21T10:00:19Z</time>
      </trkpt>
      <trkpt lat="48.42349" lon="2.69714">
        <ele>134</ele>
        <time>2013-04-21T10:00:20Z</time>
      </trkpt>
      <trkpt lat="48.42346" lon="2.69715">
        <ele>134</ele>
        <time>2013-04-21T10:00:21Z</time>
      </trkpt>
      <trkpt lat="48.42339" lon="2.69715">
        <ele>134</ele>
        <time>2013-04-21T10:00:23Z</time>
      </trkpt>
      <trkpt lat="48.42336" lon="2.69713">
        <ele>134</ele>
        <time>2013-04-21T10:00:24Z</time>
      </trkpt>
      <trkpt lat="48.42335" lon="2.69712">
        <ele>134</ele>
        <time>2013-04-21T10:00:25Z</time>
      </trkpt>
      <trkpt lat="48.42334" lon="2.69711">
        <ele>134</ele>
        <time>2013-04-21T10:00:26Z</time>
      </trkpt>
      <trkpt lat="48.42333" lon="2.69712">
        <ele>127</ele>
        <time>2013-04-21T10:00:27Z</time>
      </trkpt>
      <trkpt lat="48.42332" lon="2.69712">
        <ele>127</ele>
        <time>2013-04-21T10:00:29Z</time>
      </trkpt>
      <trkpt lat="48.4233" lon="2.69713">
        <ele>126</ele>
        <time>2013-04-21T10:00:30Z</time>
      </trkpt>
      <trkpt lat="48.42327" lon="2.69711">
        <ele>126</ele>
        <time>2013-04-21T10:00:32Z</time>
      </trkpt>
      <trkpt lat="48.42326" lon="2.69712">
        <ele>126</ele>
        <time>2013-04-21T10:00:33Z</time>
      </trkpt>
      <trkpt lat="48.42326" lon="2.69712">
        <ele>126</ele>
        <time>2013-04-21T10:00:34Z</time>
      </trkpt>
      <trkpt lat="48.42323" lon="2.69711">
        <ele>126</ele>
        <time>2013-04-21T10:00:36Z</time>
      </trkpt>
      <trkpt lat="48.42322" lon="2.69711">
        <ele>126</ele>
        <time>2013-04-21T10:00:37Z</time>
      </trkpt>
      <trkpt lat="48.42321" lon="2.69712">
        <ele>126</ele>
        <time>2013-04-21T10:00:38Z</time>
      </trkpt>
      <trkpt lat="48.42323" lon="2.69718">
        <ele>126</ele>
        <time>2013-04-21T10:00:40Z</time>
      </trkpt>
      <trkpt lat="48.42328" lon="2.6973">
        <ele>127</ele>
        <time>2013-04-21T10:00:43Z</time>
      </trkpt>
      <trkpt lat="48.42328" lon="2.69734">
        <ele>128</ele>
        <time>2013-04-21T10:00:44Z</time>
      </trkpt>
      <trkpt lat="48.42326" lon="2.69737">
        <ele>128</ele>
        <time>2013-04-21T10:00:45Z</time>
      </trkpt>
      <trkpt lat="48.42326" lon="2.69739">
        <ele>128</ele>
        <time>2013-04-21T10:00:46Z</time>
      </trkpt>
      <trkpt lat="48.42325" lon="2.69742">
        <ele>129</ele>
        <time>2013-04-21T10:00:47Z</time>
      </trkpt>
      <trkpt lat="48.42326" lon="2.69745">
        <ele>129</ele>
        <time>2013-04-21T10:00:48Z</time>
      </trkpt>
      <trkpt lat="48.42325" lon="2.69748">
        <ele>129</ele>
        <time>2013-04-21T10:00:50Z</time>
      </trkpt>
      <trkpt lat="48.42325" lon="2.69749">
        <ele>129</ele>
        <time>2013-04-21T10:00:51Z</time>
      </trkpt>
      <trkpt lat="48.42325" lon="2.6975">
        <ele>129</ele>
        <time>2013-04-21T10:00:52Z</time>
      </trkpt>
      <trkpt lat="48.42324" lon="2.6975">
        <ele>130</ele>
        <time>2013-04-21T10:00:53Z</time>
      </trkpt>
      <trkpt lat="48.42324" lon="2.69752">
        <ele>130</ele>
        <time>2013-04-21T10:00:55Z</time>
      </trkpt>
      <trkpt lat="48.42324" lon="2.69752">
        <ele>130</ele>
        <time>2013-04-21T10:00:56Z</time>
      </trkpt>
      <trkpt lat="48.42324" lon="2.69753">
        <ele>130</ele>
        <time>2013-04-21T10:00:57Z</time>
      </trkpt>
      <trkpt lat="48.42324" lon="2.69753">
        <ele>130</ele>
        <time>2013-04-21T10:00:58Z</time>
      </trkpt>
      <trkpt lat="48.42324" lon="2.69754">
        <ele>130</ele>
        <time>2013-04-21T10:00:59Z</time>
      </trkpt>
      <trkpt lat="48.42324" lon="2.69754">
        <ele>130</ele>
        <time>2013-04-21T10:01:00Z</time>
      </trkpt>
      <trkpt lat="48.42324" lon="2.69755">
        <ele>130</ele>
        <time>2013-04-21T10:01:01Z</time>
      </trkpt>
      <trkpt lat="48.42323" lon="2.69755">
        <ele>130</ele>
        <time>2013-04-21T10:01:02Z</time>
      </trkpt>
      <trkpt lat="48.42323" lon="2.69756">
        <ele>130</ele>
        <time>2013-04-21T10:01:03Z</time>
      </trkpt>
      <trkpt lat="48.42323" lon="2.69756">
        <ele>130</ele>
        <time>2013-04-21T10:01:04Z</time>
      </trkpt>
      <trkpt lat="48.42323" lon="2.69756">
        <ele>130</ele>
        <time>2013-04-21T10:01:05Z</time>
      </trkpt>
      <trkpt lat="48.42323" lon="2.69757">
        <ele>130</ele>
        <time>2013-04-21T10:01:06Z</time>
      </trkpt>
      <trkpt lat="48.42323" lon="2.69757">
        <ele>130</ele>
        <time>2013-04-21T10:01:07Z</time>
      </trkpt>
      <trkpt lat="48.42322" lon="2.69757">
        <ele>130</ele>
        <time>2013-04-21T10:01:08Z</time>
      </trkpt>
      <trkpt lat="48.42322" lon="2.69757">
        <ele>130</ele>
        <time>2013-04-21T10:01:09Z</time>
      </trkpt>
      <trkpt lat="48.42322" lon="2.69758">
        <ele>130</ele>
        <time>2013-04-21T10:01:10Z</time>
      </trkpt>
      <trkpt lat="48.42322" lon="2.69758">
        <ele>130</ele>
        <time>2013-04-21T10:01:11Z</time>
      </trkpt>
      <trkpt lat="48.42322" lon="2.69758">
        <ele>130</ele>
        <time>2013-04-21T10:01:12Z</time>
      </trkpt>
      <trkpt lat="48.42322" lon="2.69758">
        <ele>130</ele>
        <time>2013-04-21T10:01:13Z</time>
      </trkpt>
      <trkpt lat="48.42321" lon="2.69759">
        <ele>130</ele>
        <time>2013-04-21T10:01:14Z</time>
      </trkpt>
      <trkpt lat="48.42321" lon="2.69759">
        <ele>130</ele>
        <time>2013-04-21T10:01:15Z</time>
      </trkpt>
      <trkpt lat="48.42321" lon="2.69759">
        <ele>130</ele>
        <time>2013-04-21T10:01:16Z</time>
      </trkpt>
      <trkpt lat="48.42321" lon="2.69759">
        <ele>130</ele>
        <time>2013-04-21T10:01:17Z</time>
      </trkpt>
      <trkpt lat="48.42321" lon="2.69759">
        <ele>130</ele>
        <time>2013-04-21T10:01:18Z</time>
      </trkpt>
      <trkpt lat="48.42321" lon="2.6976">
        <ele>130</ele>
        <time>2013-04-21T10:01:19Z</time>
      </trkpt>
      <trkpt lat="48.42321" lon="2.6976">
        <ele>130</ele>
        <time>2013-04-21T10:01:20Z</time>
      </trkpt>
      <trkpt lat="48.42321" lon="2.6976">
        <ele>130</ele>
        <time>2013-04-21T10:01:21Z</time>
      </trkpt>
      <trkpt lat="48.42321" lon="2.6976">
        <ele>130</ele>
        <time>2013-04-21T10:01:22Z</time>
      </trkpt>
      <trkpt lat="48.4232" lon="2.69761">
        <ele>130</ele>
        <time>2013-04-21T10:01:24Z</time>
      </trkpt>
      <trkpt lat="48.4232" lon="2.69762">
        <ele>130</ele>
        <time>2013-04-21T10:01:25Z</time>
      </trkpt>
      <trkpt lat="48.4232" lon="2.69763">
        <ele>130</ele>
        <time>2013-04-21T10:01:26Z</time>
      </trkpt>
      <trkpt lat="48.4232" lon="2.69764">
        <ele>130</ele>
        <time>2013-04-21T10:01:27Z</time>
      </trkpt>
      <trkpt lat="48.4232" lon="2.69765">
        <ele>130</ele>
        <time>2013-04-21T10:01:28Z</time>
      </trkpt>
      <trkpt lat="48.4232" lon="2.69766">
        <ele>130</ele>
        <time>2013-04-21T10:01:29Z</time>
      </trkpt>
      <trkpt lat="48.4232" lon="2.69768">
        <ele>130</ele>
        <time>2013-04-21T10:01:30Z</time>
      </trkpt>
      <trkpt lat="48.4232" lon="2.69772">
        <ele>130</ele>
        <time>2013-04-21T10:01:32Z</time>
      </trkpt>
      <trkpt lat="48.42321" lon="2.69776">
        <ele>130</ele>
        <time>2013-04-21T10:01:34Z</time>
      </trkpt>
      <trkpt lat="48.42321" lon="2.69778">
        <ele>130</ele>
        <time>2013-04-21T10:01:35Z</time>
      </trkpt>
      <trkpt lat="48.4232" lon="2.69786">
        <ele>131</ele>
        <time>2013-04-21T10:01:39Z</time>
      </trkpt>
      <trkpt lat="48.42321" lon="2.6979">
        <ele>131</ele>
        <time>2013-04-21T10:01:41Z</time>
      </trkpt>
      <trkpt lat="48.42321" lon="2.69794">
        <ele>131</ele>
        <time>2013-04-21T10:01:43Z</time>
      </trkpt>
      <trkpt lat="48.42321" lon="2.69797">
        <ele>131</ele>
        <time>2013-04-21T10:01:45Z</time>
      </trkpt>
      <trkpt lat="48.42322" lon="2.69798">
        <ele>131</ele>
        <time>2013-04-21T10:01:46Z</time>
      </trkpt>
      <trkpt lat="48.42323" lon="2.69799">
        <ele>131</ele>
        <time>2013-04-21T10:01:47Z</time>
      </trkpt>
      <trkpt lat="48.42323" lon="2.69803">
        <ele>132</ele>
        <time>2013-04-21T10:01:50Z</time>
      </trkpt>
      <trkpt lat="48.42323" lon="2.69803">
        <ele>132</ele>
        <time>2013-04-21T10:01:51Z</time>
      </trkpt>
      <trkpt lat="48.42323" lon="2.69803">
        <ele>132</ele>
        <time>2013-04-21T10:01:52Z</time>
      </trkpt>
      <trkpt lat="48.42323" lon="2.69803">
        <ele>132</ele>
        <time>2013-04-21T10:01:53Z</time>
      </trkpt>
      <trkpt lat="48.42324" lon="2.69803">
        <ele>132</ele>
        <time>2013-04-21T10:01:54Z</time>
      </trkpt>
      <trkpt lat="48.42325" lon="2.69803">
        <ele>132</ele>
        <time>2013-04-21T10:01:55Z</time>
      </trkpt>
      <trkpt lat="48.42326" lon="2.69804">
        <ele>132</ele>
        <time>2013-04-21T10:01:56Z</time>
      </trkpt>
      <trkpt lat="48.42326" lon="2.69804">
        <ele>132</ele>
        <time>2013-04-21T10:01:57Z</time>
      </trkpt>
      <trkpt lat="48.42326" lon="2.69804">
        <ele>132</ele>
        <time>2013-04-21T10:01:58Z</time>
      </trkpt>
      <trkpt lat="48.42326" lon="2.69805">
        <ele>132</ele>
        <time>2013-04-21T10:02:01Z</time>
      </trkpt>
      <trkpt lat="48.42326" lon="2.69805">
        <ele>132</ele>
        <time>2013-04-21T10:02:02Z</time>
      </trkpt>
      <trkpt lat="48.42327" lon="2.69806">
        <ele>132</ele>
        <time>2013-04-21T10:02:03Z</time>
      </trkpt>
      <trkpt lat="48.42327" lon="2.69807">
        <ele>132</ele>
        <time>2013-04-21T10:02:04Z</time>
      </trkpt>
      <trkpt lat="48.42326" lon="2.69809">
        <ele>132</ele>
        <time>2013-04-21T10:02:06Z</time>
      </trkpt>
      <trkpt lat="48.42324" lon="2.6981">
        <ele>133</ele>
        <time>2013-04-21T10:02:10Z</time>
      </trkpt>
      <trkpt lat="48.42323" lon="2.6981">
        <ele>132</ele>
        <time>2013-04-21T10:02:11Z</time>
      </trkpt>
      <trkpt lat="48.42322" lon="2.6981">
        <ele>132</ele>
        <time>2013-04-21T10:02:12Z</time>
      </trkpt>
      <trkpt lat="48.42322" lon="2.69811">
        <ele>132</ele>
        <time>2013-04-21T10:02:13Z</time>
      </trkpt>
      <trkpt lat="48.42321" lon="2.69811">
        <ele>132</ele>
        <time>2013-04-21T10:02:14Z</time>
      </trkpt>
      <trkpt lat="48.4232" lon="2.69811">
        <ele>132</ele>
        <time>2013-04-21T10:02:15Z</time>
      </trkpt>
      <trkpt lat="48.4232" lon="2.69811">
        <ele>132</ele>
        <time>2013-04-21T10:02:16Z</time>
      </trkpt>
      <trkpt lat="48.42319" lon="2.6981">
        <ele>132</ele>
        <time>2013-04-21T10:02:18Z</time>
      </trkpt>
      <trkpt lat="48.42318" lon="2.6981">
        <ele>132</ele>
        <time>2013-04-21T10:02:19Z</time>
      </trkpt>
      <trkpt lat="48.42316" lon="2.69809">
        <ele>132</ele>
        <time>2013-04-21T10:02:21Z</time>
      </trkpt>
      <trkpt lat="48.42315" lon="2.6981">
        <ele>132</ele>
        <time>2013-04-21T10:02:23Z</time>
      </trkpt>
      <trkpt lat="48.42314" lon="2.69812">
        <ele>132</ele>
        <time>2013-04-21T10:02:25Z</time>
      </trkpt>
      <trkpt lat="48.42314" lon="2.69812">
        <ele>132</ele>
        <time>2013-04-21T10:02:26Z</time>
      </trkpt>
      <trkpt lat="48.42314" lon="2.69813">
        <ele>132</ele>
        <time>2013-04-21T10:02:27Z</time>
      </trkpt>
      <trkpt lat="48.42313" lon="2.69813">
        <ele>132</ele>
        <time>2013-04-21T10:02:28Z</time>
      </trkpt>
      <trkpt lat="48.42313" lon="2.69814">
        <ele>132</ele>
        <time>2013-04-21T10:02:29Z</time>
      </trkpt>
      <trkpt lat="48.42314" lon="2.69814">
        <ele>132</ele>
        <time>2013-04-21T10:02:30Z</time>
      </trkpt>
      <trkpt lat="48.42315" lon="2.69815">
        <ele>132</ele>
        <time>2013-04-21T10:02:32Z</time>
      </trkpt>
      <trkpt lat="48.42315" lon="2.69815">
        <ele>132</ele>
        <time>2013-04-21T10:02:33Z</time>
      </trkpt>
      <trkpt lat="48.42316" lon="2.69817">
        <ele>132</ele>
        <time>2013-04-21T10:02:35Z</time>
      </trkpt>
      <trkpt lat="48.42316" lon="2.69817">
        <ele>133</ele>
        <time>2013-04-21T10:02:36Z</time>
      </trkpt>
      <trkpt lat="48.42316" lon="2.69817">
        <ele>133</ele>
        <time>2013-04-21T10:02:37Z</time>
      </trkpt>
      <trkpt lat="48.42318" lon="2.69819">
        <ele>133</ele>
        <time>2013-04-21T10:02:42Z</time>
      </trkpt>
      <trkpt lat="48.42318" lon="2.6982">
        <ele>133</ele>
        <time>2013-04-21T10:02:43Z</time>
      </trkpt>
      <trkpt lat="48.42319" lon="2.6982">
        <ele>133</ele>
        <time>2013-04-21T10:02:44Z</time>
      </trkpt>
      <trkpt lat="48.42318" lon="2.6982">
        <ele>133</ele>
        <time>2013-04-21T10:02:45Z</time>
      </trkpt>
      <trkpt lat="48.42318" lon="2.6982">
        <ele>133</ele>
        <time>2013-04-21T10:02:46Z</time>
      </trkpt>
      <trkpt lat="48.42317" lon="2.69822">
        <ele>133</ele>
        <time>2013-04-21T10:02:49Z</time>
      </trkpt>
      <trkpt lat="48.42316" lon="2.69822">
        <ele>133</ele>
        <time>2013-04-21T10:02:50Z</time>
      </trkpt>
      <trkpt lat="48.42316" lon="2.69821">
        <ele>133</ele>
        <time>2013-04-21T10:02:51Z</time>
      </trkpt>
      <trkpt lat="48.42315" lon="2.69821">
        <ele>133</ele>
        <time>2013-04-21T10:02:52Z</time>
      </trkpt>
      <trkpt lat="48.42315" lon="2.69821">
        <ele>133</ele>
        <time>2013-04-21T10:02:53Z</time>
      </trkpt>
      <trkpt lat="48.42314" lon="2.69821">
        <ele>133</ele>
        <time>2013-04-21T10:02:54Z</time>
      </trkpt>
      <trkpt lat="48.42314" lon="2.69821">
        <ele>133</ele>
        <time>2013-04-21T10:02:55Z</time>
      </trkpt>
      <trkpt lat="48.42314" lon="2.69822">
        <ele>133</ele>
        <time>2013-04-21T10:02:56Z</time>
      </trkpt>
      <trkpt lat="48.42314" lon="2.69823">
        <ele>133</ele>
        <time>2013-04-21T10:02:57Z</time>
      </trkpt>
      <trkpt lat="48.42314" lon="2.69824">
        <ele>133</ele>
        <time>2013-04-21T10:02:59Z</time>
      </trkpt>
      <trkpt lat="48.42315" lon="2.69825">
        <ele>133</ele>
        <time>2013-04-21T10:03:00Z</time>
      </trkpt>
      <trkpt lat="48.42315" lon="2.69825">
        <ele>133</ele>
        <time>2013-04-21T10:03:01Z</time>
      </trkpt>
      <trkpt lat="48.42316" lon="2.69826">
        <ele>133</ele>
        <time>2013-04-21T10:03:02Z</time>
      </trkpt>
      <trkpt lat="48.42316" lon="2.69827">
        <ele>133</ele>
        <time>2013-04-21T10:03:03Z</time>
      </trkpt>
      <trkpt lat="48.42316" lon="2.69828">
        <ele>133</ele>
        <time>2013-04-21T10:03:04Z</time>
      </trkpt>
      <trkpt lat="48.42316" lon="2.69829">
        <ele>133</ele>
        <time>2013-04-21T10:03:05Z</time>
      </trkpt>
      <trkpt lat="48.42317" lon="2.6983">
        <ele>134</ele>
        <time>2013-04-21T10:03:07Z</time>
      </trkpt>
      <trkpt lat="48.42317" lon="2.69831">
        <ele>134</ele>
        <time>2013-04-21T10:03:09Z</time>
      </trkpt>
      <trkpt lat="48.42317" lon="2.69832">
        <ele>134</ele>
        <time>2013-04-21T10:03:11Z</time>
      </trkpt>
      <trkpt lat="48.42318" lon="2.69833">
        <ele>134</ele>
        <time>2013-04-21T10:03:12Z</time>
      </trkpt>
      <trkpt lat="48.42318" lon="2.69833">
        <ele>134</ele>
        <time>2013-04-21T10:03:13Z</time>
      </trkpt>
      <trkpt lat="48.42318" lon="2.69833">
        <ele>134</ele>
        <time>2013-04-21T10:03:14Z</time>
      </trkpt>
      <trkpt lat="48.42318" lon="2.69833">
        <ele>134</ele>
        <time>2013-04-21T10:03:15Z</time>
      </trkpt>
      <trkpt lat="48.42318" lon="2.69834">
        <ele>136</ele>
        <time>2013-04-21T10:03:16Z</time>
      </trkpt>
      <trkpt lat="48.42318" lon="2.69834">
        <ele>136</ele>
        <time>2013-04-21T10:03:17Z</time>
      </trkpt>
      <trkpt lat="48.42319" lon="2.69834">
        <ele>136</ele>
        <time>2013-04-21T10:03:18Z</time>
      </trkpt>
      <trkpt lat="48.4232" lon="2.69834">
        <ele>136</ele>
        <time>2013-04-21T10:03:21Z</time>
      </trkpt>
      <trkpt lat="48.42321" lon="2.69834">
        <ele>136</ele>
        <time>2013-04-21T10:03:22Z</time>
      </trkpt>
      <trkpt lat="48.42322" lon="2.69835">
        <ele>136</ele>
        <time>2013-04-21T10:03:23Z</time>
      </trkpt>
      <trkpt lat="48.42322" lon="2.69835">
        <ele>136</ele>
        <time>2013-04-21T10:03:24Z</time>
      </trkpt>
      <trkpt lat="48.42322" lon="2.69835">
        <ele>136</ele>
        <time>2013-04-21T10:03:25Z</time>
      </trkpt>
      <trkpt lat="48.42322" lon="2.69836">
        <ele>136</ele>
        <time>2013-04-21T10:03:26Z</time>
      </trkpt>
      <trkpt lat="48.42323" lon="2.69836">
        <ele>136</ele>
        <time>2013-04-21T10:03:27Z</time>
      </trkpt>
      <trkpt lat="48.42323" lon="2.69837">
        <ele>136</ele>
        <time>2013-04-21T10:03:28Z</time>
      </trkpt>
      <trkpt lat="48.42323" lon="2.69837">
        <ele>136</ele>
        <time>2013-04-21T10:03:29Z</time>
      </trkpt>
      <trkpt lat="48.42323" lon="2.69837">
        <ele>136</ele>
        <time>2013-04-21T10:03:30Z</time>
      </trkpt>
      <trkpt lat="48.42324" lon="2.69837">
        <ele>136</ele>
        <time>2013-04-21T10:03:31Z</time>
      </trkpt>
      <trkpt lat="48.42325" lon="2.69837">
        <ele>137</ele>
        <time>2013-04-21T10:03:34Z</time>
      </trkpt>
      <trkpt lat="48.42325" lon="2.69837">
        <ele>137</ele>
        <time>2013-04-21T10:03:35Z</time>
      </trkpt>
      <trkpt lat="48.42325" lon="2.69837">
        <ele>137</ele>
        <time>2013-04-21T10:03:36Z</time>
      </trkpt>
      <trkpt lat="48.42325" lon="2.69837">
        <ele>137</ele>
        <time>2013-04-21T10:03:37Z</time>
      </trkpt>
      <trkpt lat="48.42325" lon="2.69837">
        <ele>137</ele>
        <time>2013-04-21T10:03:38Z</time>
      </trkpt>
      <trkpt lat="48.42325" lon="2.69836">
        <ele>137</ele>
        <time>2013-04-21T10:03:39Z</time>
      </trkpt>
      <trkpt lat="48.42324" lon="2.69836">
        <ele>137</ele>
        <time>2013-04-21T10:03:40Z</time>
      </trkpt>
      <trkpt lat="48.42323" lon="2.69836">
        <ele>136</ele>
        <time>2013-04-21T10:03:41Z</time>
      </trkpt>
      <trkpt lat="48.42323" lon="2.69836">
        <ele>136</ele>
        <time>2013-04-21T10:03:42Z</time>
      </trkpt>
      <trkpt lat="48.42322" lon="2.69837">
        <ele>136</ele>
        <time>2013-04-21T10:03:43Z</time>
      </trkpt>
      <trkpt lat="48.42321" lon="2.69837">
        <ele>136</ele>
        <time>2013-04-21T10:03:44Z</time>
      </trkpt>
      <trkpt lat="48.4232" lon="2.69836">
        <ele>136</ele>
        <time>2013-04-21T10:03:48Z</time>
      </trkpt>
      <trkpt lat="48.4232" lon="2.69835">
        <ele>136</ele>
        <time>2013-04-21T10:03:49Z</time>
      </trkpt>
      <trkpt lat="48.4232" lon="2.69835">
        <ele>136</ele>
        <time>2013-04-21T10:03:50Z</time>
      </trkpt>
      <trkpt lat="48.4232" lon="2.69835">
        <ele>136</ele>
        <time>2013-04-21T10:03:52Z</time>
      </trkpt>
      <trkpt lat="48.4232" lon="2.69834">
        <ele>136</ele>
        <time>2013-04-21T10:03:53Z</time>
      </trkpt>
      <trkpt lat="48.42319" lon="2.69833">
        <ele>134</ele>
        <time>2013-04-21T10:03:56Z</time>
      </trkpt>
      <trkpt lat="48.42319" lon="2.69832">
        <ele>134</ele>
        <time>2013-04-21T10:03:57Z</time>
      </trkpt>
      <trkpt lat="48.42319" lon="2.69832">
        <ele>134</ele>
        <time>2013-04-21T10:03:58Z</time>
      </trkpt>
      <trkpt lat="48.42319" lon="2.69832">
        <ele>134</ele>
        <time>2013-04-21T10:03:59Z</time>
      </trkpt>
      <trkpt lat="48.42319" lon="2.69831">
        <ele>134</ele>
        <time>2013-04-21T10:04:01Z</time>
      </trkpt>
      <trkpt lat="48.42319" lon="2.69831">
        <ele>134</ele>
        <time>2013-04-21T10:04:02Z</time>
      </trkpt>
      <trkpt lat="48.42319" lon="2.6983">
        <ele>134</ele>
        <time>2013-04-21T10:04:03Z</time>
      </trkpt>
      <trkpt lat="48.42318" lon="2.6983">
        <ele>134</ele>
        <time>2013-04-21T10:04:06Z</time>
      </trkpt>
      <trkpt lat="48.42318" lon="2.6983">
        <ele>134</ele>
        <time>2013-04-21T10:04:07Z</time>
      </trkpt>
      <trkpt lat="48.42317" lon="2.69831">
        <ele>134</ele>
        <time>2013-04-21T10:04:08Z</time>
      </trkpt>
      <trkpt lat="48.42317" lon="2.69831">
        <ele>134</ele>
        <time>2013-04-21T10:04:09Z</time>
      </trkpt>
      <trkpt lat="48.42316" lon="2.69831">
        <ele>134</ele>
        <time>2013-04-21T10:04:10Z</time>
      </trkpt>
      <trkpt lat="48.42315" lon="2.69831">
        <ele>133</ele>
        <time>2013-04-21T10:04:13Z</time>
      </trkpt>
      <trkpt lat="48.42314" lon="2.69831">
        <ele>133</ele>
        <time>2013-04-21T10:04:14Z</time>
      </trkpt>
      <trkpt lat="48.42314" lon="2.69831">
        <ele>133</ele>
        <time>2013-04-21T10:04:15Z</time>
      </trkpt>
      <trkpt lat="48.42313" lon="2.69831">
        <ele>133</ele>
        <time>2013-04-21T10:04:16Z</time>
      </trkpt>
      <trkpt lat="48.42313" lon="2.69831">
        <ele>133</ele>
        <time>2013-04-21T10:04:17Z</time>
      </trkpt>
      <trkpt lat="48.42313" lon="2.69831">
        <ele>133</ele>
        <time>2013-04-21T10:04:18Z</time>
      </trkpt>
      <trkpt lat="48.42311" lon="2.69831">
        <ele>133</ele>
        <time>2013-04-21T10:04:20Z</time>
      </trkpt>
      <trkpt lat="48.42311" lon="2.69832">
        <ele>133</ele>
        <time>2013-04-21T10:04:21Z</time>
      </trkpt>
      <trkpt lat="48.42311" lon="2.69832">
        <ele>133</ele>
        <time>2013-04-21T10:04:22Z</time>
      </trkpt>
      <trkpt lat="48.4231" lon="2.69832">
        <ele>133</ele>
        <time>2013-04-21T10:04:23Z</time>
      </trkpt>
      <trkpt lat="48.4231" lon="2.69832">
        <ele>133</ele>
        <time>2013-04-21T10:04:24Z</time>
      </trkpt>
      <trkpt lat="48.42309" lon="2.69832">
        <ele>133</ele>
        <time>2013-04-21T10:04:25Z</time>
      </trkpt>
      <trkpt lat="48.42309" lon="2.69833">
        <ele>132</ele>
        <time>2013-04-21T10:04:26Z</time>
      </trkpt>
      <trkpt lat="48.42308" lon="2.69833">
        <ele>132</ele>
        <time>2013-04-21T10:04:27Z</time>
      </trkpt>
      <trkpt lat="48.42307" lon="2.69832">
        <ele>132</ele>
        <time>2013-04-21T10:04:28Z</time>
      </trkpt>
      <trkpt lat="48.42306" lon="2.69831">
        <ele>132</ele>
        <time>2013-04-21T10:04:29Z</time>
      </trkpt>
      <trkpt lat="48.42305" lon="2.6983">
        <ele>132</ele>
        <time>2013-04-21T10:04:30Z</time>
      </trkpt>
      <trkpt lat="48.42305" lon="2.69829">
        <ele>132</ele>
        <time>2013-04-21T10:04:31Z</time>
      </trkpt>
      <trkpt lat="48.42303" lon="2.69827">
        <ele>132</ele>
        <time>2013-04-21T10:04:32Z</time>
      </trkpt>
      <trkpt lat="48.423" lon="2.69825">
        <ele>131</ele>
        <time>2013-04-21T10:04:34Z</time>
      </trkpt>
      <trkpt lat="48.42295" lon="2.69819">
        <ele>130</ele>
        <time>2013-04-21T10:04:37Z</time>
      </trkpt>
      <trkpt lat="48.42293" lon="2.69818">
        <ele>130</ele>
        <time>2013-04-21T10:04:38Z</time>
      </trkpt>
      <trkpt lat="48.42291" lon="2.69817">
        <ele>130</ele>
        <time>2013-04-21T10:04:39Z</time>
      </trkpt>
      <trkpt lat="48.42288" lon="2.69817">
        <ele>130</ele>
        <time>2013-04-21T10:04:41Z</time>
      </trkpt>
      <trkpt lat="48.42286" lon="2.69816">
        <ele>130</ele>
        <time>2013-04-21T10:04:42Z</time>
      </trkpt>
      <trkpt lat="48.42285" lon="2.69816">
        <ele>130</ele>
        <time>2013-04-21T10:04:43Z</time>
      </trkpt>
      <trkpt lat="48.42285" lon="2.69817">
        <ele>130</ele>
        <time>2013-04-21T10:04:44Z</time>
      </trkpt>
      <trkpt lat="48.42285" lon="2.69817">
        <ele>130</ele>
        <time>2013-04-21T10:04:45Z</time>
      </trkpt>
      <trkpt lat="48.42284" lon="2.69816">
        <ele>129</ele>
        <time>2013-04-21T10:04:46Z</time>
      </trkpt>
      <trkpt lat="48.42282" lon="2.69815">
        <ele>129</ele>
        <time>2013-04-21T10:04:47Z</time>
      </trkpt>
      <trkpt lat="48.42279" lon="2.69816">
        <ele>129</ele>
        <time>2013-04-21T10:04:49Z</time>
      </trkpt>
      <trkpt lat="48.42278" lon="2.69818">
        <ele>129</ele>
        <time>2013-04-21T10:04:50Z</time>
      </trkpt>
      <trkpt lat="48.42273" lon="2.69825">
        <ele>129</ele>
        <time>2013-04-21T10:04:53Z</time>
      </trkpt>
      <trkpt lat="48.42273" lon="2.69827">
        <ele>129</ele>
        <time>2013-04-21T10:04:54Z</time>
      </trkpt>
      <trkpt lat="48.42272" lon="2.69827">
        <ele>129</ele>
        <time>2013-04-21T10:04:55Z</time>
      </trkpt>
      <trkpt lat="48.42272" lon="2.69827">
        <ele>129</ele>
        <time>2013-04-21T10:04:56Z</time>
      </trkpt>
      <trkpt lat="48.42272" lon="2.69827">
        <ele>129</ele>
        <time>2013-04-21T10:04:57Z</time>
      </trkpt>
      <trkpt lat="48.42272" lon="2.69827">
        <ele>129</ele>
        <time>2013-04-21T10:04:58Z</time>
      </trkpt>
      <trkpt lat="48.42272" lon="2.69828">
        <ele>129</ele>
        <time>2013-04-21T10:04:59Z</time>
      </trkpt>
      <trkpt lat="48.42273" lon="2.69828">
        <ele>129</ele>
        <time>2013-04-21T10:05:00Z</time>
      </trkpt>
      <trkpt lat="48.42274" lon="2.69829">
        <ele>129</ele>
        <time>2013-04-21T10:05:01Z</time>
      </trkpt>
      <trkpt lat="48.42274" lon="2.69829">
        <ele>129</ele>
        <time>2013-04-21T10:05:02Z</time>
      </trkpt>
      <trkpt lat="48.42274" lon="2.69829">
        <ele>129</ele>
        <time>2013-04-21T10:05:03Z</time>
      </trkpt>
      <trkpt lat="48.42274" lon="2.6983">
        <ele>129</ele>
        <time>2013-04-21T10:05:05Z</time>
      </trkpt>
      <trkpt lat="48.42274" lon="2.6983">
        <ele>129</ele>
        <time>2013-04-21T10:05:06Z</time>
      </trkpt>
      <trkpt lat="48.42275" lon="2.6983">
        <ele>129</ele>
        <time>2013-04-21T10:05:07Z</time>
      </trkpt>
      <trkpt lat="48.42275" lon="2.69831">
        <ele>129</ele>
        <time>2013-04-21T10:05:08Z</time>
      </trkpt>
      <trkpt lat="48.42276" lon="2.69832">
        <ele>129</ele>
        <time>2013-04-21T10:05:09Z</time>
      </trkpt>
      <trkpt lat="48.42277" lon="2.69832">
        <ele>129</ele>
        <time>2013-04-21T10:05:10Z</time>
      </trkpt>
      <trkpt lat="48.42278" lon="2.69831">
        <ele>129</ele>
        <time>2013-04-21T10:05:12Z</time>
      </trkpt>
      <trkpt lat="48.42279" lon="2.69831">
        <ele>129</ele>
        <time>2013-04-21T10:05:13Z</time>
      </trkpt>
      <trkpt lat="48.4228" lon="2.69832">
        <ele>129</ele>
        <time>2013-04-21T10:05:14Z</time>
      </trkpt>
      <trkpt lat="48.4228" lon="2.69832">
        <ele>129</ele>
        <time>2013-04-21T10:05:15Z</time>
      </trkpt>
      <trkpt lat="48.42281" lon="2.69832">
        <ele>129</ele>
        <time>2013-04-21T10:05:18Z</time>
      </trkpt>
      <trkpt lat="48.42281" lon="2.69832">
        <ele>129</ele>
        <time>2013-04-21T10:05:19Z</time>
      </trkpt>
      <trkpt lat="48.42281" lon="2.69832">
        <ele>129</ele>
        <time>2013-04-21T10:05:21Z</time>
      </trkpt>
      <trkpt lat="48.42281" lon="2.69832">
        <ele>129</ele>
        <time>2013-04-21T10:05:22Z</time>
      </trkpt>
      <trkpt lat="48.42281" lon="2.69832">
        <ele>129</ele>
        <time>2013-04-21T10:05:23Z</time>
      </trkpt>
      <trkpt lat="48.42281" lon="2.69832">
        <ele>130</ele>
        <time>2013-04-21T10:05:24Z</time>
      </trkpt>
      <trkpt lat="48.42282" lon="2.69832">
        <ele>130</ele>
        <time>2013-04-21T10:05:25Z</time>
      </trkpt>
      <trkpt lat="48.42284" lon="2.69832">
        <ele>130</ele>
        <time>2013-04-21T10:05:27Z</time>
      </trkpt>
      <trkpt lat="48.42285" lon="2.69833">
        <ele>130</ele>
        <time>2013-04-21T10:05:28Z</time>
      </trkpt>
      <trkpt lat="48.42288" lon="2.69836">
        <ele>133</ele>
        <time>2013-04-21T10:05:31Z</time>
      </trkpt>
      <trkpt lat="48.42291" lon="2.69836">
        <ele>133</ele>
        <time>2013-04-21T10:05:32Z</time>
      </trkpt>
      <trkpt lat="48.42292" lon="2.69837">
        <ele>133</ele>
        <time>2013-04-21T10:05:33Z</time>
      </trkpt>
      <trkpt lat="48.42292" lon="2.69838">
        <ele>133</ele>
        <time>2013-04-21T10:05:34Z</time>
      </trkpt>
      <trkpt lat="48.42292" lon="2.69839">
        <ele>133</ele>
        <time>2013-04-21T10:05:35Z</time>
      </trkpt>
      <trkpt lat="48.42292" lon="2.69839">
        <ele>133</ele>
        <time>2013-04-21T10:05:36Z</time>
      </trkpt>
      <trkpt lat="48.42292" lon="2.69839">
        <ele>133</ele>
        <time>2013-04-21T10:05:38Z</time>
      </trkpt>
      <trkpt lat="48.42293" lon="2.6984">
        <ele>133</ele>
        <time>2013-04-21T10:05:39Z</time>
      </trkpt>
      <trkpt lat="48.42293" lon="2.6984">
        <ele>133</ele>
        <time>2013-04-21T10:05:40Z</time>
      </trkpt>
      <trkpt lat="48.42293" lon="2.69841">
        <ele>133</ele>
        <time>2013-04-21T10:05:41Z</time>
      </trkpt>
      <trkpt lat="48.42293" lon="2.69842">
        <ele>133</ele>
        <time>2013-04-21T10:05:42Z</time>
      </trkpt>
      <trkpt lat="48.42293" lon="2.69842">
        <ele>133</ele>
        <time>2013-04-21T10:05:43Z</time>
      </trkpt>
      <trkpt lat="48.42293" lon="2.69843">
        <ele>133</ele>
        <time>2013-04-21T10:05:44Z</time>
      </trkpt>
      <trkpt lat="48.42293" lon="2.69844">
        <ele>133</ele>
        <time>2013-04-21T10:05:45Z</time>
      </trkpt>
      <trkpt lat="48.42293" lon="2.69844">
        <ele>133</ele>
        <time>2013-04-21T10:05:46Z</time>
      </trkpt>
      <trkpt lat="48.42293" lon="2.69844">
        <ele>133</ele>
        <time>2013-04-21T10:05:47Z</time>
      </trkpt>
      <trkpt lat="48.42293" lon="2.69844">
        <ele>133</ele>
        <time>2013-04-21T10:05:49Z</time>
      </trkpt>
      <trkpt lat="48.42293" lon="2.69845">
        <ele>133</ele>
        <time>2013-04-21T10:05:50Z</time>
      </trkpt>
      <trkpt lat="48.42293" lon="2.69845">
        <ele>133</ele>
        <time>2013-04-21T10:05:51Z</time>
      </trkpt>
      <trkpt lat="48.42292" lon="2.69845">
        <ele>133</ele>
        <time>2013-04-21T10:05:52Z</time>
      </trkpt>
      <trkpt lat="48.42292" lon="2.69845">
        <ele>133</ele>
        <time>2013-04-21T10:05:53Z</time>
      </trkpt>
      <trkpt lat="48.42292" lon="2.69845">
        <ele>133</ele>
        <time>2013-04-21T10:05:54Z</time>
      </trkpt>
      <trkpt lat="48.42292" lon="2.69845">
        <ele>133</ele>
        <time>2013-04-21T10:05:55Z</time>
      </trkpt>
      <trkpt lat="48.42292" lon="2.69846">
        <ele>133</ele>
        <time>2013-04-21T10:05:56Z</time>
      </trkpt>
      <trkpt lat="48.42292" lon="2.69846">
        <ele>133</ele>
        <time>2013-04-21T10:05:57Z</time>
      </trkpt>
      <trkpt lat="48.42292" lon="2.69846">
        <ele>133</ele>
        <time>2013-04-21T10:05:59Z</time>
      </trkpt>
      <trkpt lat="48.42292" lon="2.69846">
        <ele>133</ele>
        <time>2013-04-21T10:06:00Z</time>
      </trkpt>
      <trkpt lat="48.42292" lon="2.69846">
        <ele>133</ele>
        <time>2013-04-21T10:06:01Z</time>
      </trkpt>
      <trkpt lat="48.42292" lon="2.69846">
        <ele>133</ele>
        <time>2013-04-21T10:06:02Z</time>
      </trkpt>
      <trkpt lat="48.42292" lon="2.69847">
        <ele>133</ele>
        <time>2013-04-21T10:06:03Z</time>
      </trkpt>
      <trkpt lat="48.42292" lon="2.69847">
        <ele>133</ele>
        <time>2013-04-21T10:06:04Z</time>
      </trkpt>
      <trkpt lat="48.42292" lon="2.69847">
        <ele>133</ele>
        <time>2013-04-21T10:06:06Z</time>
      </trkpt>
      <trkpt lat="48.42292" lon="2.69847">
        <ele>133</ele>
        <time>2013-04-21T10:06:07Z</time>
      </trkpt>
      <trkpt lat="48.42292" lon="2.69847">
        <ele>133</ele>
        <time>2013-04-21T10:06:09Z</time>
      </trkpt>
      <trkpt lat="48.42292" lon="2.69847">
        <ele>133</ele>
        <time>2013-04-21T10:06:10Z</time>
      </trkpt>
      <trkpt lat="48.42292" lon="2.69847">
        <ele>133</ele>
        <time>2013-04-21T10:06:11Z</time>
      </trkpt>
      <trkpt lat="48.42292" lon="2.69848">
        <ele>133</ele>
        <time>2013-04-21T10:06:12Z</time>
      </trkpt>
      <trkpt lat="48.42292" lon="2.69848">
        <ele>133</ele>
        <time>2013-04-21T10:06:13Z</time>
      </trkpt>
      <trkpt lat="48.42292" lon="2.69848">
        <ele>133</ele>
        <time>2013-04-21T10:06:15Z</time>
      </trkpt>
      <trkpt lat="48.42292" lon="2.69848">
        <ele>133</ele>
        <time>2013-04-21T10:06:16Z</time>
      </trkpt>
      <trkpt lat="48.42292" lon="2.69848">
        <ele>133</ele>
        <time>2013-04-21T10:06:17Z</time>
      </trkpt>
      <trkpt lat="48.42292" lon="2.69848">
        <ele>133</ele>
        <time>2013-04-21T10:06:20Z</time>
      </trkpt>
      <trkpt lat="48.42292" lon="2.69848">
        <ele>133</ele>
        <time>2013-04-21T10:06:24Z</time>
      </trkpt>
      <trkpt lat="48.42303" lon="2.69846">
        <ele>134</ele>
        <time>2013-04-21T10:43:32Z</time>
      </trkpt>
      <trkpt lat="48.42303" lon="2.69846">
        <ele>134</ele>
        <time>2013-04-21T10:43:33Z</time>
      </trkpt>
      <trkpt lat="48.42303" lon="2.69846">
        <ele>134</ele>
        <time>2013-04-21T10:43:34Z</time>
      </trkpt>
      <trkpt lat="48.42303" lon="2.69846">
        <ele>134</ele>
        <time>2013-04-21T10:43:35Z</time>
      </trkpt>
      <trkpt lat="48.42303" lon="2.69846">
        <ele>134</ele>
        <time>2013-04-21T10:43:36Z</time>
      </trkpt>
      <trkpt lat="48.42303" lon="2.69846">
        <ele>134</ele>
        <time>2013-04-21T10:43:37Z</time>
      </trkpt>
      <trkpt lat="48.42304" lon="2.69846">
        <ele>134</ele>
        <time>2013-04-21T10:43:39Z</time>
      </trkpt>
      <trkpt lat="48.42304" lon="2.69847">
        <ele>134</ele>
        <time>2013-04-21T10:43:40Z</time>
      </trkpt>
      <trkpt lat="48.42305" lon="2.69847">
        <ele>134</ele>
        <time>2013-04-21T10:43:41Z</time>
      </trkpt>
      <trkpt lat="48.42304" lon="2.69848">
        <ele>134</ele>
        <time>2013-04-21T10:43:44Z</time>
      </trkpt>
      <trkpt lat="48.42304" lon="2.69848">
        <ele>134</ele>
        <time>2013-04-21T10:43:45Z</time>
      </trkpt>
      <trkpt lat="48.42304" lon="2.69848">
        <ele>134</ele>
        <time>2013-04-21T10:43:46Z</time>
      </trkpt>
      <trkpt lat="48.42304" lon="2.69849">
        <ele>134</ele>
        <time>2013-04-21T10:43:47Z</time>
      </trkpt>
      <trkpt lat="48.42304" lon="2.69849">
        <ele>134</ele>
        <time>2013-04-21T10:43:48Z</time>
      </trkpt>
      <trkpt lat="48.42304" lon="2.6985">
        <ele>134</ele>
        <time>2013-04-21T10:43:49Z</time>
      </trkpt>
      <trkpt lat="48.42303" lon="2.6985">
        <ele>134</ele>
        <time>2013-04-21T10:43:50Z</time>
      </trkpt>
      <trkpt lat="48.42303" lon="2.6985">
        <ele>134</ele>
        <time>2013-04-21T10:43:51Z</time>
      </trkpt>
      <trkpt lat="48.42303" lon="2.69851">
        <ele>134</ele>
        <time>2013-04-21T10:43:52Z</time>
      </trkpt>
      <trkpt lat="48.42303" lon="2.69851">
        <ele>134</ele>
        <time>2013-04-21T10:43:53Z</time>
      </trkpt>
      <trkpt lat="48.42303" lon="2.69851">
        <ele>134</ele>
        <time>2013-04-21T10:43:54Z</time>
      </trkpt>
      <trkpt lat="48.42302" lon="2.69851">
        <ele>134</ele>
        <time>2013-04-21T10:43:55Z</time>
      </trkpt>
      <trkpt lat="48.42302" lon="2.69852">
        <ele>134</ele>
        <time>2013-04-21T10:43:56Z</time>
      </trkpt>
      <trkpt lat="48.42302" lon="2.69852">
        <ele>134</ele>
        <time>2013-04-21T10:43:57Z</time>
      </trkpt>
      <trkpt lat="48.42302" lon="2.69852">
        <ele>134</ele>
        <time>2013-04-21T10:43:58Z</time>
      </trkpt>
      <trkpt lat="48.42302" lon="2.69852">
        <ele>134</ele>
        <time>2013-04-21T10:43:59Z</time>
      </trkpt>
      <trkpt lat="48.42302" lon="2.69852">
        <ele>134</ele>
        <time>2013-04-21T10:44:00Z</time>
      </trkpt>
      <trkpt lat="48.42301" lon="2.69853">
        <ele>134</ele>
        <time>2013-04-21T10:44:01Z</time>
      </trkpt>
      <trkpt lat="48.42302" lon="2.69854">
        <ele>134</ele>
        <time>2013-04-21T10:44:02Z</time>
      </trkpt>
      <trkpt lat="48.42302" lon="2.69855">
        <ele>134</ele>
        <time>2013-04-21T10:44:03Z</time>
      </trkpt>
      <trkpt lat="48.42303" lon="2.69856">
        <ele>134</ele>
        <time>2013-04-21T10:44:04Z</time>
      </trkpt>
      <trkpt lat="48.42304" lon="2.69857">
        <ele>134</ele>
        <time>2013-04-21T10:44:05Z</time>
      </trkpt>
      <trkpt lat="48.42305" lon="2.69858">
        <ele>134</ele>
        <time>2013-04-21T10:44:06Z</time>
      </trkpt>
      <trkpt lat="48.42305" lon="2.69858">
        <ele>134</ele>
        <time>2013-04-21T10:44:07Z</time>
      </trkpt>
      <trkpt lat="48.42306" lon="2.69857">
        <ele>134</ele>
        <time>2013-04-21T10:44:08Z</time>
      </trkpt>
      <trkpt lat="48.42306" lon="2.69856">
        <ele>134</ele>
        <time>2013-04-21T10:44:09Z</time>
      </trkpt>
      <trkpt lat="48.42306" lon="2.69855">
        <ele>134</ele>
        <time>2013-04-21T10:44:10Z</time>
      </trkpt>
      <trkpt lat="48.42306" lon="2.69854">
        <ele>134</ele>
        <time>2013-04-21T10:44:11Z</time>
      </trkpt>
      <trkpt lat="48.42305" lon="2.69854">
        <ele>134</ele>
        <time>2013-04-21T10:44:12Z</time>
      </trkpt>
      <trkpt lat="48.42305" lon="2.69854">
        <ele>134</ele>
        <time>2013-04-21T10:44:14Z</time>
      </trkpt>
      <trkpt lat="48.42304" lon="2.69853">
        <ele>134</ele>
        <time>2013-04-21T10:44:16Z</time>
      </trkpt>
      <trkpt lat="48.42304" lon="2.69853">
        <ele>134</ele>
        <time>2013-04-21T10:44:17Z</time>
      </trkpt>
      <trkpt lat="48.42304" lon="2.69853">
        <ele>134</ele>
        <time>2013-04-21T10:44:18Z</time>
      </trkpt>
      <trkpt lat="48.42303" lon="2.69853">
        <ele>134</ele>
        <time>2013-04-21T10:44:19Z</time>
      </trkpt>
      <trkpt lat="48.42303" lon="2.69854">
        <ele>134</ele>
        <time>2013-04-21T10:44:20Z</time>
      </trkpt>
      <trkpt lat="48.42303" lon="2.69855">
        <ele>134</ele>
        <time>2013-04-21T10:44:21Z</time>
      </trkpt>
      <trkpt lat="48.42303" lon="2.69856">
        <ele>134</ele>
        <time>2013-04-21T10:44:22Z</time>
      </trkpt>
      <trkpt lat="48.42304" lon="2.69857">
        <ele>134</ele>
        <time>2013-04-21T10:44:23Z</time>
      </trkpt>
      <trkpt lat="48.42306" lon="2.69861">
        <ele>134</ele>
        <time>2013-04-21T10:44:25Z</time>
      </trkpt>
      <trkpt lat="48.42306" lon="2.69862">
        <ele>134</ele>
        <time>2013-04-21T10:44:26Z</time>
      </trkpt>
      <trkpt lat="48.42306" lon="2.69865">
        <ele>134</ele>
        <time>2013-04-21T10:44:28Z</time>
      </trkpt>
      <trkpt lat="48.42306" lon="2.69871">
        <ele>134</ele>
        <time>2013-04-21T10:44:30Z</time>
      </trkpt>
      <trkpt lat="48.42306" lon="2.69872">
        <ele>134</ele>
        <time>2013-04-21T10:44:31Z</time>
      </trkpt>
      <trkpt lat="48.42306" lon="2.69873">
        <ele>134</ele>
        <time>2013-04-21T10:44:32Z</time>
      </trkpt>
      <trkpt lat="48.42305" lon="2.69874">
        <ele>134</ele>
        <time>2013-04-21T10:44:34Z</time>
      </trkpt>
      <trkpt lat="48.42304" lon="2.69874">
        <ele>134</ele>
        <time>2013-04-21T10:44:35Z</time>
      </trkpt>
      <trkpt lat="48.42303" lon="2.69873">
        <ele>134</ele>
        <time>2013-04-21T10:44:36Z</time>
      </trkpt>
      <trkpt lat="48.42303" lon="2.69871">
        <ele>134</ele>
        <time>2013-04-21T10:44:37Z</time>
      </trkpt>
      <trkpt lat="48.42303" lon="2.69869">
        <ele>134</ele>
        <time>2013-04-21T10:44:39Z</time>
      </trkpt>
      <trkpt lat="48.42304" lon="2.69867">
        <ele>134</ele>
        <time>2013-04-21T10:44:40Z</time>
      </trkpt>
      <trkpt lat="48.42305" lon="2.69863">
        <ele>134</ele>
        <time>2013-04-21T10:44:41Z</time>
      </trkpt>
      <trkpt lat="48.42307" lon="2.69862">
        <ele>134</ele>
        <time>2013-04-21T10:44:42Z</time>
      </trkpt>
      <trkpt lat="48.42307" lon="2.69861">
        <ele>134</ele>
        <time>2013-04-21T10:44:43Z</time>
      </trkpt>
      <trkpt lat="48.42306" lon="2.6986">
        <ele>134</ele>
        <time>2013-04-21T10:44:44Z</time>
      </trkpt>
      <trkpt lat="48.42305" lon="2.6986">
        <ele>134</ele>
        <time>2013-04-21T10:44:45Z</time>
      </trkpt>
      <trkpt lat="48.423" lon="2.69856">
        <ele>134</ele>
        <time>2013-04-21T10:44:48Z</time>
      </trkpt>
      <trkpt lat="48.42301" lon="2.69856">
        <ele>134</ele>
        <time>2013-04-21T10:44:49Z</time>
      </trkpt>
      <trkpt lat="48.42301" lon="2.69856">
        <ele>134</ele>
        <time>2013-04-21T10:44:50Z</time>
      </trkpt>
      <trkpt lat="48.42301" lon="2.69856">
        <ele>134</ele>
        <time>2013-04-21T10:44:51Z</time>
      </trkpt>
      <trkpt lat="48.42298" lon="2.6985">
        <ele>134</ele>
        <time>2013-04-21T10:44:56Z</time>
      </trkpt>
      <trkpt lat="48.42294" lon="2.69844">
        <ele>133</ele>
        <time>2013-04-21T10:44:59Z</time>
      </trkpt>
      <trkpt lat="48.42288" lon="2.69839">
        <ele>133</ele>
        <time>2013-04-21T10:45:02Z</time>
      </trkpt>
      <trkpt lat="48.42281" lon="2.69839">
        <ele>132</ele>
        <time>2013-04-21T10:45:04Z</time>
      </trkpt>
      <trkpt lat="48.42275" lon="2.69836">
        <ele>131</ele>
        <time>2013-04-21T10:45:06Z</time>
      </trkpt>
      <trkpt lat="48.42273" lon="2.69833">
        <ele>129</ele>
        <time>2013-04-21T10:45:07Z</time>
      </trkpt>
      <trkpt lat="48.42273" lon="2.69829">
        <ele>129</ele>
        <time>2013-04-21T10:45:08Z</time>
      </trkpt>
      <trkpt lat="48.42273" lon="2.69824">
        <ele>129</ele>
        <time>2013-04-21T10:45:09Z</time>
      </trkpt>
      <trkpt lat="48.42273" lon="2.69819">
        <ele>129</ele>
        <time>2013-04-21T10:45:10Z</time>
      </trkpt>
      <trkpt lat="48.4227" lon="2.69809">
        <ele>129</ele>
        <time>2013-04-21T10:45:12Z</time>
      </trkpt>
      <trkpt lat="48.42268" lon="2.69806">
        <ele>128</ele>
        <time>2013-04-21T10:45:13Z</time>
      </trkpt>
      <trkpt lat="48.42264" lon="2.69804">
        <ele>128</ele>
        <time>2013-04-21T10:45:14Z</time>
      </trkpt>
      <trkpt lat="48.42261" lon="2.69802">
        <ele>128</ele>
        <time>2013-04-21T10:45:15Z</time>
      </trkpt>
      <trkpt lat="48.42258" lon="2.69801">
        <ele>128</ele>
        <time>2013-04-21T10:45:16Z</time>
      </trkpt>
      <trkpt lat="48.42255" lon="2.69802">
        <ele>128</ele>
        <time>2013-04-21T10:45:17Z</time>
      </trkpt>
      <trkpt lat="48.42253" lon="2.69804">
        <ele>128</ele>
        <time>2013-04-21T10:45:18Z</time>
      </trkpt>
      <trkpt lat="48.42245" lon="2.6981">
        <ele>122</ele>
        <time>2013-04-21T10:45:21Z</time>
      </trkpt>
      <trkpt lat="48.42242" lon="2.6981">
        <ele>122</ele>
        <time>2013-04-21T10:45:22Z</time>
      </trkpt>
      <trkpt lat="48.42236" lon="2.69808">
        <ele>121</ele>
        <time>2013-04-21T10:45:24Z</time>
      </trkpt>
      <trkpt lat="48.42227" lon="2.69808">
        <ele>121</ele>
        <time>2013-04-21T10:45:26Z</time>
      </trkpt>
      <trkpt lat="48.42224" lon="2.69809">
        <ele>121</ele>
        <time>2013-04-21T10:45:27Z</time>
      </trkpt>
      <trkpt lat="48.42219" lon="2.69816">
        <ele>120</ele>
        <time>2013-04-21T10:45:29Z</time>
      </trkpt>
      <trkpt lat="48.42209" lon="2.69824">
        <ele>120</ele>
        <time>2013-04-21T10:45:31Z</time>
      </trkpt>
      <trkpt lat="48.42197" lon="2.69826">
        <ele>118</ele>
        <time>2013-04-21T10:45:33Z</time>
      </trkpt>
      <trkpt lat="48.42191" lon="2.69824">
        <ele>118</ele>
        <time>2013-04-21T10:45:34Z</time>
      </trkpt>
      <trkpt lat="48.42185" lon="2.69821">
        <ele>117</ele>
        <time>2013-04-21T10:45:35Z</time>
      </trkpt>
      <trkpt lat="48.42181" lon="2.69816">
        <ele>117</ele>
        <time>2013-04-21T10:45:36Z</time>
      </trkpt>
      <trkpt lat="48.42165" lon="2.69804">
        <ele>112</ele>
        <time>2013-04-21T10:45:39Z</time>
      </trkpt>
      <trkpt lat="48.4216" lon="2.69802">
        <ele>112</ele>
        <time>2013-04-21T10:45:40Z</time>
      </trkpt>
      <trkpt lat="48.42156" lon="2.69802">
        <ele>112</ele>
        <time>2013-04-21T10:45:41Z</time>
      </trkpt>
      <trkpt lat="48.42152" lon="2.69805">
        <ele>112</ele>
        <time>2013-04-21T10:45:42Z</time>
      </trkpt>
      <trkpt lat="48.42143" lon="2.69814">
        <ele>111</ele>
        <time>2013-04-21T10:45:44Z</time>
      </trkpt>
      <trkpt lat="48.42137" lon="2.69818">
        <ele>111</ele>
        <time>2013-04-21T10:45:45Z</time>
      </trkpt>
      <trkpt lat="48.42128" lon="2.69828">
        <ele>111</ele>
        <time>2013-04-21T10:45:47Z</time>
      </trkpt>
      <trkpt lat="48.42122" lon="2.69832">
        <ele>110</ele>
        <time>2013-04-21T10:45:48Z</time>
      </trkpt>
      <trkpt lat="48.42117" lon="2.69837">
        <ele>109</ele>
        <time>2013-04-21T10:45:49Z</time>
      </trkpt>
      <trkpt lat="48.42114" lon="2.69843">
        <ele>109</ele>
        <time>2013-04-21T10:45:50Z</time>
      </trkpt>
      <trkpt lat="48.4211" lon="2.69855">
        <ele>108</ele>
        <time>2013-04-21T10:45:52Z</time>
      </trkpt>
      <trkpt lat="48.42108" lon="2.69859">
        <ele>108</ele>
        <time>2013-04-21T10:45:53Z</time>
      </trkpt>
      <trkpt lat="48.42106" lon="2.69863">
        <ele>108</ele>
        <time>2013-04-21T10:45:54Z</time>
      </trkpt>
      <trkpt lat="48.42106" lon="2.69865">
        <ele>108</ele>
        <time>2013-04-21T10:45:55Z</time>
      </trkpt>
      <trkpt lat="48.42106" lon="2.69868">
        <ele>108</ele>
        <time>2013-04-21T10:45:56Z</time>
      </trkpt>
      <trkpt lat="48.42106" lon="2.6987">
        <ele>108</ele>
        <time>2013-04-21T10:45:57Z</time>
      </trkpt>
      <trkpt lat="48.42108" lon="2.69877">
        <ele>108</ele>
        <time>2013-04-21T10:46:00Z</time>
      </trkpt>
      <trkpt lat="48.4211" lon="2.69879">
        <ele>108</ele>
        <time>2013-04-21T10:46:01Z</time>
      </trkpt>
      <trkpt lat="48.42111" lon="2.69881">
        <ele>108</ele>
        <time>2013-04-21T10:46:02Z</time>
      </trkpt>
      <trkpt lat="48.42114" lon="2.69888">
        <ele>108</ele>
        <time>2013-04-21T10:46:05Z</time>
      </trkpt>
      <trkpt lat="48.42117" lon="2.69895">
        <ele>109</ele>
        <time>2013-04-21T10:46:09Z</time>
      </trkpt>
      <trkpt lat="48.42118" lon="2.69896">
        <ele>109</ele>
        <time>2013-04-21T10:46:10Z</time>
      </trkpt>
      <trkpt lat="48.42119" lon="2.69897">
        <ele>109</ele>
        <time>2013-04-21T10:46:11Z</time>
      </trkpt>
      <trkpt lat="48.42119" lon="2.69898">
        <ele>109</ele>
        <time>2013-04-21T10:46:12Z</time>
      </trkpt>
      <trkpt lat="48.42122" lon="2.69902">
        <ele>109</ele>
        <time>2013-04-21T10:46:15Z</time>
      </trkpt>
      <trkpt lat="48.42122" lon="2.69904">
        <ele>109</ele>
        <time>2013-04-21T10:46:16Z</time>
      </trkpt>
      <trkpt lat="48.42122" lon="2.69905">
        <ele>109</ele>
        <time>2013-04-21T10:46:17Z</time>
      </trkpt>
      <trkpt lat="48.42123" lon="2.69906">
        <ele>109</ele>
        <time>2013-04-21T10:46:18Z</time>
      </trkpt>
      <trkpt lat="48.42124" lon="2.69907">
        <ele>109</ele>
        <time>2013-04-21T10:46:19Z</time>
      </trkpt>
      <trkpt lat="48.42126" lon="2.6991">
        <ele>109</ele>
        <time>2013-04-21T10:46:22Z</time>
      </trkpt>
      <trkpt lat="48.42127" lon="2.69911">
        <ele>109</ele>
        <time>2013-04-21T10:46:23Z</time>
      </trkpt>
      <trkpt lat="48.42127" lon="2.69912">
        <ele>109</ele>
        <time>2013-04-21T10:46:24Z</time>
      </trkpt>
      <trkpt lat="48.42128" lon="2.69914">
        <ele>109</ele>
        <time>2013-04-21T10:46:28Z</time>
      </trkpt>
      <trkpt lat="48.42128" lon="2.69914">
        <ele>109</ele>
        <time>2013-04-21T10:46:29Z</time>
      </trkpt>
      <trkpt lat="48.42128" lon="2.69914">
        <ele>109</ele>
        <time>2013-04-21T10:46:30Z</time>
      </trkpt>
      <trkpt lat="48.42128" lon="2.69915">
        <ele>109</ele>
        <time>2013-04-21T10:46:31Z</time>
      </trkpt>
      <trkpt lat="48.42128" lon="2.69916">
        <ele>109</ele>
        <time>2013-04-21T10:46:32Z</time>
      </trkpt>
      <trkpt lat="48.42128" lon="2.69917">
        <ele>109</ele>
        <time>2013-04-21T10:46:33Z</time>
      </trkpt>
      <trkpt lat="48.42129" lon="2.69919">
        <ele>109</ele>
        <time>2013-04-21T10:46:34Z</time>
      </trkpt>
      <trkpt lat="48.42129" lon="2.6992">
        <ele>109</ele>
        <time>2013-04-21T10:46:35Z</time>
      </trkpt>
      <trkpt lat="48.42134" lon="2.69928">
        <ele>109</ele>
        <time>2013-04-21T10:46:41Z</time>
      </trkpt>
      <trkpt lat="48.42135" lon="2.69929">
        <ele>110</ele>
        <time>2013-04-21T10:46:42Z</time>
      </trkpt>
      <trkpt lat="48.42141" lon="2.69935">
        <ele>110</ele>
        <time>2013-04-21T10:46:47Z</time>
      </trkpt>
      <trkpt lat="48.42148" lon="2.69944">
        <ele>110</ele>
        <time>2013-04-21T10:46:53Z</time>
      </trkpt>
      <trkpt lat="48.42155" lon="2.69955">
        <ele>110</ele>
        <time>2013-04-21T10:47:00Z</time>
      </trkpt>
      <trkpt lat="48.42157" lon="2.69957">
        <ele>110</ele>
        <time>2013-04-21T10:47:01Z</time>
      </trkpt>
      <trkpt lat="48.42164" lon="2.69968">
        <ele>111</ele>
        <time>2013-04-21T10:47:06Z</time>
      </trkpt>
      <trkpt lat="48.42169" lon="2.69974">
        <ele>117</ele>
        <time>2013-04-21T10:47:09Z</time>
      </trkpt>
      <trkpt lat="48.4217" lon="2.69977">
        <ele>117</ele>
        <time>2013-04-21T10:47:10Z</time>
      </trkpt>
      <trkpt lat="48.42221" lon="2.70055">
        <ele>122</ele>
        <time>2013-04-21T10:47:43Z</time>
      </trkpt>
      <trkpt lat="48.42222" lon="2.70057">
        <ele>122</ele>
        <time>2013-04-21T10:47:44Z</time>
      </trkpt>
      <trkpt lat="48.42225" lon="2.70061">
        <ele>122</ele>
        <time>2013-04-21T10:47:48Z</time>
      </trkpt>
      <trkpt lat="48.42226" lon="2.70062">
        <ele>122</ele>
        <time>2013-04-21T10:47:49Z</time>
      </trkpt>
      <trkpt lat="48.42227" lon="2.70067">
        <ele>122</ele>
        <time>2013-04-21T10:47:51Z</time>
      </trkpt>
      <trkpt lat="48.42235" lon="2.70083">
        <ele>123</ele>
        <time>2013-04-21T10:47:59Z</time>
      </trkpt>
      <trkpt lat="48.42236" lon="2.70087">
        <ele>125</ele>
        <time>2013-04-21T10:48:01Z</time>
      </trkpt>
      <trkpt lat="48.42237" lon="2.70089">
        <ele>126</ele>
        <time>2013-04-21T10:48:02Z</time>
      </trkpt>
      <trkpt lat="48.42239" lon="2.70094">
        <ele>126</ele>
        <time>2013-04-21T10:48:04Z</time>
      </trkpt>
      <trkpt lat="48.42243" lon="2.70101">
        <ele>126</ele>
        <time>2013-04-21T10:48:08Z</time>
      </trkpt>
      <trkpt lat="48.42245" lon="2.70106">
        <ele>126</ele>
        <time>2013-04-21T10:48:11Z</time>
      </trkpt>
      <trkpt lat="48.42246" lon="2.70108">
        <ele>126</ele>
        <time>2013-04-21T10:48:12Z</time>
      </trkpt>
      <trkpt lat="48.4225" lon="2.70119">
        <ele>127</ele>
        <time>2013-04-21T10:48:18Z</time>
      </trkpt>
      <trkpt lat="48.42251" lon="2.70125">
        <ele>132</ele>
        <time>2013-04-21T10:48:21Z</time>
      </trkpt>
      <trkpt lat="48.42252" lon="2.70129">
        <ele>132</ele>
        <time>2013-04-21T10:48:23Z</time>
      </trkpt>
      <trkpt lat="48.42253" lon="2.70132">
        <ele>132</ele>
        <time>2013-04-21T10:48:24Z</time>
      </trkpt>
      <trkpt lat="48.42253" lon="2.70133">
        <ele>132</ele>
        <time>2013-04-21T10:48:25Z</time>
      </trkpt>
      <trkpt lat="48.42255" lon="2.70143">
        <ele>133</ele>
        <time>2013-04-21T10:48:30Z</time>
      </trkpt>
      <trkpt lat="48.42256" lon="2.70145">
        <ele>133</ele>
        <time>2013-04-21T10:48:31Z</time>
      </trkpt>
      <trkpt lat="48.42256" lon="2.70147">
        <ele>133</ele>
        <time>2013-04-21T10:48:32Z</time>
      </trkpt>
      <trkpt lat="48.42256" lon="2.70149">
        <ele>133</ele>
        <time>2013-04-21T10:48:33Z</time>
      </trkpt>
      <trkpt lat="48.42256" lon="2.70151">
        <ele>133</ele>
        <time>2013-04-21T10:48:34Z</time>
      </trkpt>
      <trkpt lat="48.42268" lon="2.70198">
        <ele>137</ele>
        <time>2013-04-21T10:48:54Z</time>
      </trkpt>
      <trkpt lat="48.42269" lon="2.702">
        <ele>137</ele>
        <time>2013-04-21T10:48:55Z</time>
      </trkpt>
      <trkpt lat="48.42286" lon="2.70237">
        <ele>139</ele>
        <time>2013-04-21T10:49:13Z</time>
      </trkpt>
      <trkpt lat="48.4229" lon="2.70244">
        <ele>139</ele>
        <time>2013-04-21T10:49:16Z</time>
      </trkpt>
      <trkpt lat="48.42291" lon="2.70248">
        <ele>139</ele>
        <time>2013-04-21T10:49:18Z</time>
      </trkpt>
      <trkpt lat="48.42292" lon="2.70251">
        <ele>141</ele>
        <time>2013-04-21T10:49:19Z</time>
      </trkpt>
      <trkpt lat="48.42293" lon="2.70253">
        <ele>141</ele>
        <time>2013-04-21T10:49:20Z</time>
      </trkpt>
      <trkpt lat="48.42296" lon="2.70263">
        <ele>141</ele>
        <time>2013-04-21T10:49:24Z</time>
      </trkpt>
      <trkpt lat="48.42297" lon="2.70274">
        <ele>141</ele>
        <time>2013-04-21T10:49:29Z</time>
      </trkpt>
      <trkpt lat="48.42302" lon="2.70305">
        <ele>141</ele>
        <time>2013-04-21T10:49:41Z</time>
      </trkpt>
      <trkpt lat="48.42303" lon="2.70318">
        <ele>141</ele>
        <time>2013-04-21T10:49:46Z</time>
      </trkpt>
      <trkpt lat="48.42303" lon="2.70344">
        <ele>142</ele>
        <time>2013-04-21T10:49:55Z</time>
      </trkpt>
      <trkpt lat="48.42305" lon="2.70357">
        <ele>142</ele>
        <time>2013-04-21T10:49:59Z</time>
      </trkpt>
      <trkpt lat="48.42306" lon="2.70361">
        <ele>142</ele>
        <time>2013-04-21T10:50:00Z</time>
      </trkpt>
      <trkpt lat="48.42331" lon="2.70422">
        <ele>143</ele>
        <time>2013-04-21T10:50:20Z</time>
      </trkpt>
      <trkpt lat="48.42332" lon="2.70425">
        <ele>143</ele>
        <time>2013-04-21T10:50:21Z</time>
      </trkpt>
      <trkpt lat="48.42341" lon="2.70446">
        <ele>144</ele>
        <time>2013-04-21T10:50:28Z</time>
      </trkpt>
      <trkpt lat="48.42346" lon="2.70462">
        <ele>144</ele>
        <time>2013-04-21T10:50:33Z</time>
      </trkpt>
      <trkpt lat="48.42348" lon="2.70475">
        <ele>145</ele>
        <time>2013-04-21T10:50:37Z</time>
      </trkpt>
      <trkpt lat="48.42349" lon="2.70485">
        <ele>145</ele>
        <time>2013-04-21T10:50:40Z</time>
      </trkpt>
      <trkpt lat="48.42348" lon="2.70503">
        <ele>146</ele>
        <time>2013-04-21T10:50:45Z</time>
      </trkpt>
      <trkpt lat="48.42346" lon="2.7052">
        <ele>146</ele>
        <time>2013-04-21T10:50:50Z</time>
      </trkpt>
      <trkpt lat="48.42346" lon="2.70531">
        <ele>147</ele>
        <time>2013-04-21T10:50:53Z</time>
      </trkpt>
      <trkpt lat="48.42341" lon="2.7057">
        <ele>148</ele>
        <time>2013-04-21T10:51:03Z</time>
      </trkpt>
      <trkpt lat="48.4234" lon="2.70573">
        <ele>148</ele>
        <time>2013-04-21T10:51:04Z</time>
      </trkpt>
      <trkpt lat="48.42339" lon="2.70588">
        <ele>148</ele>
        <time>2013-04-21T10:51:08Z</time>
      </trkpt>
      <trkpt lat="48.42336" lon="2.70608">
        <ele>148</ele>
        <time>2013-04-21T10:51:13Z</time>
      </trkpt>
      <trkpt lat="48.42335" lon="2.70652">
        <ele>149</ele>
        <time>2013-04-21T10:51:23Z</time>
      </trkpt>
      <trkpt lat="48.42336" lon="2.70667">
        <ele>149</ele>
        <time>2013-04-21T10:51:26Z</time>
      </trkpt>
      <trkpt lat="48.42346" lon="2.70697">
        <ele>148</ele>
        <time>2013-04-21T10:51:33Z</time>
      </trkpt>
      <trkpt lat="48.42362" lon="2.70727">
        <ele>147</ele>
        <time>2013-04-21T10:51:41Z</time>
      </trkpt>
      <trkpt lat="48.42411" lon="2.70805">
        <ele>143</ele>
        <time>2013-04-21T10:52:02Z</time>
      </trkpt>
      <trkpt lat="48.42501" lon="2.709">
        <ele>145</ele>
        <time>2013-04-21T10:52:34Z</time>
      </trkpt>
      <trkpt lat="48.42503" lon="2.70903">
        <ele>145</ele>
        <time>2013-04-21T10:52:35Z</time>
      </trkpt>
      <trkpt lat="48.42504" lon="2.70907">
        <ele>145</ele>
        <time>2013-04-21T10:52:36Z</time>
      </trkpt>
      <trkpt lat="48.42505" lon="2.70914">
        <ele>144</ele>
        <time>2013-04-21T10:52:38Z</time>
      </trkpt>
      <trkpt lat="48.42505" lon="2.70918">
        <ele>145</ele>
        <time>2013-04-21T10:52:39Z</time>
      </trkpt>
      <trkpt lat="48.42505" lon="2.70922">
        <ele>145</ele>
        <time>2013-04-21T10:52:40Z</time>
      </trkpt>
      <trkpt lat="48.42503" lon="2.70925">
        <ele>146</ele>
        <time>2013-04-21T10:52:41Z</time>
      </trkpt>
      <trkpt lat="48.42499" lon="2.70929">
        <ele>144</ele>
        <time>2013-04-21T10:52:43Z</time>
      </trkpt>
      <trkpt lat="48.42496" lon="2.70932">
        <ele>145</ele>
        <time>2013-04-21T10:52:44Z</time>
      </trkpt>
      <trkpt lat="48.42481" lon="2.70964">
        <ele>146</ele>
        <time>2013-04-21T10:52:56Z</time>
      </trkpt>
      <trkpt lat="48.42479" lon="2.70966">
        <ele>146</ele>
        <time>2013-04-21T10:52:57Z</time>
      </trkpt>
      <trkpt lat="48.42478" lon="2.70969">
        <ele>146</ele>
        <time>2013-04-21T10:52:59Z</time>
      </trkpt>
      <trkpt lat="48.42478" lon="2.7097">
        <ele>146</ele>
        <time>2013-04-21T10:53:00Z</time>
      </trkpt>
      <trkpt lat="48.42477" lon="2.7097">
        <ele>146</ele>
        <time>2013-04-21T10:53:01Z</time>
      </trkpt>
      <trkpt lat="48.42477" lon="2.7097">
        <ele>146</ele>
        <time>2013-04-21T10:53:02Z</time>
      </trkpt>
      <trkpt lat="48.42477" lon="2.7097">
        <ele>146</ele>
        <time>2013-04-21T10:53:03Z</time>
      </trkpt>
      <trkpt lat="48.42477" lon="2.70971">
        <ele>146</ele>
        <time>2013-04-21T10:53:05Z</time>
      </trkpt>
      <trkpt lat="48.42477" lon="2.70971">
        <ele>146</ele>
        <time>2013-04-21T10:53:06Z</time>
      </trkpt>
      <trkpt lat="48.42477" lon="2.70971">
        <ele>146</ele>
        <time>2013-04-21T10:53:07Z</time>
      </trkpt>
      <trkpt lat="48.42477" lon="2.70972">
        <ele>146</ele>
        <time>2013-04-21T10:53:08Z</time>
      </trkpt>
      <trkpt lat="48.42477" lon="2.70972">
        <ele>146</ele>
        <time>2013-04-21T10:53:10Z</time>
      </trkpt>
      <trkpt lat="48.42477" lon="2.70972">
        <ele>146</ele>
        <time>2013-04-21T10:53:11Z</time>
      </trkpt>
      <trkpt lat="48.42477" lon="2.70972">
        <ele>146</ele>
        <time>2013-04-21T10:53:13Z</time>
      </trkpt>
      <trkpt lat="48.42477" lon="2.70973">
        <ele>146</ele>
        <time>2013-04-21T10:53:14Z</time>
      </trkpt>
      <trkpt lat="48.42477" lon="2.70973">
        <ele>146</ele>
        <time>2013-04-21T10:53:15Z</time>
      </trkpt>
      <trkpt lat="48.42477" lon="2.70973">
        <ele>146</ele>
        <time>2013-04-21T10:53:16Z</time>
      </trkpt>
      <trkpt lat="48.42477" lon="2.70973">
        <ele>146</ele>
        <time>2013-04-21T10:53:18Z</time>
      </trkpt>
      <trkpt lat="48.42478" lon="2.70973">
        <ele>146</ele>
        <time>2013-04-21T10:53:20Z</time>
      </trkpt>
      <trkpt lat="48.42478" lon="2.70973">
        <ele>146</ele>
        <time>2013-04-21T10:53:22Z</time>
      </trkpt>
      <trkpt lat="48.42478" lon="2.70973">
        <ele>146</ele>
        <time>2013-04-21T10:53:23Z</time>
      </trkpt>
      <trkpt lat="48.42478" lon="2.70974">
        <ele>146</ele>
        <time>2013-04-21T10:53:24Z</time>
      </trkpt>
      <trkpt lat="48.42478" lon="2.70974">
        <ele>146</ele>
        <time>2013-04-21T10:53:26Z</time>
      </trkpt>
      <trkpt lat="48.42478" lon="2.70974">
        <ele>146</ele>
        <time>2013-04-21T10:53:27Z</time>
      </trkpt>
      <trkpt lat="48.42478" lon="2.70974">
        <ele>146</ele>
        <time>2013-04-21T10:53:29Z</time>
      </trkpt>
      <trkpt lat="48.42478" lon="2.70974">
        <ele>146</ele>
        <time>2013-04-21T10:53:30Z</time>
      </trkpt>
      <trkpt lat="48.42478" lon="2.70974">
        <ele>146</ele>
        <time>2013-04-21T10:53:31Z</time>
      </trkpt>
      <trkpt lat="48.42478" lon="2.70975">
        <ele>146</ele>
        <time>2013-04-21T10:53:32Z</time>
      </trkpt>
      <trkpt lat="48.42478" lon="2.70975">
        <ele>146</ele>
        <time>2013-04-21T10:53:34Z</time>
      </trkpt>
      <trkpt lat="48.42478" lon="2.70975">
        <ele>146</ele>
        <time>2013-04-21T10:53:35Z</time>
      </trkpt>
      <trkpt lat="48.42478" lon="2.70975">
        <ele>146</ele>
        <time>2013-04-21T10:53:36Z</time>
      </trkpt>
      <trkpt lat="48.42478" lon="2.70975">
        <ele>146</ele>
        <time>2013-04-21T10:53:38Z</time>
      </trkpt>
      <trkpt lat="48.42478" lon="2.70975">
        <ele>146</ele>
        <time>2013-04-21T10:53:39Z</time>
      </trkpt>
      <trkpt lat="48.42478" lon="2.70976">
        <ele>146</ele>
        <time>2013-04-21T10:53:40Z</time>
      </trkpt>
      <trkpt lat="48.42478" lon="2.70976">
        <ele>146</ele>
        <time>2013-04-21T10:53:42Z</time>
      </trkpt>
      <trkpt lat="48.42478" lon="2.70976">
        <ele>146</ele>
        <time>2013-04-21T10:53:45Z</time>
      </trkpt>
      <trkpt lat="48.42478" lon="2.70976">
        <ele>146</ele>
        <time>2013-04-21T10:53:51Z</time>
      </trkpt>
      <trkpt lat="48.42478" lon="2.70976">
        <ele>146</ele>
        <time>2013-04-21T10:53:53Z</time>
      </trkpt>
      <trkpt lat="48.42477" lon="2.70977">
        <ele>146</ele>
        <time>2013-04-21T10:53:54Z</time>
      </trkpt>
      <trkpt lat="48.42477" lon="2.70977">
        <ele>146</ele>
        <time>2013-04-21T10:53:55Z</time>
      </trkpt>
      <trkpt lat="48.42477" lon="2.70977">
        <ele>146</ele>
        <time>2013-04-21T10:53:56Z</time>
      </trkpt>
      <trkpt lat="48.42477" lon="2.70977">
        <ele>146</ele>
        <time>2013-04-21T10:53:57Z</time>
      </trkpt>
      <trkpt lat="48.42477" lon="2.70978">
        <ele>146</ele>
        <time>2013-04-21T10:53:59Z</time>
      </trkpt>
      <trkpt lat="48.42476" lon="2.70978">
        <ele>146</ele>
        <time>2013-04-21T10:54:00Z</time>
      </trkpt>
      <trkpt lat="48.42476" lon="2.70978">
        <ele>146</ele>
        <time>2013-04-21T10:54:01Z</time>
      </trkpt>
      <trkpt lat="48.42476" lon="2.70978">
        <ele>146</ele>
        <time>2013-04-21T10:54:02Z</time>
      </trkpt>
      <trkpt lat="48.42476" lon="2.70979">
        <ele>146</ele>
        <time>2013-04-21T10:54:03Z</time>
      </trkpt>
      <trkpt lat="48.42476" lon="2.70979">
        <ele>146</ele>
        <time>2013-04-21T10:54:04Z</time>
      </trkpt>
      <trkpt lat="48.42476" lon="2.70979">
        <ele>146</ele>
        <time>2013-04-21T10:54:05Z</time>
      </trkpt>
      <trkpt lat="48.42475" lon="2.7098">
        <ele>146</ele>
        <time>2013-04-21T10:54:06Z</time>
      </trkpt>
      <trkpt lat="48.42471" lon="2.7099">
        <ele>146</ele>
        <time>2013-04-21T10:54:10Z</time>
      </trkpt>
      <trkpt lat="48.42459" lon="2.7101">
        <ele>149</ele>
        <time>2013-04-21T10:54:14Z</time>
      </trkpt>
      <trkpt lat="48.42456" lon="2.71015">
        <ele>148</ele>
        <time>2013-04-21T10:54:15Z</time>
      </trkpt>
      <trkpt lat="48.42455" lon="2.71021">
        <ele>148</ele>
        <time>2013-04-21T10:54:16Z</time>
      </trkpt>
      <trkpt lat="48.42444" lon="2.7104">
        <ele>148</ele>
        <time>2013-04-21T10:54:19Z</time>
      </trkpt>
      <trkpt lat="48.42436" lon="2.71067">
        <ele>148</ele>
        <time>2013-04-21T10:54:22Z</time>
      </trkpt>
      <trkpt lat="48.42431" lon="2.71073">
        <ele>148</ele>
        <time>2013-04-21T10:54:23Z</time>
      </trkpt>
      <trkpt lat="48.42419" lon="2.71081">
        <ele>147</ele>
        <time>2013-04-21T10:54:25Z</time>
      </trkpt>
      <trkpt lat="48.42414" lon="2.71086">
        <ele>146</ele>
        <time>2013-04-21T10:54:26Z</time>
      </trkpt>
      <trkpt lat="48.42398" lon="2.71114">
        <ele>144</ele>
        <time>2013-04-21T10:54:30Z</time>
      </trkpt>
      <trkpt lat="48.42394" lon="2.71131">
        <ele>144</ele>
        <time>2013-04-21T10:54:32Z</time>
      </trkpt>
      <trkpt lat="48.4239" lon="2.7114">
        <ele>144</ele>
        <time>2013-04-21T10:54:33Z</time>
      </trkpt>
      <trkpt lat="48.42385" lon="2.71147">
        <ele>144</ele>
        <time>2013-04-21T10:54:34Z</time>
      </trkpt>
      <trkpt lat="48.42373" lon="2.71154">
        <ele>143</ele>
        <time>2013-04-21T10:54:36Z</time>
      </trkpt>
      <trkpt lat="48.42369" lon="2.71159">
        <ele>143</ele>
        <time>2013-04-21T10:54:37Z</time>
      </trkpt>
      <trkpt lat="48.42366" lon="2.71164">
        <ele>143</ele>
        <time>2013-04-21T10:54:38Z</time>
      </trkpt>
      <trkpt lat="48.42363" lon="2.71166">
        <ele>142</ele>
        <time>2013-04-21T10:54:39Z</time>
      </trkpt>
      <trkpt lat="48.42358" lon="2.71167">
        <ele>142</ele>
        <time>2013-04-21T10:54:40Z</time>
      </trkpt>
      <trkpt lat="48.42354" lon="2.71166">
        <ele>142</ele>
        <time>2013-04-21T10:54:41Z</time>
      </trkpt>
      <trkpt lat="48.42351" lon="2.71167">
        <ele>142</ele>
        <time>2013-04-21T10:54:42Z</time>
      </trkpt>
      <trkpt lat="48.42349" lon="2.71171">
        <ele>142</ele>
        <time>2013-04-21T10:54:43Z</time>
      </trkpt>
      <trkpt lat="48.42347" lon="2.71176">
        <ele>142</ele>
        <time>2013-04-21T10:54:44Z</time>
      </trkpt>
      <trkpt lat="48.42342" lon="2.71185">
        <ele>143</ele>
        <time>2013-04-21T10:54:46Z</time>
      </trkpt>
      <trkpt lat="48.42336" lon="2.71192">
        <ele>143</ele>
        <time>2013-04-21T10:54:48Z</time>
      </trkpt>
      <trkpt lat="48.42334" lon="2.71197">
        <ele>143</ele>
        <time>2013-04-21T10:54:49Z</time>
      </trkpt>
      <trkpt lat="48.42333" lon="2.71203">
        <ele>141</ele>
        <time>2013-04-21T10:54:50Z</time>
      </trkpt>
      <trkpt lat="48.42332" lon="2.71228">
        <ele>142</ele>
        <time>2013-04-21T10:54:53Z</time>
      </trkpt>
      <trkpt lat="48.4233" lon="2.71236">
        <ele>142</ele>
        <time>2013-04-21T10:54:54Z</time>
      </trkpt>
      <trkpt lat="48.42327" lon="2.71242">
        <ele>142</ele>
        <time>2013-04-21T10:54:55Z</time>
      </trkpt>
      <trkpt lat="48.42322" lon="2.71243">
        <ele>142</ele>
        <time>2013-04-21T10:54:56Z</time>
      </trkpt>
      <trkpt lat="48.42318" lon="2.7124">
        <ele>142</ele>
        <time>2013-04-21T10:54:57Z</time>
      </trkpt>
      <trkpt lat="48.42314" lon="2.71236">
        <ele>142</ele>
        <time>2013-04-21T10:54:58Z</time>
      </trkpt>
      <trkpt lat="48.42311" lon="2.71235">
        <ele>142</ele>
        <time>2013-04-21T10:54:59Z</time>
      </trkpt>
      <trkpt lat="48.42308" lon="2.71237">
        <ele>142</ele>
        <time>2013-04-21T10:55:00Z</time>
      </trkpt>
      <trkpt lat="48.42306" lon="2.71241">
        <ele>142</ele>
        <time>2013-04-21T10:55:01Z</time>
      </trkpt>
      <trkpt lat="48.42305" lon="2.71244">
        <ele>142</ele>
        <time>2013-04-21T10:55:02Z</time>
      </trkpt>
      <trkpt lat="48.42305" lon="2.7125">
        <ele>144</ele>
        <time>2013-04-21T10:55:04Z</time>
      </trkpt>
      <trkpt lat="48.42303" lon="2.7126">
        <ele>144</ele>
        <time>2013-04-21T10:55:07Z</time>
      </trkpt>
      <trkpt lat="48.423" lon="2.71267">
        <ele>144</ele>
        <time>2013-04-21T10:55:10Z</time>
      </trkpt>
      <trkpt lat="48.42294" lon="2.71277">
        <ele>144</ele>
        <time>2013-04-21T10:55:14Z</time>
      </trkpt>
      <trkpt lat="48.42289" lon="2.7129">
        <ele>144</ele>
        <time>2013-04-21T10:55:19Z</time>
      </trkpt>
      <trkpt lat="48.42287" lon="2.71293">
        <ele>145</ele>
        <time>2013-04-21T10:55:21Z</time>
      </trkpt>
      <trkpt lat="48.42269" lon="2.71313">
        <ele>145</ele>
        <time>2013-04-21T10:55:29Z</time>
      </trkpt>
      <trkpt lat="48.42265" lon="2.71313">
        <ele>145</ele>
        <time>2013-04-21T10:55:30Z</time>
      </trkpt>
      <trkpt lat="48.42262" lon="2.71308">
        <ele>145</ele>
        <time>2013-04-21T10:55:31Z</time>
      </trkpt>
      <trkpt lat="48.42261" lon="2.71303">
        <ele>145</ele>
        <time>2013-04-21T10:55:32Z</time>
      </trkpt>
      <trkpt lat="48.42263" lon="2.71289">
        <ele>144</ele>
        <time>2013-04-21T10:55:36Z</time>
      </trkpt>
      <trkpt lat="48.42263" lon="2.71287">
        <ele>144</ele>
        <time>2013-04-21T10:55:37Z</time>
      </trkpt>
      <trkpt lat="48.42262" lon="2.71286">
        <ele>144</ele>
        <time>2013-04-21T10:55:38Z</time>
      </trkpt>
      <trkpt lat="48.42262" lon="2.71286">
        <ele>144</ele>
        <time>2013-04-21T10:55:40Z</time>
      </trkpt>
      <trkpt lat="48.42262" lon="2.71286">
        <ele>144</ele>
        <time>2013-04-21T10:55:41Z</time>
      </trkpt>
      <trkpt lat="48.42261" lon="2.71286">
        <ele>144</ele>
        <time>2013-04-21T10:55:42Z</time>
      </trkpt>
      <trkpt lat="48.42261" lon="2.71286">
        <ele>144</ele>
        <time>2013-04-21T10:55:44Z</time>
      </trkpt>
      <trkpt lat="48.42261" lon="2.71286">
        <ele>144</ele>
        <time>2013-04-21T10:55:45Z</time>
      </trkpt>
      <trkpt lat="48.42261" lon="2.71286">
        <ele>144</ele>
        <time>2013-04-21T10:55:46Z</time>
      </trkpt>
      <trkpt lat="48.4226" lon="2.71286">
        <ele>144</ele>
        <time>2013-04-21T10:55:47Z</time>
      </trkpt>
      <trkpt lat="48.42259" lon="2.71285">
        <ele>144</ele>
        <time>2013-04-21T10:55:48Z</time>
      </trkpt>
      <trkpt lat="48.42258" lon="2.71283">
        <ele>144</ele>
        <time>2013-04-21T10:55:49Z</time>
      </trkpt>
      <trkpt lat="48.42257" lon="2.71279">
        <ele>144</ele>
        <time>2013-04-21T10:55:51Z</time>
      </trkpt>
      <trkpt lat="48.42256" lon="2.71277">
        <ele>144</ele>
        <time>2013-04-21T10:55:52Z</time>
      </trkpt>
      <trkpt lat="48.42253" lon="2.71276">
        <ele>144</ele>
        <time>2013-04-21T10:55:55Z</time>
      </trkpt>
      <trkpt lat="48.4225" lon="2.71275">
        <ele>144</ele>
        <time>2013-04-21T10:55:57Z</time>
      </trkpt>
      <trkpt lat="48.42244" lon="2.71276">
        <ele>144</ele>
        <time>2013-04-21T10:56:01Z</time>
      </trkpt>
      <trkpt lat="48.42243" lon="2.71276">
        <ele>144</ele>
        <time>2013-04-21T10:56:02Z</time>
      </trkpt>
      <trkpt lat="48.42242" lon="2.71277">
        <ele>144</ele>
        <time>2013-04-21T10:56:03Z</time>
      </trkpt>
      <trkpt lat="48.42241" lon="2.71277">
        <ele>144</ele>
        <time>2013-04-21T10:56:04Z</time>
      </trkpt>
      <trkpt lat="48.42238" lon="2.71278">
        <ele>144</ele>
        <time>2013-04-21T10:56:07Z</time>
      </trkpt>
      <trkpt lat="48.42236" lon="2.71279">
        <ele>145</ele>
        <time>2013-04-21T10:56:11Z</time>
      </trkpt>
      <trkpt lat="48.42236" lon="2.71279">
        <ele>145</ele>
        <time>2013-04-21T10:56:12Z</time>
      </trkpt>
      <trkpt lat="48.42235" lon="2.71279">
        <ele>145</ele>
        <time>2013-04-21T10:56:13Z</time>
      </trkpt>
      <trkpt lat="48.42235" lon="2.71279">
        <ele>145</ele>
        <time>2013-04-21T10:56:14Z</time>
      </trkpt>
      <trkpt lat="48.42235" lon="2.71279">
        <ele>145</ele>
        <time>2013-04-21T10:56:15Z</time>
      </trkpt>
      <trkpt lat="48.42234" lon="2.7128">
        <ele>145</ele>
        <time>2013-04-21T10:56:16Z</time>
      </trkpt>
      <trkpt lat="48.42232" lon="2.71283">
        <ele>145</ele>
        <time>2013-04-21T10:56:18Z</time>
      </trkpt>
      <trkpt lat="48.42229" lon="2.71286">
        <ele>145</ele>
        <time>2013-04-21T10:56:20Z</time>
      </trkpt>
      <trkpt lat="48.42226" lon="2.71288">
        <ele>145</ele>
        <time>2013-04-21T10:56:22Z</time>
      </trkpt>
      <trkpt lat="48.42225" lon="2.71288">
        <ele>145</ele>
        <time>2013-04-21T10:56:23Z</time>
      </trkpt>
      <trkpt lat="48.42219" lon="2.71287">
        <ele>145</ele>
        <time>2013-04-21T10:56:28Z</time>
      </trkpt>
      <trkpt lat="48.42217" lon="2.71287">
        <ele>145</ele>
        <time>2013-04-21T10:56:32Z</time>
      </trkpt>
      <trkpt lat="48.42216" lon="2.71287">
        <ele>145</ele>
        <time>2013-04-21T10:56:33Z</time>
      </trkpt>
      <trkpt lat="48.42216" lon="2.71287">
        <ele>145</ele>
        <time>2013-04-21T10:56:34Z</time>
      </trkpt>
      <trkpt lat="48.42216" lon="2.71286">
        <ele>145</ele>
        <time>2013-04-21T10:56:35Z</time>
      </trkpt>
      <trkpt lat="48.42216" lon="2.71286">
        <ele>145</ele>
        <time>2013-04-21T10:56:36Z</time>
      </trkpt>
      <trkpt lat="48.42215" lon="2.71286">
        <ele>145</ele>
        <time>2013-04-21T10:56:37Z</time>
      </trkpt>
      <trkpt lat="48.42215" lon="2.71286">
        <ele>145</ele>
        <time>2013-04-21T10:56:38Z</time>
      </trkpt>
      <trkpt lat="48.42215" lon="2.71286">
        <ele>145</ele>
        <time>2013-04-21T10:56:39Z</time>
      </trkpt>
      <trkpt lat="48.42215" lon="2.71286">
        <ele>145</ele>
        <time>2013-04-21T10:56:40Z</time>
      </trkpt>
      <trkpt lat="48.42215" lon="2.71286">
        <ele>145</ele>
        <time>2013-04-21T10:56:41Z</time>
      </trkpt>
      <trkpt lat="48.42215" lon="2.71286">
        <ele>145</ele>
        <time>2013-04-21T10:56:42Z</time>
      </trkpt>
      <trkpt lat="48.42214" lon="2.71286">
        <ele>145</ele>
        <time>2013-04-21T10:56:43Z</time>
      </trkpt>
      <trkpt lat="48.42214" lon="2.71286">
        <ele>145</ele>
        <time>2013-04-21T10:56:44Z</time>
      </trkpt>
      <trkpt lat="48.42214" lon="2.71286">
        <ele>145</ele>
        <time>2013-04-21T10:56:45Z</time>
      </trkpt>
      <trkpt lat="48.42214" lon="2.71286">
        <ele>145</ele>
        <time>2013-04-21T10:56:46Z</time>
      </trkpt>
      <trkpt lat="48.42214" lon="2.71287">
        <ele>145</ele>
        <time>2013-04-21T10:56:47Z</time>
      </trkpt>
      <trkpt lat="48.42214" lon="2.71287">
        <ele>145</ele>
        <time>2013-04-21T10:56:48Z</time>
      </trkpt>
      <trkpt lat="48.42213" lon="2.71286">
        <ele>145</ele>
        <time>2013-04-21T10:56:52Z</time>
      </trkpt>
      <trkpt lat="48.42213" lon="2.71286">
        <ele>145</ele>
        <time>2013-04-21T10:56:53Z</time>
      </trkpt>
      <trkpt lat="48.42213" lon="2.71286">
        <ele>145</ele>
        <time>2013-04-21T10:56:55Z</time>
      </trkpt>
      <trkpt lat="48.42213" lon="2.71286">
        <ele>145</ele>
        <time>2013-04-21T10:56:56Z</time>
      </trkpt>
      <trkpt lat="48.42213" lon="2.71286">
        <ele>145</ele>
        <time>2013-04-21T10:56:57Z</time>
      </trkpt>
      <trkpt lat="48.42213" lon="2.71286">
        <ele>145</ele>
        <time>2013-04-21T10:56:58Z</time>
      </trkpt>
      <trkpt lat="48.42213" lon="2.71286">
        <ele>145</ele>
        <time>2013-04-21T10:56:59Z</time>
      </trkpt>
      <trkpt lat="48.42212" lon="2.71286">
        <ele>145</ele>
        <time>2013-04-21T10:57:00Z</time>
      </trkpt>
      <trkpt lat="48.42212" lon="2.71286">
        <ele>145</ele>
        <time>2013-04-21T10:57:01Z</time>
      </trkpt>
      <trkpt lat="48.42212" lon="2.71286">
        <ele>145</ele>
        <time>2013-04-21T10:57:02Z</time>
      </trkpt>
      <trkpt lat="48.42212" lon="2.71286">
        <ele>145</ele>
        <time>2013-04-21T10:57:03Z</time>
      </trkpt>
      <trkpt lat="48.42212" lon="2.71286">
        <ele>145</ele>
        <time>2013-04-21T10:57:04Z</time>
      </trkpt>
      <trkpt lat="48.42212" lon="2.71286">
        <ele>145</ele>
        <time>2013-04-21T10:57:05Z</time>
      </trkpt>
      <trkpt lat="48.42211" lon="2.71286">
        <ele>145</ele>
        <time>2013-04-21T10:57:06Z</time>
      </trkpt>
      <trkpt lat="48.42211" lon="2.71286">
        <ele>145</ele>
        <time>2013-04-21T10:57:07Z</time>
      </trkpt>
      <trkpt lat="48.42211" lon="2.71286">
        <ele>145</ele>
        <time>2013-04-21T10:57:08Z</time>
      </trkpt>
      <trkpt lat="48.42211" lon="2.71285">
        <ele>145</ele>
        <time>2013-04-21T10:57:09Z</time>
      </trkpt>
      <trkpt lat="48.42211" lon="2.71285">
        <ele>145</ele>
        <time>2013-04-21T10:57:10Z</time>
      </trkpt>
      <trkpt lat="48.42211" lon="2.71285">
        <ele>145</ele>
        <time>2013-04-21T10:57:11Z</time>
      </trkpt>
      <trkpt lat="48.42211" lon="2.71285">
        <ele>145</ele>
        <time>2013-04-21T10:57:12Z</time>
      </trkpt>
      <trkpt lat="48.42211" lon="2.71285">
        <ele>145</ele>
        <time>2013-04-21T10:57:13Z</time>
      </trkpt>
      <trkpt lat="48.4221" lon="2.71285">
        <ele>145</ele>
        <time>2013-04-21T10:57:14Z</time>
      </trkpt>
      <trkpt lat="48.4221" lon="2.71285">
        <ele>145</ele>
        <time>2013-04-21T10:57:15Z</time>
      </trkpt>
      <trkpt lat="48.4221" lon="2.71284">
        <ele>145</ele>
        <time>2013-04-21T10:57:16Z</time>
      </trkpt>
      <trkpt lat="48.4221" lon="2.71284">
        <ele>145</ele>
        <time>2013-04-21T10:57:17Z</time>
      </trkpt>
      <trkpt lat="48.4221" lon="2.71284">
        <ele>145</ele>
        <time>2013-04-21T10:57:18Z</time>
      </trkpt>
      <trkpt lat="48.4221" lon="2.71284">
        <ele>145</ele>
        <time>2013-04-21T10:57:19Z</time>
      </trkpt>
      <trkpt lat="48.42209" lon="2.71284">
        <ele>145</ele>
        <time>2013-04-21T10:57:20Z</time>
      </trkpt>
      <trkpt lat="48.42209" lon="2.71285">
        <ele>145</ele>
        <time>2013-04-21T10:57:21Z</time>
      </trkpt>
      <trkpt lat="48.42209" lon="2.71285">
        <ele>145</ele>
        <time>2013-04-21T10:57:22Z</time>
      </trkpt>
      <trkpt lat="48.42209" lon="2.71286">
        <ele>145</ele>
        <time>2013-04-21T10:57:23Z</time>
      </trkpt>
      <trkpt lat="48.42208" lon="2.71286">
        <ele>145</ele>
        <time>2013-04-21T10:57:24Z</time>
      </trkpt>
      <trkpt lat="48.42208" lon="2.71286">
        <ele>145</ele>
        <time>2013-04-21T10:57:25Z</time>
      </trkpt>
      <trkpt lat="48.42208" lon="2.71286">
        <ele>145</ele>
        <time>2013-04-21T10:57:26Z</time>
      </trkpt>
      <trkpt lat="48.42208" lon="2.71286">
        <ele>145</ele>
        <time>2013-04-21T10:57:27Z</time>
      </trkpt>
      <trkpt lat="48.42208" lon="2.71286">
        <ele>145</ele>
        <time>2013-04-21T10:57:28Z</time>
      </trkpt>
      <trkpt lat="48.42208" lon="2.71287">
        <ele>145</ele>
        <time>2013-04-21T10:57:29Z</time>
      </trkpt>
      <trkpt lat="48.42208" lon="2.71287">
        <ele>145</ele>
        <time>2013-04-21T10:57:30Z</time>
      </trkpt>
      <trkpt lat="48.42208" lon="2.71287">
        <ele>145</ele>
        <time>2013-04-21T10:57:31Z</time>
      </trkpt>
      <trkpt lat="48.42208" lon="2.71287">
        <ele>145</ele>
        <time>2013-04-21T10:57:32Z</time>
      </trkpt>
      <trkpt lat="48.42207" lon="2.71288">
        <ele>145</ele>
        <time>2013-04-21T10:57:33Z</time>
      </trkpt>
      <trkpt lat="48.42207" lon="2.71288">
        <ele>145</ele>
        <time>2013-04-21T10:57:34Z</time>
      </trkpt>
      <trkpt lat="48.42207" lon="2.71288">
        <ele>145</ele>
        <time>2013-04-21T10:57:35Z</time>
      </trkpt>
      <trkpt lat="48.42207" lon="2.71288">
        <ele>145</ele>
        <time>2013-04-21T10:57:36Z</time>
      </trkpt>
      <trkpt lat="48.42207" lon="2.71288">
        <ele>145</ele>
        <time>2013-04-21T10:57:37Z</time>
      </trkpt>
      <trkpt lat="48.42207" lon="2.71289">
        <ele>145</ele>
        <time>2013-04-21T10:57:38Z</time>
      </trkpt>
      <trkpt lat="48.42207" lon="2.71289">
        <ele>145</ele>
        <time>2013-04-21T10:57:39Z</time>
      </trkpt>
      <trkpt lat="48.42207" lon="2.71289">
        <ele>145</ele>
        <time>2013-04-21T10:57:40Z</time>
      </trkpt>
      <trkpt lat="48.42207" lon="2.71289">
        <ele>145</ele>
        <time>2013-04-21T10:57:41Z</time>
      </trkpt>
      <trkpt lat="48.42207" lon="2.7129">
        <ele>145</ele>
        <time>2013-04-21T10:57:42Z</time>
      </trkpt>
      <trkpt lat="48.42207" lon="2.7129">
        <ele>145</ele>
        <time>2013-04-21T10:57:43Z</time>
      </trkpt>
      <trkpt lat="48.42207" lon="2.7129">
        <ele>145</ele>
        <time>2013-04-21T10:57:44Z</time>
      </trkpt>
      <trkpt lat="48.42207" lon="2.7129">
        <ele>145</ele>
        <time>2013-04-21T10:57:45Z</time>
      </trkpt>
      <trkpt lat="48.42207" lon="2.7129">
        <ele>145</ele>
        <time>2013-04-21T10:57:47Z</time>
      </trkpt>
      <trkpt lat="48.42207" lon="2.71291">
        <ele>145</ele>
        <time>2013-04-21T10:57:48Z</time>
      </trkpt>
      <trkpt lat="48.42207" lon="2.71291">
        <ele>145</ele>
        <time>2013-04-21T10:57:49Z</time>
      </trkpt>
      <trkpt lat="48.42207" lon="2.71291">
        <ele>145</ele>
        <time>2013-04-21T10:57:50Z</time>
      </trkpt>
      <trkpt lat="48.42207" lon="2.71291">
        <ele>145</ele>
        <time>2013-04-21T10:57:51Z</time>
      </trkpt>
      <trkpt lat="48.42207" lon="2.71291">
        <ele>145</ele>
        <time>2013-04-21T10:57:52Z</time>
      </trkpt>
      <trkpt lat="48.42207" lon="2.71291">
        <ele>145</ele>
        <time>2013-04-21T10:57:54Z</time>
      </trkpt>
      <trkpt lat="48.42207" lon="2.71291">
        <ele>145</ele>
        <time>2013-04-21T10:57:56Z</time>
      </trkpt>
      <trkpt lat="48.42207" lon="2.71292">
        <ele>145</ele>
        <time>2013-04-21T10:57:58Z</time>
      </trkpt>
      <trkpt lat="48.42207" lon="2.71292">
        <ele>145</ele>
        <time>2013-04-21T10:58:00Z</time>
      </trkpt>
      <trkpt lat="48.42207" lon="2.71292">
        <ele>145</ele>
        <time>2013-04-21T10:58:02Z</time>
      </trkpt>
      <trkpt lat="48.42207" lon="2.71292">
        <ele>145</ele>
        <time>2013-04-21T10:58:03Z</time>
      </trkpt>
      <trkpt lat="48.42207" lon="2.71292">
        <ele>145</ele>
        <time>2013-04-21T10:58:04Z</time>
      </trkpt>
      <trkpt lat="48.42208" lon="2.71292">
        <ele>145</ele>
        <time>2013-04-21T10:58:06Z</time>
      </trkpt>
      <trkpt lat="48.42208" lon="2.71292">
        <ele>145</ele>
        <time>2013-04-21T10:58:08Z</time>
      </trkpt>
      <trkpt lat="48.42208" lon="2.71292">
        <ele>145</ele>
        <time>2013-04-21T10:58:10Z</time>
      </trkpt>
      <trkpt lat="48.42208" lon="2.71292">
        <ele>145</ele>
        <time>2013-04-21T10:58:11Z</time>
      </trkpt>
      <trkpt lat="48.42208" lon="2.71292">
        <ele>145</ele>
        <time>2013-04-21T10:58:12Z</time>
      </trkpt>
      <trkpt lat="48.42208" lon="2.71292">
        <ele>145</ele>
        <time>2013-04-21T10:58:13Z</time>
      </trkpt>
      <trkpt lat="48.42208" lon="2.71292">
        <ele>145</ele>
        <time>2013-04-21T10:58:15Z</time>
      </trkpt>
      <trkpt lat="48.42208" lon="2.71292">
        <ele>145</ele>
        <time>2013-04-21T10:58:17Z</time>
      </trkpt>
      <trkpt lat="48.42209" lon="2.71292">
        <ele>145</ele>
        <time>2013-04-21T10:58:19Z</time>
      </trkpt>
      <trkpt lat="48.42208" lon="2.71292">
        <ele>145</ele>
        <time>2013-04-21T10:58:23Z</time>
      </trkpt>
      <trkpt lat="48.42208" lon="2.71292">
        <ele>145</ele>
        <time>2013-04-21T10:58:24Z</time>
      </trkpt>
      <trkpt lat="48.42208" lon="2.71292">
        <ele>145</ele>
        <time>2013-04-21T10:58:25Z</time>
      </trkpt>
      <trkpt lat="48.42208" lon="2.71292">
        <ele>145</ele>
        <time>2013-04-21T10:58:27Z</time>
      </trkpt>
      <trkpt lat="48.42208" lon="2.71292">
        <ele>145</ele>
        <time>2013-04-21T10:58:28Z</time>
      </trkpt>
      <trkpt lat="48.42208" lon="2.71292">
        <ele>145</ele>
        <time>2013-04-21T10:58:29Z</time>
      </trkpt>
      <trkpt lat="48.42208" lon="2.71292">
        <ele>145</ele>
        <time>2013-04-21T10:58:31Z</time>
      </trkpt>
      <trkpt lat="48.42209" lon="2.71292">
        <ele>145</ele>
        <time>2013-04-21T10:58:33Z</time>
      </trkpt>
      <trkpt lat="48.42209" lon="2.71292">
        <ele>145</ele>
        <time>2013-04-21T10:58:36Z</time>
      </trkpt>
      <trkpt lat="48.42209" lon="2.71292">
        <ele>145</ele>
        <time>2013-04-21T10:58:37Z</time>
      </trkpt>
      <trkpt lat="48.42209" lon="2.71292">
        <ele>145</ele>
        <time>2013-04-21T10:58:39Z</time>
      </trkpt>
      <trkpt lat="48.42208" lon="2.71292">
        <ele>145</ele>
        <time>2013-04-21T10:58:41Z</time>
      </trkpt>
      <trkpt lat="48.42208" lon="2.71292">
        <ele>145</ele>
        <time>2013-04-21T10:58:44Z</time>
      </trkpt>
      <trkpt lat="48.42207" lon="2.71292">
        <ele>145</ele>
        <time>2013-04-21T10:58:45Z</time>
      </trkpt>
      <trkpt lat="48.42204" lon="2.71293">
        <ele>145</ele>
        <time>2013-04-21T10:58:47Z</time>
      </trkpt>
      <trkpt lat="48.42189" lon="2.71302">
        <ele>145</ele>
        <time>2013-04-21T10:58:54Z</time>
      </trkpt>
      <trkpt lat="48.42183" lon="2.71307">
        <ele>145</ele>
        <time>2013-04-21T10:58:56Z</time>
      </trkpt>
      <trkpt lat="48.42177" lon="2.71315">
        <ele>145</ele>
        <time>2013-04-21T10:58:58Z</time>
      </trkpt>
      <trkpt lat="48.42162" lon="2.71325">
        <ele>145</ele>
        <time>2013-04-21T10:59:02Z</time>
      </trkpt>
      <trkpt lat="48.4215" lon="2.71337">
        <ele>145</ele>
        <time>2013-04-21T10:59:06Z</time>
      </trkpt>
      <trkpt lat="48.42143" lon="2.71341">
        <ele>145</ele>
        <time>2013-04-21T10:59:08Z</time>
      </trkpt>
      <trkpt lat="48.42119" lon="2.71349">
        <ele>145</ele>
        <time>2013-04-21T10:59:15Z</time>
      </trkpt>
      <trkpt lat="48.4211" lon="2.71351">
        <ele>144</ele>
        <time>2013-04-21T10:59:19Z</time>
      </trkpt>
      <trkpt lat="48.42101" lon="2.71357">
        <ele>144</ele>
        <time>2013-04-21T10:59:23Z</time>
      </trkpt>
      <trkpt lat="48.42092" lon="2.7136">
        <ele>144</ele>
        <time>2013-04-21T10:59:28Z</time>
      </trkpt>
      <trkpt lat="48.42091" lon="2.71361">
        <ele>144</ele>
        <time>2013-04-21T10:59:29Z</time>
      </trkpt>
      <trkpt lat="48.42089" lon="2.71363">
        <ele>144</ele>
        <time>2013-04-21T10:59:31Z</time>
      </trkpt>
      <trkpt lat="48.42089" lon="2.71364">
        <ele>144</ele>
        <time>2013-04-21T10:59:32Z</time>
      </trkpt>
      <trkpt lat="48.42089" lon="2.71365">
        <ele>144</ele>
        <time>2013-04-21T10:59:33Z</time>
      </trkpt>
      <trkpt lat="48.4209" lon="2.71365">
        <ele>144</ele>
        <time>2013-04-21T10:59:34Z</time>
      </trkpt>
      <trkpt lat="48.42091" lon="2.71367">
        <ele>144</ele>
        <time>2013-04-21T10:59:35Z</time>
      </trkpt>
      <trkpt lat="48.42091" lon="2.7137">
        <ele>144</ele>
        <time>2013-04-21T10:59:36Z</time>
      </trkpt>
      <trkpt lat="48.4209" lon="2.71372">
        <ele>145</ele>
        <time>2013-04-21T10:59:37Z</time>
      </trkpt>
      <trkpt lat="48.42087" lon="2.71377">
        <ele>145</ele>
        <time>2013-04-21T10:59:39Z</time>
      </trkpt>
      <trkpt lat="48.42084" lon="2.71387">
        <ele>145</ele>
        <time>2013-04-21T10:59:42Z</time>
      </trkpt>
      <trkpt lat="48.42083" lon="2.71389">
        <ele>142</ele>
        <time>2013-04-21T10:59:43Z</time>
      </trkpt>
      <trkpt lat="48.42076" lon="2.71419">
        <ele>145</ele>
        <time>2013-04-21T10:59:53Z</time>
      </trkpt>
      <trkpt lat="48.42071" lon="2.71427">
        <ele>145</ele>
        <time>2013-04-21T10:59:56Z</time>
      </trkpt>
      <trkpt lat="48.42069" lon="2.71434">
        <ele>144</ele>
        <time>2013-04-21T10:59:58Z</time>
      </trkpt>
      <trkpt lat="48.42061" lon="2.71449">
        <ele>144</ele>
        <time>2013-04-21T11:00:03Z</time>
      </trkpt>
      <trkpt lat="48.42059" lon="2.71458">
        <ele>144</ele>
        <time>2013-04-21T11:00:06Z</time>
      </trkpt>
      <trkpt lat="48.42054" lon="2.71469">
        <ele>144</ele>
        <time>2013-04-21T11:00:10Z</time>
      </trkpt>
      <trkpt lat="48.42051" lon="2.71476">
        <ele>143</ele>
        <time>2013-04-21T11:00:12Z</time>
      </trkpt>
      <trkpt lat="48.42045" lon="2.71488">
        <ele>143</ele>
        <time>2013-04-21T11:00:15Z</time>
      </trkpt>
      <trkpt lat="48.42043" lon="2.71492">
        <ele>143</ele>
        <time>2013-04-21T11:00:16Z</time>
      </trkpt>
      <trkpt lat="48.42041" lon="2.71494">
        <ele>143</ele>
        <time>2013-04-21T11:00:17Z</time>
      </trkpt>
      <trkpt lat="48.42037" lon="2.71494">
        <ele>143</ele>
        <time>2013-04-21T11:00:18Z</time>
      </trkpt>
      <trkpt lat="48.4197" lon="2.71467">
        <ele>133</ele>
        <time>2013-04-21T11:00:35Z</time>
      </trkpt>
      <trkpt lat="48.4197" lon="2.71467">
        <ele>133</ele>
        <time>2013-04-21T11:00:36Z</time>
      </trkpt>
      <trkpt lat="48.41969" lon="2.71467">
        <ele>132</ele>
        <time>2013-04-21T11:00:37Z</time>
      </trkpt>
      <trkpt lat="48.41966" lon="2.71467">
        <ele>132</ele>
        <time>2013-04-21T11:00:40Z</time>
      </trkpt>
      <trkpt lat="48.41966" lon="2.71468">
        <ele>132</ele>
        <time>2013-04-21T11:00:41Z</time>
      </trkpt>
      <trkpt lat="48.41963" lon="2.71474">
        <ele>132</ele>
        <time>2013-04-21T11:00:44Z</time>
      </trkpt>
      <trkpt lat="48.41962" lon="2.71475">
        <ele>132</ele>
        <time>2013-04-21T11:00:45Z</time>
      </trkpt>
      <trkpt lat="48.41961" lon="2.71474">
        <ele>132</ele>
        <time>2013-04-21T11:00:46Z</time>
      </trkpt>
      <trkpt lat="48.4196" lon="2.71473">
        <ele>131</ele>
        <time>2013-04-21T11:00:47Z</time>
      </trkpt>
      <trkpt lat="48.41958" lon="2.71468">
        <ele>131</ele>
        <time>2013-04-21T11:00:49Z</time>
      </trkpt>
      <trkpt lat="48.41957" lon="2.71467">
        <ele>131</ele>
        <time>2013-04-21T11:00:50Z</time>
      </trkpt>
      <trkpt lat="48.41957" lon="2.71467">
        <ele>131</ele>
        <time>2013-04-21T11:00:51Z</time>
      </trkpt>
      <trkpt lat="48.41957" lon="2.71467">
        <ele>131</ele>
        <time>2013-04-21T11:00:52Z</time>
      </trkpt>
      <trkpt lat="48.41957" lon="2.71467">
        <ele>131</ele>
        <time>2013-04-21T11:00:54Z</time>
      </trkpt>
      <trkpt lat="48.41957" lon="2.71466">
        <ele>131</ele>
        <time>2013-04-21T11:00:55Z</time>
      </trkpt>
      <trkpt lat="48.41957" lon="2.71466">
        <ele>131</ele>
        <time>2013-04-21T11:00:56Z</time>
      </trkpt>
      <trkpt lat="48.41957" lon="2.71466">
        <ele>131</ele>
        <time>2013-04-21T11:00:58Z</time>
      </trkpt>
      <trkpt lat="48.41957" lon="2.71466">
        <ele>131</ele>
        <time>2013-04-21T11:00:59Z</time>
      </trkpt>
      <trkpt lat="48.41957" lon="2.71466">
        <ele>131</ele>
        <time>2013-04-21T11:01:00Z</time>
      </trkpt>
      <trkpt lat="48.41957" lon="2.71466">
        <ele>131</ele>
        <time>2013-04-21T11:01:02Z</time>
      </trkpt>
      <trkpt lat="48.41957" lon="2.71466">
        <ele>131</ele>
        <time>2013-04-21T11:01:04Z</time>
      </trkpt>
      <trkpt lat="48.41957" lon="2.71466">
        <ele>131</ele>
        <time>2013-04-21T11:01:05Z</time>
      </trkpt>
      <trkpt lat="48.41956" lon="2.71466">
        <ele>131</ele>
        <time>2013-04-21T11:01:06Z</time>
      </trkpt>
      <trkpt lat="48.41956" lon="2.71466">
        <ele>131</ele>
        <time>2013-04-21T11:01:08Z</time>
      </trkpt>
      <trkpt lat="48.41956" lon="2.71466">
        <ele>131</ele>
        <time>2013-04-21T11:01:10Z</time>
      </trkpt>
      <trkpt lat="48.41956" lon="2.71466">
        <ele>131</ele>
        <time>2013-04-21T11:01:12Z</time>
      </trkpt>
      <trkpt lat="48.41956" lon="2.71466">
        <ele>131</ele>
        <time>2013-04-21T11:01:14Z</time>
      </trkpt>
      <trkpt lat="48.41956" lon="2.71466">
        <ele>131</ele>
        <time>2013-04-21T11:01:16Z</time>
      </trkpt>
      <trkpt lat="48.41955" lon="2.71466">
        <ele>131</ele>
        <time>2013-04-21T11:01:19Z</time>
      </trkpt>
      <trkpt lat="48.41955" lon="2.71466">
        <ele>131</ele>
        <time>2013-04-21T11:01:20Z</time>
      </trkpt>
      <trkpt lat="48.41955" lon="2.71466">
        <ele>131</ele>
        <time>2013-04-21T11:01:21Z</time>
      </trkpt>
      <trkpt lat="48.41955" lon="2.71466">
        <ele>131</ele>
        <time>2013-04-21T11:01:23Z</time>
      </trkpt>
      <trkpt lat="48.41955" lon="2.71466">
        <ele>131</ele>
        <time>2013-04-21T11:01:25Z</time>
      </trkpt>
      <trkpt lat="48.41959" lon="2.71464">
        <ele>131</ele>
        <time>2013-04-21T11:01:28Z</time>
      </trkpt>
      <trkpt lat="48.41961" lon="2.71464">
        <ele>132</ele>
        <time>2013-04-21T11:01:29Z</time>
      </trkpt>
      <trkpt lat="48.41963" lon="2.71464">
        <ele>132</ele>
        <time>2013-04-21T11:01:30Z</time>
      </trkpt>
      <trkpt lat="48.41965" lon="2.71466">
        <ele>132</ele>
        <time>2013-04-21T11:01:32Z</time>
      </trkpt>
      <trkpt lat="48.41968" lon="2.7147">
        <ele>132</ele>
        <time>2013-04-21T11:01:34Z</time>
      </trkpt>
      <trkpt lat="48.41973" lon="2.71472">
        <ele>133</ele>
        <time>2013-04-21T11:01:36Z</time>
      </trkpt>
      <trkpt lat="48.41974" lon="2.71474">
        <ele>133</ele>
        <time>2013-04-21T11:01:37Z</time>
      </trkpt>
      <trkpt lat="48.41977" lon="2.71479">
        <ele>134</ele>
        <time>2013-04-21T11:01:39Z</time>
      </trkpt>
      <trkpt lat="48.41977" lon="2.71482">
        <ele>134</ele>
        <time>2013-04-21T11:01:40Z</time>
      </trkpt>
      <trkpt lat="48.41976" lon="2.71485">
        <ele>134</ele>
        <time>2013-04-21T11:01:41Z</time>
      </trkpt>
      <trkpt lat="48.41975" lon="2.71486">
        <ele>134</ele>
        <time>2013-04-21T11:01:42Z</time>
      </trkpt>
      <trkpt lat="48.41974" lon="2.71486">
        <ele>134</ele>
        <time>2013-04-21T11:01:43Z</time>
      </trkpt>
      <trkpt lat="48.41973" lon="2.71485">
        <ele>133</ele>
        <time>2013-04-21T11:01:44Z</time>
      </trkpt>
      <trkpt lat="48.41972" lon="2.71483">
        <ele>133</ele>
        <time>2013-04-21T11:01:45Z</time>
      </trkpt>
      <trkpt lat="48.41972" lon="2.71481">
        <ele>133</ele>
        <time>2013-04-21T11:01:46Z</time>
      </trkpt>
      <trkpt lat="48.41973" lon="2.71479">
        <ele>133</ele>
        <time>2013-04-21T11:01:47Z</time>
      </trkpt>
      <trkpt lat="48.41974" lon="2.71479">
        <ele>133</ele>
        <time>2013-04-21T11:01:48Z</time>
      </trkpt>
      <trkpt lat="48.41985" lon="2.71481">
        <ele>135</ele>
        <time>2013-04-21T11:01:55Z</time>
      </trkpt>
      <trkpt lat="48.41987" lon="2.71482">
        <ele>135</ele>
        <time>2013-04-21T11:01:57Z</time>
      </trkpt>
      <trkpt lat="48.41988" lon="2.71484">
        <ele>136</ele>
        <time>2013-04-21T11:01:59Z</time>
      </trkpt>
      <trkpt lat="48.41989" lon="2.71484">
        <ele>136</ele>
        <time>2013-04-21T11:02:00Z</time>
      </trkpt>
      <trkpt lat="48.4199" lon="2.71485">
        <ele>136</ele>
        <time>2013-04-21T11:02:02Z</time>
      </trkpt>
      <trkpt lat="48.41991" lon="2.71485">
        <ele>136</ele>
        <time>2013-04-21T11:02:03Z</time>
      </trkpt>
      <trkpt lat="48.41994" lon="2.71486">
        <ele>137</ele>
        <time>2013-04-21T11:02:06Z</time>
      </trkpt>
      <trkpt lat="48.4203" lon="2.71502">
        <ele>143</ele>
        <time>2013-04-21T11:02:25Z</time>
      </trkpt>
      <trkpt lat="48.42032" lon="2.71502">
        <ele>143</ele>
        <time>2013-04-21T11:02:26Z</time>
      </trkpt>
      <trkpt lat="48.42035" lon="2.71501">
        <ele>143</ele>
        <time>2013-04-21T11:02:27Z</time>
      </trkpt>
      <trkpt lat="48.42037" lon="2.71499">
        <ele>143</ele>
        <time>2013-04-21T11:02:28Z</time>
      </trkpt>
      <trkpt lat="48.42043" lon="2.71486">
        <ele>143</ele>
        <time>2013-04-21T11:02:32Z</time>
      </trkpt>
      <trkpt lat="48.42049" lon="2.71476">
        <ele>143</ele>
        <time>2013-04-21T11:02:36Z</time>
      </trkpt>
      <trkpt lat="48.42053" lon="2.71468">
        <ele>143</ele>
        <time>2013-04-21T11:02:39Z</time>
      </trkpt>
      <trkpt lat="48.42057" lon="2.71454">
        <ele>144</ele>
        <time>2013-04-21T11:02:43Z</time>
      </trkpt>
      <trkpt lat="48.42063" lon="2.71443">
        <ele>144</ele>
        <time>2013-04-21T11:02:46Z</time>
      </trkpt>
      <trkpt lat="48.42065" lon="2.7144">
        <ele>144</ele>
        <time>2013-04-21T11:02:47Z</time>
      </trkpt>
      <trkpt lat="48.4207" lon="2.71431">
        <ele>144</ele>
        <time>2013-04-21T11:02:51Z</time>
      </trkpt>
      <trkpt lat="48.42071" lon="2.71428">
        <ele>145</ele>
        <time>2013-04-21T11:02:52Z</time>
      </trkpt>
      <trkpt lat="48.42072" lon="2.71425">
        <ele>145</ele>
        <time>2013-04-21T11:02:53Z</time>
      </trkpt>
      <trkpt lat="48.42072" lon="2.71423">
        <ele>145</ele>
        <time>2013-04-21T11:02:54Z</time>
      </trkpt>
      <trkpt lat="48.42073" lon="2.71422">
        <ele>145</ele>
        <time>2013-04-21T11:02:55Z</time>
      </trkpt>
      <trkpt lat="48.42074" lon="2.71421">
        <ele>145</ele>
        <time>2013-04-21T11:02:56Z</time>
      </trkpt>
      <trkpt lat="48.42074" lon="2.71421">
        <ele>145</ele>
        <time>2013-04-21T11:02:57Z</time>
      </trkpt>
      <trkpt lat="48.42075" lon="2.71421">
        <ele>145</ele>
        <time>2013-04-21T11:02:58Z</time>
      </trkpt>
      <trkpt lat="48.42076" lon="2.71421">
        <ele>145</ele>
        <time>2013-04-21T11:02:59Z</time>
      </trkpt>
      <trkpt lat="48.42077" lon="2.71422">
        <ele>145</ele>
        <time>2013-04-21T11:03:00Z</time>
      </trkpt>
      <trkpt lat="48.42076" lon="2.71423">
        <ele>145</ele>
        <time>2013-04-21T11:03:01Z</time>
      </trkpt>
      <trkpt lat="48.42076" lon="2.71424">
        <ele>145</ele>
        <time>2013-04-21T11:03:02Z</time>
      </trkpt>
      <trkpt lat="48.42075" lon="2.71424">
        <ele>145</ele>
        <time>2013-04-21T11:03:03Z</time>
      </trkpt>
      <trkpt lat="48.42076" lon="2.71425">
        <ele>145</ele>
        <time>2013-04-21T11:03:05Z</time>
      </trkpt>
      <trkpt lat="48.42076" lon="2.71425">
        <ele>145</ele>
        <time>2013-04-21T11:03:06Z</time>
      </trkpt>
      <trkpt lat="48.42076" lon="2.71424">
        <ele>145</ele>
        <time>2013-04-21T11:03:07Z</time>
      </trkpt>
      <trkpt lat="48.42076" lon="2.71424">
        <ele>145</ele>
        <time>2013-04-21T11:03:08Z</time>
      </trkpt>
      <trkpt lat="48.42076" lon="2.71424">
        <ele>145</ele>
        <time>2013-04-21T11:03:09Z</time>
      </trkpt>
      <trkpt lat="48.42076" lon="2.71424">
        <ele>145</ele>
        <time>2013-04-21T11:03:10Z</time>
      </trkpt>
      <trkpt lat="48.42076" lon="2.71424">
        <ele>145</ele>
        <time>2013-04-21T11:03:12Z</time>
      </trkpt>
      <trkpt lat="48.42076" lon="2.71423">
        <ele>145</ele>
        <time>2013-04-21T11:03:13Z</time>
      </trkpt>
      <trkpt lat="48.42076" lon="2.71424">
        <ele>145</ele>
        <time>2013-04-21T11:03:14Z</time>
      </trkpt>
      <trkpt lat="48.42076" lon="2.71423">
        <ele>145</ele>
        <time>2013-04-21T11:03:15Z</time>
      </trkpt>
      <trkpt lat="48.42076" lon="2.71423">
        <ele>145</ele>
        <time>2013-04-21T11:03:16Z</time>
      </trkpt>
      <trkpt lat="48.42076" lon="2.71423">
        <ele>145</ele>
        <time>2013-04-21T11:03:18Z</time>
      </trkpt>
      <trkpt lat="48.42076" lon="2.71423">
        <ele>145</ele>
        <time>2013-04-21T11:03:19Z</time>
      </trkpt>
      <trkpt lat="48.42077" lon="2.71423">
        <ele>145</ele>
        <time>2013-04-21T11:03:20Z</time>
      </trkpt>
      <trkpt lat="48.42077" lon="2.71423">
        <ele>145</ele>
        <time>2013-04-21T11:03:22Z</time>
      </trkpt>
      <trkpt lat="48.42076" lon="2.71422">
        <ele>145</ele>
        <time>2013-04-21T11:03:23Z</time>
      </trkpt>
      <trkpt lat="48.42076" lon="2.7142">
        <ele>145</ele>
        <time>2013-04-21T11:03:24Z</time>
      </trkpt>
      <trkpt lat="48.42076" lon="2.71418">
        <ele>145</ele>
        <time>2013-04-21T11:03:25Z</time>
      </trkpt>
      <trkpt lat="48.42077" lon="2.71417">
        <ele>144</ele>
        <time>2013-04-21T11:03:26Z</time>
      </trkpt>
      <trkpt lat="48.42082" lon="2.71405">
        <ele>144</ele>
        <time>2013-04-21T11:03:31Z</time>
      </trkpt>
      <trkpt lat="48.42082" lon="2.71402">
        <ele>143</ele>
        <time>2013-04-21T11:03:32Z</time>
      </trkpt>
      <trkpt lat="48.42084" lon="2.71388">
        <ele>145</ele>
        <time>2013-04-21T11:03:37Z</time>
      </trkpt>
      <trkpt lat="48.42082" lon="2.71381">
        <ele>141</ele>
        <time>2013-04-21T11:03:55Z</time>
      </trkpt>
      <trkpt lat="48.42082" lon="2.71381">
        <ele>141</ele>
        <time>2013-04-21T11:03:59Z</time>
      </trkpt>
      <trkpt lat="48.42082" lon="2.71381">
        <ele>141</ele>
        <time>2013-04-21T11:04:00Z</time>
      </trkpt>
      <trkpt lat="48.42082" lon="2.71381">
        <ele>141</ele>
        <time>2013-04-21T11:04:01Z</time>
      </trkpt>
      <trkpt lat="48.42082" lon="2.71381">
        <ele>141</ele>
        <time>2013-04-21T11:04:03Z</time>
      </trkpt>
      <trkpt lat="48.42082" lon="2.71381">
        <ele>141</ele>
        <time>2013-04-21T11:04:04Z</time>
      </trkpt>
      <trkpt lat="48.42081" lon="2.71381">
        <ele>141</ele>
        <time>2013-04-21T11:04:06Z</time>
      </trkpt>
      <trkpt lat="48.42081" lon="2.71381">
        <ele>141</ele>
        <time>2013-04-21T11:04:08Z</time>
      </trkpt>
      <trkpt lat="48.42081" lon="2.71381">
        <ele>141</ele>
        <time>2013-04-21T11:04:09Z</time>
      </trkpt>
      <trkpt lat="48.42081" lon="2.7138">
        <ele>141</ele>
        <time>2013-04-21T11:04:10Z</time>
      </trkpt>
      <trkpt lat="48.4208" lon="2.71379">
        <ele>141</ele>
        <time>2013-04-21T11:04:11Z</time>
      </trkpt>
      <trkpt lat="48.42081" lon="2.71377">
        <ele>141</ele>
        <time>2013-04-21T11:04:12Z</time>
      </trkpt>
      <trkpt lat="48.42081" lon="2.71375">
        <ele>141</ele>
        <time>2013-04-21T11:04:13Z</time>
      </trkpt>
      <trkpt lat="48.42082" lon="2.71375">
        <ele>141</ele>
        <time>2013-04-21T11:04:14Z</time>
      </trkpt>
      <trkpt lat="48.42083" lon="2.71375">
        <ele>141</ele>
        <time>2013-04-21T11:04:15Z</time>
      </trkpt>
      <trkpt lat="48.42084" lon="2.71374">
        <ele>145</ele>
        <time>2013-04-21T11:04:16Z</time>
      </trkpt>
      <trkpt lat="48.42085" lon="2.71372">
        <ele>144</ele>
        <time>2013-04-21T11:04:17Z</time>
      </trkpt>
      <trkpt lat="48.42086" lon="2.71362">
        <ele>144</ele>
        <time>2013-04-21T11:04:20Z</time>
      </trkpt>
      <trkpt lat="48.42085" lon="2.71359">
        <ele>144</ele>
        <time>2013-04-21T11:04:21Z</time>
      </trkpt>
      <trkpt lat="48.42084" lon="2.71355">
        <ele>143</ele>
        <time>2013-04-21T11:04:22Z</time>
      </trkpt>
      <trkpt lat="48.42083" lon="2.7135">
        <ele>140</ele>
        <time>2013-04-21T11:04:23Z</time>
      </trkpt>
      <trkpt lat="48.42083" lon="2.71345">
        <ele>140</ele>
        <time>2013-04-21T11:04:24Z</time>
      </trkpt>
      <trkpt lat="48.42084" lon="2.7134">
        <ele>142</ele>
        <time>2013-04-21T11:04:25Z</time>
      </trkpt>
      <trkpt lat="48.42093" lon="2.71314">
        <ele>142</ele>
        <time>2013-04-21T11:04:30Z</time>
      </trkpt>
      <trkpt lat="48.42093" lon="2.7131">
        <ele>142</ele>
        <time>2013-04-21T11:04:31Z</time>
      </trkpt>
      <trkpt lat="48.42099" lon="2.71277">
        <ele>141</ele>
        <time>2013-04-21T11:04:38Z</time>
      </trkpt>
      <trkpt lat="48.421" lon="2.71272">
        <ele>141</ele>
        <time>2013-04-21T11:04:39Z</time>
      </trkpt>
      <trkpt lat="48.42102" lon="2.71268">
        <ele>141</ele>
        <time>2013-04-21T11:04:40Z</time>
      </trkpt>
      <trkpt lat="48.42104" lon="2.71265">
        <ele>141</ele>
        <time>2013-04-21T11:04:41Z</time>
      </trkpt>
      <trkpt lat="48.42107" lon="2.71263">
        <ele>141</ele>
        <time>2013-04-21T11:04:42Z</time>
      </trkpt>
      <trkpt lat="48.42109" lon="2.7126">
        <ele>141</ele>
        <time>2013-04-21T11:04:43Z</time>
      </trkpt>
      <trkpt lat="48.4211" lon="2.71256">
        <ele>141</ele>
        <time>2013-04-21T11:04:44Z</time>
      </trkpt>
      <trkpt lat="48.42111" lon="2.71251">
        <ele>141</ele>
        <time>2013-04-21T11:04:45Z</time>
      </trkpt>
      <trkpt lat="48.42112" lon="2.71247">
        <ele>140</ele>
        <time>2013-04-21T11:04:46Z</time>
      </trkpt>
      <trkpt lat="48.42116" lon="2.71241">
        <ele>140</ele>
        <time>2013-04-21T11:04:48Z</time>
      </trkpt>
      <trkpt lat="48.42118" lon="2.71238">
        <ele>140</ele>
        <time>2013-04-21T11:04:49Z</time>
      </trkpt>
      <trkpt lat="48.4212" lon="2.71236">
        <ele>140</ele>
        <time>2013-04-21T11:04:50Z</time>
      </trkpt>
      <trkpt lat="48.42121" lon="2.71233">
        <ele>140</ele>
        <time>2013-04-21T11:04:51Z</time>
      </trkpt>
      <trkpt lat="48.42123" lon="2.7123">
        <ele>140</ele>
        <time>2013-04-21T11:04:52Z</time>
      </trkpt>
      <trkpt lat="48.42127" lon="2.71228">
        <ele>140</ele>
        <time>2013-04-21T11:04:54Z</time>
      </trkpt>
      <trkpt lat="48.42131" lon="2.71226">
        <ele>140</ele>
        <time>2013-04-21T11:04:56Z</time>
      </trkpt>
      <trkpt lat="48.42133" lon="2.71223">
        <ele>140</ele>
        <time>2013-04-21T11:04:57Z</time>
      </trkpt>
      <trkpt lat="48.42138" lon="2.71219">
        <ele>140</ele>
        <time>2013-04-21T11:04:59Z</time>
      </trkpt>
      <trkpt lat="48.4214" lon="2.71219">
        <ele>141</ele>
        <time>2013-04-21T11:05:00Z</time>
      </trkpt>
      <trkpt lat="48.42141" lon="2.71217">
        <ele>141</ele>
        <time>2013-04-21T11:05:01Z</time>
      </trkpt>
      <trkpt lat="48.42143" lon="2.71213">
        <ele>140</ele>
        <time>2013-04-21T11:05:02Z</time>
      </trkpt>
      <trkpt lat="48.42143" lon="2.71203">
        <ele>140</ele>
        <time>2013-04-21T11:05:04Z</time>
      </trkpt>
      <trkpt lat="48.42144" lon="2.71199">
        <ele>140</ele>
        <time>2013-04-21T11:05:05Z</time>
      </trkpt>
      <trkpt lat="48.42145" lon="2.71197">
        <ele>140</ele>
        <time>2013-04-21T11:05:06Z</time>
      </trkpt>
      <trkpt lat="48.42146" lon="2.71194">
        <ele>140</ele>
        <time>2013-04-21T11:05:08Z</time>
      </trkpt>
      <trkpt lat="48.42147" lon="2.71193">
        <ele>140</ele>
        <time>2013-04-21T11:05:10Z</time>
      </trkpt>
      <trkpt lat="48.42147" lon="2.71192">
        <ele>140</ele>
        <time>2013-04-21T11:05:11Z</time>
      </trkpt>
      <trkpt lat="48.42147" lon="2.71192">
        <ele>140</ele>
        <time>2013-04-21T11:05:12Z</time>
      </trkpt>
      <trkpt lat="48.42147" lon="2.71191">
        <ele>140</ele>
        <time>2013-04-21T11:05:14Z</time>
      </trkpt>
      <trkpt lat="48.42148" lon="2.7119">
        <ele>140</ele>
        <time>2013-04-21T11:05:17Z</time>
      </trkpt>
      <trkpt lat="48.42148" lon="2.71189">
        <ele>140</ele>
        <time>2013-04-21T11:05:18Z</time>
      </trkpt>
      <trkpt lat="48.42149" lon="2.71189">
        <ele>140</ele>
        <time>2013-04-21T11:05:20Z</time>
      </trkpt>
      <trkpt lat="48.42149" lon="2.71189">
        <ele>140</ele>
        <time>2013-04-21T11:05:21Z</time>
      </trkpt>
      <trkpt lat="48.4215" lon="2.71189">
        <ele>140</ele>
        <time>2013-04-21T11:05:22Z</time>
      </trkpt>
      <trkpt lat="48.4215" lon="2.71188">
        <ele>140</ele>
        <time>2013-04-21T11:05:24Z</time>
      </trkpt>
      <trkpt lat="48.4215" lon="2.71188">
        <ele>140</ele>
        <time>2013-04-21T11:05:25Z</time>
      </trkpt>
      <trkpt lat="48.42151" lon="2.71188">
        <ele>140</ele>
        <time>2013-04-21T11:05:26Z</time>
      </trkpt>
      <trkpt lat="48.42151" lon="2.71187">
        <ele>140</ele>
        <time>2013-04-21T11:05:28Z</time>
      </trkpt>
      <trkpt lat="48.42151" lon="2.71187">
        <ele>140</ele>
        <time>2013-04-21T11:05:31Z</time>
      </trkpt>
      <trkpt lat="48.42152" lon="2.71187">
        <ele>140</ele>
        <time>2013-04-21T11:05:33Z</time>
      </trkpt>
      <trkpt lat="48.42153" lon="2.71186">
        <ele>140</ele>
        <time>2013-04-21T11:05:34Z</time>
      </trkpt>
      <trkpt lat="48.42155" lon="2.71185">
        <ele>140</ele>
        <time>2013-04-21T11:05:35Z</time>
      </trkpt>
      <trkpt lat="48.42156" lon="2.71184">
        <ele>140</ele>
        <time>2013-04-21T11:05:36Z</time>
      </trkpt>
      <trkpt lat="48.42157" lon="2.71183">
        <ele>140</ele>
        <time>2013-04-21T11:05:37Z</time>
      </trkpt>
      <trkpt lat="48.42157" lon="2.71181">
        <ele>140</ele>
        <time>2013-04-21T11:05:38Z</time>
      </trkpt>
      <trkpt lat="48.42157" lon="2.71177">
        <ele>140</ele>
        <time>2013-04-21T11:05:41Z</time>
      </trkpt>
      <trkpt lat="48.42157" lon="2.71172">
        <ele>140</ele>
        <time>2013-04-21T11:05:44Z</time>
      </trkpt>
      <trkpt lat="48.42157" lon="2.71171">
        <ele>140</ele>
        <time>2013-04-21T11:05:45Z</time>
      </trkpt>
      <trkpt lat="48.42157" lon="2.71171">
        <ele>140</ele>
        <time>2013-04-21T11:05:46Z</time>
      </trkpt>
      <trkpt lat="48.42156" lon="2.71171">
        <ele>140</ele>
        <time>2013-04-21T11:05:47Z</time>
      </trkpt>
      <trkpt lat="48.42156" lon="2.71171">
        <ele>140</ele>
        <time>2013-04-21T11:05:48Z</time>
      </trkpt>
      <trkpt lat="48.42156" lon="2.71171">
        <ele>140</ele>
        <time>2013-04-21T11:05:49Z</time>
      </trkpt>
      <trkpt lat="48.42156" lon="2.7117">
        <ele>140</ele>
        <time>2013-04-21T11:05:51Z</time>
      </trkpt>
      <trkpt lat="48.42156" lon="2.7117">
        <ele>140</ele>
        <time>2013-04-21T11:05:52Z</time>
      </trkpt>
      <trkpt lat="48.42155" lon="2.7117">
        <ele>140</ele>
        <time>2013-04-21T11:05:53Z</time>
      </trkpt>
      <trkpt lat="48.42155" lon="2.7117">
        <ele>140</ele>
        <time>2013-04-21T11:05:54Z</time>
      </trkpt>
      <trkpt lat="48.42155" lon="2.7117">
        <ele>140</ele>
        <time>2013-04-21T11:05:55Z</time>
      </trkpt>
      <trkpt lat="48.42155" lon="2.7117">
        <ele>140</ele>
        <time>2013-04-21T11:05:56Z</time>
      </trkpt>
      <trkpt lat="48.42155" lon="2.7117">
        <ele>140</ele>
        <time>2013-04-21T11:05:57Z</time>
      </trkpt>
      <trkpt lat="48.42155" lon="2.71169">
        <ele>140</ele>
        <time>2013-04-21T11:05:58Z</time>
      </trkpt>
      <trkpt lat="48.42155" lon="2.71169">
        <ele>140</ele>
        <time>2013-04-21T11:05:59Z</time>
      </trkpt>
      <trkpt lat="48.42155" lon="2.71169">
        <ele>140</ele>
        <time>2013-04-21T11:06:00Z</time>
      </trkpt>
      <trkpt lat="48.42155" lon="2.71169">
        <ele>140</ele>
        <time>2013-04-21T11:06:01Z</time>
      </trkpt>
      <trkpt lat="48.42155" lon="2.71169">
        <ele>140</ele>
        <time>2013-04-21T11:06:02Z</time>
      </trkpt>
      <trkpt lat="48.42154" lon="2.71168">
        <ele>140</ele>
        <time>2013-04-21T11:06:03Z</time>
      </trkpt>
      <trkpt lat="48.42154" lon="2.71168">
        <ele>140</ele>
        <time>2013-04-21T11:06:04Z</time>
      </trkpt>
      <trkpt lat="48.42154" lon="2.71168">
        <ele>140</ele>
        <time>2013-04-21T11:06:06Z</time>
      </trkpt>
      <trkpt lat="48.42154" lon="2.71168">
        <ele>140</ele>
        <time>2013-04-21T11:06:08Z</time>
      </trkpt>
      <trkpt lat="48.42154" lon="2.71168">
        <ele>140</ele>
        <time>2013-04-21T11:06:09Z</time>
      </trkpt>
      <trkpt lat="48.42153" lon="2.71169">
        <ele>140</ele>
        <time>2013-04-21T11:06:11Z</time>
      </trkpt>
      <trkpt lat="48.42153" lon="2.7117">
        <ele>140</ele>
        <time>2013-04-21T11:06:12Z</time>
      </trkpt>
      <trkpt lat="48.42152" lon="2.7117">
        <ele>140</ele>
        <time>2013-04-21T11:06:13Z</time>
      </trkpt>
      <trkpt lat="48.42152" lon="2.71171">
        <ele>140</ele>
        <time>2013-04-21T11:06:14Z</time>
      </trkpt>
      <trkpt lat="48.42151" lon="2.71172">
        <ele>140</ele>
        <time>2013-04-21T11:06:16Z</time>
      </trkpt>
      <trkpt lat="48.42148" lon="2.71175">
        <ele>140</ele>
        <time>2013-04-21T11:06:20Z</time>
      </trkpt>
      <trkpt lat="48.42147" lon="2.71175">
        <ele>140</ele>
        <time>2013-04-21T11:06:21Z</time>
      </trkpt>
      <trkpt lat="48.42147" lon="2.71176">
        <ele>140</ele>
        <time>2013-04-21T11:06:22Z</time>
      </trkpt>
      <trkpt lat="48.42146" lon="2.71177">
        <ele>140</ele>
        <time>2013-04-21T11:06:23Z</time>
      </trkpt>
      <trkpt lat="48.42142" lon="2.7118">
        <ele>140</ele>
        <time>2013-04-21T11:06:26Z</time>
      </trkpt>
      <trkpt lat="48.42141" lon="2.71181">
        <ele>140</ele>
        <time>2013-04-21T11:06:27Z</time>
      </trkpt>
      <trkpt lat="48.4214" lon="2.71182">
        <ele>140</ele>
        <time>2013-04-21T11:06:28Z</time>
      </trkpt>
      <trkpt lat="48.42139" lon="2.71183">
        <ele>140</ele>
        <time>2013-04-21T11:06:29Z</time>
      </trkpt>
      <trkpt lat="48.42137" lon="2.71182">
        <ele>140</ele>
        <time>2013-04-21T11:06:30Z</time>
      </trkpt>
      <trkpt lat="48.42134" lon="2.71181">
        <ele>140</ele>
        <time>2013-04-21T11:06:32Z</time>
      </trkpt>
      <trkpt lat="48.42133" lon="2.71181">
        <ele>139</ele>
        <time>2013-04-21T11:06:33Z</time>
      </trkpt>
      <trkpt lat="48.42132" lon="2.7118">
        <ele>139</ele>
        <time>2013-04-21T11:06:34Z</time>
      </trkpt>
      <trkpt lat="48.42131" lon="2.7118">
        <ele>139</ele>
        <time>2013-04-21T11:06:35Z</time>
      </trkpt>
      <trkpt lat="48.42127" lon="2.71178">
        <ele>139</ele>
        <time>2013-04-21T11:06:37Z</time>
      </trkpt>
      <trkpt lat="48.42125" lon="2.71177">
        <ele>139</ele>
        <time>2013-04-21T11:06:38Z</time>
      </trkpt>
      <trkpt lat="48.4212" lon="2.7118">
        <ele>139</ele>
        <time>2013-04-21T11:06:40Z</time>
      </trkpt>
      <trkpt lat="48.42118" lon="2.7118">
        <ele>139</ele>
        <time>2013-04-21T11:06:41Z</time>
      </trkpt>
      <trkpt lat="48.42116" lon="2.71177">
        <ele>139</ele>
        <time>2013-04-21T11:06:42Z</time>
      </trkpt>
      <trkpt lat="48.42116" lon="2.71171">
        <ele>139</ele>
        <time>2013-04-21T11:06:44Z</time>
      </trkpt>
      <trkpt lat="48.42115" lon="2.71168">
        <ele>139</ele>
        <time>2013-04-21T11:06:45Z</time>
      </trkpt>
      <trkpt lat="48.42114" lon="2.71168">
        <ele>139</ele>
        <time>2013-04-21T11:06:46Z</time>
      </trkpt>
      <trkpt lat="48.42107" lon="2.71167">
        <ele>138</ele>
        <time>2013-04-21T11:06:49Z</time>
      </trkpt>
      <trkpt lat="48.42105" lon="2.71166">
        <ele>135</ele>
        <time>2013-04-21T11:06:50Z</time>
      </trkpt>
      <trkpt lat="48.42102" lon="2.71163">
        <ele>135</ele>
        <time>2013-04-21T11:06:51Z</time>
      </trkpt>
      <trkpt lat="48.42098" lon="2.7116">
        <ele>135</ele>
        <time>2013-04-21T11:06:52Z</time>
      </trkpt>
      <trkpt lat="48.42085" lon="2.71155">
        <ele>135</ele>
        <time>2013-04-21T11:06:55Z</time>
      </trkpt>
      <trkpt lat="48.42081" lon="2.71151">
        <ele>132</ele>
        <time>2013-04-21T11:06:56Z</time>
      </trkpt>
      <trkpt lat="48.42078" lon="2.71145">
        <ele>131</ele>
        <time>2013-04-21T11:06:57Z</time>
      </trkpt>
      <trkpt lat="48.42076" lon="2.71139">
        <ele>130</ele>
        <time>2013-04-21T11:06:58Z</time>
      </trkpt>
      <trkpt lat="48.42073" lon="2.71134">
        <ele>130</ele>
        <time>2013-04-21T11:06:59Z</time>
      </trkpt>
      <trkpt lat="48.42035" lon="2.71094">
        <ele>126</ele>
        <time>2013-04-21T11:07:06Z</time>
      </trkpt>
      <trkpt lat="48.42014" lon="2.7108">
        <ele>122</ele>
        <time>2013-04-21T11:07:09Z</time>
      </trkpt>
      <trkpt lat="48.41982" lon="2.71039">
        <ele>117</ele>
        <time>2013-04-21T11:07:14Z</time>
      </trkpt>
      <trkpt lat="48.41963" lon="2.71024">
        <ele>116</ele>
        <time>2013-04-21T11:07:17Z</time>
      </trkpt>
      <trkpt lat="48.41959" lon="2.71018">
        <ele>116</ele>
        <time>2013-04-21T11:07:18Z</time>
      </trkpt>
      <trkpt lat="48.41908" lon="2.70906">
        <ele>106</ele>
        <time>2013-04-21T11:07:31Z</time>
      </trkpt>
      <trkpt lat="48.41896" lon="2.7089">
        <ele>104</ele>
        <time>2013-04-21T11:07:34Z</time>
      </trkpt>
      <trkpt lat="48.41896" lon="2.70889">
        <ele>104</ele>
        <time>2013-04-21T11:07:35Z</time>
      </trkpt>
      <trkpt lat="48.41895" lon="2.70889">
        <ele>104</ele>
        <time>2013-04-21T11:07:36Z</time>
      </trkpt>
      <trkpt lat="48.41895" lon="2.70888">
        <ele>104</ele>
        <time>2013-04-21T11:07:37Z</time>
      </trkpt>
      <trkpt lat="48.41894" lon="2.70888">
        <ele>104</ele>
        <time>2013-04-21T11:07:38Z</time>
      </trkpt>
      <trkpt lat="48.41894" lon="2.70888">
        <ele>104</ele>
        <time>2013-04-21T11:07:39Z</time>
      </trkpt>
      <trkpt lat="48.41893" lon="2.70887">
        <ele>104</ele>
        <time>2013-04-21T11:07:40Z</time>
      </trkpt>
      <trkpt lat="48.41893" lon="2.70887">
        <ele>104</ele>
        <time>2013-04-21T11:07:41Z</time>
      </trkpt>
      <trkpt lat="48.41892" lon="2.70886">
        <ele>104</ele>
        <time>2013-04-21T11:07:42Z</time>
      </trkpt>
      <trkpt lat="48.41891" lon="2.70886">
        <ele>104</ele>
        <time>2013-04-21T11:07:43Z</time>
      </trkpt>
      <trkpt lat="48.41891" lon="2.70885">
        <ele>104</ele>
        <time>2013-04-21T11:07:44Z</time>
      </trkpt>
      <trkpt lat="48.4189" lon="2.70885">
        <ele>104</ele>
        <time>2013-04-21T11:07:45Z</time>
      </trkpt>
      <trkpt lat="48.41889" lon="2.70884">
        <ele>103</ele>
        <time>2013-04-21T11:07:46Z</time>
      </trkpt>
      <trkpt lat="48.41888" lon="2.70884">
        <ele>103</ele>
        <time>2013-04-21T11:07:47Z</time>
      </trkpt>
      <trkpt lat="48.41887" lon="2.70883">
        <ele>103</ele>
        <time>2013-04-21T11:07:48Z</time>
      </trkpt>
      <trkpt lat="48.41886" lon="2.70883">
        <ele>103</ele>
        <time>2013-04-21T11:07:49Z</time>
      </trkpt>
      <trkpt lat="48.41886" lon="2.70883">
        <ele>103</ele>
        <time>2013-04-21T11:07:50Z</time>
      </trkpt>
      <trkpt lat="48.41886" lon="2.70883">
        <ele>103</ele>
        <time>2013-04-21T11:07:51Z</time>
      </trkpt>
      <trkpt lat="48.41886" lon="2.70883">
        <ele>103</ele>
        <time>2013-04-21T11:07:52Z</time>
      </trkpt>
      <trkpt lat="48.41886" lon="2.70883">
        <ele>103</ele>
        <time>2013-04-21T11:07:54Z</time>
      </trkpt>
      <trkpt lat="48.41886" lon="2.70884">
        <ele>103</ele>
        <time>2013-04-21T11:07:55Z</time>
      </trkpt>
      <trkpt lat="48.41886" lon="2.70885">
        <ele>103</ele>
        <time>2013-04-21T11:07:56Z</time>
      </trkpt>
      <trkpt lat="48.41886" lon="2.70886">
        <ele>103</ele>
        <time>2013-04-21T11:07:57Z</time>
      </trkpt>
      <trkpt lat="48.41887" lon="2.70887">
        <ele>103</ele>
        <time>2013-04-21T11:07:58Z</time>
      </trkpt>
      <trkpt lat="48.41887" lon="2.70887">
        <ele>103</ele>
        <time>2013-04-21T11:07:59Z</time>
      </trkpt>
      <trkpt lat="48.41886" lon="2.70887">
        <ele>103</ele>
        <time>2013-04-21T11:08:00Z</time>
      </trkpt>
      <trkpt lat="48.41886" lon="2.70887">
        <ele>103</ele>
        <time>2013-04-21T11:08:01Z</time>
      </trkpt>
      <trkpt lat="48.41886" lon="2.70888">
        <ele>103</ele>
        <time>2013-04-21T11:08:02Z</time>
      </trkpt>
      <trkpt lat="48.41886" lon="2.70888">
        <ele>103</ele>
        <time>2013-04-21T11:08:03Z</time>
      </trkpt>
      <trkpt lat="48.41886" lon="2.70888">
        <ele>103</ele>
        <time>2013-04-21T11:08:04Z</time>
      </trkpt>
      <trkpt lat="48.41886" lon="2.70888">
        <ele>103</ele>
        <time>2013-04-21T11:08:06Z</time>
      </trkpt>
      <trkpt lat="48.41886" lon="2.70889">
        <ele>103</ele>
        <time>2013-04-21T11:08:07Z</time>
      </trkpt>
      <trkpt lat="48.41886" lon="2.70889">
        <ele>103</ele>
        <time>2013-04-21T11:08:08Z</time>
      </trkpt>
      <trkpt lat="48.41886" lon="2.70889">
        <ele>104</ele>
        <time>2013-04-21T11:08:09Z</time>
      </trkpt>
      <trkpt lat="48.41886" lon="2.70889">
        <ele>104</ele>
        <time>2013-04-21T11:08:10Z</time>
      </trkpt>
      <trkpt lat="48.41886" lon="2.70889">
        <ele>104</ele>
        <time>2013-04-21T11:08:11Z</time>
      </trkpt>
      <trkpt lat="48.41886" lon="2.7089">
        <ele>104</ele>
        <time>2013-04-21T11:08:12Z</time>
      </trkpt>
      <trkpt lat="48.41886" lon="2.7089">
        <ele>104</ele>
        <time>2013-04-21T11:08:13Z</time>
      </trkpt>
      <trkpt lat="48.41886" lon="2.70891">
        <ele>104</ele>
        <time>2013-04-21T11:08:14Z</time>
      </trkpt>
      <trkpt lat="48.41886" lon="2.70891">
        <ele>104</ele>
        <time>2013-04-21T11:08:15Z</time>
      </trkpt>
      <trkpt lat="48.41886" lon="2.70891">
        <ele>104</ele>
        <time>2013-04-21T11:08:16Z</time>
      </trkpt>
      <trkpt lat="48.41886" lon="2.70892">
        <ele>104</ele>
        <time>2013-04-21T11:08:18Z</time>
      </trkpt>
      <trkpt lat="48.41886" lon="2.70892">
        <ele>104</ele>
        <time>2013-04-21T11:08:20Z</time>
      </trkpt>
      <trkpt lat="48.41886" lon="2.70892">
        <ele>104</ele>
        <time>2013-04-21T11:08:21Z</time>
      </trkpt>
      <trkpt lat="48.41886" lon="2.70892">
        <ele>104</ele>
        <time>2013-04-21T11:08:22Z</time>
      </trkpt>
      <trkpt lat="48.41886" lon="2.70892">
        <ele>104</ele>
        <time>2013-04-21T11:08:24Z</time>
      </trkpt>
      <trkpt lat="48.41886" lon="2.70893">
        <ele>104</ele>
        <time>2013-04-21T11:08:25Z</time>
      </trkpt>
      <trkpt lat="48.41886" lon="2.70893">
        <ele>104</ele>
        <time>2013-04-21T11:08:26Z</time>
      </trkpt>
      <trkpt lat="48.41886" lon="2.70893">
        <ele>104</ele>
        <time>2013-04-21T11:08:27Z</time>
      </trkpt>
      <trkpt lat="48.41885" lon="2.70893">
        <ele>104</ele>
        <time>2013-04-21T11:08:30Z</time>
      </trkpt>
      <trkpt lat="48.41885" lon="2.70893">
        <ele>104</ele>
        <time>2013-04-21T11:08:31Z</time>
      </trkpt>
      <trkpt lat="48.41885" lon="2.70893">
        <ele>104</ele>
        <time>2013-04-21T11:08:35Z</time>
      </trkpt>
      <trkpt lat="48.41885" lon="2.70893">
        <ele>104</ele>
        <time>2013-04-21T11:08:36Z</time>
      </trkpt>
      <trkpt lat="48.41885" lon="2.70893">
        <ele>104</ele>
        <time>2013-04-21T11:08:39Z</time>
      </trkpt>
      <trkpt lat="48.41885" lon="2.70893">
        <ele>104</ele>
        <time>2013-04-21T11:08:44Z</time>
      </trkpt>
      <trkpt lat="48.41885" lon="2.70893">
        <ele>104</ele>
        <time>2013-04-21T11:08:49Z</time>
      </trkpt>
      <trkpt lat="48.41885" lon="2.70893">
        <ele>104</ele>
        <time>2013-04-21T11:08:53Z</time>
      </trkpt>
      <trkpt lat="48.41885" lon="2.70893">
        <ele>104</ele>
        <time>2013-04-21T11:08:59Z</time>
      </trkpt>
      <trkpt lat="48.41885" lon="2.70893">
        <ele>104</ele>
        <time>2013-04-21T11:09:01Z</time>
      </trkpt>
      <trkpt lat="48.41885" lon="2.70893">
        <ele>104</ele>
        <time>2013-04-21T11:09:05Z</time>
      </trkpt>
      <trkpt lat="48.41885" lon="2.70892">
        <ele>104</ele>
        <time>2013-04-21T11:09:09Z</time>
      </trkpt>
      <trkpt lat="48.41884" lon="2.70892">
        <ele>104</ele>
        <time>2013-04-21T11:09:11Z</time>
      </trkpt>
      <trkpt lat="48.41884" lon="2.70892">
        <ele>104</ele>
        <time>2013-04-21T11:09:14Z</time>
      </trkpt>
      <trkpt lat="48.41884" lon="2.70892">
        <ele>104</ele>
        <time>2013-04-21T11:09:15Z</time>
      </trkpt>
      <trkpt lat="48.41884" lon="2.70892">
        <ele>104</ele>
        <time>2013-04-21T11:09:20Z</time>
      </trkpt>
      <trkpt lat="48.41884" lon="2.70892">
        <ele>104</ele>
        <time>2013-04-21T11:09:21Z</time>
      </trkpt>
      <trkpt lat="48.41884" lon="2.70892">
        <ele>104</ele>
        <time>2013-04-21T11:09:22Z</time>
      </trkpt>
      <trkpt lat="48.41884" lon="2.70892">
        <ele>104</ele>
        <time>2013-04-21T11:09:23Z</time>
      </trkpt>
      <trkpt lat="48.41884" lon="2.70893">
        <ele>104</ele>
        <time>2013-04-21T11:09:24Z</time>
      </trkpt>
      <trkpt lat="48.41884" lon="2.70893">
        <ele>104</ele>
        <time>2013-04-21T11:09:26Z</time>
      </trkpt>
      <trkpt lat="48.41884" lon="2.70893">
        <ele>104</ele>
        <time>2013-04-21T11:09:27Z</time>
      </trkpt>
      <trkpt lat="48.41885" lon="2.70893">
        <ele>104</ele>
        <time>2013-04-21T11:09:28Z</time>
      </trkpt>
      <trkpt lat="48.41884" lon="2.70893">
        <ele>104</ele>
        <time>2013-04-21T11:09:29Z</time>
      </trkpt>
      <trkpt lat="48.41885" lon="2.70893">
        <ele>104</ele>
        <time>2013-04-21T11:09:30Z</time>
      </trkpt>
      <trkpt lat="48.41885" lon="2.70894">
        <ele>104</ele>
        <time>2013-04-21T11:09:32Z</time>
      </trkpt>
      <trkpt lat="48.41885" lon="2.70894">
        <ele>104</ele>
        <time>2013-04-21T11:09:33Z</time>
      </trkpt>
      <trkpt lat="48.41885" lon="2.70894">
        <ele>104</ele>
        <time>2013-04-21T11:09:34Z</time>
      </trkpt>
      <trkpt lat="48.41885" lon="2.70894">
        <ele>104</ele>
        <time>2013-04-21T11:09:35Z</time>
      </trkpt>
      <trkpt lat="48.41885" lon="2.70894">
        <ele>104</ele>
        <time>2013-04-21T11:09:36Z</time>
      </trkpt>
      <trkpt lat="48.41885" lon="2.70895">
        <ele>104</ele>
        <time>2013-04-21T11:09:37Z</time>
      </trkpt>
      <trkpt lat="48.41885" lon="2.70895">
        <ele>104</ele>
        <time>2013-04-21T11:09:38Z</time>
      </trkpt>
      <trkpt lat="48.41885" lon="2.70895">
        <ele>104</ele>
        <time>2013-04-21T11:09:39Z</time>
      </trkpt>
      <trkpt lat="48.41886" lon="2.70899">
        <ele>104</ele>
        <time>2013-04-21T11:09:40Z</time>
      </trkpt>
      <trkpt lat="48.41886" lon="2.70899">
        <ele>104</ele>
        <time>2013-04-21T11:09:42Z</time>
      </trkpt>
      <trkpt lat="48.41886" lon="2.70899">
        <ele>104</ele>
        <time>2013-04-21T11:09:43Z</time>
      </trkpt>
      <trkpt lat="48.41885" lon="2.709">
        <ele>104</ele>
        <time>2013-04-21T11:09:46Z</time>
      </trkpt>
      <trkpt lat="48.4188" lon="2.70906">
        <ele>104</ele>
        <time>2013-04-21T11:09:50Z</time>
      </trkpt>
      <trkpt lat="48.41868" lon="2.70917">
        <ele>103</ele>
        <time>2013-04-21T11:09:55Z</time>
      </trkpt>
      <trkpt lat="48.41866" lon="2.7092">
        <ele>105</ele>
        <time>2013-04-21T11:09:56Z</time>
      </trkpt>
      <trkpt lat="48.41865" lon="2.70924">
        <ele>105</ele>
        <time>2013-04-21T11:09:57Z</time>
      </trkpt>
      <trkpt lat="48.41866" lon="2.70926">
        <ele>105</ele>
        <time>2013-04-21T11:09:58Z</time>
      </trkpt>
      <trkpt lat="48.41868" lon="2.70929">
        <ele>105</ele>
        <time>2013-04-21T11:09:59Z</time>
      </trkpt>
      <trkpt lat="48.41869" lon="2.70932">
        <ele>105</ele>
        <time>2013-04-21T11:10:00Z</time>
      </trkpt>
      <trkpt lat="48.41874" lon="2.70959">
        <ele>105</ele>
        <time>2013-04-21T11:10:07Z</time>
      </trkpt>
      <trkpt lat="48.41875" lon="2.70963">
        <ele>106</ele>
        <time>2013-04-21T11:10:08Z</time>
      </trkpt>
      <trkpt lat="48.41877" lon="2.70977">
        <ele>106</ele>
        <time>2013-04-21T11:10:11Z</time>
      </trkpt>
      <trkpt lat="48.41903" lon="2.71118">
        <ele>109</ele>
        <time>2013-04-21T11:10:39Z</time>
      </trkpt>
      <trkpt lat="48.41904" lon="2.71124">
        <ele>109</ele>
        <time>2013-04-21T11:10:40Z</time>
      </trkpt>
      <trkpt lat="48.41903" lon="2.7113">
        <ele>109</ele>
        <time>2013-04-21T11:10:41Z</time>
      </trkpt>
      <trkpt lat="48.41902" lon="2.71135">
        <ele>109</ele>
        <time>2013-04-21T11:10:42Z</time>
      </trkpt>
      <trkpt lat="48.41889" lon="2.71164">
        <ele>109</ele>
        <time>2013-04-21T11:10:51Z</time>
      </trkpt>
      <trkpt lat="48.41888" lon="2.71166">
        <ele>109</ele>
        <time>2013-04-21T11:10:52Z</time>
      </trkpt>
      <trkpt lat="48.41888" lon="2.71167">
        <ele>110</ele>
        <time>2013-04-21T11:10:53Z</time>
      </trkpt>
      <trkpt lat="48.41889" lon="2.71169">
        <ele>110</ele>
        <time>2013-04-21T11:10:54Z</time>
      </trkpt>
      <trkpt lat="48.41892" lon="2.71174">
        <ele>110</ele>
        <time>2013-04-21T11:10:57Z</time>
      </trkpt>
      <trkpt lat="48.419" lon="2.71186">
        <ele>110</ele>
        <time>2013-04-21T11:11:03Z</time>
      </trkpt>
      <trkpt lat="48.41905" lon="2.71191">
        <ele>110</ele>
        <time>2013-04-21T11:11:06Z</time>
      </trkpt>
      <trkpt lat="48.41906" lon="2.71194">
        <ele>110</ele>
        <time>2013-04-21T11:11:07Z</time>
      </trkpt>
      <trkpt lat="48.41917" lon="2.71209">
        <ele>114</ele>
        <time>2013-04-21T11:11:14Z</time>
      </trkpt>
      <trkpt lat="48.41918" lon="2.71212">
        <ele>115</ele>
        <time>2013-04-21T11:11:15Z</time>
      </trkpt>
      <trkpt lat="48.41927" lon="2.71224">
        <ele>115</ele>
        <time>2013-04-21T11:11:22Z</time>
      </trkpt>
      <trkpt lat="48.4193" lon="2.71234">
        <ele>115</ele>
        <time>2013-04-21T11:11:27Z</time>
      </trkpt>
      <trkpt lat="48.41932" lon="2.71239">
        <ele>115</ele>
        <time>2013-04-21T11:11:30Z</time>
      </trkpt>
      <trkpt lat="48.41932" lon="2.7124">
        <ele>115</ele>
        <time>2013-04-21T11:11:31Z</time>
      </trkpt>
      <trkpt lat="48.41933" lon="2.71242">
        <ele>115</ele>
        <time>2013-04-21T11:11:32Z</time>
      </trkpt>
      <trkpt lat="48.41936" lon="2.71246">
        <ele>115</ele>
        <time>2013-04-21T11:11:35Z</time>
      </trkpt>
      <trkpt lat="48.41938" lon="2.71255">
        <ele>118</ele>
        <time>2013-04-21T11:11:39Z</time>
      </trkpt>
      <trkpt lat="48.41939" lon="2.71256">
        <ele>118</ele>
        <time>2013-04-21T11:11:40Z</time>
      </trkpt>
      <trkpt lat="48.4194" lon="2.71258">
        <ele>118</ele>
        <time>2013-04-21T11:11:41Z</time>
      </trkpt>
      <trkpt lat="48.41941" lon="2.71258">
        <ele>118</ele>
        <time>2013-04-21T11:11:42Z</time>
      </trkpt>
      <trkpt lat="48.41941" lon="2.71258">
        <ele>118</ele>
        <time>2013-04-21T11:11:43Z</time>
      </trkpt>
      <trkpt lat="48.41942" lon="2.71259">
        <ele>118</ele>
        <time>2013-04-21T11:11:44Z</time>
      </trkpt>
      <trkpt lat="48.41943" lon="2.71259">
        <ele>118</ele>
        <time>2013-04-21T11:11:45Z</time>
      </trkpt>
      <trkpt lat="48.41945" lon="2.71261">
        <ele>119</ele>
        <time>2013-04-21T11:11:51Z</time>
      </trkpt>
      <trkpt lat="48.41945" lon="2.71261">
        <ele>119</ele>
        <time>2013-04-21T11:11:52Z</time>
      </trkpt>
      <trkpt lat="48.41945" lon="2.71261">
        <ele>119</ele>
        <time>2013-04-21T11:11:53Z</time>
      </trkpt>
      <trkpt lat="48.41945" lon="2.71262">
        <ele>119</ele>
        <time>2013-04-21T11:11:54Z</time>
      </trkpt>
      <trkpt lat="48.41945" lon="2.71262">
        <ele>119</ele>
        <time>2013-04-21T11:11:55Z</time>
      </trkpt>
      <trkpt lat="48.41945" lon="2.71262">
        <ele>119</ele>
        <time>2013-04-21T11:11:56Z</time>
      </trkpt>
      <trkpt lat="48.41947" lon="2.71264">
        <ele>119</ele>
        <time>2013-04-21T11:11:58Z</time>
      </trkpt>
      <trkpt lat="48.41951" lon="2.71267">
        <ele>119</ele>
        <time>2013-04-21T11:12:01Z</time>
      </trkpt>
      <trkpt lat="48.41952" lon="2.71267">
        <ele>120</ele>
        <time>2013-04-21T11:12:02Z</time>
      </trkpt>
      <trkpt lat="48.41954" lon="2.71268">
        <ele>120</ele>
        <time>2013-04-21T11:12:03Z</time>
      </trkpt>
      <trkpt lat="48.41955" lon="2.71267">
        <ele>120</ele>
        <time>2013-04-21T11:12:04Z</time>
      </trkpt>
      <trkpt lat="48.41958" lon="2.71266">
        <ele>120</ele>
        <time>2013-04-21T11:12:06Z</time>
      </trkpt>
      <trkpt lat="48.41959" lon="2.71264">
        <ele>120</ele>
        <time>2013-04-21T11:12:07Z</time>
      </trkpt>
      <trkpt lat="48.4196" lon="2.71263">
        <ele>120</ele>
        <time>2013-04-21T11:12:08Z</time>
      </trkpt>
      <trkpt lat="48.41961" lon="2.71263">
        <ele>120</ele>
        <time>2013-04-21T11:12:09Z</time>
      </trkpt>
      <trkpt lat="48.41967" lon="2.71264">
        <ele>121</ele>
        <time>2013-04-21T11:12:13Z</time>
      </trkpt>
      <trkpt lat="48.41969" lon="2.71265">
        <ele>121</ele>
        <time>2013-04-21T11:12:15Z</time>
      </trkpt>
      <trkpt lat="48.41971" lon="2.71265">
        <ele>121</ele>
        <time>2013-04-21T11:12:16Z</time>
      </trkpt>
      <trkpt lat="48.41976" lon="2.71264">
        <ele>121</ele>
        <time>2013-04-21T11:12:20Z</time>
      </trkpt>
      <trkpt lat="48.41979" lon="2.71264">
        <ele>121</ele>
        <time>2013-04-21T11:12:22Z</time>
      </trkpt>
      <trkpt lat="48.41986" lon="2.71262">
        <ele>122</ele>
        <time>2013-04-21T11:12:28Z</time>
      </trkpt>
      <trkpt lat="48.41987" lon="2.71262">
        <ele>122</ele>
        <time>2013-04-21T11:12:29Z</time>
      </trkpt>
      <trkpt lat="48.41995" lon="2.71266">
        <ele>122</ele>
        <time>2013-04-21T11:12:36Z</time>
      </trkpt>
      <trkpt lat="48.41999" lon="2.71268">
        <ele>122</ele>
        <time>2013-04-21T11:12:39Z</time>
      </trkpt>
      <trkpt lat="48.42001" lon="2.71269">
        <ele>128</ele>
        <time>2013-04-21T11:12:41Z</time>
      </trkpt>
      <trkpt lat="48.42003" lon="2.71271">
        <ele>128</ele>
        <time>2013-04-21T11:12:43Z</time>
      </trkpt>
      <trkpt lat="48.42006" lon="2.71271">
        <ele>128</ele>
        <time>2013-04-21T11:12:45Z</time>
      </trkpt>
      <trkpt lat="48.42009" lon="2.71273">
        <ele>129</ele>
        <time>2013-04-21T11:12:48Z</time>
      </trkpt>
      <trkpt lat="48.42017" lon="2.71275">
        <ele>130</ele>
        <time>2013-04-21T11:12:54Z</time>
      </trkpt>
      <trkpt lat="48.42018" lon="2.71275">
        <ele>130</ele>
        <time>2013-04-21T11:12:55Z</time>
      </trkpt>
      <trkpt lat="48.42019" lon="2.71275">
        <ele>130</ele>
        <time>2013-04-21T11:12:56Z</time>
      </trkpt>
      <trkpt lat="48.4202" lon="2.71275">
        <ele>130</ele>
        <time>2013-04-21T11:12:57Z</time>
      </trkpt>
      <trkpt lat="48.42021" lon="2.71274">
        <ele>130</ele>
        <time>2013-04-21T11:12:58Z</time>
      </trkpt>
      <trkpt lat="48.42025" lon="2.71273">
        <ele>130</ele>
        <time>2013-04-21T11:13:01Z</time>
      </trkpt>
      <trkpt lat="48.42026" lon="2.71273">
        <ele>131</ele>
        <time>2013-04-21T11:13:02Z</time>
      </trkpt>
      <trkpt lat="48.42028" lon="2.71272">
        <ele>131</ele>
        <time>2013-04-21T11:13:04Z</time>
      </trkpt>
      <trkpt lat="48.42037" lon="2.71268">
        <ele>132</ele>
        <time>2013-04-21T11:13:10Z</time>
      </trkpt>
      <trkpt lat="48.42039" lon="2.71267">
        <ele>132</ele>
        <time>2013-04-21T11:13:12Z</time>
      </trkpt>
      <trkpt lat="48.42042" lon="2.71266">
        <ele>132</ele>
        <time>2013-04-21T11:13:15Z</time>
      </trkpt>
      <trkpt lat="48.42043" lon="2.71266">
        <ele>132</ele>
        <time>2013-04-21T11:13:16Z</time>
      </trkpt>
      <trkpt lat="48.42044" lon="2.71264">
        <ele>132</ele>
        <time>2013-04-21T11:13:17Z</time>
      </trkpt>
      <trkpt lat="48.42045" lon="2.71264">
        <ele>132</ele>
        <time>2013-04-21T11:13:18Z</time>
      </trkpt>
      <trkpt lat="48.42046" lon="2.71263">
        <ele>133</ele>
        <time>2013-04-21T11:13:19Z</time>
      </trkpt>
      <trkpt lat="48.42047" lon="2.71263">
        <ele>133</ele>
        <time>2013-04-21T11:13:20Z</time>
      </trkpt>
      <trkpt lat="48.4205" lon="2.71259">
        <ele>133</ele>
        <time>2013-04-21T11:13:24Z</time>
      </trkpt>
      <trkpt lat="48.42052" lon="2.71258">
        <ele>133</ele>
        <time>2013-04-21T11:13:26Z</time>
      </trkpt>
      <trkpt lat="48.42053" lon="2.71257">
        <ele>133</ele>
        <time>2013-04-21T11:13:28Z</time>
      </trkpt>
      <trkpt lat="48.42054" lon="2.71257">
        <ele>133</ele>
        <time>2013-04-21T11:13:29Z</time>
      </trkpt>
      <trkpt lat="48.42054" lon="2.71256">
        <ele>134</ele>
        <time>2013-04-21T11:13:30Z</time>
      </trkpt>
      <trkpt lat="48.42054" lon="2.71256">
        <ele>134</ele>
        <time>2013-04-21T11:13:31Z</time>
      </trkpt>
      <trkpt lat="48.42054" lon="2.71256">
        <ele>134</ele>
        <time>2013-04-21T11:13:32Z</time>
      </trkpt>
      <trkpt lat="48.42055" lon="2.71255">
        <ele>134</ele>
        <time>2013-04-21T11:13:33Z</time>
      </trkpt>
      <trkpt lat="48.42055" lon="2.71255">
        <ele>134</ele>
        <time>2013-04-21T11:13:34Z</time>
      </trkpt>
      <trkpt lat="48.42055" lon="2.71255">
        <ele>134</ele>
        <time>2013-04-21T11:13:35Z</time>
      </trkpt>
      <trkpt lat="48.42055" lon="2.71254">
        <ele>134</ele>
        <time>2013-04-21T11:13:36Z</time>
      </trkpt>
      <trkpt lat="48.42056" lon="2.71254">
        <ele>134</ele>
        <time>2013-04-21T11:13:37Z</time>
      </trkpt>
      <trkpt lat="48.42056" lon="2.71254">
        <ele>134</ele>
        <time>2013-04-21T11:13:38Z</time>
      </trkpt>
      <trkpt lat="48.42058" lon="2.71254">
        <ele>134</ele>
        <time>2013-04-21T11:13:41Z</time>
      </trkpt>
      <trkpt lat="48.42059" lon="2.71254">
        <ele>134</ele>
        <time>2013-04-21T11:13:42Z</time>
      </trkpt>
      <trkpt lat="48.4206" lon="2.71254">
        <ele>134</ele>
        <time>2013-04-21T11:13:43Z</time>
      </trkpt>
      <trkpt lat="48.4206" lon="2.71254">
        <ele>134</ele>
        <time>2013-04-21T11:13:44Z</time>
      </trkpt>
      <trkpt lat="48.42061" lon="2.71255">
        <ele>134</ele>
        <time>2013-04-21T11:13:45Z</time>
      </trkpt>
      <trkpt lat="48.42061" lon="2.71255">
        <ele>134</ele>
        <time>2013-04-21T11:13:46Z</time>
      </trkpt>
      <trkpt lat="48.42062" lon="2.71255">
        <ele>134</ele>
        <time>2013-04-21T11:13:47Z</time>
      </trkpt>
      <trkpt lat="48.42062" lon="2.71255">
        <ele>135</ele>
        <time>2013-04-21T11:13:48Z</time>
      </trkpt>
      <trkpt lat="48.42062" lon="2.71256">
        <ele>135</ele>
        <time>2013-04-21T11:13:49Z</time>
      </trkpt>
      <trkpt lat="48.42062" lon="2.71259">
        <ele>134</ele>
        <time>2013-04-21T11:13:51Z</time>
      </trkpt>
      <trkpt lat="48.42062" lon="2.7126">
        <ele>134</ele>
        <time>2013-04-21T11:13:52Z</time>
      </trkpt>
      <trkpt lat="48.42062" lon="2.71261">
        <ele>135</ele>
        <time>2013-04-21T11:13:53Z</time>
      </trkpt>
      <trkpt lat="48.42062" lon="2.71263">
        <ele>134</ele>
        <time>2013-04-21T11:13:55Z</time>
      </trkpt>
      <trkpt lat="48.42062" lon="2.71264">
        <ele>134</ele>
        <time>2013-04-21T11:13:56Z</time>
      </trkpt>
      <trkpt lat="48.42062" lon="2.71266">
        <ele>134</ele>
        <time>2013-04-21T11:13:57Z</time>
      </trkpt>
      <trkpt lat="48.4206" lon="2.7127">
        <ele>134</ele>
        <time>2013-04-21T11:14:00Z</time>
      </trkpt>
      <trkpt lat="48.42059" lon="2.71271">
        <ele>134</ele>
        <time>2013-04-21T11:14:01Z</time>
      </trkpt>
      <trkpt lat="48.42059" lon="2.71272">
        <ele>134</ele>
        <time>2013-04-21T11:14:02Z</time>
      </trkpt>
      <trkpt lat="48.42058" lon="2.71273">
        <ele>134</ele>
        <time>2013-04-21T11:14:03Z</time>
      </trkpt>
      <trkpt lat="48.42056" lon="2.71277">
        <ele>134</ele>
        <time>2013-04-21T11:14:06Z</time>
      </trkpt>
      <trkpt lat="48.42056" lon="2.71278">
        <ele>134</ele>
        <time>2013-04-21T11:14:07Z</time>
      </trkpt>
      <trkpt lat="48.42055" lon="2.7128">
        <ele>134</ele>
        <time>2013-04-21T11:14:08Z</time>
      </trkpt>
      <trkpt lat="48.42055" lon="2.71281">
        <ele>134</ele>
        <time>2013-04-21T11:14:09Z</time>
      </trkpt>
      <trkpt lat="48.42055" lon="2.71285">
        <ele>134</ele>
        <time>2013-04-21T11:14:11Z</time>
      </trkpt>
      <trkpt lat="48.42055" lon="2.71286">
        <ele>134</ele>
        <time>2013-04-21T11:14:12Z</time>
      </trkpt>
      <trkpt lat="48.42055" lon="2.7129">
        <ele>134</ele>
        <time>2013-04-21T11:14:14Z</time>
      </trkpt>
      <trkpt lat="48.42054" lon="2.71299">
        <ele>134</ele>
        <time>2013-04-21T11:14:18Z</time>
      </trkpt>
      <trkpt lat="48.42054" lon="2.71302">
        <ele>134</ele>
        <time>2013-04-21T11:14:19Z</time>
      </trkpt>
      <trkpt lat="48.42055" lon="2.71309">
        <ele>135</ele>
        <time>2013-04-21T11:14:22Z</time>
      </trkpt>
      <trkpt lat="48.42055" lon="2.71311">
        <ele>135</ele>
        <time>2013-04-21T11:14:23Z</time>
      </trkpt>
      <trkpt lat="48.42054" lon="2.71315">
        <ele>135</ele>
        <time>2013-04-21T11:14:25Z</time>
      </trkpt>
      <trkpt lat="48.42054" lon="2.71316">
        <ele>135</ele>
        <time>2013-04-21T11:14:26Z</time>
      </trkpt>
      <trkpt lat="48.42053" lon="2.71322">
        <ele>135</ele>
        <time>2013-04-21T11:14:30Z</time>
      </trkpt>
      <trkpt lat="48.42052" lon="2.71323">
        <ele>135</ele>
        <time>2013-04-21T11:14:31Z</time>
      </trkpt>
      <trkpt lat="48.42052" lon="2.71325">
        <ele>135</ele>
        <time>2013-04-21T11:14:32Z</time>
      </trkpt>
      <trkpt lat="48.42049" lon="2.71331">
        <ele>135</ele>
        <time>2013-04-21T11:14:36Z</time>
      </trkpt>
      <trkpt lat="48.42048" lon="2.71333">
        <ele>135</ele>
        <time>2013-04-21T11:14:37Z</time>
      </trkpt>
      <trkpt lat="48.42048" lon="2.71334">
        <ele>139</ele>
        <time>2013-04-21T11:14:38Z</time>
      </trkpt>
      <trkpt lat="48.42048" lon="2.71334">
        <ele>139</ele>
        <time>2013-04-21T11:14:39Z</time>
      </trkpt>
      <trkpt lat="48.42048" lon="2.71334">
        <ele>139</ele>
        <time>2013-04-21T11:14:40Z</time>
      </trkpt>
      <trkpt lat="48.42048" lon="2.71335">
        <ele>139</ele>
        <time>2013-04-21T11:14:42Z</time>
      </trkpt>
      <trkpt lat="48.42048" lon="2.71335">
        <ele>139</ele>
        <time>2013-04-21T11:14:43Z</time>
      </trkpt>
      <trkpt lat="48.42048" lon="2.71336">
        <ele>139</ele>
        <time>2013-04-21T11:14:44Z</time>
      </trkpt>
      <trkpt lat="48.42049" lon="2.71337">
        <ele>139</ele>
        <time>2013-04-21T11:14:46Z</time>
      </trkpt>
      <trkpt lat="48.4205" lon="2.71337">
        <ele>139</ele>
        <time>2013-04-21T11:14:47Z</time>
      </trkpt>
      <trkpt lat="48.4205" lon="2.71337">
        <ele>139</ele>
        <time>2013-04-21T11:14:48Z</time>
      </trkpt>
      <trkpt lat="48.42051" lon="2.71337">
        <ele>139</ele>
        <time>2013-04-21T11:14:49Z</time>
      </trkpt>
      <trkpt lat="48.42051" lon="2.71337">
        <ele>139</ele>
        <time>2013-04-21T11:14:50Z</time>
      </trkpt>
      <trkpt lat="48.42051" lon="2.71337">
        <ele>139</ele>
        <time>2013-04-21T11:14:51Z</time>
      </trkpt>
      <trkpt lat="48.42052" lon="2.71337">
        <ele>139</ele>
        <time>2013-04-21T11:14:52Z</time>
      </trkpt>
      <trkpt lat="48.42052" lon="2.71337">
        <ele>139</ele>
        <time>2013-04-21T11:14:53Z</time>
      </trkpt>
      <trkpt lat="48.42052" lon="2.71337">
        <ele>139</ele>
        <time>2013-04-21T11:14:54Z</time>
      </trkpt>
      <trkpt lat="48.42052" lon="2.71337">
        <ele>139</ele>
        <time>2013-04-21T11:14:55Z</time>
      </trkpt>
      <trkpt lat="48.42052" lon="2.71337">
        <ele>139</ele>
        <time>2013-04-21T11:14:56Z</time>
      </trkpt>
      <trkpt lat="48.42053" lon="2.71337">
        <ele>139</ele>
        <time>2013-04-21T11:14:57Z</time>
      </trkpt>
      <trkpt lat="48.42053" lon="2.71337">
        <ele>139</ele>
        <time>2013-04-21T11:14:58Z</time>
      </trkpt>
      <trkpt lat="48.42053" lon="2.71338">
        <ele>139</ele>
        <time>2013-04-21T11:14:59Z</time>
      </trkpt>
      <trkpt lat="48.42054" lon="2.71338">
        <ele>139</ele>
        <time>2013-04-21T11:15:00Z</time>
      </trkpt>
      <trkpt lat="48.42054" lon="2.71338">
        <ele>139</ele>
        <time>2013-04-21T11:15:01Z</time>
      </trkpt>
      <trkpt lat="48.42055" lon="2.71338">
        <ele>139</ele>
        <time>2013-04-21T11:15:03Z</time>
      </trkpt>
      <trkpt lat="48.42055" lon="2.71338">
        <ele>139</ele>
        <time>2013-04-21T11:15:04Z</time>
      </trkpt>
      <trkpt lat="48.42056" lon="2.71338">
        <ele>139</ele>
        <time>2013-04-21T11:15:05Z</time>
      </trkpt>
      <trkpt lat="48.42056" lon="2.71339">
        <ele>139</ele>
        <time>2013-04-21T11:15:07Z</time>
      </trkpt>
      <trkpt lat="48.42056" lon="2.71343">
        <ele>139</ele>
        <time>2013-04-21T11:15:10Z</time>
      </trkpt>
      <trkpt lat="48.42056" lon="2.71344">
        <ele>139</ele>
        <time>2013-04-21T11:15:11Z</time>
      </trkpt>
      <trkpt lat="48.42057" lon="2.71345">
        <ele>139</ele>
        <time>2013-04-21T11:15:12Z</time>
      </trkpt>
      <trkpt lat="48.42057" lon="2.71349">
        <ele>139</ele>
        <time>2013-04-21T11:15:15Z</time>
      </trkpt>
      <trkpt lat="48.42057" lon="2.71351">
        <ele>139</ele>
        <time>2013-04-21T11:15:17Z</time>
      </trkpt>
      <trkpt lat="48.42058" lon="2.71352">
        <ele>139</ele>
        <time>2013-04-21T11:15:18Z</time>
      </trkpt>
      <trkpt lat="48.42058" lon="2.71353">
        <ele>139</ele>
        <time>2013-04-21T11:15:19Z</time>
      </trkpt>
      <trkpt lat="48.42059" lon="2.71353">
        <ele>139</ele>
        <time>2013-04-21T11:15:20Z</time>
      </trkpt>
      <trkpt lat="48.42059" lon="2.71353">
        <ele>140</ele>
        <time>2013-04-21T11:15:21Z</time>
      </trkpt>
      <trkpt lat="48.4206" lon="2.71353">
        <ele>140</ele>
        <time>2013-04-21T11:15:22Z</time>
      </trkpt>
      <trkpt lat="48.4206" lon="2.71352">
        <ele>140</ele>
        <time>2013-04-21T11:15:23Z</time>
      </trkpt>
      <trkpt lat="48.4206" lon="2.7135">
        <ele>140</ele>
        <time>2013-04-21T11:15:25Z</time>
      </trkpt>
      <trkpt lat="48.42061" lon="2.71348">
        <ele>140</ele>
        <time>2013-04-21T11:15:28Z</time>
      </trkpt>
      <trkpt lat="48.42061" lon="2.71348">
        <ele>140</ele>
        <time>2013-04-21T11:15:29Z</time>
      </trkpt>
      <trkpt lat="48.42061" lon="2.71348">
        <ele>140</ele>
        <time>2013-04-21T11:15:30Z</time>
      </trkpt>
      <trkpt lat="48.42062" lon="2.71348">
        <ele>140</ele>
        <time>2013-04-21T11:15:31Z</time>
      </trkpt>
      <trkpt lat="48.42062" lon="2.71348">
        <ele>140</ele>
        <time>2013-04-21T11:15:33Z</time>
      </trkpt>
      <trkpt lat="48.42062" lon="2.71348">
        <ele>140</ele>
        <time>2013-04-21T11:15:34Z</time>
      </trkpt>
      <trkpt lat="48.42062" lon="2.71348">
        <ele>140</ele>
        <time>2013-04-21T11:15:38Z</time>
      </trkpt>
      <trkpt lat="48.42062" lon="2.71348">
        <ele>140</ele>
        <time>2013-04-21T11:15:40Z</time>
      </trkpt>
      <trkpt lat="48.42062" lon="2.71348">
        <ele>140</ele>
        <time>2013-04-21T11:15:41Z</time>
      </trkpt>
      <trkpt lat="48.42061" lon="2.71349">
        <ele>140</ele>
        <time>2013-04-21T11:15:42Z</time>
      </trkpt>
      <trkpt lat="48.42061" lon="2.7135">
        <ele>140</ele>
        <time>2013-04-21T11:15:43Z</time>
      </trkpt>
      <trkpt lat="48.42061" lon="2.71351">
        <ele>140</ele>
        <time>2013-04-21T11:15:44Z</time>
      </trkpt>
      <trkpt lat="48.42062" lon="2.71352">
        <ele>140</ele>
        <time>2013-04-21T11:15:45Z</time>
      </trkpt>
      <trkpt lat="48.42062" lon="2.71354">
        <ele>140</ele>
        <time>2013-04-21T11:15:47Z</time>
      </trkpt>
      <trkpt lat="48.42063" lon="2.71355">
        <ele>140</ele>
        <time>2013-04-21T11:15:48Z</time>
      </trkpt>
      <trkpt lat="48.42063" lon="2.71356">
        <ele>140</ele>
        <time>2013-04-21T11:15:49Z</time>
      </trkpt>
      <trkpt lat="48.42064" lon="2.71357">
        <ele>140</ele>
        <time>2013-04-21T11:15:50Z</time>
      </trkpt>
      <trkpt lat="48.42065" lon="2.71358">
        <ele>140</ele>
        <time>2013-04-21T11:15:53Z</time>
      </trkpt>
      <trkpt lat="48.42065" lon="2.71358">
        <ele>140</ele>
        <time>2013-04-21T11:15:54Z</time>
      </trkpt>
      <trkpt lat="48.42065" lon="2.7136">
        <ele>140</ele>
        <time>2013-04-21T11:15:57Z</time>
      </trkpt>
      <trkpt lat="48.42065" lon="2.7136">
        <ele>140</ele>
        <time>2013-04-21T11:15:58Z</time>
      </trkpt>
      <trkpt lat="48.42065" lon="2.7136">
        <ele>140</ele>
        <time>2013-04-21T11:15:59Z</time>
      </trkpt>
      <trkpt lat="48.42066" lon="2.7136">
        <ele>140</ele>
        <time>2013-04-21T11:16:00Z</time>
      </trkpt>
      <trkpt lat="48.42066" lon="2.7136">
        <ele>140</ele>
        <time>2013-04-21T11:16:02Z</time>
      </trkpt>
      <trkpt lat="48.42067" lon="2.71361">
        <ele>140</ele>
        <time>2013-04-21T11:16:03Z</time>
      </trkpt>
      <trkpt lat="48.42067" lon="2.71361">
        <ele>140</ele>
        <time>2013-04-21T11:16:04Z</time>
      </trkpt>
      <trkpt lat="48.42068" lon="2.71362">
        <ele>140</ele>
        <time>2013-04-21T11:16:05Z</time>
      </trkpt>
      <trkpt lat="48.42069" lon="2.71362">
        <ele>140</ele>
        <time>2013-04-21T11:16:06Z</time>
      </trkpt>
      <trkpt lat="48.42069" lon="2.71363">
        <ele>140</ele>
        <time>2013-04-21T11:16:07Z</time>
      </trkpt>
      <trkpt lat="48.4207" lon="2.71363">
        <ele>140</ele>
        <time>2013-04-21T11:16:08Z</time>
      </trkpt>
      <trkpt lat="48.42071" lon="2.71363">
        <ele>140</ele>
        <time>2013-04-21T11:16:09Z</time>
      </trkpt>
      <trkpt lat="48.42072" lon="2.71363">
        <ele>140</ele>
        <time>2013-04-21T11:16:10Z</time>
      </trkpt>
      <trkpt lat="48.42072" lon="2.71363">
        <ele>140</ele>
        <time>2013-04-21T11:16:11Z</time>
      </trkpt>
      <trkpt lat="48.42073" lon="2.71363">
        <ele>140</ele>
        <time>2013-04-21T11:16:12Z</time>
      </trkpt>
      <trkpt lat="48.42073" lon="2.71363">
        <ele>140</ele>
        <time>2013-04-21T11:16:13Z</time>
      </trkpt>
      <trkpt lat="48.42074" lon="2.71362">
        <ele>140</ele>
        <time>2013-04-21T11:16:14Z</time>
      </trkpt>
      <trkpt lat="48.42075" lon="2.71362">
        <ele>140</ele>
        <time>2013-04-21T11:16:15Z</time>
      </trkpt>
      <trkpt lat="48.42077" lon="2.71361">
        <ele>140</ele>
        <time>2013-04-21T11:16:19Z</time>
      </trkpt>
      <trkpt lat="48.42078" lon="2.71361">
        <ele>140</ele>
        <time>2013-04-21T11:16:20Z</time>
      </trkpt>
      <trkpt lat="48.42078" lon="2.71361">
        <ele>140</ele>
        <time>2013-04-21T11:16:21Z</time>
      </trkpt>
      <trkpt lat="48.42078" lon="2.71361">
        <ele>140</ele>
        <time>2013-04-21T11:16:22Z</time>
      </trkpt>
      <trkpt lat="48.42078" lon="2.71361">
        <ele>140</ele>
        <time>2013-04-21T11:16:24Z</time>
      </trkpt>
      <trkpt lat="48.42079" lon="2.71361">
        <ele>140</ele>
        <time>2013-04-21T11:16:35Z</time>
      </trkpt>
      <trkpt lat="48.4208" lon="2.71361">
        <ele>140</ele>
        <time>2013-04-21T11:16:38Z</time>
      </trkpt>
      <trkpt lat="48.4208" lon="2.71361">
        <ele>140</ele>
        <time>2013-04-21T11:16:40Z</time>
      </trkpt>
      <trkpt lat="48.42081" lon="2.71363">
        <ele>140</ele>
        <time>2013-04-21T11:16:44Z</time>
      </trkpt>
      <trkpt lat="48.42083" lon="2.71367">
        <ele>141</ele>
        <time>2013-04-21T11:16:47Z</time>
      </trkpt>
      <trkpt lat="48.42083" lon="2.71368">
        <ele>141</ele>
        <time>2013-04-21T11:16:48Z</time>
      </trkpt>
      <trkpt lat="48.42087" lon="2.71374">
        <ele>145</ele>
        <time>2013-04-21T11:16:52Z</time>
      </trkpt>
      <trkpt lat="48.42087" lon="2.71377">
        <ele>145</ele>
        <time>2013-04-21T11:16:53Z</time>
      </trkpt>
      <trkpt lat="48.42086" lon="2.71379">
        <ele>145</ele>
        <time>2013-04-21T11:16:54Z</time>
      </trkpt>
      <trkpt lat="48.42083" lon="2.71385">
        <ele>141</ele>
        <time>2013-04-21T11:16:56Z</time>
      </trkpt>
      <trkpt lat="48.42082" lon="2.71388">
        <ele>142</ele>
        <time>2013-04-21T11:16:57Z</time>
      </trkpt>
      <trkpt lat="48.42078" lon="2.71417">
        <ele>145</ele>
        <time>2013-04-21T11:17:05Z</time>
      </trkpt>
      <trkpt lat="48.42075" lon="2.71427">
        <ele>145</ele>
        <time>2013-04-21T11:17:07Z</time>
      </trkpt>
      <trkpt lat="48.42066" lon="2.71444">
        <ele>144</ele>
        <time>2013-04-21T11:17:12Z</time>
      </trkpt>
      <trkpt lat="48.42062" lon="2.71454">
        <ele>144</ele>
        <time>2013-04-21T11:17:15Z</time>
      </trkpt>
      <trkpt lat="48.4206" lon="2.71461">
        <ele>144</ele>
        <time>2013-04-21T11:17:17Z</time>
      </trkpt>
      <trkpt lat="48.42059" lon="2.71465">
        <ele>144</ele>
        <time>2013-04-21T11:17:18Z</time>
      </trkpt>
      <trkpt lat="48.42053" lon="2.71477">
        <ele>144</ele>
        <time>2013-04-21T11:17:22Z</time>
      </trkpt>
      <trkpt lat="48.42051" lon="2.71481">
        <ele>144</ele>
        <time>2013-04-21T11:17:23Z</time>
      </trkpt>
      <trkpt lat="48.42046" lon="2.71494">
        <ele>143</ele>
        <time>2013-04-21T11:17:26Z</time>
      </trkpt>
      <trkpt lat="48.42043" lon="2.71496">
        <ele>143</ele>
        <time>2013-04-21T11:17:27Z</time>
      </trkpt>
      <trkpt lat="48.42039" lon="2.71495">
        <ele>143</ele>
        <time>2013-04-21T11:17:28Z</time>
      </trkpt>
      <trkpt lat="48.42036" lon="2.71494">
        <ele>143</ele>
        <time>2013-04-21T11:17:29Z</time>
      </trkpt>
      <trkpt lat="48.42033" lon="2.7149">
        <ele>143</ele>
        <time>2013-04-21T11:17:30Z</time>
      </trkpt>
      <trkpt lat="48.42032" lon="2.71484">
        <ele>143</ele>
        <time>2013-04-21T11:17:31Z</time>
      </trkpt>
      <trkpt lat="48.42033" lon="2.71468">
        <ele>143</ele>
        <time>2013-04-21T11:17:34Z</time>
      </trkpt>
      <trkpt lat="48.42034" lon="2.71462">
        <ele>143</ele>
        <time>2013-04-21T11:17:35Z</time>
      </trkpt>
      <trkpt lat="48.42036" lon="2.71459">
        <ele>143</ele>
        <time>2013-04-21T11:17:36Z</time>
      </trkpt>
      <trkpt lat="48.42041" lon="2.71458">
        <ele>143</ele>
        <time>2013-04-21T11:17:38Z</time>
      </trkpt>
      <trkpt lat="48.42042" lon="2.71458">
        <ele>143</ele>
        <time>2013-04-21T11:17:39Z</time>
      </trkpt>
      <trkpt lat="48.42042" lon="2.71458">
        <ele>143</ele>
        <time>2013-04-21T11:17:40Z</time>
      </trkpt>
      <trkpt lat="48.42042" lon="2.71458">
        <ele>143</ele>
        <time>2013-04-21T11:17:43Z</time>
      </trkpt>
      <trkpt lat="48.42042" lon="2.71458">
        <ele>143</ele>
        <time>2013-04-21T11:17:50Z</time>
      </trkpt>
      <trkpt lat="48.42041" lon="2.71458">
        <ele>143</ele>
        <time>2013-04-21T11:17:51Z</time>
      </trkpt>
      <trkpt lat="48.42041" lon="2.71458">
        <ele>143</ele>
        <time>2013-04-21T11:17:54Z</time>
      </trkpt>
      <trkpt lat="48.42041" lon="2.71458">
        <ele>143</ele>
        <time>2013-04-21T11:17:59Z</time>
      </trkpt>
      <trkpt lat="48.42041" lon="2.71458">
        <ele>143</ele>
        <time>2013-04-21T11:18:00Z</time>
      </trkpt>
      <trkpt lat="48.42041" lon="2.71458">
        <ele>143</ele>
        <time>2013-04-21T11:18:01Z</time>
      </trkpt>
      <trkpt lat="48.42041" lon="2.71458">
        <ele>143</ele>
        <time>2013-04-21T11:18:06Z</time>
      </trkpt>
      <trkpt lat="48.42041" lon="2.71458">
        <ele>143</ele>
        <time>2013-04-21T11:18:07Z</time>
      </trkpt>
      <trkpt lat="48.42041" lon="2.71458">
        <ele>143</ele>
        <time>2013-04-21T11:18:08Z</time>
      </trkpt>
      <trkpt lat="48.42041" lon="2.71457">
        <ele>143</ele>
        <time>2013-04-21T11:18:09Z</time>
      </trkpt>
      <trkpt lat="48.42042" lon="2.71456">
        <ele>143</ele>
        <time>2013-04-21T11:18:10Z</time>
      </trkpt>
      <trkpt lat="48.42041" lon="2.71455">
        <ele>143</ele>
        <time>2013-04-21T11:18:11Z</time>
      </trkpt>
      <trkpt lat="48.4204" lon="2.71454">
        <ele>143</ele>
        <time>2013-04-21T11:18:12Z</time>
      </trkpt>
      <trkpt lat="48.4204" lon="2.71454">
        <ele>143</ele>
        <time>2013-04-21T11:18:13Z</time>
      </trkpt>
      <trkpt lat="48.42034" lon="2.71459">
        <ele>143</ele>
        <time>2013-04-21T11:18:17Z</time>
      </trkpt>
      <trkpt lat="48.42033" lon="2.71461">
        <ele>143</ele>
        <time>2013-04-21T11:18:18Z</time>
      </trkpt>
      <trkpt lat="48.4203" lon="2.71469">
        <ele>143</ele>
        <time>2013-04-21T11:18:21Z</time>
      </trkpt>
      <trkpt lat="48.4203" lon="2.71471">
        <ele>143</ele>
        <time>2013-04-21T11:18:22Z</time>
      </trkpt>
      <trkpt lat="48.4203" lon="2.71479">
        <ele>143</ele>
        <time>2013-04-21T11:18:25Z</time>
      </trkpt>
      <trkpt lat="48.4203" lon="2.71482">
        <ele>143</ele>
        <time>2013-04-21T11:18:26Z</time>
      </trkpt>
      <trkpt lat="48.42028" lon="2.71484">
        <ele>143</ele>
        <time>2013-04-21T11:18:27Z</time>
      </trkpt>
      <trkpt lat="48.42026" lon="2.71485">
        <ele>143</ele>
        <time>2013-04-21T11:18:28Z</time>
      </trkpt>
      <trkpt lat="48.42025" lon="2.71487">
        <ele>142</ele>
        <time>2013-04-21T11:18:29Z</time>
      </trkpt>
      <trkpt lat="48.42024" lon="2.71489">
        <ele>142</ele>
        <time>2013-04-21T11:18:30Z</time>
      </trkpt>
      <trkpt lat="48.42023" lon="2.7149">
        <ele>142</ele>
        <time>2013-04-21T11:18:31Z</time>
      </trkpt>
      <trkpt lat="48.42022" lon="2.71491">
        <ele>142</ele>
        <time>2013-04-21T11:18:32Z</time>
      </trkpt>
      <trkpt lat="48.4202" lon="2.71491">
        <ele>142</ele>
        <time>2013-04-21T11:18:33Z</time>
      </trkpt>
      <trkpt lat="48.42014" lon="2.7149">
        <ele>142</ele>
        <time>2013-04-21T11:18:36Z</time>
      </trkpt>
      <trkpt lat="48.42008" lon="2.71487">
        <ele>142</ele>
        <time>2013-04-21T11:18:39Z</time>
      </trkpt>
      <trkpt lat="48.42006" lon="2.71487">
        <ele>142</ele>
        <time>2013-04-21T11:18:40Z</time>
      </trkpt>
      <trkpt lat="48.41988" lon="2.7148">
        <ele>135</ele>
        <time>2013-04-21T11:18:48Z</time>
      </trkpt>
      <trkpt lat="48.41986" lon="2.7148">
        <ele>135</ele>
        <time>2013-04-21T11:18:49Z</time>
      </trkpt>
      <trkpt lat="48.41983" lon="2.71481">
        <ele>135</ele>
        <time>2013-04-21T11:18:50Z</time>
      </trkpt>
      <trkpt lat="48.41981" lon="2.71483">
        <ele>135</ele>
        <time>2013-04-21T11:18:51Z</time>
      </trkpt>
      <trkpt lat="48.4198" lon="2.71489">
        <ele>135</ele>
        <time>2013-04-21T11:18:53Z</time>
      </trkpt>
      <trkpt lat="48.41979" lon="2.71492">
        <ele>135</ele>
        <time>2013-04-21T11:18:54Z</time>
      </trkpt>
      <trkpt lat="48.41979" lon="2.71495">
        <ele>135</ele>
        <time>2013-04-21T11:18:55Z</time>
      </trkpt>
      <trkpt lat="48.4198" lon="2.71498">
        <ele>135</ele>
        <time>2013-04-21T11:18:56Z</time>
      </trkpt>
      <trkpt lat="48.41981" lon="2.71502">
        <ele>135</ele>
        <time>2013-04-21T11:18:58Z</time>
      </trkpt>
      <trkpt lat="48.41981" lon="2.71503">
        <ele>135</ele>
        <time>2013-04-21T11:18:59Z</time>
      </trkpt>
      <trkpt lat="48.41981" lon="2.71505">
        <ele>135</ele>
        <time>2013-04-21T11:19:00Z</time>
      </trkpt>
      <trkpt lat="48.41982" lon="2.71505">
        <ele>135</ele>
        <time>2013-04-21T11:19:01Z</time>
      </trkpt>
      <trkpt lat="48.41982" lon="2.71506">
        <ele>135</ele>
        <time>2013-04-21T11:19:02Z</time>
      </trkpt>
      <trkpt lat="48.41982" lon="2.71506">
        <ele>135</ele>
        <time>2013-04-21T11:19:03Z</time>
      </trkpt>
      <trkpt lat="48.41982" lon="2.71506">
        <ele>135</ele>
        <time>2013-04-21T11:19:04Z</time>
      </trkpt>
      <trkpt lat="48.41982" lon="2.71507">
        <ele>135</ele>
        <time>2013-04-21T11:19:05Z</time>
      </trkpt>
      <trkpt lat="48.41983" lon="2.71506">
        <ele>135</ele>
        <time>2013-04-21T11:19:06Z</time>
      </trkpt>
      <trkpt lat="48.41983" lon="2.71505">
        <ele>136</ele>
        <time>2013-04-21T11:19:07Z</time>
      </trkpt>
      <trkpt lat="48.41982" lon="2.71501">
        <ele>136</ele>
        <time>2013-04-21T11:19:11Z</time>
      </trkpt>
      <trkpt lat="48.41983" lon="2.71496">
        <ele>136</ele>
        <time>2013-04-21T11:19:13Z</time>
      </trkpt>
      <trkpt lat="48.41982" lon="2.71493">
        <ele>136</ele>
        <time>2013-04-21T11:19:14Z</time>
      </trkpt>
      <trkpt lat="48.41972" lon="2.71477">
        <ele>133</ele>
        <time>2013-04-21T11:19:20Z</time>
      </trkpt>
      <trkpt lat="48.41971" lon="2.71476">
        <ele>133</ele>
        <time>2013-04-21T11:19:21Z</time>
      </trkpt>
      <trkpt lat="48.41971" lon="2.71475">
        <ele>133</ele>
        <time>2013-04-21T11:19:22Z</time>
      </trkpt>
      <trkpt lat="48.41971" lon="2.71475">
        <ele>133</ele>
        <time>2013-04-21T11:19:24Z</time>
      </trkpt>
      <trkpt lat="48.41971" lon="2.71476">
        <ele>133</ele>
        <time>2013-04-21T11:19:27Z</time>
      </trkpt>
      <trkpt lat="48.41971" lon="2.71475">
        <ele>133</ele>
        <time>2013-04-21T11:19:28Z</time>
      </trkpt>
      <trkpt lat="48.4197" lon="2.71475">
        <ele>133</ele>
        <time>2013-04-21T11:19:35Z</time>
      </trkpt>
      <trkpt lat="48.4197" lon="2.71475">
        <ele>133</ele>
        <time>2013-04-21T11:19:38Z</time>
      </trkpt>
      <trkpt lat="48.4197" lon="2.71475">
        <ele>133</ele>
        <time>2013-04-21T11:19:39Z</time>
      </trkpt>
      <trkpt lat="48.41969" lon="2.71475">
        <ele>133</ele>
        <time>2013-04-21T11:19:40Z</time>
      </trkpt>
      <trkpt lat="48.41969" lon="2.71475">
        <ele>133</ele>
        <time>2013-04-21T11:19:42Z</time>
      </trkpt>
      <trkpt lat="48.41969" lon="2.71475">
        <ele>133</ele>
        <time>2013-04-21T11:19:43Z</time>
      </trkpt>
      <trkpt lat="48.41969" lon="2.71475">
        <ele>133</ele>
        <time>2013-04-21T11:19:44Z</time>
      </trkpt>
      <trkpt lat="48.41969" lon="2.71475">
        <ele>133</ele>
        <time>2013-04-21T11:19:48Z</time>
      </trkpt>
      <trkpt lat="48.41969" lon="2.71475">
        <ele>133</ele>
        <time>2013-04-21T11:19:49Z</time>
      </trkpt>
      <trkpt lat="48.41969" lon="2.71475">
        <ele>133</ele>
        <time>2013-04-21T11:19:50Z</time>
      </trkpt>
      <trkpt lat="48.41969" lon="2.71475">
        <ele>133</ele>
        <time>2013-04-21T11:19:58Z</time>
      </trkpt>
      <trkpt lat="48.41969" lon="2.71475">
        <ele>133</ele>
        <time>2013-04-21T11:20:00Z</time>
      </trkpt>
      <trkpt lat="48.41969" lon="2.71476">
        <ele>133</ele>
        <time>2013-04-21T11:20:04Z</time>
      </trkpt>
      <trkpt lat="48.41969" lon="2.71476">
        <ele>133</ele>
        <time>2013-04-21T11:20:11Z</time>
      </trkpt>
      <trkpt lat="48.41969" lon="2.71476">
        <ele>133</ele>
        <time>2013-04-21T11:20:16Z</time>
      </trkpt>
      <trkpt lat="48.41969" lon="2.71476">
        <ele>133</ele>
        <time>2013-04-21T11:20:17Z</time>
      </trkpt>
      <trkpt lat="48.41969" lon="2.71476">
        <ele>133</ele>
        <time>2013-04-21T11:20:18Z</time>
      </trkpt>
      <trkpt lat="48.41969" lon="2.71476">
        <ele>133</ele>
        <time>2013-04-21T11:20:31Z</time>
      </trkpt>
      <trkpt lat="48.41969" lon="2.71476">
        <ele>133</ele>
        <time>2013-04-21T11:20:43Z</time>
      </trkpt>
      <trkpt lat="48.41969" lon="2.71476">
        <ele>133</ele>
        <time>2013-04-21T11:20:44Z</time>
      </trkpt>
      <trkpt lat="48.41969" lon="2.71476">
        <ele>133</ele>
        <time>2013-04-21T11:20:45Z</time>
      </trkpt>
      <trkpt lat="48.41969" lon="2.71476">
        <ele>133</ele>
        <time>2013-04-21T11:20:50Z</time>
      </trkpt>
      <trkpt lat="48.41969" lon="2.71476">
        <ele>133</ele>
        <time>2013-04-21T11:20:51Z</time>
      </trkpt>
      <trkpt lat="48.41969" lon="2.71476">
        <ele>133</ele>
        <time>2013-04-21T11:20:52Z</time>
      </trkpt>
      <trkpt lat="48.41969" lon="2.71477">
        <ele>133</ele>
        <time>2013-04-21T11:20:57Z</time>
      </trkpt>
      <trkpt lat="48.4197" lon="2.71477">
        <ele>133</ele>
        <time>2013-04-21T11:20:58Z</time>
      </trkpt>
      <trkpt lat="48.4197" lon="2.71476">
        <ele>133</ele>
        <time>2013-04-21T11:20:59Z</time>
      </trkpt>
      <trkpt lat="48.41971" lon="2.71475">
        <ele>133</ele>
        <time>2013-04-21T11:21:00Z</time>
      </trkpt>
      <trkpt lat="48.4197" lon="2.71474">
        <ele>133</ele>
        <time>2013-04-21T11:21:01Z</time>
      </trkpt>
      <trkpt lat="48.4197" lon="2.71473">
        <ele>133</ele>
        <time>2013-04-21T11:21:02Z</time>
      </trkpt>
      <trkpt lat="48.4197" lon="2.71473">
        <ele>133</ele>
        <time>2013-04-21T11:21:03Z</time>
      </trkpt>
      <trkpt lat="48.41969" lon="2.71473">
        <ele>133</ele>
        <time>2013-04-21T11:21:06Z</time>
      </trkpt>
      <trkpt lat="48.41969" lon="2.71473">
        <ele>133</ele>
        <time>2013-04-21T11:21:07Z</time>
      </trkpt>
      <trkpt lat="48.41969" lon="2.71473">
        <ele>133</ele>
        <time>2013-04-21T11:21:09Z</time>
      </trkpt>
      <trkpt lat="48.41969" lon="2.71473">
        <ele>133</ele>
        <time>2013-04-21T11:21:10Z</time>
      </trkpt>
      <trkpt lat="48.41968" lon="2.71473">
        <ele>133</ele>
        <time>2013-04-21T11:21:13Z</time>
      </trkpt>
      <trkpt lat="48.41968" lon="2.71473">
        <ele>133</ele>
        <time>2013-04-21T11:21:15Z</time>
      </trkpt>
      <trkpt lat="48.41968" lon="2.71473">
        <ele>133</ele>
        <time>2013-04-21T11:21:16Z</time>
      </trkpt>
      <trkpt lat="48.41968" lon="2.71473">
        <ele>132</ele>
        <time>2013-04-21T11:21:18Z</time>
      </trkpt>
      <trkpt lat="48.41968" lon="2.71473">
        <ele>132</ele>
        <time>2013-04-21T11:21:20Z</time>
      </trkpt>
      <trkpt lat="48.41968" lon="2.71473">
        <ele>132</ele>
        <time>2013-04-21T11:21:22Z</time>
      </trkpt>
      <trkpt lat="48.41968" lon="2.71473">
        <ele>132</ele>
        <time>2013-04-21T11:21:25Z</time>
      </trkpt>
      <trkpt lat="48.41968" lon="2.71473">
        <ele>132</ele>
        <time>2013-04-21T11:21:27Z</time>
      </trkpt>
      <trkpt lat="48.41967" lon="2.71473">
        <ele>132</ele>
        <time>2013-04-21T11:21:29Z</time>
      </trkpt>
      <trkpt lat="48.41967" lon="2.71473">
        <ele>132</ele>
        <time>2013-04-21T11:21:30Z</time>
      </trkpt>
      <trkpt lat="48.41967" lon="2.71473">
        <ele>132</ele>
        <time>2013-04-21T11:21:32Z</time>
      </trkpt>
      <trkpt lat="48.41967" lon="2.71473">
        <ele>132</ele>
        <time>2013-04-21T11:21:35Z</time>
      </trkpt>
      <trkpt lat="48.41967" lon="2.71473">
        <ele>132</ele>
        <time>2013-04-21T11:21:37Z</time>
      </trkpt>
      <trkpt lat="48.41967" lon="2.71473">
        <ele>132</ele>
        <time>2013-04-21T11:21:40Z</time>
      </trkpt>
      <trkpt lat="48.41967" lon="2.71473">
        <ele>132</ele>
        <time>2013-04-21T11:21:43Z</time>
      </trkpt>
      <trkpt lat="48.41966" lon="2.71473">
        <ele>132</ele>
        <time>2013-04-21T11:21:47Z</time>
      </trkpt>
      <trkpt lat="48.41966" lon="2.71473">
        <ele>132</ele>
        <time>2013-04-21T11:21:52Z</time>
      </trkpt>
      <trkpt lat="48.41966" lon="2.71473">
        <ele>132</ele>
        <time>2013-04-21T11:21:57Z</time>
      </trkpt>
      <trkpt lat="48.41966" lon="2.71473">
        <ele>132</ele>
        <time>2013-04-21T11:21:58Z</time>
      </trkpt>
      <trkpt lat="48.41966" lon="2.71472">
        <ele>132</ele>
        <time>2013-04-21T11:22:01Z</time>
      </trkpt>
      <trkpt lat="48.41966" lon="2.71472">
        <ele>132</ele>
        <time>2013-04-21T11:22:05Z</time>
      </trkpt>
      <trkpt lat="48.41966" lon="2.71472">
        <ele>132</ele>
        <time>2013-04-21T11:22:10Z</time>
      </trkpt>
      <trkpt lat="48.41965" lon="2.71472">
        <ele>132</ele>
        <time>2013-04-21T11:22:15Z</time>
      </trkpt>
      <trkpt lat="48.41965" lon="2.71472">
        <ele>132</ele>
        <time>2013-04-21T11:22:21Z</time>
      </trkpt>
      <trkpt lat="48.41965" lon="2.71472">
        <ele>132</ele>
        <time>2013-04-21T11:22:27Z</time>
      </trkpt>
      <trkpt lat="48.41965" lon="2.71472">
        <ele>132</ele>
        <time>2013-04-21T11:22:32Z</time>
      </trkpt>
      <trkpt lat="48.41965" lon="2.71472">
        <ele>132</ele>
        <time>2013-04-21T11:22:33Z</time>
      </trkpt>
      <trkpt lat="48.41965" lon="2.71472">
        <ele>132</ele>
        <time>2013-04-21T11:22:46Z</time>
      </trkpt>
      <trkpt lat="48.41965" lon="2.71472">
        <ele>132</ele>
        <time>2013-04-21T11:22:48Z</time>
      </trkpt>
      <trkpt lat="48.41965" lon="2.71472">
        <ele>132</ele>
        <time>2013-04-21T11:22:54Z</time>
      </trkpt>
      <trkpt lat="48.41965" lon="2.71473">
        <ele>132</ele>
        <time>2013-04-21T11:22:55Z</time>
      </trkpt>
      <trkpt lat="48.41965" lon="2.71472">
        <ele>132</ele>
        <time>2013-04-21T11:22:57Z</time>
      </trkpt>
      <trkpt lat="48.41965" lon="2.71473">
        <ele>132</ele>
        <time>2013-04-21T11:23:02Z</time>
      </trkpt>
      <trkpt lat="48.41965" lon="2.71472">
        <ele>132</ele>
        <time>2013-04-21T11:23:03Z</time>
      </trkpt>
      <trkpt lat="48.41965" lon="2.71472">
        <ele>132</ele>
        <time>2013-04-21T11:23:04Z</time>
      </trkpt>
      <trkpt lat="48.41966" lon="2.71472">
        <ele>132</ele>
        <time>2013-04-21T11:23:05Z</time>
      </trkpt>
      <trkpt lat="48.41968" lon="2.71474">
        <ele>132</ele>
        <time>2013-04-21T11:23:08Z</time>
      </trkpt>
      <trkpt lat="48.41969" lon="2.71475">
        <ele>133</ele>
        <time>2013-04-21T11:23:09Z</time>
      </trkpt>
      <trkpt lat="48.41969" lon="2.71475">
        <ele>133</ele>
        <time>2013-04-21T11:23:10Z</time>
      </trkpt>
      <trkpt lat="48.41969" lon="2.71476">
        <ele>133</ele>
        <time>2013-04-21T11:23:11Z</time>
      </trkpt>
      <trkpt lat="48.41969" lon="2.71476">
        <ele>133</ele>
        <time>2013-04-21T11:23:12Z</time>
      </trkpt>
      <trkpt lat="48.41969" lon="2.71476">
        <ele>133</ele>
        <time>2013-04-21T11:23:14Z</time>
      </trkpt>
      <trkpt lat="48.41969" lon="2.71476">
        <ele>133</ele>
        <time>2013-04-21T11:23:15Z</time>
      </trkpt>
      <trkpt lat="48.41969" lon="2.71476">
        <ele>133</ele>
        <time>2013-04-21T11:23:16Z</time>
      </trkpt>
      <trkpt lat="48.41969" lon="2.71476">
        <ele>133</ele>
        <time>2013-04-21T11:23:18Z</time>
      </trkpt>
      <trkpt lat="48.41969" lon="2.71477">
        <ele>133</ele>
        <time>2013-04-21T11:23:20Z</time>
      </trkpt>
      <trkpt lat="48.41969" lon="2.71477">
        <ele>133</ele>
        <time>2013-04-21T11:23:21Z</time>
      </trkpt>
      <trkpt lat="48.41969" lon="2.71477">
        <ele>133</ele>
        <time>2013-04-21T11:23:23Z</time>
      </trkpt>
      <trkpt lat="48.41969" lon="2.71477">
        <ele>133</ele>
        <time>2013-04-21T11:23:24Z</time>
      </trkpt>
      <trkpt lat="48.41969" lon="2.71477">
        <ele>133</ele>
        <time>2013-04-21T11:23:27Z</time>
      </trkpt>
      <trkpt lat="48.41969" lon="2.71477">
        <ele>133</ele>
        <time>2013-04-21T11:23:30Z</time>
      </trkpt>
      <trkpt lat="48.41969" lon="2.71477">
        <ele>133</ele>
        <time>2013-04-21T11:23:32Z</time>
      </trkpt>
      <trkpt lat="48.41969" lon="2.71478">
        <ele>133</ele>
        <time>2013-04-21T11:23:33Z</time>
      </trkpt>
      <trkpt lat="48.41969" lon="2.71478">
        <ele>133</ele>
        <time>2013-04-21T11:23:34Z</time>
      </trkpt>
      <trkpt lat="48.41969" lon="2.71478">
        <ele>133</ele>
        <time>2013-04-21T11:23:35Z</time>
      </trkpt>
      <trkpt lat="48.41969" lon="2.71478">
        <ele>133</ele>
        <time>2013-04-21T11:23:36Z</time>
      </trkpt>
      <trkpt lat="48.41969" lon="2.71478">
        <ele>133</ele>
        <time>2013-04-21T11:23:39Z</time>
      </trkpt>
      <trkpt lat="48.41969" lon="2.71478">
        <ele>133</ele>
        <time>2013-04-21T11:23:41Z</time>
      </trkpt>
      <trkpt lat="48.41969" lon="2.71478">
        <ele>133</ele>
        <time>2013-04-21T11:23:42Z</time>
      </trkpt>
      <trkpt lat="48.41971" lon="2.71486">
        <ele>133</ele>
        <time>2013-04-21T11:23:47Z</time>
      </trkpt>
      <trkpt lat="48.41972" lon="2.71499">
        <ele>134</ele>
        <time>2013-04-21T11:23:52Z</time>
      </trkpt>
      <trkpt lat="48.41977" lon="2.71515">
        <ele>134</ele>
        <time>2013-04-21T11:23:58Z</time>
      </trkpt>
      <trkpt lat="48.41977" lon="2.71515">
        <ele>134</ele>
        <time>2013-04-21T11:23:59Z</time>
      </trkpt>
      <trkpt lat="48.41978" lon="2.71515">
        <ele>134</ele>
        <time>2013-04-21T11:24:00Z</time>
      </trkpt>
      <trkpt lat="48.41978" lon="2.71515">
        <ele>134</ele>
        <time>2013-04-21T11:24:01Z</time>
      </trkpt>
      <trkpt lat="48.41978" lon="2.71515">
        <ele>134</ele>
        <time>2013-04-21T11:24:02Z</time>
      </trkpt>
      <trkpt lat="48.4198" lon="2.71516">
        <ele>134</ele>
        <time>2013-04-21T11:24:04Z</time>
      </trkpt>
      <trkpt lat="48.41982" lon="2.71518">
        <ele>134</ele>
        <time>2013-04-21T11:24:06Z</time>
      </trkpt>
      <trkpt lat="48.41984" lon="2.71519">
        <ele>135</ele>
        <time>2013-04-21T11:24:07Z</time>
      </trkpt>
      <trkpt lat="48.41985" lon="2.71522">
        <ele>134</ele>
        <time>2013-04-21T11:24:08Z</time>
      </trkpt>
      <trkpt lat="48.41987" lon="2.71523">
        <ele>135</ele>
        <time>2013-04-21T11:24:09Z</time>
      </trkpt>
      <trkpt lat="48.41989" lon="2.71524">
        <ele>135</ele>
        <time>2013-04-21T11:24:10Z</time>
      </trkpt>
      <trkpt lat="48.41992" lon="2.71524">
        <ele>135</ele>
        <time>2013-04-21T11:24:11Z</time>
      </trkpt>
      <trkpt lat="48.42001" lon="2.71523">
        <ele>142</ele>
        <time>2013-04-21T11:24:14Z</time>
      </trkpt>
      <trkpt lat="48.4201" lon="2.71524">
        <ele>142</ele>
        <time>2013-04-21T11:24:17Z</time>
      </trkpt>
      <trkpt lat="48.42013" lon="2.71525">
        <ele>142</ele>
        <time>2013-04-21T11:24:18Z</time>
      </trkpt>
      <trkpt lat="48.42015" lon="2.71527">
        <ele>142</ele>
        <time>2013-04-21T11:24:19Z</time>
      </trkpt>
      <trkpt lat="48.42021" lon="2.71531">
        <ele>143</ele>
        <time>2013-04-21T11:24:22Z</time>
      </trkpt>
      <trkpt lat="48.42022" lon="2.71532">
        <ele>143</ele>
        <time>2013-04-21T11:24:23Z</time>
      </trkpt>
      <trkpt lat="48.42024" lon="2.71532">
        <ele>143</ele>
        <time>2013-04-21T11:24:24Z</time>
      </trkpt>
      <trkpt lat="48.42025" lon="2.71533">
        <ele>143</ele>
        <time>2013-04-21T11:24:25Z</time>
      </trkpt>
      <trkpt lat="48.4203" lon="2.71535">
        <ele>143</ele>
        <time>2013-04-21T11:24:27Z</time>
      </trkpt>
      <trkpt lat="48.42032" lon="2.71538">
        <ele>143</ele>
        <time>2013-04-21T11:24:28Z</time>
      </trkpt>
      <trkpt lat="48.42033" lon="2.71541">
        <ele>143</ele>
        <time>2013-04-21T11:24:29Z</time>
      </trkpt>
      <trkpt lat="48.42037" lon="2.71546">
        <ele>143</ele>
        <time>2013-04-21T11:24:31Z</time>
      </trkpt>
      <trkpt lat="48.42039" lon="2.71547">
        <ele>143</ele>
        <time>2013-04-21T11:24:32Z</time>
      </trkpt>
      <trkpt lat="48.4204" lon="2.71549">
        <ele>143</ele>
        <time>2013-04-21T11:24:33Z</time>
      </trkpt>
      <trkpt lat="48.42041" lon="2.71551">
        <ele>143</ele>
        <time>2013-04-21T11:24:34Z</time>
      </trkpt>
      <trkpt lat="48.42042" lon="2.71554">
        <ele>143</ele>
        <time>2013-04-21T11:24:35Z</time>
      </trkpt>
      <trkpt lat="48.42043" lon="2.71556">
        <ele>143</ele>
        <time>2013-04-21T11:24:36Z</time>
      </trkpt>
      <trkpt lat="48.42047" lon="2.71561">
        <ele>143</ele>
        <time>2013-04-21T11:24:38Z</time>
      </trkpt>
      <trkpt lat="48.42055" lon="2.71567">
        <ele>144</ele>
        <time>2013-04-21T11:24:42Z</time>
      </trkpt>
      <trkpt lat="48.4206" lon="2.71572">
        <ele>144</ele>
        <time>2013-04-21T11:24:45Z</time>
      </trkpt>
      <trkpt lat="48.42061" lon="2.71573">
        <ele>144</ele>
        <time>2013-04-21T11:24:46Z</time>
      </trkpt>
      <trkpt lat="48.42063" lon="2.71575">
        <ele>145</ele>
        <time>2013-04-21T11:24:47Z</time>
      </trkpt>
      <trkpt lat="48.42065" lon="2.71576">
        <ele>145</ele>
        <time>2013-04-21T11:24:48Z</time>
      </trkpt>
      <trkpt lat="48.4207" lon="2.71575">
        <ele>145</ele>
        <time>2013-04-21T11:24:50Z</time>
      </trkpt>
      <trkpt lat="48.42076" lon="2.71576">
        <ele>146</ele>
        <time>2013-04-21T11:24:53Z</time>
      </trkpt>
      <trkpt lat="48.42079" lon="2.71578">
        <ele>146</ele>
        <time>2013-04-21T11:24:55Z</time>
      </trkpt>
      <trkpt lat="48.42082" lon="2.71578">
        <ele>146</ele>
        <time>2013-04-21T11:24:56Z</time>
      </trkpt>
      <trkpt lat="48.42084" lon="2.71579">
        <ele>147</ele>
        <time>2013-04-21T11:24:57Z</time>
      </trkpt>
      <trkpt lat="48.42086" lon="2.71582">
        <ele>147</ele>
        <time>2013-04-21T11:24:58Z</time>
      </trkpt>
      <trkpt lat="48.42091" lon="2.716">
        <ele>147</ele>
        <time>2013-04-21T11:25:02Z</time>
      </trkpt>
      <trkpt lat="48.421" lon="2.71621">
        <ele>147</ele>
        <time>2013-04-21T11:25:07Z</time>
      </trkpt>
      <trkpt lat="48.42101" lon="2.7163">
        <ele>147</ele>
        <time>2013-04-21T11:25:09Z</time>
      </trkpt>
      <trkpt lat="48.42101" lon="2.71634">
        <ele>147</ele>
        <time>2013-04-21T11:25:10Z</time>
      </trkpt>
      <trkpt lat="48.42102" lon="2.71645">
        <ele>147</ele>
        <time>2013-04-21T11:25:13Z</time>
      </trkpt>
      <trkpt lat="48.42103" lon="2.71647">
        <ele>147</ele>
        <time>2013-04-21T11:25:14Z</time>
      </trkpt>
      <trkpt lat="48.42103" lon="2.7165">
        <ele>147</ele>
        <time>2013-04-21T11:25:15Z</time>
      </trkpt>
      <trkpt lat="48.42101" lon="2.71661">
        <ele>147</ele>
        <time>2013-04-21T11:25:19Z</time>
      </trkpt>
      <trkpt lat="48.42101" lon="2.71677">
        <ele>147</ele>
        <time>2013-04-21T11:25:24Z</time>
      </trkpt>
      <trkpt lat="48.421" lon="2.71681">
        <ele>147</ele>
        <time>2013-04-21T11:25:26Z</time>
      </trkpt>
      <trkpt lat="48.421" lon="2.71682">
        <ele>147</ele>
        <time>2013-04-21T11:25:27Z</time>
      </trkpt>
      <trkpt lat="48.421" lon="2.71686">
        <ele>147</ele>
        <time>2013-04-21T11:25:30Z</time>
      </trkpt>
      <trkpt lat="48.42101" lon="2.71688">
        <ele>147</ele>
        <time>2013-04-21T11:25:31Z</time>
      </trkpt>
      <trkpt lat="48.421" lon="2.71693">
        <ele>147</ele>
        <time>2013-04-21T11:25:33Z</time>
      </trkpt>
      <trkpt lat="48.421" lon="2.71695">
        <ele>147</ele>
        <time>2013-04-21T11:25:34Z</time>
      </trkpt>
      <trkpt lat="48.42096" lon="2.71712">
        <ele>147</ele>
        <time>2013-04-21T11:25:39Z</time>
      </trkpt>
      <trkpt lat="48.42093" lon="2.71724">
        <ele>147</ele>
        <time>2013-04-21T11:25:41Z</time>
      </trkpt>
      <trkpt lat="48.4208" lon="2.7175">
        <ele>146</ele>
        <time>2013-04-21T11:25:45Z</time>
      </trkpt>
      <trkpt lat="48.42078" lon="2.71766">
        <ele>144</ele>
        <time>2013-04-21T11:25:47Z</time>
      </trkpt>
      <trkpt lat="48.42078" lon="2.71783">
        <ele>144</ele>
        <time>2013-04-21T11:25:49Z</time>
      </trkpt>
      <trkpt lat="48.42074" lon="2.71803">
        <ele>144</ele>
        <time>2013-04-21T11:25:52Z</time>
      </trkpt>
      <trkpt lat="48.42067" lon="2.71815">
        <ele>144</ele>
        <time>2013-04-21T11:25:54Z</time>
      </trkpt>
      <trkpt lat="48.42064" lon="2.71818">
        <ele>144</ele>
        <time>2013-04-21T11:25:55Z</time>
      </trkpt>
      <trkpt lat="48.42061" lon="2.7182">
        <ele>144</ele>
        <time>2013-04-21T11:25:56Z</time>
      </trkpt>
      <trkpt lat="48.42059" lon="2.71824">
        <ele>144</ele>
        <time>2013-04-21T11:25:57Z</time>
      </trkpt>
      <trkpt lat="48.42058" lon="2.71827">
        <ele>144</ele>
        <time>2013-04-21T11:25:58Z</time>
      </trkpt>
      <trkpt lat="48.42057" lon="2.71832">
        <ele>144</ele>
        <time>2013-04-21T11:25:59Z</time>
      </trkpt>
      <trkpt lat="48.42057" lon="2.71836">
        <ele>144</ele>
        <time>2013-04-21T11:26:00Z</time>
      </trkpt>
      <trkpt lat="48.42059" lon="2.71855">
        <ele>144</ele>
        <time>2013-04-21T11:26:03Z</time>
      </trkpt>
      <trkpt lat="48.42058" lon="2.71861">
        <ele>144</ele>
        <time>2013-04-21T11:26:04Z</time>
      </trkpt>
      <trkpt lat="48.42053" lon="2.71874">
        <ele>144</ele>
        <time>2013-04-21T11:26:07Z</time>
      </trkpt>
      <trkpt lat="48.42052" lon="2.71883">
        <ele>144</ele>
        <time>2013-04-21T11:26:10Z</time>
      </trkpt>
      <trkpt lat="48.42052" lon="2.71884">
        <ele>144</ele>
        <time>2013-04-21T11:26:11Z</time>
      </trkpt>
      <trkpt lat="48.42051" lon="2.71884">
        <ele>144</ele>
        <time>2013-04-21T11:26:12Z</time>
      </trkpt>
      <trkpt lat="48.42051" lon="2.71885">
        <ele>144</ele>
        <time>2013-04-21T11:26:13Z</time>
      </trkpt>
      <trkpt lat="48.42051" lon="2.71886">
        <ele>144</ele>
        <time>2013-04-21T11:26:14Z</time>
      </trkpt>
      <trkpt lat="48.42051" lon="2.71889">
        <ele>143</ele>
        <time>2013-04-21T11:26:16Z</time>
      </trkpt>
      <trkpt lat="48.42051" lon="2.71891">
        <ele>143</ele>
        <time>2013-04-21T11:26:17Z</time>
      </trkpt>
      <trkpt lat="48.42049" lon="2.71899">
        <ele>143</ele>
        <time>2013-04-21T11:26:21Z</time>
      </trkpt>
      <trkpt lat="48.42049" lon="2.71901">
        <ele>143</ele>
        <time>2013-04-21T11:26:22Z</time>
      </trkpt>
      <trkpt lat="48.42049" lon="2.71902">
        <ele>143</ele>
        <time>2013-04-21T11:26:23Z</time>
      </trkpt>
      <trkpt lat="48.42048" lon="2.71905">
        <ele>143</ele>
        <time>2013-04-21T11:26:25Z</time>
      </trkpt>
      <trkpt lat="48.42048" lon="2.71905">
        <ele>143</ele>
        <time>2013-04-21T11:26:26Z</time>
      </trkpt>
      <trkpt lat="48.42047" lon="2.71908">
        <ele>143</ele>
        <time>2013-04-21T11:26:29Z</time>
      </trkpt>
      <trkpt lat="48.42047" lon="2.71912">
        <ele>143</ele>
        <time>2013-04-21T11:26:31Z</time>
      </trkpt>
      <trkpt lat="48.42045" lon="2.71919">
        <ele>142</ele>
        <time>2013-04-21T11:26:35Z</time>
      </trkpt>
      <trkpt lat="48.42044" lon="2.71922">
        <ele>142</ele>
        <time>2013-04-21T11:26:36Z</time>
      </trkpt>
      <trkpt lat="48.42043" lon="2.71928">
        <ele>142</ele>
        <time>2013-04-21T11:26:38Z</time>
      </trkpt>
      <trkpt lat="48.42042" lon="2.71935">
        <ele>142</ele>
        <time>2013-04-21T11:26:40Z</time>
      </trkpt>
      <trkpt lat="48.42042" lon="2.71938">
        <ele>142</ele>
        <time>2013-04-21T11:26:41Z</time>
      </trkpt>
      <trkpt lat="48.42043" lon="2.7194">
        <ele>142</ele>
        <time>2013-04-21T11:26:42Z</time>
      </trkpt>
      <trkpt lat="48.42042" lon="2.71942">
        <ele>142</ele>
        <time>2013-04-21T11:26:45Z</time>
      </trkpt>
      <trkpt lat="48.42042" lon="2.71943">
        <ele>142</ele>
        <time>2013-04-21T11:26:47Z</time>
      </trkpt>
      <trkpt lat="48.42042" lon="2.71944">
        <ele>142</ele>
        <time>2013-04-21T11:26:48Z</time>
      </trkpt>
      <trkpt lat="48.42042" lon="2.71945">
        <ele>142</ele>
        <time>2013-04-21T11:26:49Z</time>
      </trkpt>
      <trkpt lat="48.42042" lon="2.71945">
        <ele>142</ele>
        <time>2013-04-21T11:26:50Z</time>
      </trkpt>
      <trkpt lat="48.42042" lon="2.71946">
        <ele>142</ele>
        <time>2013-04-21T11:26:51Z</time>
      </trkpt>
      <trkpt lat="48.42041" lon="2.71946">
        <ele>142</ele>
        <time>2013-04-21T11:26:52Z</time>
      </trkpt>
      <trkpt lat="48.42041" lon="2.71947">
        <ele>142</ele>
        <time>2013-04-21T11:26:53Z</time>
      </trkpt>
      <trkpt lat="48.42041" lon="2.71947">
        <ele>142</ele>
        <time>2013-04-21T11:26:54Z</time>
      </trkpt>
      <trkpt lat="48.42041" lon="2.71947">
        <ele>142</ele>
        <time>2013-04-21T11:26:55Z</time>
      </trkpt>
      <trkpt lat="48.42041" lon="2.71947">
        <ele>142</ele>
        <time>2013-04-21T11:26:56Z</time>
      </trkpt>
      <trkpt lat="48.42041" lon="2.71948">
        <ele>142</ele>
        <time>2013-04-21T11:26:57Z</time>
      </trkpt>
      <trkpt lat="48.42041" lon="2.71948">
        <ele>142</ele>
        <time>2013-04-21T11:26:58Z</time>
      </trkpt>
      <trkpt lat="48.42041" lon="2.71949">
        <ele>142</ele>
        <time>2013-04-21T11:26:59Z</time>
      </trkpt>
      <trkpt lat="48.42041" lon="2.71949">
        <ele>142</ele>
        <time>2013-04-21T11:27:00Z</time>
      </trkpt>
      <trkpt lat="48.4204" lon="2.71949">
        <ele>142</ele>
        <time>2013-04-21T11:27:02Z</time>
      </trkpt>
      <trkpt lat="48.42039" lon="2.71949">
        <ele>142</ele>
        <time>2013-04-21T11:27:03Z</time>
      </trkpt>
      <trkpt lat="48.42032" lon="2.71947">
        <ele>142</ele>
        <time>2013-04-21T11:27:08Z</time>
      </trkpt>
      <trkpt lat="48.42019" lon="2.71947">
        <ele>142</ele>
        <time>2013-04-21T11:27:13Z</time>
      </trkpt>
      <trkpt lat="48.42015" lon="2.71945">
        <ele>142</ele>
        <time>2013-04-21T11:27:15Z</time>
      </trkpt>
      <trkpt lat="48.4201" lon="2.71947">
        <ele>141</ele>
        <time>2013-04-21T11:27:17Z</time>
      </trkpt>
      <trkpt lat="48.42006" lon="2.7195">
        <ele>141</ele>
        <time>2013-04-21T11:27:19Z</time>
      </trkpt>
      <trkpt lat="48.42005" lon="2.71951">
        <ele>141</ele>
        <time>2013-04-21T11:27:20Z</time>
      </trkpt>
      <trkpt lat="48.42003" lon="2.71953">
        <ele>141</ele>
        <time>2013-04-21T11:27:21Z</time>
      </trkpt>
      <trkpt lat="48.41998" lon="2.71955">
        <ele>136</ele>
        <time>2013-04-21T11:27:23Z</time>
      </trkpt>
      <trkpt lat="48.41978" lon="2.71963">
        <ele>135</ele>
        <time>2013-04-21T11:27:30Z</time>
      </trkpt>
      <trkpt lat="48.41974" lon="2.71968">
        <ele>135</ele>
        <time>2013-04-21T11:27:32Z</time>
      </trkpt>
      <trkpt lat="48.41973" lon="2.71968">
        <ele>135</ele>
        <time>2013-04-21T11:27:33Z</time>
      </trkpt>
      <trkpt lat="48.41973" lon="2.71968">
        <ele>135</ele>
        <time>2013-04-21T11:27:34Z</time>
      </trkpt>
      <trkpt lat="48.41972" lon="2.71969">
        <ele>135</ele>
        <time>2013-04-21T11:27:35Z</time>
      </trkpt>
      <trkpt lat="48.41972" lon="2.71969">
        <ele>135</ele>
        <time>2013-04-21T11:27:36Z</time>
      </trkpt>
      <trkpt lat="48.41972" lon="2.71969">
        <ele>135</ele>
        <time>2013-04-21T11:27:37Z</time>
      </trkpt>
      <trkpt lat="48.41971" lon="2.71969">
        <ele>135</ele>
        <time>2013-04-21T11:27:38Z</time>
      </trkpt>
      <trkpt lat="48.41971" lon="2.71969">
        <ele>135</ele>
        <time>2013-04-21T11:27:39Z</time>
      </trkpt>
      <trkpt lat="48.4197" lon="2.71969">
        <ele>135</ele>
        <time>2013-04-21T11:27:40Z</time>
      </trkpt>
      <trkpt lat="48.4197" lon="2.71969">
        <ele>135</ele>
        <time>2013-04-21T11:27:41Z</time>
      </trkpt>
      <trkpt lat="48.4197" lon="2.71969">
        <ele>135</ele>
        <time>2013-04-21T11:27:42Z</time>
      </trkpt>
      <trkpt lat="48.4197" lon="2.71969">
        <ele>134</ele>
        <time>2013-04-21T11:27:43Z</time>
      </trkpt>
      <trkpt lat="48.4197" lon="2.7197">
        <ele>134</ele>
        <time>2013-04-21T11:27:44Z</time>
      </trkpt>
      <trkpt lat="48.41969" lon="2.7197">
        <ele>134</ele>
        <time>2013-04-21T11:27:45Z</time>
      </trkpt>
      <trkpt lat="48.41969" lon="2.71969">
        <ele>134</ele>
        <time>2013-04-21T11:27:46Z</time>
      </trkpt>
      <trkpt lat="48.41967" lon="2.71969">
        <ele>134</ele>
        <time>2013-04-21T11:27:48Z</time>
      </trkpt>
      <trkpt lat="48.41967" lon="2.71969">
        <ele>134</ele>
        <time>2013-04-21T11:27:49Z</time>
      </trkpt>
      <trkpt lat="48.41966" lon="2.71968">
        <ele>134</ele>
        <time>2013-04-21T11:27:51Z</time>
      </trkpt>
      <trkpt lat="48.41965" lon="2.71968">
        <ele>134</ele>
        <time>2013-04-21T11:27:52Z</time>
      </trkpt>
      <trkpt lat="48.41965" lon="2.71968">
        <ele>134</ele>
        <time>2013-04-21T11:27:53Z</time>
      </trkpt>
      <trkpt lat="48.41965" lon="2.71968">
        <ele>134</ele>
        <time>2013-04-21T11:27:54Z</time>
      </trkpt>
      <trkpt lat="48.41965" lon="2.71968">
        <ele>134</ele>
        <time>2013-04-21T11:27:56Z</time>
      </trkpt>
      <trkpt lat="48.41964" lon="2.71968">
        <ele>134</ele>
        <time>2013-04-21T11:27:57Z</time>
      </trkpt>
      <trkpt lat="48.41963" lon="2.71967">
        <ele>134</ele>
        <time>2013-04-21T11:27:58Z</time>
      </trkpt>
      <trkpt lat="48.41962" lon="2.71966">
        <ele>134</ele>
        <time>2013-04-21T11:27:59Z</time>
      </trkpt>
      <trkpt lat="48.41958" lon="2.71964">
        <ele>134</ele>
        <time>2013-04-21T11:28:06Z</time>
      </trkpt>
      <trkpt lat="48.41957" lon="2.71964">
        <ele>134</ele>
        <time>2013-04-21T11:28:07Z</time>
      </trkpt>
      <trkpt lat="48.41954" lon="2.71961">
        <ele>133</ele>
        <time>2013-04-21T11:28:09Z</time>
      </trkpt>
      <trkpt lat="48.41953" lon="2.7196">
        <ele>133</ele>
        <time>2013-04-21T11:28:10Z</time>
      </trkpt>
      <trkpt lat="48.41951" lon="2.71959">
        <ele>133</ele>
        <time>2013-04-21T11:28:11Z</time>
      </trkpt>
      <trkpt lat="48.41945" lon="2.71959">
        <ele>133</ele>
        <time>2013-04-21T11:28:14Z</time>
      </trkpt>
      <trkpt lat="48.41939" lon="2.71955">
        <ele>132</ele>
        <time>2013-04-21T11:28:17Z</time>
      </trkpt>
      <trkpt lat="48.41937" lon="2.71955">
        <ele>132</ele>
        <time>2013-04-21T11:28:18Z</time>
      </trkpt>
      <trkpt lat="48.41935" lon="2.71955">
        <ele>132</ele>
        <time>2013-04-21T11:28:19Z</time>
      </trkpt>
      <trkpt lat="48.41932" lon="2.71958">
        <ele>132</ele>
        <time>2013-04-21T11:28:21Z</time>
      </trkpt>
      <trkpt lat="48.41928" lon="2.71959">
        <ele>132</ele>
        <time>2013-04-21T11:28:24Z</time>
      </trkpt>
      <trkpt lat="48.41928" lon="2.71961">
        <ele>132</ele>
        <time>2013-04-21T11:28:25Z</time>
      </trkpt>
      <trkpt lat="48.41926" lon="2.71967">
        <ele>131</ele>
        <time>2013-04-21T11:28:28Z</time>
      </trkpt>
      <trkpt lat="48.41925" lon="2.71967">
        <ele>131</ele>
        <time>2013-04-21T11:28:29Z</time>
      </trkpt>
      <trkpt lat="48.41924" lon="2.71968">
        <ele>131</ele>
        <time>2013-04-21T11:28:30Z</time>
      </trkpt>
      <trkpt lat="48.41923" lon="2.71968">
        <ele>131</ele>
        <time>2013-04-21T11:28:31Z</time>
      </trkpt>
      <trkpt lat="48.41919" lon="2.7197">
        <ele>131</ele>
        <time>2013-04-21T11:28:34Z</time>
      </trkpt>
      <trkpt lat="48.41918" lon="2.71971">
        <ele>131</ele>
        <time>2013-04-21T11:28:35Z</time>
      </trkpt>
      <trkpt lat="48.41917" lon="2.7197">
        <ele>124</ele>
        <time>2013-04-21T11:28:36Z</time>
      </trkpt>
      <trkpt lat="48.41916" lon="2.71969">
        <ele>124</ele>
        <time>2013-04-21T11:28:37Z</time>
      </trkpt>
      <trkpt lat="48.41915" lon="2.71968">
        <ele>123</ele>
        <time>2013-04-21T11:28:38Z</time>
      </trkpt>
      <trkpt lat="48.41914" lon="2.71967">
        <ele>123</ele>
        <time>2013-04-21T11:28:39Z</time>
      </trkpt>
      <trkpt lat="48.41913" lon="2.71965">
        <ele>123</ele>
        <time>2013-04-21T11:28:40Z</time>
      </trkpt>
      <trkpt lat="48.41911" lon="2.71963">
        <ele>123</ele>
        <time>2013-04-21T11:28:41Z</time>
      </trkpt>
      <trkpt lat="48.4191" lon="2.71961">
        <ele>123</ele>
        <time>2013-04-21T11:28:42Z</time>
      </trkpt>
      <trkpt lat="48.41908" lon="2.7196">
        <ele>123</ele>
        <time>2013-04-21T11:28:43Z</time>
      </trkpt>
      <trkpt lat="48.41905" lon="2.71961">
        <ele>123</ele>
        <time>2013-04-21T11:28:44Z</time>
      </trkpt>
      <trkpt lat="48.41903" lon="2.71962">
        <ele>123</ele>
        <time>2013-04-21T11:28:45Z</time>
      </trkpt>
      <trkpt lat="48.41903" lon="2.71963">
        <ele>123</ele>
        <time>2013-04-21T11:28:46Z</time>
      </trkpt>
      <trkpt lat="48.41902" lon="2.71965">
        <ele>123</ele>
        <time>2013-04-21T11:28:47Z</time>
      </trkpt>
      <trkpt lat="48.41901" lon="2.71971">
        <ele>123</ele>
        <time>2013-04-21T11:28:49Z</time>
      </trkpt>
      <trkpt lat="48.419" lon="2.71973">
        <ele>123</ele>
        <time>2013-04-21T11:28:50Z</time>
      </trkpt>
      <trkpt lat="48.41899" lon="2.71974">
        <ele>123</ele>
        <time>2013-04-21T11:28:51Z</time>
      </trkpt>
      <trkpt lat="48.41898" lon="2.71974">
        <ele>123</ele>
        <time>2013-04-21T11:28:52Z</time>
      </trkpt>
      <trkpt lat="48.41896" lon="2.71974">
        <ele>123</ele>
        <time>2013-04-21T11:28:53Z</time>
      </trkpt>
      <trkpt lat="48.41895" lon="2.71975">
        <ele>123</ele>
        <time>2013-04-21T11:28:54Z</time>
      </trkpt>
      <trkpt lat="48.41891" lon="2.71973">
        <ele>122</ele>
        <time>2013-04-21T11:28:56Z</time>
      </trkpt>
      <trkpt lat="48.41888" lon="2.71971">
        <ele>122</ele>
        <time>2013-04-21T11:28:58Z</time>
      </trkpt>
      <trkpt lat="48.41886" lon="2.71972">
        <ele>122</ele>
        <time>2013-04-21T11:28:59Z</time>
      </trkpt>
      <trkpt lat="48.41886" lon="2.71974">
        <ele>122</ele>
        <time>2013-04-21T11:29:00Z</time>
      </trkpt>
      <trkpt lat="48.41885" lon="2.71975">
        <ele>122</ele>
        <time>2013-04-21T11:29:01Z</time>
      </trkpt>
      <trkpt lat="48.41884" lon="2.71976">
        <ele>122</ele>
        <time>2013-04-21T11:29:02Z</time>
      </trkpt>
      <trkpt lat="48.41878" lon="2.71984">
        <ele>121</ele>
        <time>2013-04-21T11:29:05Z</time>
      </trkpt>
      <trkpt lat="48.41875" lon="2.71986">
        <ele>121</ele>
        <time>2013-04-21T11:29:06Z</time>
      </trkpt>
      <trkpt lat="48.41873" lon="2.71987">
        <ele>121</ele>
        <time>2013-04-21T11:29:07Z</time>
      </trkpt>
      <trkpt lat="48.41871" lon="2.71987">
        <ele>121</ele>
        <time>2013-04-21T11:29:08Z</time>
      </trkpt>
      <trkpt lat="48.41869" lon="2.71989">
        <ele>120</ele>
        <time>2013-04-21T11:29:10Z</time>
      </trkpt>
      <trkpt lat="48.41867" lon="2.7199">
        <ele>120</ele>
        <time>2013-04-21T11:29:11Z</time>
      </trkpt>
      <trkpt lat="48.41865" lon="2.7199">
        <ele>120</ele>
        <time>2013-04-21T11:29:12Z</time>
      </trkpt>
      <trkpt lat="48.41863" lon="2.71991">
        <ele>120</ele>
        <time>2013-04-21T11:29:13Z</time>
      </trkpt>
      <trkpt lat="48.41862" lon="2.71997">
        <ele>119</ele>
        <time>2013-04-21T11:29:15Z</time>
      </trkpt>
      <trkpt lat="48.4186" lon="2.72">
        <ele>119</ele>
        <time>2013-04-21T11:29:16Z</time>
      </trkpt>
      <trkpt lat="48.41858" lon="2.72006">
        <ele>117</ele>
        <time>2013-04-21T11:29:18Z</time>
      </trkpt>
      <trkpt lat="48.41858" lon="2.7201">
        <ele>117</ele>
        <time>2013-04-21T11:29:20Z</time>
      </trkpt>
      <trkpt lat="48.41858" lon="2.7201">
        <ele>117</ele>
        <time>2013-04-21T11:29:21Z</time>
      </trkpt>
      <trkpt lat="48.41857" lon="2.72011">
        <ele>117</ele>
        <time>2013-04-21T11:29:22Z</time>
      </trkpt>
      <trkpt lat="48.41857" lon="2.72011">
        <ele>117</ele>
        <time>2013-04-21T11:29:23Z</time>
      </trkpt>
      <trkpt lat="48.41857" lon="2.72012">
        <ele>117</ele>
        <time>2013-04-21T11:29:24Z</time>
      </trkpt>
      <trkpt lat="48.41857" lon="2.72012">
        <ele>117</ele>
        <time>2013-04-21T11:29:25Z</time>
      </trkpt>
      <trkpt lat="48.41857" lon="2.72013">
        <ele>117</ele>
        <time>2013-04-21T11:29:27Z</time>
      </trkpt>
      <trkpt lat="48.41856" lon="2.72013">
        <ele>117</ele>
        <time>2013-04-21T11:29:28Z</time>
      </trkpt>
      <trkpt lat="48.41856" lon="2.72014">
        <ele>117</ele>
        <time>2013-04-21T11:29:29Z</time>
      </trkpt>
      <trkpt lat="48.41856" lon="2.72015">
        <ele>117</ele>
        <time>2013-04-21T11:29:30Z</time>
      </trkpt>
      <trkpt lat="48.41855" lon="2.72016">
        <ele>117</ele>
        <time>2013-04-21T11:29:31Z</time>
      </trkpt>
      <trkpt lat="48.41855" lon="2.72017">
        <ele>117</ele>
        <time>2013-04-21T11:29:32Z</time>
      </trkpt>
      <trkpt lat="48.41853" lon="2.72019">
        <ele>117</ele>
        <time>2013-04-21T11:29:34Z</time>
      </trkpt>
      <trkpt lat="48.41852" lon="2.7202">
        <ele>117</ele>
        <time>2013-04-21T11:29:35Z</time>
      </trkpt>
      <trkpt lat="48.41849" lon="2.72023">
        <ele>117</ele>
        <time>2013-04-21T11:29:36Z</time>
      </trkpt>
      <trkpt lat="48.41846" lon="2.72024">
        <ele>117</ele>
        <time>2013-04-21T11:29:37Z</time>
      </trkpt>
      <trkpt lat="48.41843" lon="2.72027">
        <ele>117</ele>
        <time>2013-04-21T11:29:38Z</time>
      </trkpt>
      <trkpt lat="48.4184" lon="2.72029">
        <ele>117</ele>
        <time>2013-04-21T11:29:39Z</time>
      </trkpt>
      <trkpt lat="48.41827" lon="2.72024">
        <ele>111</ele>
        <time>2013-04-21T11:29:43Z</time>
      </trkpt>
      <trkpt lat="48.41825" lon="2.72023">
        <ele>111</ele>
        <time>2013-04-21T11:29:44Z</time>
      </trkpt>
      <trkpt lat="48.41824" lon="2.72021">
        <ele>111</ele>
        <time>2013-04-21T11:29:46Z</time>
      </trkpt>
      <trkpt lat="48.41824" lon="2.72022">
        <ele>111</ele>
        <time>2013-04-21T11:29:47Z</time>
      </trkpt>
      <trkpt lat="48.41824" lon="2.72022">
        <ele>111</ele>
        <time>2013-04-21T11:29:48Z</time>
      </trkpt>
      <trkpt lat="48.41823" lon="2.72022">
        <ele>111</ele>
        <time>2013-04-21T11:29:49Z</time>
      </trkpt>
      <trkpt lat="48.41823" lon="2.72022">
        <ele>111</ele>
        <time>2013-04-21T11:29:50Z</time>
      </trkpt>
      <trkpt lat="48.41822" lon="2.7202">
        <ele>111</ele>
        <time>2013-04-21T11:29:52Z</time>
      </trkpt>
      <trkpt lat="48.41822" lon="2.72019">
        <ele>111</ele>
        <time>2013-04-21T11:29:53Z</time>
      </trkpt>
      <trkpt lat="48.41821" lon="2.72018">
        <ele>111</ele>
        <time>2013-04-21T11:29:54Z</time>
      </trkpt>
      <trkpt lat="48.41821" lon="2.72018">
        <ele>111</ele>
        <time>2013-04-21T11:29:55Z</time>
      </trkpt>
      <trkpt lat="48.41821" lon="2.72017">
        <ele>111</ele>
        <time>2013-04-21T11:29:56Z</time>
      </trkpt>
      <trkpt lat="48.4182" lon="2.72017">
        <ele>111</ele>
        <time>2013-04-21T11:29:57Z</time>
      </trkpt>
      <trkpt lat="48.4182" lon="2.72016">
        <ele>111</ele>
        <time>2013-04-21T11:30:00Z</time>
      </trkpt>
      <trkpt lat="48.4182" lon="2.72016">
        <ele>111</ele>
        <time>2013-04-21T11:30:01Z</time>
      </trkpt>
      <trkpt lat="48.4182" lon="2.72016">
        <ele>111</ele>
        <time>2013-04-21T11:30:02Z</time>
      </trkpt>
      <trkpt lat="48.4182" lon="2.72016">
        <ele>111</ele>
        <time>2013-04-21T11:30:03Z</time>
      </trkpt>
      <trkpt lat="48.4182" lon="2.72016">
        <ele>111</ele>
        <time>2013-04-21T11:30:04Z</time>
      </trkpt>
      <trkpt lat="48.4182" lon="2.72017">
        <ele>111</ele>
        <time>2013-04-21T11:30:05Z</time>
      </trkpt>
      <trkpt lat="48.41819" lon="2.72017">
        <ele>111</ele>
        <time>2013-04-21T11:30:06Z</time>
      </trkpt>
      <trkpt lat="48.41819" lon="2.72017">
        <ele>111</ele>
        <time>2013-04-21T11:30:07Z</time>
      </trkpt>
      <trkpt lat="48.41819" lon="2.72017">
        <ele>111</ele>
        <time>2013-04-21T11:30:08Z</time>
      </trkpt>
      <trkpt lat="48.41819" lon="2.72017">
        <ele>111</ele>
        <time>2013-04-21T11:30:09Z</time>
      </trkpt>
      <trkpt lat="48.41819" lon="2.72018">
        <ele>111</ele>
        <time>2013-04-21T11:30:10Z</time>
      </trkpt>
      <trkpt lat="48.41819" lon="2.72018">
        <ele>111</ele>
        <time>2013-04-21T11:30:11Z</time>
      </trkpt>
      <trkpt lat="48.41819" lon="2.72018">
        <ele>111</ele>
        <time>2013-04-21T11:30:12Z</time>
      </trkpt>
      <trkpt lat="48.41819" lon="2.72018">
        <ele>111</ele>
        <time>2013-04-21T11:30:13Z</time>
      </trkpt>
      <trkpt lat="48.41819" lon="2.72018">
        <ele>111</ele>
        <time>2013-04-21T11:30:14Z</time>
      </trkpt>
      <trkpt lat="48.41819" lon="2.72019">
        <ele>111</ele>
        <time>2013-04-21T11:30:15Z</time>
      </trkpt>
      <trkpt lat="48.41819" lon="2.72019">
        <ele>111</ele>
        <time>2013-04-21T11:30:17Z</time>
      </trkpt>
      <trkpt lat="48.41819" lon="2.72019">
        <ele>111</ele>
        <time>2013-04-21T11:30:25Z</time>
      </trkpt>
      <trkpt lat="48.41819" lon="2.72019">
        <ele>111</ele>
        <time>2013-04-21T11:30:28Z</time>
      </trkpt>
      <trkpt lat="48.41819" lon="2.72018">
        <ele>111</ele>
        <time>2013-04-21T11:30:32Z</time>
      </trkpt>
      <trkpt lat="48.41819" lon="2.72018">
        <ele>111</ele>
        <time>2013-04-21T11:30:34Z</time>
      </trkpt>
      <trkpt lat="48.41819" lon="2.72018">
        <ele>111</ele>
        <time>2013-04-21T11:30:36Z</time>
      </trkpt>
      <trkpt lat="48.41819" lon="2.72018">
        <ele>111</ele>
        <time>2013-04-21T11:30:38Z</time>
      </trkpt>
      <trkpt lat="48.41819" lon="2.72018">
        <ele>111</ele>
        <time>2013-04-21T11:30:40Z</time>
      </trkpt>
      <trkpt lat="48.41819" lon="2.72017">
        <ele>111</ele>
        <time>2013-04-21T11:30:41Z</time>
      </trkpt>
      <trkpt lat="48.41819" lon="2.72017">
        <ele>111</ele>
        <time>2013-04-21T11:30:44Z</time>
      </trkpt>
      <trkpt lat="48.41819" lon="2.72017">
        <ele>111</ele>
        <time>2013-04-21T11:30:48Z</time>
      </trkpt>
      <trkpt lat="48.41819" lon="2.72017">
        <ele>111</ele>
        <time>2013-04-21T11:30:49Z</time>
      </trkpt>
      <trkpt lat="48.41819" lon="2.72018">
        <ele>111</ele>
        <time>2013-04-21T11:30:51Z</time>
      </trkpt>
      <trkpt lat="48.41819" lon="2.72018">
        <ele>111</ele>
        <time>2013-04-21T11:30:52Z</time>
      </trkpt>
      <trkpt lat="48.41818" lon="2.72018">
        <ele>111</ele>
        <time>2013-04-21T11:30:53Z</time>
      </trkpt>
      <trkpt lat="48.41818" lon="2.72018">
        <ele>111</ele>
        <time>2013-04-21T11:30:55Z</time>
      </trkpt>
      <trkpt lat="48.41818" lon="2.72018">
        <ele>111</ele>
        <time>2013-04-21T11:30:56Z</time>
      </trkpt>
      <trkpt lat="48.41818" lon="2.72018">
        <ele>111</ele>
        <time>2013-04-21T11:30:57Z</time>
      </trkpt>
      <trkpt lat="48.41818" lon="2.72018">
        <ele>111</ele>
        <time>2013-04-21T11:30:58Z</time>
      </trkpt>
      <trkpt lat="48.41818" lon="2.72018">
        <ele>111</ele>
        <time>2013-04-21T11:30:59Z</time>
      </trkpt>
      <trkpt lat="48.41817" lon="2.72018">
        <ele>111</ele>
        <time>2013-04-21T11:31:00Z</time>
      </trkpt>
      <trkpt lat="48.41817" lon="2.72018">
        <ele>111</ele>
        <time>2013-04-21T11:31:01Z</time>
      </trkpt>
      <trkpt lat="48.41817" lon="2.72018">
        <ele>111</ele>
        <time>2013-04-21T11:31:02Z</time>
      </trkpt>
      <trkpt lat="48.41817" lon="2.72018">
        <ele>111</ele>
        <time>2013-04-21T11:31:05Z</time>
      </trkpt>
      <trkpt lat="48.41817" lon="2.72018">
        <ele>111</ele>
        <time>2013-04-21T11:31:06Z</time>
      </trkpt>
      <trkpt lat="48.41816" lon="2.72018">
        <ele>111</ele>
        <time>2013-04-21T11:31:07Z</time>
      </trkpt>
      <trkpt lat="48.41816" lon="2.72018">
        <ele>111</ele>
        <time>2013-04-21T11:31:08Z</time>
      </trkpt>
      <trkpt lat="48.41816" lon="2.72018">
        <ele>111</ele>
        <time>2013-04-21T11:31:09Z</time>
      </trkpt>
      <trkpt lat="48.41816" lon="2.72018">
        <ele>111</ele>
        <time>2013-04-21T11:31:10Z</time>
      </trkpt>
      <trkpt lat="48.41815" lon="2.72018">
        <ele>111</ele>
        <time>2013-04-21T11:31:11Z</time>
      </trkpt>
      <trkpt lat="48.41815" lon="2.72018">
        <ele>111</ele>
        <time>2013-04-21T11:31:12Z</time>
      </trkpt>
      <trkpt lat="48.41815" lon="2.72018">
        <ele>111</ele>
        <time>2013-04-21T11:31:13Z</time>
      </trkpt>
      <trkpt lat="48.41815" lon="2.72018">
        <ele>111</ele>
        <time>2013-04-21T11:31:14Z</time>
      </trkpt>
      <trkpt lat="48.41814" lon="2.72017">
        <ele>111</ele>
        <time>2013-04-21T11:31:15Z</time>
      </trkpt>
      <trkpt lat="48.41814" lon="2.72017">
        <ele>111</ele>
        <time>2013-04-21T11:31:16Z</time>
      </trkpt>
      <trkpt lat="48.41814" lon="2.72017">
        <ele>111</ele>
        <time>2013-04-21T11:31:17Z</time>
      </trkpt>
      <trkpt lat="48.41814" lon="2.72016">
        <ele>111</ele>
        <time>2013-04-21T11:31:18Z</time>
      </trkpt>
      <trkpt lat="48.41814" lon="2.72016">
        <ele>111</ele>
        <time>2013-04-21T11:31:20Z</time>
      </trkpt>
      <trkpt lat="48.41813" lon="2.72015">
        <ele>111</ele>
        <time>2013-04-21T11:31:21Z</time>
      </trkpt>
      <trkpt lat="48.41813" lon="2.72015">
        <ele>111</ele>
        <time>2013-04-21T11:31:23Z</time>
      </trkpt>
      <trkpt lat="48.41813" lon="2.72014">
        <ele>111</ele>
        <time>2013-04-21T11:31:25Z</time>
      </trkpt>
      <trkpt lat="48.41813" lon="2.72014">
        <ele>111</ele>
        <time>2013-04-21T11:31:26Z</time>
      </trkpt>
      <trkpt lat="48.41813" lon="2.72014">
        <ele>111</ele>
        <time>2013-04-21T11:31:28Z</time>
      </trkpt>
      <trkpt lat="48.41813" lon="2.72014">
        <ele>111</ele>
        <time>2013-04-21T11:31:29Z</time>
      </trkpt>
      <trkpt lat="48.41813" lon="2.72014">
        <ele>111</ele>
        <time>2013-04-21T11:31:31Z</time>
      </trkpt>
      <trkpt lat="48.41813" lon="2.72014">
        <ele>111</ele>
        <time>2013-04-21T11:31:32Z</time>
      </trkpt>
      <trkpt lat="48.41814" lon="2.72014">
        <ele>111</ele>
        <time>2013-04-21T11:31:34Z</time>
      </trkpt>
      <trkpt lat="48.41814" lon="2.72014">
        <ele>111</ele>
        <time>2013-04-21T11:31:35Z</time>
      </trkpt>
      <trkpt lat="48.41814" lon="2.72014">
        <ele>111</ele>
        <time>2013-04-21T11:31:36Z</time>
      </trkpt>
      <trkpt lat="48.41814" lon="2.72014">
        <ele>111</ele>
        <time>2013-04-21T11:31:37Z</time>
      </trkpt>
      <trkpt lat="48.41814" lon="2.72013">
        <ele>111</ele>
        <time>2013-04-21T11:31:38Z</time>
      </trkpt>
      <trkpt lat="48.41814" lon="2.72013">
        <ele>111</ele>
        <time>2013-04-21T11:31:39Z</time>
      </trkpt>
      <trkpt lat="48.41815" lon="2.72013">
        <ele>111</ele>
        <time>2013-04-21T11:31:40Z</time>
      </trkpt>
      <trkpt lat="48.41815" lon="2.72013">
        <ele>111</ele>
        <time>2013-04-21T11:31:41Z</time>
      </trkpt>
      <trkpt lat="48.41815" lon="2.72013">
        <ele>111</ele>
        <time>2013-04-21T11:31:42Z</time>
      </trkpt>
      <trkpt lat="48.41815" lon="2.72013">
        <ele>111</ele>
        <time>2013-04-21T11:31:43Z</time>
      </trkpt>
      <trkpt lat="48.41815" lon="2.72013">
        <ele>111</ele>
        <time>2013-04-21T11:31:44Z</time>
      </trkpt>
      <trkpt lat="48.41815" lon="2.72013">
        <ele>111</ele>
        <time>2013-04-21T11:31:46Z</time>
      </trkpt>
      <trkpt lat="48.41815" lon="2.72013">
        <ele>111</ele>
        <time>2013-04-21T11:31:49Z</time>
      </trkpt>
      <trkpt lat="48.41815" lon="2.72012">
        <ele>111</ele>
        <time>2013-04-21T11:31:50Z</time>
      </trkpt>
      <trkpt lat="48.41815" lon="2.72012">
        <ele>111</ele>
        <time>2013-04-21T11:31:52Z</time>
      </trkpt>
      <trkpt lat="48.41815" lon="2.72012">
        <ele>111</ele>
        <time>2013-04-21T11:31:53Z</time>
      </trkpt>
      <trkpt lat="48.41814" lon="2.72012">
        <ele>111</ele>
        <time>2013-04-21T11:31:54Z</time>
      </trkpt>
      <trkpt lat="48.41814" lon="2.72012">
        <ele>111</ele>
        <time>2013-04-21T11:31:55Z</time>
      </trkpt>
      <trkpt lat="48.41814" lon="2.72012">
        <ele>111</ele>
        <time>2013-04-21T11:31:56Z</time>
      </trkpt>
      <trkpt lat="48.41814" lon="2.72012">
        <ele>111</ele>
        <time>2013-04-21T11:31:57Z</time>
      </trkpt>
      <trkpt lat="48.41814" lon="2.72012">
        <ele>111</ele>
        <time>2013-04-21T11:31:58Z</time>
      </trkpt>
      <trkpt lat="48.41813" lon="2.72012">
        <ele>111</ele>
        <time>2013-04-21T11:31:59Z</time>
      </trkpt>
      <trkpt lat="48.41813" lon="2.72011">
        <ele>111</ele>
        <time>2013-04-21T11:32:00Z</time>
      </trkpt>
      <trkpt lat="48.41813" lon="2.72011">
        <ele>111</ele>
        <time>2013-04-21T11:32:01Z</time>
      </trkpt>
      <trkpt lat="48.41813" lon="2.72011">
        <ele>111</ele>
        <time>2013-04-21T11:32:02Z</time>
      </trkpt>
      <trkpt lat="48.41813" lon="2.72011">
        <ele>111</ele>
        <time>2013-04-21T11:32:03Z</time>
      </trkpt>
      <trkpt lat="48.41813" lon="2.7201">
        <ele>111</ele>
        <time>2013-04-21T11:32:04Z</time>
      </trkpt>
      <trkpt lat="48.41813" lon="2.72009">
        <ele>111</ele>
        <time>2013-04-21T11:32:05Z</time>
      </trkpt>
      <trkpt lat="48.41813" lon="2.72008">
        <ele>111</ele>
        <time>2013-04-21T11:32:06Z</time>
      </trkpt>
      <trkpt lat="48.41813" lon="2.72002">
        <ele>111</ele>
        <time>2013-04-21T11:32:08Z</time>
      </trkpt>
      <trkpt lat="48.41813" lon="2.71998">
        <ele>112</ele>
        <time>2013-04-21T11:32:09Z</time>
      </trkpt>
      <trkpt lat="48.41813" lon="2.71994">
        <ele>112</ele>
        <time>2013-04-21T11:32:10Z</time>
      </trkpt>
      <trkpt lat="48.41811" lon="2.7199">
        <ele>111</ele>
        <time>2013-04-21T11:32:11Z</time>
      </trkpt>
      <trkpt lat="48.41809" lon="2.71989">
        <ele>111</ele>
        <time>2013-04-21T11:32:12Z</time>
      </trkpt>
      <trkpt lat="48.41806" lon="2.71988">
        <ele>111</ele>
        <time>2013-04-21T11:32:13Z</time>
      </trkpt>
      <trkpt lat="48.41794" lon="2.71967">
        <ele>110</ele>
        <time>2013-04-21T11:32:17Z</time>
      </trkpt>
      <trkpt lat="48.4179" lon="2.71954">
        <ele>110</ele>
        <time>2013-04-21T11:32:19Z</time>
      </trkpt>
      <trkpt lat="48.41781" lon="2.71937">
        <ele>109</ele>
        <time>2013-04-21T11:32:22Z</time>
      </trkpt>
      <trkpt lat="48.41778" lon="2.71933">
        <ele>109</ele>
        <time>2013-04-21T11:32:23Z</time>
      </trkpt>
      <trkpt lat="48.41772" lon="2.71918">
        <ele>108</ele>
        <time>2013-04-21T11:32:27Z</time>
      </trkpt>
      <trkpt lat="48.41771" lon="2.71907">
        <ele>108</ele>
        <time>2013-04-21T11:32:30Z</time>
      </trkpt>
      <trkpt lat="48.4177" lon="2.71903">
        <ele>108</ele>
        <time>2013-04-21T11:32:31Z</time>
      </trkpt>
      <trkpt lat="48.41768" lon="2.719">
        <ele>108</ele>
        <time>2013-04-21T11:32:32Z</time>
      </trkpt>
      <trkpt lat="48.41763" lon="2.71891">
        <ele>108</ele>
        <time>2013-04-21T11:32:34Z</time>
      </trkpt>
      <trkpt lat="48.41761" lon="2.71885">
        <ele>108</ele>
        <time>2013-04-21T11:32:35Z</time>
      </trkpt>
      <trkpt lat="48.41761" lon="2.71879">
        <ele>108</ele>
        <time>2013-04-21T11:32:36Z</time>
      </trkpt>
      <trkpt lat="48.41759" lon="2.71872">
        <ele>108</ele>
        <time>2013-04-21T11:32:37Z</time>
      </trkpt>
      <trkpt lat="48.41756" lon="2.71865">
        <ele>107</ele>
        <time>2013-04-21T11:32:38Z</time>
      </trkpt>
      <trkpt lat="48.41752" lon="2.71853">
        <ele>106</ele>
        <time>2013-04-21T11:32:40Z</time>
      </trkpt>
      <trkpt lat="48.4175" lon="2.7185">
        <ele>106</ele>
        <time>2013-04-21T11:32:41Z</time>
      </trkpt>
      <trkpt lat="48.4175" lon="2.71849">
        <ele>101</ele>
        <time>2013-04-21T11:32:42Z</time>
      </trkpt>
      <trkpt lat="48.41748" lon="2.7185">
        <ele>100</ele>
        <time>2013-04-21T11:32:43Z</time>
      </trkpt>
      <trkpt lat="48.41746" lon="2.71852">
        <ele>100</ele>
        <time>2013-04-21T11:32:45Z</time>
      </trkpt>
      <trkpt lat="48.41745" lon="2.71854">
        <ele>100</ele>
        <time>2013-04-21T11:32:46Z</time>
      </trkpt>
      <trkpt lat="48.41738" lon="2.71859">
        <ele>99</ele>
        <time>2013-04-21T11:32:50Z</time>
      </trkpt>
      <trkpt lat="48.41735" lon="2.71862">
        <ele>99</ele>
        <time>2013-04-21T11:32:52Z</time>
      </trkpt>
      <trkpt lat="48.41734" lon="2.71863">
        <ele>99</ele>
        <time>2013-04-21T11:32:53Z</time>
      </trkpt>
      <trkpt lat="48.41732" lon="2.71865">
        <ele>99</ele>
        <time>2013-04-21T11:32:54Z</time>
      </trkpt>
      <trkpt lat="48.4173" lon="2.71871">
        <ele>99</ele>
        <time>2013-04-21T11:32:56Z</time>
      </trkpt>
      <trkpt lat="48.41726" lon="2.71879">
        <ele>98</ele>
        <time>2013-04-21T11:32:59Z</time>
      </trkpt>
      <trkpt lat="48.41726" lon="2.7188">
        <ele>98</ele>
        <time>2013-04-21T11:33:02Z</time>
      </trkpt>
      <trkpt lat="48.41725" lon="2.7188">
        <ele>98</ele>
        <time>2013-04-21T11:33:03Z</time>
      </trkpt>
      <trkpt lat="48.41725" lon="2.71881">
        <ele>98</ele>
        <time>2013-04-21T11:33:04Z</time>
      </trkpt>
      <trkpt lat="48.41725" lon="2.71881">
        <ele>98</ele>
        <time>2013-04-21T11:33:05Z</time>
      </trkpt>
      <trkpt lat="48.41724" lon="2.71881">
        <ele>98</ele>
        <time>2013-04-21T11:33:06Z</time>
      </trkpt>
      <trkpt lat="48.41724" lon="2.71881">
        <ele>98</ele>
        <time>2013-04-21T11:33:07Z</time>
      </trkpt>
      <trkpt lat="48.41723" lon="2.71882">
        <ele>98</ele>
        <time>2013-04-21T11:33:08Z</time>
      </trkpt>
      <trkpt lat="48.41723" lon="2.71882">
        <ele>98</ele>
        <time>2013-04-21T11:33:09Z</time>
      </trkpt>
      <trkpt lat="48.41723" lon="2.71882">
        <ele>98</ele>
        <time>2013-04-21T11:33:10Z</time>
      </trkpt>
      <trkpt lat="48.41722" lon="2.71883">
        <ele>98</ele>
        <time>2013-04-21T11:33:11Z</time>
      </trkpt>
      <trkpt lat="48.41722" lon="2.71883">
        <ele>98</ele>
        <time>2013-04-21T11:33:12Z</time>
      </trkpt>
      <trkpt lat="48.41721" lon="2.71883">
        <ele>98</ele>
        <time>2013-04-21T11:33:13Z</time>
      </trkpt>
      <trkpt lat="48.41721" lon="2.71884">
        <ele>98</ele>
        <time>2013-04-21T11:33:14Z</time>
      </trkpt>
      <trkpt lat="48.4172" lon="2.71884">
        <ele>98</ele>
        <time>2013-04-21T11:33:15Z</time>
      </trkpt>
      <trkpt lat="48.4172" lon="2.71885">
        <ele>98</ele>
        <time>2013-04-21T11:33:16Z</time>
      </trkpt>
      <trkpt lat="48.4172" lon="2.71885">
        <ele>98</ele>
        <time>2013-04-21T11:33:17Z</time>
      </trkpt>
      <trkpt lat="48.41719" lon="2.71885">
        <ele>98</ele>
        <time>2013-04-21T11:33:18Z</time>
      </trkpt>
      <trkpt lat="48.41719" lon="2.71885">
        <ele>98</ele>
        <time>2013-04-21T11:33:19Z</time>
      </trkpt>
      <trkpt lat="48.41719" lon="2.71886">
        <ele>98</ele>
        <time>2013-04-21T11:33:20Z</time>
      </trkpt>
      <trkpt lat="48.41719" lon="2.71886">
        <ele>98</ele>
        <time>2013-04-21T11:33:21Z</time>
      </trkpt>
      <trkpt lat="48.41719" lon="2.71886">
        <ele>98</ele>
        <time>2013-04-21T11:33:22Z</time>
      </trkpt>
      <trkpt lat="48.41718" lon="2.71887">
        <ele>98</ele>
        <time>2013-04-21T11:33:23Z</time>
      </trkpt>
      <trkpt lat="48.41718" lon="2.71887">
        <ele>98</ele>
        <time>2013-04-21T11:33:24Z</time>
      </trkpt>
      <trkpt lat="48.41718" lon="2.71888">
        <ele>98</ele>
        <time>2013-04-21T11:33:25Z</time>
      </trkpt>
      <trkpt lat="48.41718" lon="2.71889">
        <ele>98</ele>
        <time>2013-04-21T11:33:26Z</time>
      </trkpt>
      <trkpt lat="48.41717" lon="2.7189">
        <ele>98</ele>
        <time>2013-04-21T11:33:27Z</time>
      </trkpt>
      <trkpt lat="48.41717" lon="2.71891">
        <ele>98</ele>
        <time>2013-04-21T11:33:28Z</time>
      </trkpt>
      <trkpt lat="48.41717" lon="2.71891">
        <ele>98</ele>
        <time>2013-04-21T11:33:30Z</time>
      </trkpt>
      <trkpt lat="48.41717" lon="2.71892">
        <ele>98</ele>
        <time>2013-04-21T11:33:31Z</time>
      </trkpt>
      <trkpt lat="48.41717" lon="2.71892">
        <ele>98</ele>
        <time>2013-04-21T11:33:32Z</time>
      </trkpt>
      <trkpt lat="48.41717" lon="2.71893">
        <ele>98</ele>
        <time>2013-04-21T11:33:33Z</time>
      </trkpt>
      <trkpt lat="48.41716" lon="2.71897">
        <ele>98</ele>
        <time>2013-04-21T11:33:35Z</time>
      </trkpt>
      <trkpt lat="48.41716" lon="2.71898">
        <ele>98</ele>
        <time>2013-04-21T11:33:36Z</time>
      </trkpt>
      <trkpt lat="48.41717" lon="2.71909">
        <ele>98</ele>
        <time>2013-04-21T11:33:40Z</time>
      </trkpt>
      <trkpt lat="48.41717" lon="2.71913">
        <ele>98</ele>
        <time>2013-04-21T11:33:41Z</time>
      </trkpt>
      <trkpt lat="48.41719" lon="2.71932">
        <ele>99</ele>
        <time>2013-04-21T11:33:45Z</time>
      </trkpt>
      <trkpt lat="48.41719" lon="2.71936">
        <ele>99</ele>
        <time>2013-04-21T11:33:46Z</time>
      </trkpt>
      <trkpt lat="48.41714" lon="2.71979">
        <ele>98</ele>
        <time>2013-04-21T11:33:53Z</time>
      </trkpt>
      <trkpt lat="48.41706" lon="2.72009">
        <ele>97</ele>
        <time>2013-04-21T11:33:57Z</time>
      </trkpt>
      <trkpt lat="48.41703" lon="2.72014">
        <ele>96</ele>
        <time>2013-04-21T11:33:58Z</time>
      </trkpt>
      <trkpt lat="48.417" lon="2.72026">
        <ele>96</ele>
        <time>2013-04-21T11:34:00Z</time>
      </trkpt>
      <trkpt lat="48.41696" lon="2.72087">
        <ele>95</ele>
        <time>2013-04-21T11:34:09Z</time>
      </trkpt>
      <trkpt lat="48.41696" lon="2.721">
        <ele>96</ele>
        <time>2013-04-21T11:34:11Z</time>
      </trkpt>
      <trkpt lat="48.41691" lon="2.72161">
        <ele>96</ele>
        <time>2013-04-21T11:34:20Z</time>
      </trkpt>
      <trkpt lat="48.41692" lon="2.72168">
        <ele>96</ele>
        <time>2013-04-21T11:34:21Z</time>
      </trkpt>
      <trkpt lat="48.41695" lon="2.72198">
        <ele>97</ele>
        <time>2013-04-21T11:34:26Z</time>
      </trkpt>
      <trkpt lat="48.41695" lon="2.72219">
        <ele>97</ele>
        <time>2013-04-21T11:34:30Z</time>
      </trkpt>
      <trkpt lat="48.41695" lon="2.72224">
        <ele>97</ele>
        <time>2013-04-21T11:34:31Z</time>
      </trkpt>
      <trkpt lat="48.41695" lon="2.72229">
        <ele>97</ele>
        <time>2013-04-21T11:34:32Z</time>
      </trkpt>
      <trkpt lat="48.41693" lon="2.72246">
        <ele>96</ele>
        <time>2013-04-21T11:34:35Z</time>
      </trkpt>
      <trkpt lat="48.417" lon="2.72288">
        <ele>96</ele>
        <time>2013-04-21T11:34:41Z</time>
      </trkpt>
      <trkpt lat="48.4172" lon="2.72366">
        <ele>95</ele>
        <time>2013-04-21T11:34:55Z</time>
      </trkpt>
      <trkpt lat="48.41722" lon="2.72371">
        <ele>95</ele>
        <time>2013-04-21T11:34:56Z</time>
      </trkpt>
      <trkpt lat="48.41725" lon="2.72387">
        <ele>95</ele>
        <time>2013-04-21T11:34:59Z</time>
      </trkpt>
      <trkpt lat="48.41727" lon="2.7239">
        <ele>95</ele>
        <time>2013-04-21T11:35:00Z</time>
      </trkpt>
      <trkpt lat="48.41728" lon="2.72392">
        <ele>96</ele>
        <time>2013-04-21T11:35:01Z</time>
      </trkpt>
      <trkpt lat="48.41731" lon="2.72394">
        <ele>96</ele>
        <time>2013-04-21T11:35:02Z</time>
      </trkpt>
      <trkpt lat="48.41735" lon="2.72398">
        <ele>96</ele>
        <time>2013-04-21T11:35:04Z</time>
      </trkpt>
      <trkpt lat="48.41736" lon="2.724">
        <ele>96</ele>
        <time>2013-04-21T11:35:05Z</time>
      </trkpt>
      <trkpt lat="48.41739" lon="2.72404">
        <ele>97</ele>
        <time>2013-04-21T11:35:07Z</time>
      </trkpt>
      <trkpt lat="48.41743" lon="2.72406">
        <ele>97</ele>
        <time>2013-04-21T11:35:09Z</time>
      </trkpt>
      <trkpt lat="48.41744" lon="2.72406">
        <ele>97</ele>
        <time>2013-04-21T11:35:10Z</time>
      </trkpt>
      <trkpt lat="48.41745" lon="2.72405">
        <ele>97</ele>
        <time>2013-04-21T11:35:11Z</time>
      </trkpt>
      <trkpt lat="48.41746" lon="2.72404">
        <ele>97</ele>
        <time>2013-04-21T11:35:12Z</time>
      </trkpt>
      <trkpt lat="48.41746" lon="2.72403">
        <ele>97</ele>
        <time>2013-04-21T11:35:13Z</time>
      </trkpt>
      <trkpt lat="48.41747" lon="2.72401">
        <ele>97</ele>
        <time>2013-04-21T11:35:15Z</time>
      </trkpt>
      <trkpt lat="48.41748" lon="2.724">
        <ele>97</ele>
        <time>2013-04-21T11:35:16Z</time>
      </trkpt>
      <trkpt lat="48.41748" lon="2.72399">
        <ele>97</ele>
        <time>2013-04-21T11:35:17Z</time>
      </trkpt>
      <trkpt lat="48.41749" lon="2.72399">
        <ele>97</ele>
        <time>2013-04-21T11:35:18Z</time>
      </trkpt>
      <trkpt lat="48.41751" lon="2.72397">
        <ele>103</ele>
        <time>2013-04-21T11:35:19Z</time>
      </trkpt>
      <trkpt lat="48.41753" lon="2.7239">
        <ele>104</ele>
        <time>2013-04-21T11:35:22Z</time>
      </trkpt>
      <trkpt lat="48.41757" lon="2.72383">
        <ele>104</ele>
        <time>2013-04-21T11:35:25Z</time>
      </trkpt>
      <trkpt lat="48.4176" lon="2.72377">
        <ele>105</ele>
        <time>2013-04-21T11:35:28Z</time>
      </trkpt>
      <trkpt lat="48.41761" lon="2.72376">
        <ele>105</ele>
        <time>2013-04-21T11:35:29Z</time>
      </trkpt>
      <trkpt lat="48.41764" lon="2.7237">
        <ele>105</ele>
        <time>2013-04-21T11:35:32Z</time>
      </trkpt>
      <trkpt lat="48.41778" lon="2.72349">
        <ele>106</ele>
        <time>2013-04-21T11:35:42Z</time>
      </trkpt>
      <trkpt lat="48.41781" lon="2.72342">
        <ele>106</ele>
        <time>2013-04-21T11:35:45Z</time>
      </trkpt>
      <trkpt lat="48.41786" lon="2.7232">
        <ele>108</ele>
        <time>2013-04-21T11:35:53Z</time>
      </trkpt>
      <trkpt lat="48.41787" lon="2.72317">
        <ele>108</ele>
        <time>2013-04-21T11:35:54Z</time>
      </trkpt>
      <trkpt lat="48.41786" lon="2.72294">
        <ele>109</ele>
        <time>2013-04-21T11:36:02Z</time>
      </trkpt>
      <trkpt lat="48.41785" lon="2.72291">
        <ele>109</ele>
        <time>2013-04-21T11:36:03Z</time>
      </trkpt>
      <trkpt lat="48.41779" lon="2.72234">
        <ele>109</ele>
        <time>2013-04-21T11:36:21Z</time>
      </trkpt>
      <trkpt lat="48.41779" lon="2.72231">
        <ele>109</ele>
        <time>2013-04-21T11:36:22Z</time>
      </trkpt>
      <trkpt lat="48.4178" lon="2.72225">
        <ele>109</ele>
        <time>2013-04-21T11:36:24Z</time>
      </trkpt>
      <trkpt lat="48.41782" lon="2.72219">
        <ele>109</ele>
        <time>2013-04-21T11:36:26Z</time>
      </trkpt>
      <trkpt lat="48.41784" lon="2.72215">
        <ele>110</ele>
        <time>2013-04-21T11:36:28Z</time>
      </trkpt>
      <trkpt lat="48.41787" lon="2.72212">
        <ele>110</ele>
        <time>2013-04-21T11:36:30Z</time>
      </trkpt>
      <trkpt lat="48.4179" lon="2.7221">
        <ele>110</ele>
        <time>2013-04-21T11:36:32Z</time>
      </trkpt>
      <trkpt lat="48.41792" lon="2.7221">
        <ele>110</ele>
        <time>2013-04-21T11:36:33Z</time>
      </trkpt>
      <trkpt lat="48.41796" lon="2.72211">
        <ele>110</ele>
        <time>2013-04-21T11:36:35Z</time>
      </trkpt>
      <trkpt lat="48.41802" lon="2.72214">
        <ele>111</ele>
        <time>2013-04-21T11:36:38Z</time>
      </trkpt>
      <trkpt lat="48.41805" lon="2.72217">
        <ele>111</ele>
        <time>2013-04-21T11:36:40Z</time>
      </trkpt>
      <trkpt lat="48.41807" lon="2.72219">
        <ele>111</ele>
        <time>2013-04-21T11:36:41Z</time>
      </trkpt>
      <trkpt lat="48.41809" lon="2.72224">
        <ele>111</ele>
        <time>2013-04-21T11:36:43Z</time>
      </trkpt>
      <trkpt lat="48.41811" lon="2.72229">
        <ele>111</ele>
        <time>2013-04-21T11:36:45Z</time>
      </trkpt>
      <trkpt lat="48.41812" lon="2.72232">
        <ele>112</ele>
        <time>2013-04-21T11:36:46Z</time>
      </trkpt>
      <trkpt lat="48.41822" lon="2.72264">
        <ele>112</ele>
        <time>2013-04-21T11:36:58Z</time>
      </trkpt>
      <trkpt lat="48.41832" lon="2.72288">
        <ele>111</ele>
        <time>2013-04-21T11:37:08Z</time>
      </trkpt>
      <trkpt lat="48.41833" lon="2.7229">
        <ele>111</ele>
        <time>2013-04-21T11:37:09Z</time>
      </trkpt>
      <trkpt lat="48.41838" lon="2.72296">
        <ele>118</ele>
        <time>2013-04-21T11:37:12Z</time>
      </trkpt>
      <trkpt lat="48.41841" lon="2.72299">
        <ele>118</ele>
        <time>2013-04-21T11:37:14Z</time>
      </trkpt>
      <trkpt lat="48.41844" lon="2.72302">
        <ele>118</ele>
        <time>2013-04-21T11:37:16Z</time>
      </trkpt>
      <trkpt lat="48.4185" lon="2.72306">
        <ele>119</ele>
        <time>2013-04-21T11:37:19Z</time>
      </trkpt>
      <trkpt lat="48.41851" lon="2.72307">
        <ele>119</ele>
        <time>2013-04-21T11:37:20Z</time>
      </trkpt>
      <trkpt lat="48.41861" lon="2.72311">
        <ele>119</ele>
        <time>2013-04-21T11:37:25Z</time>
      </trkpt>
      <trkpt lat="48.41863" lon="2.72311">
        <ele>119</ele>
        <time>2013-04-21T11:37:26Z</time>
      </trkpt>
      <trkpt lat="48.41865" lon="2.72311">
        <ele>120</ele>
        <time>2013-04-21T11:37:27Z</time>
      </trkpt>
      <trkpt lat="48.41867" lon="2.72312">
        <ele>120</ele>
        <time>2013-04-21T11:37:28Z</time>
      </trkpt>
      <trkpt lat="48.41869" lon="2.72311">
        <ele>120</ele>
        <time>2013-04-21T11:37:29Z</time>
      </trkpt>
      <trkpt lat="48.41873" lon="2.72312">
        <ele>120</ele>
        <time>2013-04-21T11:37:31Z</time>
      </trkpt>
      <trkpt lat="48.41875" lon="2.72311">
        <ele>121</ele>
        <time>2013-04-21T11:37:32Z</time>
      </trkpt>
      <trkpt lat="48.41877" lon="2.72312">
        <ele>121</ele>
        <time>2013-04-21T11:37:33Z</time>
      </trkpt>
      <trkpt lat="48.41884" lon="2.7231">
        <ele>121</ele>
        <time>2013-04-21T11:37:37Z</time>
      </trkpt>
      <trkpt lat="48.41886" lon="2.7231">
        <ele>121</ele>
        <time>2013-04-21T11:37:38Z</time>
      </trkpt>
      <trkpt lat="48.419" lon="2.72308">
        <ele>123</ele>
        <time>2013-04-21T11:37:46Z</time>
      </trkpt>
      <trkpt lat="48.41913" lon="2.7231">
        <ele>123</ele>
        <time>2013-04-21T11:37:53Z</time>
      </trkpt>
      <trkpt lat="48.41918" lon="2.72311">
        <ele>129</ele>
        <time>2013-04-21T11:37:55Z</time>
      </trkpt>
      <trkpt lat="48.41923" lon="2.72315">
        <ele>129</ele>
        <time>2013-04-21T11:37:58Z</time>
      </trkpt>
      <trkpt lat="48.41925" lon="2.72317">
        <ele>129</ele>
        <time>2013-04-21T11:37:59Z</time>
      </trkpt>
      <trkpt lat="48.41928" lon="2.72324">
        <ele>128</ele>
        <time>2013-04-21T11:38:02Z</time>
      </trkpt>
      <trkpt lat="48.41929" lon="2.72327">
        <ele>128</ele>
        <time>2013-04-21T11:38:03Z</time>
      </trkpt>
      <trkpt lat="48.41929" lon="2.72336">
        <ele>126</ele>
        <time>2013-04-21T11:38:06Z</time>
      </trkpt>
      <trkpt lat="48.41927" lon="2.72348">
        <ele>126</ele>
        <time>2013-04-21T11:38:10Z</time>
      </trkpt>
      <trkpt lat="48.41926" lon="2.72351">
        <ele>126</ele>
        <time>2013-04-21T11:38:11Z</time>
      </trkpt>
      <trkpt lat="48.4192" lon="2.72381">
        <ele>126</ele>
        <time>2013-04-21T11:38:21Z</time>
      </trkpt>
      <trkpt lat="48.4192" lon="2.72388">
        <ele>126</ele>
        <time>2013-04-21T11:38:23Z</time>
      </trkpt>
      <trkpt lat="48.4192" lon="2.72394">
        <ele>125</ele>
        <time>2013-04-21T11:38:25Z</time>
      </trkpt>
      <trkpt lat="48.41919" lon="2.72397">
        <ele>125</ele>
        <time>2013-04-21T11:38:26Z</time>
      </trkpt>
      <trkpt lat="48.41919" lon="2.72403">
        <ele>125</ele>
        <time>2013-04-21T11:38:28Z</time>
      </trkpt>
      <trkpt lat="48.41921" lon="2.72419">
        <ele>123</ele>
        <time>2013-04-21T11:38:33Z</time>
      </trkpt>
      <trkpt lat="48.41921" lon="2.72436">
        <ele>124</ele>
        <time>2013-04-21T11:38:38Z</time>
      </trkpt>
      <trkpt lat="48.4192" lon="2.72449">
        <ele>124</ele>
        <time>2013-04-21T11:38:42Z</time>
      </trkpt>
      <trkpt lat="48.41921" lon="2.72459">
        <ele>124</ele>
        <time>2013-04-21T11:38:45Z</time>
      </trkpt>
      <trkpt lat="48.4192" lon="2.72462">
        <ele>124</ele>
        <time>2013-04-21T11:38:46Z</time>
      </trkpt>
      <trkpt lat="48.41921" lon="2.72465">
        <ele>124</ele>
        <time>2013-04-21T11:38:47Z</time>
      </trkpt>
      <trkpt lat="48.4192" lon="2.72472">
        <ele>124</ele>
        <time>2013-04-21T11:38:49Z</time>
      </trkpt>
      <trkpt lat="48.41919" lon="2.72476">
        <ele>124</ele>
        <time>2013-04-21T11:38:50Z</time>
      </trkpt>
      <trkpt lat="48.41919" lon="2.72506">
        <ele>123</ele>
        <time>2013-04-21T11:38:59Z</time>
      </trkpt>
      <trkpt lat="48.41922" lon="2.72527">
        <ele>122</ele>
        <time>2013-04-21T11:39:06Z</time>
      </trkpt>
      <trkpt lat="48.41923" lon="2.72533">
        <ele>122</ele>
        <time>2013-04-21T11:39:08Z</time>
      </trkpt>
      <trkpt lat="48.41925" lon="2.72536">
        <ele>122</ele>
        <time>2013-04-21T11:39:09Z</time>
      </trkpt>
      <trkpt lat="48.41928" lon="2.72541">
        <ele>122</ele>
        <time>2013-04-21T11:39:11Z</time>
      </trkpt>
      <trkpt lat="48.4193" lon="2.72543">
        <ele>122</ele>
        <time>2013-04-21T11:39:12Z</time>
      </trkpt>
      <trkpt lat="48.41932" lon="2.72544">
        <ele>122</ele>
        <time>2013-04-21T11:39:13Z</time>
      </trkpt>
      <trkpt lat="48.41936" lon="2.72544">
        <ele>122</ele>
        <time>2013-04-21T11:39:15Z</time>
      </trkpt>
      <trkpt lat="48.41937" lon="2.72544">
        <ele>122</ele>
        <time>2013-04-21T11:39:16Z</time>
      </trkpt>
      <trkpt lat="48.41939" lon="2.72542">
        <ele>122</ele>
        <time>2013-04-21T11:39:17Z</time>
      </trkpt>
      <trkpt lat="48.41943" lon="2.72536">
        <ele>122</ele>
        <time>2013-04-21T11:39:20Z</time>
      </trkpt>
      <trkpt lat="48.41946" lon="2.72527">
        <ele>122</ele>
        <time>2013-04-21T11:39:24Z</time>
      </trkpt>
      <trkpt lat="48.41947" lon="2.72518">
        <ele>122</ele>
        <time>2013-04-21T11:39:27Z</time>
      </trkpt>
      <trkpt lat="48.41948" lon="2.72516">
        <ele>122</ele>
        <time>2013-04-21T11:39:28Z</time>
      </trkpt>
      <trkpt lat="48.41948" lon="2.72513">
        <ele>122</ele>
        <time>2013-04-21T11:39:29Z</time>
      </trkpt>
      <trkpt lat="48.41948" lon="2.7251">
        <ele>122</ele>
        <time>2013-04-21T11:39:30Z</time>
      </trkpt>
      <trkpt lat="48.41949" lon="2.72505">
        <ele>122</ele>
        <time>2013-04-21T11:39:32Z</time>
      </trkpt>
      <trkpt lat="48.4195" lon="2.72503">
        <ele>123</ele>
        <time>2013-04-21T11:39:33Z</time>
      </trkpt>
      <trkpt lat="48.4195" lon="2.72498">
        <ele>124</ele>
        <time>2013-04-21T11:39:35Z</time>
      </trkpt>
      <trkpt lat="48.41951" lon="2.72491">
        <ele>124</ele>
        <time>2013-04-21T11:39:38Z</time>
      </trkpt>
      <trkpt lat="48.41952" lon="2.72487">
        <ele>125</ele>
        <time>2013-04-21T11:39:41Z</time>
      </trkpt>
      <trkpt lat="48.41952" lon="2.72486">
        <ele>125</ele>
        <time>2013-04-21T11:39:42Z</time>
      </trkpt>
      <trkpt lat="48.41959" lon="2.72476">
        <ele>125</ele>
        <time>2013-04-21T11:39:50Z</time>
      </trkpt>
      <trkpt lat="48.4196" lon="2.72475">
        <ele>125</ele>
        <time>2013-04-21T11:39:51Z</time>
      </trkpt>
      <trkpt lat="48.41961" lon="2.72474">
        <ele>125</ele>
        <time>2013-04-21T11:39:52Z</time>
      </trkpt>
      <trkpt lat="48.41961" lon="2.72473">
        <ele>125</ele>
        <time>2013-04-21T11:39:53Z</time>
      </trkpt>
      <trkpt lat="48.41962" lon="2.72473">
        <ele>125</ele>
        <time>2013-04-21T11:39:54Z</time>
      </trkpt>
      <trkpt lat="48.41963" lon="2.72471">
        <ele>125</ele>
        <time>2013-04-21T11:39:56Z</time>
      </trkpt>
      <trkpt lat="48.41963" lon="2.72471">
        <ele>125</ele>
        <time>2013-04-21T11:39:57Z</time>
      </trkpt>
      <trkpt lat="48.41963" lon="2.72471">
        <ele>125</ele>
        <time>2013-04-21T11:39:58Z</time>
      </trkpt>
      <trkpt lat="48.41963" lon="2.72471">
        <ele>125</ele>
        <time>2013-04-21T11:39:59Z</time>
      </trkpt>
      <trkpt lat="48.41963" lon="2.72471">
        <ele>125</ele>
        <time>2013-04-21T11:40:01Z</time>
      </trkpt>
      <trkpt lat="48.41963" lon="2.72471">
        <ele>125</ele>
        <time>2013-04-21T11:40:02Z</time>
      </trkpt>
      <trkpt lat="48.41963" lon="2.72471">
        <ele>125</ele>
        <time>2013-04-21T11:40:03Z</time>
      </trkpt>
      <trkpt lat="48.41963" lon="2.72471">
        <ele>125</ele>
        <time>2013-04-21T11:40:04Z</time>
      </trkpt>
      <trkpt lat="48.41963" lon="2.7247">
        <ele>125</ele>
        <time>2013-04-21T11:40:06Z</time>
      </trkpt>
      <trkpt lat="48.41963" lon="2.7247">
        <ele>125</ele>
        <time>2013-04-21T11:40:07Z</time>
      </trkpt>
      <trkpt lat="48.41963" lon="2.7247">
        <ele>125</ele>
        <time>2013-04-21T11:40:09Z</time>
      </trkpt>
      <trkpt lat="48.41963" lon="2.7247">
        <ele>125</ele>
        <time>2013-04-21T11:40:12Z</time>
      </trkpt>
      <trkpt lat="48.41963" lon="2.7247">
        <ele>125</ele>
        <time>2013-04-21T11:40:13Z</time>
      </trkpt>
      <trkpt lat="48.41963" lon="2.7247">
        <ele>125</ele>
        <time>2013-04-21T11:40:14Z</time>
      </trkpt>
      <trkpt lat="48.41963" lon="2.7247">
        <ele>125</ele>
        <time>2013-04-21T11:40:17Z</time>
      </trkpt>
      <trkpt lat="48.41963" lon="2.7247">
        <ele>125</ele>
        <time>2013-04-21T11:40:18Z</time>
      </trkpt>
      <trkpt lat="48.41964" lon="2.72469">
        <ele>125</ele>
        <time>2013-04-21T11:40:19Z</time>
      </trkpt>
      <trkpt lat="48.41965" lon="2.72468">
        <ele>125</ele>
        <time>2013-04-21T11:40:20Z</time>
      </trkpt>
      <trkpt lat="48.41971" lon="2.72465">
        <ele>125</ele>
        <time>2013-04-21T11:40:25Z</time>
      </trkpt>
      <trkpt lat="48.41973" lon="2.72465">
        <ele>125</ele>
        <time>2013-04-21T11:40:26Z</time>
      </trkpt>
      <trkpt lat="48.41974" lon="2.72465">
        <ele>125</ele>
        <time>2013-04-21T11:40:27Z</time>
      </trkpt>
      <trkpt lat="48.41974" lon="2.72464">
        <ele>125</ele>
        <time>2013-04-21T11:40:28Z</time>
      </trkpt>
      <trkpt lat="48.41974" lon="2.72465">
        <ele>125</ele>
        <time>2013-04-21T11:40:29Z</time>
      </trkpt>
      <trkpt lat="48.41975" lon="2.72465">
        <ele>125</ele>
        <time>2013-04-21T11:40:31Z</time>
      </trkpt>
      <trkpt lat="48.41975" lon="2.72465">
        <ele>125</ele>
        <time>2013-04-21T11:40:32Z</time>
      </trkpt>
      <trkpt lat="48.41975" lon="2.72464">
        <ele>125</ele>
        <time>2013-04-21T11:40:33Z</time>
      </trkpt>
      <trkpt lat="48.41975" lon="2.72464">
        <ele>125</ele>
        <time>2013-04-21T11:40:35Z</time>
      </trkpt>
      <trkpt lat="48.41975" lon="2.72464">
        <ele>125</ele>
        <time>2013-04-21T11:40:36Z</time>
      </trkpt>
      <trkpt lat="48.41975" lon="2.72464">
        <ele>125</ele>
        <time>2013-04-21T11:40:37Z</time>
      </trkpt>
      <trkpt lat="48.41976" lon="2.72464">
        <ele>125</ele>
        <time>2013-04-21T11:40:38Z</time>
      </trkpt>
      <trkpt lat="48.41976" lon="2.72464">
        <ele>125</ele>
        <time>2013-04-21T11:40:39Z</time>
      </trkpt>
      <trkpt lat="48.41976" lon="2.72463">
        <ele>125</ele>
        <time>2013-04-21T11:40:40Z</time>
      </trkpt>
      <trkpt lat="48.41976" lon="2.72463">
        <ele>125</ele>
        <time>2013-04-21T11:40:41Z</time>
      </trkpt>
      <trkpt lat="48.41976" lon="2.72463">
        <ele>125</ele>
        <time>2013-04-21T11:40:42Z</time>
      </trkpt>
      <trkpt lat="48.41976" lon="2.72463">
        <ele>125</ele>
        <time>2013-04-21T11:40:43Z</time>
      </trkpt>
      <trkpt lat="48.41976" lon="2.72463">
        <ele>125</ele>
        <time>2013-04-21T11:40:44Z</time>
      </trkpt>
      <trkpt lat="48.41977" lon="2.72463">
        <ele>125</ele>
        <time>2013-04-21T11:40:45Z</time>
      </trkpt>
      <trkpt lat="48.41977" lon="2.72462">
        <ele>125</ele>
        <time>2013-04-21T11:40:46Z</time>
      </trkpt>
      <trkpt lat="48.41977" lon="2.72462">
        <ele>125</ele>
        <time>2013-04-21T11:40:48Z</time>
      </trkpt>
      <trkpt lat="48.41977" lon="2.72463">
        <ele>125</ele>
        <time>2013-04-21T11:40:50Z</time>
      </trkpt>
      <trkpt lat="48.41977" lon="2.72463">
        <ele>125</ele>
        <time>2013-04-21T11:40:54Z</time>
      </trkpt>
      <trkpt lat="48.41977" lon="2.72463">
        <ele>125</ele>
        <time>2013-04-21T11:40:56Z</time>
      </trkpt>
      <trkpt lat="48.41977" lon="2.72463">
        <ele>125</ele>
        <time>2013-04-21T11:40:57Z</time>
      </trkpt>
      <trkpt lat="48.41977" lon="2.72463">
        <ele>125</ele>
        <time>2013-04-21T11:40:58Z</time>
      </trkpt>
      <trkpt lat="48.41977" lon="2.72463">
        <ele>125</ele>
        <time>2013-04-21T11:40:59Z</time>
      </trkpt>
      <trkpt lat="48.41976" lon="2.72463">
        <ele>125</ele>
        <time>2013-04-21T11:41:00Z</time>
      </trkpt>
      <trkpt lat="48.41976" lon="2.72464">
        <ele>125</ele>
        <time>2013-04-21T11:41:01Z</time>
      </trkpt>
      <trkpt lat="48.41976" lon="2.72464">
        <ele>125</ele>
        <time>2013-04-21T11:41:02Z</time>
      </trkpt>
      <trkpt lat="48.41976" lon="2.72464">
        <ele>125</ele>
        <time>2013-04-21T11:41:03Z</time>
      </trkpt>
      <trkpt lat="48.41976" lon="2.72464">
        <ele>125</ele>
        <time>2013-04-21T11:41:04Z</time>
      </trkpt>
      <trkpt lat="48.41976" lon="2.72464">
        <ele>125</ele>
        <time>2013-04-21T11:41:05Z</time>
      </trkpt>
      <trkpt lat="48.41976" lon="2.72464">
        <ele>125</ele>
        <time>2013-04-21T11:41:06Z</time>
      </trkpt>
      <trkpt lat="48.41976" lon="2.72465">
        <ele>125</ele>
        <time>2013-04-21T11:41:07Z</time>
      </trkpt>
      <trkpt lat="48.41976" lon="2.72465">
        <ele>125</ele>
        <time>2013-04-21T11:41:08Z</time>
      </trkpt>
      <trkpt lat="48.41976" lon="2.72465">
        <ele>125</ele>
        <time>2013-04-21T11:41:09Z</time>
      </trkpt>
      <trkpt lat="48.41976" lon="2.72465">
        <ele>125</ele>
        <time>2013-04-21T11:41:10Z</time>
      </trkpt>
      <trkpt lat="48.41976" lon="2.72465">
        <ele>125</ele>
        <time>2013-04-21T11:41:11Z</time>
      </trkpt>
      <trkpt lat="48.41976" lon="2.72465">
        <ele>125</ele>
        <time>2013-04-21T11:41:12Z</time>
      </trkpt>
      <trkpt lat="48.41976" lon="2.72466">
        <ele>125</ele>
        <time>2013-04-21T11:41:13Z</time>
      </trkpt>
      <trkpt lat="48.41976" lon="2.72466">
        <ele>125</ele>
        <time>2013-04-21T11:41:14Z</time>
      </trkpt>
      <trkpt lat="48.41976" lon="2.72466">
        <ele>125</ele>
        <time>2013-04-21T11:41:15Z</time>
      </trkpt>
      <trkpt lat="48.41976" lon="2.72466">
        <ele>125</ele>
        <time>2013-04-21T11:41:17Z</time>
      </trkpt>
      <trkpt lat="48.41976" lon="2.72466">
        <ele>125</ele>
        <time>2013-04-21T11:41:18Z</time>
      </trkpt>
      <trkpt lat="48.41976" lon="2.72466">
        <ele>125</ele>
        <time>2013-04-21T11:41:19Z</time>
      </trkpt>
      <trkpt lat="48.41976" lon="2.72467">
        <ele>125</ele>
        <time>2013-04-21T11:41:21Z</time>
      </trkpt>
      <trkpt lat="48.41976" lon="2.72467">
        <ele>125</ele>
        <time>2013-04-21T11:41:23Z</time>
      </trkpt>
      <trkpt lat="48.41976" lon="2.72467">
        <ele>125</ele>
        <time>2013-04-21T11:41:26Z</time>
      </trkpt>
      <trkpt lat="48.41976" lon="2.72467">
        <ele>125</ele>
        <time>2013-04-21T11:41:28Z</time>
      </trkpt>
      <trkpt lat="48.41976" lon="2.72467">
        <ele>125</ele>
        <time>2013-04-21T11:41:30Z</time>
      </trkpt>
      <trkpt lat="48.41976" lon="2.72467">
        <ele>125</ele>
        <time>2013-04-21T11:41:31Z</time>
      </trkpt>
      <trkpt lat="48.41976" lon="2.72467">
        <ele>125</ele>
        <time>2013-04-21T11:41:32Z</time>
      </trkpt>
      <trkpt lat="48.41976" lon="2.72467">
        <ele>125</ele>
        <time>2013-04-21T11:41:33Z</time>
      </trkpt>
      <trkpt lat="48.41976" lon="2.72468">
        <ele>125</ele>
        <time>2013-04-21T11:41:35Z</time>
      </trkpt>
      <trkpt lat="48.41976" lon="2.72468">
        <ele>125</ele>
        <time>2013-04-21T11:41:37Z</time>
      </trkpt>
      <trkpt lat="48.41976" lon="2.72467">
        <ele>125</ele>
        <time>2013-04-21T11:41:38Z</time>
      </trkpt>
      <trkpt lat="48.41976" lon="2.72467">
        <ele>125</ele>
        <time>2013-04-21T11:41:40Z</time>
      </trkpt>
      <trkpt lat="48.41976" lon="2.72467">
        <ele>125</ele>
        <time>2013-04-21T11:41:41Z</time>
      </trkpt>
      <trkpt lat="48.41976" lon="2.72467">
        <ele>125</ele>
        <time>2013-04-21T11:41:42Z</time>
      </trkpt>
      <trkpt lat="48.41976" lon="2.72467">
        <ele>125</ele>
        <time>2013-04-21T11:41:43Z</time>
      </trkpt>
      <trkpt lat="48.41976" lon="2.72467">
        <ele>125</ele>
        <time>2013-04-21T11:41:45Z</time>
      </trkpt>
      <trkpt lat="48.41977" lon="2.72467">
        <ele>125</ele>
        <time>2013-04-21T11:41:46Z</time>
      </trkpt>
      <trkpt lat="48.41977" lon="2.72466">
        <ele>125</ele>
        <time>2013-04-21T11:41:47Z</time>
      </trkpt>
      <trkpt lat="48.41977" lon="2.72466">
        <ele>125</ele>
        <time>2013-04-21T11:41:49Z</time>
      </trkpt>
      <trkpt lat="48.41977" lon="2.72466">
        <ele>125</ele>
        <time>2013-04-21T11:41:50Z</time>
      </trkpt>
      <trkpt lat="48.41977" lon="2.72466">
        <ele>125</ele>
        <time>2013-04-21T11:41:53Z</time>
      </trkpt>
      <trkpt lat="48.41977" lon="2.72466">
        <ele>125</ele>
        <time>2013-04-21T11:41:54Z</time>
      </trkpt>
      <trkpt lat="48.41977" lon="2.72466">
        <ele>125</ele>
        <time>2013-04-21T11:41:55Z</time>
      </trkpt>
      <trkpt lat="48.41977" lon="2.72466">
        <ele>125</ele>
        <time>2013-04-21T11:41:57Z</time>
      </trkpt>
      <trkpt lat="48.41977" lon="2.72466">
        <ele>125</ele>
        <time>2013-04-21T11:41:59Z</time>
      </trkpt>
      <trkpt lat="48.41977" lon="2.72466">
        <ele>125</ele>
        <time>2013-04-21T11:42:00Z</time>
      </trkpt>
      <trkpt lat="48.41978" lon="2.72466">
        <ele>125</ele>
        <time>2013-04-21T11:42:01Z</time>
      </trkpt>
      <trkpt lat="48.41978" lon="2.72466">
        <ele>125</ele>
        <time>2013-04-21T11:42:03Z</time>
      </trkpt>
      <trkpt lat="48.41978" lon="2.72466">
        <ele>125</ele>
        <time>2013-04-21T11:42:06Z</time>
      </trkpt>
      <trkpt lat="48.41978" lon="2.72465">
        <ele>125</ele>
        <time>2013-04-21T11:42:07Z</time>
      </trkpt>
      <trkpt lat="48.41978" lon="2.72465">
        <ele>125</ele>
        <time>2013-04-21T11:42:09Z</time>
      </trkpt>
      <trkpt lat="48.41978" lon="2.72465">
        <ele>125</ele>
        <time>2013-04-21T11:42:11Z</time>
      </trkpt>
      <trkpt lat="48.41978" lon="2.72465">
        <ele>125</ele>
        <time>2013-04-21T11:42:12Z</time>
      </trkpt>
      <trkpt lat="48.41978" lon="2.72465">
        <ele>125</ele>
        <time>2013-04-21T11:42:13Z</time>
      </trkpt>
      <trkpt lat="48.41978" lon="2.72465">
        <ele>125</ele>
        <time>2013-04-21T11:42:14Z</time>
      </trkpt>
      <trkpt lat="48.41978" lon="2.72465">
        <ele>125</ele>
        <time>2013-04-21T11:42:15Z</time>
      </trkpt>
      <trkpt lat="48.41978" lon="2.72464">
        <ele>125</ele>
        <time>2013-04-21T11:42:16Z</time>
      </trkpt>
      <trkpt lat="48.41978" lon="2.72464">
        <ele>125</ele>
        <time>2013-04-21T11:42:17Z</time>
      </trkpt>
      <trkpt lat="48.41978" lon="2.72464">
        <ele>125</ele>
        <time>2013-04-21T11:42:21Z</time>
      </trkpt>
      <trkpt lat="48.41978" lon="2.72464">
        <ele>125</ele>
        <time>2013-04-21T11:42:23Z</time>
      </trkpt>
      <trkpt lat="48.41978" lon="2.72464">
        <ele>125</ele>
        <time>2013-04-21T11:42:24Z</time>
      </trkpt>
      <trkpt lat="48.41978" lon="2.72464">
        <ele>125</ele>
        <time>2013-04-21T11:42:25Z</time>
      </trkpt>
      <trkpt lat="48.41978" lon="2.72464">
        <ele>125</ele>
        <time>2013-04-21T11:42:27Z</time>
      </trkpt>
      <trkpt lat="48.41978" lon="2.72465">
        <ele>125</ele>
        <time>2013-04-21T11:42:28Z</time>
      </trkpt>
      <trkpt lat="48.41978" lon="2.72465">
        <ele>125</ele>
        <time>2013-04-21T11:42:29Z</time>
      </trkpt>
      <trkpt lat="48.41978" lon="2.72465">
        <ele>125</ele>
        <time>2013-04-21T11:42:30Z</time>
      </trkpt>
      <trkpt lat="48.41977" lon="2.72465">
        <ele>125</ele>
        <time>2013-04-21T11:42:31Z</time>
      </trkpt>
      <trkpt lat="48.41977" lon="2.72465">
        <ele>125</ele>
        <time>2013-04-21T11:42:33Z</time>
      </trkpt>
      <trkpt lat="48.41977" lon="2.72465">
        <ele>125</ele>
        <time>2013-04-21T11:42:34Z</time>
      </trkpt>
      <trkpt lat="48.41977" lon="2.72465">
        <ele>125</ele>
        <time>2013-04-21T11:42:35Z</time>
      </trkpt>
      <trkpt lat="48.41977" lon="2.72466">
        <ele>125</ele>
        <time>2013-04-21T11:42:36Z</time>
      </trkpt>
      <trkpt lat="48.41977" lon="2.72466">
        <ele>125</ele>
        <time>2013-04-21T11:42:37Z</time>
      </trkpt>
      <trkpt lat="48.41977" lon="2.72466">
        <ele>125</ele>
        <time>2013-04-21T11:42:38Z</time>
      </trkpt>
      <trkpt lat="48.41976" lon="2.72466">
        <ele>125</ele>
        <time>2013-04-21T11:42:39Z</time>
      </trkpt>
      <trkpt lat="48.41976" lon="2.72466">
        <ele>125</ele>
        <time>2013-04-21T11:42:40Z</time>
      </trkpt>
      <trkpt lat="48.41976" lon="2.72467">
        <ele>125</ele>
        <time>2013-04-21T11:42:41Z</time>
      </trkpt>
      <trkpt lat="48.41976" lon="2.72467">
        <ele>125</ele>
        <time>2013-04-21T11:42:42Z</time>
      </trkpt>
      <trkpt lat="48.41976" lon="2.72467">
        <ele>125</ele>
        <time>2013-04-21T11:42:43Z</time>
      </trkpt>
      <trkpt lat="48.41976" lon="2.72467">
        <ele>125</ele>
        <time>2013-04-21T11:42:44Z</time>
      </trkpt>
      <trkpt lat="48.41976" lon="2.72467">
        <ele>125</ele>
        <time>2013-04-21T11:42:45Z</time>
      </trkpt>
      <trkpt lat="48.41976" lon="2.72467">
        <ele>125</ele>
        <time>2013-04-21T11:42:46Z</time>
      </trkpt>
      <trkpt lat="48.41976" lon="2.72468">
        <ele>125</ele>
        <time>2013-04-21T11:42:47Z</time>
      </trkpt>
      <trkpt lat="48.41976" lon="2.72468">
        <ele>125</ele>
        <time>2013-04-21T11:42:48Z</time>
      </trkpt>
      <trkpt lat="48.41975" lon="2.72468">
        <ele>125</ele>
        <time>2013-04-21T11:42:50Z</time>
      </trkpt>
      <trkpt lat="48.41975" lon="2.72468">
        <ele>125</ele>
        <time>2013-04-21T11:42:52Z</time>
      </trkpt>
      <trkpt lat="48.41975" lon="2.72468">
        <ele>125</ele>
        <time>2013-04-21T11:42:53Z</time>
      </trkpt>
      <trkpt lat="48.41975" lon="2.72468">
        <ele>125</ele>
        <time>2013-04-21T11:42:54Z</time>
      </trkpt>
      <trkpt lat="48.41975" lon="2.72468">
        <ele>125</ele>
        <time>2013-04-21T11:42:55Z</time>
      </trkpt>
      <trkpt lat="48.41975" lon="2.72468">
        <ele>125</ele>
        <time>2013-04-21T11:42:56Z</time>
      </trkpt>
      <trkpt lat="48.41975" lon="2.72469">
        <ele>125</ele>
        <time>2013-04-21T11:42:57Z</time>
      </trkpt>
      <trkpt lat="48.41975" lon="2.72469">
        <ele>125</ele>
        <time>2013-04-21T11:43:00Z</time>
      </trkpt>
      <trkpt lat="48.41975" lon="2.72469">
        <ele>125</ele>
        <time>2013-04-21T11:43:01Z</time>
      </trkpt>
      <trkpt lat="48.41975" lon="2.72469">
        <ele>125</ele>
        <time>2013-04-21T11:43:04Z</time>
      </trkpt>
      <trkpt lat="48.41975" lon="2.72469">
        <ele>125</ele>
        <time>2013-04-21T11:43:05Z</time>
      </trkpt>
      <trkpt lat="48.41975" lon="2.72468">
        <ele>125</ele>
        <time>2013-04-21T11:43:07Z</time>
      </trkpt>
      <trkpt lat="48.41975" lon="2.72467">
        <ele>125</ele>
        <time>2013-04-21T11:43:08Z</time>
      </trkpt>
      <trkpt lat="48.41976" lon="2.72466">
        <ele>125</ele>
        <time>2013-04-21T11:43:09Z</time>
      </trkpt>
      <trkpt lat="48.41976" lon="2.72464">
        <ele>125</ele>
        <time>2013-04-21T11:43:10Z</time>
      </trkpt>
      <trkpt lat="48.41977" lon="2.72451">
        <ele>126</ele>
        <time>2013-04-21T11:43:14Z</time>
      </trkpt>
      <trkpt lat="48.41983" lon="2.72438">
        <ele>126</ele>
        <time>2013-04-21T11:43:17Z</time>
      </trkpt>
      <trkpt lat="48.41985" lon="2.72433">
        <ele>127</ele>
        <time>2013-04-21T11:43:18Z</time>
      </trkpt>
      <trkpt lat="48.41992" lon="2.72419">
        <ele>128</ele>
        <time>2013-04-21T11:43:21Z</time>
      </trkpt>
      <trkpt lat="48.41991" lon="2.72416">
        <ele>129</ele>
        <time>2013-04-21T11:43:22Z</time>
      </trkpt>
      <trkpt lat="48.4199" lon="2.72414">
        <ele>128</ele>
        <time>2013-04-21T11:43:23Z</time>
      </trkpt>
      <trkpt lat="48.41991" lon="2.72409">
        <ele>128</ele>
        <time>2013-04-21T11:43:25Z</time>
      </trkpt>
      <trkpt lat="48.41991" lon="2.72406">
        <ele>128</ele>
        <time>2013-04-21T11:43:26Z</time>
      </trkpt>
      <trkpt lat="48.4199" lon="2.72402">
        <ele>128</ele>
        <time>2013-04-21T11:43:28Z</time>
      </trkpt>
      <trkpt lat="48.4199" lon="2.72378">
        <ele>129</ele>
        <time>2013-04-21T11:43:33Z</time>
      </trkpt>
      <trkpt lat="48.41992" lon="2.72369">
        <ele>129</ele>
        <time>2013-04-21T11:43:35Z</time>
      </trkpt>
      <trkpt lat="48.41992" lon="2.72363">
        <ele>129</ele>
        <time>2013-04-21T11:43:37Z</time>
      </trkpt>
      <trkpt lat="48.41994" lon="2.72353">
        <ele>130</ele>
        <time>2013-04-21T11:43:40Z</time>
      </trkpt>
      <trkpt lat="48.41995" lon="2.72347">
        <ele>131</ele>
        <time>2013-04-21T11:43:43Z</time>
      </trkpt>
      <trkpt lat="48.41995" lon="2.72346">
        <ele>131</ele>
        <time>2013-04-21T11:43:44Z</time>
      </trkpt>
      <trkpt lat="48.41996" lon="2.72344">
        <ele>131</ele>
        <time>2013-04-21T11:43:45Z</time>
      </trkpt>
      <trkpt lat="48.41996" lon="2.72343">
        <ele>131</ele>
        <time>2013-04-21T11:43:46Z</time>
      </trkpt>
      <trkpt lat="48.41996" lon="2.72342">
        <ele>131</ele>
        <time>2013-04-21T11:43:47Z</time>
      </trkpt>
      <trkpt lat="48.41999" lon="2.72336">
        <ele>132</ele>
        <time>2013-04-21T11:43:50Z</time>
      </trkpt>
      <trkpt lat="48.42002" lon="2.72304">
        <ele>130</ele>
        <time>2013-04-21T11:43:56Z</time>
      </trkpt>
      <trkpt lat="48.42004" lon="2.72298">
        <ele>130</ele>
        <time>2013-04-21T11:43:58Z</time>
      </trkpt>
      <trkpt lat="48.42005" lon="2.72294">
        <ele>130</ele>
        <time>2013-04-21T11:43:59Z</time>
      </trkpt>
      <trkpt lat="48.42005" lon="2.72285">
        <ele>131</ele>
        <time>2013-04-21T11:44:02Z</time>
      </trkpt>
      <trkpt lat="48.42005" lon="2.72284">
        <ele>131</ele>
        <time>2013-04-21T11:44:03Z</time>
      </trkpt>
      <trkpt lat="48.42005" lon="2.72283">
        <ele>131</ele>
        <time>2013-04-21T11:44:04Z</time>
      </trkpt>
      <trkpt lat="48.42005" lon="2.72282">
        <ele>131</ele>
        <time>2013-04-21T11:44:05Z</time>
      </trkpt>
      <trkpt lat="48.42005" lon="2.72281">
        <ele>131</ele>
        <time>2013-04-21T11:44:07Z</time>
      </trkpt>
      <trkpt lat="48.42005" lon="2.7228">
        <ele>131</ele>
        <time>2013-04-21T11:44:08Z</time>
      </trkpt>
      <trkpt lat="48.42005" lon="2.7228">
        <ele>131</ele>
        <time>2013-04-21T11:44:09Z</time>
      </trkpt>
      <trkpt lat="48.42005" lon="2.72279">
        <ele>131</ele>
        <time>2013-04-21T11:44:10Z</time>
      </trkpt>
      <trkpt lat="48.42006" lon="2.72277">
        <ele>132</ele>
        <time>2013-04-21T11:44:11Z</time>
      </trkpt>
      <trkpt lat="48.42005" lon="2.72276">
        <ele>132</ele>
        <time>2013-04-21T11:44:13Z</time>
      </trkpt>
      <trkpt lat="48.42005" lon="2.72275">
        <ele>132</ele>
        <time>2013-04-21T11:44:14Z</time>
      </trkpt>
      <trkpt lat="48.42005" lon="2.72275">
        <ele>132</ele>
        <time>2013-04-21T11:44:15Z</time>
      </trkpt>
      <trkpt lat="48.42003" lon="2.72274">
        <ele>132</ele>
        <time>2013-04-21T11:44:17Z</time>
      </trkpt>
      <trkpt lat="48.42003" lon="2.72273">
        <ele>132</ele>
        <time>2013-04-21T11:44:18Z</time>
      </trkpt>
      <trkpt lat="48.42003" lon="2.72272">
        <ele>133</ele>
        <time>2013-04-21T11:44:19Z</time>
      </trkpt>
      <trkpt lat="48.42002" lon="2.72271">
        <ele>133</ele>
        <time>2013-04-21T11:44:20Z</time>
      </trkpt>
      <trkpt lat="48.42001" lon="2.72269">
        <ele>133</ele>
        <time>2013-04-21T11:44:22Z</time>
      </trkpt>
      <trkpt lat="48.42001" lon="2.72268">
        <ele>133</ele>
        <time>2013-04-21T11:44:23Z</time>
      </trkpt>
      <trkpt lat="48.42001" lon="2.72267">
        <ele>134</ele>
        <time>2013-04-21T11:44:24Z</time>
      </trkpt>
      <trkpt lat="48.42001" lon="2.72267">
        <ele>134</ele>
        <time>2013-04-21T11:44:25Z</time>
      </trkpt>
      <trkpt lat="48.42001" lon="2.72266">
        <ele>134</ele>
        <time>2013-04-21T11:44:26Z</time>
      </trkpt>
      <trkpt lat="48.42" lon="2.72264">
        <ele>134</ele>
        <time>2013-04-21T11:44:28Z</time>
      </trkpt>
      <trkpt lat="48.42" lon="2.72263">
        <ele>135</ele>
        <time>2013-04-21T11:44:29Z</time>
      </trkpt>
      <trkpt lat="48.42" lon="2.72262">
        <ele>135</ele>
        <time>2013-04-21T11:44:30Z</time>
      </trkpt>
      <trkpt lat="48.42" lon="2.7226">
        <ele>135</ele>
        <time>2013-04-21T11:44:31Z</time>
      </trkpt>
      <trkpt lat="48.42" lon="2.72258">
        <ele>137</ele>
        <time>2013-04-21T11:44:32Z</time>
      </trkpt>
      <trkpt lat="48.41999" lon="2.72255">
        <ele>138</ele>
        <time>2013-04-21T11:44:34Z</time>
      </trkpt>
      <trkpt lat="48.41999" lon="2.72253">
        <ele>138</ele>
        <time>2013-04-21T11:44:35Z</time>
      </trkpt>
      <trkpt lat="48.41997" lon="2.72231">
        <ele>137</ele>
        <time>2013-04-21T11:44:40Z</time>
      </trkpt>
      <trkpt lat="48.41996" lon="2.72226">
        <ele>137</ele>
        <time>2013-04-21T11:44:41Z</time>
      </trkpt>
      <trkpt lat="48.41996" lon="2.72222">
        <ele>136</ele>
        <time>2013-04-21T11:44:42Z</time>
      </trkpt>
      <trkpt lat="48.41998" lon="2.72219">
        <ele>136</ele>
        <time>2013-04-21T11:44:43Z</time>
      </trkpt>
      <trkpt lat="48.42003" lon="2.72212">
        <ele>135</ele>
        <time>2013-04-21T11:44:45Z</time>
      </trkpt>
      <trkpt lat="48.42008" lon="2.72202">
        <ele>135</ele>
        <time>2013-04-21T11:44:48Z</time>
      </trkpt>
      <trkpt lat="48.42009" lon="2.72194">
        <ele>135</ele>
        <time>2013-04-21T11:44:50Z</time>
      </trkpt>
      <trkpt lat="48.42009" lon="2.7219">
        <ele>135</ele>
        <time>2013-04-21T11:44:51Z</time>
      </trkpt>
      <trkpt lat="48.42008" lon="2.72187">
        <ele>135</ele>
        <time>2013-04-21T11:44:52Z</time>
      </trkpt>
      <trkpt lat="48.42009" lon="2.72182">
        <ele>136</ele>
        <time>2013-04-21T11:44:53Z</time>
      </trkpt>
      <trkpt lat="48.4201" lon="2.72177">
        <ele>136</ele>
        <time>2013-04-21T11:44:54Z</time>
      </trkpt>
      <trkpt lat="48.42011" lon="2.72164">
        <ele>137</ele>
        <time>2013-04-21T11:44:56Z</time>
      </trkpt>
      <trkpt lat="48.42014" lon="2.72158">
        <ele>137</ele>
        <time>2013-04-21T11:44:58Z</time>
      </trkpt>
      <trkpt lat="48.42019" lon="2.72143">
        <ele>136</ele>
        <time>2013-04-21T11:45:03Z</time>
      </trkpt>
      <trkpt lat="48.42021" lon="2.7214">
        <ele>136</ele>
        <time>2013-04-21T11:45:04Z</time>
      </trkpt>
      <trkpt lat="48.42025" lon="2.72137">
        <ele>135</ele>
        <time>2013-04-21T11:45:06Z</time>
      </trkpt>
      <trkpt lat="48.42027" lon="2.72137">
        <ele>135</ele>
        <time>2013-04-21T11:45:07Z</time>
      </trkpt>
      <trkpt lat="48.42032" lon="2.72134">
        <ele>135</ele>
        <time>2013-04-21T11:45:09Z</time>
      </trkpt>
      <trkpt lat="48.42033" lon="2.72132">
        <ele>135</ele>
        <time>2013-04-21T11:45:10Z</time>
      </trkpt>
      <trkpt lat="48.42038" lon="2.72119">
        <ele>135</ele>
        <time>2013-04-21T11:45:14Z</time>
      </trkpt>
      <trkpt lat="48.42039" lon="2.7211">
        <ele>135</ele>
        <time>2013-04-21T11:45:16Z</time>
      </trkpt>
      <trkpt lat="48.4204" lon="2.72105">
        <ele>135</ele>
        <time>2013-04-21T11:45:17Z</time>
      </trkpt>
      <trkpt lat="48.42048" lon="2.72087">
        <ele>135</ele>
        <time>2013-04-21T11:45:20Z</time>
      </trkpt>
      <trkpt lat="48.42051" lon="2.72083">
        <ele>137</ele>
        <time>2013-04-21T11:45:21Z</time>
      </trkpt>
      <trkpt lat="48.42064" lon="2.72078">
        <ele>137</ele>
        <time>2013-04-21T11:45:24Z</time>
      </trkpt>
      <trkpt lat="48.42068" lon="2.72078">
        <ele>137</ele>
        <time>2013-04-21T11:45:25Z</time>
      </trkpt>
      <trkpt lat="48.42072" lon="2.7208">
        <ele>137</ele>
        <time>2013-04-21T11:45:26Z</time>
      </trkpt>
      <trkpt lat="48.42075" lon="2.72081">
        <ele>137</ele>
        <time>2013-04-21T11:45:27Z</time>
      </trkpt>
      <trkpt lat="48.42078" lon="2.72079">
        <ele>137</ele>
        <time>2013-04-21T11:45:28Z</time>
      </trkpt>
      <trkpt lat="48.4208" lon="2.72075">
        <ele>137</ele>
        <time>2013-04-21T11:45:29Z</time>
      </trkpt>
      <trkpt lat="48.42084" lon="2.72064">
        <ele>136</ele>
        <time>2013-04-21T11:45:31Z</time>
      </trkpt>
      <trkpt lat="48.42084" lon="2.72058">
        <ele>136</ele>
        <time>2013-04-21T11:45:32Z</time>
      </trkpt>
      <trkpt lat="48.42084" lon="2.72052">
        <ele>136</ele>
        <time>2013-04-21T11:45:33Z</time>
      </trkpt>
      <trkpt lat="48.42085" lon="2.72046">
        <ele>137</ele>
        <time>2013-04-21T11:45:34Z</time>
      </trkpt>
      <trkpt lat="48.42088" lon="2.72044">
        <ele>137</ele>
        <time>2013-04-21T11:45:35Z</time>
      </trkpt>
      <trkpt lat="48.42091" lon="2.72044">
        <ele>137</ele>
        <time>2013-04-21T11:45:36Z</time>
      </trkpt>
      <trkpt lat="48.42103" lon="2.72046">
        <ele>136</ele>
        <time>2013-04-21T11:45:40Z</time>
      </trkpt>
      <trkpt lat="48.42108" lon="2.72045">
        <ele>136</ele>
        <time>2013-04-21T11:45:42Z</time>
      </trkpt>
      <trkpt lat="48.42109" lon="2.72044">
        <ele>136</ele>
        <time>2013-04-21T11:45:43Z</time>
      </trkpt>
      <trkpt lat="48.42111" lon="2.72042">
        <ele>136</ele>
        <time>2013-04-21T11:45:45Z</time>
      </trkpt>
      <trkpt lat="48.42111" lon="2.72041">
        <ele>136</ele>
        <time>2013-04-21T11:45:46Z</time>
      </trkpt>
      <trkpt lat="48.42111" lon="2.7204">
        <ele>136</ele>
        <time>2013-04-21T11:45:47Z</time>
      </trkpt>
      <trkpt lat="48.4211" lon="2.72039">
        <ele>136</ele>
        <time>2013-04-21T11:45:48Z</time>
      </trkpt>
      <trkpt lat="48.42109" lon="2.72038">
        <ele>136</ele>
        <time>2013-04-21T11:45:49Z</time>
      </trkpt>
      <trkpt lat="48.42103" lon="2.72031">
        <ele>137</ele>
        <time>2013-04-21T11:45:53Z</time>
      </trkpt>
      <trkpt lat="48.42102" lon="2.72028">
        <ele>137</ele>
        <time>2013-04-21T11:45:54Z</time>
      </trkpt>
      <trkpt lat="48.42102" lon="2.72026">
        <ele>138</ele>
        <time>2013-04-21T11:45:55Z</time>
      </trkpt>
      <trkpt lat="48.42102" lon="2.72023">
        <ele>138</ele>
        <time>2013-04-21T11:45:56Z</time>
      </trkpt>
      <trkpt lat="48.42103" lon="2.72019">
        <ele>138</ele>
        <time>2013-04-21T11:45:57Z</time>
      </trkpt>
      <trkpt lat="48.4211" lon="2.71984">
        <ele>143</ele>
        <time>2013-04-21T11:46:05Z</time>
      </trkpt>
      <trkpt lat="48.42111" lon="2.71982">
        <ele>143</ele>
        <time>2013-04-21T11:46:06Z</time>
      </trkpt>
      <trkpt lat="48.42112" lon="2.71981">
        <ele>143</ele>
        <time>2013-04-21T11:46:07Z</time>
      </trkpt>
      <trkpt lat="48.42115" lon="2.71977">
        <ele>143</ele>
        <time>2013-04-21T11:46:09Z</time>
      </trkpt>
      <trkpt lat="48.42121" lon="2.71971">
        <ele>143</ele>
        <time>2013-04-21T11:46:12Z</time>
      </trkpt>
      <trkpt lat="48.42126" lon="2.71969">
        <ele>143</ele>
        <time>2013-04-21T11:46:14Z</time>
      </trkpt>
      <trkpt lat="48.42128" lon="2.71968">
        <ele>143</ele>
        <time>2013-04-21T11:46:15Z</time>
      </trkpt>
      <trkpt lat="48.42129" lon="2.71966">
        <ele>143</ele>
        <time>2013-04-21T11:46:16Z</time>
      </trkpt>
      <trkpt lat="48.4213" lon="2.71964">
        <ele>143</ele>
        <time>2013-04-21T11:46:17Z</time>
      </trkpt>
      <trkpt lat="48.42131" lon="2.71964">
        <ele>143</ele>
        <time>2013-04-21T11:46:18Z</time>
      </trkpt>
      <trkpt lat="48.42131" lon="2.71964">
        <ele>143</ele>
        <time>2013-04-21T11:46:19Z</time>
      </trkpt>
      <trkpt lat="48.42131" lon="2.71961">
        <ele>143</ele>
        <time>2013-04-21T11:46:22Z</time>
      </trkpt>
      <trkpt lat="48.42132" lon="2.7196">
        <ele>143</ele>
        <time>2013-04-21T11:46:23Z</time>
      </trkpt>
      <trkpt lat="48.42132" lon="2.71959">
        <ele>143</ele>
        <time>2013-04-21T11:46:24Z</time>
      </trkpt>
      <trkpt lat="48.42133" lon="2.71959">
        <ele>143</ele>
        <time>2013-04-21T11:46:25Z</time>
      </trkpt>
      <trkpt lat="48.42133" lon="2.71958">
        <ele>143</ele>
        <time>2013-04-21T11:46:26Z</time>
      </trkpt>
      <trkpt lat="48.42134" lon="2.71956">
        <ele>143</ele>
        <time>2013-04-21T11:46:27Z</time>
      </trkpt>
      <trkpt lat="48.42134" lon="2.71955">
        <ele>143</ele>
        <time>2013-04-21T11:46:28Z</time>
      </trkpt>
      <trkpt lat="48.42134" lon="2.71954">
        <ele>143</ele>
        <time>2013-04-21T11:46:29Z</time>
      </trkpt>
      <trkpt lat="48.42133" lon="2.71953">
        <ele>143</ele>
        <time>2013-04-21T11:46:31Z</time>
      </trkpt>
      <trkpt lat="48.42133" lon="2.71952">
        <ele>143</ele>
        <time>2013-04-21T11:46:32Z</time>
      </trkpt>
      <trkpt lat="48.42133" lon="2.71952">
        <ele>143</ele>
        <time>2013-04-21T11:46:33Z</time>
      </trkpt>
      <trkpt lat="48.42133" lon="2.71952">
        <ele>143</ele>
        <time>2013-04-21T11:46:34Z</time>
      </trkpt>
      <trkpt lat="48.42133" lon="2.71952">
        <ele>143</ele>
        <time>2013-04-21T11:46:35Z</time>
      </trkpt>
      <trkpt lat="48.42133" lon="2.71951">
        <ele>143</ele>
        <time>2013-04-21T11:46:36Z</time>
      </trkpt>
      <trkpt lat="48.42133" lon="2.71951">
        <ele>143</ele>
        <time>2013-04-21T11:46:37Z</time>
      </trkpt>
      <trkpt lat="48.42133" lon="2.7195">
        <ele>143</ele>
        <time>2013-04-21T11:46:38Z</time>
      </trkpt>
      <trkpt lat="48.42133" lon="2.7195">
        <ele>143</ele>
        <time>2013-04-21T11:46:39Z</time>
      </trkpt>
      <trkpt lat="48.42133" lon="2.71949">
        <ele>143</ele>
        <time>2013-04-21T11:46:40Z</time>
      </trkpt>
      <trkpt lat="48.42133" lon="2.71948">
        <ele>144</ele>
        <time>2013-04-21T11:46:42Z</time>
      </trkpt>
      <trkpt lat="48.42136" lon="2.71944">
        <ele>144</ele>
        <time>2013-04-21T11:46:45Z</time>
      </trkpt>
      <trkpt lat="48.42137" lon="2.71942">
        <ele>144</ele>
        <time>2013-04-21T11:46:46Z</time>
      </trkpt>
      <trkpt lat="48.42138" lon="2.71941">
        <ele>144</ele>
        <time>2013-04-21T11:46:47Z</time>
      </trkpt>
      <trkpt lat="48.42139" lon="2.7194">
        <ele>144</ele>
        <time>2013-04-21T11:46:48Z</time>
      </trkpt>
      <trkpt lat="48.42142" lon="2.71938">
        <ele>144</ele>
        <time>2013-04-21T11:46:50Z</time>
      </trkpt>
      <trkpt lat="48.42144" lon="2.71936">
        <ele>144</ele>
        <time>2013-04-21T11:46:51Z</time>
      </trkpt>
      <trkpt lat="48.42145" lon="2.71934">
        <ele>144</ele>
        <time>2013-04-21T11:46:52Z</time>
      </trkpt>
      <trkpt lat="48.42146" lon="2.71932">
        <ele>144</ele>
        <time>2013-04-21T11:46:53Z</time>
      </trkpt>
      <trkpt lat="48.42147" lon="2.71922">
        <ele>144</ele>
        <time>2013-04-21T11:46:56Z</time>
      </trkpt>
      <trkpt lat="48.42148" lon="2.71903">
        <ele>147</ele>
        <time>2013-04-21T11:47:01Z</time>
      </trkpt>
      <trkpt lat="48.42149" lon="2.71888">
        <ele>147</ele>
        <time>2013-04-21T11:47:05Z</time>
      </trkpt>
      <trkpt lat="48.42152" lon="2.71871">
        <ele>148</ele>
        <time>2013-04-21T11:47:09Z</time>
      </trkpt>
      <trkpt lat="48.42153" lon="2.71869">
        <ele>148</ele>
        <time>2013-04-21T11:47:10Z</time>
      </trkpt>
      <trkpt lat="48.42155" lon="2.71867">
        <ele>148</ele>
        <time>2013-04-21T11:47:11Z</time>
      </trkpt>
      <trkpt lat="48.42159" lon="2.71867">
        <ele>148</ele>
        <time>2013-04-21T11:47:14Z</time>
      </trkpt>
      <trkpt lat="48.42161" lon="2.71865">
        <ele>148</ele>
        <time>2013-04-21T11:47:15Z</time>
      </trkpt>
      <trkpt lat="48.42162" lon="2.71864">
        <ele>148</ele>
        <time>2013-04-21T11:47:16Z</time>
      </trkpt>
      <trkpt lat="48.42163" lon="2.71862">
        <ele>148</ele>
        <time>2013-04-21T11:47:17Z</time>
      </trkpt>
      <trkpt lat="48.42163" lon="2.71861">
        <ele>148</ele>
        <time>2013-04-21T11:47:18Z</time>
      </trkpt>
      <trkpt lat="48.42164" lon="2.7186">
        <ele>148</ele>
        <time>2013-04-21T11:47:20Z</time>
      </trkpt>
      <trkpt lat="48.42164" lon="2.71856">
        <ele>149</ele>
        <time>2013-04-21T11:47:23Z</time>
      </trkpt>
      <trkpt lat="48.42164" lon="2.71855">
        <ele>149</ele>
        <time>2013-04-21T11:47:24Z</time>
      </trkpt>
      <trkpt lat="48.42165" lon="2.71855">
        <ele>149</ele>
        <time>2013-04-21T11:47:25Z</time>
      </trkpt>
      <trkpt lat="48.42166" lon="2.71854">
        <ele>149</ele>
        <time>2013-04-21T11:47:26Z</time>
      </trkpt>
      <trkpt lat="48.42167" lon="2.71854">
        <ele>149</ele>
        <time>2013-04-21T11:47:27Z</time>
      </trkpt>
      <trkpt lat="48.42167" lon="2.71853">
        <ele>149</ele>
        <time>2013-04-21T11:47:28Z</time>
      </trkpt>
      <trkpt lat="48.42168" lon="2.71853">
        <ele>149</ele>
        <time>2013-04-21T11:47:29Z</time>
      </trkpt>
      <trkpt lat="48.42168" lon="2.71852">
        <ele>149</ele>
        <time>2013-04-21T11:47:30Z</time>
      </trkpt>
      <trkpt lat="48.42168" lon="2.71852">
        <ele>149</ele>
        <time>2013-04-21T11:47:31Z</time>
      </trkpt>
      <trkpt lat="48.42168" lon="2.71852">
        <ele>149</ele>
        <time>2013-04-21T11:47:32Z</time>
      </trkpt>
      <trkpt lat="48.42168" lon="2.71852">
        <ele>149</ele>
        <time>2013-04-21T11:47:33Z</time>
      </trkpt>
      <trkpt lat="48.42169" lon="2.71852">
        <ele>149</ele>
        <time>2013-04-21T11:47:34Z</time>
      </trkpt>
      <trkpt lat="48.42169" lon="2.71852">
        <ele>149</ele>
        <time>2013-04-21T11:47:35Z</time>
      </trkpt>
      <trkpt lat="48.4217" lon="2.71853">
        <ele>149</ele>
        <time>2013-04-21T11:47:36Z</time>
      </trkpt>
      <trkpt lat="48.42171" lon="2.71854">
        <ele>149</ele>
        <time>2013-04-21T11:47:37Z</time>
      </trkpt>
      <trkpt lat="48.42174" lon="2.71858">
        <ele>148</ele>
        <time>2013-04-21T11:47:40Z</time>
      </trkpt>
      <trkpt lat="48.42175" lon="2.7186">
        <ele>148</ele>
        <time>2013-04-21T11:47:41Z</time>
      </trkpt>
      <trkpt lat="48.42177" lon="2.71865">
        <ele>148</ele>
        <time>2013-04-21T11:47:43Z</time>
      </trkpt>
      <trkpt lat="48.42187" lon="2.71876">
        <ele>147</ele>
        <time>2013-04-21T11:47:48Z</time>
      </trkpt>
      <trkpt lat="48.42201" lon="2.71884">
        <ele>147</ele>
        <time>2013-04-21T11:47:53Z</time>
      </trkpt>
      <trkpt lat="48.42209" lon="2.71885">
        <ele>147</ele>
        <time>2013-04-21T11:47:55Z</time>
      </trkpt>
      <trkpt lat="48.42212" lon="2.71889">
        <ele>146</ele>
        <time>2013-04-21T11:47:56Z</time>
      </trkpt>
      <trkpt lat="48.42213" lon="2.71893">
        <ele>146</ele>
        <time>2013-04-21T11:47:57Z</time>
      </trkpt>
      <trkpt lat="48.42215" lon="2.71898">
        <ele>146</ele>
        <time>2013-04-21T11:47:59Z</time>
      </trkpt>
      <trkpt lat="48.42217" lon="2.71901">
        <ele>146</ele>
        <time>2013-04-21T11:48:00Z</time>
      </trkpt>
      <trkpt lat="48.42232" lon="2.71913">
        <ele>145</ele>
        <time>2013-04-21T11:48:05Z</time>
      </trkpt>
      <trkpt lat="48.42236" lon="2.71915">
        <ele>145</ele>
        <time>2013-04-21T11:48:06Z</time>
      </trkpt>
      <trkpt lat="48.42241" lon="2.71915">
        <ele>145</ele>
        <time>2013-04-21T11:48:08Z</time>
      </trkpt>
      <trkpt lat="48.4225" lon="2.71913">
        <ele>144</ele>
        <time>2013-04-21T11:48:11Z</time>
      </trkpt>
      <trkpt lat="48.42263" lon="2.71904">
        <ele>144</ele>
        <time>2013-04-21T11:48:16Z</time>
      </trkpt>
      <trkpt lat="48.42264" lon="2.719">
        <ele>144</ele>
        <time>2013-04-21T11:48:17Z</time>
      </trkpt>
      <trkpt lat="48.42265" lon="2.71897">
        <ele>144</ele>
        <time>2013-04-21T11:48:18Z</time>
      </trkpt>
      <trkpt lat="48.42266" lon="2.7189">
        <ele>144</ele>
        <time>2013-04-21T11:48:20Z</time>
      </trkpt>
      <trkpt lat="48.42268" lon="2.71886">
        <ele>144</ele>
        <time>2013-04-21T11:48:21Z</time>
      </trkpt>
      <trkpt lat="48.4227" lon="2.71885">
        <ele>144</ele>
        <time>2013-04-21T11:48:22Z</time>
      </trkpt>
      <trkpt lat="48.42295" lon="2.71888">
        <ele>144</ele>
        <time>2013-04-21T11:48:29Z</time>
      </trkpt>
      <trkpt lat="48.42298" lon="2.7189">
        <ele>144</ele>
        <time>2013-04-21T11:48:30Z</time>
      </trkpt>
      <trkpt lat="48.42312" lon="2.71899">
        <ele>143</ele>
        <time>2013-04-21T11:48:34Z</time>
      </trkpt>
      <trkpt lat="48.42331" lon="2.71906">
        <ele>142</ele>
        <time>2013-04-21T11:48:40Z</time>
      </trkpt>
      <trkpt lat="48.42335" lon="2.71908">
        <ele>143</ele>
        <time>2013-04-21T11:48:41Z</time>
      </trkpt>
      <trkpt lat="48.42337" lon="2.71911">
        <ele>142</ele>
        <time>2013-04-21T11:48:42Z</time>
      </trkpt>
      <trkpt lat="48.42339" lon="2.71914">
        <ele>142</ele>
        <time>2013-04-21T11:48:43Z</time>
      </trkpt>
      <trkpt lat="48.42344" lon="2.71929">
        <ele>140</ele>
        <time>2013-04-21T11:48:47Z</time>
      </trkpt>
      <trkpt lat="48.42346" lon="2.71931">
        <ele>140</ele>
        <time>2013-04-21T11:48:48Z</time>
      </trkpt>
      <trkpt lat="48.42348" lon="2.71933">
        <ele>140</ele>
        <time>2013-04-21T11:48:49Z</time>
      </trkpt>
      <trkpt lat="48.42351" lon="2.71932">
        <ele>140</ele>
        <time>2013-04-21T11:48:50Z</time>
      </trkpt>
      <trkpt lat="48.42356" lon="2.71929">
        <ele>140</ele>
        <time>2013-04-21T11:48:52Z</time>
      </trkpt>
      <trkpt lat="48.42358" lon="2.71927">
        <ele>140</ele>
        <time>2013-04-21T11:48:53Z</time>
      </trkpt>
      <trkpt lat="48.42362" lon="2.71927">
        <ele>140</ele>
        <time>2013-04-21T11:48:54Z</time>
      </trkpt>
      <trkpt lat="48.42365" lon="2.71929">
        <ele>140</ele>
        <time>2013-04-21T11:48:55Z</time>
      </trkpt>
      <trkpt lat="48.42367" lon="2.71932">
        <ele>140</ele>
        <time>2013-04-21T11:48:56Z</time>
      </trkpt>
      <trkpt lat="48.42369" lon="2.71934">
        <ele>140</ele>
        <time>2013-04-21T11:48:57Z</time>
      </trkpt>
      <trkpt lat="48.42375" lon="2.7194">
        <ele>140</ele>
        <time>2013-04-21T11:49:00Z</time>
      </trkpt>
      <trkpt lat="48.42377" lon="2.71943">
        <ele>140</ele>
        <time>2013-04-21T11:49:01Z</time>
      </trkpt>
      <trkpt lat="48.42381" lon="2.7195">
        <ele>140</ele>
        <time>2013-04-21T11:49:03Z</time>
      </trkpt>
      <trkpt lat="48.42382" lon="2.71952">
        <ele>140</ele>
        <time>2013-04-21T11:49:04Z</time>
      </trkpt>
      <trkpt lat="48.42403" lon="2.71965">
        <ele>140</ele>
        <time>2013-04-21T11:49:10Z</time>
      </trkpt>
      <trkpt lat="48.42407" lon="2.71966">
        <ele>140</ele>
        <time>2013-04-21T11:49:11Z</time>
      </trkpt>
      <trkpt lat="48.42412" lon="2.71968">
        <ele>140</ele>
        <time>2013-04-21T11:49:13Z</time>
      </trkpt>
      <trkpt lat="48.42421" lon="2.71966">
        <ele>144</ele>
        <time>2013-04-21T11:49:16Z</time>
      </trkpt>
      <trkpt lat="48.42424" lon="2.7197">
        <ele>144</ele>
        <time>2013-04-21T11:49:17Z</time>
      </trkpt>
      <trkpt lat="48.42424" lon="2.71982">
        <ele>143</ele>
        <time>2013-04-21T11:49:19Z</time>
      </trkpt>
      <trkpt lat="48.4243" lon="2.72002">
        <ele>140</ele>
        <time>2013-04-21T11:49:22Z</time>
      </trkpt>
      <trkpt lat="48.42432" lon="2.72008">
        <ele>140</ele>
        <time>2013-04-21T11:49:23Z</time>
      </trkpt>
      <trkpt lat="48.42434" lon="2.72014">
        <ele>139</ele>
        <time>2013-04-21T11:49:24Z</time>
      </trkpt>
      <trkpt lat="48.42435" lon="2.72026">
        <ele>139</ele>
        <time>2013-04-21T11:49:26Z</time>
      </trkpt>
      <trkpt lat="48.42434" lon="2.72037">
        <ele>138</ele>
        <time>2013-04-21T11:49:28Z</time>
      </trkpt>
      <trkpt lat="48.42435" lon="2.72042">
        <ele>138</ele>
        <time>2013-04-21T11:49:29Z</time>
      </trkpt>
      <trkpt lat="48.42446" lon="2.72066">
        <ele>137</ele>
        <time>2013-04-21T11:49:33Z</time>
      </trkpt>
      <trkpt lat="48.42448" lon="2.72073">
        <ele>137</ele>
        <time>2013-04-21T11:49:34Z</time>
      </trkpt>
      <trkpt lat="48.42461" lon="2.72123">
        <ele>132</ele>
        <time>2013-04-21T11:49:41Z</time>
      </trkpt>
      <trkpt lat="48.42463" lon="2.72125">
        <ele>132</ele>
        <time>2013-04-21T11:49:42Z</time>
      </trkpt>
      <trkpt lat="48.42466" lon="2.72128">
        <ele>132</ele>
        <time>2013-04-21T11:49:44Z</time>
      </trkpt>
      <trkpt lat="48.42491" lon="2.7212">
        <ele>133</ele>
        <time>2013-04-21T11:49:52Z</time>
      </trkpt>
      <trkpt lat="48.42494" lon="2.72117">
        <ele>134</ele>
        <time>2013-04-21T11:49:53Z</time>
      </trkpt>
      <trkpt lat="48.42498" lon="2.72115">
        <ele>134</ele>
        <time>2013-04-21T11:49:54Z</time>
      </trkpt>
      <trkpt lat="48.42502" lon="2.72115">
        <ele>136</ele>
        <time>2013-04-21T11:49:55Z</time>
      </trkpt>
      <trkpt lat="48.42517" lon="2.72122">
        <ele>135</ele>
        <time>2013-04-21T11:50:01Z</time>
      </trkpt>
      <trkpt lat="48.42519" lon="2.72121">
        <ele>135</ele>
        <time>2013-04-21T11:50:02Z</time>
      </trkpt>
      <trkpt lat="48.42523" lon="2.7212">
        <ele>135</ele>
        <time>2013-04-21T11:50:08Z</time>
      </trkpt>
      <trkpt lat="48.42523" lon="2.7212">
        <ele>135</ele>
        <time>2013-04-21T11:50:09Z</time>
      </trkpt>
      <trkpt lat="48.42523" lon="2.7212">
        <ele>135</ele>
        <time>2013-04-21T11:50:10Z</time>
      </trkpt>
      <trkpt lat="48.42524" lon="2.72119">
        <ele>135</ele>
        <time>2013-04-21T11:50:11Z</time>
      </trkpt>
      <trkpt lat="48.42524" lon="2.72119">
        <ele>135</ele>
        <time>2013-04-21T11:50:12Z</time>
      </trkpt>
      <trkpt lat="48.42525" lon="2.72118">
        <ele>135</ele>
        <time>2013-04-21T11:50:14Z</time>
      </trkpt>
      <trkpt lat="48.42526" lon="2.72117">
        <ele>135</ele>
        <time>2013-04-21T11:50:15Z</time>
      </trkpt>
      <trkpt lat="48.42528" lon="2.72115">
        <ele>135</ele>
        <time>2013-04-21T11:50:17Z</time>
      </trkpt>
      <trkpt lat="48.42536" lon="2.72102">
        <ele>136</ele>
        <time>2013-04-21T11:50:22Z</time>
      </trkpt>
      <trkpt lat="48.42538" lon="2.72101">
        <ele>136</ele>
        <time>2013-04-21T11:50:23Z</time>
      </trkpt>
      <trkpt lat="48.42539" lon="2.72099">
        <ele>136</ele>
        <time>2013-04-21T11:50:24Z</time>
      </trkpt>
      <trkpt lat="48.42541" lon="2.72095">
        <ele>136</ele>
        <time>2013-04-21T11:50:26Z</time>
      </trkpt>
      <trkpt lat="48.42542" lon="2.72088">
        <ele>136</ele>
        <time>2013-04-21T11:50:29Z</time>
      </trkpt>
      <trkpt lat="48.42545" lon="2.72083">
        <ele>141</ele>
        <time>2013-04-21T11:50:31Z</time>
      </trkpt>
      <trkpt lat="48.42547" lon="2.72079">
        <ele>141</ele>
        <time>2013-04-21T11:50:32Z</time>
      </trkpt>
      <trkpt lat="48.42549" lon="2.72076">
        <ele>141</ele>
        <time>2013-04-21T11:50:33Z</time>
      </trkpt>
      <trkpt lat="48.42551" lon="2.72075">
        <ele>141</ele>
        <time>2013-04-21T11:50:34Z</time>
      </trkpt>
      <trkpt lat="48.42553" lon="2.72074">
        <ele>141</ele>
        <time>2013-04-21T11:50:35Z</time>
      </trkpt>
      <trkpt lat="48.42555" lon="2.72074">
        <ele>141</ele>
        <time>2013-04-21T11:50:41Z</time>
      </trkpt>
      <trkpt lat="48.42555" lon="2.72073">
        <ele>141</ele>
        <time>2013-04-21T11:50:42Z</time>
      </trkpt>
      <trkpt lat="48.42555" lon="2.72073">
        <ele>141</ele>
        <time>2013-04-21T11:50:43Z</time>
      </trkpt>
      <trkpt lat="48.42555" lon="2.72073">
        <ele>141</ele>
        <time>2013-04-21T11:50:44Z</time>
      </trkpt>
      <trkpt lat="48.42555" lon="2.72073">
        <ele>141</ele>
        <time>2013-04-21T11:50:45Z</time>
      </trkpt>
      <trkpt lat="48.42556" lon="2.72073">
        <ele>141</ele>
        <time>2013-04-21T11:50:46Z</time>
      </trkpt>
      <trkpt lat="48.42556" lon="2.72073">
        <ele>141</ele>
        <time>2013-04-21T11:50:47Z</time>
      </trkpt>
      <trkpt lat="48.42556" lon="2.72072">
        <ele>141</ele>
        <time>2013-04-21T11:50:48Z</time>
      </trkpt>
      <trkpt lat="48.42556" lon="2.72072">
        <ele>141</ele>
        <time>2013-04-21T11:50:50Z</time>
      </trkpt>
      <trkpt lat="48.42557" lon="2.72072">
        <ele>141</ele>
        <time>2013-04-21T11:50:53Z</time>
      </trkpt>
      <trkpt lat="48.42557" lon="2.72072">
        <ele>141</ele>
        <time>2013-04-21T11:50:54Z</time>
      </trkpt>
      <trkpt lat="48.42557" lon="2.72072">
        <ele>141</ele>
        <time>2013-04-21T11:50:55Z</time>
      </trkpt>
      <trkpt lat="48.42558" lon="2.72072">
        <ele>141</ele>
        <time>2013-04-21T11:50:57Z</time>
      </trkpt>
      <trkpt lat="48.42558" lon="2.72071">
        <ele>141</ele>
        <time>2013-04-21T11:50:59Z</time>
      </trkpt>
      <trkpt lat="48.42558" lon="2.72071">
        <ele>141</ele>
        <time>2013-04-21T11:51:00Z</time>
      </trkpt>
      <trkpt lat="48.42558" lon="2.72071">
        <ele>141</ele>
        <time>2013-04-21T11:51:02Z</time>
      </trkpt>
      <trkpt lat="48.42559" lon="2.72071">
        <ele>141</ele>
        <time>2013-04-21T11:51:03Z</time>
      </trkpt>
      <trkpt lat="48.42559" lon="2.72071">
        <ele>141</ele>
        <time>2013-04-21T11:51:04Z</time>
      </trkpt>
      <trkpt lat="48.42559" lon="2.72071">
        <ele>141</ele>
        <time>2013-04-21T11:51:06Z</time>
      </trkpt>
      <trkpt lat="48.42559" lon="2.7207">
        <ele>141</ele>
        <time>2013-04-21T11:51:07Z</time>
      </trkpt>
      <trkpt lat="48.4256" lon="2.7207">
        <ele>141</ele>
        <time>2013-04-21T11:51:08Z</time>
      </trkpt>
      <trkpt lat="48.4256" lon="2.7207">
        <ele>141</ele>
        <time>2013-04-21T11:51:09Z</time>
      </trkpt>
      <trkpt lat="48.4256" lon="2.7207">
        <ele>141</ele>
        <time>2013-04-21T11:51:11Z</time>
      </trkpt>
      <trkpt lat="48.4256" lon="2.7207">
        <ele>141</ele>
        <time>2013-04-21T11:51:12Z</time>
      </trkpt>
      <trkpt lat="48.42561" lon="2.7207">
        <ele>141</ele>
        <time>2013-04-21T11:51:14Z</time>
      </trkpt>
      <trkpt lat="48.42561" lon="2.72069">
        <ele>141</ele>
        <time>2013-04-21T11:51:15Z</time>
      </trkpt>
      <trkpt lat="48.42561" lon="2.72069">
        <ele>141</ele>
        <time>2013-04-21T11:51:17Z</time>
      </trkpt>
      <trkpt lat="48.42561" lon="2.72069">
        <ele>141</ele>
        <time>2013-04-21T11:51:18Z</time>
      </trkpt>
      <trkpt lat="48.42561" lon="2.72069">
        <ele>141</ele>
        <time>2013-04-21T11:51:19Z</time>
      </trkpt>
      <trkpt lat="48.42561" lon="2.72069">
        <ele>141</ele>
        <time>2013-04-21T11:51:20Z</time>
      </trkpt>
      <trkpt lat="48.42562" lon="2.72069">
        <ele>141</ele>
        <time>2013-04-21T11:51:21Z</time>
      </trkpt>
      <trkpt lat="48.42562" lon="2.72068">
        <ele>141</ele>
        <time>2013-04-21T11:51:23Z</time>
      </trkpt>
      <trkpt lat="48.42562" lon="2.72068">
        <ele>141</ele>
        <time>2013-04-21T11:51:24Z</time>
      </trkpt>
      <trkpt lat="48.42562" lon="2.72068">
        <ele>141</ele>
        <time>2013-04-21T11:51:25Z</time>
      </trkpt>
      <trkpt lat="48.42562" lon="2.72068">
        <ele>141</ele>
        <time>2013-04-21T11:51:27Z</time>
      </trkpt>
      <trkpt lat="48.42562" lon="2.72068">
        <ele>141</ele>
        <time>2013-04-21T11:51:28Z</time>
      </trkpt>
      <trkpt lat="48.42563" lon="2.72067">
        <ele>141</ele>
        <time>2013-04-21T11:51:30Z</time>
      </trkpt>
      <trkpt lat="48.42564" lon="2.72064">
        <ele>141</ele>
        <time>2013-04-21T11:51:32Z</time>
      </trkpt>
      <trkpt lat="48.42565" lon="2.72063">
        <ele>141</ele>
        <time>2013-04-21T11:51:33Z</time>
      </trkpt>
      <trkpt lat="48.42566" lon="2.72064">
        <ele>141</ele>
        <time>2013-04-21T11:51:35Z</time>
      </trkpt>
      <trkpt lat="48.42567" lon="2.72065">
        <ele>141</ele>
        <time>2013-04-21T11:51:36Z</time>
      </trkpt>
      <trkpt lat="48.42567" lon="2.72066">
        <ele>141</ele>
        <time>2013-04-21T11:51:37Z</time>
      </trkpt>
      <trkpt lat="48.42567" lon="2.72067">
        <ele>141</ele>
        <time>2013-04-21T11:51:38Z</time>
      </trkpt>
      <trkpt lat="48.42566" lon="2.72068">
        <ele>141</ele>
        <time>2013-04-21T11:51:39Z</time>
      </trkpt>
      <trkpt lat="48.42566" lon="2.72069">
        <ele>141</ele>
        <time>2013-04-21T11:51:40Z</time>
      </trkpt>
      <trkpt lat="48.42565" lon="2.72073">
        <ele>140</ele>
        <time>2013-04-21T11:51:42Z</time>
      </trkpt>
      <trkpt lat="48.42566" lon="2.72076">
        <ele>140</ele>
        <time>2013-04-21T11:51:43Z</time>
      </trkpt>
      <trkpt lat="48.42566" lon="2.72079">
        <ele>140</ele>
        <time>2013-04-21T11:51:44Z</time>
      </trkpt>
      <trkpt lat="48.42568" lon="2.72081">
        <ele>140</ele>
        <time>2013-04-21T11:51:45Z</time>
      </trkpt>
      <trkpt lat="48.42576" lon="2.72083">
        <ele>139</ele>
        <time>2013-04-21T11:51:48Z</time>
      </trkpt>
      <trkpt lat="48.42588" lon="2.72082">
        <ele>139</ele>
        <time>2013-04-21T11:51:51Z</time>
      </trkpt>
      <trkpt lat="48.42592" lon="2.72082">
        <ele>139</ele>
        <time>2013-04-21T11:51:53Z</time>
      </trkpt>
      <trkpt lat="48.42594" lon="2.72082">
        <ele>140</ele>
        <time>2013-04-21T11:51:54Z</time>
      </trkpt>
      <trkpt lat="48.42596" lon="2.72083">
        <ele>140</ele>
        <time>2013-04-21T11:51:55Z</time>
      </trkpt>
      <trkpt lat="48.42608" lon="2.72095">
        <ele>136</ele>
        <time>2013-04-21T11:51:59Z</time>
      </trkpt>
      <trkpt lat="48.42611" lon="2.72096">
        <ele>136</ele>
        <time>2013-04-21T11:52:00Z</time>
      </trkpt>
      <trkpt lat="48.42613" lon="2.72095">
        <ele>136</ele>
        <time>2013-04-21T11:52:01Z</time>
      </trkpt>
      <trkpt lat="48.4262" lon="2.7209">
        <ele>136</ele>
        <time>2013-04-21T11:52:04Z</time>
      </trkpt>
      <trkpt lat="48.42625" lon="2.72085">
        <ele>136</ele>
        <time>2013-04-21T11:52:06Z</time>
      </trkpt>
      <trkpt lat="48.42627" lon="2.72082">
        <ele>141</ele>
        <time>2013-04-21T11:52:07Z</time>
      </trkpt>
      <trkpt lat="48.42635" lon="2.72061">
        <ele>142</ele>
        <time>2013-04-21T11:52:11Z</time>
      </trkpt>
      <trkpt lat="48.42636" lon="2.72052">
        <ele>142</ele>
        <time>2013-04-21T11:52:13Z</time>
      </trkpt>
      <trkpt lat="48.42638" lon="2.72049">
        <ele>143</ele>
        <time>2013-04-21T11:52:14Z</time>
      </trkpt>
      <trkpt lat="48.42639" lon="2.72046">
        <ele>143</ele>
        <time>2013-04-21T11:52:18Z</time>
      </trkpt>
      <trkpt lat="48.4264" lon="2.72046">
        <ele>143</ele>
        <time>2013-04-21T11:52:19Z</time>
      </trkpt>
      <trkpt lat="48.4264" lon="2.72045">
        <ele>143</ele>
        <time>2013-04-21T11:52:20Z</time>
      </trkpt>
      <trkpt lat="48.4264" lon="2.72045">
        <ele>143</ele>
        <time>2013-04-21T11:52:21Z</time>
      </trkpt>
      <trkpt lat="48.4264" lon="2.72044">
        <ele>143</ele>
        <time>2013-04-21T11:52:22Z</time>
      </trkpt>
      <trkpt lat="48.4264" lon="2.72044">
        <ele>143</ele>
        <time>2013-04-21T11:52:23Z</time>
      </trkpt>
      <trkpt lat="48.42641" lon="2.72041">
        <ele>143</ele>
        <time>2013-04-21T11:52:26Z</time>
      </trkpt>
      <trkpt lat="48.42645" lon="2.72037">
        <ele>143</ele>
        <time>2013-04-21T11:52:29Z</time>
      </trkpt>
      <trkpt lat="48.42645" lon="2.72034">
        <ele>143</ele>
        <time>2013-04-21T11:52:30Z</time>
      </trkpt>
      <trkpt lat="48.42646" lon="2.72031">
        <ele>143</ele>
        <time>2013-04-21T11:52:31Z</time>
      </trkpt>
      <trkpt lat="48.42645" lon="2.72029">
        <ele>144</ele>
        <time>2013-04-21T11:52:32Z</time>
      </trkpt>
      <trkpt lat="48.42645" lon="2.72028">
        <ele>144</ele>
        <time>2013-04-21T11:52:33Z</time>
      </trkpt>
      <trkpt lat="48.42645" lon="2.72026">
        <ele>144</ele>
        <time>2013-04-21T11:52:34Z</time>
      </trkpt>
      <trkpt lat="48.42646" lon="2.72024">
        <ele>144</ele>
        <time>2013-04-21T11:52:35Z</time>
      </trkpt>
      <trkpt lat="48.42649" lon="2.72022">
        <ele>144</ele>
        <time>2013-04-21T11:52:37Z</time>
      </trkpt>
      <trkpt lat="48.4265" lon="2.7202">
        <ele>144</ele>
        <time>2013-04-21T11:52:38Z</time>
      </trkpt>
      <trkpt lat="48.42652" lon="2.72013">
        <ele>145</ele>
        <time>2013-04-21T11:52:41Z</time>
      </trkpt>
      <trkpt lat="48.42653" lon="2.7201">
        <ele>145</ele>
        <time>2013-04-21T11:52:42Z</time>
      </trkpt>
      <trkpt lat="48.42654" lon="2.72008">
        <ele>145</ele>
        <time>2013-04-21T11:52:43Z</time>
      </trkpt>
      <trkpt lat="48.42654" lon="2.72005">
        <ele>145</ele>
        <time>2013-04-21T11:52:45Z</time>
      </trkpt>
      <trkpt lat="48.42655" lon="2.72">
        <ele>145</ele>
        <time>2013-04-21T11:52:53Z</time>
      </trkpt>
      <trkpt lat="48.42655" lon="2.72">
        <ele>148</ele>
        <time>2013-04-21T11:52:54Z</time>
      </trkpt>
      <trkpt lat="48.42655" lon="2.71998">
        <ele>148</ele>
        <time>2013-04-21T11:52:56Z</time>
      </trkpt>
      <trkpt lat="48.42656" lon="2.71997">
        <ele>148</ele>
        <time>2013-04-21T11:52:58Z</time>
      </trkpt>
      <trkpt lat="48.42656" lon="2.71997">
        <ele>148</ele>
        <time>2013-04-21T11:52:59Z</time>
      </trkpt>
      <trkpt lat="48.42656" lon="2.71996">
        <ele>148</ele>
        <time>2013-04-21T11:53:00Z</time>
      </trkpt>
      <trkpt lat="48.42656" lon="2.71996">
        <ele>148</ele>
        <time>2013-04-21T11:53:01Z</time>
      </trkpt>
      <trkpt lat="48.42656" lon="2.71995">
        <ele>148</ele>
        <time>2013-04-21T11:53:02Z</time>
      </trkpt>
      <trkpt lat="48.42657" lon="2.71994">
        <ele>148</ele>
        <time>2013-04-21T11:53:03Z</time>
      </trkpt>
      <trkpt lat="48.42657" lon="2.71993">
        <ele>148</ele>
        <time>2013-04-21T11:53:04Z</time>
      </trkpt>
      <trkpt lat="48.42657" lon="2.71991">
        <ele>148</ele>
        <time>2013-04-21T11:53:05Z</time>
      </trkpt>
      <trkpt lat="48.42658" lon="2.71989">
        <ele>148</ele>
        <time>2013-04-21T11:53:06Z</time>
      </trkpt>
      <trkpt lat="48.42659" lon="2.71987">
        <ele>148</ele>
        <time>2013-04-21T11:53:07Z</time>
      </trkpt>
      <trkpt lat="48.4266" lon="2.71986">
        <ele>148</ele>
        <time>2013-04-21T11:53:08Z</time>
      </trkpt>
      <trkpt lat="48.42661" lon="2.71985">
        <ele>148</ele>
        <time>2013-04-21T11:53:09Z</time>
      </trkpt>
      <trkpt lat="48.42664" lon="2.71984">
        <ele>148</ele>
        <time>2013-04-21T11:53:11Z</time>
      </trkpt>
      <trkpt lat="48.42668" lon="2.71985">
        <ele>147</ele>
        <time>2013-04-21T11:53:14Z</time>
      </trkpt>
      <trkpt lat="48.42669" lon="2.71986">
        <ele>147</ele>
        <time>2013-04-21T11:53:15Z</time>
      </trkpt>
      <trkpt lat="48.4267" lon="2.71986">
        <ele>147</ele>
        <time>2013-04-21T11:53:16Z</time>
      </trkpt>
      <trkpt lat="48.42672" lon="2.71987">
        <ele>147</ele>
        <time>2013-04-21T11:53:17Z</time>
      </trkpt>
      <trkpt lat="48.42673" lon="2.71989">
        <ele>147</ele>
        <time>2013-04-21T11:53:18Z</time>
      </trkpt>
      <trkpt lat="48.42675" lon="2.7199">
        <ele>147</ele>
        <time>2013-04-21T11:53:19Z</time>
      </trkpt>
      <trkpt lat="48.42677" lon="2.71992">
        <ele>147</ele>
        <time>2013-04-21T11:53:20Z</time>
      </trkpt>
      <trkpt lat="48.4268" lon="2.71992">
        <ele>147</ele>
        <time>2013-04-21T11:53:21Z</time>
      </trkpt>
      <trkpt lat="48.42686" lon="2.7199">
        <ele>147</ele>
        <time>2013-04-21T11:53:23Z</time>
      </trkpt>
      <trkpt lat="48.4269" lon="2.7199">
        <ele>147</ele>
        <time>2013-04-21T11:53:24Z</time>
      </trkpt>
      <trkpt lat="48.42693" lon="2.71992">
        <ele>147</ele>
        <time>2013-04-21T11:53:25Z</time>
      </trkpt>
      <trkpt lat="48.42701" lon="2.72">
        <ele>147</ele>
        <time>2013-04-21T11:53:28Z</time>
      </trkpt>
      <trkpt lat="48.4271" lon="2.72003">
        <ele>143</ele>
        <time>2013-04-21T11:53:31Z</time>
      </trkpt>
      <trkpt lat="48.42713" lon="2.72003">
        <ele>143</ele>
        <time>2013-04-21T11:53:32Z</time>
      </trkpt>
      <trkpt lat="48.42716" lon="2.72003">
        <ele>143</ele>
        <time>2013-04-21T11:53:34Z</time>
      </trkpt>
      <trkpt lat="48.42717" lon="2.72003">
        <ele>143</ele>
        <time>2013-04-21T11:53:35Z</time>
      </trkpt>
      <trkpt lat="48.42717" lon="2.72003">
        <ele>143</ele>
        <time>2013-04-21T11:53:37Z</time>
      </trkpt>
      <trkpt lat="48.42717" lon="2.72003">
        <ele>143</ele>
        <time>2013-04-21T11:53:38Z</time>
      </trkpt>
      <trkpt lat="48.42717" lon="2.72003">
        <ele>143</ele>
        <time>2013-04-21T11:53:40Z</time>
      </trkpt>
      <trkpt lat="48.42717" lon="2.72003">
        <ele>143</ele>
        <time>2013-04-21T11:53:41Z</time>
      </trkpt>
      <trkpt lat="48.42718" lon="2.72003">
        <ele>143</ele>
        <time>2013-04-21T11:53:42Z</time>
      </trkpt>
      <trkpt lat="48.42734" lon="2.71999">
        <ele>145</ele>
        <time>2013-04-21T11:53:48Z</time>
      </trkpt>
      <trkpt lat="48.42739" lon="2.71999">
        <ele>145</ele>
        <time>2013-04-21T11:53:49Z</time>
      </trkpt>
      <trkpt lat="48.42746" lon="2.72">
        <ele>143</ele>
        <time>2013-04-21T11:53:51Z</time>
      </trkpt>
      <trkpt lat="48.42748" lon="2.72002">
        <ele>143</ele>
        <time>2013-04-21T11:53:52Z</time>
      </trkpt>
      <trkpt lat="48.4275" lon="2.72005">
        <ele>142</ele>
        <time>2013-04-21T11:53:53Z</time>
      </trkpt>
      <trkpt lat="48.42752" lon="2.72009">
        <ele>142</ele>
        <time>2013-04-21T11:53:54Z</time>
      </trkpt>
      <trkpt lat="48.42756" lon="2.7203">
        <ele>140</ele>
        <time>2013-04-21T11:53:58Z</time>
      </trkpt>
      <trkpt lat="48.42757" lon="2.72055">
        <ele>139</ele>
        <time>2013-04-21T11:54:02Z</time>
      </trkpt>
      <trkpt lat="48.42755" lon="2.72073">
        <ele>139</ele>
        <time>2013-04-21T11:54:04Z</time>
      </trkpt>
      <trkpt lat="48.42756" lon="2.72082">
        <ele>140</ele>
        <time>2013-04-21T11:54:05Z</time>
      </trkpt>
      <trkpt lat="48.42757" lon="2.7209">
        <ele>138</ele>
        <time>2013-04-21T11:54:06Z</time>
      </trkpt>
      <trkpt lat="48.42757" lon="2.72106">
        <ele>136</ele>
        <time>2013-04-21T11:54:08Z</time>
      </trkpt>
      <trkpt lat="48.42757" lon="2.72113">
        <ele>135</ele>
        <time>2013-04-21T11:54:09Z</time>
      </trkpt>
      <trkpt lat="48.42758" lon="2.72117">
        <ele>134</ele>
        <time>2013-04-21T11:54:10Z</time>
      </trkpt>
      <trkpt lat="48.4276" lon="2.72118">
        <ele>134</ele>
        <time>2013-04-21T11:54:11Z</time>
      </trkpt>
      <trkpt lat="48.42762" lon="2.72117">
        <ele>134</ele>
        <time>2013-04-21T11:54:12Z</time>
      </trkpt>
      <trkpt lat="48.42764" lon="2.72114">
        <ele>134</ele>
        <time>2013-04-21T11:54:13Z</time>
      </trkpt>
      <trkpt lat="48.42767" lon="2.72105">
        <ele>135</ele>
        <time>2013-04-21T11:54:15Z</time>
      </trkpt>
      <trkpt lat="48.42782" lon="2.72046">
        <ele>139</ele>
        <time>2013-04-21T11:54:23Z</time>
      </trkpt>
      <trkpt lat="48.42785" lon="2.72042">
        <ele>139</ele>
        <time>2013-04-21T11:54:24Z</time>
      </trkpt>
      <trkpt lat="48.42788" lon="2.72039">
        <ele>139</ele>
        <time>2013-04-21T11:54:25Z</time>
      </trkpt>
      <trkpt lat="48.42792" lon="2.72041">
        <ele>139</ele>
        <time>2013-04-21T11:54:26Z</time>
      </trkpt>
      <trkpt lat="48.42802" lon="2.7205">
        <ele>138</ele>
        <time>2013-04-21T11:54:28Z</time>
      </trkpt>
      <trkpt lat="48.42805" lon="2.72058">
        <ele>138</ele>
        <time>2013-04-21T11:54:29Z</time>
      </trkpt>
      <trkpt lat="48.42823" lon="2.72105">
        <ele>133</ele>
        <time>2013-04-21T11:54:35Z</time>
      </trkpt>
      <trkpt lat="48.4285" lon="2.72179">
        <ele>131</ele>
        <time>2013-04-21T11:54:48Z</time>
      </trkpt>
      <trkpt lat="48.42851" lon="2.72184">
        <ele>131</ele>
        <time>2013-04-21T11:54:49Z</time>
      </trkpt>
      <trkpt lat="48.4289" lon="2.72382">
        <ele>124</ele>
        <time>2013-04-21T11:55:20Z</time>
      </trkpt>
      <trkpt lat="48.42907" lon="2.72421">
        <ele>124</ele>
        <time>2013-04-21T11:55:27Z</time>
      </trkpt>
      <trkpt lat="48.42911" lon="2.72438">
        <ele>123</ele>
        <time>2013-04-21T11:55:30Z</time>
      </trkpt>
      <trkpt lat="48.42915" lon="2.72448">
        <ele>122</ele>
        <time>2013-04-21T11:55:32Z</time>
      </trkpt>
      <trkpt lat="48.42918" lon="2.72453">
        <ele>127</ele>
        <time>2013-04-21T11:55:33Z</time>
      </trkpt>
      <trkpt lat="48.42926" lon="2.7247">
        <ele>126</ele>
        <time>2013-04-21T11:55:36Z</time>
      </trkpt>
      <trkpt lat="48.42944" lon="2.72502">
        <ele>123</ele>
        <time>2013-04-21T11:55:42Z</time>
      </trkpt>
      <trkpt lat="48.43" lon="2.72553">
        <ele>124</ele>
        <time>2013-04-21T11:55:56Z</time>
      </trkpt>
      <trkpt lat="48.43004" lon="2.72556">
        <ele>124</ele>
        <time>2013-04-21T11:55:57Z</time>
      </trkpt>
      <trkpt lat="48.43018" lon="2.72561">
        <ele>124</ele>
        <time>2013-04-21T11:56:00Z</time>
      </trkpt>
      <trkpt lat="48.43044" lon="2.72562">
        <ele>125</ele>
        <time>2013-04-21T11:56:06Z</time>
      </trkpt>
      <trkpt lat="48.43048" lon="2.72562">
        <ele>125</ele>
        <time>2013-04-21T11:56:07Z</time>
      </trkpt>
      <trkpt lat="48.43051" lon="2.72562">
        <ele>125</ele>
        <time>2013-04-21T11:56:08Z</time>
      </trkpt>
      <trkpt lat="48.43062" lon="2.7256">
        <ele>125</ele>
        <time>2013-04-21T11:56:11Z</time>
      </trkpt>
      <trkpt lat="48.43065" lon="2.72559">
        <ele>125</ele>
        <time>2013-04-21T11:56:12Z</time>
      </trkpt>
      <trkpt lat="48.43072" lon="2.72556">
        <ele>125</ele>
        <time>2013-04-21T11:56:14Z</time>
      </trkpt>
      <trkpt lat="48.43079" lon="2.72554">
        <ele>125</ele>
        <time>2013-04-21T11:56:16Z</time>
      </trkpt>
      <trkpt lat="48.43083" lon="2.72554">
        <ele>125</ele>
        <time>2013-04-21T11:56:17Z</time>
      </trkpt>
      <trkpt lat="48.43093" lon="2.72559">
        <ele>123</ele>
        <time>2013-04-21T11:56:19Z</time>
      </trkpt>
      <trkpt lat="48.43098" lon="2.7256">
        <ele>123</ele>
        <time>2013-04-21T11:56:20Z</time>
      </trkpt>
      <trkpt lat="48.43105" lon="2.72559">
        <ele>123</ele>
        <time>2013-04-21T11:56:23Z</time>
      </trkpt>
      <trkpt lat="48.43111" lon="2.72556">
        <ele>123</ele>
        <time>2013-04-21T11:56:25Z</time>
      </trkpt>
      <trkpt lat="48.4314" lon="2.72553">
        <ele>122</ele>
        <time>2013-04-21T11:56:32Z</time>
      </trkpt>
      <trkpt lat="48.43146" lon="2.72553">
        <ele>122</ele>
        <time>2013-04-21T11:56:33Z</time>
      </trkpt>
      <trkpt lat="48.43151" lon="2.72556">
        <ele>122</ele>
        <time>2013-04-21T11:56:34Z</time>
      </trkpt>
      <trkpt lat="48.43166" lon="2.72572">
        <ele>120</ele>
        <time>2013-04-21T11:56:37Z</time>
      </trkpt>
      <trkpt lat="48.43169" lon="2.72574">
        <ele>118</ele>
        <time>2013-04-21T11:56:38Z</time>
      </trkpt>
      <trkpt lat="48.43172" lon="2.72574">
        <ele>118</ele>
        <time>2013-04-21T11:56:39Z</time>
      </trkpt>
      <trkpt lat="48.43184" lon="2.72566">
        <ele>118</ele>
        <time>2013-04-21T11:56:43Z</time>
      </trkpt>
      <trkpt lat="48.43189" lon="2.72561">
        <ele>118</ele>
        <time>2013-04-21T11:56:45Z</time>
      </trkpt>
      <trkpt lat="48.43198" lon="2.72548">
        <ele>119</ele>
        <time>2013-04-21T11:56:49Z</time>
      </trkpt>
      <trkpt lat="48.43256" lon="2.7247">
        <ele>121</ele>
        <time>2013-04-21T11:57:12Z</time>
      </trkpt>
      <trkpt lat="48.43259" lon="2.72467">
        <ele>121</ele>
        <time>2013-04-21T11:57:13Z</time>
      </trkpt>
      <trkpt lat="48.43277" lon="2.72454">
        <ele>122</ele>
        <time>2013-04-21T11:57:19Z</time>
      </trkpt>
      <trkpt lat="48.43292" lon="2.72451">
        <ele>123</ele>
        <time>2013-04-21T11:57:24Z</time>
      </trkpt>
      <trkpt lat="48.433" lon="2.72452">
        <ele>123</ele>
        <time>2013-04-21T11:57:27Z</time>
      </trkpt>
      <trkpt lat="48.43318" lon="2.72462">
        <ele>123</ele>
        <time>2013-04-21T11:57:35Z</time>
      </trkpt>
      <trkpt lat="48.43327" lon="2.72472">
        <ele>123</ele>
        <time>2013-04-21T11:57:40Z</time>
      </trkpt>
      <trkpt lat="48.43336" lon="2.72489">
        <ele>125</ele>
        <time>2013-04-21T11:57:46Z</time>
      </trkpt>
      <trkpt lat="48.4334" lon="2.72502">
        <ele>125</ele>
        <time>2013-04-21T11:57:50Z</time>
      </trkpt>
      <trkpt lat="48.43345" lon="2.72513">
        <ele>125</ele>
        <time>2013-04-21T11:57:54Z</time>
      </trkpt>
      <trkpt lat="48.43348" lon="2.72523">
        <ele>125</ele>
        <time>2013-04-21T11:57:57Z</time>
      </trkpt>
      <trkpt lat="48.4335" lon="2.72536">
        <ele>125</ele>
        <time>2013-04-21T11:58:01Z</time>
      </trkpt>
      <trkpt lat="48.43356" lon="2.72615">
        <ele>123</ele>
        <time>2013-04-21T11:58:22Z</time>
      </trkpt>
      <trkpt lat="48.43356" lon="2.72618">
        <ele>123</ele>
        <time>2013-04-21T11:58:23Z</time>
      </trkpt>
      <trkpt lat="48.43358" lon="2.72637">
        <ele>123</ele>
        <time>2013-04-21T11:58:28Z</time>
      </trkpt>
      <trkpt lat="48.43362" lon="2.72647">
        <ele>123</ele>
        <time>2013-04-21T11:58:31Z</time>
      </trkpt>
      <trkpt lat="48.43366" lon="2.72656">
        <ele>123</ele>
        <time>2013-04-21T11:58:34Z</time>
      </trkpt>
      <trkpt lat="48.4337" lon="2.7266">
        <ele>123</ele>
        <time>2013-04-21T11:58:36Z</time>
      </trkpt>
      <trkpt lat="48.43372" lon="2.72662">
        <ele>123</ele>
        <time>2013-04-21T11:58:37Z</time>
      </trkpt>
      <trkpt lat="48.43377" lon="2.72663">
        <ele>124</ele>
        <time>2013-04-21T11:58:39Z</time>
      </trkpt>
      <trkpt lat="48.43382" lon="2.72662">
        <ele>124</ele>
        <time>2013-04-21T11:58:41Z</time>
      </trkpt>
      <trkpt lat="48.43389" lon="2.72657">
        <ele>124</ele>
        <time>2013-04-21T11:58:44Z</time>
      </trkpt>
      <trkpt lat="48.43391" lon="2.72655">
        <ele>124</ele>
        <time>2013-04-21T11:58:45Z</time>
      </trkpt>
      <trkpt lat="48.43398" lon="2.7264">
        <ele>125</ele>
        <time>2013-04-21T11:58:50Z</time>
      </trkpt>
      <trkpt lat="48.43399" lon="2.72637">
        <ele>125</ele>
        <time>2013-04-21T11:58:51Z</time>
      </trkpt>
      <trkpt lat="48.43401" lon="2.72631">
        <ele>125</ele>
        <time>2013-04-21T11:58:53Z</time>
      </trkpt>
      <trkpt lat="48.43401" lon="2.72629">
        <ele>125</ele>
        <time>2013-04-21T11:58:54Z</time>
      </trkpt>
      <trkpt lat="48.43401" lon="2.72622">
        <ele>125</ele>
        <time>2013-04-21T11:58:57Z</time>
      </trkpt>
      <trkpt lat="48.434" lon="2.72615">
        <ele>125</ele>
        <time>2013-04-21T11:59:01Z</time>
      </trkpt>
      <trkpt lat="48.434" lon="2.72613">
        <ele>125</ele>
        <time>2013-04-21T11:59:02Z</time>
      </trkpt>
      <trkpt lat="48.43399" lon="2.72611">
        <ele>125</ele>
        <time>2013-04-21T11:59:03Z</time>
      </trkpt>
      <trkpt lat="48.43399" lon="2.72609">
        <ele>125</ele>
        <time>2013-04-21T11:59:04Z</time>
      </trkpt>
      <trkpt lat="48.434" lon="2.72608">
        <ele>125</ele>
        <time>2013-04-21T11:59:05Z</time>
      </trkpt>
      <trkpt lat="48.43401" lon="2.72607">
        <ele>125</ele>
        <time>2013-04-21T11:59:06Z</time>
      </trkpt>
      <trkpt lat="48.43401" lon="2.72606">
        <ele>125</ele>
        <time>2013-04-21T11:59:07Z</time>
      </trkpt>
      <trkpt lat="48.43401" lon="2.72606">
        <ele>125</ele>
        <time>2013-04-21T11:59:09Z</time>
      </trkpt>
      <trkpt lat="48.43401" lon="2.72606">
        <ele>125</ele>
        <time>2013-04-21T11:59:11Z</time>
      </trkpt>
      <trkpt lat="48.43401" lon="2.72606">
        <ele>125</ele>
        <time>2013-04-21T11:59:13Z</time>
      </trkpt>
      <trkpt lat="48.43401" lon="2.72606">
        <ele>125</ele>
        <time>2013-04-21T11:59:16Z</time>
      </trkpt>
      <trkpt lat="48.43401" lon="2.72605">
        <ele>125</ele>
        <time>2013-04-21T11:59:23Z</time>
      </trkpt>
      <trkpt lat="48.43401" lon="2.72605">
        <ele>125</ele>
        <time>2013-04-21T11:59:24Z</time>
      </trkpt>
      <trkpt lat="48.43401" lon="2.72605">
        <ele>125</ele>
        <time>2013-04-21T11:59:25Z</time>
      </trkpt>
      <trkpt lat="48.43401" lon="2.72605">
        <ele>125</ele>
        <time>2013-04-21T11:59:26Z</time>
      </trkpt>
      <trkpt lat="48.43401" lon="2.72605">
        <ele>125</ele>
        <time>2013-04-21T11:59:27Z</time>
      </trkpt>
      <trkpt lat="48.43401" lon="2.72605">
        <ele>125</ele>
        <time>2013-04-21T11:59:33Z</time>
      </trkpt>
      <trkpt lat="48.43401" lon="2.72604">
        <ele>125</ele>
        <time>2013-04-21T11:59:36Z</time>
      </trkpt>
      <trkpt lat="48.43401" lon="2.72604">
        <ele>125</ele>
        <time>2013-04-21T11:59:39Z</time>
      </trkpt>
      <trkpt lat="48.43401" lon="2.72604">
        <ele>125</ele>
        <time>2013-04-21T11:59:41Z</time>
      </trkpt>
      <trkpt lat="48.43401" lon="2.72604">
        <ele>125</ele>
        <time>2013-04-21T11:59:42Z</time>
      </trkpt>
      <trkpt lat="48.43401" lon="2.72604">
        <ele>125</ele>
        <time>2013-04-21T11:59:45Z</time>
      </trkpt>
      <trkpt lat="48.43401" lon="2.72604">
        <ele>125</ele>
        <time>2013-04-21T11:59:52Z</time>
      </trkpt>
      <trkpt lat="48.43401" lon="2.72604">
        <ele>125</ele>
        <time>2013-04-21T11:59:55Z</time>
      </trkpt>
      <trkpt lat="48.43402" lon="2.72604">
        <ele>125</ele>
        <time>2013-04-21T11:59:56Z</time>
      </trkpt>
      <trkpt lat="48.43402" lon="2.72603">
        <ele>126</ele>
        <time>2013-04-21T11:59:57Z</time>
      </trkpt>
      <trkpt lat="48.43402" lon="2.72603">
        <ele>126</ele>
        <time>2013-04-21T11:59:58Z</time>
      </trkpt>
      <trkpt lat="48.43402" lon="2.72602">
        <ele>126</ele>
        <time>2013-04-21T11:59:59Z</time>
      </trkpt>
      <trkpt lat="48.43403" lon="2.72602">
        <ele>126</ele>
        <time>2013-04-21T12:00:00Z</time>
      </trkpt>
      <trkpt lat="48.43403" lon="2.72601">
        <ele>126</ele>
        <time>2013-04-21T12:00:01Z</time>
      </trkpt>
      <trkpt lat="48.43403" lon="2.72601">
        <ele>126</ele>
        <time>2013-04-21T12:00:02Z</time>
      </trkpt>
      <trkpt lat="48.43404" lon="2.72601">
        <ele>126</ele>
        <time>2013-04-21T12:00:03Z</time>
      </trkpt>
      <trkpt lat="48.43404" lon="2.72601">
        <ele>126</ele>
        <time>2013-04-21T12:00:11Z</time>
      </trkpt>
      <trkpt lat="48.43404" lon="2.72601">
        <ele>126</ele>
        <time>2013-04-21T12:00:15Z</time>
      </trkpt>
      <trkpt lat="48.43404" lon="2.72601">
        <ele>126</ele>
        <time>2013-04-21T12:00:20Z</time>
      </trkpt>
      <trkpt lat="48.43404" lon="2.72601">
        <ele>126</ele>
        <time>2013-04-21T12:00:24Z</time>
      </trkpt>
      <trkpt lat="48.43404" lon="2.72602">
        <ele>126</ele>
        <time>2013-04-21T12:00:25Z</time>
      </trkpt>
      <trkpt lat="48.43404" lon="2.72602">
        <ele>126</ele>
        <time>2013-04-21T12:00:29Z</time>
      </trkpt>
      <trkpt lat="48.43405" lon="2.72602">
        <ele>126</ele>
        <time>2013-04-21T12:00:33Z</time>
      </trkpt>
      <trkpt lat="48.43405" lon="2.72602">
        <ele>126</ele>
        <time>2013-04-21T12:00:36Z</time>
      </trkpt>
      <trkpt lat="48.43405" lon="2.72602">
        <ele>126</ele>
        <time>2013-04-21T12:00:40Z</time>
      </trkpt>
      <trkpt lat="48.43405" lon="2.72602">
        <ele>126</ele>
        <time>2013-04-21T12:00:43Z</time>
      </trkpt>
      <trkpt lat="48.43405" lon="2.72602">
        <ele>126</ele>
        <time>2013-04-21T12:00:47Z</time>
      </trkpt>
      <trkpt lat="48.43405" lon="2.72602">
        <ele>126</ele>
        <time>2013-04-21T12:00:51Z</time>
      </trkpt>
      <trkpt lat="48.43405" lon="2.72602">
        <ele>126</ele>
        <time>2013-04-21T12:00:52Z</time>
      </trkpt>
      <trkpt lat="48.43406" lon="2.72602">
        <ele>126</ele>
        <time>2013-04-21T12:00:55Z</time>
      </trkpt>
      <trkpt lat="48.43406" lon="2.72602">
        <ele>126</ele>
        <time>2013-04-21T12:01:01Z</time>
      </trkpt>
      <trkpt lat="48.43406" lon="2.72602">
        <ele>126</ele>
        <time>2013-04-21T12:01:05Z</time>
      </trkpt>
      <trkpt lat="48.43406" lon="2.72601">
        <ele>126</ele>
        <time>2013-04-21T12:01:09Z</time>
      </trkpt>
      <trkpt lat="48.43406" lon="2.72601">
        <ele>126</ele>
        <time>2013-04-21T12:01:10Z</time>
      </trkpt>
      <trkpt lat="48.43406" lon="2.72601">
        <ele>126</ele>
        <time>2013-04-21T12:01:15Z</time>
      </trkpt>
      <trkpt lat="48.43406" lon="2.72601">
        <ele>126</ele>
        <time>2013-04-21T12:01:18Z</time>
      </trkpt>
      <trkpt lat="48.43406" lon="2.72601">
        <ele>126</ele>
        <time>2013-04-21T12:01:20Z</time>
      </trkpt>
      <trkpt lat="48.43407" lon="2.72601">
        <ele>126</ele>
        <time>2013-04-21T12:01:30Z</time>
      </trkpt>
      <trkpt lat="48.43407" lon="2.72601">
        <ele>126</ele>
        <time>2013-04-21T12:01:34Z</time>
      </trkpt>
      <trkpt lat="48.43407" lon="2.72601">
        <ele>126</ele>
        <time>2013-04-21T12:01:35Z</time>
      </trkpt>
      <trkpt lat="48.43407" lon="2.72601">
        <ele>126</ele>
        <time>2013-04-21T12:01:40Z</time>
      </trkpt>
      <trkpt lat="48.43407" lon="2.72601">
        <ele>126</ele>
        <time>2013-04-21T12:01:43Z</time>
      </trkpt>
      <trkpt lat="48.43407" lon="2.72601">
        <ele>126</ele>
        <time>2013-04-21T12:01:48Z</time>
      </trkpt>
      <trkpt lat="48.43407" lon="2.72601">
        <ele>126</ele>
        <time>2013-04-21T12:01:49Z</time>
      </trkpt>
      <trkpt lat="48.43407" lon="2.72601">
        <ele>126</ele>
        <time>2013-04-21T12:01:50Z</time>
      </trkpt>
      <trkpt lat="48.43407" lon="2.72601">
        <ele>126</ele>
        <time>2013-04-21T12:01:53Z</time>
      </trkpt>
      <trkpt lat="48.43407" lon="2.72601">
        <ele>126</ele>
        <time>2013-04-21T12:01:54Z</time>
      </trkpt>
      <trkpt lat="48.43407" lon="2.72601">
        <ele>126</ele>
        <time>2013-04-21T12:01:55Z</time>
      </trkpt>
      <trkpt lat="48.43407" lon="2.72601">
        <ele>126</ele>
        <time>2013-04-21T12:01:57Z</time>
      </trkpt>
      <trkpt lat="48.43407" lon="2.72601">
        <ele>126</ele>
        <time>2013-04-21T12:01:58Z</time>
      </trkpt>
      <trkpt lat="48.43407" lon="2.72602">
        <ele>126</ele>
        <time>2013-04-21T12:01:59Z</time>
      </trkpt>
      <trkpt lat="48.43407" lon="2.72602">
        <ele>126</ele>
        <time>2013-04-21T12:02:00Z</time>
      </trkpt>
      <trkpt lat="48.43407" lon="2.72602">
        <ele>126</ele>
        <time>2013-04-21T12:02:01Z</time>
      </trkpt>
      <trkpt lat="48.43406" lon="2.72602">
        <ele>126</ele>
        <time>2013-04-21T12:02:02Z</time>
      </trkpt>
      <trkpt lat="48.43406" lon="2.72602">
        <ele>126</ele>
        <time>2013-04-21T12:02:03Z</time>
      </trkpt>
      <trkpt lat="48.43406" lon="2.72601">
        <ele>126</ele>
        <time>2013-04-21T12:02:05Z</time>
      </trkpt>
      <trkpt lat="48.43405" lon="2.72601">
        <ele>126</ele>
        <time>2013-04-21T12:02:06Z</time>
      </trkpt>
      <trkpt lat="48.43404" lon="2.72601">
        <ele>126</ele>
        <time>2013-04-21T12:02:07Z</time>
      </trkpt>
      <trkpt lat="48.43403" lon="2.72602">
        <ele>126</ele>
        <time>2013-04-21T12:02:08Z</time>
      </trkpt>
      <trkpt lat="48.43402" lon="2.72603">
        <ele>126</ele>
        <time>2013-04-21T12:02:09Z</time>
      </trkpt>
      <trkpt lat="48.43401" lon="2.72604">
        <ele>125</ele>
        <time>2013-04-21T12:02:10Z</time>
      </trkpt>
      <trkpt lat="48.434" lon="2.72604">
        <ele>125</ele>
        <time>2013-04-21T12:02:11Z</time>
      </trkpt>
      <trkpt lat="48.43399" lon="2.72603">
        <ele>125</ele>
        <time>2013-04-21T12:02:12Z</time>
      </trkpt>
      <trkpt lat="48.43398" lon="2.72601">
        <ele>125</ele>
        <time>2013-04-21T12:02:13Z</time>
      </trkpt>
      <trkpt lat="48.43398" lon="2.726">
        <ele>125</ele>
        <time>2013-04-21T12:02:14Z</time>
      </trkpt>
      <trkpt lat="48.43397" lon="2.726">
        <ele>125</ele>
        <time>2013-04-21T12:02:15Z</time>
      </trkpt>
      <trkpt lat="48.43395" lon="2.72599">
        <ele>125</ele>
        <time>2013-04-21T12:02:16Z</time>
      </trkpt>
      <trkpt lat="48.43394" lon="2.72598">
        <ele>125</ele>
        <time>2013-04-21T12:02:17Z</time>
      </trkpt>
      <trkpt lat="48.43394" lon="2.72597">
        <ele>125</ele>
        <time>2013-04-21T12:02:18Z</time>
      </trkpt>
      <trkpt lat="48.43395" lon="2.72595">
        <ele>125</ele>
        <time>2013-04-21T12:02:19Z</time>
      </trkpt>
      <trkpt lat="48.43395" lon="2.72594">
        <ele>125</ele>
        <time>2013-04-21T12:02:20Z</time>
      </trkpt>
      <trkpt lat="48.43397" lon="2.72594">
        <ele>126</ele>
        <time>2013-04-21T12:02:22Z</time>
      </trkpt>
      <trkpt lat="48.43398" lon="2.72594">
        <ele>126</ele>
        <time>2013-04-21T12:02:23Z</time>
      </trkpt>
      <trkpt lat="48.43399" lon="2.72597">
        <ele>126</ele>
        <time>2013-04-21T12:02:25Z</time>
      </trkpt>
      <trkpt lat="48.43403" lon="2.726">
        <ele>126</ele>
        <time>2013-04-21T12:02:27Z</time>
      </trkpt>
      <trkpt lat="48.43407" lon="2.72602">
        <ele>126</ele>
        <time>2013-04-21T12:02:29Z</time>
      </trkpt>
      <trkpt lat="48.43409" lon="2.72602">
        <ele>126</ele>
        <time>2013-04-21T12:02:30Z</time>
      </trkpt>
      <trkpt lat="48.43411" lon="2.72601">
        <ele>126</ele>
        <time>2013-04-21T12:02:31Z</time>
      </trkpt>
      <trkpt lat="48.43413" lon="2.72601">
        <ele>126</ele>
        <time>2013-04-21T12:02:32Z</time>
      </trkpt>
      <trkpt lat="48.43414" lon="2.72604">
        <ele>126</ele>
        <time>2013-04-21T12:02:33Z</time>
      </trkpt>
      <trkpt lat="48.43415" lon="2.72605">
        <ele>126</ele>
        <time>2013-04-21T12:02:34Z</time>
      </trkpt>
      <trkpt lat="48.43416" lon="2.72607">
        <ele>126</ele>
        <time>2013-04-21T12:02:35Z</time>
      </trkpt>
      <trkpt lat="48.43418" lon="2.7261">
        <ele>125</ele>
        <time>2013-04-21T12:02:37Z</time>
      </trkpt>
      <trkpt lat="48.43418" lon="2.7261">
        <ele>125</ele>
        <time>2013-04-21T12:02:38Z</time>
      </trkpt>
      <trkpt lat="48.43418" lon="2.72611">
        <ele>125</ele>
        <time>2013-04-21T12:02:40Z</time>
      </trkpt>
      <trkpt lat="48.43418" lon="2.72611">
        <ele>125</ele>
        <time>2013-04-21T12:02:41Z</time>
      </trkpt>
      <trkpt lat="48.43418" lon="2.72611">
        <ele>125</ele>
        <time>2013-04-21T12:02:42Z</time>
      </trkpt>
      <trkpt lat="48.43418" lon="2.72611">
        <ele>125</ele>
        <time>2013-04-21T12:02:43Z</time>
      </trkpt>
      <trkpt lat="48.43418" lon="2.72611">
        <ele>125</ele>
        <time>2013-04-21T12:02:44Z</time>
      </trkpt>
      <trkpt lat="48.43418" lon="2.72611">
        <ele>125</ele>
        <time>2013-04-21T12:02:45Z</time>
      </trkpt>
      <trkpt lat="48.43418" lon="2.72612">
        <ele>125</ele>
        <time>2013-04-21T12:02:46Z</time>
      </trkpt>
      <trkpt lat="48.43418" lon="2.72612">
        <ele>125</ele>
        <time>2013-04-21T12:02:47Z</time>
      </trkpt>
      <trkpt lat="48.43418" lon="2.72612">
        <ele>125</ele>
        <time>2013-04-21T12:02:48Z</time>
      </trkpt>
      <trkpt lat="48.43418" lon="2.72612">
        <ele>125</ele>
        <time>2013-04-21T12:02:49Z</time>
      </trkpt>
      <trkpt lat="48.43418" lon="2.72613">
        <ele>125</ele>
        <time>2013-04-21T12:02:50Z</time>
      </trkpt>
      <trkpt lat="48.43418" lon="2.72613">
        <ele>125</ele>
        <time>2013-04-21T12:02:51Z</time>
      </trkpt>
      <trkpt lat="48.43417" lon="2.72614">
        <ele>125</ele>
        <time>2013-04-21T12:02:54Z</time>
      </trkpt>
      <trkpt lat="48.43417" lon="2.72615">
        <ele>125</ele>
        <time>2013-04-21T12:02:55Z</time>
      </trkpt>
      <trkpt lat="48.43418" lon="2.72617">
        <ele>124</ele>
        <time>2013-04-21T12:03:07Z</time>
      </trkpt>
      <trkpt lat="48.43418" lon="2.72616">
        <ele>124</ele>
        <time>2013-04-21T12:03:09Z</time>
      </trkpt>
      <trkpt lat="48.43418" lon="2.72615">
        <ele>124</ele>
        <time>2013-04-21T12:03:10Z</time>
      </trkpt>
      <trkpt lat="48.43418" lon="2.72615">
        <ele>124</ele>
        <time>2013-04-21T12:03:12Z</time>
      </trkpt>
      <trkpt lat="48.43418" lon="2.72615">
        <ele>124</ele>
        <time>2013-04-21T12:03:13Z</time>
      </trkpt>
      <trkpt lat="48.43418" lon="2.72614">
        <ele>125</ele>
        <time>2013-04-21T12:03:15Z</time>
      </trkpt>
      <trkpt lat="48.43418" lon="2.72614">
        <ele>125</ele>
        <time>2013-04-21T12:03:16Z</time>
      </trkpt>
      <trkpt lat="48.43418" lon="2.72613">
        <ele>125</ele>
        <time>2013-04-21T12:03:17Z</time>
      </trkpt>
      <trkpt lat="48.43418" lon="2.72613">
        <ele>125</ele>
        <time>2013-04-21T12:03:18Z</time>
      </trkpt>
      <trkpt lat="48.43418" lon="2.72612">
        <ele>125</ele>
        <time>2013-04-21T12:03:19Z</time>
      </trkpt>
      <trkpt lat="48.43418" lon="2.72612">
        <ele>125</ele>
        <time>2013-04-21T12:03:21Z</time>
      </trkpt>
      <trkpt lat="48.43418" lon="2.72612">
        <ele>125</ele>
        <time>2013-04-21T12:03:24Z</time>
      </trkpt>
      <trkpt lat="48.43418" lon="2.72613">
        <ele>125</ele>
        <time>2013-04-21T12:03:25Z</time>
      </trkpt>
      <trkpt lat="48.43418" lon="2.72613">
        <ele>125</ele>
        <time>2013-04-21T12:03:29Z</time>
      </trkpt>
      <trkpt lat="48.43418" lon="2.72613">
        <ele>125</ele>
        <time>2013-04-21T12:03:31Z</time>
      </trkpt>
      <trkpt lat="48.43418" lon="2.72613">
        <ele>125</ele>
        <time>2013-04-21T12:03:32Z</time>
      </trkpt>
      <trkpt lat="48.43418" lon="2.72613">
        <ele>125</ele>
        <time>2013-04-21T12:03:33Z</time>
      </trkpt>
      <trkpt lat="48.43419" lon="2.72613">
        <ele>125</ele>
        <time>2013-04-21T12:03:34Z</time>
      </trkpt>
      <trkpt lat="48.43419" lon="2.72613">
        <ele>125</ele>
        <time>2013-04-21T12:03:35Z</time>
      </trkpt>
      <trkpt lat="48.43419" lon="2.72613">
        <ele>125</ele>
        <time>2013-04-21T12:03:36Z</time>
      </trkpt>
      <trkpt lat="48.43419" lon="2.72614">
        <ele>125</ele>
        <time>2013-04-21T12:03:37Z</time>
      </trkpt>
      <trkpt lat="48.43419" lon="2.72614">
        <ele>125</ele>
        <time>2013-04-21T12:03:38Z</time>
      </trkpt>
      <trkpt lat="48.43419" lon="2.72614">
        <ele>125</ele>
        <time>2013-04-21T12:03:39Z</time>
      </trkpt>
      <trkpt lat="48.43419" lon="2.72614">
        <ele>125</ele>
        <time>2013-04-21T12:03:40Z</time>
      </trkpt>
      <trkpt lat="48.4342" lon="2.72614">
        <ele>125</ele>
        <time>2013-04-21T12:03:41Z</time>
      </trkpt>
      <trkpt lat="48.4342" lon="2.72614">
        <ele>124</ele>
        <time>2013-04-21T12:03:42Z</time>
      </trkpt>
      <trkpt lat="48.4342" lon="2.72614">
        <ele>124</ele>
        <time>2013-04-21T12:03:43Z</time>
      </trkpt>
      <trkpt lat="48.4342" lon="2.72615">
        <ele>124</ele>
        <time>2013-04-21T12:03:44Z</time>
      </trkpt>
      <trkpt lat="48.4342" lon="2.72615">
        <ele>124</ele>
        <time>2013-04-21T12:03:45Z</time>
      </trkpt>
      <trkpt lat="48.4342" lon="2.72615">
        <ele>124</ele>
        <time>2013-04-21T12:03:46Z</time>
      </trkpt>
      <trkpt lat="48.4342" lon="2.72615">
        <ele>124</ele>
        <time>2013-04-21T12:03:47Z</time>
      </trkpt>
      <trkpt lat="48.4342" lon="2.72615">
        <ele>124</ele>
        <time>2013-04-21T12:03:48Z</time>
      </trkpt>
      <trkpt lat="48.43421" lon="2.72615">
        <ele>124</ele>
        <time>2013-04-21T12:03:49Z</time>
      </trkpt>
      <trkpt lat="48.43421" lon="2.72615">
        <ele>124</ele>
        <time>2013-04-21T12:03:51Z</time>
      </trkpt>
      <trkpt lat="48.43421" lon="2.72615">
        <ele>124</ele>
        <time>2013-04-21T12:03:52Z</time>
      </trkpt>
      <trkpt lat="48.43421" lon="2.72615">
        <ele>124</ele>
        <time>2013-04-21T12:03:53Z</time>
      </trkpt>
      <trkpt lat="48.43421" lon="2.72615">
        <ele>124</ele>
        <time>2013-04-21T12:03:54Z</time>
      </trkpt>
      <trkpt lat="48.43421" lon="2.72616">
        <ele>124</ele>
        <time>2013-04-21T12:03:57Z</time>
      </trkpt>
      <trkpt lat="48.43421" lon="2.72615">
        <ele>124</ele>
        <time>2013-04-21T12:03:58Z</time>
      </trkpt>
      <trkpt lat="48.4342" lon="2.72614">
        <ele>125</ele>
        <time>2013-04-21T12:03:59Z</time>
      </trkpt>
      <trkpt lat="48.4342" lon="2.72612">
        <ele>125</ele>
        <time>2013-04-21T12:04:00Z</time>
      </trkpt>
      <trkpt lat="48.43419" lon="2.72611">
        <ele>125</ele>
        <time>2013-04-21T12:04:01Z</time>
      </trkpt>
      <trkpt lat="48.43418" lon="2.72612">
        <ele>125</ele>
        <time>2013-04-21T12:04:02Z</time>
      </trkpt>
      <trkpt lat="48.43418" lon="2.72612">
        <ele>125</ele>
        <time>2013-04-21T12:04:03Z</time>
      </trkpt>
      <trkpt lat="48.43418" lon="2.72612">
        <ele>125</ele>
        <time>2013-04-21T12:04:05Z</time>
      </trkpt>
      <trkpt lat="48.43418" lon="2.72612">
        <ele>125</ele>
        <time>2013-04-21T12:04:07Z</time>
      </trkpt>
      <trkpt lat="48.43418" lon="2.72612">
        <ele>125</ele>
        <time>2013-04-21T12:04:08Z</time>
      </trkpt>
      <trkpt lat="48.43419" lon="2.72612">
        <ele>125</ele>
        <time>2013-04-21T12:04:09Z</time>
      </trkpt>
      <trkpt lat="48.43419" lon="2.72612">
        <ele>125</ele>
        <time>2013-04-21T12:04:10Z</time>
      </trkpt>
      <trkpt lat="48.43419" lon="2.72612">
        <ele>125</ele>
        <time>2013-04-21T12:04:13Z</time>
      </trkpt>
      <trkpt lat="48.43419" lon="2.72612">
        <ele>125</ele>
        <time>2013-04-21T12:04:16Z</time>
      </trkpt>
      <trkpt lat="48.43419" lon="2.72612">
        <ele>125</ele>
        <time>2013-04-21T12:04:17Z</time>
      </trkpt>
      <trkpt lat="48.43419" lon="2.72611">
        <ele>125</ele>
        <time>2013-04-21T12:04:18Z</time>
      </trkpt>
      <trkpt lat="48.43419" lon="2.72611">
        <ele>125</ele>
        <time>2013-04-21T12:04:20Z</time>
      </trkpt>
      <trkpt lat="48.43419" lon="2.72611">
        <ele>125</ele>
        <time>2013-04-21T12:04:22Z</time>
      </trkpt>
      <trkpt lat="48.4342" lon="2.72611">
        <ele>125</ele>
        <time>2013-04-21T12:04:24Z</time>
      </trkpt>
      <trkpt lat="48.4342" lon="2.72611">
        <ele>125</ele>
        <time>2013-04-21T12:04:25Z</time>
      </trkpt>
      <trkpt lat="48.4342" lon="2.72611">
        <ele>125</ele>
        <time>2013-04-21T12:04:26Z</time>
      </trkpt>
      <trkpt lat="48.43425" lon="2.72619">
        <ele>124</ele>
        <time>2013-04-21T12:04:30Z</time>
      </trkpt>
      <trkpt lat="48.43426" lon="2.7262">
        <ele>124</ele>
        <time>2013-04-21T12:04:31Z</time>
      </trkpt>
      <trkpt lat="48.43427" lon="2.72619">
        <ele>124</ele>
        <time>2013-04-21T12:04:32Z</time>
      </trkpt>
      <trkpt lat="48.43429" lon="2.72617">
        <ele>124</ele>
        <time>2013-04-21T12:04:33Z</time>
      </trkpt>
      <trkpt lat="48.43429" lon="2.72616">
        <ele>124</ele>
        <time>2013-04-21T12:04:34Z</time>
      </trkpt>
      <trkpt lat="48.43429" lon="2.72616">
        <ele>124</ele>
        <time>2013-04-21T12:04:35Z</time>
      </trkpt>
      <trkpt lat="48.43429" lon="2.72616">
        <ele>124</ele>
        <time>2013-04-21T12:04:36Z</time>
      </trkpt>
      <trkpt lat="48.43429" lon="2.72616">
        <ele>124</ele>
        <time>2013-04-21T12:04:37Z</time>
      </trkpt>
      <trkpt lat="48.43429" lon="2.72615">
        <ele>124</ele>
        <time>2013-04-21T12:04:38Z</time>
      </trkpt>
      <trkpt lat="48.43429" lon="2.72615">
        <ele>124</ele>
        <time>2013-04-21T12:04:39Z</time>
      </trkpt>
      <trkpt lat="48.43429" lon="2.72615">
        <ele>124</ele>
        <time>2013-04-21T12:04:40Z</time>
      </trkpt>
      <trkpt lat="48.43429" lon="2.72615">
        <ele>124</ele>
        <time>2013-04-21T12:04:41Z</time>
      </trkpt>
      <trkpt lat="48.43429" lon="2.72614">
        <ele>124</ele>
        <time>2013-04-21T12:04:42Z</time>
      </trkpt>
      <trkpt lat="48.43429" lon="2.72614">
        <ele>124</ele>
        <time>2013-04-21T12:04:43Z</time>
      </trkpt>
      <trkpt lat="48.43429" lon="2.72614">
        <ele>124</ele>
        <time>2013-04-21T12:04:44Z</time>
      </trkpt>
      <trkpt lat="48.43429" lon="2.72613">
        <ele>124</ele>
        <time>2013-04-21T12:04:45Z</time>
      </trkpt>
      <trkpt lat="48.43429" lon="2.72613">
        <ele>124</ele>
        <time>2013-04-21T12:04:46Z</time>
      </trkpt>
      <trkpt lat="48.43428" lon="2.72613">
        <ele>124</ele>
        <time>2013-04-21T12:04:47Z</time>
      </trkpt>
      <trkpt lat="48.43428" lon="2.72612">
        <ele>124</ele>
        <time>2013-04-21T12:04:48Z</time>
      </trkpt>
      <trkpt lat="48.43429" lon="2.72612">
        <ele>124</ele>
        <time>2013-04-21T12:04:49Z</time>
      </trkpt>
      <trkpt lat="48.43428" lon="2.72612">
        <ele>124</ele>
        <time>2013-04-21T12:04:50Z</time>
      </trkpt>
      <trkpt lat="48.43429" lon="2.72611">
        <ele>124</ele>
        <time>2013-04-21T12:04:51Z</time>
      </trkpt>
      <trkpt lat="48.43428" lon="2.72611">
        <ele>124</ele>
        <time>2013-04-21T12:04:52Z</time>
      </trkpt>
      <trkpt lat="48.43428" lon="2.72611">
        <ele>124</ele>
        <time>2013-04-21T12:04:53Z</time>
      </trkpt>
      <trkpt lat="48.43429" lon="2.72609">
        <ele>124</ele>
        <time>2013-04-21T12:04:57Z</time>
      </trkpt>
      <trkpt lat="48.43429" lon="2.72609">
        <ele>124</ele>
        <time>2013-04-21T12:04:58Z</time>
      </trkpt>
      <trkpt lat="48.43429" lon="2.72608">
        <ele>124</ele>
        <time>2013-04-21T12:04:59Z</time>
      </trkpt>
      <trkpt lat="48.43429" lon="2.72608">
        <ele>125</ele>
        <time>2013-04-21T12:05:00Z</time>
      </trkpt>
      <trkpt lat="48.43428" lon="2.72607">
        <ele>125</ele>
        <time>2013-04-21T12:05:01Z</time>
      </trkpt>
      <trkpt lat="48.43428" lon="2.72607">
        <ele>125</ele>
        <time>2013-04-21T12:05:02Z</time>
      </trkpt>
      <trkpt lat="48.43428" lon="2.72606">
        <ele>125</ele>
        <time>2013-04-21T12:05:03Z</time>
      </trkpt>
      <trkpt lat="48.43428" lon="2.72606">
        <ele>125</ele>
        <time>2013-04-21T12:05:04Z</time>
      </trkpt>
      <trkpt lat="48.43428" lon="2.72605">
        <ele>125</ele>
        <time>2013-04-21T12:05:05Z</time>
      </trkpt>
      <trkpt lat="48.43428" lon="2.72605">
        <ele>125</ele>
        <time>2013-04-21T12:05:06Z</time>
      </trkpt>
      <trkpt lat="48.43428" lon="2.72604">
        <ele>125</ele>
        <time>2013-04-21T12:05:07Z</time>
      </trkpt>
      <trkpt lat="48.43427" lon="2.72604">
        <ele>125</ele>
        <time>2013-04-21T12:05:08Z</time>
      </trkpt>
      <trkpt lat="48.43428" lon="2.72604">
        <ele>125</ele>
        <time>2013-04-21T12:05:09Z</time>
      </trkpt>
      <trkpt lat="48.43428" lon="2.72603">
        <ele>125</ele>
        <time>2013-04-21T12:05:10Z</time>
      </trkpt>
      <trkpt lat="48.43428" lon="2.72603">
        <ele>125</ele>
        <time>2013-04-21T12:05:12Z</time>
      </trkpt>
      <trkpt lat="48.43427" lon="2.72603">
        <ele>125</ele>
        <time>2013-04-21T12:05:13Z</time>
      </trkpt>
      <trkpt lat="48.43427" lon="2.72603">
        <ele>125</ele>
        <time>2013-04-21T12:05:14Z</time>
      </trkpt>
      <trkpt lat="48.43427" lon="2.72602">
        <ele>125</ele>
        <time>2013-04-21T12:05:15Z</time>
      </trkpt>
      <trkpt lat="48.43427" lon="2.72602">
        <ele>125</ele>
        <time>2013-04-21T12:05:16Z</time>
      </trkpt>
      <trkpt lat="48.43427" lon="2.72602">
        <ele>125</ele>
        <time>2013-04-21T12:05:18Z</time>
      </trkpt>
      <trkpt lat="48.43427" lon="2.72602">
        <ele>125</ele>
        <time>2013-04-21T12:05:19Z</time>
      </trkpt>
      <trkpt lat="48.43427" lon="2.72602">
        <ele>125</ele>
        <time>2013-04-21T12:05:20Z</time>
      </trkpt>
      <trkpt lat="48.43427" lon="2.72602">
        <ele>125</ele>
        <time>2013-04-21T12:05:21Z</time>
      </trkpt>
      <trkpt lat="48.43427" lon="2.72602">
        <ele>125</ele>
        <time>2013-04-21T12:05:22Z</time>
      </trkpt>
      <trkpt lat="48.43427" lon="2.72601">
        <ele>125</ele>
        <time>2013-04-21T12:05:23Z</time>
      </trkpt>
      <trkpt lat="48.43429" lon="2.72601">
        <ele>125</ele>
        <time>2013-04-21T12:05:25Z</time>
      </trkpt>
      <trkpt lat="48.43436" lon="2.72605">
        <ele>124</ele>
        <time>2013-04-21T12:05:28Z</time>
      </trkpt>
      <trkpt lat="48.43441" lon="2.72605">
        <ele>124</ele>
        <time>2013-04-21T12:05:29Z</time>
      </trkpt>
      <trkpt lat="48.43446" lon="2.72605">
        <ele>124</ele>
        <time>2013-04-21T12:05:30Z</time>
      </trkpt>
      <trkpt lat="48.43451" lon="2.72606">
        <ele>123</ele>
        <time>2013-04-21T12:05:31Z</time>
      </trkpt>
      <trkpt lat="48.43453" lon="2.7261">
        <ele>123</ele>
        <time>2013-04-21T12:05:32Z</time>
      </trkpt>
      <trkpt lat="48.43455" lon="2.72615">
        <ele>123</ele>
        <time>2013-04-21T12:05:33Z</time>
      </trkpt>
      <trkpt lat="48.43456" lon="2.72616">
        <ele>123</ele>
        <time>2013-04-21T12:05:34Z</time>
      </trkpt>
      <trkpt lat="48.43456" lon="2.72616">
        <ele>123</ele>
        <time>2013-04-21T12:05:35Z</time>
      </trkpt>
      <trkpt lat="48.43456" lon="2.72617">
        <ele>123</ele>
        <time>2013-04-21T12:05:36Z</time>
      </trkpt>
      <trkpt lat="48.43456" lon="2.72617">
        <ele>123</ele>
        <time>2013-04-21T12:05:37Z</time>
      </trkpt>
      <trkpt lat="48.43456" lon="2.72617">
        <ele>123</ele>
        <time>2013-04-21T12:05:38Z</time>
      </trkpt>
      <trkpt lat="48.43456" lon="2.72617">
        <ele>123</ele>
        <time>2013-04-21T12:05:39Z</time>
      </trkpt>
      <trkpt lat="48.43456" lon="2.72617">
        <ele>123</ele>
        <time>2013-04-21T12:05:40Z</time>
      </trkpt>
      <trkpt lat="48.43457" lon="2.72617">
        <ele>123</ele>
        <time>2013-04-21T12:05:41Z</time>
      </trkpt>
      <trkpt lat="48.43457" lon="2.72617">
        <ele>123</ele>
        <time>2013-04-21T12:05:42Z</time>
      </trkpt>
      <trkpt lat="48.43457" lon="2.72617">
        <ele>123</ele>
        <time>2013-04-21T12:05:43Z</time>
      </trkpt>
      <trkpt lat="48.43457" lon="2.72617">
        <ele>123</ele>
        <time>2013-04-21T12:05:44Z</time>
      </trkpt>
      <trkpt lat="48.43457" lon="2.72618">
        <ele>123</ele>
        <time>2013-04-21T12:05:45Z</time>
      </trkpt>
      <trkpt lat="48.43457" lon="2.72618">
        <ele>123</ele>
        <time>2013-04-21T12:05:46Z</time>
      </trkpt>
      <trkpt lat="48.43458" lon="2.72618">
        <ele>123</ele>
        <time>2013-04-21T12:05:47Z</time>
      </trkpt>
      <trkpt lat="48.43458" lon="2.72618">
        <ele>123</ele>
        <time>2013-04-21T12:05:48Z</time>
      </trkpt>
      <trkpt lat="48.43458" lon="2.72618">
        <ele>123</ele>
        <time>2013-04-21T12:05:49Z</time>
      </trkpt>
      <trkpt lat="48.43458" lon="2.72618">
        <ele>123</ele>
        <time>2013-04-21T12:05:50Z</time>
      </trkpt>
      <trkpt lat="48.43458" lon="2.72618">
        <ele>123</ele>
        <time>2013-04-21T12:05:52Z</time>
      </trkpt>
      <trkpt lat="48.43458" lon="2.72618">
        <ele>123</ele>
        <time>2013-04-21T12:05:54Z</time>
      </trkpt>
      <trkpt lat="48.43458" lon="2.72618">
        <ele>123</ele>
        <time>2013-04-21T12:05:55Z</time>
      </trkpt>
      <trkpt lat="48.43458" lon="2.72619">
        <ele>123</ele>
        <time>2013-04-21T12:05:56Z</time>
      </trkpt>
      <trkpt lat="48.43458" lon="2.72619">
        <ele>123</ele>
        <time>2013-04-21T12:05:57Z</time>
      </trkpt>
      <trkpt lat="48.43458" lon="2.72619">
        <ele>123</ele>
        <time>2013-04-21T12:05:58Z</time>
      </trkpt>
      <trkpt lat="48.43458" lon="2.72619">
        <ele>123</ele>
        <time>2013-04-21T12:06:00Z</time>
      </trkpt>
      <trkpt lat="48.43457" lon="2.72619">
        <ele>123</ele>
        <time>2013-04-21T12:06:01Z</time>
      </trkpt>
      <trkpt lat="48.43457" lon="2.72619">
        <ele>123</ele>
        <time>2013-04-21T12:06:02Z</time>
      </trkpt>
      <trkpt lat="48.43457" lon="2.72619">
        <ele>123</ele>
        <time>2013-04-21T12:06:03Z</time>
      </trkpt>
      <trkpt lat="48.43456" lon="2.72619">
        <ele>123</ele>
        <time>2013-04-21T12:06:04Z</time>
      </trkpt>
      <trkpt lat="48.43456" lon="2.72619">
        <ele>123</ele>
        <time>2013-04-21T12:06:05Z</time>
      </trkpt>
      <trkpt lat="48.43455" lon="2.72618">
        <ele>123</ele>
        <time>2013-04-21T12:06:06Z</time>
      </trkpt>
      <trkpt lat="48.43455" lon="2.72618">
        <ele>123</ele>
        <time>2013-04-21T12:06:07Z</time>
      </trkpt>
      <trkpt lat="48.43455" lon="2.72618">
        <ele>123</ele>
        <time>2013-04-21T12:06:08Z</time>
      </trkpt>
      <trkpt lat="48.43455" lon="2.72617">
        <ele>123</ele>
        <time>2013-04-21T12:06:09Z</time>
      </trkpt>
      <trkpt lat="48.43455" lon="2.72616">
        <ele>123</ele>
        <time>2013-04-21T12:06:10Z</time>
      </trkpt>
      <trkpt lat="48.43453" lon="2.72613">
        <ele>123</ele>
        <time>2013-04-21T12:06:13Z</time>
      </trkpt>
      <trkpt lat="48.43453" lon="2.72612">
        <ele>123</ele>
        <time>2013-04-21T12:06:14Z</time>
      </trkpt>
      <trkpt lat="48.43452" lon="2.72612">
        <ele>123</ele>
        <time>2013-04-21T12:06:16Z</time>
      </trkpt>
      <trkpt lat="48.43451" lon="2.72611">
        <ele>123</ele>
        <time>2013-04-21T12:06:18Z</time>
      </trkpt>
      <trkpt lat="48.4345" lon="2.72611">
        <ele>123</ele>
        <time>2013-04-21T12:06:19Z</time>
      </trkpt>
      <trkpt lat="48.43449" lon="2.72611">
        <ele>123</ele>
        <time>2013-04-21T12:06:20Z</time>
      </trkpt>
      <trkpt lat="48.43448" lon="2.72611">
        <ele>123</ele>
        <time>2013-04-21T12:06:21Z</time>
      </trkpt>
      <trkpt lat="48.43448" lon="2.7261">
        <ele>123</ele>
        <time>2013-04-21T12:06:22Z</time>
      </trkpt>
      <trkpt lat="48.43447" lon="2.72609">
        <ele>123</ele>
        <time>2013-04-21T12:06:23Z</time>
      </trkpt>
      <trkpt lat="48.43446" lon="2.72609">
        <ele>123</ele>
        <time>2013-04-21T12:06:24Z</time>
      </trkpt>
      <trkpt lat="48.43444" lon="2.72609">
        <ele>124</ele>
        <time>2013-04-21T12:06:26Z</time>
      </trkpt>
      <trkpt lat="48.43443" lon="2.72608">
        <ele>124</ele>
        <time>2013-04-21T12:06:27Z</time>
      </trkpt>
      <trkpt lat="48.43443" lon="2.72608">
        <ele>124</ele>
        <time>2013-04-21T12:06:28Z</time>
      </trkpt>
      <trkpt lat="48.43442" lon="2.72608">
        <ele>124</ele>
        <time>2013-04-21T12:06:29Z</time>
      </trkpt>
      <trkpt lat="48.43443" lon="2.72608">
        <ele>124</ele>
        <time>2013-04-21T12:06:30Z</time>
      </trkpt>
      <trkpt lat="48.43442" lon="2.72608">
        <ele>124</ele>
        <time>2013-04-21T12:06:32Z</time>
      </trkpt>
      <trkpt lat="48.43443" lon="2.72608">
        <ele>124</ele>
        <time>2013-04-21T12:06:33Z</time>
      </trkpt>
      <trkpt lat="48.43442" lon="2.72608">
        <ele>124</ele>
        <time>2013-04-21T12:06:35Z</time>
      </trkpt>
      <trkpt lat="48.43442" lon="2.72608">
        <ele>124</ele>
        <time>2013-04-21T12:06:36Z</time>
      </trkpt>
      <trkpt lat="48.43443" lon="2.72608">
        <ele>124</ele>
        <time>2013-04-21T12:06:38Z</time>
      </trkpt>
      <trkpt lat="48.43443" lon="2.72608">
        <ele>124</ele>
        <time>2013-04-21T12:06:41Z</time>
      </trkpt>
      <trkpt lat="48.43443" lon="2.72608">
        <ele>124</ele>
        <time>2013-04-21T12:06:43Z</time>
      </trkpt>
      <trkpt lat="48.43451" lon="2.7261">
        <ele>123</ele>
        <time>2013-04-21T12:06:48Z</time>
      </trkpt>
      <trkpt lat="48.43454" lon="2.72614">
        <ele>123</ele>
        <time>2013-04-21T12:06:49Z</time>
      </trkpt>
      <trkpt lat="48.43456" lon="2.72621">
        <ele>123</ele>
        <time>2013-04-21T12:06:50Z</time>
      </trkpt>
      <trkpt lat="48.43458" lon="2.72624">
        <ele>123</ele>
        <time>2013-04-21T12:06:51Z</time>
      </trkpt>
      <trkpt lat="48.43462" lon="2.72627">
        <ele>122</ele>
        <time>2013-04-21T12:06:53Z</time>
      </trkpt>
      <trkpt lat="48.43462" lon="2.72627">
        <ele>122</ele>
        <time>2013-04-21T12:06:54Z</time>
      </trkpt>
      <trkpt lat="48.43462" lon="2.72627">
        <ele>122</ele>
        <time>2013-04-21T12:06:55Z</time>
      </trkpt>
      <trkpt lat="48.43462" lon="2.72627">
        <ele>122</ele>
        <time>2013-04-21T12:06:56Z</time>
      </trkpt>
      <trkpt lat="48.43463" lon="2.72627">
        <ele>122</ele>
        <time>2013-04-21T12:06:57Z</time>
      </trkpt>
      <trkpt lat="48.43463" lon="2.72627">
        <ele>122</ele>
        <time>2013-04-21T12:06:58Z</time>
      </trkpt>
      <trkpt lat="48.43463" lon="2.72627">
        <ele>122</ele>
        <time>2013-04-21T12:06:59Z</time>
      </trkpt>
      <trkpt lat="48.43464" lon="2.72628">
        <ele>122</ele>
        <time>2013-04-21T12:07:05Z</time>
      </trkpt>
      <trkpt lat="48.43464" lon="2.72628">
        <ele>122</ele>
        <time>2013-04-21T12:07:07Z</time>
      </trkpt>
      <trkpt lat="48.43464" lon="2.72628">
        <ele>122</ele>
        <time>2013-04-21T12:07:08Z</time>
      </trkpt>
      <trkpt lat="48.43465" lon="2.72628">
        <ele>122</ele>
        <time>2013-04-21T12:07:09Z</time>
      </trkpt>
      <trkpt lat="48.43465" lon="2.72628">
        <ele>122</ele>
        <time>2013-04-21T12:07:10Z</time>
      </trkpt>
      <trkpt lat="48.43465" lon="2.72628">
        <ele>122</ele>
        <time>2013-04-21T12:07:11Z</time>
      </trkpt>
      <trkpt lat="48.43465" lon="2.72628">
        <ele>122</ele>
        <time>2013-04-21T12:07:12Z</time>
      </trkpt>
      <trkpt lat="48.43465" lon="2.72628">
        <ele>122</ele>
        <time>2013-04-21T12:07:13Z</time>
      </trkpt>
      <trkpt lat="48.43468" lon="2.72629">
        <ele>122</ele>
        <time>2013-04-21T12:07:26Z</time>
      </trkpt>
      <trkpt lat="48.43468" lon="2.72629">
        <ele>122</ele>
        <time>2013-04-21T12:07:27Z</time>
      </trkpt>
      <trkpt lat="48.4347" lon="2.72631">
        <ele>122</ele>
        <time>2013-04-21T12:07:31Z</time>
      </trkpt>
      <trkpt lat="48.43473" lon="2.72636">
        <ele>122</ele>
        <time>2013-04-21T12:07:33Z</time>
      </trkpt>
      <trkpt lat="48.43477" lon="2.72649">
        <ele>121</ele>
        <time>2013-04-21T12:07:36Z</time>
      </trkpt>
      <trkpt lat="48.43479" lon="2.72652">
        <ele>121</ele>
        <time>2013-04-21T12:07:37Z</time>
      </trkpt>
      <trkpt lat="48.43487" lon="2.72658">
        <ele>120</ele>
        <time>2013-04-21T12:07:39Z</time>
      </trkpt>
      <trkpt lat="48.43491" lon="2.72659">
        <ele>119</ele>
        <time>2013-04-21T12:07:40Z</time>
      </trkpt>
      <trkpt lat="48.43495" lon="2.72661">
        <ele>118</ele>
        <time>2013-04-21T12:07:41Z</time>
      </trkpt>
      <trkpt lat="48.43497" lon="2.72664">
        <ele>118</ele>
        <time>2013-04-21T12:07:42Z</time>
      </trkpt>
      <trkpt lat="48.43499" lon="2.72667">
        <ele>117</ele>
        <time>2013-04-21T12:07:43Z</time>
      </trkpt>
      <trkpt lat="48.43502" lon="2.72669">
        <ele>117</ele>
        <time>2013-04-21T12:07:44Z</time>
      </trkpt>
      <trkpt lat="48.43502" lon="2.72669">
        <ele>117</ele>
        <time>2013-04-21T12:07:45Z</time>
      </trkpt>
      <trkpt lat="48.43502" lon="2.72669">
        <ele>117</ele>
        <time>2013-04-21T12:07:46Z</time>
      </trkpt>
      <trkpt lat="48.43502" lon="2.72669">
        <ele>117</ele>
        <time>2013-04-21T12:07:47Z</time>
      </trkpt>
      <trkpt lat="48.43503" lon="2.72669">
        <ele>116</ele>
        <time>2013-04-21T12:07:49Z</time>
      </trkpt>
      <trkpt lat="48.43502" lon="2.7267">
        <ele>116</ele>
        <time>2013-04-21T12:07:50Z</time>
      </trkpt>
      <trkpt lat="48.43502" lon="2.72669">
        <ele>117</ele>
        <time>2013-04-21T12:07:51Z</time>
      </trkpt>
      <trkpt lat="48.43502" lon="2.72669">
        <ele>117</ele>
        <time>2013-04-21T12:07:52Z</time>
      </trkpt>
      <trkpt lat="48.43501" lon="2.72668">
        <ele>117</ele>
        <time>2013-04-21T12:07:53Z</time>
      </trkpt>
      <trkpt lat="48.43501" lon="2.72668">
        <ele>117</ele>
        <time>2013-04-21T12:07:54Z</time>
      </trkpt>
      <trkpt lat="48.435" lon="2.72667">
        <ele>117</ele>
        <time>2013-04-21T12:07:55Z</time>
      </trkpt>
      <trkpt lat="48.43499" lon="2.72667">
        <ele>117</ele>
        <time>2013-04-21T12:07:56Z</time>
      </trkpt>
      <trkpt lat="48.43499" lon="2.72667">
        <ele>117</ele>
        <time>2013-04-21T12:07:57Z</time>
      </trkpt>
      <trkpt lat="48.43498" lon="2.72666">
        <ele>117</ele>
        <time>2013-04-21T12:07:58Z</time>
      </trkpt>
      <trkpt lat="48.43496" lon="2.72663">
        <ele>118</ele>
        <time>2013-04-21T12:08:01Z</time>
      </trkpt>
      <trkpt lat="48.43495" lon="2.72662">
        <ele>118</ele>
        <time>2013-04-21T12:08:02Z</time>
      </trkpt>
      <trkpt lat="48.43494" lon="2.72662">
        <ele>118</ele>
        <time>2013-04-21T12:08:03Z</time>
      </trkpt>
      <trkpt lat="48.43494" lon="2.72662">
        <ele>119</ele>
        <time>2013-04-21T12:08:04Z</time>
      </trkpt>
      <trkpt lat="48.43491" lon="2.72662">
        <ele>119</ele>
        <time>2013-04-21T12:08:07Z</time>
      </trkpt>
      <trkpt lat="48.43491" lon="2.72661">
        <ele>119</ele>
        <time>2013-04-21T12:08:08Z</time>
      </trkpt>
      <trkpt lat="48.43491" lon="2.72662">
        <ele>119</ele>
        <time>2013-04-21T12:08:09Z</time>
      </trkpt>
      <trkpt lat="48.43491" lon="2.72662">
        <ele>119</ele>
        <time>2013-04-21T12:08:10Z</time>
      </trkpt>
      <trkpt lat="48.43491" lon="2.72661">
        <ele>119</ele>
        <time>2013-04-21T12:08:11Z</time>
      </trkpt>
      <trkpt lat="48.43489" lon="2.72661">
        <ele>119</ele>
        <time>2013-04-21T12:08:14Z</time>
      </trkpt>
      <trkpt lat="48.43487" lon="2.72661">
        <ele>119</ele>
        <time>2013-04-21T12:08:16Z</time>
      </trkpt>
      <trkpt lat="48.43487" lon="2.72661">
        <ele>119</ele>
        <time>2013-04-21T12:08:18Z</time>
      </trkpt>
      <trkpt lat="48.43487" lon="2.72661">
        <ele>119</ele>
        <time>2013-04-21T12:08:19Z</time>
      </trkpt>
      <trkpt lat="48.43487" lon="2.72661">
        <ele>119</ele>
        <time>2013-04-21T12:08:21Z</time>
      </trkpt>
      <trkpt lat="48.43487" lon="2.72661">
        <ele>119</ele>
        <time>2013-04-21T12:08:22Z</time>
      </trkpt>
      <trkpt lat="48.43486" lon="2.72661">
        <ele>120</ele>
        <time>2013-04-21T12:08:24Z</time>
      </trkpt>
      <trkpt lat="48.43486" lon="2.72661">
        <ele>120</ele>
        <time>2013-04-21T12:08:25Z</time>
      </trkpt>
      <trkpt lat="48.43486" lon="2.72661">
        <ele>120</ele>
        <time>2013-04-21T12:08:26Z</time>
      </trkpt>
      <trkpt lat="48.43486" lon="2.72661">
        <ele>120</ele>
        <time>2013-04-21T12:08:28Z</time>
      </trkpt>
      <trkpt lat="48.43486" lon="2.72661">
        <ele>120</ele>
        <time>2013-04-21T12:08:30Z</time>
      </trkpt>
      <trkpt lat="48.43485" lon="2.72661">
        <ele>120</ele>
        <time>2013-04-21T12:08:32Z</time>
      </trkpt>
      <trkpt lat="48.43485" lon="2.72662">
        <ele>120</ele>
        <time>2013-04-21T12:08:35Z</time>
      </trkpt>
      <trkpt lat="48.43485" lon="2.72662">
        <ele>120</ele>
        <time>2013-04-21T12:08:38Z</time>
      </trkpt>
      <trkpt lat="48.43484" lon="2.72662">
        <ele>120</ele>
        <time>2013-04-21T12:08:39Z</time>
      </trkpt>
      <trkpt lat="48.43484" lon="2.72662">
        <ele>120</ele>
        <time>2013-04-21T12:08:42Z</time>
      </trkpt>
      <trkpt lat="48.43484" lon="2.72662">
        <ele>120</ele>
        <time>2013-04-21T12:08:44Z</time>
      </trkpt>
      <trkpt lat="48.43484" lon="2.72662">
        <ele>120</ele>
        <time>2013-04-21T12:08:46Z</time>
      </trkpt>
      <trkpt lat="48.43484" lon="2.72662">
        <ele>120</ele>
        <time>2013-04-21T12:08:48Z</time>
      </trkpt>
      <trkpt lat="48.43484" lon="2.72662">
        <ele>120</ele>
        <time>2013-04-21T12:08:50Z</time>
      </trkpt>
      <trkpt lat="48.43484" lon="2.72662">
        <ele>120</ele>
        <time>2013-04-21T12:08:53Z</time>
      </trkpt>
      <trkpt lat="48.43484" lon="2.72662">
        <ele>120</ele>
        <time>2013-04-21T12:08:55Z</time>
      </trkpt>
      <trkpt lat="48.43484" lon="2.72662">
        <ele>120</ele>
        <time>2013-04-21T12:08:56Z</time>
      </trkpt>
      <trkpt lat="48.43484" lon="2.72662">
        <ele>120</ele>
        <time>2013-04-21T12:08:57Z</time>
      </trkpt>
      <trkpt lat="48.43483" lon="2.72662">
        <ele>120</ele>
        <time>2013-04-21T12:08:58Z</time>
      </trkpt>
      <trkpt lat="48.43483" lon="2.72661">
        <ele>120</ele>
        <time>2013-04-21T12:08:59Z</time>
      </trkpt>
      <trkpt lat="48.43483" lon="2.72661">
        <ele>120</ele>
        <time>2013-04-21T12:09:00Z</time>
      </trkpt>
      <trkpt lat="48.43483" lon="2.72661">
        <ele>120</ele>
        <time>2013-04-21T12:09:01Z</time>
      </trkpt>
      <trkpt lat="48.43483" lon="2.72661">
        <ele>120</ele>
        <time>2013-04-21T12:09:02Z</time>
      </trkpt>
      <trkpt lat="48.43483" lon="2.72661">
        <ele>120</ele>
        <time>2013-04-21T12:09:03Z</time>
      </trkpt>
      <trkpt lat="48.43483" lon="2.7266">
        <ele>120</ele>
        <time>2013-04-21T12:09:04Z</time>
      </trkpt>
      <trkpt lat="48.43483" lon="2.7266">
        <ele>120</ele>
        <time>2013-04-21T12:09:05Z</time>
      </trkpt>
      <trkpt lat="48.43483" lon="2.7266">
        <ele>120</ele>
        <time>2013-04-21T12:09:06Z</time>
      </trkpt>
      <trkpt lat="48.43483" lon="2.7266">
        <ele>120</ele>
        <time>2013-04-21T12:09:07Z</time>
      </trkpt>
      <trkpt lat="48.43483" lon="2.7266">
        <ele>120</ele>
        <time>2013-04-21T12:09:08Z</time>
      </trkpt>
      <trkpt lat="48.43483" lon="2.7266">
        <ele>120</ele>
        <time>2013-04-21T12:09:09Z</time>
      </trkpt>
      <trkpt lat="48.43483" lon="2.72659">
        <ele>120</ele>
        <time>2013-04-21T12:09:10Z</time>
      </trkpt>
      <trkpt lat="48.43482" lon="2.72659">
        <ele>120</ele>
        <time>2013-04-21T12:09:11Z</time>
      </trkpt>
      <trkpt lat="48.43482" lon="2.72659">
        <ele>120</ele>
        <time>2013-04-21T12:09:12Z</time>
      </trkpt>
      <trkpt lat="48.43482" lon="2.72659">
        <ele>120</ele>
        <time>2013-04-21T12:09:13Z</time>
      </trkpt>
      <trkpt lat="48.43482" lon="2.72659">
        <ele>120</ele>
        <time>2013-04-21T12:09:15Z</time>
      </trkpt>
      <trkpt lat="48.43482" lon="2.72659">
        <ele>120</ele>
        <time>2013-04-21T12:09:17Z</time>
      </trkpt>
      <trkpt lat="48.43482" lon="2.72658">
        <ele>120</ele>
        <time>2013-04-21T12:09:18Z</time>
      </trkpt>
      <trkpt lat="48.43482" lon="2.72658">
        <ele>120</ele>
        <time>2013-04-21T12:09:19Z</time>
      </trkpt>
      <trkpt lat="48.43482" lon="2.72658">
        <ele>120</ele>
        <time>2013-04-21T12:09:22Z</time>
      </trkpt>
      <trkpt lat="48.43482" lon="2.72658">
        <ele>120</ele>
        <time>2013-04-21T12:09:24Z</time>
      </trkpt>
      <trkpt lat="48.43482" lon="2.72658">
        <ele>120</ele>
        <time>2013-04-21T12:09:25Z</time>
      </trkpt>
      <trkpt lat="48.43482" lon="2.72658">
        <ele>120</ele>
        <time>2013-04-21T12:09:27Z</time>
      </trkpt>
      <trkpt lat="48.43482" lon="2.72657">
        <ele>120</ele>
        <time>2013-04-21T12:09:29Z</time>
      </trkpt>
      <trkpt lat="48.43481" lon="2.72657">
        <ele>120</ele>
        <time>2013-04-21T12:09:30Z</time>
      </trkpt>
      <trkpt lat="48.43481" lon="2.72657">
        <ele>120</ele>
        <time>2013-04-21T12:09:33Z</time>
      </trkpt>
      <trkpt lat="48.43481" lon="2.72657">
        <ele>120</ele>
        <time>2013-04-21T12:09:34Z</time>
      </trkpt>
      <trkpt lat="48.43481" lon="2.72657">
        <ele>120</ele>
        <time>2013-04-21T12:09:35Z</time>
      </trkpt>
      <trkpt lat="48.43481" lon="2.72657">
        <ele>120</ele>
        <time>2013-04-21T12:09:36Z</time>
      </trkpt>
      <trkpt lat="48.43481" lon="2.72657">
        <ele>120</ele>
        <time>2013-04-21T12:09:38Z</time>
      </trkpt>
      <trkpt lat="48.43481" lon="2.72657">
        <ele>120</ele>
        <time>2013-04-21T12:09:39Z</time>
      </trkpt>
      <trkpt lat="48.43481" lon="2.72657">
        <ele>120</ele>
        <time>2013-04-21T12:09:40Z</time>
      </trkpt>
      <trkpt lat="48.43481" lon="2.72657">
        <ele>120</ele>
        <time>2013-04-21T12:09:42Z</time>
      </trkpt>
      <trkpt lat="48.4348" lon="2.72657">
        <ele>120</ele>
        <time>2013-04-21T12:09:43Z</time>
      </trkpt>
      <trkpt lat="48.4348" lon="2.72656">
        <ele>120</ele>
        <time>2013-04-21T12:09:44Z</time>
      </trkpt>
      <trkpt lat="48.4348" lon="2.72657">
        <ele>120</ele>
        <time>2013-04-21T12:09:45Z</time>
      </trkpt>
      <trkpt lat="48.4348" lon="2.72657">
        <ele>120</ele>
        <time>2013-04-21T12:09:47Z</time>
      </trkpt>
      <trkpt lat="48.4348" lon="2.72657">
        <ele>120</ele>
        <time>2013-04-21T12:09:49Z</time>
      </trkpt>
      <trkpt lat="48.4348" lon="2.72657">
        <ele>120</ele>
        <time>2013-04-21T12:09:50Z</time>
      </trkpt>
      <trkpt lat="48.4348" lon="2.72657">
        <ele>120</ele>
        <time>2013-04-21T12:09:51Z</time>
      </trkpt>
      <trkpt lat="48.4348" lon="2.72657">
        <ele>120</ele>
        <time>2013-04-21T12:09:53Z</time>
      </trkpt>
      <trkpt lat="48.4348" lon="2.72657">
        <ele>120</ele>
        <time>2013-04-21T12:09:54Z</time>
      </trkpt>
      <trkpt lat="48.4348" lon="2.72657">
        <ele>120</ele>
        <time>2013-04-21T12:09:55Z</time>
      </trkpt>
      <trkpt lat="48.4348" lon="2.72658">
        <ele>120</ele>
        <time>2013-04-21T12:09:56Z</time>
      </trkpt>
      <trkpt lat="48.4348" lon="2.72658">
        <ele>120</ele>
        <time>2013-04-21T12:09:57Z</time>
      </trkpt>
      <trkpt lat="48.4348" lon="2.72658">
        <ele>120</ele>
        <time>2013-04-21T12:09:58Z</time>
      </trkpt>
      <trkpt lat="48.4348" lon="2.72658">
        <ele>120</ele>
        <time>2013-04-21T12:09:59Z</time>
      </trkpt>
      <trkpt lat="48.4348" lon="2.72659">
        <ele>120</ele>
        <time>2013-04-21T12:10:00Z</time>
      </trkpt>
      <trkpt lat="48.4348" lon="2.72659">
        <ele>120</ele>
        <time>2013-04-21T12:10:01Z</time>
      </trkpt>
      <trkpt lat="48.4348" lon="2.72659">
        <ele>120</ele>
        <time>2013-04-21T12:10:02Z</time>
      </trkpt>
      <trkpt lat="48.4348" lon="2.7266">
        <ele>120</ele>
        <time>2013-04-21T12:10:03Z</time>
      </trkpt>
      <trkpt lat="48.4348" lon="2.7266">
        <ele>120</ele>
        <time>2013-04-21T12:10:04Z</time>
      </trkpt>
      <trkpt lat="48.4348" lon="2.7266">
        <ele>120</ele>
        <time>2013-04-21T12:10:05Z</time>
      </trkpt>
      <trkpt lat="48.4348" lon="2.72661">
        <ele>120</ele>
        <time>2013-04-21T12:10:06Z</time>
      </trkpt>
      <trkpt lat="48.4348" lon="2.72662">
        <ele>120</ele>
        <time>2013-04-21T12:10:07Z</time>
      </trkpt>
      <trkpt lat="48.4348" lon="2.72662">
        <ele>120</ele>
        <time>2013-04-21T12:10:08Z</time>
      </trkpt>
      <trkpt lat="48.4348" lon="2.72662">
        <ele>120</ele>
        <time>2013-04-21T12:10:09Z</time>
      </trkpt>
      <trkpt lat="48.4348" lon="2.72663">
        <ele>120</ele>
        <time>2013-04-21T12:10:10Z</time>
      </trkpt>
      <trkpt lat="48.4348" lon="2.72663">
        <ele>120</ele>
        <time>2013-04-21T12:10:11Z</time>
      </trkpt>
      <trkpt lat="48.4348" lon="2.72663">
        <ele>120</ele>
        <time>2013-04-21T12:10:12Z</time>
      </trkpt>
      <trkpt lat="48.4348" lon="2.72664">
        <ele>120</ele>
        <time>2013-04-21T12:10:13Z</time>
      </trkpt>
      <trkpt lat="48.4348" lon="2.72664">
        <ele>120</ele>
        <time>2013-04-21T12:10:14Z</time>
      </trkpt>
      <trkpt lat="48.4348" lon="2.72664">
        <ele>120</ele>
        <time>2013-04-21T12:10:15Z</time>
      </trkpt>
      <trkpt lat="48.4348" lon="2.72665">
        <ele>120</ele>
        <time>2013-04-21T12:10:16Z</time>
      </trkpt>
      <trkpt lat="48.4348" lon="2.72665">
        <ele>120</ele>
        <time>2013-04-21T12:10:17Z</time>
      </trkpt>
      <trkpt lat="48.4348" lon="2.72665">
        <ele>120</ele>
        <time>2013-04-21T12:10:18Z</time>
      </trkpt>
      <trkpt lat="48.4348" lon="2.72665">
        <ele>120</ele>
        <time>2013-04-21T12:10:19Z</time>
      </trkpt>
      <trkpt lat="48.4348" lon="2.72666">
        <ele>120</ele>
        <time>2013-04-21T12:10:20Z</time>
      </trkpt>
      <trkpt lat="48.4348" lon="2.72666">
        <ele>120</ele>
        <time>2013-04-21T12:10:21Z</time>
      </trkpt>
      <trkpt lat="48.4348" lon="2.72666">
        <ele>120</ele>
        <time>2013-04-21T12:10:22Z</time>
      </trkpt>
      <trkpt lat="48.4348" lon="2.72666">
        <ele>120</ele>
        <time>2013-04-21T12:10:23Z</time>
      </trkpt>
      <trkpt lat="48.4348" lon="2.72666">
        <ele>120</ele>
        <time>2013-04-21T12:10:24Z</time>
      </trkpt>
      <trkpt lat="48.43481" lon="2.72666">
        <ele>120</ele>
        <time>2013-04-21T12:10:25Z</time>
      </trkpt>
      <trkpt lat="48.43481" lon="2.72666">
        <ele>120</ele>
        <time>2013-04-21T12:10:26Z</time>
      </trkpt>
      <trkpt lat="48.43481" lon="2.72666">
        <ele>120</ele>
        <time>2013-04-21T12:10:27Z</time>
      </trkpt>
      <trkpt lat="48.43481" lon="2.72666">
        <ele>120</ele>
        <time>2013-04-21T12:10:28Z</time>
      </trkpt>
      <trkpt lat="48.43481" lon="2.72666">
        <ele>120</ele>
        <time>2013-04-21T12:10:29Z</time>
      </trkpt>
      <trkpt lat="48.43481" lon="2.72666">
        <ele>120</ele>
        <time>2013-04-21T12:10:30Z</time>
      </trkpt>
      <trkpt lat="48.43481" lon="2.72666">
        <ele>120</ele>
        <time>2013-04-21T12:10:32Z</time>
      </trkpt>
      <trkpt lat="48.43481" lon="2.72666">
        <ele>120</ele>
        <time>2013-04-21T12:10:33Z</time>
      </trkpt>
      <trkpt lat="48.43481" lon="2.72666">
        <ele>120</ele>
        <time>2013-04-21T12:10:35Z</time>
      </trkpt>
      <trkpt lat="48.43482" lon="2.72666">
        <ele>120</ele>
        <time>2013-04-21T12:10:38Z</time>
      </trkpt>
      <trkpt lat="48.43482" lon="2.72666">
        <ele>120</ele>
        <time>2013-04-21T12:10:41Z</time>
      </trkpt>
      <trkpt lat="48.43482" lon="2.72666">
        <ele>120</ele>
        <time>2013-04-21T12:10:45Z</time>
      </trkpt>
      <trkpt lat="48.43482" lon="2.72666">
        <ele>120</ele>
        <time>2013-04-21T12:10:47Z</time>
      </trkpt>
      <trkpt lat="48.43482" lon="2.72666">
        <ele>120</ele>
        <time>2013-04-21T12:10:48Z</time>
      </trkpt>
      <trkpt lat="48.43482" lon="2.72666">
        <ele>120</ele>
        <time>2013-04-21T12:10:50Z</time>
      </trkpt>
      <trkpt lat="48.43482" lon="2.72666">
        <ele>120</ele>
        <time>2013-04-21T12:10:51Z</time>
      </trkpt>
      <trkpt lat="48.43482" lon="2.72665">
        <ele>120</ele>
        <time>2013-04-21T12:10:56Z</time>
      </trkpt>
      <trkpt lat="48.43482" lon="2.72665">
        <ele>120</ele>
        <time>2013-04-21T12:11:02Z</time>
      </trkpt>
      <trkpt lat="48.43482" lon="2.72665">
        <ele>120</ele>
        <time>2013-04-21T12:11:06Z</time>
      </trkpt>
      <trkpt lat="48.43482" lon="2.72665">
        <ele>120</ele>
        <time>2013-04-21T12:11:08Z</time>
      </trkpt>
      <trkpt lat="48.43482" lon="2.72665">
        <ele>120</ele>
        <time>2013-04-21T12:11:17Z</time>
      </trkpt>
      <trkpt lat="48.43483" lon="2.72665">
        <ele>120</ele>
        <time>2013-04-21T12:11:23Z</time>
      </trkpt>
      <trkpt lat="48.43483" lon="2.72665">
        <ele>120</ele>
        <time>2013-04-21T12:11:25Z</time>
      </trkpt>
      <trkpt lat="48.43483" lon="2.72665">
        <ele>120</ele>
        <time>2013-04-21T12:11:28Z</time>
      </trkpt>
      <trkpt lat="48.43483" lon="2.72665">
        <ele>120</ele>
        <time>2013-04-21T12:11:30Z</time>
      </trkpt>
      <trkpt lat="48.43482" lon="2.72665">
        <ele>120</ele>
        <time>2013-04-21T12:11:31Z</time>
      </trkpt>
      <trkpt lat="48.43482" lon="2.72664">
        <ele>120</ele>
        <time>2013-04-21T12:11:32Z</time>
      </trkpt>
      <trkpt lat="48.43481" lon="2.72664">
        <ele>120</ele>
        <time>2013-04-21T12:11:33Z</time>
      </trkpt>
      <trkpt lat="48.43481" lon="2.72663">
        <ele>120</ele>
        <time>2013-04-21T12:11:34Z</time>
      </trkpt>
      <trkpt lat="48.43481" lon="2.72663">
        <ele>120</ele>
        <time>2013-04-21T12:11:35Z</time>
      </trkpt>
      <trkpt lat="48.43481" lon="2.72663">
        <ele>120</ele>
        <time>2013-04-21T12:11:37Z</time>
      </trkpt>
      <trkpt lat="48.43482" lon="2.72663">
        <ele>120</ele>
        <time>2013-04-21T12:11:39Z</time>
      </trkpt>
      <trkpt lat="48.43481" lon="2.72662">
        <ele>120</ele>
        <time>2013-04-21T12:11:41Z</time>
      </trkpt>
      <trkpt lat="48.43481" lon="2.72661">
        <ele>120</ele>
        <time>2013-04-21T12:11:42Z</time>
      </trkpt>
      <trkpt lat="48.4348" lon="2.7266">
        <ele>120</ele>
        <time>2013-04-21T12:11:43Z</time>
      </trkpt>
      <trkpt lat="48.4348" lon="2.7266">
        <ele>120</ele>
        <time>2013-04-21T12:11:44Z</time>
      </trkpt>
      <trkpt lat="48.4348" lon="2.7266">
        <ele>120</ele>
        <time>2013-04-21T12:11:45Z</time>
      </trkpt>
      <trkpt lat="48.43478" lon="2.72658">
        <ele>120</ele>
        <time>2013-04-21T12:11:47Z</time>
      </trkpt>
      <trkpt lat="48.43477" lon="2.72656">
        <ele>121</ele>
        <time>2013-04-21T12:11:49Z</time>
      </trkpt>
      <trkpt lat="48.43476" lon="2.72655">
        <ele>121</ele>
        <time>2013-04-21T12:11:51Z</time>
      </trkpt>
      <trkpt lat="48.43475" lon="2.72654">
        <ele>121</ele>
        <time>2013-04-21T12:11:52Z</time>
      </trkpt>
      <trkpt lat="48.43474" lon="2.72653">
        <ele>121</ele>
        <time>2013-04-21T12:11:53Z</time>
      </trkpt>
      <trkpt lat="48.43473" lon="2.72649">
        <ele>121</ele>
        <time>2013-04-21T12:11:56Z</time>
      </trkpt>
      <trkpt lat="48.43473" lon="2.72645">
        <ele>121</ele>
        <time>2013-04-21T12:11:59Z</time>
      </trkpt>
      <trkpt lat="48.43472" lon="2.72643">
        <ele>121</ele>
        <time>2013-04-21T12:12:00Z</time>
      </trkpt>
      <trkpt lat="48.43472" lon="2.72642">
        <ele>121</ele>
        <time>2013-04-21T12:12:01Z</time>
      </trkpt>
      <trkpt lat="48.43471" lon="2.72641">
        <ele>122</ele>
        <time>2013-04-21T12:12:02Z</time>
      </trkpt>
      <trkpt lat="48.43471" lon="2.7264">
        <ele>122</ele>
        <time>2013-04-21T12:12:03Z</time>
      </trkpt>
      <trkpt lat="48.43471" lon="2.7264">
        <ele>122</ele>
        <time>2013-04-21T12:12:04Z</time>
      </trkpt>
      <trkpt lat="48.4347" lon="2.72639">
        <ele>122</ele>
        <time>2013-04-21T12:12:05Z</time>
      </trkpt>
      <trkpt lat="48.43471" lon="2.72639">
        <ele>122</ele>
        <time>2013-04-21T12:12:06Z</time>
      </trkpt>
      <trkpt lat="48.4347" lon="2.72638">
        <ele>122</ele>
        <time>2013-04-21T12:12:07Z</time>
      </trkpt>
      <trkpt lat="48.4347" lon="2.72637">
        <ele>122</ele>
        <time>2013-04-21T12:12:08Z</time>
      </trkpt>
      <trkpt lat="48.43469" lon="2.72635">
        <ele>122</ele>
        <time>2013-04-21T12:12:10Z</time>
      </trkpt>
      <trkpt lat="48.43468" lon="2.72634">
        <ele>122</ele>
        <time>2013-04-21T12:12:11Z</time>
      </trkpt>
      <trkpt lat="48.43467" lon="2.72631">
        <ele>122</ele>
        <time>2013-04-21T12:12:13Z</time>
      </trkpt>
      <trkpt lat="48.43464" lon="2.72629">
        <ele>122</ele>
        <time>2013-04-21T12:12:16Z</time>
      </trkpt>
      <trkpt lat="48.43464" lon="2.72628">
        <ele>122</ele>
        <time>2013-04-21T12:12:17Z</time>
      </trkpt>
      <trkpt lat="48.43463" lon="2.72628">
        <ele>122</ele>
        <time>2013-04-21T12:12:18Z</time>
      </trkpt>
      <trkpt lat="48.43464" lon="2.72628">
        <ele>122</ele>
        <time>2013-04-21T12:12:21Z</time>
      </trkpt>
      <trkpt lat="48.43464" lon="2.72628">
        <ele>122</ele>
        <time>2013-04-21T12:12:23Z</time>
      </trkpt>
      <trkpt lat="48.43465" lon="2.72629">
        <ele>122</ele>
        <time>2013-04-21T12:12:26Z</time>
      </trkpt>
      <trkpt lat="48.43468" lon="2.72631">
        <ele>122</ele>
        <time>2013-04-21T12:12:28Z</time>
      </trkpt>
      <trkpt lat="48.43471" lon="2.72637">
        <ele>122</ele>
        <time>2013-04-21T12:12:30Z</time>
      </trkpt>
      <trkpt lat="48.43473" lon="2.72642">
        <ele>121</ele>
        <time>2013-04-21T12:12:31Z</time>
      </trkpt>
      <trkpt lat="48.43475" lon="2.72648">
        <ele>121</ele>
        <time>2013-04-21T12:12:32Z</time>
      </trkpt>
      <trkpt lat="48.43478" lon="2.72653">
        <ele>121</ele>
        <time>2013-04-21T12:12:33Z</time>
      </trkpt>
      <trkpt lat="48.43487" lon="2.7266">
        <ele>120</ele>
        <time>2013-04-21T12:12:35Z</time>
      </trkpt>
      <trkpt lat="48.43494" lon="2.72661">
        <ele>119</ele>
        <time>2013-04-21T12:12:37Z</time>
      </trkpt>
      <trkpt lat="48.43494" lon="2.72661">
        <ele>119</ele>
        <time>2013-04-21T12:12:38Z</time>
      </trkpt>
      <trkpt lat="48.43494" lon="2.72661">
        <ele>119</ele>
        <time>2013-04-21T12:12:39Z</time>
      </trkpt>
      <trkpt lat="48.43494" lon="2.72661">
        <ele>119</ele>
        <time>2013-04-21T12:12:40Z</time>
      </trkpt>
      <trkpt lat="48.43494" lon="2.72661">
        <ele>119</ele>
        <time>2013-04-21T12:12:41Z</time>
      </trkpt>
      <trkpt lat="48.43494" lon="2.72661">
        <ele>119</ele>
        <time>2013-04-21T12:12:42Z</time>
      </trkpt>
      <trkpt lat="48.43495" lon="2.72661">
        <ele>119</ele>
        <time>2013-04-21T12:12:43Z</time>
      </trkpt>
      <trkpt lat="48.43495" lon="2.72661">
        <ele>119</ele>
        <time>2013-04-21T12:12:45Z</time>
      </trkpt>
      <trkpt lat="48.43495" lon="2.72661">
        <ele>119</ele>
        <time>2013-04-21T12:12:46Z</time>
      </trkpt>
      <trkpt lat="48.43495" lon="2.7266">
        <ele>119</ele>
        <time>2013-04-21T12:12:47Z</time>
      </trkpt>
      <trkpt lat="48.43495" lon="2.7266">
        <ele>119</ele>
        <time>2013-04-21T12:12:49Z</time>
      </trkpt>
      <trkpt lat="48.43495" lon="2.7266">
        <ele>119</ele>
        <time>2013-04-21T12:12:53Z</time>
      </trkpt>
      <trkpt lat="48.43495" lon="2.7266">
        <ele>119</ele>
        <time>2013-04-21T12:12:59Z</time>
      </trkpt>
      <trkpt lat="48.43495" lon="2.7266">
        <ele>119</ele>
        <time>2013-04-21T12:13:01Z</time>
      </trkpt>
      <trkpt lat="48.43495" lon="2.7266">
        <ele>119</ele>
        <time>2013-04-21T12:13:03Z</time>
      </trkpt>
      <trkpt lat="48.43494" lon="2.7266">
        <ele>119</ele>
        <time>2013-04-21T12:13:04Z</time>
      </trkpt>
      <trkpt lat="48.43494" lon="2.7266">
        <ele>119</ele>
        <time>2013-04-21T12:13:05Z</time>
      </trkpt>
      <trkpt lat="48.43494" lon="2.7266">
        <ele>119</ele>
        <time>2013-04-21T12:13:06Z</time>
      </trkpt>
      <trkpt lat="48.43494" lon="2.7266">
        <ele>119</ele>
        <time>2013-04-21T12:13:07Z</time>
      </trkpt>
      <trkpt lat="48.43494" lon="2.7266">
        <ele>119</ele>
        <time>2013-04-21T12:13:08Z</time>
      </trkpt>
      <trkpt lat="48.43494" lon="2.7266">
        <ele>119</ele>
        <time>2013-04-21T12:13:09Z</time>
      </trkpt>
      <trkpt lat="48.43493" lon="2.7266">
        <ele>119</ele>
        <time>2013-04-21T12:13:10Z</time>
      </trkpt>
      <trkpt lat="48.43493" lon="2.7266">
        <ele>119</ele>
        <time>2013-04-21T12:13:11Z</time>
      </trkpt>
      <trkpt lat="48.43493" lon="2.7266">
        <ele>119</ele>
        <time>2013-04-21T12:13:12Z</time>
      </trkpt>
      <trkpt lat="48.43493" lon="2.7266">
        <ele>119</ele>
        <time>2013-04-21T12:13:13Z</time>
      </trkpt>
      <trkpt lat="48.43493" lon="2.7266">
        <ele>119</ele>
        <time>2013-04-21T12:13:14Z</time>
      </trkpt>
      <trkpt lat="48.43493" lon="2.7266">
        <ele>119</ele>
        <time>2013-04-21T12:13:15Z</time>
      </trkpt>
      <trkpt lat="48.43492" lon="2.7266">
        <ele>119</ele>
        <time>2013-04-21T12:13:16Z</time>
      </trkpt>
      <trkpt lat="48.43492" lon="2.7266">
        <ele>119</ele>
        <time>2013-04-21T12:13:17Z</time>
      </trkpt>
      <trkpt lat="48.43492" lon="2.7266">
        <ele>119</ele>
        <time>2013-04-21T12:13:18Z</time>
      </trkpt>
      <trkpt lat="48.43492" lon="2.7266">
        <ele>119</ele>
        <time>2013-04-21T12:13:19Z</time>
      </trkpt>
      <trkpt lat="48.43492" lon="2.7266">
        <ele>119</ele>
        <time>2013-04-21T12:13:21Z</time>
      </trkpt>
      <trkpt lat="48.43492" lon="2.7266">
        <ele>119</ele>
        <time>2013-04-21T12:13:22Z</time>
      </trkpt>
      <trkpt lat="48.43491" lon="2.7266">
        <ele>119</ele>
        <time>2013-04-21T12:13:24Z</time>
      </trkpt>
      <trkpt lat="48.43491" lon="2.7266">
        <ele>119</ele>
        <time>2013-04-21T12:13:25Z</time>
      </trkpt>
      <trkpt lat="48.43491" lon="2.72661">
        <ele>119</ele>
        <time>2013-04-21T12:13:27Z</time>
      </trkpt>
      <trkpt lat="48.43491" lon="2.72662">
        <ele>119</ele>
        <time>2013-04-21T12:13:28Z</time>
      </trkpt>
      <trkpt lat="48.43491" lon="2.72662">
        <ele>119</ele>
        <time>2013-04-21T12:13:29Z</time>
      </trkpt>
      <trkpt lat="48.43491" lon="2.72662">
        <ele>119</ele>
        <time>2013-04-21T12:13:30Z</time>
      </trkpt>
      <trkpt lat="48.43491" lon="2.72662">
        <ele>119</ele>
        <time>2013-04-21T12:13:32Z</time>
      </trkpt>
      <trkpt lat="48.43491" lon="2.72662">
        <ele>119</ele>
        <time>2013-04-21T12:13:34Z</time>
      </trkpt>
      <trkpt lat="48.43491" lon="2.72662">
        <ele>119</ele>
        <time>2013-04-21T12:13:36Z</time>
      </trkpt>
      <trkpt lat="48.43491" lon="2.72662">
        <ele>119</ele>
        <time>2013-04-21T12:13:37Z</time>
      </trkpt>
      <trkpt lat="48.43491" lon="2.72662">
        <ele>119</ele>
        <time>2013-04-21T12:13:39Z</time>
      </trkpt>
      <trkpt lat="48.4349" lon="2.72662">
        <ele>119</ele>
        <time>2013-04-21T12:13:40Z</time>
      </trkpt>
      <trkpt lat="48.4349" lon="2.72662">
        <ele>119</ele>
        <time>2013-04-21T12:13:41Z</time>
      </trkpt>
      <trkpt lat="48.43487" lon="2.72661">
        <ele>119</ele>
        <time>2013-04-21T12:13:44Z</time>
      </trkpt>
      <trkpt lat="48.43486" lon="2.72661">
        <ele>120</ele>
        <time>2013-04-21T12:13:45Z</time>
      </trkpt>
      <trkpt lat="48.43485" lon="2.72661">
        <ele>120</ele>
        <time>2013-04-21T12:13:46Z</time>
      </trkpt>
      <trkpt lat="48.43483" lon="2.72659">
        <ele>120</ele>
        <time>2013-04-21T12:13:48Z</time>
      </trkpt>
      <trkpt lat="48.43483" lon="2.72658">
        <ele>120</ele>
        <time>2013-04-21T12:13:49Z</time>
      </trkpt>
      <trkpt lat="48.43479" lon="2.72655">
        <ele>120</ele>
        <time>2013-04-21T12:13:53Z</time>
      </trkpt>
      <trkpt lat="48.43478" lon="2.72654">
        <ele>121</ele>
        <time>2013-04-21T12:13:54Z</time>
      </trkpt>
      <trkpt lat="48.43477" lon="2.72654">
        <ele>121</ele>
        <time>2013-04-21T12:13:55Z</time>
      </trkpt>
      <trkpt lat="48.43477" lon="2.72654">
        <ele>121</ele>
        <time>2013-04-21T12:13:56Z</time>
      </trkpt>
      <trkpt lat="48.43477" lon="2.72653">
        <ele>121</ele>
        <time>2013-04-21T12:13:57Z</time>
      </trkpt>
      <trkpt lat="48.43476" lon="2.72653">
        <ele>121</ele>
        <time>2013-04-21T12:13:58Z</time>
      </trkpt>
      <trkpt lat="48.43476" lon="2.72652">
        <ele>121</ele>
        <time>2013-04-21T12:13:59Z</time>
      </trkpt>
      <trkpt lat="48.43476" lon="2.72653">
        <ele>121</ele>
        <time>2013-04-21T12:14:00Z</time>
      </trkpt>
      <trkpt lat="48.43476" lon="2.72653">
        <ele>121</ele>
        <time>2013-04-21T12:14:01Z</time>
      </trkpt>
      <trkpt lat="48.43476" lon="2.72653">
        <ele>121</ele>
        <time>2013-04-21T12:14:05Z</time>
      </trkpt>
      <trkpt lat="48.43477" lon="2.72653">
        <ele>121</ele>
        <time>2013-04-21T12:14:07Z</time>
      </trkpt>
      <trkpt lat="48.43477" lon="2.72653">
        <ele>121</ele>
        <time>2013-04-21T12:14:08Z</time>
      </trkpt>
      <trkpt lat="48.43482" lon="2.72658">
        <ele>120</ele>
        <time>2013-04-21T12:14:10Z</time>
      </trkpt>
      <trkpt lat="48.43486" lon="2.7266">
        <ele>120</ele>
        <time>2013-04-21T12:14:11Z</time>
      </trkpt>
      <trkpt lat="48.43491" lon="2.7266">
        <ele>119</ele>
        <time>2013-04-21T12:14:12Z</time>
      </trkpt>
      <trkpt lat="48.43493" lon="2.72663">
        <ele>119</ele>
        <time>2013-04-21T12:14:13Z</time>
      </trkpt>
      <trkpt lat="48.43494" lon="2.72666">
        <ele>118</ele>
        <time>2013-04-21T12:14:14Z</time>
      </trkpt>
      <trkpt lat="48.43497" lon="2.72668">
        <ele>117</ele>
        <time>2013-04-21T12:14:15Z</time>
      </trkpt>
      <trkpt lat="48.43498" lon="2.72668">
        <ele>117</ele>
        <time>2013-04-21T12:14:16Z</time>
      </trkpt>
      <trkpt lat="48.43498" lon="2.72668">
        <ele>117</ele>
        <time>2013-04-21T12:14:17Z</time>
      </trkpt>
      <trkpt lat="48.43498" lon="2.72668">
        <ele>117</ele>
        <time>2013-04-21T12:14:19Z</time>
      </trkpt>
      <trkpt lat="48.43498" lon="2.72669">
        <ele>117</ele>
        <time>2013-04-21T12:14:20Z</time>
      </trkpt>
      <trkpt lat="48.43498" lon="2.72668">
        <ele>117</ele>
        <time>2013-04-21T12:14:21Z</time>
      </trkpt>
      <trkpt lat="48.43496" lon="2.72667">
        <ele>117</ele>
        <time>2013-04-21T12:14:23Z</time>
      </trkpt>
      <trkpt lat="48.43495" lon="2.72666">
        <ele>118</ele>
        <time>2013-04-21T12:14:24Z</time>
      </trkpt>
      <trkpt lat="48.43494" lon="2.72666">
        <ele>118</ele>
        <time>2013-04-21T12:14:25Z</time>
      </trkpt>
      <trkpt lat="48.43493" lon="2.72665">
        <ele>118</ele>
        <time>2013-04-21T12:14:27Z</time>
      </trkpt>
      <trkpt lat="48.43492" lon="2.72665">
        <ele>119</ele>
        <time>2013-04-21T12:14:28Z</time>
      </trkpt>
      <trkpt lat="48.43492" lon="2.72665">
        <ele>119</ele>
        <time>2013-04-21T12:14:29Z</time>
      </trkpt>
      <trkpt lat="48.4349" lon="2.72662">
        <ele>119</ele>
        <time>2013-04-21T12:14:33Z</time>
      </trkpt>
      <trkpt lat="48.4349" lon="2.72662">
        <ele>119</ele>
        <time>2013-04-21T12:14:34Z</time>
      </trkpt>
      <trkpt lat="48.4349" lon="2.72662">
        <ele>119</ele>
        <time>2013-04-21T12:14:35Z</time>
      </trkpt>
      <trkpt lat="48.4349" lon="2.72662">
        <ele>119</ele>
        <time>2013-04-21T12:14:36Z</time>
      </trkpt>
      <trkpt lat="48.4349" lon="2.72661">
        <ele>119</ele>
        <time>2013-04-21T12:14:37Z</time>
      </trkpt>
      <trkpt lat="48.4349" lon="2.72662">
        <ele>119</ele>
        <time>2013-04-21T12:14:38Z</time>
      </trkpt>
      <trkpt lat="48.4349" lon="2.72661">
        <ele>119</ele>
        <time>2013-04-21T12:14:39Z</time>
      </trkpt>
      <trkpt lat="48.4349" lon="2.72661">
        <ele>119</ele>
        <time>2013-04-21T12:14:40Z</time>
      </trkpt>
      <trkpt lat="48.4349" lon="2.72661">
        <ele>119</ele>
        <time>2013-04-21T12:14:43Z</time>
      </trkpt>
      <trkpt lat="48.4349" lon="2.72661">
        <ele>119</ele>
        <time>2013-04-21T12:14:45Z</time>
      </trkpt>
      <trkpt lat="48.4349" lon="2.72662">
        <ele>119</ele>
        <time>2013-04-21T12:14:48Z</time>
      </trkpt>
      <trkpt lat="48.43491" lon="2.72662">
        <ele>119</ele>
        <time>2013-04-21T12:14:49Z</time>
      </trkpt>
      <trkpt lat="48.43491" lon="2.72662">
        <ele>119</ele>
        <time>2013-04-21T12:14:50Z</time>
      </trkpt>
      <trkpt lat="48.43491" lon="2.72662">
        <ele>119</ele>
        <time>2013-04-21T12:14:51Z</time>
      </trkpt>
      <trkpt lat="48.43491" lon="2.72662">
        <ele>119</ele>
        <time>2013-04-21T12:14:54Z</time>
      </trkpt>
      <trkpt lat="48.43491" lon="2.72662">
        <ele>119</ele>
        <time>2013-04-21T12:14:55Z</time>
      </trkpt>
      <trkpt lat="48.43491" lon="2.72662">
        <ele>119</ele>
        <time>2013-04-21T12:14:56Z</time>
      </trkpt>
      <trkpt lat="48.43491" lon="2.72663">
        <ele>119</ele>
        <time>2013-04-21T12:14:57Z</time>
      </trkpt>
      <trkpt lat="48.43491" lon="2.72663">
        <ele>119</ele>
        <time>2013-04-21T12:14:59Z</time>
      </trkpt>
      <trkpt lat="48.43491" lon="2.72663">
        <ele>119</ele>
        <time>2013-04-21T12:15:00Z</time>
      </trkpt>
      <trkpt lat="48.43491" lon="2.72663">
        <ele>119</ele>
        <time>2013-04-21T12:15:01Z</time>
      </trkpt>
      <trkpt lat="48.43491" lon="2.72663">
        <ele>119</ele>
        <time>2013-04-21T12:15:02Z</time>
      </trkpt>
      <trkpt lat="48.43491" lon="2.72663">
        <ele>119</ele>
        <time>2013-04-21T12:15:03Z</time>
      </trkpt>
      <trkpt lat="48.43491" lon="2.72663">
        <ele>119</ele>
        <time>2013-04-21T12:15:04Z</time>
      </trkpt>
      <trkpt lat="48.43491" lon="2.72664">
        <ele>119</ele>
        <time>2013-04-21T12:15:05Z</time>
      </trkpt>
      <trkpt lat="48.43491" lon="2.72664">
        <ele>119</ele>
        <time>2013-04-21T12:15:06Z</time>
      </trkpt>
      <trkpt lat="48.4349" lon="2.72663">
        <ele>119</ele>
        <time>2013-04-21T12:15:08Z</time>
      </trkpt>
      <trkpt lat="48.4349" lon="2.72664">
        <ele>119</ele>
        <time>2013-04-21T12:15:09Z</time>
      </trkpt>
      <trkpt lat="48.4349" lon="2.72664">
        <ele>119</ele>
        <time>2013-04-21T12:15:10Z</time>
      </trkpt>
      <trkpt lat="48.4349" lon="2.72664">
        <ele>119</ele>
        <time>2013-04-21T12:15:11Z</time>
      </trkpt>
      <trkpt lat="48.4349" lon="2.72664">
        <ele>119</ele>
        <time>2013-04-21T12:15:13Z</time>
      </trkpt>
      <trkpt lat="48.4349" lon="2.72664">
        <ele>119</ele>
        <time>2013-04-21T12:15:14Z</time>
      </trkpt>
      <trkpt lat="48.4349" lon="2.72664">
        <ele>119</ele>
        <time>2013-04-21T12:15:15Z</time>
      </trkpt>
      <trkpt lat="48.4349" lon="2.72664">
        <ele>119</ele>
        <time>2013-04-21T12:15:18Z</time>
      </trkpt>
      <trkpt lat="48.4349" lon="2.72664">
        <ele>119</ele>
        <time>2013-04-21T12:15:20Z</time>
      </trkpt>
      <trkpt lat="48.4349" lon="2.72665">
        <ele>119</ele>
        <time>2013-04-21T12:15:21Z</time>
      </trkpt>
      <trkpt lat="48.43492" lon="2.72668">
        <ele>118</ele>
        <time>2013-04-21T12:15:23Z</time>
      </trkpt>
      <trkpt lat="48.43493" lon="2.72669">
        <ele>118</ele>
        <time>2013-04-21T12:15:24Z</time>
      </trkpt>
      <trkpt lat="48.43497" lon="2.72671">
        <ele>118</ele>
        <time>2013-04-21T12:15:26Z</time>
      </trkpt>
      <trkpt lat="48.43517" lon="2.72685">
        <ele>114</ele>
        <time>2013-04-21T12:15:32Z</time>
      </trkpt>
      <trkpt lat="48.43522" lon="2.72694">
        <ele>114</ele>
        <time>2013-04-21T12:15:34Z</time>
      </trkpt>
      <trkpt lat="48.43525" lon="2.72697">
        <ele>114</ele>
        <time>2013-04-21T12:15:35Z</time>
      </trkpt>
      <trkpt lat="48.43528" lon="2.72701">
        <ele>113</ele>
        <time>2013-04-21T12:15:36Z</time>
      </trkpt>
      <trkpt lat="48.43529" lon="2.72705">
        <ele>113</ele>
        <time>2013-04-21T12:15:37Z</time>
      </trkpt>
      <trkpt lat="48.43533" lon="2.72713">
        <ele>113</ele>
        <time>2013-04-21T12:15:40Z</time>
      </trkpt>
      <trkpt lat="48.43534" lon="2.72714">
        <ele>113</ele>
        <time>2013-04-21T12:15:41Z</time>
      </trkpt>
      <trkpt lat="48.43536" lon="2.72715">
        <ele>113</ele>
        <time>2013-04-21T12:15:42Z</time>
      </trkpt>
      <trkpt lat="48.4354" lon="2.72716">
        <ele>113</ele>
        <time>2013-04-21T12:15:44Z</time>
      </trkpt>
      <trkpt lat="48.43542" lon="2.72717">
        <ele>113</ele>
        <time>2013-04-21T12:15:45Z</time>
      </trkpt>
      <trkpt lat="48.43544" lon="2.72722">
        <ele>112</ele>
        <time>2013-04-21T12:15:47Z</time>
      </trkpt>
      <trkpt lat="48.43545" lon="2.72727">
        <ele>112</ele>
        <time>2013-04-21T12:15:48Z</time>
      </trkpt>
      <trkpt lat="48.43547" lon="2.72741">
        <ele>112</ele>
        <time>2013-04-21T12:15:51Z</time>
      </trkpt>
      <trkpt lat="48.43549" lon="2.72744">
        <ele>112</ele>
        <time>2013-04-21T12:15:52Z</time>
      </trkpt>
      <trkpt lat="48.43554" lon="2.72744">
        <ele>112</ele>
        <time>2013-04-21T12:15:54Z</time>
      </trkpt>
      <trkpt lat="48.43556" lon="2.72746">
        <ele>111</ele>
        <time>2013-04-21T12:15:55Z</time>
      </trkpt>
      <trkpt lat="48.43559" lon="2.72749">
        <ele>111</ele>
        <time>2013-04-21T12:15:56Z</time>
      </trkpt>
      <trkpt lat="48.4356" lon="2.7275">
        <ele>111</ele>
        <time>2013-04-21T12:15:57Z</time>
      </trkpt>
      <trkpt lat="48.4356" lon="2.7275">
        <ele>110</ele>
        <time>2013-04-21T12:15:58Z</time>
      </trkpt>
      <trkpt lat="48.43561" lon="2.7275">
        <ele>110</ele>
        <time>2013-04-21T12:15:59Z</time>
      </trkpt>
      <trkpt lat="48.43562" lon="2.7275">
        <ele>111</ele>
        <time>2013-04-21T12:16:04Z</time>
      </trkpt>
      <trkpt lat="48.43562" lon="2.7275">
        <ele>110</ele>
        <time>2013-04-21T12:16:05Z</time>
      </trkpt>
      <trkpt lat="48.43563" lon="2.7275">
        <ele>110</ele>
        <time>2013-04-21T12:16:06Z</time>
      </trkpt>
      <trkpt lat="48.43563" lon="2.7275">
        <ele>109</ele>
        <time>2013-04-21T12:16:07Z</time>
      </trkpt>
      <trkpt lat="48.43563" lon="2.7275">
        <ele>109</ele>
        <time>2013-04-21T12:16:08Z</time>
      </trkpt>
      <trkpt lat="48.43564" lon="2.7275">
        <ele>109</ele>
        <time>2013-04-21T12:16:09Z</time>
      </trkpt>
      <trkpt lat="48.43564" lon="2.7275">
        <ele>109</ele>
        <time>2013-04-21T12:16:10Z</time>
      </trkpt>
      <trkpt lat="48.43564" lon="2.7275">
        <ele>109</ele>
        <time>2013-04-21T12:16:11Z</time>
      </trkpt>
      <trkpt lat="48.43564" lon="2.7275">
        <ele>109</ele>
        <time>2013-04-21T12:16:12Z</time>
      </trkpt>
      <trkpt lat="48.43565" lon="2.7275">
        <ele>109</ele>
        <time>2013-04-21T12:16:13Z</time>
      </trkpt>
      <trkpt lat="48.43565" lon="2.7275">
        <ele>109</ele>
        <time>2013-04-21T12:16:14Z</time>
      </trkpt>
      <trkpt lat="48.43565" lon="2.7275">
        <ele>109</ele>
        <time>2013-04-21T12:16:15Z</time>
      </trkpt>
      <trkpt lat="48.43566" lon="2.7275">
        <ele>109</ele>
        <time>2013-04-21T12:16:16Z</time>
      </trkpt>
      <trkpt lat="48.43566" lon="2.7275">
        <ele>109</ele>
        <time>2013-04-21T12:16:17Z</time>
      </trkpt>
      <trkpt lat="48.43566" lon="2.7275">
        <ele>109</ele>
        <time>2013-04-21T12:16:18Z</time>
      </trkpt>
      <trkpt lat="48.43567" lon="2.7275">
        <ele>109</ele>
        <time>2013-04-21T12:16:19Z</time>
      </trkpt>
      <trkpt lat="48.43567" lon="2.7275">
        <ele>109</ele>
        <time>2013-04-21T12:16:20Z</time>
      </trkpt>
      <trkpt lat="48.43567" lon="2.7275">
        <ele>109</ele>
        <time>2013-04-21T12:16:21Z</time>
      </trkpt>
      <trkpt lat="48.43567" lon="2.7275">
        <ele>109</ele>
        <time>2013-04-21T12:16:22Z</time>
      </trkpt>
      <trkpt lat="48.43568" lon="2.7275">
        <ele>109</ele>
        <time>2013-04-21T12:16:23Z</time>
      </trkpt>
      <trkpt lat="48.43568" lon="2.7275">
        <ele>109</ele>
        <time>2013-04-21T12:16:24Z</time>
      </trkpt>
      <trkpt lat="48.43568" lon="2.7275">
        <ele>109</ele>
        <time>2013-04-21T12:16:25Z</time>
      </trkpt>
      <trkpt lat="48.43569" lon="2.7275">
        <ele>109</ele>
        <time>2013-04-21T12:16:26Z</time>
      </trkpt>
      <trkpt lat="48.43569" lon="2.7275">
        <ele>109</ele>
        <time>2013-04-21T12:16:27Z</time>
      </trkpt>
      <trkpt lat="48.43569" lon="2.7275">
        <ele>109</ele>
        <time>2013-04-21T12:16:28Z</time>
      </trkpt>
      <trkpt lat="48.43569" lon="2.7275">
        <ele>109</ele>
        <time>2013-04-21T12:16:29Z</time>
      </trkpt>
      <trkpt lat="48.4357" lon="2.7275">
        <ele>110</ele>
        <time>2013-04-21T12:16:30Z</time>
      </trkpt>
      <trkpt lat="48.4357" lon="2.7275">
        <ele>110</ele>
        <time>2013-04-21T12:16:31Z</time>
      </trkpt>
      <trkpt lat="48.4357" lon="2.7275">
        <ele>110</ele>
        <time>2013-04-21T12:16:32Z</time>
      </trkpt>
      <trkpt lat="48.43571" lon="2.7275">
        <ele>110</ele>
        <time>2013-04-21T12:16:33Z</time>
      </trkpt>
      <trkpt lat="48.43571" lon="2.7275">
        <ele>110</ele>
        <time>2013-04-21T12:16:34Z</time>
      </trkpt>
      <trkpt lat="48.43571" lon="2.7275">
        <ele>110</ele>
        <time>2013-04-21T12:16:35Z</time>
      </trkpt>
      <trkpt lat="48.43571" lon="2.72749">
        <ele>110</ele>
        <time>2013-04-21T12:16:36Z</time>
      </trkpt>
      <trkpt lat="48.43572" lon="2.72749">
        <ele>110</ele>
        <time>2013-04-21T12:16:37Z</time>
      </trkpt>
      <trkpt lat="48.43572" lon="2.72749">
        <ele>110</ele>
        <time>2013-04-21T12:16:38Z</time>
      </trkpt>
      <trkpt lat="48.43572" lon="2.72749">
        <ele>110</ele>
        <time>2013-04-21T12:16:39Z</time>
      </trkpt>
      <trkpt lat="48.43573" lon="2.72749">
        <ele>110</ele>
        <time>2013-04-21T12:16:40Z</time>
      </trkpt>
      <trkpt lat="48.43573" lon="2.72749">
        <ele>110</ele>
        <time>2013-04-21T12:16:41Z</time>
      </trkpt>
      <trkpt lat="48.43573" lon="2.72749">
        <ele>110</ele>
        <time>2013-04-21T12:16:42Z</time>
      </trkpt>
      <trkpt lat="48.43574" lon="2.72749">
        <ele>110</ele>
        <time>2013-04-21T12:16:43Z</time>
      </trkpt>
      <trkpt lat="48.43574" lon="2.72749">
        <ele>110</ele>
        <time>2013-04-21T12:16:44Z</time>
      </trkpt>
      <trkpt lat="48.43574" lon="2.72749">
        <ele>110</ele>
        <time>2013-04-21T12:16:45Z</time>
      </trkpt>
      <trkpt lat="48.43574" lon="2.72748">
        <ele>110</ele>
        <time>2013-04-21T12:16:46Z</time>
      </trkpt>
      <trkpt lat="48.43574" lon="2.72748">
        <ele>109</ele>
        <time>2013-04-21T12:16:47Z</time>
      </trkpt>
      <trkpt lat="48.43575" lon="2.72748">
        <ele>109</ele>
        <time>2013-04-21T12:16:48Z</time>
      </trkpt>
      <trkpt lat="48.43578" lon="2.72746">
        <ele>109</ele>
        <time>2013-04-21T12:16:49Z</time>
      </trkpt>
      <trkpt lat="48.43578" lon="2.72746">
        <ele>109</ele>
        <time>2013-04-21T12:16:51Z</time>
      </trkpt>
      <trkpt lat="48.43578" lon="2.72747">
        <ele>109</ele>
        <time>2013-04-21T12:16:52Z</time>
      </trkpt>
      <trkpt lat="48.43578" lon="2.72747">
        <ele>109</ele>
        <time>2013-04-21T12:16:53Z</time>
      </trkpt>
      <trkpt lat="48.43578" lon="2.72747">
        <ele>109</ele>
        <time>2013-04-21T12:16:57Z</time>
      </trkpt>
      <trkpt lat="48.43578" lon="2.72747">
        <ele>109</ele>
        <time>2013-04-21T12:16:58Z</time>
      </trkpt>
      <trkpt lat="48.43578" lon="2.72747">
        <ele>109</ele>
        <time>2013-04-21T12:16:59Z</time>
      </trkpt>
      <trkpt lat="48.43578" lon="2.72747">
        <ele>109</ele>
        <time>2013-04-21T12:17:00Z</time>
      </trkpt>
      <trkpt lat="48.43579" lon="2.72747">
        <ele>109</ele>
        <time>2013-04-21T12:17:01Z</time>
      </trkpt>
      <trkpt lat="48.43579" lon="2.72748">
        <ele>109</ele>
        <time>2013-04-21T12:17:02Z</time>
      </trkpt>
      <trkpt lat="48.43579" lon="2.72748">
        <ele>109</ele>
        <time>2013-04-21T12:17:03Z</time>
      </trkpt>
      <trkpt lat="48.43579" lon="2.72748">
        <ele>109</ele>
        <time>2013-04-21T12:17:04Z</time>
      </trkpt>
      <trkpt lat="48.43579" lon="2.72748">
        <ele>109</ele>
        <time>2013-04-21T12:17:05Z</time>
      </trkpt>
      <trkpt lat="48.43579" lon="2.72748">
        <ele>109</ele>
        <time>2013-04-21T12:17:06Z</time>
      </trkpt>
      <trkpt lat="48.43579" lon="2.72749">
        <ele>109</ele>
        <time>2013-04-21T12:17:07Z</time>
      </trkpt>
      <trkpt lat="48.43579" lon="2.72749">
        <ele>109</ele>
        <time>2013-04-21T12:17:08Z</time>
      </trkpt>
      <trkpt lat="48.4358" lon="2.72749">
        <ele>109</ele>
        <time>2013-04-21T12:17:09Z</time>
      </trkpt>
      <trkpt lat="48.4358" lon="2.72749">
        <ele>109</ele>
        <time>2013-04-21T12:17:10Z</time>
      </trkpt>
      <trkpt lat="48.4358" lon="2.7275">
        <ele>109</ele>
        <time>2013-04-21T12:17:11Z</time>
      </trkpt>
      <trkpt lat="48.4358" lon="2.7275">
        <ele>108</ele>
        <time>2013-04-21T12:17:12Z</time>
      </trkpt>
      <trkpt lat="48.43579" lon="2.72751">
        <ele>108</ele>
        <time>2013-04-21T12:17:13Z</time>
      </trkpt>
      <trkpt lat="48.43578" lon="2.72751">
        <ele>108</ele>
        <time>2013-04-21T12:17:14Z</time>
      </trkpt>
      <trkpt lat="48.43576" lon="2.7275">
        <ele>109</ele>
        <time>2013-04-21T12:17:16Z</time>
      </trkpt>
      <trkpt lat="48.43572" lon="2.72749">
        <ele>110</ele>
        <time>2013-04-21T12:17:19Z</time>
      </trkpt>
      <trkpt lat="48.4357" lon="2.72749">
        <ele>110</ele>
        <time>2013-04-21T12:17:20Z</time>
      </trkpt>
      <trkpt lat="48.43569" lon="2.7275">
        <ele>110</ele>
        <time>2013-04-21T12:17:21Z</time>
      </trkpt>
      <trkpt lat="48.43568" lon="2.7275">
        <ele>109</ele>
        <time>2013-04-21T12:17:22Z</time>
      </trkpt>
      <trkpt lat="48.43567" lon="2.7275">
        <ele>109</ele>
        <time>2013-04-21T12:17:23Z</time>
      </trkpt>
      <trkpt lat="48.43566" lon="2.72749">
        <ele>110</ele>
        <time>2013-04-21T12:17:24Z</time>
      </trkpt>
      <trkpt lat="48.43565" lon="2.72747">
        <ele>111</ele>
        <time>2013-04-21T12:17:25Z</time>
      </trkpt>
      <trkpt lat="48.43564" lon="2.72747">
        <ele>111</ele>
        <time>2013-04-21T12:17:26Z</time>
      </trkpt>
      <trkpt lat="48.43563" lon="2.72746">
        <ele>111</ele>
        <time>2013-04-21T12:17:27Z</time>
      </trkpt>
      <trkpt lat="48.43562" lon="2.72745">
        <ele>111</ele>
        <time>2013-04-21T12:17:28Z</time>
      </trkpt>
      <trkpt lat="48.43562" lon="2.72744">
        <ele>111</ele>
        <time>2013-04-21T12:17:29Z</time>
      </trkpt>
      <trkpt lat="48.43562" lon="2.72743">
        <ele>111</ele>
        <time>2013-04-21T12:17:30Z</time>
      </trkpt>
      <trkpt lat="48.43561" lon="2.72741">
        <ele>111</ele>
        <time>2013-04-21T12:17:31Z</time>
      </trkpt>
      <trkpt lat="48.43561" lon="2.7274">
        <ele>111</ele>
        <time>2013-04-21T12:17:32Z</time>
      </trkpt>
      <trkpt lat="48.43561" lon="2.72738">
        <ele>111</ele>
        <time>2013-04-21T12:17:33Z</time>
      </trkpt>
      <trkpt lat="48.43561" lon="2.72737">
        <ele>111</ele>
        <time>2013-04-21T12:17:34Z</time>
      </trkpt>
      <trkpt lat="48.43561" lon="2.72734">
        <ele>111</ele>
        <time>2013-04-21T12:17:36Z</time>
      </trkpt>
      <trkpt lat="48.43561" lon="2.72732">
        <ele>111</ele>
        <time>2013-04-21T12:17:37Z</time>
      </trkpt>
      <trkpt lat="48.4356" lon="2.7273">
        <ele>111</ele>
        <time>2013-04-21T12:17:38Z</time>
      </trkpt>
      <trkpt lat="48.4356" lon="2.72729">
        <ele>112</ele>
        <time>2013-04-21T12:17:39Z</time>
      </trkpt>
      <trkpt lat="48.43559" lon="2.72728">
        <ele>112</ele>
        <time>2013-04-21T12:17:40Z</time>
      </trkpt>
      <trkpt lat="48.43558" lon="2.72727">
        <ele>112</ele>
        <time>2013-04-21T12:17:41Z</time>
      </trkpt>
      <trkpt lat="48.43558" lon="2.72725">
        <ele>112</ele>
        <time>2013-04-21T12:17:42Z</time>
      </trkpt>
      <trkpt lat="48.43557" lon="2.72724">
        <ele>112</ele>
        <time>2013-04-21T12:17:43Z</time>
      </trkpt>
      <trkpt lat="48.43557" lon="2.72722">
        <ele>112</ele>
        <time>2013-04-21T12:17:44Z</time>
      </trkpt>
      <trkpt lat="48.43557" lon="2.72721">
        <ele>112</ele>
        <time>2013-04-21T12:17:46Z</time>
      </trkpt>
      <trkpt lat="48.43556" lon="2.72719">
        <ele>112</ele>
        <time>2013-04-21T12:17:47Z</time>
      </trkpt>
      <trkpt lat="48.43556" lon="2.72719">
        <ele>112</ele>
        <time>2013-04-21T12:17:48Z</time>
      </trkpt>
      <trkpt lat="48.43555" lon="2.72718">
        <ele>112</ele>
        <time>2013-04-21T12:17:49Z</time>
      </trkpt>
      <trkpt lat="48.43555" lon="2.72717">
        <ele>112</ele>
        <time>2013-04-21T12:17:50Z</time>
      </trkpt>
      <trkpt lat="48.43555" lon="2.72717">
        <ele>112</ele>
        <time>2013-04-21T12:17:51Z</time>
      </trkpt>
      <trkpt lat="48.43554" lon="2.72717">
        <ele>112</ele>
        <time>2013-04-21T12:17:53Z</time>
      </trkpt>
      <trkpt lat="48.43555" lon="2.72717">
        <ele>112</ele>
        <time>2013-04-21T12:17:56Z</time>
      </trkpt>
      <trkpt lat="48.43555" lon="2.72717">
        <ele>112</ele>
        <time>2013-04-21T12:17:57Z</time>
      </trkpt>
      <trkpt lat="48.43557" lon="2.72719">
        <ele>112</ele>
        <time>2013-04-21T12:18:00Z</time>
      </trkpt>
      <trkpt lat="48.43558" lon="2.72724">
        <ele>112</ele>
        <time>2013-04-21T12:18:02Z</time>
      </trkpt>
      <trkpt lat="48.43559" lon="2.72728">
        <ele>112</ele>
        <time>2013-04-21T12:18:03Z</time>
      </trkpt>
      <trkpt lat="48.43559" lon="2.72734">
        <ele>111</ele>
        <time>2013-04-21T12:18:04Z</time>
      </trkpt>
      <trkpt lat="48.43559" lon="2.72739">
        <ele>111</ele>
        <time>2013-04-21T12:18:05Z</time>
      </trkpt>
      <trkpt lat="48.4356" lon="2.72743">
        <ele>111</ele>
        <time>2013-04-21T12:18:06Z</time>
      </trkpt>
      <trkpt lat="48.43562" lon="2.72746">
        <ele>111</ele>
        <time>2013-04-21T12:18:07Z</time>
      </trkpt>
      <trkpt lat="48.43565" lon="2.72748">
        <ele>111</ele>
        <time>2013-04-21T12:18:08Z</time>
      </trkpt>
      <trkpt lat="48.43566" lon="2.72748">
        <ele>110</ele>
        <time>2013-04-21T12:18:09Z</time>
      </trkpt>
      <trkpt lat="48.43566" lon="2.72748">
        <ele>110</ele>
        <time>2013-04-21T12:18:10Z</time>
      </trkpt>
      <trkpt lat="48.43566" lon="2.72747">
        <ele>110</ele>
        <time>2013-04-21T12:18:11Z</time>
      </trkpt>
      <trkpt lat="48.43566" lon="2.72747">
        <ele>110</ele>
        <time>2013-04-21T12:18:12Z</time>
      </trkpt>
      <trkpt lat="48.43566" lon="2.72748">
        <ele>110</ele>
        <time>2013-04-21T12:18:13Z</time>
      </trkpt>
      <trkpt lat="48.43566" lon="2.72748">
        <ele>110</ele>
        <time>2013-04-21T12:18:14Z</time>
      </trkpt>
      <trkpt lat="48.43566" lon="2.72749">
        <ele>110</ele>
        <time>2013-04-21T12:18:15Z</time>
      </trkpt>
      <trkpt lat="48.43566" lon="2.72749">
        <ele>110</ele>
        <time>2013-04-21T12:18:16Z</time>
      </trkpt>
      <trkpt lat="48.43566" lon="2.72749">
        <ele>110</ele>
        <time>2013-04-21T12:18:21Z</time>
      </trkpt>
      <trkpt lat="48.43566" lon="2.72749">
        <ele>110</ele>
        <time>2013-04-21T12:18:24Z</time>
      </trkpt>
      <trkpt lat="48.43566" lon="2.72748">
        <ele>110</ele>
        <time>2013-04-21T12:18:27Z</time>
      </trkpt>
      <trkpt lat="48.43566" lon="2.72748">
        <ele>110</ele>
        <time>2013-04-21T12:18:29Z</time>
      </trkpt>
      <trkpt lat="48.43566" lon="2.72748">
        <ele>110</ele>
        <time>2013-04-21T12:18:31Z</time>
      </trkpt>
      <trkpt lat="48.43566" lon="2.72748">
        <ele>110</ele>
        <time>2013-04-21T12:18:33Z</time>
      </trkpt>
      <trkpt lat="48.43566" lon="2.72748">
        <ele>110</ele>
        <time>2013-04-21T12:18:35Z</time>
      </trkpt>
      <trkpt lat="48.43566" lon="2.72748">
        <ele>110</ele>
        <time>2013-04-21T12:18:38Z</time>
      </trkpt>
      <trkpt lat="48.43566" lon="2.72748">
        <ele>110</ele>
        <time>2013-04-21T12:18:39Z</time>
      </trkpt>
      <trkpt lat="48.43566" lon="2.72748">
        <ele>110</ele>
        <time>2013-04-21T12:18:44Z</time>
      </trkpt>
      <trkpt lat="48.43566" lon="2.72748">
        <ele>110</ele>
        <time>2013-04-21T12:18:47Z</time>
      </trkpt>
      <trkpt lat="48.43566" lon="2.72748">
        <ele>110</ele>
        <time>2013-04-21T12:18:48Z</time>
      </trkpt>
      <trkpt lat="48.43565" lon="2.72748">
        <ele>111</ele>
        <time>2013-04-21T12:18:52Z</time>
      </trkpt>
      <trkpt lat="48.43565" lon="2.72748">
        <ele>111</ele>
        <time>2013-04-21T12:18:57Z</time>
      </trkpt>
      <trkpt lat="48.43565" lon="2.72748">
        <ele>111</ele>
        <time>2013-04-21T12:18:58Z</time>
      </trkpt>
      <trkpt lat="48.43565" lon="2.72747">
        <ele>111</ele>
        <time>2013-04-21T12:18:59Z</time>
      </trkpt>
      <trkpt lat="48.43565" lon="2.72747">
        <ele>111</ele>
        <time>2013-04-21T12:19:02Z</time>
      </trkpt>
      <trkpt lat="48.43564" lon="2.72747">
        <ele>111</ele>
        <time>2013-04-21T12:19:03Z</time>
      </trkpt>
      <trkpt lat="48.43563" lon="2.72747">
        <ele>111</ele>
        <time>2013-04-21T12:19:05Z</time>
      </trkpt>
      <trkpt lat="48.43563" lon="2.72747">
        <ele>111</ele>
        <time>2013-04-21T12:19:06Z</time>
      </trkpt>
      <trkpt lat="48.43562" lon="2.72747">
        <ele>111</ele>
        <time>2013-04-21T12:19:07Z</time>
      </trkpt>
      <trkpt lat="48.43562" lon="2.72747">
        <ele>111</ele>
        <time>2013-04-21T12:19:09Z</time>
      </trkpt>
      <trkpt lat="48.43561" lon="2.72746">
        <ele>111</ele>
        <time>2013-04-21T12:19:12Z</time>
      </trkpt>
      <trkpt lat="48.4356" lon="2.72745">
        <ele>111</ele>
        <time>2013-04-21T12:19:15Z</time>
      </trkpt>
      <trkpt lat="48.43559" lon="2.72745">
        <ele>111</ele>
        <time>2013-04-21T12:19:17Z</time>
      </trkpt>
      <trkpt lat="48.43559" lon="2.72745">
        <ele>111</ele>
        <time>2013-04-21T12:19:18Z</time>
      </trkpt>
      <trkpt lat="48.43558" lon="2.72745">
        <ele>111</ele>
        <time>2013-04-21T12:19:19Z</time>
      </trkpt>
      <trkpt lat="48.43558" lon="2.72744">
        <ele>111</ele>
        <time>2013-04-21T12:19:20Z</time>
      </trkpt>
      <trkpt lat="48.43557" lon="2.72743">
        <ele>111</ele>
        <time>2013-04-21T12:19:21Z</time>
      </trkpt>
      <trkpt lat="48.43557" lon="2.72742">
        <ele>111</ele>
        <time>2013-04-21T12:19:22Z</time>
      </trkpt>
      <trkpt lat="48.43557" lon="2.72741">
        <ele>111</ele>
        <time>2013-04-21T12:19:23Z</time>
      </trkpt>
      <trkpt lat="48.43556" lon="2.72739">
        <ele>111</ele>
        <time>2013-04-21T12:19:24Z</time>
      </trkpt>
      <trkpt lat="48.43557" lon="2.72738">
        <ele>111</ele>
        <time>2013-04-21T12:19:25Z</time>
      </trkpt>
      <trkpt lat="48.43557" lon="2.72736">
        <ele>112</ele>
        <time>2013-04-21T12:19:26Z</time>
      </trkpt>
      <trkpt lat="48.43556" lon="2.72732">
        <ele>112</ele>
        <time>2013-04-21T12:19:28Z</time>
      </trkpt>
      <trkpt lat="48.43556" lon="2.72731">
        <ele>112</ele>
        <time>2013-04-21T12:19:29Z</time>
      </trkpt>
      <trkpt lat="48.43556" lon="2.7273">
        <ele>112</ele>
        <time>2013-04-21T12:19:30Z</time>
      </trkpt>
      <trkpt lat="48.43556" lon="2.72728">
        <ele>112</ele>
        <time>2013-04-21T12:19:31Z</time>
      </trkpt>
      <trkpt lat="48.43555" lon="2.72728">
        <ele>112</ele>
        <time>2013-04-21T12:19:32Z</time>
      </trkpt>
      <trkpt lat="48.43555" lon="2.72728">
        <ele>112</ele>
        <time>2013-04-21T12:19:33Z</time>
      </trkpt>
      <trkpt lat="48.43555" lon="2.72727">
        <ele>112</ele>
        <time>2013-04-21T12:19:34Z</time>
      </trkpt>
      <trkpt lat="48.43555" lon="2.72727">
        <ele>112</ele>
        <time>2013-04-21T12:19:35Z</time>
      </trkpt>
      <trkpt lat="48.43554" lon="2.72727">
        <ele>112</ele>
        <time>2013-04-21T12:19:37Z</time>
      </trkpt>
      <trkpt lat="48.43554" lon="2.72727">
        <ele>112</ele>
        <time>2013-04-21T12:19:40Z</time>
      </trkpt>
      <trkpt lat="48.43555" lon="2.72727">
        <ele>112</ele>
        <time>2013-04-21T12:19:41Z</time>
      </trkpt>
      <trkpt lat="48.43555" lon="2.72728">
        <ele>112</ele>
        <time>2013-04-21T12:19:43Z</time>
      </trkpt>
      <trkpt lat="48.43555" lon="2.72728">
        <ele>112</ele>
        <time>2013-04-21T12:19:46Z</time>
      </trkpt>
      <trkpt lat="48.43555" lon="2.72728">
        <ele>112</ele>
        <time>2013-04-21T12:19:48Z</time>
      </trkpt>
      <trkpt lat="48.43555" lon="2.72728">
        <ele>112</ele>
        <time>2013-04-21T12:19:49Z</time>
      </trkpt>
      <trkpt lat="48.43556" lon="2.7273">
        <ele>112</ele>
        <time>2013-04-21T12:19:51Z</time>
      </trkpt>
      <trkpt lat="48.43556" lon="2.72732">
        <ele>112</ele>
        <time>2013-04-21T12:19:52Z</time>
      </trkpt>
      <trkpt lat="48.43556" lon="2.72744">
        <ele>111</ele>
        <time>2013-04-21T12:19:55Z</time>
      </trkpt>
      <trkpt lat="48.43557" lon="2.72748">
        <ele>111</ele>
        <time>2013-04-21T12:19:56Z</time>
      </trkpt>
      <trkpt lat="48.4356" lon="2.72751">
        <ele>109</ele>
        <time>2013-04-21T12:19:57Z</time>
      </trkpt>
      <trkpt lat="48.43564" lon="2.72751">
        <ele>109</ele>
        <time>2013-04-21T12:19:58Z</time>
      </trkpt>
      <trkpt lat="48.43576" lon="2.72758">
        <ele>108</ele>
        <time>2013-04-21T12:20:02Z</time>
      </trkpt>
      <trkpt lat="48.43578" lon="2.7276">
        <ele>108</ele>
        <time>2013-04-21T12:20:04Z</time>
      </trkpt>
      <trkpt lat="48.43578" lon="2.7276">
        <ele>108</ele>
        <time>2013-04-21T12:20:05Z</time>
      </trkpt>
      <trkpt lat="48.43578" lon="2.7276">
        <ele>108</ele>
        <time>2013-04-21T12:20:06Z</time>
      </trkpt>
      <trkpt lat="48.43578" lon="2.7276">
        <ele>108</ele>
        <time>2013-04-21T12:20:07Z</time>
      </trkpt>
      <trkpt lat="48.43577" lon="2.72759">
        <ele>108</ele>
        <time>2013-04-21T12:20:08Z</time>
      </trkpt>
      <trkpt lat="48.43572" lon="2.72755">
        <ele>109</ele>
        <time>2013-04-21T12:20:14Z</time>
      </trkpt>
      <trkpt lat="48.43571" lon="2.72755">
        <ele>109</ele>
        <time>2013-04-21T12:20:16Z</time>
      </trkpt>
      <trkpt lat="48.43571" lon="2.72755">
        <ele>109</ele>
        <time>2013-04-21T12:20:17Z</time>
      </trkpt>
      <trkpt lat="48.4357" lon="2.72755">
        <ele>109</ele>
        <time>2013-04-21T12:20:18Z</time>
      </trkpt>
      <trkpt lat="48.43569" lon="2.72754">
        <ele>109</ele>
        <time>2013-04-21T12:20:19Z</time>
      </trkpt>
      <trkpt lat="48.4357" lon="2.72754">
        <ele>109</ele>
        <time>2013-04-21T12:20:20Z</time>
      </trkpt>
      <trkpt lat="48.4357" lon="2.72754">
        <ele>109</ele>
        <time>2013-04-21T12:20:27Z</time>
      </trkpt>
      <trkpt lat="48.43569" lon="2.72754">
        <ele>109</ele>
        <time>2013-04-21T12:20:28Z</time>
      </trkpt>
      <trkpt lat="48.43569" lon="2.72754">
        <ele>109</ele>
        <time>2013-04-21T12:20:29Z</time>
      </trkpt>
      <trkpt lat="48.43569" lon="2.72754">
        <ele>109</ele>
        <time>2013-04-21T12:20:30Z</time>
      </trkpt>
      <trkpt lat="48.43569" lon="2.72754">
        <ele>109</ele>
        <time>2013-04-21T12:20:32Z</time>
      </trkpt>
      <trkpt lat="48.43568" lon="2.72754">
        <ele>109</ele>
        <time>2013-04-21T12:20:37Z</time>
      </trkpt>
      <trkpt lat="48.43568" lon="2.72754">
        <ele>109</ele>
        <time>2013-04-21T12:20:38Z</time>
      </trkpt>
      <trkpt lat="48.43567" lon="2.72755">
        <ele>109</ele>
        <time>2013-04-21T12:20:42Z</time>
      </trkpt>
      <trkpt lat="48.43567" lon="2.72755">
        <ele>109</ele>
        <time>2013-04-21T12:20:43Z</time>
      </trkpt>
      <trkpt lat="48.43566" lon="2.72755">
        <ele>109</ele>
        <time>2013-04-21T12:20:46Z</time>
      </trkpt>
      <trkpt lat="48.43566" lon="2.72755">
        <ele>109</ele>
        <time>2013-04-21T12:20:49Z</time>
      </trkpt>
      <trkpt lat="48.43566" lon="2.72755">
        <ele>109</ele>
        <time>2013-04-21T12:20:50Z</time>
      </trkpt>
      <trkpt lat="48.43565" lon="2.72755">
        <ele>109</ele>
        <time>2013-04-21T12:20:53Z</time>
      </trkpt>
      <trkpt lat="48.43565" lon="2.72755">
        <ele>109</ele>
        <time>2013-04-21T12:20:54Z</time>
      </trkpt>
      <trkpt lat="48.43565" lon="2.72755">
        <ele>109</ele>
        <time>2013-04-21T12:20:57Z</time>
      </trkpt>
      <trkpt lat="48.43565" lon="2.72755">
        <ele>109</ele>
        <time>2013-04-21T12:21:00Z</time>
      </trkpt>
      <trkpt lat="48.43565" lon="2.72756">
        <ele>109</ele>
        <time>2013-04-21T12:21:03Z</time>
      </trkpt>
      <trkpt lat="48.43566" lon="2.72756">
        <ele>109</ele>
        <time>2013-04-21T12:21:04Z</time>
      </trkpt>
      <trkpt lat="48.43566" lon="2.72756">
        <ele>109</ele>
        <time>2013-04-21T12:21:05Z</time>
      </trkpt>
      <trkpt lat="48.43566" lon="2.72756">
        <ele>109</ele>
        <time>2013-04-21T12:21:06Z</time>
      </trkpt>
      <trkpt lat="48.43566" lon="2.72756">
        <ele>109</ele>
        <time>2013-04-21T12:21:08Z</time>
      </trkpt>
      <trkpt lat="48.43566" lon="2.72756">
        <ele>109</ele>
        <time>2013-04-21T12:21:09Z</time>
      </trkpt>
      <trkpt lat="48.43566" lon="2.72756">
        <ele>109</ele>
        <time>2013-04-21T12:21:11Z</time>
      </trkpt>
      <trkpt lat="48.43566" lon="2.72757">
        <ele>109</ele>
        <time>2013-04-21T12:21:12Z</time>
      </trkpt>
      <trkpt lat="48.43566" lon="2.72757">
        <ele>109</ele>
        <time>2013-04-21T12:21:14Z</time>
      </trkpt>
      <trkpt lat="48.43566" lon="2.72757">
        <ele>109</ele>
        <time>2013-04-21T12:21:15Z</time>
      </trkpt>
      <trkpt lat="48.43566" lon="2.72757">
        <ele>109</ele>
        <time>2013-04-21T12:21:16Z</time>
      </trkpt>
      <trkpt lat="48.43566" lon="2.72757">
        <ele>109</ele>
        <time>2013-04-21T12:21:17Z</time>
      </trkpt>
      <trkpt lat="48.43566" lon="2.72757">
        <ele>109</ele>
        <time>2013-04-21T12:21:18Z</time>
      </trkpt>
      <trkpt lat="48.43567" lon="2.72757">
        <ele>109</ele>
        <time>2013-04-21T12:21:19Z</time>
      </trkpt>
      <trkpt lat="48.43567" lon="2.72757">
        <ele>109</ele>
        <time>2013-04-21T12:21:20Z</time>
      </trkpt>
      <trkpt lat="48.43567" lon="2.72758">
        <ele>109</ele>
        <time>2013-04-21T12:21:22Z</time>
      </trkpt>
      <trkpt lat="48.43567" lon="2.72758">
        <ele>109</ele>
        <time>2013-04-21T12:21:24Z</time>
      </trkpt>
      <trkpt lat="48.43567" lon="2.72758">
        <ele>109</ele>
        <time>2013-04-21T12:21:26Z</time>
      </trkpt>
      <trkpt lat="48.43567" lon="2.72758">
        <ele>109</ele>
        <time>2013-04-21T12:21:28Z</time>
      </trkpt>
      <trkpt lat="48.43567" lon="2.72758">
        <ele>109</ele>
        <time>2013-04-21T12:21:30Z</time>
      </trkpt>
      <trkpt lat="48.43567" lon="2.72758">
        <ele>109</ele>
        <time>2013-04-21T12:21:32Z</time>
      </trkpt>
      <trkpt lat="48.43567" lon="2.72758">
        <ele>109</ele>
        <time>2013-04-21T12:21:34Z</time>
      </trkpt>
      <trkpt lat="48.43567" lon="2.72759">
        <ele>109</ele>
        <time>2013-04-21T12:21:36Z</time>
      </trkpt>
      <trkpt lat="48.43568" lon="2.72759">
        <ele>109</ele>
        <time>2013-04-21T12:21:41Z</time>
      </trkpt>
      <trkpt lat="48.43568" lon="2.72758">
        <ele>109</ele>
        <time>2013-04-21T12:21:44Z</time>
      </trkpt>
      <trkpt lat="48.43568" lon="2.72758">
        <ele>109</ele>
        <time>2013-04-21T12:21:47Z</time>
      </trkpt>
      <trkpt lat="48.43568" lon="2.72758">
        <ele>109</ele>
        <time>2013-04-21T12:21:49Z</time>
      </trkpt>
      <trkpt lat="48.43568" lon="2.72758">
        <ele>109</ele>
        <time>2013-04-21T12:21:51Z</time>
      </trkpt>
      <trkpt lat="48.43565" lon="2.72755">
        <ele>109</ele>
        <time>2013-04-21T12:21:55Z</time>
      </trkpt>
      <trkpt lat="48.43565" lon="2.72755">
        <ele>109</ele>
        <time>2013-04-21T12:21:56Z</time>
      </trkpt>
      <trkpt lat="48.43564" lon="2.72754">
        <ele>109</ele>
        <time>2013-04-21T12:21:57Z</time>
      </trkpt>
      <trkpt lat="48.43563" lon="2.72753">
        <ele>109</ele>
        <time>2013-04-21T12:21:58Z</time>
      </trkpt>
      <trkpt lat="48.43562" lon="2.72753">
        <ele>109</ele>
        <time>2013-04-21T12:21:59Z</time>
      </trkpt>
      <trkpt lat="48.43562" lon="2.72753">
        <ele>109</ele>
        <time>2013-04-21T12:22:00Z</time>
      </trkpt>
      <trkpt lat="48.43562" lon="2.72753">
        <ele>109</ele>
        <time>2013-04-21T12:22:01Z</time>
      </trkpt>
      <trkpt lat="48.43561" lon="2.72752">
        <ele>109</ele>
        <time>2013-04-21T12:22:02Z</time>
      </trkpt>
      <trkpt lat="48.4356" lon="2.72752">
        <ele>109</ele>
        <time>2013-04-21T12:22:03Z</time>
      </trkpt>
      <trkpt lat="48.4356" lon="2.72752">
        <ele>109</ele>
        <time>2013-04-21T12:22:04Z</time>
      </trkpt>
      <trkpt lat="48.4356" lon="2.72752">
        <ele>109</ele>
        <time>2013-04-21T12:22:05Z</time>
      </trkpt>
      <trkpt lat="48.4356" lon="2.72752">
        <ele>109</ele>
        <time>2013-04-21T12:22:06Z</time>
      </trkpt>
      <trkpt lat="48.4356" lon="2.72752">
        <ele>109</ele>
        <time>2013-04-21T12:22:07Z</time>
      </trkpt>
      <trkpt lat="48.4356" lon="2.72752">
        <ele>109</ele>
        <time>2013-04-21T12:22:09Z</time>
      </trkpt>
      <trkpt lat="48.4356" lon="2.72752">
        <ele>109</ele>
        <time>2013-04-21T12:22:11Z</time>
      </trkpt>
      <trkpt lat="48.4356" lon="2.72752">
        <ele>109</ele>
        <time>2013-04-21T12:22:13Z</time>
      </trkpt>
      <trkpt lat="48.4356" lon="2.72752">
        <ele>109</ele>
        <time>2013-04-21T12:22:14Z</time>
      </trkpt>
      <trkpt lat="48.43563" lon="2.72751">
        <ele>109</ele>
        <time>2013-04-21T12:22:16Z</time>
      </trkpt>
      <trkpt lat="48.43578" lon="2.72761">
        <ele>108</ele>
        <time>2013-04-21T12:22:20Z</time>
      </trkpt>
      <trkpt lat="48.43581" lon="2.72765">
        <ele>108</ele>
        <time>2013-04-21T12:22:21Z</time>
      </trkpt>
      <trkpt lat="48.43585" lon="2.72767">
        <ele>107</ele>
        <time>2013-04-21T12:22:22Z</time>
      </trkpt>
      <trkpt lat="48.43588" lon="2.72767">
        <ele>107</ele>
        <time>2013-04-21T12:22:23Z</time>
      </trkpt>
      <trkpt lat="48.43591" lon="2.72765">
        <ele>107</ele>
        <time>2013-04-21T12:22:25Z</time>
      </trkpt>
      <trkpt lat="48.43592" lon="2.72765">
        <ele>107</ele>
        <time>2013-04-21T12:22:26Z</time>
      </trkpt>
      <trkpt lat="48.43592" lon="2.72764">
        <ele>107</ele>
        <time>2013-04-21T12:22:27Z</time>
      </trkpt>
      <trkpt lat="48.43592" lon="2.72764">
        <ele>107</ele>
        <time>2013-04-21T12:22:28Z</time>
      </trkpt>
      <trkpt lat="48.43592" lon="2.72764">
        <ele>107</ele>
        <time>2013-04-21T12:22:29Z</time>
      </trkpt>
      <trkpt lat="48.43592" lon="2.72764">
        <ele>107</ele>
        <time>2013-04-21T12:22:30Z</time>
      </trkpt>
      <trkpt lat="48.43592" lon="2.72764">
        <ele>107</ele>
        <time>2013-04-21T12:22:31Z</time>
      </trkpt>
      <trkpt lat="48.43593" lon="2.72763">
        <ele>107</ele>
        <time>2013-04-21T12:22:32Z</time>
      </trkpt>
      <trkpt lat="48.43593" lon="2.72763">
        <ele>107</ele>
        <time>2013-04-21T12:22:33Z</time>
      </trkpt>
      <trkpt lat="48.43593" lon="2.72763">
        <ele>107</ele>
        <time>2013-04-21T12:22:34Z</time>
      </trkpt>
      <trkpt lat="48.43593" lon="2.72762">
        <ele>107</ele>
        <time>2013-04-21T12:22:35Z</time>
      </trkpt>
      <trkpt lat="48.43593" lon="2.72762">
        <ele>107</ele>
        <time>2013-04-21T12:22:36Z</time>
      </trkpt>
      <trkpt lat="48.43593" lon="2.72762">
        <ele>107</ele>
        <time>2013-04-21T12:22:37Z</time>
      </trkpt>
      <trkpt lat="48.43593" lon="2.72762">
        <ele>107</ele>
        <time>2013-04-21T12:22:38Z</time>
      </trkpt>
      <trkpt lat="48.43593" lon="2.72761">
        <ele>107</ele>
        <time>2013-04-21T12:22:39Z</time>
      </trkpt>
      <trkpt lat="48.43593" lon="2.72761">
        <ele>107</ele>
        <time>2013-04-21T12:22:40Z</time>
      </trkpt>
      <trkpt lat="48.43593" lon="2.72761">
        <ele>107</ele>
        <time>2013-04-21T12:22:41Z</time>
      </trkpt>
      <trkpt lat="48.43593" lon="2.72761">
        <ele>107</ele>
        <time>2013-04-21T12:22:42Z</time>
      </trkpt>
      <trkpt lat="48.43593" lon="2.7276">
        <ele>107</ele>
        <time>2013-04-21T12:22:43Z</time>
      </trkpt>
      <trkpt lat="48.43594" lon="2.7276">
        <ele>107</ele>
        <time>2013-04-21T12:22:44Z</time>
      </trkpt>
      <trkpt lat="48.43594" lon="2.7276">
        <ele>107</ele>
        <time>2013-04-21T12:22:45Z</time>
      </trkpt>
      <trkpt lat="48.43594" lon="2.72759">
        <ele>107</ele>
        <time>2013-04-21T12:22:46Z</time>
      </trkpt>
      <trkpt lat="48.43594" lon="2.7276">
        <ele>107</ele>
        <time>2013-04-21T12:22:48Z</time>
      </trkpt>
      <trkpt lat="48.43593" lon="2.7276">
        <ele>107</ele>
        <time>2013-04-21T12:22:49Z</time>
      </trkpt>
      <trkpt lat="48.43593" lon="2.7276">
        <ele>107</ele>
        <time>2013-04-21T12:22:50Z</time>
      </trkpt>
      <trkpt lat="48.43593" lon="2.7276">
        <ele>107</ele>
        <time>2013-04-21T12:22:51Z</time>
      </trkpt>
      <trkpt lat="48.43592" lon="2.7276">
        <ele>107</ele>
        <time>2013-04-21T12:22:52Z</time>
      </trkpt>
      <trkpt lat="48.4359" lon="2.7276">
        <ele>107</ele>
        <time>2013-04-21T12:22:53Z</time>
      </trkpt>
      <trkpt lat="48.43586" lon="2.72759">
        <ele>108</ele>
        <time>2013-04-21T12:22:54Z</time>
      </trkpt>
      <trkpt lat="48.43584" lon="2.72757">
        <ele>108</ele>
        <time>2013-04-21T12:22:55Z</time>
      </trkpt>
      <trkpt lat="48.43578" lon="2.72751">
        <ele>108</ele>
        <time>2013-04-21T12:22:58Z</time>
      </trkpt>
      <trkpt lat="48.43576" lon="2.7275">
        <ele>108</ele>
        <time>2013-04-21T12:22:59Z</time>
      </trkpt>
      <trkpt lat="48.43571" lon="2.72748">
        <ele>110</ele>
        <time>2013-04-21T12:23:03Z</time>
      </trkpt>
      <trkpt lat="48.43571" lon="2.72748">
        <ele>110</ele>
        <time>2013-04-21T12:23:04Z</time>
      </trkpt>
      <trkpt lat="48.43571" lon="2.72747">
        <ele>110</ele>
        <time>2013-04-21T12:23:05Z</time>
      </trkpt>
      <trkpt lat="48.43571" lon="2.72747">
        <ele>110</ele>
        <time>2013-04-21T12:23:06Z</time>
      </trkpt>
      <trkpt lat="48.43571" lon="2.72746">
        <ele>110</ele>
        <time>2013-04-21T12:23:07Z</time>
      </trkpt>
      <trkpt lat="48.43571" lon="2.72747">
        <ele>110</ele>
        <time>2013-04-21T12:23:08Z</time>
      </trkpt>
      <trkpt lat="48.43571" lon="2.72747">
        <ele>110</ele>
        <time>2013-04-21T12:23:10Z</time>
      </trkpt>
      <trkpt lat="48.43571" lon="2.72747">
        <ele>110</ele>
        <time>2013-04-21T12:23:11Z</time>
      </trkpt>
      <trkpt lat="48.43571" lon="2.72747">
        <ele>110</ele>
        <time>2013-04-21T12:23:12Z</time>
      </trkpt>
      <trkpt lat="48.43572" lon="2.72748">
        <ele>110</ele>
        <time>2013-04-21T12:23:13Z</time>
      </trkpt>
      <trkpt lat="48.43573" lon="2.72749">
        <ele>110</ele>
        <time>2013-04-21T12:23:14Z</time>
      </trkpt>
      <trkpt lat="48.43578" lon="2.72752">
        <ele>108</ele>
        <time>2013-04-21T12:23:16Z</time>
      </trkpt>
      <trkpt lat="48.43586" lon="2.7276">
        <ele>108</ele>
        <time>2013-04-21T12:23:18Z</time>
      </trkpt>
      <trkpt lat="48.43591" lon="2.72762">
        <ele>107</ele>
        <time>2013-04-21T12:23:19Z</time>
      </trkpt>
      <trkpt lat="48.43595" lon="2.7276">
        <ele>107</ele>
        <time>2013-04-21T12:23:21Z</time>
      </trkpt>
      <trkpt lat="48.43595" lon="2.7276">
        <ele>107</ele>
        <time>2013-04-21T12:23:22Z</time>
      </trkpt>
      <trkpt lat="48.43595" lon="2.7276">
        <ele>107</ele>
        <time>2013-04-21T12:23:24Z</time>
      </trkpt>
      <trkpt lat="48.43596" lon="2.7276">
        <ele>107</ele>
        <time>2013-04-21T12:23:25Z</time>
      </trkpt>
      <trkpt lat="48.43595" lon="2.7276">
        <ele>107</ele>
        <time>2013-04-21T12:23:26Z</time>
      </trkpt>
      <trkpt lat="48.43595" lon="2.7276">
        <ele>107</ele>
        <time>2013-04-21T12:23:28Z</time>
      </trkpt>
      <trkpt lat="48.43595" lon="2.72759">
        <ele>107</ele>
        <time>2013-04-21T12:23:29Z</time>
      </trkpt>
      <trkpt lat="48.43595" lon="2.72759">
        <ele>107</ele>
        <time>2013-04-21T12:23:30Z</time>
      </trkpt>
      <trkpt lat="48.43595" lon="2.72759">
        <ele>107</ele>
        <time>2013-04-21T12:23:31Z</time>
      </trkpt>
      <trkpt lat="48.43595" lon="2.72759">
        <ele>107</ele>
        <time>2013-04-21T12:23:32Z</time>
      </trkpt>
      <trkpt lat="48.43595" lon="2.72759">
        <ele>107</ele>
        <time>2013-04-21T12:23:33Z</time>
      </trkpt>
      <trkpt lat="48.43595" lon="2.72759">
        <ele>107</ele>
        <time>2013-04-21T12:23:34Z</time>
      </trkpt>
      <trkpt lat="48.43595" lon="2.72758">
        <ele>107</ele>
        <time>2013-04-21T12:23:35Z</time>
      </trkpt>
      <trkpt lat="48.43594" lon="2.72758">
        <ele>107</ele>
        <time>2013-04-21T12:23:36Z</time>
      </trkpt>
      <trkpt lat="48.43594" lon="2.72758">
        <ele>107</ele>
        <time>2013-04-21T12:23:37Z</time>
      </trkpt>
      <trkpt lat="48.43594" lon="2.72757">
        <ele>107</ele>
        <time>2013-04-21T12:23:38Z</time>
      </trkpt>
      <trkpt lat="48.43594" lon="2.72757">
        <ele>107</ele>
        <time>2013-04-21T12:23:39Z</time>
      </trkpt>
      <trkpt lat="48.43593" lon="2.72757">
        <ele>107</ele>
        <time>2013-04-21T12:23:40Z</time>
      </trkpt>
      <trkpt lat="48.43593" lon="2.72757">
        <ele>107</ele>
        <time>2013-04-21T12:23:41Z</time>
      </trkpt>
      <trkpt lat="48.43593" lon="2.72756">
        <ele>108</ele>
        <time>2013-04-21T12:23:42Z</time>
      </trkpt>
      <trkpt lat="48.43593" lon="2.72756">
        <ele>108</ele>
        <time>2013-04-21T12:23:43Z</time>
      </trkpt>
      <trkpt lat="48.43593" lon="2.72756">
        <ele>108</ele>
        <time>2013-04-21T12:23:44Z</time>
      </trkpt>
      <trkpt lat="48.43593" lon="2.72756">
        <ele>108</ele>
        <time>2013-04-21T12:23:45Z</time>
      </trkpt>
      <trkpt lat="48.43593" lon="2.72756">
        <ele>108</ele>
        <time>2013-04-21T12:23:46Z</time>
      </trkpt>
      <trkpt lat="48.43593" lon="2.72756">
        <ele>108</ele>
        <time>2013-04-21T12:23:47Z</time>
      </trkpt>
      <trkpt lat="48.43592" lon="2.72755">
        <ele>108</ele>
        <time>2013-04-21T12:23:48Z</time>
      </trkpt>
      <trkpt lat="48.43592" lon="2.72755">
        <ele>108</ele>
        <time>2013-04-21T12:23:49Z</time>
      </trkpt>
      <trkpt lat="48.43592" lon="2.72755">
        <ele>108</ele>
        <time>2013-04-21T12:23:50Z</time>
      </trkpt>
      <trkpt lat="48.43592" lon="2.72755">
        <ele>108</ele>
        <time>2013-04-21T12:23:51Z</time>
      </trkpt>
      <trkpt lat="48.43592" lon="2.72755">
        <ele>108</ele>
        <time>2013-04-21T12:23:52Z</time>
      </trkpt>
      <trkpt lat="48.43592" lon="2.72755">
        <ele>108</ele>
        <time>2013-04-21T12:23:53Z</time>
      </trkpt>
      <trkpt lat="48.43592" lon="2.72755">
        <ele>108</ele>
        <time>2013-04-21T12:23:54Z</time>
      </trkpt>
      <trkpt lat="48.43592" lon="2.72755">
        <ele>108</ele>
        <time>2013-04-21T12:23:57Z</time>
      </trkpt>
      <trkpt lat="48.43591" lon="2.72755">
        <ele>108</ele>
        <time>2013-04-21T12:24:00Z</time>
      </trkpt>
      <trkpt lat="48.43591" lon="2.72755">
        <ele>108</ele>
        <time>2013-04-21T12:24:02Z</time>
      </trkpt>
      <trkpt lat="48.43591" lon="2.72755">
        <ele>108</ele>
        <time>2013-04-21T12:24:05Z</time>
      </trkpt>
      <trkpt lat="48.43591" lon="2.72755">
        <ele>108</ele>
        <time>2013-04-21T12:24:07Z</time>
      </trkpt>
      <trkpt lat="48.43591" lon="2.72755">
        <ele>108</ele>
        <time>2013-04-21T12:24:08Z</time>
      </trkpt>
      <trkpt lat="48.43591" lon="2.72755">
        <ele>108</ele>
        <time>2013-04-21T12:24:13Z</time>
      </trkpt>
      <trkpt lat="48.43591" lon="2.72755">
        <ele>108</ele>
        <time>2013-04-21T12:24:14Z</time>
      </trkpt>
      <trkpt lat="48.43591" lon="2.72755">
        <ele>108</ele>
        <time>2013-04-21T12:24:15Z</time>
      </trkpt>
      <trkpt lat="48.43591" lon="2.72755">
        <ele>108</ele>
        <time>2013-04-21T12:24:22Z</time>
      </trkpt>
      <trkpt lat="48.43591" lon="2.72755">
        <ele>108</ele>
        <time>2013-04-21T12:24:27Z</time>
      </trkpt>
      <trkpt lat="48.43591" lon="2.72755">
        <ele>108</ele>
        <time>2013-04-21T12:24:30Z</time>
      </trkpt>
      <trkpt lat="48.43591" lon="2.72755">
        <ele>108</ele>
        <time>2013-04-21T12:24:31Z</time>
      </trkpt>
      <trkpt lat="48.4359" lon="2.72755">
        <ele>108</ele>
        <time>2013-04-21T12:24:34Z</time>
      </trkpt>
      <trkpt lat="48.4359" lon="2.72755">
        <ele>108</ele>
        <time>2013-04-21T12:24:35Z</time>
      </trkpt>
      <trkpt lat="48.4359" lon="2.72755">
        <ele>108</ele>
        <time>2013-04-21T12:24:36Z</time>
      </trkpt>
      <trkpt lat="48.4359" lon="2.72755">
        <ele>108</ele>
        <time>2013-04-21T12:24:37Z</time>
      </trkpt>
      <trkpt lat="48.43591" lon="2.72754">
        <ele>108</ele>
        <time>2013-04-21T12:24:39Z</time>
      </trkpt>
      <trkpt lat="48.43591" lon="2.72754">
        <ele>108</ele>
        <time>2013-04-21T12:24:40Z</time>
      </trkpt>
      <trkpt lat="48.43591" lon="2.72754">
        <ele>108</ele>
        <time>2013-04-21T12:24:41Z</time>
      </trkpt>
      <trkpt lat="48.43591" lon="2.72754">
        <ele>108</ele>
        <time>2013-04-21T12:24:42Z</time>
      </trkpt>
      <trkpt lat="48.43591" lon="2.72754">
        <ele>108</ele>
        <time>2013-04-21T12:24:44Z</time>
      </trkpt>
      <trkpt lat="48.43591" lon="2.72754">
        <ele>108</ele>
        <time>2013-04-21T12:24:45Z</time>
      </trkpt>
      <trkpt lat="48.43592" lon="2.72754">
        <ele>108</ele>
        <time>2013-04-21T12:24:46Z</time>
      </trkpt>
      <trkpt lat="48.43592" lon="2.72754">
        <ele>108</ele>
        <time>2013-04-21T12:24:47Z</time>
      </trkpt>
      <trkpt lat="48.43592" lon="2.72754">
        <ele>108</ele>
        <time>2013-04-21T12:24:49Z</time>
      </trkpt>
      <trkpt lat="48.43592" lon="2.72754">
        <ele>108</ele>
        <time>2013-04-21T12:24:51Z</time>
      </trkpt>
      <trkpt lat="48.43592" lon="2.72754">
        <ele>108</ele>
        <time>2013-04-21T12:24:53Z</time>
      </trkpt>
      <trkpt lat="48.43592" lon="2.72754">
        <ele>108</ele>
        <time>2013-04-21T12:24:55Z</time>
      </trkpt>
      <trkpt lat="48.43592" lon="2.72754">
        <ele>108</ele>
        <time>2013-04-21T12:24:56Z</time>
      </trkpt>
      <trkpt lat="48.43592" lon="2.72754">
        <ele>108</ele>
        <time>2013-04-21T12:24:57Z</time>
      </trkpt>
      <trkpt lat="48.43593" lon="2.72754">
        <ele>108</ele>
        <time>2013-04-21T12:24:58Z</time>
      </trkpt>
      <trkpt lat="48.43593" lon="2.72754">
        <ele>108</ele>
        <time>2013-04-21T12:24:59Z</time>
      </trkpt>
      <trkpt lat="48.43593" lon="2.72754">
        <ele>108</ele>
        <time>2013-04-21T12:25:01Z</time>
      </trkpt>
      <trkpt lat="48.43593" lon="2.72754">
        <ele>108</ele>
        <time>2013-04-21T12:25:02Z</time>
      </trkpt>
      <trkpt lat="48.43593" lon="2.72754">
        <ele>108</ele>
        <time>2013-04-21T12:25:03Z</time>
      </trkpt>
      <trkpt lat="48.43593" lon="2.72754">
        <ele>108</ele>
        <time>2013-04-21T12:25:04Z</time>
      </trkpt>
      <trkpt lat="48.43593" lon="2.72754">
        <ele>108</ele>
        <time>2013-04-21T12:25:05Z</time>
      </trkpt>
      <trkpt lat="48.43593" lon="2.72753">
        <ele>108</ele>
        <time>2013-04-21T12:25:06Z</time>
      </trkpt>
      <trkpt lat="48.43593" lon="2.72753">
        <ele>108</ele>
        <time>2013-04-21T12:25:10Z</time>
      </trkpt>
      <trkpt lat="48.43593" lon="2.72754">
        <ele>108</ele>
        <time>2013-04-21T12:25:12Z</time>
      </trkpt>
      <trkpt lat="48.43593" lon="2.72754">
        <ele>108</ele>
        <time>2013-04-21T12:25:13Z</time>
      </trkpt>
      <trkpt lat="48.43593" lon="2.72754">
        <ele>108</ele>
        <time>2013-04-21T12:25:15Z</time>
      </trkpt>
      <trkpt lat="48.43593" lon="2.72754">
        <ele>108</ele>
        <time>2013-04-21T12:25:16Z</time>
      </trkpt>
      <trkpt lat="48.43593" lon="2.72754">
        <ele>108</ele>
        <time>2013-04-21T12:25:19Z</time>
      </trkpt>
      <trkpt lat="48.43593" lon="2.72754">
        <ele>108</ele>
        <time>2013-04-21T12:25:21Z</time>
      </trkpt>
      <trkpt lat="48.43593" lon="2.72754">
        <ele>108</ele>
        <time>2013-04-21T12:25:23Z</time>
      </trkpt>
      <trkpt lat="48.43594" lon="2.72754">
        <ele>108</ele>
        <time>2013-04-21T12:25:24Z</time>
      </trkpt>
      <trkpt lat="48.43594" lon="2.72754">
        <ele>108</ele>
        <time>2013-04-21T12:25:25Z</time>
      </trkpt>
      <trkpt lat="48.43594" lon="2.72754">
        <ele>108</ele>
        <time>2013-04-21T12:25:26Z</time>
      </trkpt>
      <trkpt lat="48.43594" lon="2.72754">
        <ele>108</ele>
        <time>2013-04-21T12:25:27Z</time>
      </trkpt>
      <trkpt lat="48.43594" lon="2.72755">
        <ele>108</ele>
        <time>2013-04-21T12:25:29Z</time>
      </trkpt>
      <trkpt lat="48.43594" lon="2.72755">
        <ele>108</ele>
        <time>2013-04-21T12:25:32Z</time>
      </trkpt>
      <trkpt lat="48.43594" lon="2.72755">
        <ele>108</ele>
        <time>2013-04-21T12:25:35Z</time>
      </trkpt>
      <trkpt lat="48.43594" lon="2.72755">
        <ele>108</ele>
        <time>2013-04-21T12:25:37Z</time>
      </trkpt>
      <trkpt lat="48.43593" lon="2.72755">
        <ele>108</ele>
        <time>2013-04-21T12:25:40Z</time>
      </trkpt>
      <trkpt lat="48.43593" lon="2.72755">
        <ele>108</ele>
        <time>2013-04-21T12:25:41Z</time>
      </trkpt>
      <trkpt lat="48.43593" lon="2.72756">
        <ele>108</ele>
        <time>2013-04-21T12:25:42Z</time>
      </trkpt>
      <trkpt lat="48.43593" lon="2.72756">
        <ele>108</ele>
        <time>2013-04-21T12:25:43Z</time>
      </trkpt>
      <trkpt lat="48.43592" lon="2.72757">
        <ele>108</ele>
        <time>2013-04-21T12:25:44Z</time>
      </trkpt>
      <trkpt lat="48.4359" lon="2.72758">
        <ele>108</ele>
        <time>2013-04-21T12:25:45Z</time>
      </trkpt>
      <trkpt lat="48.43589" lon="2.72761">
        <ele>107</ele>
        <time>2013-04-21T12:25:46Z</time>
      </trkpt>
      <trkpt lat="48.43581" lon="2.72794">
        <ele>108</ele>
        <time>2013-04-21T12:25:52Z</time>
      </trkpt>
      <trkpt lat="48.43576" lon="2.72848">
        <ele>104</ele>
        <time>2013-04-21T12:26:00Z</time>
      </trkpt>
      <trkpt lat="48.43575" lon="2.72854">
        <ele>105</ele>
        <time>2013-04-21T12:26:01Z</time>
      </trkpt>
      <trkpt lat="48.43574" lon="2.7286">
        <ele>105</ele>
        <time>2013-04-21T12:26:02Z</time>
      </trkpt>
      <trkpt lat="48.43574" lon="2.72874">
        <ele>105</ele>
        <time>2013-04-21T12:26:04Z</time>
      </trkpt>
      <trkpt lat="48.43572" lon="2.72888">
        <ele>105</ele>
        <time>2013-04-21T12:26:06Z</time>
      </trkpt>
      <trkpt lat="48.4357" lon="2.72894">
        <ele>105</ele>
        <time>2013-04-21T12:26:07Z</time>
      </trkpt>
      <trkpt lat="48.43567" lon="2.72898">
        <ele>105</ele>
        <time>2013-04-21T12:26:08Z</time>
      </trkpt>
      <trkpt lat="48.43565" lon="2.729">
        <ele>105</ele>
        <time>2013-04-21T12:26:09Z</time>
      </trkpt>
      <trkpt lat="48.43562" lon="2.72901">
        <ele>105</ele>
        <time>2013-04-21T12:26:10Z</time>
      </trkpt>
      <trkpt lat="48.4356" lon="2.729">
        <ele>105</ele>
        <time>2013-04-21T12:26:11Z</time>
      </trkpt>
      <trkpt lat="48.43528" lon="2.72868">
        <ele>107</ele>
        <time>2013-04-21T12:26:25Z</time>
      </trkpt>
      <trkpt lat="48.43521" lon="2.72857">
        <ele>108</ele>
        <time>2013-04-21T12:26:29Z</time>
      </trkpt>
      <trkpt lat="48.43511" lon="2.72845">
        <ele>109</ele>
        <time>2013-04-21T12:26:35Z</time>
      </trkpt>
      <trkpt lat="48.43493" lon="2.7283">
        <ele>113</ele>
        <time>2013-04-21T12:26:44Z</time>
      </trkpt>
      <trkpt lat="48.43461" lon="2.72812">
        <ele>116</ele>
        <time>2013-04-21T12:27:03Z</time>
      </trkpt>
      <trkpt lat="48.4346" lon="2.72811">
        <ele>116</ele>
        <time>2013-04-21T12:27:04Z</time>
      </trkpt>
      <trkpt lat="48.43451" lon="2.72805">
        <ele>117</ele>
        <time>2013-04-21T12:27:11Z</time>
      </trkpt>
      <trkpt lat="48.43447" lon="2.72802">
        <ele>117</ele>
        <time>2013-04-21T12:27:14Z</time>
      </trkpt>
      <trkpt lat="48.43445" lon="2.72799">
        <ele>117</ele>
        <time>2013-04-21T12:27:16Z</time>
      </trkpt>
      <trkpt lat="48.43444" lon="2.72798">
        <ele>117</ele>
        <time>2013-04-21T12:27:17Z</time>
      </trkpt>
      <trkpt lat="48.43439" lon="2.72793">
        <ele>117</ele>
        <time>2013-04-21T12:27:21Z</time>
      </trkpt>
      <trkpt lat="48.43435" lon="2.7279">
        <ele>117</ele>
        <time>2013-04-21T12:27:24Z</time>
      </trkpt>
      <trkpt lat="48.43427" lon="2.72787">
        <ele>118</ele>
        <time>2013-04-21T12:27:29Z</time>
      </trkpt>
      <trkpt lat="48.43408" lon="2.72784">
        <ele>119</ele>
        <time>2013-04-21T12:27:41Z</time>
      </trkpt>
      <trkpt lat="48.43399" lon="2.72785">
        <ele>118</ele>
        <time>2013-04-21T12:27:45Z</time>
      </trkpt>
      <trkpt lat="48.43394" lon="2.72785">
        <ele>118</ele>
        <time>2013-04-21T12:27:47Z</time>
      </trkpt>
      <trkpt lat="48.43387" lon="2.72785">
        <ele>118</ele>
        <time>2013-04-21T12:27:51Z</time>
      </trkpt>
      <trkpt lat="48.43381" lon="2.72784">
        <ele>118</ele>
        <time>2013-04-21T12:27:54Z</time>
      </trkpt>
      <trkpt lat="48.43343" lon="2.72762">
        <ele>117</ele>
        <time>2013-04-21T12:28:06Z</time>
      </trkpt>
      <trkpt lat="48.43339" lon="2.72762">
        <ele>117</ele>
        <time>2013-04-21T12:28:07Z</time>
      </trkpt>
      <trkpt lat="48.43279" lon="2.72761">
        <ele>112</ele>
        <time>2013-04-21T12:28:20Z</time>
      </trkpt>
      <trkpt lat="48.43265" lon="2.72757">
        <ele>112</ele>
        <time>2013-04-21T12:28:23Z</time>
      </trkpt>
      <trkpt lat="48.4325" lon="2.72748">
        <ele>111</ele>
        <time>2013-04-21T12:28:27Z</time>
      </trkpt>
      <trkpt lat="48.43248" lon="2.72745">
        <ele>111</ele>
        <time>2013-04-21T12:28:28Z</time>
      </trkpt>
      <trkpt lat="48.43241" lon="2.7273">
        <ele>111</ele>
        <time>2013-04-21T12:28:32Z</time>
      </trkpt>
      <trkpt lat="48.43218" lon="2.72665">
        <ele>114</ele>
        <time>2013-04-21T12:28:45Z</time>
      </trkpt>
      <trkpt lat="48.43212" lon="2.72646">
        <ele>114</ele>
        <time>2013-04-21T12:28:49Z</time>
      </trkpt>
      <trkpt lat="48.4321" lon="2.72641">
        <ele>114</ele>
        <time>2013-04-21T12:28:50Z</time>
      </trkpt>
      <trkpt lat="48.43194" lon="2.7259">
        <ele>116</ele>
        <time>2013-04-21T12:29:01Z</time>
      </trkpt>
      <trkpt lat="48.43193" lon="2.72584">
        <ele>116</ele>
        <time>2013-04-21T12:29:02Z</time>
      </trkpt>
      <trkpt lat="48.43194" lon="2.7258">
        <ele>118</ele>
        <time>2013-04-21T12:29:03Z</time>
      </trkpt>
      <trkpt lat="48.43197" lon="2.72571">
        <ele>118</ele>
        <time>2013-04-21T12:29:06Z</time>
      </trkpt>
      <trkpt lat="48.43214" lon="2.72542">
        <ele>118</ele>
        <time>2013-04-21T12:29:18Z</time>
      </trkpt>
      <trkpt lat="48.43216" lon="2.72539">
        <ele>118</ele>
        <time>2013-04-21T12:29:19Z</time>
      </trkpt>
      <trkpt lat="48.43263" lon="2.72463">
        <ele>122</ele>
        <time>2013-04-21T12:29:42Z</time>
      </trkpt>
      <trkpt lat="48.4327" lon="2.72457">
        <ele>122</ele>
        <time>2013-04-21T12:29:45Z</time>
      </trkpt>
      <trkpt lat="48.43285" lon="2.72449">
        <ele>122</ele>
        <time>2013-04-21T12:29:52Z</time>
      </trkpt>
      <trkpt lat="48.43289" lon="2.72448">
        <ele>123</ele>
        <time>2013-04-21T12:29:54Z</time>
      </trkpt>
      <trkpt lat="48.43291" lon="2.72448">
        <ele>123</ele>
        <time>2013-04-21T12:29:55Z</time>
      </trkpt>
      <trkpt lat="48.43293" lon="2.72448">
        <ele>123</ele>
        <time>2013-04-21T12:29:56Z</time>
      </trkpt>
      <trkpt lat="48.43297" lon="2.72449">
        <ele>123</ele>
        <time>2013-04-21T12:29:58Z</time>
      </trkpt>
      <trkpt lat="48.43305" lon="2.72454">
        <ele>123</ele>
        <time>2013-04-21T12:30:02Z</time>
      </trkpt>
      <trkpt lat="48.43307" lon="2.72456">
        <ele>123</ele>
        <time>2013-04-21T12:30:03Z</time>
      </trkpt>
      <trkpt lat="48.43308" lon="2.72457">
        <ele>123</ele>
        <time>2013-04-21T12:30:04Z</time>
      </trkpt>
      <trkpt lat="48.4331" lon="2.72459">
        <ele>123</ele>
        <time>2013-04-21T12:30:05Z</time>
      </trkpt>
      <trkpt lat="48.43314" lon="2.72464">
        <ele>123</ele>
        <time>2013-04-21T12:30:08Z</time>
      </trkpt>
      <trkpt lat="48.43322" lon="2.72477">
        <ele>123</ele>
        <time>2013-04-21T12:30:14Z</time>
      </trkpt>
      <trkpt lat="48.43329" lon="2.7249">
        <ele>123</ele>
        <time>2013-04-21T12:30:19Z</time>
      </trkpt>
      <trkpt lat="48.4333" lon="2.72493">
        <ele>124</ele>
        <time>2013-04-21T12:30:20Z</time>
      </trkpt>
      <trkpt lat="48.43335" lon="2.72507">
        <ele>124</ele>
        <time>2013-04-21T12:30:24Z</time>
      </trkpt>
      <trkpt lat="48.43337" lon="2.72513">
        <ele>125</ele>
        <time>2013-04-21T12:30:26Z</time>
      </trkpt>
      <trkpt lat="48.4334" lon="2.72527">
        <ele>125</ele>
        <time>2013-04-21T12:30:30Z</time>
      </trkpt>
      <trkpt lat="48.43346" lon="2.72571">
        <ele>124</ele>
        <time>2013-04-21T12:30:41Z</time>
      </trkpt>
      <trkpt lat="48.4335" lon="2.72631">
        <ele>123</ele>
        <time>2013-04-21T12:30:53Z</time>
      </trkpt>
      <trkpt lat="48.43352" lon="2.72641">
        <ele>123</ele>
        <time>2013-04-21T12:30:55Z</time>
      </trkpt>
      <trkpt lat="48.43355" lon="2.7265">
        <ele>123</ele>
        <time>2013-04-21T12:30:57Z</time>
      </trkpt>
      <trkpt lat="48.4336" lon="2.72657">
        <ele>123</ele>
        <time>2013-04-21T12:30:59Z</time>
      </trkpt>
      <trkpt lat="48.43363" lon="2.7266">
        <ele>123</ele>
        <time>2013-04-21T12:31:00Z</time>
      </trkpt>
      <trkpt lat="48.43366" lon="2.72663">
        <ele>123</ele>
        <time>2013-04-21T12:31:01Z</time>
      </trkpt>
      <trkpt lat="48.4337" lon="2.72664">
        <ele>123</ele>
        <time>2013-04-21T12:31:02Z</time>
      </trkpt>
      <trkpt lat="48.43374" lon="2.72664">
        <ele>124</ele>
        <time>2013-04-21T12:31:03Z</time>
      </trkpt>
      <trkpt lat="48.43377" lon="2.72663">
        <ele>124</ele>
        <time>2013-04-21T12:31:04Z</time>
      </trkpt>
      <trkpt lat="48.43384" lon="2.72657">
        <ele>124</ele>
        <time>2013-04-21T12:31:06Z</time>
      </trkpt>
      <trkpt lat="48.4339" lon="2.7265">
        <ele>124</ele>
        <time>2013-04-21T12:31:08Z</time>
      </trkpt>
      <trkpt lat="48.43394" lon="2.72641">
        <ele>125</ele>
        <time>2013-04-21T12:31:10Z</time>
      </trkpt>
      <trkpt lat="48.43397" lon="2.72632">
        <ele>125</ele>
        <time>2013-04-21T12:31:12Z</time>
      </trkpt>
      <trkpt lat="48.43397" lon="2.72627">
        <ele>125</ele>
        <time>2013-04-21T12:31:13Z</time>
      </trkpt>
      <trkpt lat="48.43397" lon="2.72619">
        <ele>125</ele>
        <time>2013-04-21T12:31:15Z</time>
      </trkpt>
      <trkpt lat="48.43395" lon="2.72611">
        <ele>125</ele>
        <time>2013-04-21T12:31:18Z</time>
      </trkpt>
      <trkpt lat="48.43395" lon="2.72609">
        <ele>125</ele>
        <time>2013-04-21T12:31:19Z</time>
      </trkpt>
      <trkpt lat="48.43395" lon="2.72605">
        <ele>125</ele>
        <time>2013-04-21T12:31:21Z</time>
      </trkpt>
      <trkpt lat="48.43394" lon="2.72603">
        <ele>125</ele>
        <time>2013-04-21T12:31:22Z</time>
      </trkpt>
      <trkpt lat="48.43394" lon="2.72601">
        <ele>125</ele>
        <time>2013-04-21T12:31:23Z</time>
      </trkpt>
      <trkpt lat="48.43394" lon="2.726">
        <ele>125</ele>
        <time>2013-04-21T12:31:24Z</time>
      </trkpt>
      <trkpt lat="48.43393" lon="2.72596">
        <ele>125</ele>
        <time>2013-04-21T12:31:27Z</time>
      </trkpt>
      <trkpt lat="48.43393" lon="2.72594">
        <ele>125</ele>
        <time>2013-04-21T12:31:28Z</time>
      </trkpt>
      <trkpt lat="48.43393" lon="2.72592">
        <ele>125</ele>
        <time>2013-04-21T12:31:29Z</time>
      </trkpt>
      <trkpt lat="48.43392" lon="2.72591">
        <ele>125</ele>
        <time>2013-04-21T12:31:30Z</time>
      </trkpt>
      <trkpt lat="48.43391" lon="2.72591">
        <ele>125</ele>
        <time>2013-04-21T12:31:31Z</time>
      </trkpt>
      <trkpt lat="48.4339" lon="2.72591">
        <ele>125</ele>
        <time>2013-04-21T12:31:32Z</time>
      </trkpt>
      <trkpt lat="48.43389" lon="2.72592">
        <ele>125</ele>
        <time>2013-04-21T12:31:33Z</time>
      </trkpt>
      <trkpt lat="48.43389" lon="2.72593">
        <ele>125</ele>
        <time>2013-04-21T12:31:34Z</time>
      </trkpt>
      <trkpt lat="48.43389" lon="2.72594">
        <ele>125</ele>
        <time>2013-04-21T12:31:35Z</time>
      </trkpt>
      <trkpt lat="48.4339" lon="2.72595">
        <ele>125</ele>
        <time>2013-04-21T12:31:36Z</time>
      </trkpt>
      <trkpt lat="48.4339" lon="2.72595">
        <ele>125</ele>
        <time>2013-04-21T12:31:37Z</time>
      </trkpt>
      <trkpt lat="48.4339" lon="2.72595">
        <ele>125</ele>
        <time>2013-04-21T12:31:39Z</time>
      </trkpt>
      <trkpt lat="48.4339" lon="2.72594">
        <ele>125</ele>
        <time>2013-04-21T12:31:45Z</time>
      </trkpt>
      <trkpt lat="48.4339" lon="2.72594">
        <ele>125</ele>
        <time>2013-04-21T12:31:53Z</time>
      </trkpt>
      <trkpt lat="48.4339" lon="2.72594">
        <ele>125</ele>
        <time>2013-04-21T12:32:01Z</time>
      </trkpt>
      <trkpt lat="48.4339" lon="2.72595">
        <ele>125</ele>
        <time>2013-04-21T12:32:03Z</time>
      </trkpt>
      <trkpt lat="48.4339" lon="2.72595">
        <ele>125</ele>
        <time>2013-04-21T12:32:07Z</time>
      </trkpt>
      <trkpt lat="48.4339" lon="2.72595">
        <ele>125</ele>
        <time>2013-04-21T12:32:10Z</time>
      </trkpt>
      <trkpt lat="48.4339" lon="2.72595">
        <ele>125</ele>
        <time>2013-04-21T12:32:12Z</time>
      </trkpt>
      <trkpt lat="48.4339" lon="2.72595">
        <ele>125</ele>
        <time>2013-04-21T12:32:14Z</time>
      </trkpt>
      <trkpt lat="48.4339" lon="2.72595">
        <ele>125</ele>
        <time>2013-04-21T12:32:16Z</time>
      </trkpt>
      <trkpt lat="48.43391" lon="2.72595">
        <ele>125</ele>
        <time>2013-04-21T12:32:20Z</time>
      </trkpt>
      <trkpt lat="48.43391" lon="2.72595">
        <ele>125</ele>
        <time>2013-04-21T12:32:21Z</time>
      </trkpt>
      <trkpt lat="48.43391" lon="2.72595">
        <ele>125</ele>
        <time>2013-04-21T12:32:23Z</time>
      </trkpt>
      <trkpt lat="48.43391" lon="2.72595">
        <ele>125</ele>
        <time>2013-04-21T12:32:27Z</time>
      </trkpt>
      <trkpt lat="48.43391" lon="2.72596">
        <ele>125</ele>
        <time>2013-04-21T12:32:32Z</time>
      </trkpt>
      <trkpt lat="48.43391" lon="2.72596">
        <ele>125</ele>
        <time>2013-04-21T12:32:36Z</time>
      </trkpt>
      <trkpt lat="48.43391" lon="2.72596">
        <ele>125</ele>
        <time>2013-04-21T12:32:37Z</time>
      </trkpt>
      <trkpt lat="48.43391" lon="2.72596">
        <ele>125</ele>
        <time>2013-04-21T12:32:38Z</time>
      </trkpt>
      <trkpt lat="48.43392" lon="2.72596">
        <ele>125</ele>
        <time>2013-04-21T12:32:39Z</time>
      </trkpt>
      <trkpt lat="48.43394" lon="2.72597">
        <ele>125</ele>
        <time>2013-04-21T12:32:41Z</time>
      </trkpt>
      <trkpt lat="48.43395" lon="2.72598">
        <ele>125</ele>
        <time>2013-04-21T12:32:42Z</time>
      </trkpt>
      <trkpt lat="48.43396" lon="2.72599">
        <ele>125</ele>
        <time>2013-04-21T12:32:43Z</time>
      </trkpt>
      <trkpt lat="48.43397" lon="2.72602">
        <ele>125</ele>
        <time>2013-04-21T12:32:44Z</time>
      </trkpt>
      <trkpt lat="48.43398" lon="2.72609">
        <ele>125</ele>
        <time>2013-04-21T12:32:46Z</time>
      </trkpt>
      <trkpt lat="48.43399" lon="2.72626">
        <ele>125</ele>
        <time>2013-04-21T12:32:49Z</time>
      </trkpt>
      <trkpt lat="48.43399" lon="2.72633">
        <ele>125</ele>
        <time>2013-04-21T12:32:50Z</time>
      </trkpt>
      <trkpt lat="48.43398" lon="2.7264">
        <ele>125</ele>
        <time>2013-04-21T12:32:51Z</time>
      </trkpt>
      <trkpt lat="48.43396" lon="2.72647">
        <ele>125</ele>
        <time>2013-04-21T12:32:52Z</time>
      </trkpt>
      <trkpt lat="48.43392" lon="2.72654">
        <ele>124</ele>
        <time>2013-04-21T12:32:53Z</time>
      </trkpt>
      <trkpt lat="48.43382" lon="2.72668">
        <ele>122</ele>
        <time>2013-04-21T12:32:58Z</time>
      </trkpt>
      <trkpt lat="48.43381" lon="2.7267">
        <ele>122</ele>
        <time>2013-04-21T12:32:59Z</time>
      </trkpt>
      <trkpt lat="48.43382" lon="2.72681">
        <ele>122</ele>
        <time>2013-04-21T12:33:02Z</time>
      </trkpt>
      <trkpt lat="48.43381" lon="2.72686">
        <ele>121</ele>
        <time>2013-04-21T12:33:03Z</time>
      </trkpt>
      <trkpt lat="48.43379" lon="2.72689">
        <ele>121</ele>
        <time>2013-04-21T12:33:04Z</time>
      </trkpt>
      <trkpt lat="48.43376" lon="2.72694">
        <ele>121</ele>
        <time>2013-04-21T12:33:06Z</time>
      </trkpt>
      <trkpt lat="48.43375" lon="2.72698">
        <ele>121</ele>
        <time>2013-04-21T12:33:08Z</time>
      </trkpt>
      <trkpt lat="48.43375" lon="2.72702">
        <ele>121</ele>
        <time>2013-04-21T12:33:09Z</time>
      </trkpt>
      <trkpt lat="48.43375" lon="2.72705">
        <ele>121</ele>
        <time>2013-04-21T12:33:10Z</time>
      </trkpt>
      <trkpt lat="48.43377" lon="2.72708">
        <ele>121</ele>
        <time>2013-04-21T12:33:11Z</time>
      </trkpt>
      <trkpt lat="48.43376" lon="2.72718">
        <ele>120</ele>
        <time>2013-04-21T12:33:13Z</time>
      </trkpt>
      <trkpt lat="48.43377" lon="2.72723">
        <ele>120</ele>
        <time>2013-04-21T12:33:14Z</time>
      </trkpt>
      <trkpt lat="48.43375" lon="2.72729">
        <ele>120</ele>
        <time>2013-04-21T12:33:15Z</time>
      </trkpt>
      <trkpt lat="48.43374" lon="2.72736">
        <ele>120</ele>
        <time>2013-04-21T12:33:16Z</time>
      </trkpt>
      <trkpt lat="48.43376" lon="2.72742">
        <ele>120</ele>
        <time>2013-04-21T12:33:17Z</time>
      </trkpt>
      <trkpt lat="48.43375" lon="2.72751">
        <ele>118</ele>
        <time>2013-04-21T12:33:18Z</time>
      </trkpt>
      <trkpt lat="48.43371" lon="2.72766">
        <ele>118</ele>
        <time>2013-04-21T12:33:20Z</time>
      </trkpt>
      <trkpt lat="48.4337" lon="2.72779">
        <ele>118</ele>
        <time>2013-04-21T12:33:22Z</time>
      </trkpt>
      <trkpt lat="48.43369" lon="2.72786">
        <ele>118</ele>
        <time>2013-04-21T12:33:24Z</time>
      </trkpt>
      <trkpt lat="48.43367" lon="2.72788">
        <ele>118</ele>
        <time>2013-04-21T12:33:25Z</time>
      </trkpt>
      <trkpt lat="48.43367" lon="2.72792">
        <ele>118</ele>
        <time>2013-04-21T12:33:26Z</time>
      </trkpt>
      <trkpt lat="48.43365" lon="2.72798">
        <ele>117</ele>
        <time>2013-04-21T12:33:28Z</time>
      </trkpt>
      <trkpt lat="48.43365" lon="2.72799">
        <ele>117</ele>
        <time>2013-04-21T12:33:29Z</time>
      </trkpt>
      <trkpt lat="48.43365" lon="2.728">
        <ele>117</ele>
        <time>2013-04-21T12:33:30Z</time>
      </trkpt>
      <trkpt lat="48.43365" lon="2.72801">
        <ele>117</ele>
        <time>2013-04-21T12:33:31Z</time>
      </trkpt>
      <trkpt lat="48.43365" lon="2.72802">
        <ele>117</ele>
        <time>2013-04-21T12:33:32Z</time>
      </trkpt>
      <trkpt lat="48.43365" lon="2.72804">
        <ele>117</ele>
        <time>2013-04-21T12:33:33Z</time>
      </trkpt>
      <trkpt lat="48.43365" lon="2.72805">
        <ele>117</ele>
        <time>2013-04-21T12:33:34Z</time>
      </trkpt>
      <trkpt lat="48.43365" lon="2.72809">
        <ele>117</ele>
        <time>2013-04-21T12:33:36Z</time>
      </trkpt>
      <trkpt lat="48.43365" lon="2.7281">
        <ele>117</ele>
        <time>2013-04-21T12:33:37Z</time>
      </trkpt>
      <trkpt lat="48.43365" lon="2.72812">
        <ele>117</ele>
        <time>2013-04-21T12:33:38Z</time>
      </trkpt>
      <trkpt lat="48.43364" lon="2.72815">
        <ele>117</ele>
        <time>2013-04-21T12:33:40Z</time>
      </trkpt>
      <trkpt lat="48.43363" lon="2.72819">
        <ele>117</ele>
        <time>2013-04-21T12:33:42Z</time>
      </trkpt>
      <trkpt lat="48.43363" lon="2.72821">
        <ele>117</ele>
        <time>2013-04-21T12:33:43Z</time>
      </trkpt>
      <trkpt lat="48.43363" lon="2.72822">
        <ele>117</ele>
        <time>2013-04-21T12:33:44Z</time>
      </trkpt>
      <trkpt lat="48.43364" lon="2.72824">
        <ele>117</ele>
        <time>2013-04-21T12:33:45Z</time>
      </trkpt>
      <trkpt lat="48.43364" lon="2.72825">
        <ele>117</ele>
        <time>2013-04-21T12:33:46Z</time>
      </trkpt>
      <trkpt lat="48.43364" lon="2.72826">
        <ele>117</ele>
        <time>2013-04-21T12:33:47Z</time>
      </trkpt>
      <trkpt lat="48.43364" lon="2.72828">
        <ele>117</ele>
        <time>2013-04-21T12:33:48Z</time>
      </trkpt>
      <trkpt lat="48.43363" lon="2.7283">
        <ele>117</ele>
        <time>2013-04-21T12:33:50Z</time>
      </trkpt>
      <trkpt lat="48.43363" lon="2.72831">
        <ele>117</ele>
        <time>2013-04-21T12:33:51Z</time>
      </trkpt>
      <trkpt lat="48.43362" lon="2.72833">
        <ele>117</ele>
        <time>2013-04-21T12:33:53Z</time>
      </trkpt>
      <trkpt lat="48.43362" lon="2.72834">
        <ele>116</ele>
        <time>2013-04-21T12:33:54Z</time>
      </trkpt>
      <trkpt lat="48.43362" lon="2.72837">
        <ele>116</ele>
        <time>2013-04-21T12:33:56Z</time>
      </trkpt>
      <trkpt lat="48.43362" lon="2.72839">
        <ele>116</ele>
        <time>2013-04-21T12:33:57Z</time>
      </trkpt>
      <trkpt lat="48.43361" lon="2.72842">
        <ele>116</ele>
        <time>2013-04-21T12:33:59Z</time>
      </trkpt>
      <trkpt lat="48.43361" lon="2.72843">
        <ele>116</ele>
        <time>2013-04-21T12:34:00Z</time>
      </trkpt>
      <trkpt lat="48.43361" lon="2.72844">
        <ele>116</ele>
        <time>2013-04-21T12:34:01Z</time>
      </trkpt>
      <trkpt lat="48.43361" lon="2.72846">
        <ele>116</ele>
        <time>2013-04-21T12:34:02Z</time>
      </trkpt>
      <trkpt lat="48.43361" lon="2.72848">
        <ele>116</ele>
        <time>2013-04-21T12:34:03Z</time>
      </trkpt>
      <trkpt lat="48.43361" lon="2.7285">
        <ele>116</ele>
        <time>2013-04-21T12:34:04Z</time>
      </trkpt>
      <trkpt lat="48.4336" lon="2.72853">
        <ele>116</ele>
        <time>2013-04-21T12:34:06Z</time>
      </trkpt>
      <trkpt lat="48.4336" lon="2.72857">
        <ele>116</ele>
        <time>2013-04-21T12:34:08Z</time>
      </trkpt>
      <trkpt lat="48.43361" lon="2.72858">
        <ele>116</ele>
        <time>2013-04-21T12:34:09Z</time>
      </trkpt>
      <trkpt lat="48.43359" lon="2.72866">
        <ele>116</ele>
        <time>2013-04-21T12:34:14Z</time>
      </trkpt>
      <trkpt lat="48.43359" lon="2.7287">
        <ele>116</ele>
        <time>2013-04-21T12:34:16Z</time>
      </trkpt>
      <trkpt lat="48.4336" lon="2.72872">
        <ele>116</ele>
        <time>2013-04-21T12:34:17Z</time>
      </trkpt>
      <trkpt lat="48.43359" lon="2.72874">
        <ele>116</ele>
        <time>2013-04-21T12:34:18Z</time>
      </trkpt>
      <trkpt lat="48.43356" lon="2.72879">
        <ele>115</ele>
        <time>2013-04-21T12:34:20Z</time>
      </trkpt>
      <trkpt lat="48.43355" lon="2.72883">
        <ele>115</ele>
        <time>2013-04-21T12:34:21Z</time>
      </trkpt>
      <trkpt lat="48.43355" lon="2.72886">
        <ele>115</ele>
        <time>2013-04-21T12:34:22Z</time>
      </trkpt>
      <trkpt lat="48.43354" lon="2.72893">
        <ele>115</ele>
        <time>2013-04-21T12:34:24Z</time>
      </trkpt>
      <trkpt lat="48.43354" lon="2.72896">
        <ele>115</ele>
        <time>2013-04-21T12:34:25Z</time>
      </trkpt>
      <trkpt lat="48.43354" lon="2.72899">
        <ele>115</ele>
        <time>2013-04-21T12:34:26Z</time>
      </trkpt>
      <trkpt lat="48.43354" lon="2.72913">
        <ele>115</ele>
        <time>2013-04-21T12:34:29Z</time>
      </trkpt>
      <trkpt lat="48.43355" lon="2.72917">
        <ele>114</ele>
        <time>2013-04-21T12:34:30Z</time>
      </trkpt>
      <trkpt lat="48.43355" lon="2.72924">
        <ele>114</ele>
        <time>2013-04-21T12:34:31Z</time>
      </trkpt>
      <trkpt lat="48.43352" lon="2.72939">
        <ele>113</ele>
        <time>2013-04-21T12:34:33Z</time>
      </trkpt>
      <trkpt lat="48.4335" lon="2.72948">
        <ele>113</ele>
        <time>2013-04-21T12:34:34Z</time>
      </trkpt>
      <trkpt lat="48.4334" lon="2.72979">
        <ele>114</ele>
        <time>2013-04-21T12:34:38Z</time>
      </trkpt>
      <trkpt lat="48.43337" lon="2.72998">
        <ele>115</ele>
        <time>2013-04-21T12:34:41Z</time>
      </trkpt>
      <trkpt lat="48.43334" lon="2.73003">
        <ele>115</ele>
        <time>2013-04-21T12:34:42Z</time>
      </trkpt>
      <trkpt lat="48.43321" lon="2.73016">
        <ele>114</ele>
        <time>2013-04-21T12:34:45Z</time>
      </trkpt>
      <trkpt lat="48.43312" lon="2.73028">
        <ele>114</ele>
        <time>2013-04-21T12:34:47Z</time>
      </trkpt>
      <trkpt lat="48.43309" lon="2.73032">
        <ele>113</ele>
        <time>2013-04-21T12:34:48Z</time>
      </trkpt>
      <trkpt lat="48.43308" lon="2.73037">
        <ele>113</ele>
        <time>2013-04-21T12:34:49Z</time>
      </trkpt>
      <trkpt lat="48.43309" lon="2.73041">
        <ele>113</ele>
        <time>2013-04-21T12:34:50Z</time>
      </trkpt>
      <trkpt lat="48.43311" lon="2.73046">
        <ele>114</ele>
        <time>2013-04-21T12:34:51Z</time>
      </trkpt>
      <trkpt lat="48.43311" lon="2.73052">
        <ele>114</ele>
        <time>2013-04-21T12:34:52Z</time>
      </trkpt>
      <trkpt lat="48.43308" lon="2.73057">
        <ele>114</ele>
        <time>2013-04-21T12:34:53Z</time>
      </trkpt>
      <trkpt lat="48.43305" lon="2.73061">
        <ele>114</ele>
        <time>2013-04-21T12:34:54Z</time>
      </trkpt>
      <trkpt lat="48.43301" lon="2.73062">
        <ele>113</ele>
        <time>2013-04-21T12:34:55Z</time>
      </trkpt>
      <trkpt lat="48.43297" lon="2.73065">
        <ele>113</ele>
        <time>2013-04-21T12:34:56Z</time>
      </trkpt>
      <trkpt lat="48.43295" lon="2.7307">
        <ele>113</ele>
        <time>2013-04-21T12:34:57Z</time>
      </trkpt>
      <trkpt lat="48.43288" lon="2.73093">
        <ele>112</ele>
        <time>2013-04-21T12:35:01Z</time>
      </trkpt>
      <trkpt lat="48.43287" lon="2.731">
        <ele>112</ele>
        <time>2013-04-21T12:35:02Z</time>
      </trkpt>
      <trkpt lat="48.43287" lon="2.73113">
        <ele>112</ele>
        <time>2013-04-21T12:35:04Z</time>
      </trkpt>
      <trkpt lat="48.43289" lon="2.73127">
        <ele>112</ele>
        <time>2013-04-21T12:35:06Z</time>
      </trkpt>
      <trkpt lat="48.43289" lon="2.73154">
        <ele>112</ele>
        <time>2013-04-21T12:35:10Z</time>
      </trkpt>
      <trkpt lat="48.4329" lon="2.7316">
        <ele>112</ele>
        <time>2013-04-21T12:35:11Z</time>
      </trkpt>
      <trkpt lat="48.43294" lon="2.73167">
        <ele>112</ele>
        <time>2013-04-21T12:35:13Z</time>
      </trkpt>
      <trkpt lat="48.43296" lon="2.73171">
        <ele>112</ele>
        <time>2013-04-21T12:35:14Z</time>
      </trkpt>
      <trkpt lat="48.43297" lon="2.73176">
        <ele>112</ele>
        <time>2013-04-21T12:35:15Z</time>
      </trkpt>
      <trkpt lat="48.433" lon="2.73205">
        <ele>111</ele>
        <time>2013-04-21T12:35:19Z</time>
      </trkpt>
      <trkpt lat="48.43299" lon="2.7322">
        <ele>111</ele>
        <time>2013-04-21T12:35:21Z</time>
      </trkpt>
      <trkpt lat="48.433" lon="2.73228">
        <ele>111</ele>
        <time>2013-04-21T12:35:22Z</time>
      </trkpt>
      <trkpt lat="48.43301" lon="2.73233">
        <ele>111</ele>
        <time>2013-04-21T12:35:23Z</time>
      </trkpt>
      <trkpt lat="48.43302" lon="2.73238">
        <ele>111</ele>
        <time>2013-04-21T12:35:24Z</time>
      </trkpt>
      <trkpt lat="48.43301" lon="2.73245">
        <ele>111</ele>
        <time>2013-04-21T12:35:26Z</time>
      </trkpt>
      <trkpt lat="48.433" lon="2.73249">
        <ele>111</ele>
        <time>2013-04-21T12:35:27Z</time>
      </trkpt>
      <trkpt lat="48.43297" lon="2.73268">
        <ele>109</ele>
        <time>2013-04-21T12:35:31Z</time>
      </trkpt>
      <trkpt lat="48.43294" lon="2.73272">
        <ele>109</ele>
        <time>2013-04-21T12:35:32Z</time>
      </trkpt>
      <trkpt lat="48.43291" lon="2.73275">
        <ele>109</ele>
        <time>2013-04-21T12:35:33Z</time>
      </trkpt>
      <trkpt lat="48.43287" lon="2.73279">
        <ele>109</ele>
        <time>2013-04-21T12:35:34Z</time>
      </trkpt>
      <trkpt lat="48.43282" lon="2.73283">
        <ele>109</ele>
        <time>2013-04-21T12:35:35Z</time>
      </trkpt>
      <trkpt lat="48.43273" lon="2.73286">
        <ele>108</ele>
        <time>2013-04-21T12:35:37Z</time>
      </trkpt>
      <trkpt lat="48.43269" lon="2.73289">
        <ele>108</ele>
        <time>2013-04-21T12:35:38Z</time>
      </trkpt>
      <trkpt lat="48.43265" lon="2.73291">
        <ele>108</ele>
        <time>2013-04-21T12:35:39Z</time>
      </trkpt>
      <trkpt lat="48.43261" lon="2.73291">
        <ele>108</ele>
        <time>2013-04-21T12:35:40Z</time>
      </trkpt>
      <trkpt lat="48.43253" lon="2.73289">
        <ele>108</ele>
        <time>2013-04-21T12:35:42Z</time>
      </trkpt>
      <trkpt lat="48.4325" lon="2.73291">
        <ele>108</ele>
        <time>2013-04-21T12:35:43Z</time>
      </trkpt>
      <trkpt lat="48.43249" lon="2.73294">
        <ele>107</ele>
        <time>2013-04-21T12:35:44Z</time>
      </trkpt>
      <trkpt lat="48.43248" lon="2.73297">
        <ele>107</ele>
        <time>2013-04-21T12:35:45Z</time>
      </trkpt>
      <trkpt lat="48.43249" lon="2.733">
        <ele>107</ele>
        <time>2013-04-21T12:35:46Z</time>
      </trkpt>
      <trkpt lat="48.43248" lon="2.7331">
        <ele>107</ele>
        <time>2013-04-21T12:35:49Z</time>
      </trkpt>
      <trkpt lat="48.4325" lon="2.73329">
        <ele>107</ele>
        <time>2013-04-21T12:35:53Z</time>
      </trkpt>
      <trkpt lat="48.43252" lon="2.73347">
        <ele>107</ele>
        <time>2013-04-21T12:35:55Z</time>
      </trkpt>
      <trkpt lat="48.4325" lon="2.73364">
        <ele>106</ele>
        <time>2013-04-21T12:35:57Z</time>
      </trkpt>
      <trkpt lat="48.4325" lon="2.7337">
        <ele>106</ele>
        <time>2013-04-21T12:35:58Z</time>
      </trkpt>
      <trkpt lat="48.43251" lon="2.73375">
        <ele>106</ele>
        <time>2013-04-21T12:35:59Z</time>
      </trkpt>
      <trkpt lat="48.43253" lon="2.73378">
        <ele>106</ele>
        <time>2013-04-21T12:36:00Z</time>
      </trkpt>
      <trkpt lat="48.43257" lon="2.73382">
        <ele>106</ele>
        <time>2013-04-21T12:36:01Z</time>
      </trkpt>
      <trkpt lat="48.43259" lon="2.73389">
        <ele>106</ele>
        <time>2013-04-21T12:36:02Z</time>
      </trkpt>
      <trkpt lat="48.4326" lon="2.73397">
        <ele>106</ele>
        <time>2013-04-21T12:36:03Z</time>
      </trkpt>
      <trkpt lat="48.43259" lon="2.73412">
        <ele>106</ele>
        <time>2013-04-21T12:36:05Z</time>
      </trkpt>
      <trkpt lat="48.43262" lon="2.73478">
        <ele>102</ele>
        <time>2013-04-21T12:36:13Z</time>
      </trkpt>
      <trkpt lat="48.43259" lon="2.73483">
        <ele>102</ele>
        <time>2013-04-21T12:36:14Z</time>
      </trkpt>
      <trkpt lat="48.43252" lon="2.73488">
        <ele>102</ele>
        <time>2013-04-21T12:36:16Z</time>
      </trkpt>
      <trkpt lat="48.43247" lon="2.73492">
        <ele>102</ele>
        <time>2013-04-21T12:36:17Z</time>
      </trkpt>
      <trkpt lat="48.43243" lon="2.73505">
        <ele>101</ele>
        <time>2013-04-21T12:36:19Z</time>
      </trkpt>
      <trkpt lat="48.43242" lon="2.73513">
        <ele>101</ele>
        <time>2013-04-21T12:36:20Z</time>
      </trkpt>
      <trkpt lat="48.43244" lon="2.73519">
        <ele>101</ele>
        <time>2013-04-21T12:36:21Z</time>
      </trkpt>
      <trkpt lat="48.43246" lon="2.73525">
        <ele>101</ele>
        <time>2013-04-21T12:36:22Z</time>
      </trkpt>
      <trkpt lat="48.43255" lon="2.73531">
        <ele>100</ele>
        <time>2013-04-21T12:36:24Z</time>
      </trkpt>
      <trkpt lat="48.43264" lon="2.7354">
        <ele>100</ele>
        <time>2013-04-21T12:36:26Z</time>
      </trkpt>
      <trkpt lat="48.43271" lon="2.73552">
        <ele>100</ele>
        <time>2013-04-21T12:36:28Z</time>
      </trkpt>
      <trkpt lat="48.43276" lon="2.73556">
        <ele>100</ele>
        <time>2013-04-21T12:36:29Z</time>
      </trkpt>
      <trkpt lat="48.433" lon="2.73568">
        <ele>100</ele>
        <time>2013-04-21T12:36:34Z</time>
      </trkpt>
      <trkpt lat="48.43301" lon="2.73571">
        <ele>100</ele>
        <time>2013-04-21T12:36:35Z</time>
      </trkpt>
      <trkpt lat="48.43301" lon="2.73573">
        <ele>100</ele>
        <time>2013-04-21T12:36:36Z</time>
      </trkpt>
      <trkpt lat="48.433" lon="2.73575">
        <ele>100</ele>
        <time>2013-04-21T12:36:37Z</time>
      </trkpt>
      <trkpt lat="48.43299" lon="2.73577">
        <ele>100</ele>
        <time>2013-04-21T12:36:38Z</time>
      </trkpt>
      <trkpt lat="48.43289" lon="2.73596">
        <ele>99</ele>
        <time>2013-04-21T12:36:45Z</time>
      </trkpt>
      <trkpt lat="48.43276" lon="2.73614">
        <ele>99</ele>
        <time>2013-04-21T12:36:52Z</time>
      </trkpt>
      <trkpt lat="48.4324" lon="2.73641">
        <ele>100</ele>
        <time>2013-04-21T12:37:05Z</time>
      </trkpt>
      <trkpt lat="48.43232" lon="2.7365">
        <ele>99</ele>
        <time>2013-04-21T12:37:07Z</time>
      </trkpt>
      <trkpt lat="48.43225" lon="2.73661">
        <ele>99</ele>
        <time>2013-04-21T12:37:09Z</time>
      </trkpt>
      <trkpt lat="48.4322" lon="2.73666">
        <ele>99</ele>
        <time>2013-04-21T12:37:10Z</time>
      </trkpt>
      <trkpt lat="48.43215" lon="2.73669">
        <ele>97</ele>
        <time>2013-04-21T12:37:11Z</time>
      </trkpt>
      <trkpt lat="48.4319" lon="2.73676">
        <ele>97</ele>
        <time>2013-04-21T12:37:15Z</time>
      </trkpt>
      <trkpt lat="48.43186" lon="2.73675">
        <ele>97</ele>
        <time>2013-04-21T12:37:16Z</time>
      </trkpt>
      <trkpt lat="48.43182" lon="2.7367">
        <ele>98</ele>
        <time>2013-04-21T12:37:17Z</time>
      </trkpt>
      <trkpt lat="48.43182" lon="2.73664">
        <ele>99</ele>
        <time>2013-04-21T12:37:18Z</time>
      </trkpt>
      <trkpt lat="48.43174" lon="2.73449">
        <ele>103</ele>
        <time>2013-04-21T12:38:03Z</time>
      </trkpt>
      <trkpt lat="48.43173" lon="2.73444">
        <ele>103</ele>
        <time>2013-04-21T12:38:04Z</time>
      </trkpt>
      <trkpt lat="48.43173" lon="2.7332">
        <ele>105</ele>
        <time>2013-04-21T12:38:31Z</time>
      </trkpt>
      <trkpt lat="48.43173" lon="2.73316">
        <ele>105</ele>
        <time>2013-04-21T12:38:32Z</time>
      </trkpt>
      <trkpt lat="48.43173" lon="2.73311">
        <ele>105</ele>
        <time>2013-04-21T12:38:33Z</time>
      </trkpt>
      <trkpt lat="48.43173" lon="2.73308">
        <ele>105</ele>
        <time>2013-04-21T12:38:34Z</time>
      </trkpt>
      <trkpt lat="48.43174" lon="2.7319">
        <ele>107</ele>
        <time>2013-04-21T12:39:00Z</time>
      </trkpt>
      <trkpt lat="48.43174" lon="2.73186">
        <ele>107</ele>
        <time>2013-04-21T12:39:01Z</time>
      </trkpt>
      <trkpt lat="48.43171" lon="2.72979">
        <ele>109</ele>
        <time>2013-04-21T12:39:42Z</time>
      </trkpt>
      <trkpt lat="48.43171" lon="2.72972">
        <ele>109</ele>
        <time>2013-04-21T12:39:43Z</time>
      </trkpt>
      <trkpt lat="48.43173" lon="2.72745">
        <ele>111</ele>
        <time>2013-04-21T12:40:27Z</time>
      </trkpt>
      <trkpt lat="48.43173" lon="2.72702">
        <ele>112</ele>
        <time>2013-04-21T12:40:36Z</time>
      </trkpt>
      <trkpt lat="48.43177" lon="2.72637">
        <ele>115</ele>
        <time>2013-04-21T12:40:54Z</time>
      </trkpt>
      <trkpt lat="48.43177" lon="2.72633">
        <ele>115</ele>
        <time>2013-04-21T12:40:55Z</time>
      </trkpt>
      <trkpt lat="48.4318" lon="2.72616">
        <ele>115</ele>
        <time>2013-04-21T12:41:00Z</time>
      </trkpt>
      <trkpt lat="48.43182" lon="2.72572">
        <ele>118</ele>
        <time>2013-04-21T12:41:12Z</time>
      </trkpt>
      <trkpt lat="48.43182" lon="2.72559">
        <ele>119</ele>
        <time>2013-04-21T12:41:16Z</time>
      </trkpt>
      <trkpt lat="48.43184" lon="2.72553">
        <ele>119</ele>
        <time>2013-04-21T12:41:18Z</time>
      </trkpt>
      <trkpt lat="48.43184" lon="2.72551">
        <ele>119</ele>
        <time>2013-04-21T12:41:19Z</time>
      </trkpt>
      <trkpt lat="48.43184" lon="2.72549">
        <ele>119</ele>
        <time>2013-04-21T12:41:20Z</time>
      </trkpt>
      <trkpt lat="48.43184" lon="2.72547">
        <ele>119</ele>
        <time>2013-04-21T12:41:21Z</time>
      </trkpt>
      <trkpt lat="48.43187" lon="2.72538">
        <ele>119</ele>
        <time>2013-04-21T12:41:25Z</time>
      </trkpt>
      <trkpt lat="48.43188" lon="2.72533">
        <ele>119</ele>
        <time>2013-04-21T12:41:27Z</time>
      </trkpt>
      <trkpt lat="48.4319" lon="2.72523">
        <ele>120</ele>
        <time>2013-04-21T12:41:31Z</time>
      </trkpt>
      <trkpt lat="48.43192" lon="2.72513">
        <ele>120</ele>
        <time>2013-04-21T12:41:35Z</time>
      </trkpt>
      <trkpt lat="48.43192" lon="2.72507">
        <ele>120</ele>
        <time>2013-04-21T12:41:37Z</time>
      </trkpt>
      <trkpt lat="48.43192" lon="2.72505">
        <ele>120</ele>
        <time>2013-04-21T12:41:38Z</time>
      </trkpt>
      <trkpt lat="48.43193" lon="2.72502">
        <ele>120</ele>
        <time>2013-04-21T12:41:39Z</time>
      </trkpt>
      <trkpt lat="48.43193" lon="2.72495">
        <ele>123</ele>
        <time>2013-04-21T12:41:42Z</time>
      </trkpt>
      <trkpt lat="48.43193" lon="2.72492">
        <ele>123</ele>
        <time>2013-04-21T12:41:43Z</time>
      </trkpt>
      <trkpt lat="48.43193" lon="2.72489">
        <ele>123</ele>
        <time>2013-04-21T12:41:45Z</time>
      </trkpt>
      <trkpt lat="48.43192" lon="2.72487">
        <ele>123</ele>
        <time>2013-04-21T12:41:46Z</time>
      </trkpt>
      <trkpt lat="48.43193" lon="2.72485">
        <ele>123</ele>
        <time>2013-04-21T12:41:47Z</time>
      </trkpt>
      <trkpt lat="48.43193" lon="2.72483">
        <ele>123</ele>
        <time>2013-04-21T12:41:48Z</time>
      </trkpt>
      <trkpt lat="48.43191" lon="2.72468">
        <ele>123</ele>
        <time>2013-04-21T12:41:55Z</time>
      </trkpt>
      <trkpt lat="48.43191" lon="2.72466">
        <ele>123</ele>
        <time>2013-04-21T12:41:56Z</time>
      </trkpt>
      <trkpt lat="48.43191" lon="2.72464">
        <ele>123</ele>
        <time>2013-04-21T12:41:57Z</time>
      </trkpt>
      <trkpt lat="48.43189" lon="2.72458">
        <ele>123</ele>
        <time>2013-04-21T12:42:00Z</time>
      </trkpt>
      <trkpt lat="48.43188" lon="2.72449">
        <ele>124</ele>
        <time>2013-04-21T12:42:04Z</time>
      </trkpt>
      <trkpt lat="48.43188" lon="2.72446">
        <ele>124</ele>
        <time>2013-04-21T12:42:05Z</time>
      </trkpt>
      <trkpt lat="48.43188" lon="2.72444">
        <ele>124</ele>
        <time>2013-04-21T12:42:06Z</time>
      </trkpt>
      <trkpt lat="48.43187" lon="2.7244">
        <ele>124</ele>
        <time>2013-04-21T12:42:08Z</time>
      </trkpt>
      <trkpt lat="48.43187" lon="2.72438">
        <ele>124</ele>
        <time>2013-04-21T12:42:09Z</time>
      </trkpt>
      <trkpt lat="48.43187" lon="2.72436">
        <ele>124</ele>
        <time>2013-04-21T12:42:10Z</time>
      </trkpt>
      <trkpt lat="48.43186" lon="2.72434">
        <ele>125</ele>
        <time>2013-04-21T12:42:11Z</time>
      </trkpt>
      <trkpt lat="48.43184" lon="2.7242">
        <ele>125</ele>
        <time>2013-04-21T12:42:17Z</time>
      </trkpt>
      <trkpt lat="48.43184" lon="2.72415">
        <ele>127</ele>
        <time>2013-04-21T12:42:19Z</time>
      </trkpt>
      <trkpt lat="48.43183" lon="2.72413">
        <ele>127</ele>
        <time>2013-04-21T12:42:20Z</time>
      </trkpt>
      <trkpt lat="48.43182" lon="2.72411">
        <ele>127</ele>
        <time>2013-04-21T12:42:21Z</time>
      </trkpt>
      <trkpt lat="48.43178" lon="2.72393">
        <ele>127</ele>
        <time>2013-04-21T12:42:29Z</time>
      </trkpt>
      <trkpt lat="48.43177" lon="2.72392">
        <ele>127</ele>
        <time>2013-04-21T12:42:30Z</time>
      </trkpt>
      <trkpt lat="48.43174" lon="2.72386">
        <ele>127</ele>
        <time>2013-04-21T12:42:33Z</time>
      </trkpt>
      <trkpt lat="48.43173" lon="2.72385">
        <ele>127</ele>
        <time>2013-04-21T12:42:34Z</time>
      </trkpt>
      <trkpt lat="48.43172" lon="2.72383">
        <ele>127</ele>
        <time>2013-04-21T12:42:35Z</time>
      </trkpt>
      <trkpt lat="48.43171" lon="2.72382">
        <ele>127</ele>
        <time>2013-04-21T12:42:36Z</time>
      </trkpt>
      <trkpt lat="48.43166" lon="2.72379">
        <ele>131</ele>
        <time>2013-04-21T12:42:39Z</time>
      </trkpt>
      <trkpt lat="48.43161" lon="2.72376">
        <ele>131</ele>
        <time>2013-04-21T12:42:43Z</time>
      </trkpt>
      <trkpt lat="48.43155" lon="2.72375">
        <ele>132</ele>
        <time>2013-04-21T12:42:47Z</time>
      </trkpt>
      <trkpt lat="48.43151" lon="2.72375">
        <ele>132</ele>
        <time>2013-04-21T12:42:50Z</time>
      </trkpt>
      <trkpt lat="48.43148" lon="2.72374">
        <ele>132</ele>
        <time>2013-04-21T12:42:52Z</time>
      </trkpt>
      <trkpt lat="48.43146" lon="2.72373">
        <ele>132</ele>
        <time>2013-04-21T12:42:54Z</time>
      </trkpt>
      <trkpt lat="48.43144" lon="2.72372">
        <ele>132</ele>
        <time>2013-04-21T12:42:56Z</time>
      </trkpt>
      <trkpt lat="48.43143" lon="2.72371">
        <ele>132</ele>
        <time>2013-04-21T12:42:57Z</time>
      </trkpt>
      <trkpt lat="48.43142" lon="2.72371">
        <ele>132</ele>
        <time>2013-04-21T12:42:58Z</time>
      </trkpt>
      <trkpt lat="48.43142" lon="2.7237">
        <ele>132</ele>
        <time>2013-04-21T12:42:59Z</time>
      </trkpt>
      <trkpt lat="48.43139" lon="2.7237">
        <ele>132</ele>
        <time>2013-04-21T12:43:05Z</time>
      </trkpt>
      <trkpt lat="48.43139" lon="2.7237">
        <ele>132</ele>
        <time>2013-04-21T12:43:06Z</time>
      </trkpt>
      <trkpt lat="48.43138" lon="2.7237">
        <ele>132</ele>
        <time>2013-04-21T12:43:07Z</time>
      </trkpt>
      <trkpt lat="48.43138" lon="2.7237">
        <ele>132</ele>
        <time>2013-04-21T12:43:08Z</time>
      </trkpt>
      <trkpt lat="48.43138" lon="2.7237">
        <ele>132</ele>
        <time>2013-04-21T12:43:10Z</time>
      </trkpt>
      <trkpt lat="48.43137" lon="2.7237">
        <ele>132</ele>
        <time>2013-04-21T12:43:11Z</time>
      </trkpt>
      <trkpt lat="48.43137" lon="2.7237">
        <ele>132</ele>
        <time>2013-04-21T12:43:12Z</time>
      </trkpt>
      <trkpt lat="48.43137" lon="2.7237">
        <ele>132</ele>
        <time>2013-04-21T12:43:14Z</time>
      </trkpt>
      <trkpt lat="48.43136" lon="2.7237">
        <ele>132</ele>
        <time>2013-04-21T12:43:15Z</time>
      </trkpt>
      <trkpt lat="48.43136" lon="2.7237">
        <ele>132</ele>
        <time>2013-04-21T12:43:16Z</time>
      </trkpt>
      <trkpt lat="48.43136" lon="2.7237">
        <ele>132</ele>
        <time>2013-04-21T12:43:17Z</time>
      </trkpt>
      <trkpt lat="48.43136" lon="2.7237">
        <ele>132</ele>
        <time>2013-04-21T12:43:18Z</time>
      </trkpt>
      <trkpt lat="48.43136" lon="2.7237">
        <ele>132</ele>
        <time>2013-04-21T12:43:20Z</time>
      </trkpt>
      <trkpt lat="48.43135" lon="2.7237">
        <ele>132</ele>
        <time>2013-04-21T12:43:21Z</time>
      </trkpt>
      <trkpt lat="48.43135" lon="2.7237">
        <ele>132</ele>
        <time>2013-04-21T12:43:22Z</time>
      </trkpt>
      <trkpt lat="48.43135" lon="2.7237">
        <ele>132</ele>
        <time>2013-04-21T12:43:23Z</time>
      </trkpt>
      <trkpt lat="48.43135" lon="2.72369">
        <ele>132</ele>
        <time>2013-04-21T12:43:25Z</time>
      </trkpt>
      <trkpt lat="48.43134" lon="2.72369">
        <ele>132</ele>
        <time>2013-04-21T12:43:26Z</time>
      </trkpt>
      <trkpt lat="48.43134" lon="2.72369">
        <ele>132</ele>
        <time>2013-04-21T12:43:27Z</time>
      </trkpt>
      <trkpt lat="48.43134" lon="2.72369">
        <ele>132</ele>
        <time>2013-04-21T12:43:29Z</time>
      </trkpt>
      <trkpt lat="48.43134" lon="2.72369">
        <ele>132</ele>
        <time>2013-04-21T12:43:31Z</time>
      </trkpt>
      <trkpt lat="48.43134" lon="2.72369">
        <ele>132</ele>
        <time>2013-04-21T12:43:32Z</time>
      </trkpt>
      <trkpt lat="48.43133" lon="2.72369">
        <ele>132</ele>
        <time>2013-04-21T12:43:35Z</time>
      </trkpt>
      <trkpt lat="48.43133" lon="2.72369">
        <ele>132</ele>
        <time>2013-04-21T12:43:36Z</time>
      </trkpt>
      <trkpt lat="48.43133" lon="2.72369">
        <ele>132</ele>
        <time>2013-04-21T12:43:37Z</time>
      </trkpt>
      <trkpt lat="48.43133" lon="2.72369">
        <ele>132</ele>
        <time>2013-04-21T12:43:40Z</time>
      </trkpt>
      <trkpt lat="48.43132" lon="2.72369">
        <ele>132</ele>
        <time>2013-04-21T12:43:42Z</time>
      </trkpt>
      <trkpt lat="48.43132" lon="2.72369">
        <ele>132</ele>
        <time>2013-04-21T12:43:45Z</time>
      </trkpt>
      <trkpt lat="48.43132" lon="2.72369">
        <ele>132</ele>
        <time>2013-04-21T12:43:50Z</time>
      </trkpt>
      <trkpt lat="48.43132" lon="2.72368">
        <ele>132</ele>
        <time>2013-04-21T12:43:51Z</time>
      </trkpt>
      <trkpt lat="48.43132" lon="2.72368">
        <ele>132</ele>
        <time>2013-04-21T12:43:52Z</time>
      </trkpt>
      <trkpt lat="48.43131" lon="2.72368">
        <ele>132</ele>
        <time>2013-04-21T12:43:53Z</time>
      </trkpt>
      <trkpt lat="48.43131" lon="2.72368">
        <ele>132</ele>
        <time>2013-04-21T12:43:54Z</time>
      </trkpt>
      <trkpt lat="48.43131" lon="2.72369">
        <ele>132</ele>
        <time>2013-04-21T12:43:56Z</time>
      </trkpt>
      <trkpt lat="48.43131" lon="2.72368">
        <ele>132</ele>
        <time>2013-04-21T12:43:58Z</time>
      </trkpt>
      <trkpt lat="48.43131" lon="2.72368">
        <ele>132</ele>
        <time>2013-04-21T12:44:00Z</time>
      </trkpt>
      <trkpt lat="48.43131" lon="2.72368">
        <ele>132</ele>
        <time>2013-04-21T12:44:01Z</time>
      </trkpt>
      <trkpt lat="48.43131" lon="2.72368">
        <ele>132</ele>
        <time>2013-04-21T12:44:02Z</time>
      </trkpt>
      <trkpt lat="48.43131" lon="2.72368">
        <ele>132</ele>
        <time>2013-04-21T12:44:04Z</time>
      </trkpt>
      <trkpt lat="48.4313" lon="2.72366">
        <ele>133</ele>
        <time>2013-04-21T12:44:05Z</time>
      </trkpt>
      <trkpt lat="48.4313" lon="2.72365">
        <ele>133</ele>
        <time>2013-04-21T12:44:06Z</time>
      </trkpt>
      <trkpt lat="48.4313" lon="2.72358">
        <ele>133</ele>
        <time>2013-04-21T12:44:09Z</time>
      </trkpt>
      <trkpt lat="48.43129" lon="2.72356">
        <ele>133</ele>
        <time>2013-04-21T12:44:10Z</time>
      </trkpt>
      <trkpt lat="48.43128" lon="2.72349">
        <ele>133</ele>
        <time>2013-04-21T12:44:14Z</time>
      </trkpt>
      <trkpt lat="48.43127" lon="2.72347">
        <ele>133</ele>
        <time>2013-04-21T12:44:15Z</time>
      </trkpt>
      <trkpt lat="48.43126" lon="2.72345">
        <ele>133</ele>
        <time>2013-04-21T12:44:16Z</time>
      </trkpt>
      <trkpt lat="48.43125" lon="2.72341">
        <ele>133</ele>
        <time>2013-04-21T12:44:18Z</time>
      </trkpt>
      <trkpt lat="48.43124" lon="2.72337">
        <ele>133</ele>
        <time>2013-04-21T12:44:21Z</time>
      </trkpt>
      <trkpt lat="48.43123" lon="2.72335">
        <ele>133</ele>
        <time>2013-04-21T12:44:22Z</time>
      </trkpt>
      <trkpt lat="48.43123" lon="2.72334">
        <ele>133</ele>
        <time>2013-04-21T12:44:23Z</time>
      </trkpt>
      <trkpt lat="48.43122" lon="2.72327">
        <ele>136</ele>
        <time>2013-04-21T12:44:27Z</time>
      </trkpt>
      <trkpt lat="48.4312" lon="2.72322">
        <ele>136</ele>
        <time>2013-04-21T12:44:30Z</time>
      </trkpt>
      <trkpt lat="48.4312" lon="2.7232">
        <ele>136</ele>
        <time>2013-04-21T12:44:31Z</time>
      </trkpt>
      <trkpt lat="48.4312" lon="2.72318">
        <ele>136</ele>
        <time>2013-04-21T12:44:32Z</time>
      </trkpt>
      <trkpt lat="48.43119" lon="2.72317">
        <ele>136</ele>
        <time>2013-04-21T12:44:33Z</time>
      </trkpt>
      <trkpt lat="48.43117" lon="2.72311">
        <ele>137</ele>
        <time>2013-04-21T12:44:36Z</time>
      </trkpt>
      <trkpt lat="48.43116" lon="2.72308">
        <ele>137</ele>
        <time>2013-04-21T12:44:37Z</time>
      </trkpt>
      <trkpt lat="48.43116" lon="2.72306">
        <ele>137</ele>
        <time>2013-04-21T12:44:38Z</time>
      </trkpt>
      <trkpt lat="48.43115" lon="2.72302">
        <ele>137</ele>
        <time>2013-04-21T12:44:40Z</time>
      </trkpt>
      <trkpt lat="48.43113" lon="2.72297">
        <ele>137</ele>
        <time>2013-04-21T12:44:42Z</time>
      </trkpt>
      <trkpt lat="48.43112" lon="2.72293">
        <ele>137</ele>
        <time>2013-04-21T12:44:44Z</time>
      </trkpt>
      <trkpt lat="48.43112" lon="2.72291">
        <ele>137</ele>
        <time>2013-04-21T12:44:45Z</time>
      </trkpt>
      <trkpt lat="48.43109" lon="2.72279">
        <ele>138</ele>
        <time>2013-04-21T12:44:49Z</time>
      </trkpt>
      <trkpt lat="48.431" lon="2.72255">
        <ele>139</ele>
        <time>2013-04-21T12:44:57Z</time>
      </trkpt>
      <trkpt lat="48.43097" lon="2.72248">
        <ele>140</ele>
        <time>2013-04-21T12:44:59Z</time>
      </trkpt>
      <trkpt lat="48.43096" lon="2.72245">
        <ele>140</ele>
        <time>2013-04-21T12:45:00Z</time>
      </trkpt>
      <trkpt lat="48.43092" lon="2.72231">
        <ele>140</ele>
        <time>2013-04-21T12:45:04Z</time>
      </trkpt>
      <trkpt lat="48.43081" lon="2.72194">
        <ele>141</ele>
        <time>2013-04-21T12:45:13Z</time>
      </trkpt>
      <trkpt lat="48.43076" lon="2.72181">
        <ele>141</ele>
        <time>2013-04-21T12:45:16Z</time>
      </trkpt>
      <trkpt lat="48.43041" lon="2.72082">
        <ele>142</ele>
        <time>2013-04-21T12:45:38Z</time>
      </trkpt>
      <trkpt lat="48.43039" lon="2.72078">
        <ele>142</ele>
        <time>2013-04-21T12:45:39Z</time>
      </trkpt>
      <trkpt lat="48.43034" lon="2.72064">
        <ele>142</ele>
        <time>2013-04-21T12:45:42Z</time>
      </trkpt>
      <trkpt lat="48.43031" lon="2.72053">
        <ele>142</ele>
        <time>2013-04-21T12:45:45Z</time>
      </trkpt>
      <trkpt lat="48.4303" lon="2.72045">
        <ele>142</ele>
        <time>2013-04-21T12:45:47Z</time>
      </trkpt>
      <trkpt lat="48.43022" lon="2.7202">
        <ele>143</ele>
        <time>2013-04-21T12:45:52Z</time>
      </trkpt>
      <trkpt lat="48.43003" lon="2.71972">
        <ele>143</ele>
        <time>2013-04-21T12:46:03Z</time>
      </trkpt>
      <trkpt lat="48.43002" lon="2.71967">
        <ele>143</ele>
        <time>2013-04-21T12:46:04Z</time>
      </trkpt>
      <trkpt lat="48.42982" lon="2.71908">
        <ele>144</ele>
        <time>2013-04-21T12:46:17Z</time>
      </trkpt>
      <trkpt lat="48.42983" lon="2.71904">
        <ele>144</ele>
        <time>2013-04-21T12:46:18Z</time>
      </trkpt>
      <trkpt lat="48.42983" lon="2.719">
        <ele>144</ele>
        <time>2013-04-21T12:46:19Z</time>
      </trkpt>
      <trkpt lat="48.42982" lon="2.71898">
        <ele>144</ele>
        <time>2013-04-21T12:46:20Z</time>
      </trkpt>
      <trkpt lat="48.42976" lon="2.71892">
        <ele>144</ele>
        <time>2013-04-21T12:46:23Z</time>
      </trkpt>
      <trkpt lat="48.42973" lon="2.7189">
        <ele>144</ele>
        <time>2013-04-21T12:46:24Z</time>
      </trkpt>
      <trkpt lat="48.42971" lon="2.7189">
        <ele>145</ele>
        <time>2013-04-21T12:46:25Z</time>
      </trkpt>
      <trkpt lat="48.42969" lon="2.71891">
        <ele>145</ele>
        <time>2013-04-21T12:46:26Z</time>
      </trkpt>
      <trkpt lat="48.42966" lon="2.71893">
        <ele>145</ele>
        <time>2013-04-21T12:46:28Z</time>
      </trkpt>
      <trkpt lat="48.42965" lon="2.71894">
        <ele>145</ele>
        <time>2013-04-21T12:46:29Z</time>
      </trkpt>
      <trkpt lat="48.42964" lon="2.71895">
        <ele>145</ele>
        <time>2013-04-21T12:46:30Z</time>
      </trkpt>
      <trkpt lat="48.42965" lon="2.71895">
        <ele>145</ele>
        <time>2013-04-21T12:46:31Z</time>
      </trkpt>
      <trkpt lat="48.42964" lon="2.71895">
        <ele>145</ele>
        <time>2013-04-21T12:46:32Z</time>
      </trkpt>
      <trkpt lat="48.42964" lon="2.71896">
        <ele>145</ele>
        <time>2013-04-21T12:46:33Z</time>
      </trkpt>
      <trkpt lat="48.42964" lon="2.71895">
        <ele>145</ele>
        <time>2013-04-21T12:46:34Z</time>
      </trkpt>
      <trkpt lat="48.42963" lon="2.71895">
        <ele>145</ele>
        <time>2013-04-21T12:46:35Z</time>
      </trkpt>
      <trkpt lat="48.42963" lon="2.71894">
        <ele>145</ele>
        <time>2013-04-21T12:46:36Z</time>
      </trkpt>
      <trkpt lat="48.42962" lon="2.71894">
        <ele>145</ele>
        <time>2013-04-21T12:46:37Z</time>
      </trkpt>
      <trkpt lat="48.42962" lon="2.71894">
        <ele>145</ele>
        <time>2013-04-21T12:46:38Z</time>
      </trkpt>
      <trkpt lat="48.42962" lon="2.71894">
        <ele>145</ele>
        <time>2013-04-21T12:46:39Z</time>
      </trkpt>
      <trkpt lat="48.42961" lon="2.71894">
        <ele>145</ele>
        <time>2013-04-21T12:46:40Z</time>
      </trkpt>
      <trkpt lat="48.42961" lon="2.71893">
        <ele>145</ele>
        <time>2013-04-21T12:46:41Z</time>
      </trkpt>
      <trkpt lat="48.42961" lon="2.71893">
        <ele>145</ele>
        <time>2013-04-21T12:46:42Z</time>
      </trkpt>
      <trkpt lat="48.4296" lon="2.71893">
        <ele>145</ele>
        <time>2013-04-21T12:46:43Z</time>
      </trkpt>
      <trkpt lat="48.4296" lon="2.71892">
        <ele>145</ele>
        <time>2013-04-21T12:46:44Z</time>
      </trkpt>
      <trkpt lat="48.4296" lon="2.71892">
        <ele>145</ele>
        <time>2013-04-21T12:46:45Z</time>
      </trkpt>
      <trkpt lat="48.42959" lon="2.71892">
        <ele>145</ele>
        <time>2013-04-21T12:46:46Z</time>
      </trkpt>
      <trkpt lat="48.42959" lon="2.71891">
        <ele>145</ele>
        <time>2013-04-21T12:46:47Z</time>
      </trkpt>
      <trkpt lat="48.42959" lon="2.71891">
        <ele>145</ele>
        <time>2013-04-21T12:46:48Z</time>
      </trkpt>
      <trkpt lat="48.42959" lon="2.7189">
        <ele>145</ele>
        <time>2013-04-21T12:46:49Z</time>
      </trkpt>
      <trkpt lat="48.42958" lon="2.71889">
        <ele>145</ele>
        <time>2013-04-21T12:46:51Z</time>
      </trkpt>
    </trkseg>
  </trk>
</gpx>